<?xml version="1.0" encoding="UTF-8"?>
<gpx creator="StravaGPX" version="1.1" xmlns="http://www.topografix.com/GPX/1/1" xmlns:xsi="http://www.w3.org/2001/XMLSchema-instance" xsi:schemaLocation="http://www.topografix.com/GPX/1/1 http://www.topografix.com/GPX/1/1/gpx.xsd">
 <metadata>
  <time>2026-06-20T09:38:55Z</time>
 </metadata>
 <trk>
  <name>Day 1/5 team Kilimanjaro  🇹🇿🥾🫶 (Umbwe Route)</name>
  <type>hiking</type>
  <trkseg>
   <trkpt lat="-3.1895560" lon="37.2793600">
    <ele>1661.0</ele>
    <time>2026-06-20T09:38:55Z</time>
   </trkpt>
   <trkpt lat="-3.1896760" lon="37.2794200">
    <ele>1660.9</ele>
    <time>2026-06-20T09:39:01Z</time>
   </trkpt>
   <trkpt lat="-3.1896960" lon="37.2794300">
    <ele>1660.9</ele>
    <time>2026-06-20T09:39:02Z</time>
   </trkpt>
   <trkpt lat="-3.1897160" lon="37.2794400">
    <ele>1660.9</ele>
    <time>2026-06-20T09:39:03Z</time>
   </trkpt>
   <trkpt lat="-3.1897090" lon="37.2794380">
    <ele>1660.9</ele>
    <time>2026-06-20T09:39:04Z</time>
   </trkpt>
   <trkpt lat="-3.1897070" lon="37.2794370">
    <ele>1660.9</ele>
    <time>2026-06-20T09:39:05Z</time>
   </trkpt>
   <trkpt lat="-3.1897070" lon="37.2794450">
    <ele>1660.9</ele>
    <time>2026-06-20T09:39:06Z</time>
   </trkpt>
   <trkpt lat="-3.1897080" lon="37.2794510">
    <ele>1660.9</ele>
    <time>2026-06-20T09:39:07Z</time>
   </trkpt>
   <trkpt lat="-3.1897060" lon="37.2794530">
    <ele>1660.9</ele>
    <time>2026-06-20T09:39:08Z</time>
   </trkpt>
   <trkpt lat="-3.1897070" lon="37.2794550">
    <ele>1660.9</ele>
    <time>2026-06-20T09:39:09Z</time>
   </trkpt>
   <trkpt lat="-3.1897210" lon="37.2794390">
    <ele>1660.9</ele>
    <time>2026-06-20T09:39:10Z</time>
   </trkpt>
   <trkpt lat="-3.1897270" lon="37.2794290">
    <ele>1660.9</ele>
    <time>2026-06-20T09:39:11Z</time>
   </trkpt>
   <trkpt lat="-3.1897310" lon="37.2794210">
    <ele>1660.9</ele>
    <time>2026-06-20T09:39:12Z</time>
   </trkpt>
   <trkpt lat="-3.1897310" lon="37.2794210">
    <ele>1660.9</ele>
    <time>2026-06-20T09:39:13Z</time>
   </trkpt>
   <trkpt lat="-3.1897360" lon="37.2794070">
    <ele>1660.9</ele>
    <time>2026-06-20T09:39:14Z</time>
   </trkpt>
   <trkpt lat="-3.1897430" lon="37.2793980">
    <ele>1660.9</ele>
    <time>2026-06-20T09:39:15Z</time>
   </trkpt>
   <trkpt lat="-3.1897460" lon="37.2793910">
    <ele>1660.9</ele>
    <time>2026-06-20T09:39:16Z</time>
   </trkpt>
   <trkpt lat="-3.1897530" lon="37.2793840">
    <ele>1660.8</ele>
    <time>2026-06-20T09:39:17Z</time>
   </trkpt>
   <trkpt lat="-3.1897580" lon="37.2793780">
    <ele>1660.8</ele>
    <time>2026-06-20T09:39:18Z</time>
   </trkpt>
   <trkpt lat="-3.1897570" lon="37.2793740">
    <ele>1660.8</ele>
    <time>2026-06-20T09:39:19Z</time>
   </trkpt>
   <trkpt lat="-3.1897600" lon="37.2793740">
    <ele>1660.8</ele>
    <time>2026-06-20T09:39:20Z</time>
   </trkpt>
   <trkpt lat="-3.1897600" lon="37.2793740">
    <ele>1660.8</ele>
    <time>2026-06-20T09:39:21Z</time>
   </trkpt>
   <trkpt lat="-3.1897450" lon="37.2793920">
    <ele>1660.8</ele>
    <time>2026-06-20T09:39:22Z</time>
   </trkpt>
   <trkpt lat="-3.1897440" lon="37.2794000">
    <ele>1660.8</ele>
    <time>2026-06-20T09:39:23Z</time>
   </trkpt>
   <trkpt lat="-3.1897440" lon="37.2794050">
    <ele>1660.8</ele>
    <time>2026-06-20T09:39:24Z</time>
   </trkpt>
   <trkpt lat="-3.1897450" lon="37.2794040">
    <ele>1660.8</ele>
    <time>2026-06-20T09:39:25Z</time>
   </trkpt>
   <trkpt lat="-3.1897400" lon="37.2794110">
    <ele>1660.8</ele>
    <time>2026-06-20T09:39:26Z</time>
   </trkpt>
   <trkpt lat="-3.1897400" lon="37.2794110">
    <ele>1660.8</ele>
    <time>2026-06-20T09:39:27Z</time>
   </trkpt>
   <trkpt lat="-3.1897400" lon="37.2794110">
    <ele>1660.8</ele>
    <time>2026-06-20T09:39:28Z</time>
   </trkpt>
   <trkpt lat="-3.1897400" lon="37.2794110">
    <ele>1660.8</ele>
    <time>2026-06-20T09:39:29Z</time>
   </trkpt>
   <trkpt lat="-3.1897400" lon="37.2794110">
    <ele>1660.8</ele>
    <time>2026-06-20T09:39:30Z</time>
   </trkpt>
   <trkpt lat="-3.1897400" lon="37.2794110">
    <ele>1660.8</ele>
    <time>2026-06-20T09:39:31Z</time>
   </trkpt>
   <trkpt lat="-3.1897400" lon="37.2794110">
    <ele>1660.8</ele>
    <time>2026-06-20T09:39:32Z</time>
   </trkpt>
   <trkpt lat="-3.1897400" lon="37.2794110">
    <ele>1660.8</ele>
    <time>2026-06-20T09:39:33Z</time>
   </trkpt>
   <trkpt lat="-3.1897400" lon="37.2794110">
    <ele>1660.8</ele>
    <time>2026-06-20T09:39:34Z</time>
   </trkpt>
   <trkpt lat="-3.1897400" lon="37.2794110">
    <ele>1660.8</ele>
    <time>2026-06-20T09:39:35Z</time>
   </trkpt>
   <trkpt lat="-3.1897400" lon="37.2794110">
    <ele>1660.8</ele>
    <time>2026-06-20T09:39:36Z</time>
   </trkpt>
   <trkpt lat="-3.1897500" lon="37.2794150">
    <ele>1660.8</ele>
    <time>2026-06-20T09:39:37Z</time>
   </trkpt>
   <trkpt lat="-3.1897500" lon="37.2794150">
    <ele>1660.8</ele>
    <time>2026-06-20T09:39:38Z</time>
   </trkpt>
   <trkpt lat="-3.1897600" lon="37.2794040">
    <ele>1660.8</ele>
    <time>2026-06-20T09:39:39Z</time>
   </trkpt>
   <trkpt lat="-3.1897700" lon="37.2794020">
    <ele>1660.8</ele>
    <time>2026-06-20T09:39:40Z</time>
   </trkpt>
   <trkpt lat="-3.1897880" lon="37.2794070">
    <ele>1660.8</ele>
    <time>2026-06-20T09:39:41Z</time>
   </trkpt>
   <trkpt lat="-3.1898030" lon="37.2794080">
    <ele>1660.8</ele>
    <time>2026-06-20T09:39:42Z</time>
   </trkpt>
   <trkpt lat="-3.1898080" lon="37.2794090">
    <ele>1660.8</ele>
    <time>2026-06-20T09:39:43Z</time>
   </trkpt>
   <trkpt lat="-3.1898110" lon="37.2794080">
    <ele>1660.8</ele>
    <time>2026-06-20T09:39:44Z</time>
   </trkpt>
   <trkpt lat="-3.1898110" lon="37.2794080">
    <ele>1660.8</ele>
    <time>2026-06-20T09:39:45Z</time>
   </trkpt>
   <trkpt lat="-3.1898110" lon="37.2794080">
    <ele>1660.8</ele>
    <time>2026-06-20T09:39:46Z</time>
   </trkpt>
   <trkpt lat="-3.1898110" lon="37.2794080">
    <ele>1660.8</ele>
    <time>2026-06-20T09:39:47Z</time>
   </trkpt>
   <trkpt lat="-3.1898110" lon="37.2794080">
    <ele>1660.8</ele>
    <time>2026-06-20T09:39:48Z</time>
   </trkpt>
   <trkpt lat="-3.1898190" lon="37.2794110">
    <ele>1660.8</ele>
    <time>2026-06-20T09:39:49Z</time>
   </trkpt>
   <trkpt lat="-3.1898190" lon="37.2794110">
    <ele>1660.8</ele>
    <time>2026-06-20T09:39:50Z</time>
   </trkpt>
   <trkpt lat="-3.1898190" lon="37.2794110">
    <ele>1660.8</ele>
    <time>2026-06-20T09:39:51Z</time>
   </trkpt>
   <trkpt lat="-3.1898190" lon="37.2794110">
    <ele>1660.8</ele>
    <time>2026-06-20T09:39:52Z</time>
   </trkpt>
   <trkpt lat="-3.1898190" lon="37.2794110">
    <ele>1660.8</ele>
    <time>2026-06-20T09:39:53Z</time>
   </trkpt>
   <trkpt lat="-3.1898190" lon="37.2794110">
    <ele>1660.8</ele>
    <time>2026-06-20T09:39:54Z</time>
   </trkpt>
   <trkpt lat="-3.1898190" lon="37.2794110">
    <ele>1660.8</ele>
    <time>2026-06-20T09:39:55Z</time>
   </trkpt>
   <trkpt lat="-3.1898190" lon="37.2794110">
    <ele>1660.8</ele>
    <time>2026-06-20T09:39:56Z</time>
   </trkpt>
   <trkpt lat="-3.1898190" lon="37.2794110">
    <ele>1660.8</ele>
    <time>2026-06-20T09:39:57Z</time>
   </trkpt>
   <trkpt lat="-3.1898190" lon="37.2794110">
    <ele>1660.8</ele>
    <time>2026-06-20T09:39:58Z</time>
   </trkpt>
   <trkpt lat="-3.1898190" lon="37.2794110">
    <ele>1660.8</ele>
    <time>2026-06-20T09:39:59Z</time>
   </trkpt>
   <trkpt lat="-3.1898190" lon="37.2794110">
    <ele>1660.8</ele>
    <time>2026-06-20T09:40:00Z</time>
   </trkpt>
   <trkpt lat="-3.1898190" lon="37.2794110">
    <ele>1660.8</ele>
    <time>2026-06-20T09:40:01Z</time>
   </trkpt>
   <trkpt lat="-3.1898190" lon="37.2794110">
    <ele>1660.8</ele>
    <time>2026-06-20T09:40:02Z</time>
   </trkpt>
   <trkpt lat="-3.1898190" lon="37.2794110">
    <ele>1660.8</ele>
    <time>2026-06-20T09:40:03Z</time>
   </trkpt>
   <trkpt lat="-3.1898190" lon="37.2794110">
    <ele>1660.8</ele>
    <time>2026-06-20T09:40:04Z</time>
   </trkpt>
   <trkpt lat="-3.1898190" lon="37.2794110">
    <ele>1660.8</ele>
    <time>2026-06-20T09:40:05Z</time>
   </trkpt>
   <trkpt lat="-3.1898190" lon="37.2794110">
    <ele>1660.8</ele>
    <time>2026-06-20T09:40:06Z</time>
   </trkpt>
   <trkpt lat="-3.1898190" lon="37.2794110">
    <ele>1660.8</ele>
    <time>2026-06-20T09:40:07Z</time>
   </trkpt>
   <trkpt lat="-3.1898190" lon="37.2794110">
    <ele>1660.8</ele>
    <time>2026-06-20T09:40:08Z</time>
   </trkpt>
   <trkpt lat="-3.1898190" lon="37.2794110">
    <ele>1660.8</ele>
    <time>2026-06-20T09:40:09Z</time>
   </trkpt>
   <trkpt lat="-3.1898190" lon="37.2794110">
    <ele>1660.8</ele>
    <time>2026-06-20T09:40:10Z</time>
   </trkpt>
   <trkpt lat="-3.1898190" lon="37.2794110">
    <ele>1660.8</ele>
    <time>2026-06-20T09:40:11Z</time>
   </trkpt>
   <trkpt lat="-3.1898190" lon="37.2794110">
    <ele>1660.8</ele>
    <time>2026-06-20T09:40:12Z</time>
   </trkpt>
   <trkpt lat="-3.1898190" lon="37.2794110">
    <ele>1660.8</ele>
    <time>2026-06-20T09:40:13Z</time>
   </trkpt>
   <trkpt lat="-3.1898190" lon="37.2794110">
    <ele>1660.8</ele>
    <time>2026-06-20T09:40:14Z</time>
   </trkpt>
   <trkpt lat="-3.1898190" lon="37.2794110">
    <ele>1660.8</ele>
    <time>2026-06-20T09:40:15Z</time>
   </trkpt>
   <trkpt lat="-3.1898190" lon="37.2794110">
    <ele>1660.8</ele>
    <time>2026-06-20T09:40:16Z</time>
   </trkpt>
   <trkpt lat="-3.1898190" lon="37.2794110">
    <ele>1660.8</ele>
    <time>2026-06-20T09:40:17Z</time>
   </trkpt>
   <trkpt lat="-3.1898190" lon="37.2794110">
    <ele>1660.8</ele>
    <time>2026-06-20T09:40:18Z</time>
   </trkpt>
   <trkpt lat="-3.1898190" lon="37.2794110">
    <ele>1660.8</ele>
    <time>2026-06-20T09:40:19Z</time>
   </trkpt>
   <trkpt lat="-3.1898190" lon="37.2794110">
    <ele>1660.8</ele>
    <time>2026-06-20T09:40:20Z</time>
   </trkpt>
   <trkpt lat="-3.1898190" lon="37.2794110">
    <ele>1660.8</ele>
    <time>2026-06-20T09:40:21Z</time>
   </trkpt>
   <trkpt lat="-3.1898190" lon="37.2794110">
    <ele>1660.8</ele>
    <time>2026-06-20T09:40:22Z</time>
   </trkpt>
   <trkpt lat="-3.1898190" lon="37.2794110">
    <ele>1660.8</ele>
    <time>2026-06-20T09:40:23Z</time>
   </trkpt>
   <trkpt lat="-3.1898190" lon="37.2794110">
    <ele>1660.8</ele>
    <time>2026-06-20T09:40:24Z</time>
   </trkpt>
   <trkpt lat="-3.1898190" lon="37.2794110">
    <ele>1660.8</ele>
    <time>2026-06-20T09:40:25Z</time>
   </trkpt>
   <trkpt lat="-3.1898190" lon="37.2794110">
    <ele>1660.8</ele>
    <time>2026-06-20T09:40:26Z</time>
   </trkpt>
   <trkpt lat="-3.1898190" lon="37.2794110">
    <ele>1660.8</ele>
    <time>2026-06-20T09:40:27Z</time>
   </trkpt>
   <trkpt lat="-3.1898190" lon="37.2794110">
    <ele>1660.8</ele>
    <time>2026-06-20T09:40:28Z</time>
   </trkpt>
   <trkpt lat="-3.1898190" lon="37.2794110">
    <ele>1660.8</ele>
    <time>2026-06-20T09:40:29Z</time>
   </trkpt>
   <trkpt lat="-3.1898190" lon="37.2794110">
    <ele>1660.8</ele>
    <time>2026-06-20T09:40:30Z</time>
   </trkpt>
   <trkpt lat="-3.1898190" lon="37.2794110">
    <ele>1660.8</ele>
    <time>2026-06-20T09:40:31Z</time>
   </trkpt>
   <trkpt lat="-3.1898190" lon="37.2794110">
    <ele>1660.8</ele>
    <time>2026-06-20T09:40:32Z</time>
   </trkpt>
   <trkpt lat="-3.1898190" lon="37.2794110">
    <ele>1660.8</ele>
    <time>2026-06-20T09:40:33Z</time>
   </trkpt>
   <trkpt lat="-3.1898190" lon="37.2794110">
    <ele>1660.8</ele>
    <time>2026-06-20T09:40:34Z</time>
   </trkpt>
   <trkpt lat="-3.1898190" lon="37.2794110">
    <ele>1660.8</ele>
    <time>2026-06-20T09:40:35Z</time>
   </trkpt>
   <trkpt lat="-3.1898190" lon="37.2794110">
    <ele>1660.8</ele>
    <time>2026-06-20T09:40:36Z</time>
   </trkpt>
   <trkpt lat="-3.1898190" lon="37.2794110">
    <ele>1660.8</ele>
    <time>2026-06-20T09:40:37Z</time>
   </trkpt>
   <trkpt lat="-3.1898190" lon="37.2794110">
    <ele>1660.8</ele>
    <time>2026-06-20T09:40:38Z</time>
   </trkpt>
   <trkpt lat="-3.1898340" lon="37.2794110">
    <ele>1660.8</ele>
    <time>2026-06-20T09:40:39Z</time>
   </trkpt>
   <trkpt lat="-3.1898340" lon="37.2794120">
    <ele>1660.8</ele>
    <time>2026-06-20T09:40:40Z</time>
   </trkpt>
   <trkpt lat="-3.1898360" lon="37.2794160">
    <ele>1660.8</ele>
    <time>2026-06-20T09:40:41Z</time>
   </trkpt>
   <trkpt lat="-3.1898390" lon="37.2794180">
    <ele>1660.8</ele>
    <time>2026-06-20T09:40:42Z</time>
   </trkpt>
   <trkpt lat="-3.1898410" lon="37.2794220">
    <ele>1660.8</ele>
    <time>2026-06-20T09:40:43Z</time>
   </trkpt>
   <trkpt lat="-3.1898240" lon="37.2794170">
    <ele>1660.7</ele>
    <time>2026-06-20T09:40:44Z</time>
   </trkpt>
   <trkpt lat="-3.1898220" lon="37.2794120">
    <ele>1660.7</ele>
    <time>2026-06-20T09:40:45Z</time>
   </trkpt>
   <trkpt lat="-3.1898200" lon="37.2794100">
    <ele>1660.7</ele>
    <time>2026-06-20T09:40:46Z</time>
   </trkpt>
   <trkpt lat="-3.1898210" lon="37.2794230">
    <ele>1660.7</ele>
    <time>2026-06-20T09:40:47Z</time>
   </trkpt>
   <trkpt lat="-3.1898200" lon="37.2794290">
    <ele>1660.7</ele>
    <time>2026-06-20T09:40:48Z</time>
   </trkpt>
   <trkpt lat="-3.1898170" lon="37.2794320">
    <ele>1660.7</ele>
    <time>2026-06-20T09:40:49Z</time>
   </trkpt>
   <trkpt lat="-3.1898170" lon="37.2794380">
    <ele>1660.7</ele>
    <time>2026-06-20T09:40:50Z</time>
   </trkpt>
   <trkpt lat="-3.1898150" lon="37.2794420">
    <ele>1660.7</ele>
    <time>2026-06-20T09:40:51Z</time>
   </trkpt>
   <trkpt lat="-3.1898170" lon="37.2794460">
    <ele>1660.7</ele>
    <time>2026-06-20T09:40:52Z</time>
   </trkpt>
   <trkpt lat="-3.1898200" lon="37.2794480">
    <ele>1660.7</ele>
    <time>2026-06-20T09:40:53Z</time>
   </trkpt>
   <trkpt lat="-3.1898240" lon="37.2794510">
    <ele>1660.7</ele>
    <time>2026-06-20T09:40:54Z</time>
   </trkpt>
   <trkpt lat="-3.1898230" lon="37.2794510">
    <ele>1660.7</ele>
    <time>2026-06-20T09:40:55Z</time>
   </trkpt>
   <trkpt lat="-3.1898240" lon="37.2794470">
    <ele>1660.7</ele>
    <time>2026-06-20T09:40:56Z</time>
   </trkpt>
   <trkpt lat="-3.1898230" lon="37.2794470">
    <ele>1660.7</ele>
    <time>2026-06-20T09:40:57Z</time>
   </trkpt>
   <trkpt lat="-3.1898240" lon="37.2794480">
    <ele>1660.7</ele>
    <time>2026-06-20T09:40:58Z</time>
   </trkpt>
   <trkpt lat="-3.1898270" lon="37.2794520">
    <ele>1660.7</ele>
    <time>2026-06-20T09:40:59Z</time>
   </trkpt>
   <trkpt lat="-3.1898260" lon="37.2794530">
    <ele>1660.7</ele>
    <time>2026-06-20T09:41:00Z</time>
   </trkpt>
   <trkpt lat="-3.1898250" lon="37.2794490">
    <ele>1660.7</ele>
    <time>2026-06-20T09:41:01Z</time>
   </trkpt>
   <trkpt lat="-3.1898240" lon="37.2794480">
    <ele>1660.7</ele>
    <time>2026-06-20T09:41:02Z</time>
   </trkpt>
   <trkpt lat="-3.1898230" lon="37.2794480">
    <ele>1660.7</ele>
    <time>2026-06-20T09:41:03Z</time>
   </trkpt>
   <trkpt lat="-3.1898240" lon="37.2794450">
    <ele>1660.7</ele>
    <time>2026-06-20T09:41:04Z</time>
   </trkpt>
   <trkpt lat="-3.1898290" lon="37.2794410">
    <ele>1660.7</ele>
    <time>2026-06-20T09:41:05Z</time>
   </trkpt>
   <trkpt lat="-3.1898320" lon="37.2794350">
    <ele>1660.7</ele>
    <time>2026-06-20T09:41:06Z</time>
   </trkpt>
   <trkpt lat="-3.1898330" lon="37.2794250">
    <ele>1660.7</ele>
    <time>2026-06-20T09:41:07Z</time>
   </trkpt>
   <trkpt lat="-3.1898390" lon="37.2794180">
    <ele>1660.7</ele>
    <time>2026-06-20T09:41:08Z</time>
   </trkpt>
   <trkpt lat="-3.1898460" lon="37.2794130">
    <ele>1660.7</ele>
    <time>2026-06-20T09:41:09Z</time>
   </trkpt>
   <trkpt lat="-3.1898490" lon="37.2794080">
    <ele>1660.7</ele>
    <time>2026-06-20T09:41:10Z</time>
   </trkpt>
   <trkpt lat="-3.1898450" lon="37.2794110">
    <ele>1660.7</ele>
    <time>2026-06-20T09:41:11Z</time>
   </trkpt>
   <trkpt lat="-3.1898320" lon="37.2794150">
    <ele>1660.7</ele>
    <time>2026-06-20T09:41:12Z</time>
   </trkpt>
   <trkpt lat="-3.1898250" lon="37.2794200">
    <ele>1660.7</ele>
    <time>2026-06-20T09:41:13Z</time>
   </trkpt>
   <trkpt lat="-3.1898160" lon="37.2794190">
    <ele>1660.7</ele>
    <time>2026-06-20T09:41:14Z</time>
   </trkpt>
   <trkpt lat="-3.1898110" lon="37.2794210">
    <ele>1660.7</ele>
    <time>2026-06-20T09:41:15Z</time>
   </trkpt>
   <trkpt lat="-3.1898080" lon="37.2794240">
    <ele>1660.7</ele>
    <time>2026-06-20T09:41:16Z</time>
   </trkpt>
   <trkpt lat="-3.1898060" lon="37.2794240">
    <ele>1660.7</ele>
    <time>2026-06-20T09:41:17Z</time>
   </trkpt>
   <trkpt lat="-3.1898060" lon="37.2794270">
    <ele>1660.7</ele>
    <time>2026-06-20T09:41:18Z</time>
   </trkpt>
   <trkpt lat="-3.1898060" lon="37.2794300">
    <ele>1660.7</ele>
    <time>2026-06-20T09:41:19Z</time>
   </trkpt>
   <trkpt lat="-3.1898050" lon="37.2794320">
    <ele>1660.6</ele>
    <time>2026-06-20T09:41:20Z</time>
   </trkpt>
   <trkpt lat="-3.1898060" lon="37.2794350">
    <ele>1660.6</ele>
    <time>2026-06-20T09:41:21Z</time>
   </trkpt>
   <trkpt lat="-3.1898060" lon="37.2794400">
    <ele>1660.6</ele>
    <time>2026-06-20T09:41:22Z</time>
   </trkpt>
   <trkpt lat="-3.1898040" lon="37.2794420">
    <ele>1660.6</ele>
    <time>2026-06-20T09:41:23Z</time>
   </trkpt>
   <trkpt lat="-3.1898080" lon="37.2794440">
    <ele>1660.6</ele>
    <time>2026-06-20T09:41:24Z</time>
   </trkpt>
   <trkpt lat="-3.1898110" lon="37.2794450">
    <ele>1660.6</ele>
    <time>2026-06-20T09:41:25Z</time>
   </trkpt>
   <trkpt lat="-3.1898130" lon="37.2794490">
    <ele>1660.6</ele>
    <time>2026-06-20T09:41:26Z</time>
   </trkpt>
   <trkpt lat="-3.1898100" lon="37.2794430">
    <ele>1660.6</ele>
    <time>2026-06-20T09:41:27Z</time>
   </trkpt>
   <trkpt lat="-3.1898100" lon="37.2794420">
    <ele>1660.6</ele>
    <time>2026-06-20T09:41:28Z</time>
   </trkpt>
   <trkpt lat="-3.1898090" lon="37.2794390">
    <ele>1660.6</ele>
    <time>2026-06-20T09:41:29Z</time>
   </trkpt>
   <trkpt lat="-3.1898120" lon="37.2794410">
    <ele>1660.6</ele>
    <time>2026-06-20T09:41:30Z</time>
   </trkpt>
   <trkpt lat="-3.1898100" lon="37.2794340">
    <ele>1660.6</ele>
    <time>2026-06-20T09:41:31Z</time>
   </trkpt>
   <trkpt lat="-3.1898160" lon="37.2794350">
    <ele>1660.6</ele>
    <time>2026-06-20T09:41:32Z</time>
   </trkpt>
   <trkpt lat="-3.1898130" lon="37.2794320">
    <ele>1660.6</ele>
    <time>2026-06-20T09:41:33Z</time>
   </trkpt>
   <trkpt lat="-3.1898160" lon="37.2794290">
    <ele>1660.6</ele>
    <time>2026-06-20T09:41:34Z</time>
   </trkpt>
   <trkpt lat="-3.1898200" lon="37.2794270">
    <ele>1660.6</ele>
    <time>2026-06-20T09:41:35Z</time>
   </trkpt>
   <trkpt lat="-3.1898180" lon="37.2794260">
    <ele>1660.6</ele>
    <time>2026-06-20T09:41:36Z</time>
   </trkpt>
   <trkpt lat="-3.1898210" lon="37.2794260">
    <ele>1660.6</ele>
    <time>2026-06-20T09:41:37Z</time>
   </trkpt>
   <trkpt lat="-3.1898230" lon="37.2794230">
    <ele>1660.6</ele>
    <time>2026-06-20T09:41:38Z</time>
   </trkpt>
   <trkpt lat="-3.1898280" lon="37.2794210">
    <ele>1660.6</ele>
    <time>2026-06-20T09:41:39Z</time>
   </trkpt>
   <trkpt lat="-3.1898310" lon="37.2794190">
    <ele>1660.6</ele>
    <time>2026-06-20T09:41:40Z</time>
   </trkpt>
   <trkpt lat="-3.1898340" lon="37.2794160">
    <ele>1660.6</ele>
    <time>2026-06-20T09:41:41Z</time>
   </trkpt>
   <trkpt lat="-3.1898350" lon="37.2794150">
    <ele>1660.6</ele>
    <time>2026-06-20T09:41:42Z</time>
   </trkpt>
   <trkpt lat="-3.1898380" lon="37.2794130">
    <ele>1660.6</ele>
    <time>2026-06-20T09:41:43Z</time>
   </trkpt>
   <trkpt lat="-3.1898390" lon="37.2794160">
    <ele>1660.6</ele>
    <time>2026-06-20T09:41:44Z</time>
   </trkpt>
   <trkpt lat="-3.1898430" lon="37.2794180">
    <ele>1660.6</ele>
    <time>2026-06-20T09:41:45Z</time>
   </trkpt>
   <trkpt lat="-3.1898510" lon="37.2794200">
    <ele>1660.6</ele>
    <time>2026-06-20T09:41:46Z</time>
   </trkpt>
   <trkpt lat="-3.1898550" lon="37.2794240">
    <ele>1660.6</ele>
    <time>2026-06-20T09:41:47Z</time>
   </trkpt>
   <trkpt lat="-3.1898590" lon="37.2794280">
    <ele>1660.6</ele>
    <time>2026-06-20T09:41:48Z</time>
   </trkpt>
   <trkpt lat="-3.1898560" lon="37.2794310">
    <ele>1660.6</ele>
    <time>2026-06-20T09:41:49Z</time>
   </trkpt>
   <trkpt lat="-3.1898580" lon="37.2794310">
    <ele>1660.6</ele>
    <time>2026-06-20T09:41:50Z</time>
   </trkpt>
   <trkpt lat="-3.1898510" lon="37.2794400">
    <ele>1660.6</ele>
    <time>2026-06-20T09:41:51Z</time>
   </trkpt>
   <trkpt lat="-3.1898470" lon="37.2794470">
    <ele>1660.6</ele>
    <time>2026-06-20T09:41:52Z</time>
   </trkpt>
   <trkpt lat="-3.1898430" lon="37.2794480">
    <ele>1660.6</ele>
    <time>2026-06-20T09:41:53Z</time>
   </trkpt>
   <trkpt lat="-3.1898400" lon="37.2794490">
    <ele>1660.6</ele>
    <time>2026-06-20T09:41:54Z</time>
   </trkpt>
   <trkpt lat="-3.1898430" lon="37.2794490">
    <ele>1660.6</ele>
    <time>2026-06-20T09:41:55Z</time>
   </trkpt>
   <trkpt lat="-3.1898390" lon="37.2794520">
    <ele>1660.6</ele>
    <time>2026-06-20T09:41:56Z</time>
   </trkpt>
   <trkpt lat="-3.1898390" lon="37.2794540">
    <ele>1660.6</ele>
    <time>2026-06-20T09:41:57Z</time>
   </trkpt>
   <trkpt lat="-3.1898390" lon="37.2794560">
    <ele>1660.6</ele>
    <time>2026-06-20T09:41:58Z</time>
   </trkpt>
   <trkpt lat="-3.1898390" lon="37.2794540">
    <ele>1660.6</ele>
    <time>2026-06-20T09:41:59Z</time>
   </trkpt>
   <trkpt lat="-3.1898380" lon="37.2794530">
    <ele>1660.6</ele>
    <time>2026-06-20T09:42:00Z</time>
   </trkpt>
   <trkpt lat="-3.1898380" lon="37.2794530">
    <ele>1660.6</ele>
    <time>2026-06-20T09:42:01Z</time>
   </trkpt>
   <trkpt lat="-3.1898340" lon="37.2794530">
    <ele>1660.6</ele>
    <time>2026-06-20T09:42:02Z</time>
   </trkpt>
   <trkpt lat="-3.1898330" lon="37.2794550">
    <ele>1660.6</ele>
    <time>2026-06-20T09:42:03Z</time>
   </trkpt>
   <trkpt lat="-3.1898330" lon="37.2794540">
    <ele>1660.6</ele>
    <time>2026-06-20T09:42:04Z</time>
   </trkpt>
   <trkpt lat="-3.1898330" lon="37.2794520">
    <ele>1660.6</ele>
    <time>2026-06-20T09:42:05Z</time>
   </trkpt>
   <trkpt lat="-3.1898310" lon="37.2794470">
    <ele>1660.6</ele>
    <time>2026-06-20T09:42:06Z</time>
   </trkpt>
   <trkpt lat="-3.1898300" lon="37.2794440">
    <ele>1660.6</ele>
    <time>2026-06-20T09:42:07Z</time>
   </trkpt>
   <trkpt lat="-3.1898300" lon="37.2794410">
    <ele>1660.6</ele>
    <time>2026-06-20T09:42:08Z</time>
   </trkpt>
   <trkpt lat="-3.1898310" lon="37.2794410">
    <ele>1660.6</ele>
    <time>2026-06-20T09:42:09Z</time>
   </trkpt>
   <trkpt lat="-3.1898310" lon="37.2794370">
    <ele>1660.5</ele>
    <time>2026-06-20T09:42:10Z</time>
   </trkpt>
   <trkpt lat="-3.1898310" lon="37.2794380">
    <ele>1660.5</ele>
    <time>2026-06-20T09:42:11Z</time>
   </trkpt>
   <trkpt lat="-3.1898310" lon="37.2794380">
    <ele>1660.5</ele>
    <time>2026-06-20T09:42:12Z</time>
   </trkpt>
   <trkpt lat="-3.1898330" lon="37.2794420">
    <ele>1660.5</ele>
    <time>2026-06-20T09:42:13Z</time>
   </trkpt>
   <trkpt lat="-3.1898330" lon="37.2794420">
    <ele>1660.5</ele>
    <time>2026-06-20T09:42:14Z</time>
   </trkpt>
   <trkpt lat="-3.1898340" lon="37.2794390">
    <ele>1660.5</ele>
    <time>2026-06-20T09:42:15Z</time>
   </trkpt>
   <trkpt lat="-3.1898340" lon="37.2794390">
    <ele>1660.5</ele>
    <time>2026-06-20T09:42:16Z</time>
   </trkpt>
   <trkpt lat="-3.1898340" lon="37.2794360">
    <ele>1660.5</ele>
    <time>2026-06-20T09:42:17Z</time>
   </trkpt>
   <trkpt lat="-3.1898270" lon="37.2794310">
    <ele>1660.5</ele>
    <time>2026-06-20T09:42:18Z</time>
   </trkpt>
   <trkpt lat="-3.1898240" lon="37.2794270">
    <ele>1660.5</ele>
    <time>2026-06-20T09:42:19Z</time>
   </trkpt>
   <trkpt lat="-3.1898180" lon="37.2794250">
    <ele>1660.5</ele>
    <time>2026-06-20T09:42:20Z</time>
   </trkpt>
   <trkpt lat="-3.1898160" lon="37.2794230">
    <ele>1660.5</ele>
    <time>2026-06-20T09:42:21Z</time>
   </trkpt>
   <trkpt lat="-3.1898150" lon="37.2794240">
    <ele>1660.5</ele>
    <time>2026-06-20T09:42:22Z</time>
   </trkpt>
   <trkpt lat="-3.1898090" lon="37.2794280">
    <ele>1660.5</ele>
    <time>2026-06-20T09:42:23Z</time>
   </trkpt>
   <trkpt lat="-3.1897990" lon="37.2794260">
    <ele>1660.5</ele>
    <time>2026-06-20T09:42:24Z</time>
   </trkpt>
   <trkpt lat="-3.1898020" lon="37.2794290">
    <ele>1660.5</ele>
    <time>2026-06-20T09:42:25Z</time>
   </trkpt>
   <trkpt lat="-3.1897970" lon="37.2794250">
    <ele>1660.5</ele>
    <time>2026-06-20T09:42:26Z</time>
   </trkpt>
   <trkpt lat="-3.1897960" lon="37.2794260">
    <ele>1660.5</ele>
    <time>2026-06-20T09:42:27Z</time>
   </trkpt>
   <trkpt lat="-3.1897910" lon="37.2794240">
    <ele>1660.5</ele>
    <time>2026-06-20T09:42:28Z</time>
   </trkpt>
   <trkpt lat="-3.1897880" lon="37.2794240">
    <ele>1660.5</ele>
    <time>2026-06-20T09:42:29Z</time>
   </trkpt>
   <trkpt lat="-3.1897880" lon="37.2794240">
    <ele>1660.5</ele>
    <time>2026-06-20T09:42:30Z</time>
   </trkpt>
   <trkpt lat="-3.1897860" lon="37.2794320">
    <ele>1660.5</ele>
    <time>2026-06-20T09:42:31Z</time>
   </trkpt>
   <trkpt lat="-3.1897890" lon="37.2794360">
    <ele>1660.5</ele>
    <time>2026-06-20T09:42:32Z</time>
   </trkpt>
   <trkpt lat="-3.1897980" lon="37.2794390">
    <ele>1660.5</ele>
    <time>2026-06-20T09:42:33Z</time>
   </trkpt>
   <trkpt lat="-3.1898020" lon="37.2794410">
    <ele>1660.5</ele>
    <time>2026-06-20T09:42:34Z</time>
   </trkpt>
   <trkpt lat="-3.1898060" lon="37.2794400">
    <ele>1660.5</ele>
    <time>2026-06-20T09:42:35Z</time>
   </trkpt>
   <trkpt lat="-3.1898090" lon="37.2794370">
    <ele>1660.5</ele>
    <time>2026-06-20T09:42:36Z</time>
   </trkpt>
   <trkpt lat="-3.1898150" lon="37.2794370">
    <ele>1660.5</ele>
    <time>2026-06-20T09:42:37Z</time>
   </trkpt>
   <trkpt lat="-3.1898210" lon="37.2794380">
    <ele>1660.5</ele>
    <time>2026-06-20T09:42:38Z</time>
   </trkpt>
   <trkpt lat="-3.1898270" lon="37.2794390">
    <ele>1660.5</ele>
    <time>2026-06-20T09:42:39Z</time>
   </trkpt>
   <trkpt lat="-3.1898280" lon="37.2794390">
    <ele>1660.5</ele>
    <time>2026-06-20T09:42:40Z</time>
   </trkpt>
   <trkpt lat="-3.1898280" lon="37.2794390">
    <ele>1660.5</ele>
    <time>2026-06-20T09:42:41Z</time>
   </trkpt>
   <trkpt lat="-3.1898280" lon="37.2794390">
    <ele>1660.5</ele>
    <time>2026-06-20T09:42:42Z</time>
   </trkpt>
   <trkpt lat="-3.1898280" lon="37.2794390">
    <ele>1660.5</ele>
    <time>2026-06-20T09:42:43Z</time>
   </trkpt>
   <trkpt lat="-3.1898280" lon="37.2794390">
    <ele>1660.5</ele>
    <time>2026-06-20T09:42:44Z</time>
   </trkpt>
   <trkpt lat="-3.1898280" lon="37.2794390">
    <ele>1660.5</ele>
    <time>2026-06-20T09:42:45Z</time>
   </trkpt>
   <trkpt lat="-3.1898280" lon="37.2794390">
    <ele>1660.5</ele>
    <time>2026-06-20T09:42:46Z</time>
   </trkpt>
   <trkpt lat="-3.1898280" lon="37.2794390">
    <ele>1660.5</ele>
    <time>2026-06-20T09:42:47Z</time>
   </trkpt>
   <trkpt lat="-3.1898280" lon="37.2794390">
    <ele>1660.5</ele>
    <time>2026-06-20T09:42:48Z</time>
   </trkpt>
   <trkpt lat="-3.1898280" lon="37.2794390">
    <ele>1660.5</ele>
    <time>2026-06-20T09:42:49Z</time>
   </trkpt>
   <trkpt lat="-3.1898490" lon="37.2794390">
    <ele>1660.5</ele>
    <time>2026-06-20T09:42:50Z</time>
   </trkpt>
   <trkpt lat="-3.1898520" lon="37.2794400">
    <ele>1660.5</ele>
    <time>2026-06-20T09:42:51Z</time>
   </trkpt>
   <trkpt lat="-3.1898520" lon="37.2794400">
    <ele>1660.5</ele>
    <time>2026-06-20T09:42:52Z</time>
   </trkpt>
   <trkpt lat="-3.1898520" lon="37.2794400">
    <ele>1660.5</ele>
    <time>2026-06-20T09:42:53Z</time>
   </trkpt>
   <trkpt lat="-3.1898520" lon="37.2794400">
    <ele>1660.5</ele>
    <time>2026-06-20T09:42:54Z</time>
   </trkpt>
   <trkpt lat="-3.1898500" lon="37.2794410">
    <ele>1660.5</ele>
    <time>2026-06-20T09:42:55Z</time>
   </trkpt>
   <trkpt lat="-3.1898480" lon="37.2794410">
    <ele>1660.5</ele>
    <time>2026-06-20T09:42:56Z</time>
   </trkpt>
   <trkpt lat="-3.1898480" lon="37.2794410">
    <ele>1660.5</ele>
    <time>2026-06-20T09:42:57Z</time>
   </trkpt>
   <trkpt lat="-3.1898470" lon="37.2794410">
    <ele>1660.5</ele>
    <time>2026-06-20T09:42:58Z</time>
   </trkpt>
   <trkpt lat="-3.1898480" lon="37.2794430">
    <ele>1660.5</ele>
    <time>2026-06-20T09:42:59Z</time>
   </trkpt>
   <trkpt lat="-3.1898480" lon="37.2794440">
    <ele>1660.5</ele>
    <time>2026-06-20T09:43:00Z</time>
   </trkpt>
   <trkpt lat="-3.1898460" lon="37.2794410">
    <ele>1660.5</ele>
    <time>2026-06-20T09:43:01Z</time>
   </trkpt>
   <trkpt lat="-3.1898430" lon="37.2794400">
    <ele>1660.5</ele>
    <time>2026-06-20T09:43:02Z</time>
   </trkpt>
   <trkpt lat="-3.1898420" lon="37.2794390">
    <ele>1660.5</ele>
    <time>2026-06-20T09:43:03Z</time>
   </trkpt>
   <trkpt lat="-3.1898420" lon="37.2794390">
    <ele>1660.5</ele>
    <time>2026-06-20T09:43:04Z</time>
   </trkpt>
   <trkpt lat="-3.1898420" lon="37.2794390">
    <ele>1660.5</ele>
    <time>2026-06-20T09:43:05Z</time>
   </trkpt>
   <trkpt lat="-3.1898460" lon="37.2794330">
    <ele>1660.5</ele>
    <time>2026-06-20T09:43:06Z</time>
   </trkpt>
   <trkpt lat="-3.1898460" lon="37.2794330">
    <ele>1660.5</ele>
    <time>2026-06-20T09:43:07Z</time>
   </trkpt>
   <trkpt lat="-3.1898490" lon="37.2794300">
    <ele>1660.5</ele>
    <time>2026-06-20T09:43:08Z</time>
   </trkpt>
   <trkpt lat="-3.1898490" lon="37.2794300">
    <ele>1660.5</ele>
    <time>2026-06-20T09:43:09Z</time>
   </trkpt>
   <trkpt lat="-3.1898490" lon="37.2794290">
    <ele>1660.5</ele>
    <time>2026-06-20T09:43:10Z</time>
   </trkpt>
   <trkpt lat="-3.1898510" lon="37.2794290">
    <ele>1660.5</ele>
    <time>2026-06-20T09:43:11Z</time>
   </trkpt>
   <trkpt lat="-3.1898510" lon="37.2794290">
    <ele>1660.5</ele>
    <time>2026-06-20T09:43:12Z</time>
   </trkpt>
   <trkpt lat="-3.1898520" lon="37.2794280">
    <ele>1660.5</ele>
    <time>2026-06-20T09:43:13Z</time>
   </trkpt>
   <trkpt lat="-3.1898510" lon="37.2794270">
    <ele>1660.5</ele>
    <time>2026-06-20T09:43:14Z</time>
   </trkpt>
   <trkpt lat="-3.1898560" lon="37.2794240">
    <ele>1660.4</ele>
    <time>2026-06-20T09:43:15Z</time>
   </trkpt>
   <trkpt lat="-3.1898560" lon="37.2794250">
    <ele>1660.4</ele>
    <time>2026-06-20T09:43:16Z</time>
   </trkpt>
   <trkpt lat="-3.1898560" lon="37.2794250">
    <ele>1660.4</ele>
    <time>2026-06-20T09:43:17Z</time>
   </trkpt>
   <trkpt lat="-3.1898560" lon="37.2794170">
    <ele>1660.4</ele>
    <time>2026-06-20T09:43:18Z</time>
   </trkpt>
   <trkpt lat="-3.1898570" lon="37.2794180">
    <ele>1660.4</ele>
    <time>2026-06-20T09:43:19Z</time>
   </trkpt>
   <trkpt lat="-3.1898570" lon="37.2794200">
    <ele>1660.4</ele>
    <time>2026-06-20T09:43:20Z</time>
   </trkpt>
   <trkpt lat="-3.1898450" lon="37.2794220">
    <ele>1660.4</ele>
    <time>2026-06-20T09:43:21Z</time>
   </trkpt>
   <trkpt lat="-3.1898550" lon="37.2794160">
    <ele>1660.4</ele>
    <time>2026-06-20T09:43:22Z</time>
   </trkpt>
   <trkpt lat="-3.1898550" lon="37.2794140">
    <ele>1660.4</ele>
    <time>2026-06-20T09:43:23Z</time>
   </trkpt>
   <trkpt lat="-3.1898590" lon="37.2794170">
    <ele>1660.4</ele>
    <time>2026-06-20T09:43:24Z</time>
   </trkpt>
   <trkpt lat="-3.1898590" lon="37.2794170">
    <ele>1660.4</ele>
    <time>2026-06-20T09:43:25Z</time>
   </trkpt>
   <trkpt lat="-3.1898590" lon="37.2794170">
    <ele>1660.4</ele>
    <time>2026-06-20T09:43:26Z</time>
   </trkpt>
   <trkpt lat="-3.1898600" lon="37.2794210">
    <ele>1660.4</ele>
    <time>2026-06-20T09:43:27Z</time>
   </trkpt>
   <trkpt lat="-3.1898600" lon="37.2794210">
    <ele>1660.4</ele>
    <time>2026-06-20T09:43:28Z</time>
   </trkpt>
   <trkpt lat="-3.1898600" lon="37.2794210">
    <ele>1660.4</ele>
    <time>2026-06-20T09:43:29Z</time>
   </trkpt>
   <trkpt lat="-3.1898600" lon="37.2794210">
    <ele>1660.4</ele>
    <time>2026-06-20T09:43:30Z</time>
   </trkpt>
   <trkpt lat="-3.1898600" lon="37.2794210">
    <ele>1660.4</ele>
    <time>2026-06-20T09:43:31Z</time>
   </trkpt>
   <trkpt lat="-3.1898600" lon="37.2794210">
    <ele>1660.4</ele>
    <time>2026-06-20T09:43:32Z</time>
   </trkpt>
   <trkpt lat="-3.1898600" lon="37.2794210">
    <ele>1660.4</ele>
    <time>2026-06-20T09:43:33Z</time>
   </trkpt>
   <trkpt lat="-3.1898600" lon="37.2794210">
    <ele>1660.4</ele>
    <time>2026-06-20T09:43:34Z</time>
   </trkpt>
   <trkpt lat="-3.1898600" lon="37.2794210">
    <ele>1660.4</ele>
    <time>2026-06-20T09:43:35Z</time>
   </trkpt>
   <trkpt lat="-3.1898600" lon="37.2794210">
    <ele>1660.4</ele>
    <time>2026-06-20T09:43:36Z</time>
   </trkpt>
   <trkpt lat="-3.1898700" lon="37.2794110">
    <ele>1660.4</ele>
    <time>2026-06-20T09:43:37Z</time>
   </trkpt>
   <trkpt lat="-3.1898700" lon="37.2794110">
    <ele>1660.4</ele>
    <time>2026-06-20T09:43:38Z</time>
   </trkpt>
   <trkpt lat="-3.1898660" lon="37.2794100">
    <ele>1660.4</ele>
    <time>2026-06-20T09:43:39Z</time>
   </trkpt>
   <trkpt lat="-3.1898650" lon="37.2794090">
    <ele>1660.4</ele>
    <time>2026-06-20T09:43:40Z</time>
   </trkpt>
   <trkpt lat="-3.1898640" lon="37.2794100">
    <ele>1660.4</ele>
    <time>2026-06-20T09:43:41Z</time>
   </trkpt>
   <trkpt lat="-3.1898620" lon="37.2794120">
    <ele>1660.4</ele>
    <time>2026-06-20T09:43:42Z</time>
   </trkpt>
   <trkpt lat="-3.1898640" lon="37.2794130">
    <ele>1660.4</ele>
    <time>2026-06-20T09:43:43Z</time>
   </trkpt>
   <trkpt lat="-3.1898580" lon="37.2794240">
    <ele>1660.4</ele>
    <time>2026-06-20T09:43:44Z</time>
   </trkpt>
   <trkpt lat="-3.1898520" lon="37.2794320">
    <ele>1660.4</ele>
    <time>2026-06-20T09:43:45Z</time>
   </trkpt>
   <trkpt lat="-3.1898520" lon="37.2794330">
    <ele>1660.4</ele>
    <time>2026-06-20T09:43:46Z</time>
   </trkpt>
   <trkpt lat="-3.1898400" lon="37.2794320">
    <ele>1660.4</ele>
    <time>2026-06-20T09:43:47Z</time>
   </trkpt>
   <trkpt lat="-3.1898320" lon="37.2794290">
    <ele>1660.4</ele>
    <time>2026-06-20T09:43:48Z</time>
   </trkpt>
   <trkpt lat="-3.1898300" lon="37.2794330">
    <ele>1660.4</ele>
    <time>2026-06-20T09:43:49Z</time>
   </trkpt>
   <trkpt lat="-3.1898250" lon="37.2794390">
    <ele>1660.4</ele>
    <time>2026-06-20T09:43:50Z</time>
   </trkpt>
   <trkpt lat="-3.1898250" lon="37.2794390">
    <ele>1660.4</ele>
    <time>2026-06-20T09:43:51Z</time>
   </trkpt>
   <trkpt lat="-3.1898210" lon="37.2794480">
    <ele>1660.4</ele>
    <time>2026-06-20T09:43:52Z</time>
   </trkpt>
   <trkpt lat="-3.1898160" lon="37.2794510">
    <ele>1660.4</ele>
    <time>2026-06-20T09:43:53Z</time>
   </trkpt>
   <trkpt lat="-3.1898120" lon="37.2794530">
    <ele>1660.4</ele>
    <time>2026-06-20T09:43:54Z</time>
   </trkpt>
   <trkpt lat="-3.1898170" lon="37.2794520">
    <ele>1660.4</ele>
    <time>2026-06-20T09:43:55Z</time>
   </trkpt>
   <trkpt lat="-3.1898150" lon="37.2794510">
    <ele>1660.4</ele>
    <time>2026-06-20T09:43:56Z</time>
   </trkpt>
   <trkpt lat="-3.1898210" lon="37.2794490">
    <ele>1660.4</ele>
    <time>2026-06-20T09:43:57Z</time>
   </trkpt>
   <trkpt lat="-3.1898210" lon="37.2794490">
    <ele>1660.4</ele>
    <time>2026-06-20T09:43:58Z</time>
   </trkpt>
   <trkpt lat="-3.1898220" lon="37.2794500">
    <ele>1660.4</ele>
    <time>2026-06-20T09:43:59Z</time>
   </trkpt>
   <trkpt lat="-3.1898220" lon="37.2794500">
    <ele>1660.4</ele>
    <time>2026-06-20T09:44:00Z</time>
   </trkpt>
   <trkpt lat="-3.1898220" lon="37.2794500">
    <ele>1660.4</ele>
    <time>2026-06-20T09:44:01Z</time>
   </trkpt>
   <trkpt lat="-3.1898220" lon="37.2794500">
    <ele>1660.4</ele>
    <time>2026-06-20T09:44:02Z</time>
   </trkpt>
   <trkpt lat="-3.1898220" lon="37.2794500">
    <ele>1660.4</ele>
    <time>2026-06-20T09:44:03Z</time>
   </trkpt>
   <trkpt lat="-3.1898220" lon="37.2794500">
    <ele>1660.4</ele>
    <time>2026-06-20T09:44:04Z</time>
   </trkpt>
   <trkpt lat="-3.1898240" lon="37.2794410">
    <ele>1660.4</ele>
    <time>2026-06-20T09:44:05Z</time>
   </trkpt>
   <trkpt lat="-3.1898240" lon="37.2794410">
    <ele>1660.4</ele>
    <time>2026-06-20T09:44:06Z</time>
   </trkpt>
   <trkpt lat="-3.1898240" lon="37.2794410">
    <ele>1660.4</ele>
    <time>2026-06-20T09:44:07Z</time>
   </trkpt>
   <trkpt lat="-3.1898270" lon="37.2794370">
    <ele>1660.4</ele>
    <time>2026-06-20T09:44:08Z</time>
   </trkpt>
   <trkpt lat="-3.1898270" lon="37.2794340">
    <ele>1660.4</ele>
    <time>2026-06-20T09:44:09Z</time>
   </trkpt>
   <trkpt lat="-3.1898260" lon="37.2794350">
    <ele>1660.4</ele>
    <time>2026-06-20T09:44:10Z</time>
   </trkpt>
   <trkpt lat="-3.1898290" lon="37.2794330">
    <ele>1660.3</ele>
    <time>2026-06-20T09:44:11Z</time>
   </trkpt>
   <trkpt lat="-3.1898270" lon="37.2794290">
    <ele>1660.3</ele>
    <time>2026-06-20T09:44:12Z</time>
   </trkpt>
   <trkpt lat="-3.1898270" lon="37.2794280">
    <ele>1660.3</ele>
    <time>2026-06-20T09:44:13Z</time>
   </trkpt>
   <trkpt lat="-3.1898240" lon="37.2794310">
    <ele>1660.3</ele>
    <time>2026-06-20T09:44:14Z</time>
   </trkpt>
   <trkpt lat="-3.1898240" lon="37.2794310">
    <ele>1660.3</ele>
    <time>2026-06-20T09:44:15Z</time>
   </trkpt>
   <trkpt lat="-3.1898240" lon="37.2794310">
    <ele>1660.3</ele>
    <time>2026-06-20T09:44:16Z</time>
   </trkpt>
   <trkpt lat="-3.1898240" lon="37.2794310">
    <ele>1660.3</ele>
    <time>2026-06-20T09:44:17Z</time>
   </trkpt>
   <trkpt lat="-3.1898240" lon="37.2794310">
    <ele>1660.3</ele>
    <time>2026-06-20T09:44:18Z</time>
   </trkpt>
   <trkpt lat="-3.1898240" lon="37.2794310">
    <ele>1660.3</ele>
    <time>2026-06-20T09:44:19Z</time>
   </trkpt>
   <trkpt lat="-3.1898240" lon="37.2794310">
    <ele>1660.3</ele>
    <time>2026-06-20T09:44:20Z</time>
   </trkpt>
   <trkpt lat="-3.1898140" lon="37.2794370">
    <ele>1660.3</ele>
    <time>2026-06-20T09:44:21Z</time>
   </trkpt>
   <trkpt lat="-3.1898150" lon="37.2794350">
    <ele>1660.3</ele>
    <time>2026-06-20T09:44:22Z</time>
   </trkpt>
   <trkpt lat="-3.1898170" lon="37.2794360">
    <ele>1660.3</ele>
    <time>2026-06-20T09:44:23Z</time>
   </trkpt>
   <trkpt lat="-3.1898160" lon="37.2794320">
    <ele>1660.3</ele>
    <time>2026-06-20T09:44:24Z</time>
   </trkpt>
   <trkpt lat="-3.1898160" lon="37.2794310">
    <ele>1660.3</ele>
    <time>2026-06-20T09:44:25Z</time>
   </trkpt>
   <trkpt lat="-3.1898160" lon="37.2794310">
    <ele>1660.3</ele>
    <time>2026-06-20T09:44:26Z</time>
   </trkpt>
   <trkpt lat="-3.1898220" lon="37.2794290">
    <ele>1660.3</ele>
    <time>2026-06-20T09:44:27Z</time>
   </trkpt>
   <trkpt lat="-3.1898220" lon="37.2794290">
    <ele>1660.3</ele>
    <time>2026-06-20T09:44:28Z</time>
   </trkpt>
   <trkpt lat="-3.1898220" lon="37.2794290">
    <ele>1660.3</ele>
    <time>2026-06-20T09:44:29Z</time>
   </trkpt>
   <trkpt lat="-3.1898250" lon="37.2794260">
    <ele>1660.3</ele>
    <time>2026-06-20T09:44:30Z</time>
   </trkpt>
   <trkpt lat="-3.1898280" lon="37.2794260">
    <ele>1660.3</ele>
    <time>2026-06-20T09:44:31Z</time>
   </trkpt>
   <trkpt lat="-3.1898300" lon="37.2794250">
    <ele>1660.3</ele>
    <time>2026-06-20T09:44:32Z</time>
   </trkpt>
   <trkpt lat="-3.1898300" lon="37.2794250">
    <ele>1660.3</ele>
    <time>2026-06-20T09:44:33Z</time>
   </trkpt>
   <trkpt lat="-3.1898290" lon="37.2794250">
    <ele>1660.3</ele>
    <time>2026-06-20T09:44:34Z</time>
   </trkpt>
   <trkpt lat="-3.1898290" lon="37.2794250">
    <ele>1660.3</ele>
    <time>2026-06-20T09:44:35Z</time>
   </trkpt>
   <trkpt lat="-3.1898270" lon="37.2794270">
    <ele>1660.3</ele>
    <time>2026-06-20T09:44:36Z</time>
   </trkpt>
   <trkpt lat="-3.1898270" lon="37.2794260">
    <ele>1660.3</ele>
    <time>2026-06-20T09:44:37Z</time>
   </trkpt>
   <trkpt lat="-3.1898270" lon="37.2794260">
    <ele>1660.3</ele>
    <time>2026-06-20T09:44:38Z</time>
   </trkpt>
   <trkpt lat="-3.1898240" lon="37.2794300">
    <ele>1660.3</ele>
    <time>2026-06-20T09:44:39Z</time>
   </trkpt>
   <trkpt lat="-3.1898240" lon="37.2794300">
    <ele>1660.3</ele>
    <time>2026-06-20T09:44:40Z</time>
   </trkpt>
   <trkpt lat="-3.1898240" lon="37.2794300">
    <ele>1660.3</ele>
    <time>2026-06-20T09:44:41Z</time>
   </trkpt>
   <trkpt lat="-3.1898240" lon="37.2794310">
    <ele>1660.3</ele>
    <time>2026-06-20T09:44:42Z</time>
   </trkpt>
   <trkpt lat="-3.1898230" lon="37.2794300">
    <ele>1660.3</ele>
    <time>2026-06-20T09:44:43Z</time>
   </trkpt>
   <trkpt lat="-3.1898230" lon="37.2794300">
    <ele>1660.3</ele>
    <time>2026-06-20T09:44:44Z</time>
   </trkpt>
   <trkpt lat="-3.1898230" lon="37.2794300">
    <ele>1660.3</ele>
    <time>2026-06-20T09:44:45Z</time>
   </trkpt>
   <trkpt lat="-3.1898230" lon="37.2794300">
    <ele>1660.3</ele>
    <time>2026-06-20T09:44:46Z</time>
   </trkpt>
   <trkpt lat="-3.1898230" lon="37.2794300">
    <ele>1660.3</ele>
    <time>2026-06-20T09:44:47Z</time>
   </trkpt>
   <trkpt lat="-3.1898240" lon="37.2794310">
    <ele>1660.3</ele>
    <time>2026-06-20T09:44:48Z</time>
   </trkpt>
   <trkpt lat="-3.1898240" lon="37.2794310">
    <ele>1660.3</ele>
    <time>2026-06-20T09:44:49Z</time>
   </trkpt>
   <trkpt lat="-3.1898240" lon="37.2794310">
    <ele>1660.3</ele>
    <time>2026-06-20T09:44:50Z</time>
   </trkpt>
   <trkpt lat="-3.1898250" lon="37.2794300">
    <ele>1660.3</ele>
    <time>2026-06-20T09:44:51Z</time>
   </trkpt>
   <trkpt lat="-3.1898250" lon="37.2794260">
    <ele>1660.3</ele>
    <time>2026-06-20T09:44:52Z</time>
   </trkpt>
   <trkpt lat="-3.1898270" lon="37.2794240">
    <ele>1660.3</ele>
    <time>2026-06-20T09:44:53Z</time>
   </trkpt>
   <trkpt lat="-3.1898280" lon="37.2794240">
    <ele>1660.3</ele>
    <time>2026-06-20T09:44:54Z</time>
   </trkpt>
   <trkpt lat="-3.1898270" lon="37.2794230">
    <ele>1660.3</ele>
    <time>2026-06-20T09:44:55Z</time>
   </trkpt>
   <trkpt lat="-3.1898250" lon="37.2794280">
    <ele>1660.3</ele>
    <time>2026-06-20T09:44:56Z</time>
   </trkpt>
   <trkpt lat="-3.1898240" lon="37.2794290">
    <ele>1660.3</ele>
    <time>2026-06-20T09:44:57Z</time>
   </trkpt>
   <trkpt lat="-3.1898310" lon="37.2794340">
    <ele>1660.3</ele>
    <time>2026-06-20T09:44:58Z</time>
   </trkpt>
   <trkpt lat="-3.1898350" lon="37.2794360">
    <ele>1660.3</ele>
    <time>2026-06-20T09:44:59Z</time>
   </trkpt>
   <trkpt lat="-3.1898380" lon="37.2794350">
    <ele>1660.3</ele>
    <time>2026-06-20T09:45:00Z</time>
   </trkpt>
   <trkpt lat="-3.1898260" lon="37.2794370">
    <ele>1660.3</ele>
    <time>2026-06-20T09:45:01Z</time>
   </trkpt>
   <trkpt lat="-3.1898170" lon="37.2794380">
    <ele>1660.3</ele>
    <time>2026-06-20T09:45:02Z</time>
   </trkpt>
   <trkpt lat="-3.1898130" lon="37.2794430">
    <ele>1660.3</ele>
    <time>2026-06-20T09:45:03Z</time>
   </trkpt>
   <trkpt lat="-3.1898140" lon="37.2794470">
    <ele>1660.3</ele>
    <time>2026-06-20T09:45:04Z</time>
   </trkpt>
   <trkpt lat="-3.1898110" lon="37.2794510">
    <ele>1660.3</ele>
    <time>2026-06-20T09:45:05Z</time>
   </trkpt>
   <trkpt lat="-3.1898140" lon="37.2794520">
    <ele>1660.3</ele>
    <time>2026-06-20T09:45:06Z</time>
   </trkpt>
   <trkpt lat="-3.1898150" lon="37.2794510">
    <ele>1660.3</ele>
    <time>2026-06-20T09:45:07Z</time>
   </trkpt>
   <trkpt lat="-3.1898160" lon="37.2794550">
    <ele>1660.3</ele>
    <time>2026-06-20T09:45:08Z</time>
   </trkpt>
   <trkpt lat="-3.1898150" lon="37.2794570">
    <ele>1660.3</ele>
    <time>2026-06-20T09:45:09Z</time>
   </trkpt>
   <trkpt lat="-3.1898140" lon="37.2794510">
    <ele>1660.3</ele>
    <time>2026-06-20T09:45:10Z</time>
   </trkpt>
   <trkpt lat="-3.1898090" lon="37.2794460">
    <ele>1660.3</ele>
    <time>2026-06-20T09:45:11Z</time>
   </trkpt>
   <trkpt lat="-3.1898040" lon="37.2794430">
    <ele>1660.3</ele>
    <time>2026-06-20T09:45:12Z</time>
   </trkpt>
   <trkpt lat="-3.1898000" lon="37.2794390">
    <ele>1660.3</ele>
    <time>2026-06-20T09:45:13Z</time>
   </trkpt>
   <trkpt lat="-3.1897930" lon="37.2794350">
    <ele>1660.3</ele>
    <time>2026-06-20T09:45:14Z</time>
   </trkpt>
   <trkpt lat="-3.1897920" lon="37.2794330">
    <ele>1660.3</ele>
    <time>2026-06-20T09:45:15Z</time>
   </trkpt>
   <trkpt lat="-3.1897910" lon="37.2794290">
    <ele>1660.3</ele>
    <time>2026-06-20T09:45:16Z</time>
   </trkpt>
   <trkpt lat="-3.1897930" lon="37.2794290">
    <ele>1660.3</ele>
    <time>2026-06-20T09:45:17Z</time>
   </trkpt>
   <trkpt lat="-3.1897980" lon="37.2794260">
    <ele>1660.2</ele>
    <time>2026-06-20T09:45:18Z</time>
   </trkpt>
   <trkpt lat="-3.1898010" lon="37.2794260">
    <ele>1660.2</ele>
    <time>2026-06-20T09:45:19Z</time>
   </trkpt>
   <trkpt lat="-3.1898030" lon="37.2794260">
    <ele>1660.2</ele>
    <time>2026-06-20T09:45:20Z</time>
   </trkpt>
   <trkpt lat="-3.1898030" lon="37.2794230">
    <ele>1660.2</ele>
    <time>2026-06-20T09:45:21Z</time>
   </trkpt>
   <trkpt lat="-3.1898080" lon="37.2794190">
    <ele>1660.2</ele>
    <time>2026-06-20T09:45:22Z</time>
   </trkpt>
   <trkpt lat="-3.1898040" lon="37.2794200">
    <ele>1660.2</ele>
    <time>2026-06-20T09:45:23Z</time>
   </trkpt>
   <trkpt lat="-3.1898030" lon="37.2794190">
    <ele>1660.2</ele>
    <time>2026-06-20T09:45:24Z</time>
   </trkpt>
   <trkpt lat="-3.1898030" lon="37.2794190">
    <ele>1660.2</ele>
    <time>2026-06-20T09:45:25Z</time>
   </trkpt>
   <trkpt lat="-3.1898020" lon="37.2794250">
    <ele>1660.2</ele>
    <time>2026-06-20T09:45:26Z</time>
   </trkpt>
   <trkpt lat="-3.1898020" lon="37.2794250">
    <ele>1660.2</ele>
    <time>2026-06-20T09:45:27Z</time>
   </trkpt>
   <trkpt lat="-3.1898020" lon="37.2794260">
    <ele>1660.2</ele>
    <time>2026-06-20T09:45:28Z</time>
   </trkpt>
   <trkpt lat="-3.1898020" lon="37.2794260">
    <ele>1660.2</ele>
    <time>2026-06-20T09:45:29Z</time>
   </trkpt>
   <trkpt lat="-3.1898020" lon="37.2794260">
    <ele>1660.2</ele>
    <time>2026-06-20T09:45:30Z</time>
   </trkpt>
   <trkpt lat="-3.1898080" lon="37.2794400">
    <ele>1660.2</ele>
    <time>2026-06-20T09:45:31Z</time>
   </trkpt>
   <trkpt lat="-3.1898110" lon="37.2794410">
    <ele>1660.2</ele>
    <time>2026-06-20T09:45:32Z</time>
   </trkpt>
   <trkpt lat="-3.1898100" lon="37.2794410">
    <ele>1660.2</ele>
    <time>2026-06-20T09:45:33Z</time>
   </trkpt>
   <trkpt lat="-3.1898100" lon="37.2794400">
    <ele>1660.2</ele>
    <time>2026-06-20T09:45:34Z</time>
   </trkpt>
   <trkpt lat="-3.1898100" lon="37.2794400">
    <ele>1660.2</ele>
    <time>2026-06-20T09:45:35Z</time>
   </trkpt>
   <trkpt lat="-3.1898110" lon="37.2794420">
    <ele>1660.2</ele>
    <time>2026-06-20T09:45:36Z</time>
   </trkpt>
   <trkpt lat="-3.1898110" lon="37.2794440">
    <ele>1660.2</ele>
    <time>2026-06-20T09:45:37Z</time>
   </trkpt>
   <trkpt lat="-3.1898070" lon="37.2794430">
    <ele>1660.2</ele>
    <time>2026-06-20T09:45:38Z</time>
   </trkpt>
   <trkpt lat="-3.1898060" lon="37.2794440">
    <ele>1660.2</ele>
    <time>2026-06-20T09:45:39Z</time>
   </trkpt>
   <trkpt lat="-3.1898070" lon="37.2794450">
    <ele>1660.2</ele>
    <time>2026-06-20T09:45:40Z</time>
   </trkpt>
   <trkpt lat="-3.1898070" lon="37.2794450">
    <ele>1660.2</ele>
    <time>2026-06-20T09:45:41Z</time>
   </trkpt>
   <trkpt lat="-3.1898070" lon="37.2794450">
    <ele>1660.2</ele>
    <time>2026-06-20T09:45:42Z</time>
   </trkpt>
   <trkpt lat="-3.1898070" lon="37.2794450">
    <ele>1660.2</ele>
    <time>2026-06-20T09:45:43Z</time>
   </trkpt>
   <trkpt lat="-3.1898140" lon="37.2794480">
    <ele>1660.2</ele>
    <time>2026-06-20T09:45:44Z</time>
   </trkpt>
   <trkpt lat="-3.1898180" lon="37.2794500">
    <ele>1660.2</ele>
    <time>2026-06-20T09:45:45Z</time>
   </trkpt>
   <trkpt lat="-3.1898200" lon="37.2794530">
    <ele>1660.2</ele>
    <time>2026-06-20T09:45:46Z</time>
   </trkpt>
   <trkpt lat="-3.1898250" lon="37.2794560">
    <ele>1660.2</ele>
    <time>2026-06-20T09:45:47Z</time>
   </trkpt>
   <trkpt lat="-3.1898250" lon="37.2794560">
    <ele>1660.2</ele>
    <time>2026-06-20T09:45:48Z</time>
   </trkpt>
   <trkpt lat="-3.1898250" lon="37.2794550">
    <ele>1660.2</ele>
    <time>2026-06-20T09:45:49Z</time>
   </trkpt>
   <trkpt lat="-3.1898240" lon="37.2794550">
    <ele>1660.2</ele>
    <time>2026-06-20T09:45:50Z</time>
   </trkpt>
   <trkpt lat="-3.1898190" lon="37.2794550">
    <ele>1660.2</ele>
    <time>2026-06-20T09:45:51Z</time>
   </trkpt>
   <trkpt lat="-3.1898140" lon="37.2794550">
    <ele>1660.2</ele>
    <time>2026-06-20T09:45:52Z</time>
   </trkpt>
   <trkpt lat="-3.1898140" lon="37.2794500">
    <ele>1660.2</ele>
    <time>2026-06-20T09:45:53Z</time>
   </trkpt>
   <trkpt lat="-3.1898100" lon="37.2794480">
    <ele>1660.2</ele>
    <time>2026-06-20T09:45:54Z</time>
   </trkpt>
   <trkpt lat="-3.1898080" lon="37.2794460">
    <ele>1660.2</ele>
    <time>2026-06-20T09:45:55Z</time>
   </trkpt>
   <trkpt lat="-3.1898080" lon="37.2794460">
    <ele>1660.2</ele>
    <time>2026-06-20T09:45:56Z</time>
   </trkpt>
   <trkpt lat="-3.1898050" lon="37.2794400">
    <ele>1660.2</ele>
    <time>2026-06-20T09:45:57Z</time>
   </trkpt>
   <trkpt lat="-3.1898030" lon="37.2794380">
    <ele>1660.2</ele>
    <time>2026-06-20T09:45:58Z</time>
   </trkpt>
   <trkpt lat="-3.1898020" lon="37.2794370">
    <ele>1660.2</ele>
    <time>2026-06-20T09:45:59Z</time>
   </trkpt>
   <trkpt lat="-3.1897990" lon="37.2794370">
    <ele>1660.2</ele>
    <time>2026-06-20T09:46:00Z</time>
   </trkpt>
   <trkpt lat="-3.1898020" lon="37.2794380">
    <ele>1660.2</ele>
    <time>2026-06-20T09:46:01Z</time>
   </trkpt>
   <trkpt lat="-3.1898060" lon="37.2794390">
    <ele>1660.2</ele>
    <time>2026-06-20T09:46:02Z</time>
   </trkpt>
   <trkpt lat="-3.1898080" lon="37.2794370">
    <ele>1660.2</ele>
    <time>2026-06-20T09:46:03Z</time>
   </trkpt>
   <trkpt lat="-3.1898100" lon="37.2794400">
    <ele>1660.2</ele>
    <time>2026-06-20T09:46:04Z</time>
   </trkpt>
   <trkpt lat="-3.1898130" lon="37.2794440">
    <ele>1660.2</ele>
    <time>2026-06-20T09:46:05Z</time>
   </trkpt>
   <trkpt lat="-3.1898160" lon="37.2794460">
    <ele>1660.2</ele>
    <time>2026-06-20T09:46:06Z</time>
   </trkpt>
   <trkpt lat="-3.1898170" lon="37.2794490">
    <ele>1660.2</ele>
    <time>2026-06-20T09:46:07Z</time>
   </trkpt>
   <trkpt lat="-3.1898150" lon="37.2794500">
    <ele>1660.2</ele>
    <time>2026-06-20T09:46:08Z</time>
   </trkpt>
   <trkpt lat="-3.1898150" lon="37.2794500">
    <ele>1660.2</ele>
    <time>2026-06-20T09:46:09Z</time>
   </trkpt>
   <trkpt lat="-3.1898150" lon="37.2794500">
    <ele>1660.2</ele>
    <time>2026-06-20T09:46:10Z</time>
   </trkpt>
   <trkpt lat="-3.1898130" lon="37.2794500">
    <ele>1660.2</ele>
    <time>2026-06-20T09:46:11Z</time>
   </trkpt>
   <trkpt lat="-3.1898080" lon="37.2794450">
    <ele>1660.2</ele>
    <time>2026-06-20T09:46:12Z</time>
   </trkpt>
   <trkpt lat="-3.1898060" lon="37.2794420">
    <ele>1660.2</ele>
    <time>2026-06-20T09:46:13Z</time>
   </trkpt>
   <trkpt lat="-3.1898070" lon="37.2794420">
    <ele>1660.2</ele>
    <time>2026-06-20T09:46:14Z</time>
   </trkpt>
   <trkpt lat="-3.1898050" lon="37.2794420">
    <ele>1660.2</ele>
    <time>2026-06-20T09:46:15Z</time>
   </trkpt>
   <trkpt lat="-3.1898020" lon="37.2794370">
    <ele>1660.2</ele>
    <time>2026-06-20T09:46:16Z</time>
   </trkpt>
   <trkpt lat="-3.1897980" lon="37.2794360">
    <ele>1660.2</ele>
    <time>2026-06-20T09:46:17Z</time>
   </trkpt>
   <trkpt lat="-3.1897990" lon="37.2794340">
    <ele>1660.2</ele>
    <time>2026-06-20T09:46:18Z</time>
   </trkpt>
   <trkpt lat="-3.1897990" lon="37.2794310">
    <ele>1660.2</ele>
    <time>2026-06-20T09:46:19Z</time>
   </trkpt>
   <trkpt lat="-3.1898000" lon="37.2794290">
    <ele>1660.2</ele>
    <time>2026-06-20T09:46:20Z</time>
   </trkpt>
   <trkpt lat="-3.1898020" lon="37.2794260">
    <ele>1660.2</ele>
    <time>2026-06-20T09:46:21Z</time>
   </trkpt>
   <trkpt lat="-3.1898020" lon="37.2794260">
    <ele>1660.2</ele>
    <time>2026-06-20T09:46:22Z</time>
   </trkpt>
   <trkpt lat="-3.1898020" lon="37.2794260">
    <ele>1660.2</ele>
    <time>2026-06-20T09:46:23Z</time>
   </trkpt>
   <trkpt lat="-3.1898060" lon="37.2794210">
    <ele>1660.2</ele>
    <time>2026-06-20T09:46:24Z</time>
   </trkpt>
   <trkpt lat="-3.1898020" lon="37.2794190">
    <ele>1660.1</ele>
    <time>2026-06-20T09:46:25Z</time>
   </trkpt>
   <trkpt lat="-3.1898020" lon="37.2794190">
    <ele>1660.1</ele>
    <time>2026-06-20T09:46:26Z</time>
   </trkpt>
   <trkpt lat="-3.1898020" lon="37.2794190">
    <ele>1660.1</ele>
    <time>2026-06-20T09:46:27Z</time>
   </trkpt>
   <trkpt lat="-3.1897930" lon="37.2794190">
    <ele>1660.1</ele>
    <time>2026-06-20T09:46:28Z</time>
   </trkpt>
   <trkpt lat="-3.1897930" lon="37.2794190">
    <ele>1660.1</ele>
    <time>2026-06-20T09:46:29Z</time>
   </trkpt>
   <trkpt lat="-3.1897920" lon="37.2794210">
    <ele>1660.1</ele>
    <time>2026-06-20T09:46:30Z</time>
   </trkpt>
   <trkpt lat="-3.1897920" lon="37.2794210">
    <ele>1660.1</ele>
    <time>2026-06-20T09:46:31Z</time>
   </trkpt>
   <trkpt lat="-3.1897920" lon="37.2794210">
    <ele>1660.1</ele>
    <time>2026-06-20T09:46:32Z</time>
   </trkpt>
   <trkpt lat="-3.1897890" lon="37.2794200">
    <ele>1660.1</ele>
    <time>2026-06-20T09:46:33Z</time>
   </trkpt>
   <trkpt lat="-3.1897900" lon="37.2794220">
    <ele>1660.1</ele>
    <time>2026-06-20T09:46:34Z</time>
   </trkpt>
   <trkpt lat="-3.1897870" lon="37.2794250">
    <ele>1660.1</ele>
    <time>2026-06-20T09:46:35Z</time>
   </trkpt>
   <trkpt lat="-3.1897870" lon="37.2794250">
    <ele>1660.1</ele>
    <time>2026-06-20T09:46:36Z</time>
   </trkpt>
   <trkpt lat="-3.1897870" lon="37.2794250">
    <ele>1660.1</ele>
    <time>2026-06-20T09:46:37Z</time>
   </trkpt>
   <trkpt lat="-3.1897870" lon="37.2794250">
    <ele>1660.1</ele>
    <time>2026-06-20T09:46:38Z</time>
   </trkpt>
   <trkpt lat="-3.1897870" lon="37.2794250">
    <ele>1660.1</ele>
    <time>2026-06-20T09:46:39Z</time>
   </trkpt>
   <trkpt lat="-3.1897950" lon="37.2794170">
    <ele>1660.1</ele>
    <time>2026-06-20T09:46:40Z</time>
   </trkpt>
   <trkpt lat="-3.1897960" lon="37.2794170">
    <ele>1660.1</ele>
    <time>2026-06-20T09:46:41Z</time>
   </trkpt>
   <trkpt lat="-3.1898010" lon="37.2794190">
    <ele>1660.1</ele>
    <time>2026-06-20T09:46:42Z</time>
   </trkpt>
   <trkpt lat="-3.1898120" lon="37.2794150">
    <ele>1660.1</ele>
    <time>2026-06-20T09:46:43Z</time>
   </trkpt>
   <trkpt lat="-3.1898160" lon="37.2794180">
    <ele>1660.1</ele>
    <time>2026-06-20T09:46:44Z</time>
   </trkpt>
   <trkpt lat="-3.1898160" lon="37.2794190">
    <ele>1660.1</ele>
    <time>2026-06-20T09:46:45Z</time>
   </trkpt>
   <trkpt lat="-3.1898200" lon="37.2794210">
    <ele>1660.1</ele>
    <time>2026-06-20T09:46:46Z</time>
   </trkpt>
   <trkpt lat="-3.1898240" lon="37.2794180">
    <ele>1660.1</ele>
    <time>2026-06-20T09:46:47Z</time>
   </trkpt>
   <trkpt lat="-3.1898280" lon="37.2794160">
    <ele>1660.1</ele>
    <time>2026-06-20T09:46:48Z</time>
   </trkpt>
   <trkpt lat="-3.1898310" lon="37.2794140">
    <ele>1660.1</ele>
    <time>2026-06-20T09:46:49Z</time>
   </trkpt>
   <trkpt lat="-3.1898310" lon="37.2794140">
    <ele>1660.1</ele>
    <time>2026-06-20T09:46:50Z</time>
   </trkpt>
   <trkpt lat="-3.1898360" lon="37.2794130">
    <ele>1660.1</ele>
    <time>2026-06-20T09:46:51Z</time>
   </trkpt>
   <trkpt lat="-3.1898380" lon="37.2794120">
    <ele>1660.1</ele>
    <time>2026-06-20T09:46:52Z</time>
   </trkpt>
   <trkpt lat="-3.1898420" lon="37.2794100">
    <ele>1660.1</ele>
    <time>2026-06-20T09:46:53Z</time>
   </trkpt>
   <trkpt lat="-3.1898420" lon="37.2794100">
    <ele>1660.1</ele>
    <time>2026-06-20T09:46:54Z</time>
   </trkpt>
   <trkpt lat="-3.1898420" lon="37.2794100">
    <ele>1660.1</ele>
    <time>2026-06-20T09:46:55Z</time>
   </trkpt>
   <trkpt lat="-3.1898420" lon="37.2794100">
    <ele>1660.1</ele>
    <time>2026-06-20T09:46:56Z</time>
   </trkpt>
   <trkpt lat="-3.1898420" lon="37.2794100">
    <ele>1660.1</ele>
    <time>2026-06-20T09:46:57Z</time>
   </trkpt>
   <trkpt lat="-3.1898460" lon="37.2794130">
    <ele>1660.1</ele>
    <time>2026-06-20T09:46:58Z</time>
   </trkpt>
   <trkpt lat="-3.1898460" lon="37.2794130">
    <ele>1660.1</ele>
    <time>2026-06-20T09:46:59Z</time>
   </trkpt>
   <trkpt lat="-3.1898460" lon="37.2794130">
    <ele>1660.1</ele>
    <time>2026-06-20T09:47:00Z</time>
   </trkpt>
   <trkpt lat="-3.1898530" lon="37.2794120">
    <ele>1660.1</ele>
    <time>2026-06-20T09:47:01Z</time>
   </trkpt>
   <trkpt lat="-3.1898550" lon="37.2794110">
    <ele>1660.1</ele>
    <time>2026-06-20T09:47:02Z</time>
   </trkpt>
   <trkpt lat="-3.1898550" lon="37.2794110">
    <ele>1660.1</ele>
    <time>2026-06-20T09:47:03Z</time>
   </trkpt>
   <trkpt lat="-3.1898550" lon="37.2794100">
    <ele>1660.1</ele>
    <time>2026-06-20T09:47:04Z</time>
   </trkpt>
   <trkpt lat="-3.1898550" lon="37.2794100">
    <ele>1660.1</ele>
    <time>2026-06-20T09:47:05Z</time>
   </trkpt>
   <trkpt lat="-3.1898580" lon="37.2794130">
    <ele>1660.1</ele>
    <time>2026-06-20T09:47:06Z</time>
   </trkpt>
   <trkpt lat="-3.1898630" lon="37.2794090">
    <ele>1660.1</ele>
    <time>2026-06-20T09:47:07Z</time>
   </trkpt>
   <trkpt lat="-3.1898630" lon="37.2794090">
    <ele>1660.1</ele>
    <time>2026-06-20T09:47:08Z</time>
   </trkpt>
   <trkpt lat="-3.1898630" lon="37.2794090">
    <ele>1660.1</ele>
    <time>2026-06-20T09:47:09Z</time>
   </trkpt>
   <trkpt lat="-3.1898700" lon="37.2794110">
    <ele>1660.1</ele>
    <time>2026-06-20T09:47:10Z</time>
   </trkpt>
   <trkpt lat="-3.1898700" lon="37.2794110">
    <ele>1660.1</ele>
    <time>2026-06-20T09:47:11Z</time>
   </trkpt>
   <trkpt lat="-3.1898710" lon="37.2794090">
    <ele>1660.1</ele>
    <time>2026-06-20T09:47:12Z</time>
   </trkpt>
   <trkpt lat="-3.1898750" lon="37.2794050">
    <ele>1660.1</ele>
    <time>2026-06-20T09:47:13Z</time>
   </trkpt>
   <trkpt lat="-3.1898780" lon="37.2794010">
    <ele>1660.1</ele>
    <time>2026-06-20T09:47:14Z</time>
   </trkpt>
   <trkpt lat="-3.1898780" lon="37.2794010">
    <ele>1660.1</ele>
    <time>2026-06-20T09:47:15Z</time>
   </trkpt>
   <trkpt lat="-3.1898780" lon="37.2794010">
    <ele>1660.1</ele>
    <time>2026-06-20T09:47:16Z</time>
   </trkpt>
   <trkpt lat="-3.1898810" lon="37.2793940">
    <ele>1660.1</ele>
    <time>2026-06-20T09:47:17Z</time>
   </trkpt>
   <trkpt lat="-3.1898820" lon="37.2793910">
    <ele>1660.1</ele>
    <time>2026-06-20T09:47:18Z</time>
   </trkpt>
   <trkpt lat="-3.1898820" lon="37.2793910">
    <ele>1660.1</ele>
    <time>2026-06-20T09:47:19Z</time>
   </trkpt>
   <trkpt lat="-3.1898820" lon="37.2793910">
    <ele>1660.1</ele>
    <time>2026-06-20T09:47:20Z</time>
   </trkpt>
   <trkpt lat="-3.1898820" lon="37.2793910">
    <ele>1660.1</ele>
    <time>2026-06-20T09:47:21Z</time>
   </trkpt>
   <trkpt lat="-3.1898820" lon="37.2793910">
    <ele>1660.1</ele>
    <time>2026-06-20T09:47:22Z</time>
   </trkpt>
   <trkpt lat="-3.1898820" lon="37.2793910">
    <ele>1660.1</ele>
    <time>2026-06-20T09:47:23Z</time>
   </trkpt>
   <trkpt lat="-3.1898820" lon="37.2793910">
    <ele>1660.1</ele>
    <time>2026-06-20T09:47:24Z</time>
   </trkpt>
   <trkpt lat="-3.1898620" lon="37.2794070">
    <ele>1660.1</ele>
    <time>2026-06-20T09:47:25Z</time>
   </trkpt>
   <trkpt lat="-3.1898580" lon="37.2794070">
    <ele>1660.1</ele>
    <time>2026-06-20T09:47:26Z</time>
   </trkpt>
   <trkpt lat="-3.1898560" lon="37.2794110">
    <ele>1660.1</ele>
    <time>2026-06-20T09:47:27Z</time>
   </trkpt>
   <trkpt lat="-3.1898550" lon="37.2794110">
    <ele>1660.1</ele>
    <time>2026-06-20T09:47:28Z</time>
   </trkpt>
   <trkpt lat="-3.1898460" lon="37.2794070">
    <ele>1660.0</ele>
    <time>2026-06-20T09:47:29Z</time>
   </trkpt>
   <trkpt lat="-3.1898410" lon="37.2794080">
    <ele>1660.0</ele>
    <time>2026-06-20T09:47:30Z</time>
   </trkpt>
   <trkpt lat="-3.1898370" lon="37.2794100">
    <ele>1660.0</ele>
    <time>2026-06-20T09:47:31Z</time>
   </trkpt>
   <trkpt lat="-3.1898390" lon="37.2794090">
    <ele>1660.0</ele>
    <time>2026-06-20T09:47:32Z</time>
   </trkpt>
   <trkpt lat="-3.1898390" lon="37.2794090">
    <ele>1660.0</ele>
    <time>2026-06-20T09:47:33Z</time>
   </trkpt>
   <trkpt lat="-3.1898360" lon="37.2794090">
    <ele>1660.0</ele>
    <time>2026-06-20T09:47:34Z</time>
   </trkpt>
   <trkpt lat="-3.1898360" lon="37.2794090">
    <ele>1660.0</ele>
    <time>2026-06-20T09:47:35Z</time>
   </trkpt>
   <trkpt lat="-3.1898360" lon="37.2794090">
    <ele>1660.0</ele>
    <time>2026-06-20T09:47:36Z</time>
   </trkpt>
   <trkpt lat="-3.1898370" lon="37.2794050">
    <ele>1660.0</ele>
    <time>2026-06-20T09:47:37Z</time>
   </trkpt>
   <trkpt lat="-3.1898370" lon="37.2794050">
    <ele>1660.0</ele>
    <time>2026-06-20T09:47:38Z</time>
   </trkpt>
   <trkpt lat="-3.1898380" lon="37.2794070">
    <ele>1660.0</ele>
    <time>2026-06-20T09:47:39Z</time>
   </trkpt>
   <trkpt lat="-3.1898380" lon="37.2794070">
    <ele>1660.0</ele>
    <time>2026-06-20T09:47:40Z</time>
   </trkpt>
   <trkpt lat="-3.1898420" lon="37.2794070">
    <ele>1660.0</ele>
    <time>2026-06-20T09:47:41Z</time>
   </trkpt>
   <trkpt lat="-3.1898440" lon="37.2794060">
    <ele>1660.0</ele>
    <time>2026-06-20T09:47:42Z</time>
   </trkpt>
   <trkpt lat="-3.1898450" lon="37.2794050">
    <ele>1660.0</ele>
    <time>2026-06-20T09:47:43Z</time>
   </trkpt>
   <trkpt lat="-3.1898460" lon="37.2794040">
    <ele>1660.0</ele>
    <time>2026-06-20T09:47:44Z</time>
   </trkpt>
   <trkpt lat="-3.1898460" lon="37.2794020">
    <ele>1660.0</ele>
    <time>2026-06-20T09:47:45Z</time>
   </trkpt>
   <trkpt lat="-3.1898490" lon="37.2794020">
    <ele>1660.0</ele>
    <time>2026-06-20T09:47:46Z</time>
   </trkpt>
   <trkpt lat="-3.1898420" lon="37.2794050">
    <ele>1660.0</ele>
    <time>2026-06-20T09:47:47Z</time>
   </trkpt>
   <trkpt lat="-3.1898370" lon="37.2794060">
    <ele>1660.0</ele>
    <time>2026-06-20T09:47:48Z</time>
   </trkpt>
   <trkpt lat="-3.1898330" lon="37.2794100">
    <ele>1660.0</ele>
    <time>2026-06-20T09:47:49Z</time>
   </trkpt>
   <trkpt lat="-3.1898290" lon="37.2794120">
    <ele>1660.0</ele>
    <time>2026-06-20T09:47:50Z</time>
   </trkpt>
   <trkpt lat="-3.1898260" lon="37.2794150">
    <ele>1660.0</ele>
    <time>2026-06-20T09:47:51Z</time>
   </trkpt>
   <trkpt lat="-3.1898260" lon="37.2794150">
    <ele>1660.0</ele>
    <time>2026-06-20T09:47:52Z</time>
   </trkpt>
   <trkpt lat="-3.1898260" lon="37.2794180">
    <ele>1660.0</ele>
    <time>2026-06-20T09:47:53Z</time>
   </trkpt>
   <trkpt lat="-3.1898260" lon="37.2794140">
    <ele>1660.0</ele>
    <time>2026-06-20T09:47:54Z</time>
   </trkpt>
   <trkpt lat="-3.1898260" lon="37.2794140">
    <ele>1660.0</ele>
    <time>2026-06-20T09:47:55Z</time>
   </trkpt>
   <trkpt lat="-3.1898280" lon="37.2794090">
    <ele>1660.0</ele>
    <time>2026-06-20T09:47:56Z</time>
   </trkpt>
   <trkpt lat="-3.1898280" lon="37.2794080">
    <ele>1660.0</ele>
    <time>2026-06-20T09:47:57Z</time>
   </trkpt>
   <trkpt lat="-3.1898280" lon="37.2794080">
    <ele>1660.0</ele>
    <time>2026-06-20T09:47:58Z</time>
   </trkpt>
   <trkpt lat="-3.1898280" lon="37.2794080">
    <ele>1660.0</ele>
    <time>2026-06-20T09:47:59Z</time>
   </trkpt>
   <trkpt lat="-3.1898280" lon="37.2794070">
    <ele>1660.0</ele>
    <time>2026-06-20T09:48:00Z</time>
   </trkpt>
   <trkpt lat="-3.1898280" lon="37.2794080">
    <ele>1660.0</ele>
    <time>2026-06-20T09:48:01Z</time>
   </trkpt>
   <trkpt lat="-3.1898280" lon="37.2794080">
    <ele>1660.0</ele>
    <time>2026-06-20T09:48:02Z</time>
   </trkpt>
   <trkpt lat="-3.1898280" lon="37.2794100">
    <ele>1660.0</ele>
    <time>2026-06-20T09:48:03Z</time>
   </trkpt>
   <trkpt lat="-3.1898290" lon="37.2794120">
    <ele>1660.0</ele>
    <time>2026-06-20T09:48:04Z</time>
   </trkpt>
   <trkpt lat="-3.1898300" lon="37.2794110">
    <ele>1660.0</ele>
    <time>2026-06-20T09:48:05Z</time>
   </trkpt>
   <trkpt lat="-3.1898300" lon="37.2794110">
    <ele>1660.0</ele>
    <time>2026-06-20T09:48:06Z</time>
   </trkpt>
   <trkpt lat="-3.1898320" lon="37.2794100">
    <ele>1660.0</ele>
    <time>2026-06-20T09:48:07Z</time>
   </trkpt>
   <trkpt lat="-3.1898320" lon="37.2794100">
    <ele>1660.0</ele>
    <time>2026-06-20T09:48:08Z</time>
   </trkpt>
   <trkpt lat="-3.1898320" lon="37.2794100">
    <ele>1660.0</ele>
    <time>2026-06-20T09:48:09Z</time>
   </trkpt>
   <trkpt lat="-3.1898350" lon="37.2794110">
    <ele>1660.0</ele>
    <time>2026-06-20T09:48:10Z</time>
   </trkpt>
   <trkpt lat="-3.1898350" lon="37.2794110">
    <ele>1660.0</ele>
    <time>2026-06-20T09:48:11Z</time>
   </trkpt>
   <trkpt lat="-3.1898360" lon="37.2794110">
    <ele>1660.0</ele>
    <time>2026-06-20T09:48:12Z</time>
   </trkpt>
   <trkpt lat="-3.1898360" lon="37.2794110">
    <ele>1660.0</ele>
    <time>2026-06-20T09:48:13Z</time>
   </trkpt>
   <trkpt lat="-3.1898360" lon="37.2794110">
    <ele>1660.0</ele>
    <time>2026-06-20T09:48:14Z</time>
   </trkpt>
   <trkpt lat="-3.1898380" lon="37.2794160">
    <ele>1660.0</ele>
    <time>2026-06-20T09:48:15Z</time>
   </trkpt>
   <trkpt lat="-3.1898350" lon="37.2794170">
    <ele>1660.0</ele>
    <time>2026-06-20T09:48:16Z</time>
   </trkpt>
   <trkpt lat="-3.1898280" lon="37.2794230">
    <ele>1660.0</ele>
    <time>2026-06-20T09:48:17Z</time>
   </trkpt>
   <trkpt lat="-3.1898280" lon="37.2794300">
    <ele>1660.0</ele>
    <time>2026-06-20T09:48:18Z</time>
   </trkpt>
   <trkpt lat="-3.1898280" lon="37.2794300">
    <ele>1660.0</ele>
    <time>2026-06-20T09:48:19Z</time>
   </trkpt>
   <trkpt lat="-3.1898250" lon="37.2794360">
    <ele>1660.0</ele>
    <time>2026-06-20T09:48:20Z</time>
   </trkpt>
   <trkpt lat="-3.1898280" lon="37.2794400">
    <ele>1660.0</ele>
    <time>2026-06-20T09:48:21Z</time>
   </trkpt>
   <trkpt lat="-3.1898280" lon="37.2794420">
    <ele>1660.0</ele>
    <time>2026-06-20T09:48:22Z</time>
   </trkpt>
   <trkpt lat="-3.1898280" lon="37.2794420">
    <ele>1660.0</ele>
    <time>2026-06-20T09:48:23Z</time>
   </trkpt>
   <trkpt lat="-3.1898270" lon="37.2794410">
    <ele>1660.0</ele>
    <time>2026-06-20T09:48:24Z</time>
   </trkpt>
   <trkpt lat="-3.1898250" lon="37.2794420">
    <ele>1660.0</ele>
    <time>2026-06-20T09:48:25Z</time>
   </trkpt>
   <trkpt lat="-3.1898250" lon="37.2794420">
    <ele>1660.0</ele>
    <time>2026-06-20T09:48:26Z</time>
   </trkpt>
   <trkpt lat="-3.1898250" lon="37.2794420">
    <ele>1660.0</ele>
    <time>2026-06-20T09:48:27Z</time>
   </trkpt>
   <trkpt lat="-3.1898240" lon="37.2794430">
    <ele>1660.0</ele>
    <time>2026-06-20T09:48:28Z</time>
   </trkpt>
   <trkpt lat="-3.1898220" lon="37.2794470">
    <ele>1660.0</ele>
    <time>2026-06-20T09:48:29Z</time>
   </trkpt>
   <trkpt lat="-3.1898210" lon="37.2794490">
    <ele>1660.0</ele>
    <time>2026-06-20T09:48:30Z</time>
   </trkpt>
   <trkpt lat="-3.1898210" lon="37.2794490">
    <ele>1660.0</ele>
    <time>2026-06-20T09:48:31Z</time>
   </trkpt>
   <trkpt lat="-3.1898210" lon="37.2794490">
    <ele>1660.0</ele>
    <time>2026-06-20T09:48:32Z</time>
   </trkpt>
   <trkpt lat="-3.1898210" lon="37.2794490">
    <ele>1660.0</ele>
    <time>2026-06-20T09:48:33Z</time>
   </trkpt>
   <trkpt lat="-3.1898190" lon="37.2794490">
    <ele>1660.0</ele>
    <time>2026-06-20T09:48:34Z</time>
   </trkpt>
   <trkpt lat="-3.1898180" lon="37.2794490">
    <ele>1660.0</ele>
    <time>2026-06-20T09:48:35Z</time>
   </trkpt>
   <trkpt lat="-3.1898180" lon="37.2794490">
    <ele>1660.0</ele>
    <time>2026-06-20T09:48:36Z</time>
   </trkpt>
   <trkpt lat="-3.1898180" lon="37.2794490">
    <ele>1660.0</ele>
    <time>2026-06-20T09:48:37Z</time>
   </trkpt>
   <trkpt lat="-3.1898180" lon="37.2794490">
    <ele>1660.0</ele>
    <time>2026-06-20T09:48:38Z</time>
   </trkpt>
   <trkpt lat="-3.1898180" lon="37.2794470">
    <ele>1660.0</ele>
    <time>2026-06-20T09:48:39Z</time>
   </trkpt>
   <trkpt lat="-3.1898180" lon="37.2794470">
    <ele>1660.0</ele>
    <time>2026-06-20T09:48:40Z</time>
   </trkpt>
   <trkpt lat="-3.1898160" lon="37.2794450">
    <ele>1660.0</ele>
    <time>2026-06-20T09:48:41Z</time>
   </trkpt>
   <trkpt lat="-3.1898160" lon="37.2794450">
    <ele>1660.0</ele>
    <time>2026-06-20T09:48:42Z</time>
   </trkpt>
   <trkpt lat="-3.1898160" lon="37.2794450">
    <ele>1660.0</ele>
    <time>2026-06-20T09:48:43Z</time>
   </trkpt>
   <trkpt lat="-3.1898170" lon="37.2794470">
    <ele>1660.0</ele>
    <time>2026-06-20T09:48:44Z</time>
   </trkpt>
   <trkpt lat="-3.1898170" lon="37.2794470">
    <ele>1660.0</ele>
    <time>2026-06-20T09:48:45Z</time>
   </trkpt>
   <trkpt lat="-3.1898170" lon="37.2794470">
    <ele>1660.0</ele>
    <time>2026-06-20T09:48:46Z</time>
   </trkpt>
   <trkpt lat="-3.1898170" lon="37.2794470">
    <ele>1660.0</ele>
    <time>2026-06-20T09:48:47Z</time>
   </trkpt>
   <trkpt lat="-3.1898170" lon="37.2794470">
    <ele>1660.0</ele>
    <time>2026-06-20T09:48:48Z</time>
   </trkpt>
   <trkpt lat="-3.1898170" lon="37.2794470">
    <ele>1660.0</ele>
    <time>2026-06-20T09:48:49Z</time>
   </trkpt>
   <trkpt lat="-3.1898150" lon="37.2794460">
    <ele>1660.0</ele>
    <time>2026-06-20T09:48:50Z</time>
   </trkpt>
   <trkpt lat="-3.1898150" lon="37.2794460">
    <ele>1660.0</ele>
    <time>2026-06-20T09:48:51Z</time>
   </trkpt>
   <trkpt lat="-3.1898120" lon="37.2794450">
    <ele>1660.0</ele>
    <time>2026-06-20T09:48:52Z</time>
   </trkpt>
   <trkpt lat="-3.1898120" lon="37.2794460">
    <ele>1660.0</ele>
    <time>2026-06-20T09:48:53Z</time>
   </trkpt>
   <trkpt lat="-3.1898110" lon="37.2794440">
    <ele>1660.0</ele>
    <time>2026-06-20T09:48:54Z</time>
   </trkpt>
   <trkpt lat="-3.1898100" lon="37.2794450">
    <ele>1660.0</ele>
    <time>2026-06-20T09:48:55Z</time>
   </trkpt>
   <trkpt lat="-3.1898110" lon="37.2794470">
    <ele>1660.0</ele>
    <time>2026-06-20T09:48:56Z</time>
   </trkpt>
   <trkpt lat="-3.1898110" lon="37.2794470">
    <ele>1660.0</ele>
    <time>2026-06-20T09:48:57Z</time>
   </trkpt>
   <trkpt lat="-3.1898110" lon="37.2794470">
    <ele>1660.0</ele>
    <time>2026-06-20T09:48:58Z</time>
   </trkpt>
   <trkpt lat="-3.1898110" lon="37.2794470">
    <ele>1660.0</ele>
    <time>2026-06-20T09:48:59Z</time>
   </trkpt>
   <trkpt lat="-3.1898150" lon="37.2794470">
    <ele>1660.0</ele>
    <time>2026-06-20T09:49:00Z</time>
   </trkpt>
   <trkpt lat="-3.1898170" lon="37.2794480">
    <ele>1660.0</ele>
    <time>2026-06-20T09:49:01Z</time>
   </trkpt>
   <trkpt lat="-3.1898190" lon="37.2794480">
    <ele>1660.0</ele>
    <time>2026-06-20T09:49:02Z</time>
   </trkpt>
   <trkpt lat="-3.1898190" lon="37.2794480">
    <ele>1660.0</ele>
    <time>2026-06-20T09:49:03Z</time>
   </trkpt>
   <trkpt lat="-3.1898190" lon="37.2794480">
    <ele>1660.0</ele>
    <time>2026-06-20T09:49:04Z</time>
   </trkpt>
   <trkpt lat="-3.1898190" lon="37.2794450">
    <ele>1660.0</ele>
    <time>2026-06-20T09:49:05Z</time>
   </trkpt>
   <trkpt lat="-3.1898160" lon="37.2794450">
    <ele>1660.0</ele>
    <time>2026-06-20T09:49:06Z</time>
   </trkpt>
   <trkpt lat="-3.1898150" lon="37.2794450">
    <ele>1660.0</ele>
    <time>2026-06-20T09:49:07Z</time>
   </trkpt>
   <trkpt lat="-3.1898140" lon="37.2794460">
    <ele>1660.0</ele>
    <time>2026-06-20T09:49:08Z</time>
   </trkpt>
   <trkpt lat="-3.1898140" lon="37.2794460">
    <ele>1660.0</ele>
    <time>2026-06-20T09:49:09Z</time>
   </trkpt>
   <trkpt lat="-3.1898140" lon="37.2794490">
    <ele>1660.0</ele>
    <time>2026-06-20T09:49:10Z</time>
   </trkpt>
   <trkpt lat="-3.1898120" lon="37.2794490">
    <ele>1660.0</ele>
    <time>2026-06-20T09:49:11Z</time>
   </trkpt>
   <trkpt lat="-3.1898110" lon="37.2794500">
    <ele>1660.0</ele>
    <time>2026-06-20T09:49:12Z</time>
   </trkpt>
   <trkpt lat="-3.1898110" lon="37.2794500">
    <ele>1660.0</ele>
    <time>2026-06-20T09:49:13Z</time>
   </trkpt>
   <trkpt lat="-3.1898110" lon="37.2794500">
    <ele>1660.0</ele>
    <time>2026-06-20T09:49:14Z</time>
   </trkpt>
   <trkpt lat="-3.1898060" lon="37.2794500">
    <ele>1659.9</ele>
    <time>2026-06-20T09:49:15Z</time>
   </trkpt>
   <trkpt lat="-3.1898060" lon="37.2794500">
    <ele>1659.9</ele>
    <time>2026-06-20T09:49:16Z</time>
   </trkpt>
   <trkpt lat="-3.1898060" lon="37.2794500">
    <ele>1659.9</ele>
    <time>2026-06-20T09:49:17Z</time>
   </trkpt>
   <trkpt lat="-3.1898060" lon="37.2794500">
    <ele>1659.9</ele>
    <time>2026-06-20T09:49:18Z</time>
   </trkpt>
   <trkpt lat="-3.1898090" lon="37.2794520">
    <ele>1659.9</ele>
    <time>2026-06-20T09:49:19Z</time>
   </trkpt>
   <trkpt lat="-3.1898110" lon="37.2794520">
    <ele>1659.9</ele>
    <time>2026-06-20T09:49:20Z</time>
   </trkpt>
   <trkpt lat="-3.1898120" lon="37.2794530">
    <ele>1659.9</ele>
    <time>2026-06-20T09:49:21Z</time>
   </trkpt>
   <trkpt lat="-3.1898120" lon="37.2794530">
    <ele>1659.9</ele>
    <time>2026-06-20T09:49:22Z</time>
   </trkpt>
   <trkpt lat="-3.1898120" lon="37.2794530">
    <ele>1659.9</ele>
    <time>2026-06-20T09:49:23Z</time>
   </trkpt>
   <trkpt lat="-3.1898120" lon="37.2794530">
    <ele>1659.9</ele>
    <time>2026-06-20T09:49:24Z</time>
   </trkpt>
   <trkpt lat="-3.1898120" lon="37.2794530">
    <ele>1659.9</ele>
    <time>2026-06-20T09:49:25Z</time>
   </trkpt>
   <trkpt lat="-3.1898120" lon="37.2794530">
    <ele>1659.9</ele>
    <time>2026-06-20T09:49:26Z</time>
   </trkpt>
   <trkpt lat="-3.1898120" lon="37.2794530">
    <ele>1659.9</ele>
    <time>2026-06-20T09:49:27Z</time>
   </trkpt>
   <trkpt lat="-3.1898120" lon="37.2794530">
    <ele>1659.9</ele>
    <time>2026-06-20T09:49:28Z</time>
   </trkpt>
   <trkpt lat="-3.1898090" lon="37.2794560">
    <ele>1659.9</ele>
    <time>2026-06-20T09:49:29Z</time>
   </trkpt>
   <trkpt lat="-3.1898090" lon="37.2794560">
    <ele>1659.9</ele>
    <time>2026-06-20T09:49:30Z</time>
   </trkpt>
   <trkpt lat="-3.1898120" lon="37.2794570">
    <ele>1659.9</ele>
    <time>2026-06-20T09:49:31Z</time>
   </trkpt>
   <trkpt lat="-3.1898130" lon="37.2794570">
    <ele>1659.9</ele>
    <time>2026-06-20T09:49:32Z</time>
   </trkpt>
   <trkpt lat="-3.1898160" lon="37.2794560">
    <ele>1659.9</ele>
    <time>2026-06-20T09:49:33Z</time>
   </trkpt>
   <trkpt lat="-3.1898160" lon="37.2794560">
    <ele>1659.9</ele>
    <time>2026-06-20T09:49:34Z</time>
   </trkpt>
   <trkpt lat="-3.1898140" lon="37.2794540">
    <ele>1659.9</ele>
    <time>2026-06-20T09:49:35Z</time>
   </trkpt>
   <trkpt lat="-3.1898140" lon="37.2794540">
    <ele>1659.9</ele>
    <time>2026-06-20T09:49:36Z</time>
   </trkpt>
   <trkpt lat="-3.1898130" lon="37.2794500">
    <ele>1659.9</ele>
    <time>2026-06-20T09:49:37Z</time>
   </trkpt>
   <trkpt lat="-3.1898130" lon="37.2794500">
    <ele>1659.9</ele>
    <time>2026-06-20T09:49:38Z</time>
   </trkpt>
   <trkpt lat="-3.1898120" lon="37.2794490">
    <ele>1659.9</ele>
    <time>2026-06-20T09:49:39Z</time>
   </trkpt>
   <trkpt lat="-3.1898120" lon="37.2794490">
    <ele>1659.9</ele>
    <time>2026-06-20T09:49:40Z</time>
   </trkpt>
   <trkpt lat="-3.1898120" lon="37.2794490">
    <ele>1659.9</ele>
    <time>2026-06-20T09:49:41Z</time>
   </trkpt>
   <trkpt lat="-3.1898120" lon="37.2794490">
    <ele>1659.9</ele>
    <time>2026-06-20T09:49:42Z</time>
   </trkpt>
   <trkpt lat="-3.1898120" lon="37.2794490">
    <ele>1659.9</ele>
    <time>2026-06-20T09:49:43Z</time>
   </trkpt>
   <trkpt lat="-3.1898120" lon="37.2794490">
    <ele>1659.9</ele>
    <time>2026-06-20T09:49:44Z</time>
   </trkpt>
   <trkpt lat="-3.1898120" lon="37.2794490">
    <ele>1659.9</ele>
    <time>2026-06-20T09:49:45Z</time>
   </trkpt>
   <trkpt lat="-3.1898120" lon="37.2794490">
    <ele>1659.9</ele>
    <time>2026-06-20T09:49:46Z</time>
   </trkpt>
   <trkpt lat="-3.1898120" lon="37.2794490">
    <ele>1659.9</ele>
    <time>2026-06-20T09:49:47Z</time>
   </trkpt>
   <trkpt lat="-3.1898120" lon="37.2794490">
    <ele>1659.9</ele>
    <time>2026-06-20T09:49:48Z</time>
   </trkpt>
   <trkpt lat="-3.1898120" lon="37.2794490">
    <ele>1659.9</ele>
    <time>2026-06-20T09:49:49Z</time>
   </trkpt>
   <trkpt lat="-3.1898120" lon="37.2794490">
    <ele>1659.9</ele>
    <time>2026-06-20T09:49:50Z</time>
   </trkpt>
   <trkpt lat="-3.1898120" lon="37.2794400">
    <ele>1659.9</ele>
    <time>2026-06-20T09:49:51Z</time>
   </trkpt>
   <trkpt lat="-3.1898130" lon="37.2794380">
    <ele>1659.9</ele>
    <time>2026-06-20T09:49:52Z</time>
   </trkpt>
   <trkpt lat="-3.1898130" lon="37.2794380">
    <ele>1659.9</ele>
    <time>2026-06-20T09:49:53Z</time>
   </trkpt>
   <trkpt lat="-3.1898140" lon="37.2794360">
    <ele>1659.9</ele>
    <time>2026-06-20T09:49:54Z</time>
   </trkpt>
   <trkpt lat="-3.1898170" lon="37.2794330">
    <ele>1659.9</ele>
    <time>2026-06-20T09:49:55Z</time>
   </trkpt>
   <trkpt lat="-3.1898180" lon="37.2794320">
    <ele>1659.9</ele>
    <time>2026-06-20T09:49:56Z</time>
   </trkpt>
   <trkpt lat="-3.1898210" lon="37.2794300">
    <ele>1659.9</ele>
    <time>2026-06-20T09:49:57Z</time>
   </trkpt>
   <trkpt lat="-3.1898240" lon="37.2794270">
    <ele>1659.9</ele>
    <time>2026-06-20T09:49:58Z</time>
   </trkpt>
   <trkpt lat="-3.1898210" lon="37.2794280">
    <ele>1659.9</ele>
    <time>2026-06-20T09:49:59Z</time>
   </trkpt>
   <trkpt lat="-3.1898200" lon="37.2794280">
    <ele>1659.9</ele>
    <time>2026-06-20T09:50:00Z</time>
   </trkpt>
   <trkpt lat="-3.1898200" lon="37.2794290">
    <ele>1659.9</ele>
    <time>2026-06-20T09:50:01Z</time>
   </trkpt>
   <trkpt lat="-3.1898190" lon="37.2794330">
    <ele>1659.9</ele>
    <time>2026-06-20T09:50:02Z</time>
   </trkpt>
   <trkpt lat="-3.1898180" lon="37.2794330">
    <ele>1659.9</ele>
    <time>2026-06-20T09:50:03Z</time>
   </trkpt>
   <trkpt lat="-3.1898220" lon="37.2794330">
    <ele>1659.9</ele>
    <time>2026-06-20T09:50:04Z</time>
   </trkpt>
   <trkpt lat="-3.1898180" lon="37.2794340">
    <ele>1659.9</ele>
    <time>2026-06-20T09:50:05Z</time>
   </trkpt>
   <trkpt lat="-3.1898180" lon="37.2794340">
    <ele>1659.9</ele>
    <time>2026-06-20T09:50:06Z</time>
   </trkpt>
   <trkpt lat="-3.1898180" lon="37.2794340">
    <ele>1659.9</ele>
    <time>2026-06-20T09:50:07Z</time>
   </trkpt>
   <trkpt lat="-3.1898150" lon="37.2794340">
    <ele>1659.9</ele>
    <time>2026-06-20T09:50:08Z</time>
   </trkpt>
   <trkpt lat="-3.1898150" lon="37.2794340">
    <ele>1659.9</ele>
    <time>2026-06-20T09:50:09Z</time>
   </trkpt>
   <trkpt lat="-3.1898140" lon="37.2794340">
    <ele>1659.9</ele>
    <time>2026-06-20T09:50:10Z</time>
   </trkpt>
   <trkpt lat="-3.1898130" lon="37.2794320">
    <ele>1659.9</ele>
    <time>2026-06-20T09:50:11Z</time>
   </trkpt>
   <trkpt lat="-3.1898130" lon="37.2794310">
    <ele>1659.9</ele>
    <time>2026-06-20T09:50:12Z</time>
   </trkpt>
   <trkpt lat="-3.1898160" lon="37.2794340">
    <ele>1659.9</ele>
    <time>2026-06-20T09:50:13Z</time>
   </trkpt>
   <trkpt lat="-3.1898140" lon="37.2794380">
    <ele>1659.9</ele>
    <time>2026-06-20T09:50:14Z</time>
   </trkpt>
   <trkpt lat="-3.1898160" lon="37.2794410">
    <ele>1659.9</ele>
    <time>2026-06-20T09:50:15Z</time>
   </trkpt>
   <trkpt lat="-3.1898160" lon="37.2794430">
    <ele>1659.9</ele>
    <time>2026-06-20T09:50:16Z</time>
   </trkpt>
   <trkpt lat="-3.1898190" lon="37.2794470">
    <ele>1659.9</ele>
    <time>2026-06-20T09:50:17Z</time>
   </trkpt>
   <trkpt lat="-3.1898190" lon="37.2794470">
    <ele>1659.9</ele>
    <time>2026-06-20T09:50:18Z</time>
   </trkpt>
   <trkpt lat="-3.1898190" lon="37.2794470">
    <ele>1659.9</ele>
    <time>2026-06-20T09:50:19Z</time>
   </trkpt>
   <trkpt lat="-3.1898190" lon="37.2794470">
    <ele>1659.9</ele>
    <time>2026-06-20T09:50:20Z</time>
   </trkpt>
   <trkpt lat="-3.1898190" lon="37.2794470">
    <ele>1659.9</ele>
    <time>2026-06-20T09:50:21Z</time>
   </trkpt>
   <trkpt lat="-3.1898190" lon="37.2794470">
    <ele>1659.9</ele>
    <time>2026-06-20T09:50:22Z</time>
   </trkpt>
   <trkpt lat="-3.1898190" lon="37.2794470">
    <ele>1659.9</ele>
    <time>2026-06-20T09:50:23Z</time>
   </trkpt>
   <trkpt lat="-3.1898370" lon="37.2794410">
    <ele>1659.9</ele>
    <time>2026-06-20T09:50:24Z</time>
   </trkpt>
   <trkpt lat="-3.1898370" lon="37.2794410">
    <ele>1659.9</ele>
    <time>2026-06-20T09:50:25Z</time>
   </trkpt>
   <trkpt lat="-3.1898370" lon="37.2794410">
    <ele>1659.9</ele>
    <time>2026-06-20T09:50:26Z</time>
   </trkpt>
   <trkpt lat="-3.1898370" lon="37.2794410">
    <ele>1659.9</ele>
    <time>2026-06-20T09:50:27Z</time>
   </trkpt>
   <trkpt lat="-3.1898370" lon="37.2794410">
    <ele>1659.9</ele>
    <time>2026-06-20T09:50:28Z</time>
   </trkpt>
   <trkpt lat="-3.1898370" lon="37.2794410">
    <ele>1659.9</ele>
    <time>2026-06-20T09:50:29Z</time>
   </trkpt>
   <trkpt lat="-3.1898370" lon="37.2794350">
    <ele>1659.9</ele>
    <time>2026-06-20T09:50:30Z</time>
   </trkpt>
   <trkpt lat="-3.1898350" lon="37.2794380">
    <ele>1659.9</ele>
    <time>2026-06-20T09:50:31Z</time>
   </trkpt>
   <trkpt lat="-3.1898350" lon="37.2794380">
    <ele>1659.9</ele>
    <time>2026-06-20T09:50:32Z</time>
   </trkpt>
   <trkpt lat="-3.1898340" lon="37.2794380">
    <ele>1659.9</ele>
    <time>2026-06-20T09:50:33Z</time>
   </trkpt>
   <trkpt lat="-3.1898320" lon="37.2794420">
    <ele>1659.9</ele>
    <time>2026-06-20T09:50:34Z</time>
   </trkpt>
   <trkpt lat="-3.1898300" lon="37.2794450">
    <ele>1659.9</ele>
    <time>2026-06-20T09:50:35Z</time>
   </trkpt>
   <trkpt lat="-3.1898300" lon="37.2794450">
    <ele>1659.9</ele>
    <time>2026-06-20T09:50:36Z</time>
   </trkpt>
   <trkpt lat="-3.1898300" lon="37.2794450">
    <ele>1659.9</ele>
    <time>2026-06-20T09:50:37Z</time>
   </trkpt>
   <trkpt lat="-3.1898300" lon="37.2794470">
    <ele>1659.9</ele>
    <time>2026-06-20T09:50:38Z</time>
   </trkpt>
   <trkpt lat="-3.1898300" lon="37.2794420">
    <ele>1659.9</ele>
    <time>2026-06-20T09:50:39Z</time>
   </trkpt>
   <trkpt lat="-3.1898450" lon="37.2794350">
    <ele>1659.9</ele>
    <time>2026-06-20T09:50:40Z</time>
   </trkpt>
   <trkpt lat="-3.1898710" lon="37.2794240">
    <ele>1659.9</ele>
    <time>2026-06-20T09:50:41Z</time>
   </trkpt>
   <trkpt lat="-3.1898710" lon="37.2794240">
    <ele>1659.9</ele>
    <time>2026-06-20T09:50:42Z</time>
   </trkpt>
   <trkpt lat="-3.1898710" lon="37.2794240">
    <ele>1659.9</ele>
    <time>2026-06-20T09:50:43Z</time>
   </trkpt>
   <trkpt lat="-3.1898710" lon="37.2794240">
    <ele>1659.9</ele>
    <time>2026-06-20T09:50:44Z</time>
   </trkpt>
   <trkpt lat="-3.1898710" lon="37.2794240">
    <ele>1659.9</ele>
    <time>2026-06-20T09:50:45Z</time>
   </trkpt>
   <trkpt lat="-3.1898710" lon="37.2794240">
    <ele>1659.9</ele>
    <time>2026-06-20T09:50:46Z</time>
   </trkpt>
   <trkpt lat="-3.1898710" lon="37.2794240">
    <ele>1659.9</ele>
    <time>2026-06-20T09:50:47Z</time>
   </trkpt>
   <trkpt lat="-3.1898710" lon="37.2794240">
    <ele>1659.9</ele>
    <time>2026-06-20T09:50:48Z</time>
   </trkpt>
   <trkpt lat="-3.1898710" lon="37.2794240">
    <ele>1659.9</ele>
    <time>2026-06-20T09:50:49Z</time>
   </trkpt>
   <trkpt lat="-3.1898710" lon="37.2794240">
    <ele>1659.9</ele>
    <time>2026-06-20T09:50:50Z</time>
   </trkpt>
   <trkpt lat="-3.1898710" lon="37.2794240">
    <ele>1659.9</ele>
    <time>2026-06-20T09:50:51Z</time>
   </trkpt>
   <trkpt lat="-3.1898710" lon="37.2794240">
    <ele>1659.9</ele>
    <time>2026-06-20T09:50:52Z</time>
   </trkpt>
   <trkpt lat="-3.1898710" lon="37.2794240">
    <ele>1659.9</ele>
    <time>2026-06-20T09:50:53Z</time>
   </trkpt>
   <trkpt lat="-3.1898710" lon="37.2794240">
    <ele>1659.9</ele>
    <time>2026-06-20T09:50:54Z</time>
   </trkpt>
   <trkpt lat="-3.1898710" lon="37.2794240">
    <ele>1659.9</ele>
    <time>2026-06-20T09:50:55Z</time>
   </trkpt>
   <trkpt lat="-3.1898710" lon="37.2794240">
    <ele>1659.9</ele>
    <time>2026-06-20T09:50:56Z</time>
   </trkpt>
   <trkpt lat="-3.1898710" lon="37.2794240">
    <ele>1659.9</ele>
    <time>2026-06-20T09:50:57Z</time>
   </trkpt>
   <trkpt lat="-3.1898780" lon="37.2794240">
    <ele>1659.8</ele>
    <time>2026-06-20T09:50:58Z</time>
   </trkpt>
   <trkpt lat="-3.1898790" lon="37.2794240">
    <ele>1659.8</ele>
    <time>2026-06-20T09:50:59Z</time>
   </trkpt>
   <trkpt lat="-3.1898800" lon="37.2794230">
    <ele>1659.8</ele>
    <time>2026-06-20T09:51:00Z</time>
   </trkpt>
   <trkpt lat="-3.1898810" lon="37.2794230">
    <ele>1659.8</ele>
    <time>2026-06-20T09:51:01Z</time>
   </trkpt>
   <trkpt lat="-3.1898820" lon="37.2794230">
    <ele>1659.8</ele>
    <time>2026-06-20T09:51:02Z</time>
   </trkpt>
   <trkpt lat="-3.1898830" lon="37.2794230">
    <ele>1659.8</ele>
    <time>2026-06-20T09:51:03Z</time>
   </trkpt>
   <trkpt lat="-3.1898840" lon="37.2794230">
    <ele>1659.8</ele>
    <time>2026-06-20T09:51:04Z</time>
   </trkpt>
   <trkpt lat="-3.1898850" lon="37.2794230">
    <ele>1659.8</ele>
    <time>2026-06-20T09:51:05Z</time>
   </trkpt>
   <trkpt lat="-3.1898860" lon="37.2794230">
    <ele>1659.8</ele>
    <time>2026-06-20T09:51:06Z</time>
   </trkpt>
   <trkpt lat="-3.1898870" lon="37.2794230">
    <ele>1659.8</ele>
    <time>2026-06-20T09:51:07Z</time>
   </trkpt>
   <trkpt lat="-3.1898880" lon="37.2794230">
    <ele>1659.8</ele>
    <time>2026-06-20T09:51:08Z</time>
   </trkpt>
   <trkpt lat="-3.1898890" lon="37.2794230">
    <ele>1659.8</ele>
    <time>2026-06-20T09:51:09Z</time>
   </trkpt>
   <trkpt lat="-3.1898890" lon="37.2794230">
    <ele>1659.8</ele>
    <time>2026-06-20T09:51:10Z</time>
   </trkpt>
   <trkpt lat="-3.1898890" lon="37.2794230">
    <ele>1659.8</ele>
    <time>2026-06-20T09:51:11Z</time>
   </trkpt>
   <trkpt lat="-3.1898890" lon="37.2794230">
    <ele>1659.8</ele>
    <time>2026-06-20T09:51:12Z</time>
   </trkpt>
   <trkpt lat="-3.1898890" lon="37.2794230">
    <ele>1659.8</ele>
    <time>2026-06-20T09:51:13Z</time>
   </trkpt>
   <trkpt lat="-3.1898890" lon="37.2794230">
    <ele>1659.8</ele>
    <time>2026-06-20T09:51:14Z</time>
   </trkpt>
   <trkpt lat="-3.1898890" lon="37.2794230">
    <ele>1659.8</ele>
    <time>2026-06-20T09:51:15Z</time>
   </trkpt>
   <trkpt lat="-3.1898890" lon="37.2794230">
    <ele>1659.8</ele>
    <time>2026-06-20T09:51:16Z</time>
   </trkpt>
   <trkpt lat="-3.1898890" lon="37.2794230">
    <ele>1659.8</ele>
    <time>2026-06-20T09:51:17Z</time>
   </trkpt>
   <trkpt lat="-3.1898890" lon="37.2794230">
    <ele>1659.8</ele>
    <time>2026-06-20T09:51:18Z</time>
   </trkpt>
   <trkpt lat="-3.1898890" lon="37.2794230">
    <ele>1659.8</ele>
    <time>2026-06-20T09:51:19Z</time>
   </trkpt>
   <trkpt lat="-3.1898890" lon="37.2794230">
    <ele>1659.8</ele>
    <time>2026-06-20T09:51:20Z</time>
   </trkpt>
   <trkpt lat="-3.1898890" lon="37.2794230">
    <ele>1659.8</ele>
    <time>2026-06-20T09:51:21Z</time>
   </trkpt>
   <trkpt lat="-3.1898890" lon="37.2794230">
    <ele>1659.8</ele>
    <time>2026-06-20T09:51:22Z</time>
   </trkpt>
   <trkpt lat="-3.1898890" lon="37.2794230">
    <ele>1659.8</ele>
    <time>2026-06-20T09:51:23Z</time>
   </trkpt>
   <trkpt lat="-3.1898890" lon="37.2794230">
    <ele>1659.8</ele>
    <time>2026-06-20T09:51:24Z</time>
   </trkpt>
   <trkpt lat="-3.1898890" lon="37.2794230">
    <ele>1659.8</ele>
    <time>2026-06-20T09:51:25Z</time>
   </trkpt>
   <trkpt lat="-3.1898910" lon="37.2794110">
    <ele>1659.8</ele>
    <time>2026-06-20T09:51:26Z</time>
   </trkpt>
   <trkpt lat="-3.1898950" lon="37.2794110">
    <ele>1659.8</ele>
    <time>2026-06-20T09:51:27Z</time>
   </trkpt>
   <trkpt lat="-3.1898940" lon="37.2794110">
    <ele>1659.8</ele>
    <time>2026-06-20T09:51:28Z</time>
   </trkpt>
   <trkpt lat="-3.1898890" lon="37.2794200">
    <ele>1659.8</ele>
    <time>2026-06-20T09:51:29Z</time>
   </trkpt>
   <trkpt lat="-3.1898870" lon="37.2794210">
    <ele>1659.8</ele>
    <time>2026-06-20T09:51:30Z</time>
   </trkpt>
   <trkpt lat="-3.1898870" lon="37.2794210">
    <ele>1659.8</ele>
    <time>2026-06-20T09:51:31Z</time>
   </trkpt>
   <trkpt lat="-3.1898830" lon="37.2794260">
    <ele>1659.8</ele>
    <time>2026-06-20T09:51:32Z</time>
   </trkpt>
   <trkpt lat="-3.1898800" lon="37.2794300">
    <ele>1659.8</ele>
    <time>2026-06-20T09:51:33Z</time>
   </trkpt>
   <trkpt lat="-3.1898800" lon="37.2794300">
    <ele>1659.8</ele>
    <time>2026-06-20T09:51:34Z</time>
   </trkpt>
   <trkpt lat="-3.1898800" lon="37.2794300">
    <ele>1659.8</ele>
    <time>2026-06-20T09:51:35Z</time>
   </trkpt>
   <trkpt lat="-3.1898800" lon="37.2794300">
    <ele>1659.8</ele>
    <time>2026-06-20T09:51:36Z</time>
   </trkpt>
   <trkpt lat="-3.1898670" lon="37.2794330">
    <ele>1659.8</ele>
    <time>2026-06-20T09:51:37Z</time>
   </trkpt>
   <trkpt lat="-3.1898660" lon="37.2794340">
    <ele>1659.8</ele>
    <time>2026-06-20T09:51:38Z</time>
   </trkpt>
   <trkpt lat="-3.1898640" lon="37.2794350">
    <ele>1659.8</ele>
    <time>2026-06-20T09:51:39Z</time>
   </trkpt>
   <trkpt lat="-3.1898620" lon="37.2794360">
    <ele>1659.8</ele>
    <time>2026-06-20T09:51:40Z</time>
   </trkpt>
   <trkpt lat="-3.1898620" lon="37.2794330">
    <ele>1659.8</ele>
    <time>2026-06-20T09:51:41Z</time>
   </trkpt>
   <trkpt lat="-3.1898620" lon="37.2794330">
    <ele>1659.8</ele>
    <time>2026-06-20T09:51:42Z</time>
   </trkpt>
   <trkpt lat="-3.1898620" lon="37.2794330">
    <ele>1659.8</ele>
    <time>2026-06-20T09:51:43Z</time>
   </trkpt>
   <trkpt lat="-3.1898650" lon="37.2794330">
    <ele>1659.8</ele>
    <time>2026-06-20T09:51:44Z</time>
   </trkpt>
   <trkpt lat="-3.1898650" lon="37.2794350">
    <ele>1659.8</ele>
    <time>2026-06-20T09:51:45Z</time>
   </trkpt>
   <trkpt lat="-3.1898630" lon="37.2794350">
    <ele>1659.8</ele>
    <time>2026-06-20T09:51:46Z</time>
   </trkpt>
   <trkpt lat="-3.1898630" lon="37.2794340">
    <ele>1659.8</ele>
    <time>2026-06-20T09:51:47Z</time>
   </trkpt>
   <trkpt lat="-3.1898630" lon="37.2794340">
    <ele>1659.8</ele>
    <time>2026-06-20T09:51:48Z</time>
   </trkpt>
   <trkpt lat="-3.1898670" lon="37.2794380">
    <ele>1659.8</ele>
    <time>2026-06-20T09:51:49Z</time>
   </trkpt>
   <trkpt lat="-3.1898710" lon="37.2794390">
    <ele>1659.8</ele>
    <time>2026-06-20T09:51:50Z</time>
   </trkpt>
   <trkpt lat="-3.1898680" lon="37.2794380">
    <ele>1659.8</ele>
    <time>2026-06-20T09:51:51Z</time>
   </trkpt>
   <trkpt lat="-3.1898680" lon="37.2794360">
    <ele>1659.8</ele>
    <time>2026-06-20T09:51:52Z</time>
   </trkpt>
   <trkpt lat="-3.1898670" lon="37.2794370">
    <ele>1659.8</ele>
    <time>2026-06-20T09:51:53Z</time>
   </trkpt>
   <trkpt lat="-3.1898680" lon="37.2794380">
    <ele>1659.8</ele>
    <time>2026-06-20T09:51:54Z</time>
   </trkpt>
   <trkpt lat="-3.1898690" lon="37.2794380">
    <ele>1659.8</ele>
    <time>2026-06-20T09:51:55Z</time>
   </trkpt>
   <trkpt lat="-3.1898700" lon="37.2794370">
    <ele>1659.8</ele>
    <time>2026-06-20T09:51:56Z</time>
   </trkpt>
   <trkpt lat="-3.1898690" lon="37.2794370">
    <ele>1659.8</ele>
    <time>2026-06-20T09:51:57Z</time>
   </trkpt>
   <trkpt lat="-3.1898680" lon="37.2794370">
    <ele>1659.8</ele>
    <time>2026-06-20T09:51:58Z</time>
   </trkpt>
   <trkpt lat="-3.1898650" lon="37.2794370">
    <ele>1659.8</ele>
    <time>2026-06-20T09:51:59Z</time>
   </trkpt>
   <trkpt lat="-3.1898650" lon="37.2794350">
    <ele>1659.8</ele>
    <time>2026-06-20T09:52:00Z</time>
   </trkpt>
   <trkpt lat="-3.1898650" lon="37.2794340">
    <ele>1659.8</ele>
    <time>2026-06-20T09:52:01Z</time>
   </trkpt>
   <trkpt lat="-3.1898690" lon="37.2794360">
    <ele>1659.8</ele>
    <time>2026-06-20T09:52:02Z</time>
   </trkpt>
   <trkpt lat="-3.1898680" lon="37.2794360">
    <ele>1659.8</ele>
    <time>2026-06-20T09:52:03Z</time>
   </trkpt>
   <trkpt lat="-3.1898720" lon="37.2794320">
    <ele>1659.8</ele>
    <time>2026-06-20T09:52:04Z</time>
   </trkpt>
   <trkpt lat="-3.1898710" lon="37.2794320">
    <ele>1659.8</ele>
    <time>2026-06-20T09:52:05Z</time>
   </trkpt>
   <trkpt lat="-3.1898720" lon="37.2794330">
    <ele>1659.8</ele>
    <time>2026-06-20T09:52:06Z</time>
   </trkpt>
   <trkpt lat="-3.1898710" lon="37.2794320">
    <ele>1659.8</ele>
    <time>2026-06-20T09:52:07Z</time>
   </trkpt>
   <trkpt lat="-3.1898720" lon="37.2794360">
    <ele>1659.8</ele>
    <time>2026-06-20T09:52:08Z</time>
   </trkpt>
   <trkpt lat="-3.1898690" lon="37.2794380">
    <ele>1659.8</ele>
    <time>2026-06-20T09:52:09Z</time>
   </trkpt>
   <trkpt lat="-3.1898670" lon="37.2794360">
    <ele>1659.8</ele>
    <time>2026-06-20T09:52:10Z</time>
   </trkpt>
   <trkpt lat="-3.1898710" lon="37.2794360">
    <ele>1659.8</ele>
    <time>2026-06-20T09:52:11Z</time>
   </trkpt>
   <trkpt lat="-3.1898640" lon="37.2794380">
    <ele>1659.8</ele>
    <time>2026-06-20T09:52:12Z</time>
   </trkpt>
   <trkpt lat="-3.1898610" lon="37.2794390">
    <ele>1659.8</ele>
    <time>2026-06-20T09:52:13Z</time>
   </trkpt>
   <trkpt lat="-3.1898580" lon="37.2794380">
    <ele>1659.8</ele>
    <time>2026-06-20T09:52:14Z</time>
   </trkpt>
   <trkpt lat="-3.1898560" lon="37.2794380">
    <ele>1659.8</ele>
    <time>2026-06-20T09:52:15Z</time>
   </trkpt>
   <trkpt lat="-3.1898560" lon="37.2794350">
    <ele>1659.8</ele>
    <time>2026-06-20T09:52:16Z</time>
   </trkpt>
   <trkpt lat="-3.1898610" lon="37.2794330">
    <ele>1659.8</ele>
    <time>2026-06-20T09:52:17Z</time>
   </trkpt>
   <trkpt lat="-3.1898580" lon="37.2794320">
    <ele>1659.8</ele>
    <time>2026-06-20T09:52:18Z</time>
   </trkpt>
   <trkpt lat="-3.1898560" lon="37.2794330">
    <ele>1659.8</ele>
    <time>2026-06-20T09:52:19Z</time>
   </trkpt>
   <trkpt lat="-3.1898510" lon="37.2794280">
    <ele>1659.8</ele>
    <time>2026-06-20T09:52:20Z</time>
   </trkpt>
   <trkpt lat="-3.1898490" lon="37.2794270">
    <ele>1659.8</ele>
    <time>2026-06-20T09:52:21Z</time>
   </trkpt>
   <trkpt lat="-3.1898470" lon="37.2794280">
    <ele>1659.8</ele>
    <time>2026-06-20T09:52:22Z</time>
   </trkpt>
   <trkpt lat="-3.1898470" lon="37.2794280">
    <ele>1659.8</ele>
    <time>2026-06-20T09:52:23Z</time>
   </trkpt>
   <trkpt lat="-3.1898470" lon="37.2794280">
    <ele>1659.8</ele>
    <time>2026-06-20T09:52:24Z</time>
   </trkpt>
   <trkpt lat="-3.1898520" lon="37.2794270">
    <ele>1659.7</ele>
    <time>2026-06-20T09:52:25Z</time>
   </trkpt>
   <trkpt lat="-3.1898530" lon="37.2794310">
    <ele>1659.7</ele>
    <time>2026-06-20T09:52:26Z</time>
   </trkpt>
   <trkpt lat="-3.1898540" lon="37.2794300">
    <ele>1659.7</ele>
    <time>2026-06-20T09:52:27Z</time>
   </trkpt>
   <trkpt lat="-3.1898550" lon="37.2794290">
    <ele>1659.7</ele>
    <time>2026-06-20T09:52:28Z</time>
   </trkpt>
   <trkpt lat="-3.1898570" lon="37.2794300">
    <ele>1659.7</ele>
    <time>2026-06-20T09:52:29Z</time>
   </trkpt>
   <trkpt lat="-3.1898570" lon="37.2794300">
    <ele>1659.7</ele>
    <time>2026-06-20T09:52:30Z</time>
   </trkpt>
   <trkpt lat="-3.1898540" lon="37.2794310">
    <ele>1659.7</ele>
    <time>2026-06-20T09:52:31Z</time>
   </trkpt>
   <trkpt lat="-3.1898530" lon="37.2794320">
    <ele>1659.7</ele>
    <time>2026-06-20T09:52:32Z</time>
   </trkpt>
   <trkpt lat="-3.1898560" lon="37.2794360">
    <ele>1659.7</ele>
    <time>2026-06-20T09:52:33Z</time>
   </trkpt>
   <trkpt lat="-3.1898500" lon="37.2794340">
    <ele>1659.7</ele>
    <time>2026-06-20T09:52:34Z</time>
   </trkpt>
   <trkpt lat="-3.1898530" lon="37.2794340">
    <ele>1659.7</ele>
    <time>2026-06-20T09:52:35Z</time>
   </trkpt>
   <trkpt lat="-3.1898560" lon="37.2794340">
    <ele>1659.7</ele>
    <time>2026-06-20T09:52:36Z</time>
   </trkpt>
   <trkpt lat="-3.1898560" lon="37.2794340">
    <ele>1659.7</ele>
    <time>2026-06-20T09:52:37Z</time>
   </trkpt>
   <trkpt lat="-3.1898610" lon="37.2794350">
    <ele>1659.7</ele>
    <time>2026-06-20T09:52:38Z</time>
   </trkpt>
   <trkpt lat="-3.1898570" lon="37.2794340">
    <ele>1659.7</ele>
    <time>2026-06-20T09:52:39Z</time>
   </trkpt>
   <trkpt lat="-3.1898560" lon="37.2794330">
    <ele>1659.7</ele>
    <time>2026-06-20T09:52:40Z</time>
   </trkpt>
   <trkpt lat="-3.1898530" lon="37.2794330">
    <ele>1659.7</ele>
    <time>2026-06-20T09:52:41Z</time>
   </trkpt>
   <trkpt lat="-3.1898470" lon="37.2794320">
    <ele>1659.7</ele>
    <time>2026-06-20T09:52:42Z</time>
   </trkpt>
   <trkpt lat="-3.1898460" lon="37.2794260">
    <ele>1659.7</ele>
    <time>2026-06-20T09:52:43Z</time>
   </trkpt>
   <trkpt lat="-3.1898460" lon="37.2794250">
    <ele>1659.7</ele>
    <time>2026-06-20T09:52:44Z</time>
   </trkpt>
   <trkpt lat="-3.1898460" lon="37.2794250">
    <ele>1659.7</ele>
    <time>2026-06-20T09:52:45Z</time>
   </trkpt>
   <trkpt lat="-3.1898460" lon="37.2794250">
    <ele>1659.7</ele>
    <time>2026-06-20T09:52:46Z</time>
   </trkpt>
   <trkpt lat="-3.1898460" lon="37.2794250">
    <ele>1659.7</ele>
    <time>2026-06-20T09:52:47Z</time>
   </trkpt>
   <trkpt lat="-3.1898460" lon="37.2794250">
    <ele>1659.7</ele>
    <time>2026-06-20T09:52:48Z</time>
   </trkpt>
   <trkpt lat="-3.1898410" lon="37.2794200">
    <ele>1659.7</ele>
    <time>2026-06-20T09:52:49Z</time>
   </trkpt>
   <trkpt lat="-3.1898390" lon="37.2794190">
    <ele>1659.7</ele>
    <time>2026-06-20T09:52:50Z</time>
   </trkpt>
   <trkpt lat="-3.1898390" lon="37.2794190">
    <ele>1659.7</ele>
    <time>2026-06-20T09:52:51Z</time>
   </trkpt>
   <trkpt lat="-3.1898390" lon="37.2794190">
    <ele>1659.7</ele>
    <time>2026-06-20T09:52:52Z</time>
   </trkpt>
   <trkpt lat="-3.1898400" lon="37.2794270">
    <ele>1659.7</ele>
    <time>2026-06-20T09:52:53Z</time>
   </trkpt>
   <trkpt lat="-3.1898400" lon="37.2794270">
    <ele>1659.7</ele>
    <time>2026-06-20T09:52:54Z</time>
   </trkpt>
   <trkpt lat="-3.1898400" lon="37.2794270">
    <ele>1659.7</ele>
    <time>2026-06-20T09:52:55Z</time>
   </trkpt>
   <trkpt lat="-3.1898400" lon="37.2794270">
    <ele>1659.7</ele>
    <time>2026-06-20T09:52:56Z</time>
   </trkpt>
   <trkpt lat="-3.1898400" lon="37.2794270">
    <ele>1659.7</ele>
    <time>2026-06-20T09:52:57Z</time>
   </trkpt>
   <trkpt lat="-3.1898400" lon="37.2794270">
    <ele>1659.7</ele>
    <time>2026-06-20T09:52:58Z</time>
   </trkpt>
   <trkpt lat="-3.1898400" lon="37.2794270">
    <ele>1659.7</ele>
    <time>2026-06-20T09:52:59Z</time>
   </trkpt>
   <trkpt lat="-3.1898400" lon="37.2794270">
    <ele>1659.7</ele>
    <time>2026-06-20T09:53:00Z</time>
   </trkpt>
   <trkpt lat="-3.1898360" lon="37.2794360">
    <ele>1659.7</ele>
    <time>2026-06-20T09:53:01Z</time>
   </trkpt>
   <trkpt lat="-3.1898360" lon="37.2794350">
    <ele>1659.7</ele>
    <time>2026-06-20T09:53:02Z</time>
   </trkpt>
   <trkpt lat="-3.1898360" lon="37.2794360">
    <ele>1659.7</ele>
    <time>2026-06-20T09:53:03Z</time>
   </trkpt>
   <trkpt lat="-3.1898380" lon="37.2794380">
    <ele>1659.7</ele>
    <time>2026-06-20T09:53:04Z</time>
   </trkpt>
   <trkpt lat="-3.1898400" lon="37.2794310">
    <ele>1659.7</ele>
    <time>2026-06-20T09:53:05Z</time>
   </trkpt>
   <trkpt lat="-3.1898460" lon="37.2794300">
    <ele>1659.7</ele>
    <time>2026-06-20T09:53:06Z</time>
   </trkpt>
   <trkpt lat="-3.1898490" lon="37.2794310">
    <ele>1659.7</ele>
    <time>2026-06-20T09:53:07Z</time>
   </trkpt>
   <trkpt lat="-3.1898470" lon="37.2794280">
    <ele>1659.7</ele>
    <time>2026-06-20T09:53:08Z</time>
   </trkpt>
   <trkpt lat="-3.1898460" lon="37.2794270">
    <ele>1659.7</ele>
    <time>2026-06-20T09:53:09Z</time>
   </trkpt>
   <trkpt lat="-3.1898480" lon="37.2794300">
    <ele>1659.7</ele>
    <time>2026-06-20T09:53:10Z</time>
   </trkpt>
   <trkpt lat="-3.1898530" lon="37.2794300">
    <ele>1659.7</ele>
    <time>2026-06-20T09:53:11Z</time>
   </trkpt>
   <trkpt lat="-3.1898520" lon="37.2794310">
    <ele>1659.7</ele>
    <time>2026-06-20T09:53:12Z</time>
   </trkpt>
   <trkpt lat="-3.1898520" lon="37.2794320">
    <ele>1659.7</ele>
    <time>2026-06-20T09:53:13Z</time>
   </trkpt>
   <trkpt lat="-3.1898530" lon="37.2794300">
    <ele>1659.7</ele>
    <time>2026-06-20T09:53:14Z</time>
   </trkpt>
   <trkpt lat="-3.1898540" lon="37.2794300">
    <ele>1659.7</ele>
    <time>2026-06-20T09:53:15Z</time>
   </trkpt>
   <trkpt lat="-3.1898540" lon="37.2794300">
    <ele>1659.7</ele>
    <time>2026-06-20T09:53:16Z</time>
   </trkpt>
   <trkpt lat="-3.1898590" lon="37.2794290">
    <ele>1659.7</ele>
    <time>2026-06-20T09:53:17Z</time>
   </trkpt>
   <trkpt lat="-3.1898580" lon="37.2794280">
    <ele>1659.7</ele>
    <time>2026-06-20T09:53:18Z</time>
   </trkpt>
   <trkpt lat="-3.1898560" lon="37.2794250">
    <ele>1659.7</ele>
    <time>2026-06-20T09:53:19Z</time>
   </trkpt>
   <trkpt lat="-3.1898580" lon="37.2794240">
    <ele>1659.7</ele>
    <time>2026-06-20T09:53:20Z</time>
   </trkpt>
   <trkpt lat="-3.1898550" lon="37.2794200">
    <ele>1659.7</ele>
    <time>2026-06-20T09:53:21Z</time>
   </trkpt>
   <trkpt lat="-3.1898590" lon="37.2794220">
    <ele>1659.7</ele>
    <time>2026-06-20T09:53:22Z</time>
   </trkpt>
   <trkpt lat="-3.1898660" lon="37.2794200">
    <ele>1659.7</ele>
    <time>2026-06-20T09:53:23Z</time>
   </trkpt>
   <trkpt lat="-3.1898640" lon="37.2794200">
    <ele>1659.7</ele>
    <time>2026-06-20T09:53:24Z</time>
   </trkpt>
   <trkpt lat="-3.1898610" lon="37.2794190">
    <ele>1659.7</ele>
    <time>2026-06-20T09:53:25Z</time>
   </trkpt>
   <trkpt lat="-3.1898640" lon="37.2794190">
    <ele>1659.7</ele>
    <time>2026-06-20T09:53:26Z</time>
   </trkpt>
   <trkpt lat="-3.1898640" lon="37.2794160">
    <ele>1659.7</ele>
    <time>2026-06-20T09:53:27Z</time>
   </trkpt>
   <trkpt lat="-3.1898620" lon="37.2794170">
    <ele>1659.7</ele>
    <time>2026-06-20T09:53:28Z</time>
   </trkpt>
   <trkpt lat="-3.1898650" lon="37.2794170">
    <ele>1659.7</ele>
    <time>2026-06-20T09:53:29Z</time>
   </trkpt>
   <trkpt lat="-3.1898640" lon="37.2794160">
    <ele>1659.7</ele>
    <time>2026-06-20T09:53:30Z</time>
   </trkpt>
   <trkpt lat="-3.1898650" lon="37.2794150">
    <ele>1659.7</ele>
    <time>2026-06-20T09:53:31Z</time>
   </trkpt>
   <trkpt lat="-3.1898660" lon="37.2794140">
    <ele>1659.7</ele>
    <time>2026-06-20T09:53:32Z</time>
   </trkpt>
   <trkpt lat="-3.1898650" lon="37.2794130">
    <ele>1659.7</ele>
    <time>2026-06-20T09:53:33Z</time>
   </trkpt>
   <trkpt lat="-3.1898650" lon="37.2794130">
    <ele>1659.7</ele>
    <time>2026-06-20T09:53:34Z</time>
   </trkpt>
   <trkpt lat="-3.1898650" lon="37.2794130">
    <ele>1659.7</ele>
    <time>2026-06-20T09:53:35Z</time>
   </trkpt>
   <trkpt lat="-3.1898650" lon="37.2794130">
    <ele>1659.7</ele>
    <time>2026-06-20T09:53:36Z</time>
   </trkpt>
   <trkpt lat="-3.1898650" lon="37.2794130">
    <ele>1659.7</ele>
    <time>2026-06-20T09:53:37Z</time>
   </trkpt>
   <trkpt lat="-3.1898710" lon="37.2794150">
    <ele>1659.7</ele>
    <time>2026-06-20T09:53:38Z</time>
   </trkpt>
   <trkpt lat="-3.1898700" lon="37.2794170">
    <ele>1659.7</ele>
    <time>2026-06-20T09:53:39Z</time>
   </trkpt>
   <trkpt lat="-3.1898670" lon="37.2794170">
    <ele>1659.7</ele>
    <time>2026-06-20T09:53:40Z</time>
   </trkpt>
   <trkpt lat="-3.1898630" lon="37.2794170">
    <ele>1659.6</ele>
    <time>2026-06-20T09:53:41Z</time>
   </trkpt>
   <trkpt lat="-3.1898590" lon="37.2794160">
    <ele>1659.6</ele>
    <time>2026-06-20T09:53:42Z</time>
   </trkpt>
   <trkpt lat="-3.1898550" lon="37.2794140">
    <ele>1659.6</ele>
    <time>2026-06-20T09:53:43Z</time>
   </trkpt>
   <trkpt lat="-3.1898550" lon="37.2794140">
    <ele>1659.6</ele>
    <time>2026-06-20T09:53:44Z</time>
   </trkpt>
   <trkpt lat="-3.1898550" lon="37.2794120">
    <ele>1659.6</ele>
    <time>2026-06-20T09:53:45Z</time>
   </trkpt>
   <trkpt lat="-3.1898550" lon="37.2794120">
    <ele>1659.6</ele>
    <time>2026-06-20T09:53:46Z</time>
   </trkpt>
   <trkpt lat="-3.1898520" lon="37.2794150">
    <ele>1659.6</ele>
    <time>2026-06-20T09:53:47Z</time>
   </trkpt>
   <trkpt lat="-3.1898490" lon="37.2794190">
    <ele>1659.6</ele>
    <time>2026-06-20T09:53:48Z</time>
   </trkpt>
   <trkpt lat="-3.1898450" lon="37.2794190">
    <ele>1659.6</ele>
    <time>2026-06-20T09:53:49Z</time>
   </trkpt>
   <trkpt lat="-3.1898490" lon="37.2794220">
    <ele>1659.6</ele>
    <time>2026-06-20T09:53:50Z</time>
   </trkpt>
   <trkpt lat="-3.1898530" lon="37.2794210">
    <ele>1659.6</ele>
    <time>2026-06-20T09:53:51Z</time>
   </trkpt>
   <trkpt lat="-3.1898510" lon="37.2794220">
    <ele>1659.6</ele>
    <time>2026-06-20T09:53:52Z</time>
   </trkpt>
   <trkpt lat="-3.1898460" lon="37.2794190">
    <ele>1659.6</ele>
    <time>2026-06-20T09:53:53Z</time>
   </trkpt>
   <trkpt lat="-3.1898510" lon="37.2794190">
    <ele>1659.6</ele>
    <time>2026-06-20T09:53:54Z</time>
   </trkpt>
   <trkpt lat="-3.1898490" lon="37.2794180">
    <ele>1659.6</ele>
    <time>2026-06-20T09:53:55Z</time>
   </trkpt>
   <trkpt lat="-3.1898460" lon="37.2794190">
    <ele>1659.6</ele>
    <time>2026-06-20T09:53:56Z</time>
   </trkpt>
   <trkpt lat="-3.1898440" lon="37.2794210">
    <ele>1659.6</ele>
    <time>2026-06-20T09:53:57Z</time>
   </trkpt>
   <trkpt lat="-3.1898450" lon="37.2794200">
    <ele>1659.6</ele>
    <time>2026-06-20T09:53:58Z</time>
   </trkpt>
   <trkpt lat="-3.1898460" lon="37.2794210">
    <ele>1659.6</ele>
    <time>2026-06-20T09:53:59Z</time>
   </trkpt>
   <trkpt lat="-3.1898490" lon="37.2794230">
    <ele>1659.6</ele>
    <time>2026-06-20T09:54:00Z</time>
   </trkpt>
   <trkpt lat="-3.1898450" lon="37.2794240">
    <ele>1659.6</ele>
    <time>2026-06-20T09:54:01Z</time>
   </trkpt>
   <trkpt lat="-3.1898420" lon="37.2794240">
    <ele>1659.6</ele>
    <time>2026-06-20T09:54:02Z</time>
   </trkpt>
   <trkpt lat="-3.1898440" lon="37.2794250">
    <ele>1659.6</ele>
    <time>2026-06-20T09:54:03Z</time>
   </trkpt>
   <trkpt lat="-3.1898440" lon="37.2794270">
    <ele>1659.6</ele>
    <time>2026-06-20T09:54:04Z</time>
   </trkpt>
   <trkpt lat="-3.1898420" lon="37.2794270">
    <ele>1659.6</ele>
    <time>2026-06-20T09:54:05Z</time>
   </trkpt>
   <trkpt lat="-3.1898420" lon="37.2794270">
    <ele>1659.6</ele>
    <time>2026-06-20T09:54:06Z</time>
   </trkpt>
   <trkpt lat="-3.1898420" lon="37.2794290">
    <ele>1659.6</ele>
    <time>2026-06-20T09:54:07Z</time>
   </trkpt>
   <trkpt lat="-3.1898410" lon="37.2794300">
    <ele>1659.6</ele>
    <time>2026-06-20T09:54:08Z</time>
   </trkpt>
   <trkpt lat="-3.1898410" lon="37.2794290">
    <ele>1659.6</ele>
    <time>2026-06-20T09:54:09Z</time>
   </trkpt>
   <trkpt lat="-3.1898410" lon="37.2794290">
    <ele>1659.6</ele>
    <time>2026-06-20T09:54:10Z</time>
   </trkpt>
   <trkpt lat="-3.1898440" lon="37.2794300">
    <ele>1659.6</ele>
    <time>2026-06-20T09:54:11Z</time>
   </trkpt>
   <trkpt lat="-3.1898450" lon="37.2794310">
    <ele>1659.6</ele>
    <time>2026-06-20T09:54:12Z</time>
   </trkpt>
   <trkpt lat="-3.1898440" lon="37.2794290">
    <ele>1659.6</ele>
    <time>2026-06-20T09:54:13Z</time>
   </trkpt>
   <trkpt lat="-3.1898440" lon="37.2794280">
    <ele>1659.6</ele>
    <time>2026-06-20T09:54:14Z</time>
   </trkpt>
   <trkpt lat="-3.1898440" lon="37.2794280">
    <ele>1659.6</ele>
    <time>2026-06-20T09:54:15Z</time>
   </trkpt>
   <trkpt lat="-3.1898390" lon="37.2794300">
    <ele>1659.6</ele>
    <time>2026-06-20T09:54:16Z</time>
   </trkpt>
   <trkpt lat="-3.1898390" lon="37.2794300">
    <ele>1659.6</ele>
    <time>2026-06-20T09:54:17Z</time>
   </trkpt>
   <trkpt lat="-3.1898390" lon="37.2794300">
    <ele>1659.6</ele>
    <time>2026-06-20T09:54:18Z</time>
   </trkpt>
   <trkpt lat="-3.1898390" lon="37.2794300">
    <ele>1659.6</ele>
    <time>2026-06-20T09:54:19Z</time>
   </trkpt>
   <trkpt lat="-3.1898390" lon="37.2794300">
    <ele>1659.6</ele>
    <time>2026-06-20T09:54:20Z</time>
   </trkpt>
   <trkpt lat="-3.1898310" lon="37.2794320">
    <ele>1659.6</ele>
    <time>2026-06-20T09:54:21Z</time>
   </trkpt>
   <trkpt lat="-3.1898310" lon="37.2794340">
    <ele>1659.6</ele>
    <time>2026-06-20T09:54:22Z</time>
   </trkpt>
   <trkpt lat="-3.1898340" lon="37.2794350">
    <ele>1659.6</ele>
    <time>2026-06-20T09:54:23Z</time>
   </trkpt>
   <trkpt lat="-3.1898330" lon="37.2794350">
    <ele>1659.6</ele>
    <time>2026-06-20T09:54:24Z</time>
   </trkpt>
   <trkpt lat="-3.1898320" lon="37.2794360">
    <ele>1659.6</ele>
    <time>2026-06-20T09:54:25Z</time>
   </trkpt>
   <trkpt lat="-3.1898350" lon="37.2794350">
    <ele>1659.6</ele>
    <time>2026-06-20T09:54:26Z</time>
   </trkpt>
   <trkpt lat="-3.1898360" lon="37.2794340">
    <ele>1659.6</ele>
    <time>2026-06-20T09:54:27Z</time>
   </trkpt>
   <trkpt lat="-3.1898370" lon="37.2794340">
    <ele>1659.6</ele>
    <time>2026-06-20T09:54:28Z</time>
   </trkpt>
   <trkpt lat="-3.1898380" lon="37.2794320">
    <ele>1659.6</ele>
    <time>2026-06-20T09:54:29Z</time>
   </trkpt>
   <trkpt lat="-3.1898370" lon="37.2794330">
    <ele>1659.6</ele>
    <time>2026-06-20T09:54:30Z</time>
   </trkpt>
   <trkpt lat="-3.1898360" lon="37.2794310">
    <ele>1659.6</ele>
    <time>2026-06-20T09:54:31Z</time>
   </trkpt>
   <trkpt lat="-3.1898360" lon="37.2794300">
    <ele>1659.6</ele>
    <time>2026-06-20T09:54:32Z</time>
   </trkpt>
   <trkpt lat="-3.1898360" lon="37.2794300">
    <ele>1659.6</ele>
    <time>2026-06-20T09:54:33Z</time>
   </trkpt>
   <trkpt lat="-3.1898370" lon="37.2794310">
    <ele>1659.6</ele>
    <time>2026-06-20T09:54:34Z</time>
   </trkpt>
   <trkpt lat="-3.1898370" lon="37.2794280">
    <ele>1659.6</ele>
    <time>2026-06-20T09:54:35Z</time>
   </trkpt>
   <trkpt lat="-3.1898360" lon="37.2794250">
    <ele>1659.6</ele>
    <time>2026-06-20T09:54:36Z</time>
   </trkpt>
   <trkpt lat="-3.1898350" lon="37.2794230">
    <ele>1659.6</ele>
    <time>2026-06-20T09:54:37Z</time>
   </trkpt>
   <trkpt lat="-3.1898330" lon="37.2794210">
    <ele>1659.6</ele>
    <time>2026-06-20T09:54:38Z</time>
   </trkpt>
   <trkpt lat="-3.1898330" lon="37.2794190">
    <ele>1659.6</ele>
    <time>2026-06-20T09:54:39Z</time>
   </trkpt>
   <trkpt lat="-3.1898340" lon="37.2794180">
    <ele>1659.6</ele>
    <time>2026-06-20T09:54:40Z</time>
   </trkpt>
   <trkpt lat="-3.1898330" lon="37.2794170">
    <ele>1659.6</ele>
    <time>2026-06-20T09:54:41Z</time>
   </trkpt>
   <trkpt lat="-3.1898330" lon="37.2794170">
    <ele>1659.6</ele>
    <time>2026-06-20T09:54:42Z</time>
   </trkpt>
   <trkpt lat="-3.1898370" lon="37.2794150">
    <ele>1659.6</ele>
    <time>2026-06-20T09:54:43Z</time>
   </trkpt>
   <trkpt lat="-3.1898360" lon="37.2794150">
    <ele>1659.6</ele>
    <time>2026-06-20T09:54:44Z</time>
   </trkpt>
   <trkpt lat="-3.1898410" lon="37.2794110">
    <ele>1659.6</ele>
    <time>2026-06-20T09:54:45Z</time>
   </trkpt>
   <trkpt lat="-3.1898420" lon="37.2794110">
    <ele>1659.6</ele>
    <time>2026-06-20T09:54:46Z</time>
   </trkpt>
   <trkpt lat="-3.1898410" lon="37.2794100">
    <ele>1659.6</ele>
    <time>2026-06-20T09:54:47Z</time>
   </trkpt>
   <trkpt lat="-3.1898400" lon="37.2794100">
    <ele>1659.6</ele>
    <time>2026-06-20T09:54:48Z</time>
   </trkpt>
   <trkpt lat="-3.1898400" lon="37.2794100">
    <ele>1659.6</ele>
    <time>2026-06-20T09:54:49Z</time>
   </trkpt>
   <trkpt lat="-3.1898400" lon="37.2794100">
    <ele>1659.6</ele>
    <time>2026-06-20T09:54:50Z</time>
   </trkpt>
   <trkpt lat="-3.1898400" lon="37.2794100">
    <ele>1659.6</ele>
    <time>2026-06-20T09:54:51Z</time>
   </trkpt>
   <trkpt lat="-3.1898400" lon="37.2794100">
    <ele>1659.6</ele>
    <time>2026-06-20T09:54:52Z</time>
   </trkpt>
   <trkpt lat="-3.1898370" lon="37.2794120">
    <ele>1659.6</ele>
    <time>2026-06-20T09:54:53Z</time>
   </trkpt>
   <trkpt lat="-3.1898360" lon="37.2794120">
    <ele>1659.6</ele>
    <time>2026-06-20T09:54:54Z</time>
   </trkpt>
   <trkpt lat="-3.1898380" lon="37.2794120">
    <ele>1659.6</ele>
    <time>2026-06-20T09:54:55Z</time>
   </trkpt>
   <trkpt lat="-3.1898370" lon="37.2794120">
    <ele>1659.6</ele>
    <time>2026-06-20T09:54:56Z</time>
   </trkpt>
   <trkpt lat="-3.1898390" lon="37.2794130">
    <ele>1659.6</ele>
    <time>2026-06-20T09:54:57Z</time>
   </trkpt>
   <trkpt lat="-3.1898380" lon="37.2794130">
    <ele>1659.6</ele>
    <time>2026-06-20T09:54:58Z</time>
   </trkpt>
   <trkpt lat="-3.1898400" lon="37.2794100">
    <ele>1659.6</ele>
    <time>2026-06-20T09:54:59Z</time>
   </trkpt>
   <trkpt lat="-3.1898430" lon="37.2794100">
    <ele>1659.6</ele>
    <time>2026-06-20T09:55:00Z</time>
   </trkpt>
   <trkpt lat="-3.1898430" lon="37.2794090">
    <ele>1659.6</ele>
    <time>2026-06-20T09:55:01Z</time>
   </trkpt>
   <trkpt lat="-3.1898430" lon="37.2794090">
    <ele>1659.6</ele>
    <time>2026-06-20T09:55:02Z</time>
   </trkpt>
   <trkpt lat="-3.1898430" lon="37.2794080">
    <ele>1659.6</ele>
    <time>2026-06-20T09:55:03Z</time>
   </trkpt>
   <trkpt lat="-3.1898420" lon="37.2794070">
    <ele>1659.6</ele>
    <time>2026-06-20T09:55:04Z</time>
   </trkpt>
   <trkpt lat="-3.1898420" lon="37.2794060">
    <ele>1659.6</ele>
    <time>2026-06-20T09:55:05Z</time>
   </trkpt>
   <trkpt lat="-3.1898410" lon="37.2794050">
    <ele>1659.6</ele>
    <time>2026-06-20T09:55:06Z</time>
   </trkpt>
   <trkpt lat="-3.1898420" lon="37.2794040">
    <ele>1659.6</ele>
    <time>2026-06-20T09:55:07Z</time>
   </trkpt>
   <trkpt lat="-3.1898430" lon="37.2794040">
    <ele>1659.6</ele>
    <time>2026-06-20T09:55:08Z</time>
   </trkpt>
   <trkpt lat="-3.1898440" lon="37.2794010">
    <ele>1659.6</ele>
    <time>2026-06-20T09:55:09Z</time>
   </trkpt>
   <trkpt lat="-3.1898450" lon="37.2794010">
    <ele>1659.6</ele>
    <time>2026-06-20T09:55:10Z</time>
   </trkpt>
   <trkpt lat="-3.1898450" lon="37.2794000">
    <ele>1659.6</ele>
    <time>2026-06-20T09:55:11Z</time>
   </trkpt>
   <trkpt lat="-3.1898460" lon="37.2793990">
    <ele>1659.6</ele>
    <time>2026-06-20T09:55:12Z</time>
   </trkpt>
   <trkpt lat="-3.1898460" lon="37.2793990">
    <ele>1659.6</ele>
    <time>2026-06-20T09:55:13Z</time>
   </trkpt>
   <trkpt lat="-3.1898460" lon="37.2793970">
    <ele>1659.6</ele>
    <time>2026-06-20T09:55:14Z</time>
   </trkpt>
   <trkpt lat="-3.1898500" lon="37.2793960">
    <ele>1659.5</ele>
    <time>2026-06-20T09:55:15Z</time>
   </trkpt>
   <trkpt lat="-3.1898500" lon="37.2793940">
    <ele>1659.5</ele>
    <time>2026-06-20T09:55:16Z</time>
   </trkpt>
   <trkpt lat="-3.1898500" lon="37.2793940">
    <ele>1659.5</ele>
    <time>2026-06-20T09:55:17Z</time>
   </trkpt>
   <trkpt lat="-3.1898500" lon="37.2793940">
    <ele>1659.5</ele>
    <time>2026-06-20T09:55:18Z</time>
   </trkpt>
   <trkpt lat="-3.1898480" lon="37.2793910">
    <ele>1659.5</ele>
    <time>2026-06-20T09:55:19Z</time>
   </trkpt>
   <trkpt lat="-3.1898490" lon="37.2793900">
    <ele>1659.5</ele>
    <time>2026-06-20T09:55:20Z</time>
   </trkpt>
   <trkpt lat="-3.1898490" lon="37.2793900">
    <ele>1659.5</ele>
    <time>2026-06-20T09:55:21Z</time>
   </trkpt>
   <trkpt lat="-3.1898480" lon="37.2793900">
    <ele>1659.5</ele>
    <time>2026-06-20T09:55:22Z</time>
   </trkpt>
   <trkpt lat="-3.1898500" lon="37.2793880">
    <ele>1659.5</ele>
    <time>2026-06-20T09:55:23Z</time>
   </trkpt>
   <trkpt lat="-3.1898500" lon="37.2793880">
    <ele>1659.5</ele>
    <time>2026-06-20T09:55:24Z</time>
   </trkpt>
   <trkpt lat="-3.1898500" lon="37.2793860">
    <ele>1659.5</ele>
    <time>2026-06-20T09:55:25Z</time>
   </trkpt>
   <trkpt lat="-3.1898500" lon="37.2793860">
    <ele>1659.5</ele>
    <time>2026-06-20T09:55:26Z</time>
   </trkpt>
   <trkpt lat="-3.1898500" lon="37.2793860">
    <ele>1659.5</ele>
    <time>2026-06-20T09:55:27Z</time>
   </trkpt>
   <trkpt lat="-3.1898500" lon="37.2793850">
    <ele>1659.5</ele>
    <time>2026-06-20T09:55:28Z</time>
   </trkpt>
   <trkpt lat="-3.1898500" lon="37.2793850">
    <ele>1659.5</ele>
    <time>2026-06-20T09:55:29Z</time>
   </trkpt>
   <trkpt lat="-3.1898500" lon="37.2793850">
    <ele>1659.5</ele>
    <time>2026-06-20T09:55:30Z</time>
   </trkpt>
   <trkpt lat="-3.1898500" lon="37.2793850">
    <ele>1659.5</ele>
    <time>2026-06-20T09:55:31Z</time>
   </trkpt>
   <trkpt lat="-3.1898500" lon="37.2793850">
    <ele>1659.5</ele>
    <time>2026-06-20T09:55:32Z</time>
   </trkpt>
   <trkpt lat="-3.1898500" lon="37.2793850">
    <ele>1659.5</ele>
    <time>2026-06-20T09:55:33Z</time>
   </trkpt>
   <trkpt lat="-3.1898500" lon="37.2793850">
    <ele>1659.5</ele>
    <time>2026-06-20T09:55:34Z</time>
   </trkpt>
   <trkpt lat="-3.1898500" lon="37.2793850">
    <ele>1659.5</ele>
    <time>2026-06-20T09:55:35Z</time>
   </trkpt>
   <trkpt lat="-3.1898500" lon="37.2793810">
    <ele>1659.5</ele>
    <time>2026-06-20T09:55:36Z</time>
   </trkpt>
   <trkpt lat="-3.1898510" lon="37.2793800">
    <ele>1659.5</ele>
    <time>2026-06-20T09:55:37Z</time>
   </trkpt>
   <trkpt lat="-3.1898510" lon="37.2793780">
    <ele>1659.5</ele>
    <time>2026-06-20T09:55:38Z</time>
   </trkpt>
   <trkpt lat="-3.1898530" lon="37.2793780">
    <ele>1659.5</ele>
    <time>2026-06-20T09:55:39Z</time>
   </trkpt>
   <trkpt lat="-3.1898540" lon="37.2793770">
    <ele>1659.5</ele>
    <time>2026-06-20T09:55:40Z</time>
   </trkpt>
   <trkpt lat="-3.1898560" lon="37.2793770">
    <ele>1659.5</ele>
    <time>2026-06-20T09:55:41Z</time>
   </trkpt>
   <trkpt lat="-3.1898560" lon="37.2793760">
    <ele>1659.5</ele>
    <time>2026-06-20T09:55:42Z</time>
   </trkpt>
   <trkpt lat="-3.1898570" lon="37.2793750">
    <ele>1659.5</ele>
    <time>2026-06-20T09:55:43Z</time>
   </trkpt>
   <trkpt lat="-3.1898570" lon="37.2793750">
    <ele>1659.5</ele>
    <time>2026-06-20T09:55:44Z</time>
   </trkpt>
   <trkpt lat="-3.1898580" lon="37.2793760">
    <ele>1659.5</ele>
    <time>2026-06-20T09:55:45Z</time>
   </trkpt>
   <trkpt lat="-3.1898580" lon="37.2793750">
    <ele>1659.5</ele>
    <time>2026-06-20T09:55:46Z</time>
   </trkpt>
   <trkpt lat="-3.1898580" lon="37.2793760">
    <ele>1659.5</ele>
    <time>2026-06-20T09:55:47Z</time>
   </trkpt>
   <trkpt lat="-3.1898580" lon="37.2793760">
    <ele>1659.5</ele>
    <time>2026-06-20T09:55:48Z</time>
   </trkpt>
   <trkpt lat="-3.1898580" lon="37.2793760">
    <ele>1659.5</ele>
    <time>2026-06-20T09:55:49Z</time>
   </trkpt>
   <trkpt lat="-3.1898580" lon="37.2793760">
    <ele>1659.5</ele>
    <time>2026-06-20T09:55:50Z</time>
   </trkpt>
   <trkpt lat="-3.1898580" lon="37.2793760">
    <ele>1659.5</ele>
    <time>2026-06-20T09:55:51Z</time>
   </trkpt>
   <trkpt lat="-3.1898580" lon="37.2793760">
    <ele>1659.5</ele>
    <time>2026-06-20T09:55:52Z</time>
   </trkpt>
   <trkpt lat="-3.1898580" lon="37.2793760">
    <ele>1659.5</ele>
    <time>2026-06-20T09:55:53Z</time>
   </trkpt>
   <trkpt lat="-3.1898580" lon="37.2793760">
    <ele>1659.5</ele>
    <time>2026-06-20T09:55:54Z</time>
   </trkpt>
   <trkpt lat="-3.1898620" lon="37.2793790">
    <ele>1659.5</ele>
    <time>2026-06-20T09:55:55Z</time>
   </trkpt>
   <trkpt lat="-3.1898620" lon="37.2793790">
    <ele>1659.5</ele>
    <time>2026-06-20T09:55:56Z</time>
   </trkpt>
   <trkpt lat="-3.1898630" lon="37.2793790">
    <ele>1659.5</ele>
    <time>2026-06-20T09:55:57Z</time>
   </trkpt>
   <trkpt lat="-3.1898610" lon="37.2793780">
    <ele>1659.5</ele>
    <time>2026-06-20T09:55:58Z</time>
   </trkpt>
   <trkpt lat="-3.1898600" lon="37.2793790">
    <ele>1659.5</ele>
    <time>2026-06-20T09:55:59Z</time>
   </trkpt>
   <trkpt lat="-3.1898630" lon="37.2793800">
    <ele>1659.5</ele>
    <time>2026-06-20T09:56:00Z</time>
   </trkpt>
   <trkpt lat="-3.1898640" lon="37.2793780">
    <ele>1659.5</ele>
    <time>2026-06-20T09:56:01Z</time>
   </trkpt>
   <trkpt lat="-3.1898640" lon="37.2793830">
    <ele>1659.5</ele>
    <time>2026-06-20T09:56:02Z</time>
   </trkpt>
   <trkpt lat="-3.1898660" lon="37.2793830">
    <ele>1659.5</ele>
    <time>2026-06-20T09:56:03Z</time>
   </trkpt>
   <trkpt lat="-3.1898660" lon="37.2793830">
    <ele>1659.5</ele>
    <time>2026-06-20T09:56:04Z</time>
   </trkpt>
   <trkpt lat="-3.1898660" lon="37.2793830">
    <ele>1659.5</ele>
    <time>2026-06-20T09:56:05Z</time>
   </trkpt>
   <trkpt lat="-3.1898710" lon="37.2793900">
    <ele>1659.5</ele>
    <time>2026-06-20T09:56:06Z</time>
   </trkpt>
   <trkpt lat="-3.1898600" lon="37.2794010">
    <ele>1659.5</ele>
    <time>2026-06-20T09:56:07Z</time>
   </trkpt>
   <trkpt lat="-3.1898620" lon="37.2794070">
    <ele>1659.5</ele>
    <time>2026-06-20T09:56:08Z</time>
   </trkpt>
   <trkpt lat="-3.1898660" lon="37.2794120">
    <ele>1659.5</ele>
    <time>2026-06-20T09:56:09Z</time>
   </trkpt>
   <trkpt lat="-3.1898690" lon="37.2794110">
    <ele>1659.5</ele>
    <time>2026-06-20T09:56:10Z</time>
   </trkpt>
   <trkpt lat="-3.1898730" lon="37.2794160">
    <ele>1659.5</ele>
    <time>2026-06-20T09:56:11Z</time>
   </trkpt>
   <trkpt lat="-3.1898730" lon="37.2794160">
    <ele>1659.5</ele>
    <time>2026-06-20T09:56:12Z</time>
   </trkpt>
   <trkpt lat="-3.1898720" lon="37.2794140">
    <ele>1659.5</ele>
    <time>2026-06-20T09:56:13Z</time>
   </trkpt>
   <trkpt lat="-3.1898710" lon="37.2794140">
    <ele>1659.5</ele>
    <time>2026-06-20T09:56:14Z</time>
   </trkpt>
   <trkpt lat="-3.1898740" lon="37.2794120">
    <ele>1659.5</ele>
    <time>2026-06-20T09:56:15Z</time>
   </trkpt>
   <trkpt lat="-3.1898690" lon="37.2794150">
    <ele>1659.5</ele>
    <time>2026-06-20T09:56:16Z</time>
   </trkpt>
   <trkpt lat="-3.1898650" lon="37.2794180">
    <ele>1659.5</ele>
    <time>2026-06-20T09:56:17Z</time>
   </trkpt>
   <trkpt lat="-3.1898610" lon="37.2794200">
    <ele>1659.5</ele>
    <time>2026-06-20T09:56:18Z</time>
   </trkpt>
   <trkpt lat="-3.1898580" lon="37.2794210">
    <ele>1659.5</ele>
    <time>2026-06-20T09:56:19Z</time>
   </trkpt>
   <trkpt lat="-3.1898560" lon="37.2794230">
    <ele>1659.5</ele>
    <time>2026-06-20T09:56:20Z</time>
   </trkpt>
   <trkpt lat="-3.1898540" lon="37.2794250">
    <ele>1659.5</ele>
    <time>2026-06-20T09:56:21Z</time>
   </trkpt>
   <trkpt lat="-3.1898510" lon="37.2794250">
    <ele>1659.5</ele>
    <time>2026-06-20T09:56:22Z</time>
   </trkpt>
   <trkpt lat="-3.1898520" lon="37.2794270">
    <ele>1659.5</ele>
    <time>2026-06-20T09:56:23Z</time>
   </trkpt>
   <trkpt lat="-3.1898470" lon="37.2794240">
    <ele>1659.5</ele>
    <time>2026-06-20T09:56:24Z</time>
   </trkpt>
   <trkpt lat="-3.1898460" lon="37.2794240">
    <ele>1659.5</ele>
    <time>2026-06-20T09:56:25Z</time>
   </trkpt>
   <trkpt lat="-3.1898480" lon="37.2794260">
    <ele>1659.5</ele>
    <time>2026-06-20T09:56:26Z</time>
   </trkpt>
   <trkpt lat="-3.1898440" lon="37.2794250">
    <ele>1659.5</ele>
    <time>2026-06-20T09:56:27Z</time>
   </trkpt>
   <trkpt lat="-3.1898440" lon="37.2794260">
    <ele>1659.5</ele>
    <time>2026-06-20T09:56:28Z</time>
   </trkpt>
   <trkpt lat="-3.1898430" lon="37.2794250">
    <ele>1659.5</ele>
    <time>2026-06-20T09:56:29Z</time>
   </trkpt>
   <trkpt lat="-3.1898420" lon="37.2794260">
    <ele>1659.5</ele>
    <time>2026-06-20T09:56:30Z</time>
   </trkpt>
   <trkpt lat="-3.1898430" lon="37.2794240">
    <ele>1659.5</ele>
    <time>2026-06-20T09:56:31Z</time>
   </trkpt>
   <trkpt lat="-3.1898420" lon="37.2794230">
    <ele>1659.5</ele>
    <time>2026-06-20T09:56:32Z</time>
   </trkpt>
   <trkpt lat="-3.1898390" lon="37.2794200">
    <ele>1659.5</ele>
    <time>2026-06-20T09:56:33Z</time>
   </trkpt>
   <trkpt lat="-3.1898380" lon="37.2794200">
    <ele>1659.5</ele>
    <time>2026-06-20T09:56:34Z</time>
   </trkpt>
   <trkpt lat="-3.1898370" lon="37.2794210">
    <ele>1659.5</ele>
    <time>2026-06-20T09:56:35Z</time>
   </trkpt>
   <trkpt lat="-3.1898300" lon="37.2794220">
    <ele>1659.5</ele>
    <time>2026-06-20T09:56:36Z</time>
   </trkpt>
   <trkpt lat="-3.1898330" lon="37.2794210">
    <ele>1659.5</ele>
    <time>2026-06-20T09:56:37Z</time>
   </trkpt>
   <trkpt lat="-3.1898320" lon="37.2794200">
    <ele>1659.5</ele>
    <time>2026-06-20T09:56:38Z</time>
   </trkpt>
   <trkpt lat="-3.1898340" lon="37.2794190">
    <ele>1659.5</ele>
    <time>2026-06-20T09:56:39Z</time>
   </trkpt>
   <trkpt lat="-3.1898330" lon="37.2794200">
    <ele>1659.5</ele>
    <time>2026-06-20T09:56:40Z</time>
   </trkpt>
   <trkpt lat="-3.1898330" lon="37.2794200">
    <ele>1659.5</ele>
    <time>2026-06-20T09:56:41Z</time>
   </trkpt>
   <trkpt lat="-3.1898360" lon="37.2794200">
    <ele>1659.5</ele>
    <time>2026-06-20T09:56:42Z</time>
   </trkpt>
   <trkpt lat="-3.1898360" lon="37.2794190">
    <ele>1659.5</ele>
    <time>2026-06-20T09:56:43Z</time>
   </trkpt>
   <trkpt lat="-3.1898410" lon="37.2794200">
    <ele>1659.4</ele>
    <time>2026-06-20T09:56:44Z</time>
   </trkpt>
   <trkpt lat="-3.1898420" lon="37.2794220">
    <ele>1659.4</ele>
    <time>2026-06-20T09:56:45Z</time>
   </trkpt>
   <trkpt lat="-3.1898440" lon="37.2794250">
    <ele>1659.4</ele>
    <time>2026-06-20T09:56:46Z</time>
   </trkpt>
   <trkpt lat="-3.1898470" lon="37.2794190">
    <ele>1659.4</ele>
    <time>2026-06-20T09:56:47Z</time>
   </trkpt>
   <trkpt lat="-3.1898380" lon="37.2794190">
    <ele>1659.4</ele>
    <time>2026-06-20T09:56:48Z</time>
   </trkpt>
   <trkpt lat="-3.1898380" lon="37.2794210">
    <ele>1659.4</ele>
    <time>2026-06-20T09:56:49Z</time>
   </trkpt>
   <trkpt lat="-3.1898350" lon="37.2794190">
    <ele>1659.4</ele>
    <time>2026-06-20T09:56:50Z</time>
   </trkpt>
   <trkpt lat="-3.1898390" lon="37.2794200">
    <ele>1659.4</ele>
    <time>2026-06-20T09:56:51Z</time>
   </trkpt>
   <trkpt lat="-3.1898370" lon="37.2794150">
    <ele>1659.4</ele>
    <time>2026-06-20T09:56:52Z</time>
   </trkpt>
   <trkpt lat="-3.1898370" lon="37.2794140">
    <ele>1659.4</ele>
    <time>2026-06-20T09:56:53Z</time>
   </trkpt>
   <trkpt lat="-3.1898390" lon="37.2794220">
    <ele>1659.4</ele>
    <time>2026-06-20T09:56:54Z</time>
   </trkpt>
   <trkpt lat="-3.1898370" lon="37.2794270">
    <ele>1659.4</ele>
    <time>2026-06-20T09:56:55Z</time>
   </trkpt>
   <trkpt lat="-3.1898350" lon="37.2794310">
    <ele>1659.4</ele>
    <time>2026-06-20T09:56:56Z</time>
   </trkpt>
   <trkpt lat="-3.1898300" lon="37.2794320">
    <ele>1659.4</ele>
    <time>2026-06-20T09:56:57Z</time>
   </trkpt>
   <trkpt lat="-3.1898310" lon="37.2794340">
    <ele>1659.4</ele>
    <time>2026-06-20T09:56:58Z</time>
   </trkpt>
   <trkpt lat="-3.1898290" lon="37.2794320">
    <ele>1659.4</ele>
    <time>2026-06-20T09:56:59Z</time>
   </trkpt>
   <trkpt lat="-3.1898220" lon="37.2794310">
    <ele>1659.4</ele>
    <time>2026-06-20T09:57:00Z</time>
   </trkpt>
   <trkpt lat="-3.1898210" lon="37.2794380">
    <ele>1659.4</ele>
    <time>2026-06-20T09:57:01Z</time>
   </trkpt>
   <trkpt lat="-3.1898110" lon="37.2794340">
    <ele>1659.4</ele>
    <time>2026-06-20T09:57:02Z</time>
   </trkpt>
   <trkpt lat="-3.1898110" lon="37.2794320">
    <ele>1659.4</ele>
    <time>2026-06-20T09:57:03Z</time>
   </trkpt>
   <trkpt lat="-3.1898100" lon="37.2794300">
    <ele>1659.4</ele>
    <time>2026-06-20T09:57:04Z</time>
   </trkpt>
   <trkpt lat="-3.1898130" lon="37.2794280">
    <ele>1659.4</ele>
    <time>2026-06-20T09:57:05Z</time>
   </trkpt>
   <trkpt lat="-3.1898160" lon="37.2794260">
    <ele>1659.4</ele>
    <time>2026-06-20T09:57:06Z</time>
   </trkpt>
   <trkpt lat="-3.1898170" lon="37.2794250">
    <ele>1659.4</ele>
    <time>2026-06-20T09:57:07Z</time>
   </trkpt>
   <trkpt lat="-3.1898170" lon="37.2794260">
    <ele>1659.4</ele>
    <time>2026-06-20T09:57:08Z</time>
   </trkpt>
   <trkpt lat="-3.1898190" lon="37.2794220">
    <ele>1659.4</ele>
    <time>2026-06-20T09:57:09Z</time>
   </trkpt>
   <trkpt lat="-3.1898200" lon="37.2794210">
    <ele>1659.4</ele>
    <time>2026-06-20T09:57:10Z</time>
   </trkpt>
   <trkpt lat="-3.1898200" lon="37.2794190">
    <ele>1659.4</ele>
    <time>2026-06-20T09:57:11Z</time>
   </trkpt>
   <trkpt lat="-3.1898200" lon="37.2794190">
    <ele>1659.4</ele>
    <time>2026-06-20T09:57:12Z</time>
   </trkpt>
   <trkpt lat="-3.1898200" lon="37.2794190">
    <ele>1659.4</ele>
    <time>2026-06-20T09:57:13Z</time>
   </trkpt>
   <trkpt lat="-3.1898230" lon="37.2794140">
    <ele>1659.4</ele>
    <time>2026-06-20T09:57:14Z</time>
   </trkpt>
   <trkpt lat="-3.1898210" lon="37.2794140">
    <ele>1659.4</ele>
    <time>2026-06-20T09:57:15Z</time>
   </trkpt>
   <trkpt lat="-3.1898210" lon="37.2794140">
    <ele>1659.4</ele>
    <time>2026-06-20T09:57:16Z</time>
   </trkpt>
   <trkpt lat="-3.1898210" lon="37.2794140">
    <ele>1659.4</ele>
    <time>2026-06-20T09:57:17Z</time>
   </trkpt>
   <trkpt lat="-3.1898210" lon="37.2794140">
    <ele>1659.4</ele>
    <time>2026-06-20T09:57:18Z</time>
   </trkpt>
   <trkpt lat="-3.1898240" lon="37.2794150">
    <ele>1659.4</ele>
    <time>2026-06-20T09:57:19Z</time>
   </trkpt>
   <trkpt lat="-3.1898240" lon="37.2794150">
    <ele>1659.4</ele>
    <time>2026-06-20T09:57:20Z</time>
   </trkpt>
   <trkpt lat="-3.1898240" lon="37.2794150">
    <ele>1659.4</ele>
    <time>2026-06-20T09:57:21Z</time>
   </trkpt>
   <trkpt lat="-3.1898290" lon="37.2794130">
    <ele>1659.4</ele>
    <time>2026-06-20T09:57:22Z</time>
   </trkpt>
   <trkpt lat="-3.1898290" lon="37.2794120">
    <ele>1659.4</ele>
    <time>2026-06-20T09:57:23Z</time>
   </trkpt>
   <trkpt lat="-3.1898290" lon="37.2794120">
    <ele>1659.4</ele>
    <time>2026-06-20T09:57:24Z</time>
   </trkpt>
   <trkpt lat="-3.1898310" lon="37.2794120">
    <ele>1659.4</ele>
    <time>2026-06-20T09:57:25Z</time>
   </trkpt>
   <trkpt lat="-3.1898310" lon="37.2794120">
    <ele>1659.4</ele>
    <time>2026-06-20T09:57:26Z</time>
   </trkpt>
   <trkpt lat="-3.1898340" lon="37.2794110">
    <ele>1659.4</ele>
    <time>2026-06-20T09:57:27Z</time>
   </trkpt>
   <trkpt lat="-3.1898340" lon="37.2794110">
    <ele>1659.4</ele>
    <time>2026-06-20T09:57:28Z</time>
   </trkpt>
   <trkpt lat="-3.1898340" lon="37.2794110">
    <ele>1659.4</ele>
    <time>2026-06-20T09:57:29Z</time>
   </trkpt>
   <trkpt lat="-3.1898340" lon="37.2794110">
    <ele>1659.4</ele>
    <time>2026-06-20T09:57:30Z</time>
   </trkpt>
   <trkpt lat="-3.1898400" lon="37.2794100">
    <ele>1659.4</ele>
    <time>2026-06-20T09:57:31Z</time>
   </trkpt>
   <trkpt lat="-3.1898380" lon="37.2794100">
    <ele>1659.4</ele>
    <time>2026-06-20T09:57:32Z</time>
   </trkpt>
   <trkpt lat="-3.1898380" lon="37.2794100">
    <ele>1659.4</ele>
    <time>2026-06-20T09:57:33Z</time>
   </trkpt>
   <trkpt lat="-3.1898370" lon="37.2794110">
    <ele>1659.4</ele>
    <time>2026-06-20T09:57:34Z</time>
   </trkpt>
   <trkpt lat="-3.1898370" lon="37.2794110">
    <ele>1659.4</ele>
    <time>2026-06-20T09:57:35Z</time>
   </trkpt>
   <trkpt lat="-3.1898380" lon="37.2794080">
    <ele>1659.4</ele>
    <time>2026-06-20T09:57:36Z</time>
   </trkpt>
   <trkpt lat="-3.1898380" lon="37.2794080">
    <ele>1659.4</ele>
    <time>2026-06-20T09:57:37Z</time>
   </trkpt>
   <trkpt lat="-3.1898380" lon="37.2794080">
    <ele>1659.4</ele>
    <time>2026-06-20T09:57:38Z</time>
   </trkpt>
   <trkpt lat="-3.1898380" lon="37.2794080">
    <ele>1659.4</ele>
    <time>2026-06-20T09:57:39Z</time>
   </trkpt>
   <trkpt lat="-3.1898380" lon="37.2794080">
    <ele>1659.4</ele>
    <time>2026-06-20T09:57:40Z</time>
   </trkpt>
   <trkpt lat="-3.1898380" lon="37.2794070">
    <ele>1659.4</ele>
    <time>2026-06-20T09:57:41Z</time>
   </trkpt>
   <trkpt lat="-3.1898380" lon="37.2794080">
    <ele>1659.4</ele>
    <time>2026-06-20T09:57:42Z</time>
   </trkpt>
   <trkpt lat="-3.1898330" lon="37.2794090">
    <ele>1659.4</ele>
    <time>2026-06-20T09:57:43Z</time>
   </trkpt>
   <trkpt lat="-3.1898350" lon="37.2794080">
    <ele>1659.4</ele>
    <time>2026-06-20T09:57:44Z</time>
   </trkpt>
   <trkpt lat="-3.1898370" lon="37.2794080">
    <ele>1659.4</ele>
    <time>2026-06-20T09:57:45Z</time>
   </trkpt>
   <trkpt lat="-3.1898380" lon="37.2794080">
    <ele>1659.4</ele>
    <time>2026-06-20T09:57:46Z</time>
   </trkpt>
   <trkpt lat="-3.1898400" lon="37.2794070">
    <ele>1659.4</ele>
    <time>2026-06-20T09:57:47Z</time>
   </trkpt>
   <trkpt lat="-3.1898410" lon="37.2794070">
    <ele>1659.4</ele>
    <time>2026-06-20T09:57:48Z</time>
   </trkpt>
   <trkpt lat="-3.1898410" lon="37.2794070">
    <ele>1659.4</ele>
    <time>2026-06-20T09:57:49Z</time>
   </trkpt>
   <trkpt lat="-3.1898370" lon="37.2794120">
    <ele>1659.4</ele>
    <time>2026-06-20T09:57:50Z</time>
   </trkpt>
   <trkpt lat="-3.1898370" lon="37.2794120">
    <ele>1659.4</ele>
    <time>2026-06-20T09:57:51Z</time>
   </trkpt>
   <trkpt lat="-3.1898370" lon="37.2794120">
    <ele>1659.4</ele>
    <time>2026-06-20T09:57:52Z</time>
   </trkpt>
   <trkpt lat="-3.1898370" lon="37.2794120">
    <ele>1659.4</ele>
    <time>2026-06-20T09:57:53Z</time>
   </trkpt>
   <trkpt lat="-3.1898370" lon="37.2794120">
    <ele>1659.4</ele>
    <time>2026-06-20T09:57:54Z</time>
   </trkpt>
   <trkpt lat="-3.1898370" lon="37.2794120">
    <ele>1659.4</ele>
    <time>2026-06-20T09:57:55Z</time>
   </trkpt>
   <trkpt lat="-3.1898370" lon="37.2794120">
    <ele>1659.4</ele>
    <time>2026-06-20T09:57:56Z</time>
   </trkpt>
   <trkpt lat="-3.1898370" lon="37.2794120">
    <ele>1659.4</ele>
    <time>2026-06-20T09:57:57Z</time>
   </trkpt>
   <trkpt lat="-3.1898370" lon="37.2794120">
    <ele>1659.4</ele>
    <time>2026-06-20T09:57:58Z</time>
   </trkpt>
   <trkpt lat="-3.1898370" lon="37.2794120">
    <ele>1659.4</ele>
    <time>2026-06-20T09:57:59Z</time>
   </trkpt>
   <trkpt lat="-3.1898400" lon="37.2794120">
    <ele>1659.4</ele>
    <time>2026-06-20T09:58:00Z</time>
   </trkpt>
   <trkpt lat="-3.1898400" lon="37.2794110">
    <ele>1659.4</ele>
    <time>2026-06-20T09:58:01Z</time>
   </trkpt>
   <trkpt lat="-3.1898400" lon="37.2794120">
    <ele>1659.4</ele>
    <time>2026-06-20T09:58:02Z</time>
   </trkpt>
   <trkpt lat="-3.1898390" lon="37.2794110">
    <ele>1659.4</ele>
    <time>2026-06-20T09:58:03Z</time>
   </trkpt>
   <trkpt lat="-3.1898400" lon="37.2794100">
    <ele>1659.4</ele>
    <time>2026-06-20T09:58:04Z</time>
   </trkpt>
   <trkpt lat="-3.1898330" lon="37.2794130">
    <ele>1659.4</ele>
    <time>2026-06-20T09:58:05Z</time>
   </trkpt>
   <trkpt lat="-3.1898320" lon="37.2794130">
    <ele>1659.4</ele>
    <time>2026-06-20T09:58:06Z</time>
   </trkpt>
   <trkpt lat="-3.1898310" lon="37.2794080">
    <ele>1659.3</ele>
    <time>2026-06-20T09:58:07Z</time>
   </trkpt>
   <trkpt lat="-3.1898310" lon="37.2794080">
    <ele>1659.3</ele>
    <time>2026-06-20T09:58:08Z</time>
   </trkpt>
   <trkpt lat="-3.1898310" lon="37.2794080">
    <ele>1659.3</ele>
    <time>2026-06-20T09:58:09Z</time>
   </trkpt>
   <trkpt lat="-3.1898290" lon="37.2794010">
    <ele>1659.3</ele>
    <time>2026-06-20T09:58:10Z</time>
   </trkpt>
   <trkpt lat="-3.1898320" lon="37.2793970">
    <ele>1659.3</ele>
    <time>2026-06-20T09:58:11Z</time>
   </trkpt>
   <trkpt lat="-3.1898340" lon="37.2793950">
    <ele>1659.3</ele>
    <time>2026-06-20T09:58:12Z</time>
   </trkpt>
   <trkpt lat="-3.1898370" lon="37.2793920">
    <ele>1659.3</ele>
    <time>2026-06-20T09:58:13Z</time>
   </trkpt>
   <trkpt lat="-3.1898370" lon="37.2793920">
    <ele>1659.3</ele>
    <time>2026-06-20T09:58:14Z</time>
   </trkpt>
   <trkpt lat="-3.1898290" lon="37.2793930">
    <ele>1659.3</ele>
    <time>2026-06-20T09:58:15Z</time>
   </trkpt>
   <trkpt lat="-3.1898310" lon="37.2793900">
    <ele>1659.3</ele>
    <time>2026-06-20T09:58:16Z</time>
   </trkpt>
   <trkpt lat="-3.1898310" lon="37.2793900">
    <ele>1659.3</ele>
    <time>2026-06-20T09:58:17Z</time>
   </trkpt>
   <trkpt lat="-3.1898310" lon="37.2793900">
    <ele>1659.3</ele>
    <time>2026-06-20T09:58:18Z</time>
   </trkpt>
   <trkpt lat="-3.1898260" lon="37.2793930">
    <ele>1659.3</ele>
    <time>2026-06-20T09:58:19Z</time>
   </trkpt>
   <trkpt lat="-3.1898260" lon="37.2793930">
    <ele>1659.3</ele>
    <time>2026-06-20T09:58:20Z</time>
   </trkpt>
   <trkpt lat="-3.1898260" lon="37.2793930">
    <ele>1659.3</ele>
    <time>2026-06-20T09:58:21Z</time>
   </trkpt>
   <trkpt lat="-3.1898260" lon="37.2793930">
    <ele>1659.3</ele>
    <time>2026-06-20T09:58:22Z</time>
   </trkpt>
   <trkpt lat="-3.1898260" lon="37.2793930">
    <ele>1659.3</ele>
    <time>2026-06-20T09:58:23Z</time>
   </trkpt>
   <trkpt lat="-3.1898260" lon="37.2793930">
    <ele>1659.3</ele>
    <time>2026-06-20T09:58:24Z</time>
   </trkpt>
   <trkpt lat="-3.1898260" lon="37.2793930">
    <ele>1659.3</ele>
    <time>2026-06-20T09:58:25Z</time>
   </trkpt>
   <trkpt lat="-3.1898260" lon="37.2793930">
    <ele>1659.3</ele>
    <time>2026-06-20T09:58:26Z</time>
   </trkpt>
   <trkpt lat="-3.1898260" lon="37.2793930">
    <ele>1659.3</ele>
    <time>2026-06-20T09:58:27Z</time>
   </trkpt>
   <trkpt lat="-3.1898260" lon="37.2793930">
    <ele>1659.3</ele>
    <time>2026-06-20T09:58:28Z</time>
   </trkpt>
   <trkpt lat="-3.1898260" lon="37.2793930">
    <ele>1659.3</ele>
    <time>2026-06-20T09:58:29Z</time>
   </trkpt>
   <trkpt lat="-3.1898260" lon="37.2793930">
    <ele>1659.3</ele>
    <time>2026-06-20T09:58:30Z</time>
   </trkpt>
   <trkpt lat="-3.1898260" lon="37.2793930">
    <ele>1659.3</ele>
    <time>2026-06-20T09:58:31Z</time>
   </trkpt>
   <trkpt lat="-3.1898400" lon="37.2793880">
    <ele>1659.3</ele>
    <time>2026-06-20T09:58:32Z</time>
   </trkpt>
   <trkpt lat="-3.1898400" lon="37.2793880">
    <ele>1659.3</ele>
    <time>2026-06-20T09:58:33Z</time>
   </trkpt>
   <trkpt lat="-3.1898370" lon="37.2793910">
    <ele>1659.3</ele>
    <time>2026-06-20T09:58:34Z</time>
   </trkpt>
   <trkpt lat="-3.1898370" lon="37.2793910">
    <ele>1659.3</ele>
    <time>2026-06-20T09:58:35Z</time>
   </trkpt>
   <trkpt lat="-3.1898370" lon="37.2793910">
    <ele>1659.3</ele>
    <time>2026-06-20T09:58:36Z</time>
   </trkpt>
   <trkpt lat="-3.1898370" lon="37.2793910">
    <ele>1659.3</ele>
    <time>2026-06-20T09:58:37Z</time>
   </trkpt>
   <trkpt lat="-3.1898370" lon="37.2793910">
    <ele>1659.3</ele>
    <time>2026-06-20T09:58:38Z</time>
   </trkpt>
   <trkpt lat="-3.1898370" lon="37.2793910">
    <ele>1659.3</ele>
    <time>2026-06-20T09:58:39Z</time>
   </trkpt>
   <trkpt lat="-3.1898370" lon="37.2793910">
    <ele>1659.3</ele>
    <time>2026-06-20T09:58:40Z</time>
   </trkpt>
   <trkpt lat="-3.1898370" lon="37.2793910">
    <ele>1659.3</ele>
    <time>2026-06-20T09:58:41Z</time>
   </trkpt>
   <trkpt lat="-3.1898370" lon="37.2793910">
    <ele>1659.3</ele>
    <time>2026-06-20T09:58:42Z</time>
   </trkpt>
   <trkpt lat="-3.1898370" lon="37.2793910">
    <ele>1659.3</ele>
    <time>2026-06-20T09:58:43Z</time>
   </trkpt>
   <trkpt lat="-3.1898370" lon="37.2793910">
    <ele>1659.3</ele>
    <time>2026-06-20T09:58:44Z</time>
   </trkpt>
   <trkpt lat="-3.1898370" lon="37.2793910">
    <ele>1659.3</ele>
    <time>2026-06-20T09:58:45Z</time>
   </trkpt>
   <trkpt lat="-3.1898370" lon="37.2793910">
    <ele>1659.3</ele>
    <time>2026-06-20T09:58:46Z</time>
   </trkpt>
   <trkpt lat="-3.1898370" lon="37.2793910">
    <ele>1659.3</ele>
    <time>2026-06-20T09:58:47Z</time>
   </trkpt>
   <trkpt lat="-3.1898420" lon="37.2793980">
    <ele>1659.3</ele>
    <time>2026-06-20T09:58:48Z</time>
   </trkpt>
   <trkpt lat="-3.1898420" lon="37.2793970">
    <ele>1659.3</ele>
    <time>2026-06-20T09:58:49Z</time>
   </trkpt>
   <trkpt lat="-3.1898420" lon="37.2793970">
    <ele>1659.3</ele>
    <time>2026-06-20T09:58:50Z</time>
   </trkpt>
   <trkpt lat="-3.1898420" lon="37.2793970">
    <ele>1659.3</ele>
    <time>2026-06-20T09:58:51Z</time>
   </trkpt>
   <trkpt lat="-3.1898420" lon="37.2793970">
    <ele>1659.3</ele>
    <time>2026-06-20T09:58:52Z</time>
   </trkpt>
   <trkpt lat="-3.1898320" lon="37.2794050">
    <ele>1659.3</ele>
    <time>2026-06-20T09:58:53Z</time>
   </trkpt>
   <trkpt lat="-3.1898320" lon="37.2794050">
    <ele>1659.3</ele>
    <time>2026-06-20T09:58:54Z</time>
   </trkpt>
   <trkpt lat="-3.1898290" lon="37.2794050">
    <ele>1659.3</ele>
    <time>2026-06-20T09:58:55Z</time>
   </trkpt>
   <trkpt lat="-3.1898290" lon="37.2794060">
    <ele>1659.3</ele>
    <time>2026-06-20T09:58:56Z</time>
   </trkpt>
   <trkpt lat="-3.1898290" lon="37.2794050">
    <ele>1659.3</ele>
    <time>2026-06-20T09:58:57Z</time>
   </trkpt>
   <trkpt lat="-3.1898300" lon="37.2794050">
    <ele>1659.3</ele>
    <time>2026-06-20T09:58:58Z</time>
   </trkpt>
   <trkpt lat="-3.1898280" lon="37.2794060">
    <ele>1659.3</ele>
    <time>2026-06-20T09:58:59Z</time>
   </trkpt>
   <trkpt lat="-3.1898280" lon="37.2794060">
    <ele>1659.3</ele>
    <time>2026-06-20T09:59:00Z</time>
   </trkpt>
   <trkpt lat="-3.1898270" lon="37.2794050">
    <ele>1659.3</ele>
    <time>2026-06-20T09:59:01Z</time>
   </trkpt>
   <trkpt lat="-3.1898270" lon="37.2794050">
    <ele>1659.3</ele>
    <time>2026-06-20T09:59:02Z</time>
   </trkpt>
   <trkpt lat="-3.1898270" lon="37.2794050">
    <ele>1659.3</ele>
    <time>2026-06-20T09:59:03Z</time>
   </trkpt>
   <trkpt lat="-3.1898270" lon="37.2794050">
    <ele>1659.3</ele>
    <time>2026-06-20T09:59:04Z</time>
   </trkpt>
   <trkpt lat="-3.1898270" lon="37.2794050">
    <ele>1659.3</ele>
    <time>2026-06-20T09:59:05Z</time>
   </trkpt>
   <trkpt lat="-3.1898220" lon="37.2794010">
    <ele>1659.3</ele>
    <time>2026-06-20T09:59:06Z</time>
   </trkpt>
   <trkpt lat="-3.1898260" lon="37.2793970">
    <ele>1659.3</ele>
    <time>2026-06-20T09:59:07Z</time>
   </trkpt>
   <trkpt lat="-3.1898260" lon="37.2793940">
    <ele>1659.3</ele>
    <time>2026-06-20T09:59:08Z</time>
   </trkpt>
   <trkpt lat="-3.1898270" lon="37.2793940">
    <ele>1659.3</ele>
    <time>2026-06-20T09:59:09Z</time>
   </trkpt>
   <trkpt lat="-3.1898270" lon="37.2793940">
    <ele>1659.3</ele>
    <time>2026-06-20T09:59:10Z</time>
   </trkpt>
   <trkpt lat="-3.1898270" lon="37.2793940">
    <ele>1659.3</ele>
    <time>2026-06-20T09:59:11Z</time>
   </trkpt>
   <trkpt lat="-3.1898270" lon="37.2793940">
    <ele>1659.3</ele>
    <time>2026-06-20T09:59:12Z</time>
   </trkpt>
   <trkpt lat="-3.1898270" lon="37.2793940">
    <ele>1659.3</ele>
    <time>2026-06-20T09:59:13Z</time>
   </trkpt>
   <trkpt lat="-3.1898330" lon="37.2793870">
    <ele>1659.3</ele>
    <time>2026-06-20T09:59:14Z</time>
   </trkpt>
   <trkpt lat="-3.1898330" lon="37.2793870">
    <ele>1659.3</ele>
    <time>2026-06-20T09:59:15Z</time>
   </trkpt>
   <trkpt lat="-3.1898330" lon="37.2793870">
    <ele>1659.3</ele>
    <time>2026-06-20T09:59:16Z</time>
   </trkpt>
   <trkpt lat="-3.1898310" lon="37.2793890">
    <ele>1659.3</ele>
    <time>2026-06-20T09:59:17Z</time>
   </trkpt>
   <trkpt lat="-3.1898310" lon="37.2793890">
    <ele>1659.3</ele>
    <time>2026-06-20T09:59:18Z</time>
   </trkpt>
   <trkpt lat="-3.1898310" lon="37.2793890">
    <ele>1659.3</ele>
    <time>2026-06-20T09:59:19Z</time>
   </trkpt>
   <trkpt lat="-3.1898310" lon="37.2793890">
    <ele>1659.3</ele>
    <time>2026-06-20T09:59:20Z</time>
   </trkpt>
   <trkpt lat="-3.1898310" lon="37.2793890">
    <ele>1659.3</ele>
    <time>2026-06-20T09:59:21Z</time>
   </trkpt>
   <trkpt lat="-3.1898310" lon="37.2793890">
    <ele>1659.3</ele>
    <time>2026-06-20T09:59:22Z</time>
   </trkpt>
   <trkpt lat="-3.1898310" lon="37.2793890">
    <ele>1659.3</ele>
    <time>2026-06-20T09:59:23Z</time>
   </trkpt>
   <trkpt lat="-3.1898310" lon="37.2793890">
    <ele>1659.3</ele>
    <time>2026-06-20T09:59:24Z</time>
   </trkpt>
   <trkpt lat="-3.1898310" lon="37.2793890">
    <ele>1659.3</ele>
    <time>2026-06-20T09:59:25Z</time>
   </trkpt>
   <trkpt lat="-3.1898310" lon="37.2793890">
    <ele>1659.3</ele>
    <time>2026-06-20T09:59:26Z</time>
   </trkpt>
   <trkpt lat="-3.1898310" lon="37.2793890">
    <ele>1659.3</ele>
    <time>2026-06-20T09:59:27Z</time>
   </trkpt>
   <trkpt lat="-3.1898290" lon="37.2793910">
    <ele>1659.3</ele>
    <time>2026-06-20T09:59:28Z</time>
   </trkpt>
   <trkpt lat="-3.1898270" lon="37.2793900">
    <ele>1659.3</ele>
    <time>2026-06-20T09:59:29Z</time>
   </trkpt>
   <trkpt lat="-3.1898240" lon="37.2793940">
    <ele>1659.3</ele>
    <time>2026-06-20T09:59:30Z</time>
   </trkpt>
   <trkpt lat="-3.1898220" lon="37.2793950">
    <ele>1659.3</ele>
    <time>2026-06-20T09:59:31Z</time>
   </trkpt>
   <trkpt lat="-3.1898230" lon="37.2793950">
    <ele>1659.3</ele>
    <time>2026-06-20T09:59:32Z</time>
   </trkpt>
   <trkpt lat="-3.1898230" lon="37.2793950">
    <ele>1659.3</ele>
    <time>2026-06-20T09:59:33Z</time>
   </trkpt>
   <trkpt lat="-3.1898190" lon="37.2793960">
    <ele>1659.3</ele>
    <time>2026-06-20T09:59:34Z</time>
   </trkpt>
   <trkpt lat="-3.1898210" lon="37.2793950">
    <ele>1659.3</ele>
    <time>2026-06-20T09:59:35Z</time>
   </trkpt>
   <trkpt lat="-3.1898220" lon="37.2793960">
    <ele>1659.3</ele>
    <time>2026-06-20T09:59:36Z</time>
   </trkpt>
   <trkpt lat="-3.1898200" lon="37.2793970">
    <ele>1659.3</ele>
    <time>2026-06-20T09:59:37Z</time>
   </trkpt>
   <trkpt lat="-3.1898190" lon="37.2793980">
    <ele>1659.3</ele>
    <time>2026-06-20T09:59:38Z</time>
   </trkpt>
   <trkpt lat="-3.1898180" lon="37.2793960">
    <ele>1659.3</ele>
    <time>2026-06-20T09:59:39Z</time>
   </trkpt>
   <trkpt lat="-3.1898190" lon="37.2793960">
    <ele>1659.3</ele>
    <time>2026-06-20T09:59:40Z</time>
   </trkpt>
   <trkpt lat="-3.1898250" lon="37.2793860">
    <ele>1659.3</ele>
    <time>2026-06-20T09:59:41Z</time>
   </trkpt>
   <trkpt lat="-3.1898220" lon="37.2793900">
    <ele>1659.3</ele>
    <time>2026-06-20T09:59:42Z</time>
   </trkpt>
   <trkpt lat="-3.1898210" lon="37.2793910">
    <ele>1659.3</ele>
    <time>2026-06-20T09:59:43Z</time>
   </trkpt>
   <trkpt lat="-3.1898200" lon="37.2793910">
    <ele>1659.3</ele>
    <time>2026-06-20T09:59:44Z</time>
   </trkpt>
   <trkpt lat="-3.1898200" lon="37.2793890">
    <ele>1659.3</ele>
    <time>2026-06-20T09:59:45Z</time>
   </trkpt>
   <trkpt lat="-3.1898200" lon="37.2793890">
    <ele>1659.3</ele>
    <time>2026-06-20T09:59:46Z</time>
   </trkpt>
   <trkpt lat="-3.1898210" lon="37.2793860">
    <ele>1659.3</ele>
    <time>2026-06-20T09:59:47Z</time>
   </trkpt>
   <trkpt lat="-3.1898170" lon="37.2793900">
    <ele>1659.3</ele>
    <time>2026-06-20T09:59:48Z</time>
   </trkpt>
   <trkpt lat="-3.1898180" lon="37.2793920">
    <ele>1659.3</ele>
    <time>2026-06-20T09:59:49Z</time>
   </trkpt>
   <trkpt lat="-3.1898170" lon="37.2793930">
    <ele>1659.3</ele>
    <time>2026-06-20T09:59:50Z</time>
   </trkpt>
   <trkpt lat="-3.1898160" lon="37.2793950">
    <ele>1659.3</ele>
    <time>2026-06-20T09:59:51Z</time>
   </trkpt>
   <trkpt lat="-3.1898160" lon="37.2793950">
    <ele>1659.3</ele>
    <time>2026-06-20T09:59:52Z</time>
   </trkpt>
   <trkpt lat="-3.1898170" lon="37.2793970">
    <ele>1659.3</ele>
    <time>2026-06-20T09:59:53Z</time>
   </trkpt>
   <trkpt lat="-3.1898170" lon="37.2793990">
    <ele>1659.3</ele>
    <time>2026-06-20T09:59:54Z</time>
   </trkpt>
   <trkpt lat="-3.1898180" lon="37.2794000">
    <ele>1659.3</ele>
    <time>2026-06-20T09:59:55Z</time>
   </trkpt>
   <trkpt lat="-3.1898170" lon="37.2794040">
    <ele>1659.2</ele>
    <time>2026-06-20T09:59:56Z</time>
   </trkpt>
   <trkpt lat="-3.1898150" lon="37.2793990">
    <ele>1659.2</ele>
    <time>2026-06-20T09:59:57Z</time>
   </trkpt>
   <trkpt lat="-3.1898130" lon="37.2794000">
    <ele>1659.2</ele>
    <time>2026-06-20T09:59:58Z</time>
   </trkpt>
   <trkpt lat="-3.1898140" lon="37.2794000">
    <ele>1659.2</ele>
    <time>2026-06-20T09:59:59Z</time>
   </trkpt>
   <trkpt lat="-3.1898160" lon="37.2793980">
    <ele>1659.2</ele>
    <time>2026-06-20T10:00:00Z</time>
   </trkpt>
   <trkpt lat="-3.1898180" lon="37.2793990">
    <ele>1659.2</ele>
    <time>2026-06-20T10:00:01Z</time>
   </trkpt>
   <trkpt lat="-3.1898160" lon="37.2793970">
    <ele>1659.2</ele>
    <time>2026-06-20T10:00:02Z</time>
   </trkpt>
   <trkpt lat="-3.1898170" lon="37.2793990">
    <ele>1659.2</ele>
    <time>2026-06-20T10:00:03Z</time>
   </trkpt>
   <trkpt lat="-3.1898170" lon="37.2793950">
    <ele>1659.2</ele>
    <time>2026-06-20T10:00:05Z</time>
   </trkpt>
   <trkpt lat="-3.1898170" lon="37.2793960">
    <ele>1659.2</ele>
    <time>2026-06-20T10:00:06Z</time>
   </trkpt>
   <trkpt lat="-3.1898170" lon="37.2793960">
    <ele>1659.2</ele>
    <time>2026-06-20T10:00:07Z</time>
   </trkpt>
   <trkpt lat="-3.1898170" lon="37.2793960">
    <ele>1659.2</ele>
    <time>2026-06-20T10:00:08Z</time>
   </trkpt>
   <trkpt lat="-3.1898120" lon="37.2794010">
    <ele>1659.2</ele>
    <time>2026-06-20T10:00:09Z</time>
   </trkpt>
   <trkpt lat="-3.1898110" lon="37.2794000">
    <ele>1659.2</ele>
    <time>2026-06-20T10:00:10Z</time>
   </trkpt>
   <trkpt lat="-3.1898100" lon="37.2794010">
    <ele>1659.2</ele>
    <time>2026-06-20T10:00:11Z</time>
   </trkpt>
   <trkpt lat="-3.1898100" lon="37.2794010">
    <ele>1659.2</ele>
    <time>2026-06-20T10:00:12Z</time>
   </trkpt>
   <trkpt lat="-3.1898100" lon="37.2794010">
    <ele>1659.2</ele>
    <time>2026-06-20T10:00:13Z</time>
   </trkpt>
   <trkpt lat="-3.1898100" lon="37.2794010">
    <ele>1659.2</ele>
    <time>2026-06-20T10:00:14Z</time>
   </trkpt>
   <trkpt lat="-3.1898150" lon="37.2794010">
    <ele>1659.2</ele>
    <time>2026-06-20T10:00:15Z</time>
   </trkpt>
   <trkpt lat="-3.1898150" lon="37.2794010">
    <ele>1659.2</ele>
    <time>2026-06-20T10:00:16Z</time>
   </trkpt>
   <trkpt lat="-3.1898150" lon="37.2794020">
    <ele>1659.2</ele>
    <time>2026-06-20T10:00:17Z</time>
   </trkpt>
   <trkpt lat="-3.1898160" lon="37.2794010">
    <ele>1659.2</ele>
    <time>2026-06-20T10:00:18Z</time>
   </trkpt>
   <trkpt lat="-3.1898160" lon="37.2794010">
    <ele>1659.2</ele>
    <time>2026-06-20T10:00:19Z</time>
   </trkpt>
   <trkpt lat="-3.1898150" lon="37.2794040">
    <ele>1659.2</ele>
    <time>2026-06-20T10:00:20Z</time>
   </trkpt>
   <trkpt lat="-3.1898150" lon="37.2794060">
    <ele>1659.2</ele>
    <time>2026-06-20T10:00:21Z</time>
   </trkpt>
   <trkpt lat="-3.1898130" lon="37.2794080">
    <ele>1659.2</ele>
    <time>2026-06-20T10:00:22Z</time>
   </trkpt>
   <trkpt lat="-3.1898130" lon="37.2794080">
    <ele>1659.2</ele>
    <time>2026-06-20T10:00:23Z</time>
   </trkpt>
   <trkpt lat="-3.1898140" lon="37.2794090">
    <ele>1659.2</ele>
    <time>2026-06-20T10:00:24Z</time>
   </trkpt>
   <trkpt lat="-3.1898160" lon="37.2794100">
    <ele>1659.2</ele>
    <time>2026-06-20T10:00:25Z</time>
   </trkpt>
   <trkpt lat="-3.1898170" lon="37.2794120">
    <ele>1659.2</ele>
    <time>2026-06-20T10:00:26Z</time>
   </trkpt>
   <trkpt lat="-3.1898170" lon="37.2794120">
    <ele>1659.2</ele>
    <time>2026-06-20T10:00:27Z</time>
   </trkpt>
   <trkpt lat="-3.1898160" lon="37.2794150">
    <ele>1659.2</ele>
    <time>2026-06-20T10:00:28Z</time>
   </trkpt>
   <trkpt lat="-3.1898180" lon="37.2794140">
    <ele>1659.2</ele>
    <time>2026-06-20T10:00:29Z</time>
   </trkpt>
   <trkpt lat="-3.1898190" lon="37.2794110">
    <ele>1659.2</ele>
    <time>2026-06-20T10:00:30Z</time>
   </trkpt>
   <trkpt lat="-3.1898250" lon="37.2794160">
    <ele>1659.2</ele>
    <time>2026-06-20T10:00:31Z</time>
   </trkpt>
   <trkpt lat="-3.1898240" lon="37.2794240">
    <ele>1659.2</ele>
    <time>2026-06-20T10:00:32Z</time>
   </trkpt>
   <trkpt lat="-3.1898250" lon="37.2794330">
    <ele>1659.2</ele>
    <time>2026-06-20T10:00:33Z</time>
   </trkpt>
   <trkpt lat="-3.1898250" lon="37.2794370">
    <ele>1659.2</ele>
    <time>2026-06-20T10:00:34Z</time>
   </trkpt>
   <trkpt lat="-3.1898270" lon="37.2794370">
    <ele>1659.2</ele>
    <time>2026-06-20T10:00:35Z</time>
   </trkpt>
   <trkpt lat="-3.1898260" lon="37.2794360">
    <ele>1659.2</ele>
    <time>2026-06-20T10:00:36Z</time>
   </trkpt>
   <trkpt lat="-3.1898250" lon="37.2794360">
    <ele>1659.2</ele>
    <time>2026-06-20T10:00:37Z</time>
   </trkpt>
   <trkpt lat="-3.1898250" lon="37.2794360">
    <ele>1659.2</ele>
    <time>2026-06-20T10:00:38Z</time>
   </trkpt>
   <trkpt lat="-3.1898190" lon="37.2794390">
    <ele>1659.2</ele>
    <time>2026-06-20T10:00:39Z</time>
   </trkpt>
   <trkpt lat="-3.1898060" lon="37.2794440">
    <ele>1659.2</ele>
    <time>2026-06-20T10:00:40Z</time>
   </trkpt>
   <trkpt lat="-3.1898010" lon="37.2794400">
    <ele>1659.2</ele>
    <time>2026-06-20T10:00:41Z</time>
   </trkpt>
   <trkpt lat="-3.1897960" lon="37.2794410">
    <ele>1659.2</ele>
    <time>2026-06-20T10:00:42Z</time>
   </trkpt>
   <trkpt lat="-3.1897830" lon="37.2794310">
    <ele>1659.2</ele>
    <time>2026-06-20T10:00:43Z</time>
   </trkpt>
   <trkpt lat="-3.1897860" lon="37.2794320">
    <ele>1659.2</ele>
    <time>2026-06-20T10:00:44Z</time>
   </trkpt>
   <trkpt lat="-3.1897860" lon="37.2794320">
    <ele>1659.2</ele>
    <time>2026-06-20T10:00:45Z</time>
   </trkpt>
   <trkpt lat="-3.1897860" lon="37.2794320">
    <ele>1659.2</ele>
    <time>2026-06-20T10:00:46Z</time>
   </trkpt>
   <trkpt lat="-3.1897860" lon="37.2794320">
    <ele>1659.2</ele>
    <time>2026-06-20T10:00:47Z</time>
   </trkpt>
   <trkpt lat="-3.1897860" lon="37.2794320">
    <ele>1659.2</ele>
    <time>2026-06-20T10:00:48Z</time>
   </trkpt>
   <trkpt lat="-3.1897860" lon="37.2794320">
    <ele>1659.2</ele>
    <time>2026-06-20T10:00:49Z</time>
   </trkpt>
   <trkpt lat="-3.1897860" lon="37.2794320">
    <ele>1659.2</ele>
    <time>2026-06-20T10:00:50Z</time>
   </trkpt>
   <trkpt lat="-3.1897860" lon="37.2794320">
    <ele>1659.2</ele>
    <time>2026-06-20T10:00:51Z</time>
   </trkpt>
   <trkpt lat="-3.1897860" lon="37.2794320">
    <ele>1659.2</ele>
    <time>2026-06-20T10:00:52Z</time>
   </trkpt>
   <trkpt lat="-3.1897860" lon="37.2794320">
    <ele>1659.2</ele>
    <time>2026-06-20T10:00:53Z</time>
   </trkpt>
   <trkpt lat="-3.1897860" lon="37.2794320">
    <ele>1659.2</ele>
    <time>2026-06-20T10:00:54Z</time>
   </trkpt>
   <trkpt lat="-3.1897860" lon="37.2794320">
    <ele>1659.2</ele>
    <time>2026-06-20T10:00:55Z</time>
   </trkpt>
   <trkpt lat="-3.1897860" lon="37.2794320">
    <ele>1659.2</ele>
    <time>2026-06-20T10:00:56Z</time>
   </trkpt>
   <trkpt lat="-3.1897860" lon="37.2794320">
    <ele>1659.2</ele>
    <time>2026-06-20T10:00:57Z</time>
   </trkpt>
   <trkpt lat="-3.1897860" lon="37.2794320">
    <ele>1659.2</ele>
    <time>2026-06-20T10:00:58Z</time>
   </trkpt>
   <trkpt lat="-3.1897870" lon="37.2794350">
    <ele>1659.2</ele>
    <time>2026-06-20T10:00:59Z</time>
   </trkpt>
   <trkpt lat="-3.1897870" lon="37.2794360">
    <ele>1659.2</ele>
    <time>2026-06-20T10:01:00Z</time>
   </trkpt>
   <trkpt lat="-3.1897910" lon="37.2794350">
    <ele>1659.2</ele>
    <time>2026-06-20T10:01:01Z</time>
   </trkpt>
   <trkpt lat="-3.1897980" lon="37.2794350">
    <ele>1659.2</ele>
    <time>2026-06-20T10:01:02Z</time>
   </trkpt>
   <trkpt lat="-3.1897970" lon="37.2794350">
    <ele>1659.2</ele>
    <time>2026-06-20T10:01:03Z</time>
   </trkpt>
   <trkpt lat="-3.1897990" lon="37.2794340">
    <ele>1659.2</ele>
    <time>2026-06-20T10:01:04Z</time>
   </trkpt>
   <trkpt lat="-3.1898010" lon="37.2794330">
    <ele>1659.2</ele>
    <time>2026-06-20T10:01:05Z</time>
   </trkpt>
   <trkpt lat="-3.1898010" lon="37.2794330">
    <ele>1659.2</ele>
    <time>2026-06-20T10:01:06Z</time>
   </trkpt>
   <trkpt lat="-3.1898010" lon="37.2794330">
    <ele>1659.2</ele>
    <time>2026-06-20T10:01:07Z</time>
   </trkpt>
   <trkpt lat="-3.1898080" lon="37.2794290">
    <ele>1659.2</ele>
    <time>2026-06-20T10:01:08Z</time>
   </trkpt>
   <trkpt lat="-3.1898080" lon="37.2794290">
    <ele>1659.2</ele>
    <time>2026-06-20T10:01:09Z</time>
   </trkpt>
   <trkpt lat="-3.1898080" lon="37.2794290">
    <ele>1659.2</ele>
    <time>2026-06-20T10:01:10Z</time>
   </trkpt>
   <trkpt lat="-3.1898080" lon="37.2794290">
    <ele>1659.2</ele>
    <time>2026-06-20T10:01:11Z</time>
   </trkpt>
   <trkpt lat="-3.1898080" lon="37.2794290">
    <ele>1659.2</ele>
    <time>2026-06-20T10:01:12Z</time>
   </trkpt>
   <trkpt lat="-3.1898080" lon="37.2794290">
    <ele>1659.2</ele>
    <time>2026-06-20T10:01:13Z</time>
   </trkpt>
   <trkpt lat="-3.1898050" lon="37.2794320">
    <ele>1659.2</ele>
    <time>2026-06-20T10:01:14Z</time>
   </trkpt>
   <trkpt lat="-3.1898060" lon="37.2794320">
    <ele>1659.2</ele>
    <time>2026-06-20T10:01:15Z</time>
   </trkpt>
   <trkpt lat="-3.1898050" lon="37.2794310">
    <ele>1659.2</ele>
    <time>2026-06-20T10:01:16Z</time>
   </trkpt>
   <trkpt lat="-3.1898080" lon="37.2794260">
    <ele>1659.1</ele>
    <time>2026-06-20T10:01:17Z</time>
   </trkpt>
   <trkpt lat="-3.1898110" lon="37.2794270">
    <ele>1659.1</ele>
    <time>2026-06-20T10:01:18Z</time>
   </trkpt>
   <trkpt lat="-3.1898070" lon="37.2794280">
    <ele>1659.1</ele>
    <time>2026-06-20T10:01:19Z</time>
   </trkpt>
   <trkpt lat="-3.1898040" lon="37.2794290">
    <ele>1659.1</ele>
    <time>2026-06-20T10:01:20Z</time>
   </trkpt>
   <trkpt lat="-3.1898050" lon="37.2794300">
    <ele>1659.1</ele>
    <time>2026-06-20T10:01:21Z</time>
   </trkpt>
   <trkpt lat="-3.1898060" lon="37.2794300">
    <ele>1659.1</ele>
    <time>2026-06-20T10:01:22Z</time>
   </trkpt>
   <trkpt lat="-3.1898080" lon="37.2794300">
    <ele>1659.1</ele>
    <time>2026-06-20T10:01:23Z</time>
   </trkpt>
   <trkpt lat="-3.1898070" lon="37.2794330">
    <ele>1659.1</ele>
    <time>2026-06-20T10:01:24Z</time>
   </trkpt>
   <trkpt lat="-3.1898110" lon="37.2794350">
    <ele>1659.1</ele>
    <time>2026-06-20T10:01:25Z</time>
   </trkpt>
   <trkpt lat="-3.1898210" lon="37.2794400">
    <ele>1659.1</ele>
    <time>2026-06-20T10:01:26Z</time>
   </trkpt>
   <trkpt lat="-3.1898140" lon="37.2794470">
    <ele>1659.1</ele>
    <time>2026-06-20T10:01:27Z</time>
   </trkpt>
   <trkpt lat="-3.1898120" lon="37.2794460">
    <ele>1659.1</ele>
    <time>2026-06-20T10:01:28Z</time>
   </trkpt>
   <trkpt lat="-3.1898120" lon="37.2794450">
    <ele>1659.1</ele>
    <time>2026-06-20T10:01:29Z</time>
   </trkpt>
   <trkpt lat="-3.1898100" lon="37.2794520">
    <ele>1659.1</ele>
    <time>2026-06-20T10:01:30Z</time>
   </trkpt>
   <trkpt lat="-3.1898140" lon="37.2794550">
    <ele>1659.1</ele>
    <time>2026-06-20T10:01:31Z</time>
   </trkpt>
   <trkpt lat="-3.1898190" lon="37.2794600">
    <ele>1659.1</ele>
    <time>2026-06-20T10:01:32Z</time>
   </trkpt>
   <trkpt lat="-3.1898160" lon="37.2794610">
    <ele>1659.1</ele>
    <time>2026-06-20T10:01:33Z</time>
   </trkpt>
   <trkpt lat="-3.1898170" lon="37.2794650">
    <ele>1659.1</ele>
    <time>2026-06-20T10:01:34Z</time>
   </trkpt>
   <trkpt lat="-3.1898160" lon="37.2794750">
    <ele>1659.1</ele>
    <time>2026-06-20T10:01:35Z</time>
   </trkpt>
   <trkpt lat="-3.1898200" lon="37.2794910">
    <ele>1659.1</ele>
    <time>2026-06-20T10:01:36Z</time>
   </trkpt>
   <trkpt lat="-3.1898220" lon="37.2795100">
    <ele>1659.1</ele>
    <time>2026-06-20T10:01:37Z</time>
   </trkpt>
   <trkpt lat="-3.1898270" lon="37.2795190">
    <ele>1659.1</ele>
    <time>2026-06-20T10:01:38Z</time>
   </trkpt>
   <trkpt lat="-3.1898260" lon="37.2795300">
    <ele>1659.1</ele>
    <time>2026-06-20T10:01:39Z</time>
   </trkpt>
   <trkpt lat="-3.1898290" lon="37.2795350">
    <ele>1659.1</ele>
    <time>2026-06-20T10:01:40Z</time>
   </trkpt>
   <trkpt lat="-3.1898280" lon="37.2795310">
    <ele>1659.1</ele>
    <time>2026-06-20T10:01:41Z</time>
   </trkpt>
   <trkpt lat="-3.1898230" lon="37.2795360">
    <ele>1659.1</ele>
    <time>2026-06-20T10:01:42Z</time>
   </trkpt>
   <trkpt lat="-3.1898220" lon="37.2795350">
    <ele>1659.1</ele>
    <time>2026-06-20T10:01:43Z</time>
   </trkpt>
   <trkpt lat="-3.1898210" lon="37.2795340">
    <ele>1659.1</ele>
    <time>2026-06-20T10:01:44Z</time>
   </trkpt>
   <trkpt lat="-3.1898190" lon="37.2795370">
    <ele>1659.1</ele>
    <time>2026-06-20T10:01:45Z</time>
   </trkpt>
   <trkpt lat="-3.1898190" lon="37.2795360">
    <ele>1659.1</ele>
    <time>2026-06-20T10:01:46Z</time>
   </trkpt>
   <trkpt lat="-3.1898190" lon="37.2795360">
    <ele>1659.1</ele>
    <time>2026-06-20T10:01:47Z</time>
   </trkpt>
   <trkpt lat="-3.1898190" lon="37.2795360">
    <ele>1659.1</ele>
    <time>2026-06-20T10:01:48Z</time>
   </trkpt>
   <trkpt lat="-3.1898190" lon="37.2795360">
    <ele>1659.1</ele>
    <time>2026-06-20T10:01:49Z</time>
   </trkpt>
   <trkpt lat="-3.1898150" lon="37.2795380">
    <ele>1659.1</ele>
    <time>2026-06-20T10:01:50Z</time>
   </trkpt>
   <trkpt lat="-3.1898150" lon="37.2795380">
    <ele>1659.1</ele>
    <time>2026-06-20T10:01:51Z</time>
   </trkpt>
   <trkpt lat="-3.1898160" lon="37.2795380">
    <ele>1659.1</ele>
    <time>2026-06-20T10:01:52Z</time>
   </trkpt>
   <trkpt lat="-3.1898150" lon="37.2795390">
    <ele>1659.1</ele>
    <time>2026-06-20T10:01:53Z</time>
   </trkpt>
   <trkpt lat="-3.1898150" lon="37.2795390">
    <ele>1659.1</ele>
    <time>2026-06-20T10:01:54Z</time>
   </trkpt>
   <trkpt lat="-3.1898140" lon="37.2795410">
    <ele>1659.1</ele>
    <time>2026-06-20T10:01:55Z</time>
   </trkpt>
   <trkpt lat="-3.1898140" lon="37.2795420">
    <ele>1659.1</ele>
    <time>2026-06-20T10:01:56Z</time>
   </trkpt>
   <trkpt lat="-3.1898130" lon="37.2795420">
    <ele>1659.1</ele>
    <time>2026-06-20T10:01:57Z</time>
   </trkpt>
   <trkpt lat="-3.1898140" lon="37.2795400">
    <ele>1659.1</ele>
    <time>2026-06-20T10:01:58Z</time>
   </trkpt>
   <trkpt lat="-3.1898150" lon="37.2795420">
    <ele>1659.1</ele>
    <time>2026-06-20T10:01:59Z</time>
   </trkpt>
   <trkpt lat="-3.1898150" lon="37.2795400">
    <ele>1659.1</ele>
    <time>2026-06-20T10:02:00Z</time>
   </trkpt>
   <trkpt lat="-3.1898150" lon="37.2795410">
    <ele>1659.1</ele>
    <time>2026-06-20T10:02:01Z</time>
   </trkpt>
   <trkpt lat="-3.1898180" lon="37.2795410">
    <ele>1659.1</ele>
    <time>2026-06-20T10:02:02Z</time>
   </trkpt>
   <trkpt lat="-3.1898220" lon="37.2795530">
    <ele>1659.0</ele>
    <time>2026-06-20T10:02:03Z</time>
   </trkpt>
   <trkpt lat="-3.1898210" lon="37.2795460">
    <ele>1659.0</ele>
    <time>2026-06-20T10:02:04Z</time>
   </trkpt>
   <trkpt lat="-3.1898190" lon="37.2795450">
    <ele>1659.0</ele>
    <time>2026-06-20T10:02:05Z</time>
   </trkpt>
   <trkpt lat="-3.1898180" lon="37.2795430">
    <ele>1659.0</ele>
    <time>2026-06-20T10:02:06Z</time>
   </trkpt>
   <trkpt lat="-3.1898200" lon="37.2795440">
    <ele>1659.0</ele>
    <time>2026-06-20T10:02:07Z</time>
   </trkpt>
   <trkpt lat="-3.1898190" lon="37.2795460">
    <ele>1659.0</ele>
    <time>2026-06-20T10:02:08Z</time>
   </trkpt>
   <trkpt lat="-3.1898170" lon="37.2795480">
    <ele>1659.0</ele>
    <time>2026-06-20T10:02:09Z</time>
   </trkpt>
   <trkpt lat="-3.1898170" lon="37.2795480">
    <ele>1659.0</ele>
    <time>2026-06-20T10:02:11Z</time>
   </trkpt>
   <trkpt lat="-3.1898140" lon="37.2795520">
    <ele>1659.0</ele>
    <time>2026-06-20T10:02:12Z</time>
   </trkpt>
   <trkpt lat="-3.1898240" lon="37.2795580">
    <ele>1659.0</ele>
    <time>2026-06-20T10:02:13Z</time>
   </trkpt>
   <trkpt lat="-3.1898310" lon="37.2795620">
    <ele>1659.0</ele>
    <time>2026-06-20T10:02:14Z</time>
   </trkpt>
   <trkpt lat="-3.1898260" lon="37.2795740">
    <ele>1659.0</ele>
    <time>2026-06-20T10:02:15Z</time>
   </trkpt>
   <trkpt lat="-3.1898230" lon="37.2795750">
    <ele>1659.0</ele>
    <time>2026-06-20T10:02:16Z</time>
   </trkpt>
   <trkpt lat="-3.1898240" lon="37.2795730">
    <ele>1659.0</ele>
    <time>2026-06-20T10:02:17Z</time>
   </trkpt>
   <trkpt lat="-3.1898260" lon="37.2795730">
    <ele>1659.0</ele>
    <time>2026-06-20T10:02:18Z</time>
   </trkpt>
   <trkpt lat="-3.1898290" lon="37.2795710">
    <ele>1659.0</ele>
    <time>2026-06-20T10:02:19Z</time>
   </trkpt>
   <trkpt lat="-3.1898290" lon="37.2795710">
    <ele>1659.0</ele>
    <time>2026-06-20T10:02:20Z</time>
   </trkpt>
   <trkpt lat="-3.1898310" lon="37.2795700">
    <ele>1659.0</ele>
    <time>2026-06-20T10:02:21Z</time>
   </trkpt>
   <trkpt lat="-3.1898320" lon="37.2795700">
    <ele>1659.0</ele>
    <time>2026-06-20T10:02:22Z</time>
   </trkpt>
   <trkpt lat="-3.1898360" lon="37.2795650">
    <ele>1659.0</ele>
    <time>2026-06-20T10:02:23Z</time>
   </trkpt>
   <trkpt lat="-3.1898360" lon="37.2795670">
    <ele>1659.0</ele>
    <time>2026-06-20T10:02:24Z</time>
   </trkpt>
   <trkpt lat="-3.1898370" lon="37.2795660">
    <ele>1659.0</ele>
    <time>2026-06-20T10:02:25Z</time>
   </trkpt>
   <trkpt lat="-3.1898410" lon="37.2795660">
    <ele>1659.0</ele>
    <time>2026-06-20T10:02:26Z</time>
   </trkpt>
   <trkpt lat="-3.1898420" lon="37.2795650">
    <ele>1659.0</ele>
    <time>2026-06-20T10:02:27Z</time>
   </trkpt>
   <trkpt lat="-3.1898430" lon="37.2795620">
    <ele>1659.0</ele>
    <time>2026-06-20T10:02:28Z</time>
   </trkpt>
   <trkpt lat="-3.1898430" lon="37.2795610">
    <ele>1659.0</ele>
    <time>2026-06-20T10:02:29Z</time>
   </trkpt>
   <trkpt lat="-3.1898430" lon="37.2795600">
    <ele>1659.0</ele>
    <time>2026-06-20T10:02:30Z</time>
   </trkpt>
   <trkpt lat="-3.1898430" lon="37.2795610">
    <ele>1659.0</ele>
    <time>2026-06-20T10:02:31Z</time>
   </trkpt>
   <trkpt lat="-3.1898460" lon="37.2795590">
    <ele>1659.0</ele>
    <time>2026-06-20T10:02:32Z</time>
   </trkpt>
   <trkpt lat="-3.1898470" lon="37.2795570">
    <ele>1659.0</ele>
    <time>2026-06-20T10:02:33Z</time>
   </trkpt>
   <trkpt lat="-3.1898480" lon="37.2795570">
    <ele>1659.0</ele>
    <time>2026-06-20T10:02:34Z</time>
   </trkpt>
   <trkpt lat="-3.1898490" lon="37.2795550">
    <ele>1659.0</ele>
    <time>2026-06-20T10:02:35Z</time>
   </trkpt>
   <trkpt lat="-3.1898500" lon="37.2795550">
    <ele>1659.0</ele>
    <time>2026-06-20T10:02:36Z</time>
   </trkpt>
   <trkpt lat="-3.1898500" lon="37.2795540">
    <ele>1659.0</ele>
    <time>2026-06-20T10:02:37Z</time>
   </trkpt>
   <trkpt lat="-3.1898500" lon="37.2795540">
    <ele>1659.0</ele>
    <time>2026-06-20T10:02:38Z</time>
   </trkpt>
   <trkpt lat="-3.1898500" lon="37.2795540">
    <ele>1659.0</ele>
    <time>2026-06-20T10:02:39Z</time>
   </trkpt>
   <trkpt lat="-3.1898510" lon="37.2795520">
    <ele>1659.0</ele>
    <time>2026-06-20T10:02:40Z</time>
   </trkpt>
   <trkpt lat="-3.1898530" lon="37.2795480">
    <ele>1659.0</ele>
    <time>2026-06-20T10:02:41Z</time>
   </trkpt>
   <trkpt lat="-3.1898570" lon="37.2795400">
    <ele>1659.0</ele>
    <time>2026-06-20T10:02:42Z</time>
   </trkpt>
   <trkpt lat="-3.1898600" lon="37.2795310">
    <ele>1659.0</ele>
    <time>2026-06-20T10:02:43Z</time>
   </trkpt>
   <trkpt lat="-3.1898630" lon="37.2795230">
    <ele>1659.0</ele>
    <time>2026-06-20T10:02:44Z</time>
   </trkpt>
   <trkpt lat="-3.1898640" lon="37.2795140">
    <ele>1659.0</ele>
    <time>2026-06-20T10:02:45Z</time>
   </trkpt>
   <trkpt lat="-3.1898690" lon="37.2795120">
    <ele>1659.0</ele>
    <time>2026-06-20T10:02:46Z</time>
   </trkpt>
   <trkpt lat="-3.1898640" lon="37.2795170">
    <ele>1659.0</ele>
    <time>2026-06-20T10:02:47Z</time>
   </trkpt>
   <trkpt lat="-3.1898680" lon="37.2795200">
    <ele>1659.0</ele>
    <time>2026-06-20T10:02:48Z</time>
   </trkpt>
   <trkpt lat="-3.1898740" lon="37.2795140">
    <ele>1659.0</ele>
    <time>2026-06-20T10:02:49Z</time>
   </trkpt>
   <trkpt lat="-3.1898750" lon="37.2795160">
    <ele>1659.0</ele>
    <time>2026-06-20T10:02:50Z</time>
   </trkpt>
   <trkpt lat="-3.1898740" lon="37.2795200">
    <ele>1659.0</ele>
    <time>2026-06-20T10:02:51Z</time>
   </trkpt>
   <trkpt lat="-3.1898710" lon="37.2795270">
    <ele>1658.9</ele>
    <time>2026-06-20T10:02:52Z</time>
   </trkpt>
   <trkpt lat="-3.1898660" lon="37.2795330">
    <ele>1658.9</ele>
    <time>2026-06-20T10:02:53Z</time>
   </trkpt>
   <trkpt lat="-3.1898650" lon="37.2795390">
    <ele>1658.9</ele>
    <time>2026-06-20T10:02:54Z</time>
   </trkpt>
   <trkpt lat="-3.1898600" lon="37.2795520">
    <ele>1658.9</ele>
    <time>2026-06-20T10:02:55Z</time>
   </trkpt>
   <trkpt lat="-3.1898540" lon="37.2795590">
    <ele>1658.9</ele>
    <time>2026-06-20T10:02:56Z</time>
   </trkpt>
   <trkpt lat="-3.1898530" lon="37.2795590">
    <ele>1658.9</ele>
    <time>2026-06-20T10:02:57Z</time>
   </trkpt>
   <trkpt lat="-3.1898530" lon="37.2795590">
    <ele>1658.9</ele>
    <time>2026-06-20T10:02:58Z</time>
   </trkpt>
   <trkpt lat="-3.1898530" lon="37.2795600">
    <ele>1658.9</ele>
    <time>2026-06-20T10:02:59Z</time>
   </trkpt>
   <trkpt lat="-3.1898520" lon="37.2795600">
    <ele>1658.9</ele>
    <time>2026-06-20T10:03:00Z</time>
   </trkpt>
   <trkpt lat="-3.1898530" lon="37.2795610">
    <ele>1658.9</ele>
    <time>2026-06-20T10:03:01Z</time>
   </trkpt>
   <trkpt lat="-3.1898540" lon="37.2795600">
    <ele>1658.9</ele>
    <time>2026-06-20T10:03:02Z</time>
   </trkpt>
   <trkpt lat="-3.1898540" lon="37.2795600">
    <ele>1658.9</ele>
    <time>2026-06-20T10:03:03Z</time>
   </trkpt>
   <trkpt lat="-3.1898540" lon="37.2795600">
    <ele>1658.9</ele>
    <time>2026-06-20T10:03:04Z</time>
   </trkpt>
   <trkpt lat="-3.1898550" lon="37.2795590">
    <ele>1658.9</ele>
    <time>2026-06-20T10:03:05Z</time>
   </trkpt>
   <trkpt lat="-3.1898540" lon="37.2795590">
    <ele>1658.9</ele>
    <time>2026-06-20T10:03:06Z</time>
   </trkpt>
   <trkpt lat="-3.1898550" lon="37.2795590">
    <ele>1658.9</ele>
    <time>2026-06-20T10:03:07Z</time>
   </trkpt>
   <trkpt lat="-3.1898560" lon="37.2795580">
    <ele>1658.9</ele>
    <time>2026-06-20T10:03:08Z</time>
   </trkpt>
   <trkpt lat="-3.1898560" lon="37.2795570">
    <ele>1658.9</ele>
    <time>2026-06-20T10:03:09Z</time>
   </trkpt>
   <trkpt lat="-3.1898560" lon="37.2795570">
    <ele>1658.9</ele>
    <time>2026-06-20T10:03:10Z</time>
   </trkpt>
   <trkpt lat="-3.1898570" lon="37.2795560">
    <ele>1658.9</ele>
    <time>2026-06-20T10:03:11Z</time>
   </trkpt>
   <trkpt lat="-3.1898570" lon="37.2795560">
    <ele>1658.9</ele>
    <time>2026-06-20T10:03:12Z</time>
   </trkpt>
   <trkpt lat="-3.1898570" lon="37.2795560">
    <ele>1658.9</ele>
    <time>2026-06-20T10:03:13Z</time>
   </trkpt>
   <trkpt lat="-3.1898570" lon="37.2795550">
    <ele>1658.9</ele>
    <time>2026-06-20T10:03:14Z</time>
   </trkpt>
   <trkpt lat="-3.1898580" lon="37.2795530">
    <ele>1658.9</ele>
    <time>2026-06-20T10:03:15Z</time>
   </trkpt>
   <trkpt lat="-3.1898580" lon="37.2795530">
    <ele>1658.9</ele>
    <time>2026-06-20T10:03:16Z</time>
   </trkpt>
   <trkpt lat="-3.1898580" lon="37.2795530">
    <ele>1658.9</ele>
    <time>2026-06-20T10:03:17Z</time>
   </trkpt>
   <trkpt lat="-3.1898580" lon="37.2795530">
    <ele>1658.9</ele>
    <time>2026-06-20T10:03:18Z</time>
   </trkpt>
   <trkpt lat="-3.1898560" lon="37.2795530">
    <ele>1658.9</ele>
    <time>2026-06-20T10:03:19Z</time>
   </trkpt>
   <trkpt lat="-3.1898560" lon="37.2795540">
    <ele>1658.9</ele>
    <time>2026-06-20T10:03:20Z</time>
   </trkpt>
   <trkpt lat="-3.1898550" lon="37.2795540">
    <ele>1658.9</ele>
    <time>2026-06-20T10:03:21Z</time>
   </trkpt>
   <trkpt lat="-3.1898560" lon="37.2795540">
    <ele>1658.9</ele>
    <time>2026-06-20T10:03:22Z</time>
   </trkpt>
   <trkpt lat="-3.1898560" lon="37.2795530">
    <ele>1658.9</ele>
    <time>2026-06-20T10:03:23Z</time>
   </trkpt>
   <trkpt lat="-3.1898550" lon="37.2795540">
    <ele>1658.9</ele>
    <time>2026-06-20T10:03:24Z</time>
   </trkpt>
   <trkpt lat="-3.1898550" lon="37.2795540">
    <ele>1658.9</ele>
    <time>2026-06-20T10:03:25Z</time>
   </trkpt>
   <trkpt lat="-3.1898560" lon="37.2795540">
    <ele>1658.9</ele>
    <time>2026-06-20T10:03:26Z</time>
   </trkpt>
   <trkpt lat="-3.1898560" lon="37.2795540">
    <ele>1658.9</ele>
    <time>2026-06-20T10:03:27Z</time>
   </trkpt>
   <trkpt lat="-3.1898560" lon="37.2795540">
    <ele>1658.9</ele>
    <time>2026-06-20T10:03:28Z</time>
   </trkpt>
   <trkpt lat="-3.1898560" lon="37.2795540">
    <ele>1658.9</ele>
    <time>2026-06-20T10:03:29Z</time>
   </trkpt>
   <trkpt lat="-3.1898560" lon="37.2795540">
    <ele>1658.9</ele>
    <time>2026-06-20T10:03:30Z</time>
   </trkpt>
   <trkpt lat="-3.1898560" lon="37.2795540">
    <ele>1658.9</ele>
    <time>2026-06-20T10:03:31Z</time>
   </trkpt>
   <trkpt lat="-3.1898560" lon="37.2795540">
    <ele>1658.9</ele>
    <time>2026-06-20T10:03:32Z</time>
   </trkpt>
   <trkpt lat="-3.1898560" lon="37.2795540">
    <ele>1658.9</ele>
    <time>2026-06-20T10:03:33Z</time>
   </trkpt>
   <trkpt lat="-3.1898560" lon="37.2795540">
    <ele>1658.9</ele>
    <time>2026-06-20T10:03:34Z</time>
   </trkpt>
   <trkpt lat="-3.1898560" lon="37.2795540">
    <ele>1658.9</ele>
    <time>2026-06-20T10:03:35Z</time>
   </trkpt>
   <trkpt lat="-3.1898560" lon="37.2795540">
    <ele>1658.9</ele>
    <time>2026-06-20T10:03:36Z</time>
   </trkpt>
   <trkpt lat="-3.1898560" lon="37.2795540">
    <ele>1658.9</ele>
    <time>2026-06-20T10:03:37Z</time>
   </trkpt>
   <trkpt lat="-3.1898560" lon="37.2795540">
    <ele>1658.9</ele>
    <time>2026-06-20T10:03:38Z</time>
   </trkpt>
   <trkpt lat="-3.1898560" lon="37.2795540">
    <ele>1658.9</ele>
    <time>2026-06-20T10:03:39Z</time>
   </trkpt>
   <trkpt lat="-3.1898560" lon="37.2795540">
    <ele>1658.9</ele>
    <time>2026-06-20T10:03:40Z</time>
   </trkpt>
   <trkpt lat="-3.1898560" lon="37.2795540">
    <ele>1658.9</ele>
    <time>2026-06-20T10:03:41Z</time>
   </trkpt>
   <trkpt lat="-3.1898560" lon="37.2795540">
    <ele>1658.9</ele>
    <time>2026-06-20T10:03:42Z</time>
   </trkpt>
   <trkpt lat="-3.1898560" lon="37.2795540">
    <ele>1658.9</ele>
    <time>2026-06-20T10:03:43Z</time>
   </trkpt>
   <trkpt lat="-3.1898560" lon="37.2795540">
    <ele>1658.9</ele>
    <time>2026-06-20T10:03:44Z</time>
   </trkpt>
   <trkpt lat="-3.1898560" lon="37.2795540">
    <ele>1658.9</ele>
    <time>2026-06-20T10:03:45Z</time>
   </trkpt>
   <trkpt lat="-3.1898560" lon="37.2795540">
    <ele>1658.9</ele>
    <time>2026-06-20T10:03:46Z</time>
   </trkpt>
   <trkpt lat="-3.1898590" lon="37.2795510">
    <ele>1658.9</ele>
    <time>2026-06-20T10:03:47Z</time>
   </trkpt>
   <trkpt lat="-3.1898590" lon="37.2795510">
    <ele>1658.9</ele>
    <time>2026-06-20T10:03:48Z</time>
   </trkpt>
   <trkpt lat="-3.1898590" lon="37.2795510">
    <ele>1658.9</ele>
    <time>2026-06-20T10:03:49Z</time>
   </trkpt>
   <trkpt lat="-3.1898590" lon="37.2795510">
    <ele>1658.9</ele>
    <time>2026-06-20T10:03:50Z</time>
   </trkpt>
   <trkpt lat="-3.1898590" lon="37.2795510">
    <ele>1658.9</ele>
    <time>2026-06-20T10:03:51Z</time>
   </trkpt>
   <trkpt lat="-3.1898590" lon="37.2795540">
    <ele>1658.9</ele>
    <time>2026-06-20T10:03:52Z</time>
   </trkpt>
   <trkpt lat="-3.1898600" lon="37.2795530">
    <ele>1658.9</ele>
    <time>2026-06-20T10:03:53Z</time>
   </trkpt>
   <trkpt lat="-3.1898600" lon="37.2795530">
    <ele>1658.9</ele>
    <time>2026-06-20T10:03:54Z</time>
   </trkpt>
   <trkpt lat="-3.1898600" lon="37.2795530">
    <ele>1658.9</ele>
    <time>2026-06-20T10:03:55Z</time>
   </trkpt>
   <trkpt lat="-3.1898600" lon="37.2795530">
    <ele>1658.9</ele>
    <time>2026-06-20T10:03:56Z</time>
   </trkpt>
   <trkpt lat="-3.1898600" lon="37.2795530">
    <ele>1658.9</ele>
    <time>2026-06-20T10:03:57Z</time>
   </trkpt>
   <trkpt lat="-3.1898600" lon="37.2795530">
    <ele>1658.9</ele>
    <time>2026-06-20T10:03:58Z</time>
   </trkpt>
   <trkpt lat="-3.1898600" lon="37.2795530">
    <ele>1658.9</ele>
    <time>2026-06-20T10:03:59Z</time>
   </trkpt>
   <trkpt lat="-3.1898600" lon="37.2795530">
    <ele>1658.9</ele>
    <time>2026-06-20T10:04:00Z</time>
   </trkpt>
   <trkpt lat="-3.1898600" lon="37.2795530">
    <ele>1658.9</ele>
    <time>2026-06-20T10:04:01Z</time>
   </trkpt>
   <trkpt lat="-3.1898610" lon="37.2795590">
    <ele>1658.9</ele>
    <time>2026-06-20T10:04:02Z</time>
   </trkpt>
   <trkpt lat="-3.1898610" lon="37.2795580">
    <ele>1658.9</ele>
    <time>2026-06-20T10:04:03Z</time>
   </trkpt>
   <trkpt lat="-3.1898590" lon="37.2795590">
    <ele>1658.9</ele>
    <time>2026-06-20T10:04:04Z</time>
   </trkpt>
   <trkpt lat="-3.1898590" lon="37.2795590">
    <ele>1658.9</ele>
    <time>2026-06-20T10:04:05Z</time>
   </trkpt>
   <trkpt lat="-3.1898580" lon="37.2795610">
    <ele>1658.9</ele>
    <time>2026-06-20T10:04:06Z</time>
   </trkpt>
   <trkpt lat="-3.1898540" lon="37.2795650">
    <ele>1658.9</ele>
    <time>2026-06-20T10:04:07Z</time>
   </trkpt>
   <trkpt lat="-3.1898570" lon="37.2795650">
    <ele>1658.9</ele>
    <time>2026-06-20T10:04:08Z</time>
   </trkpt>
   <trkpt lat="-3.1898600" lon="37.2795600">
    <ele>1658.9</ele>
    <time>2026-06-20T10:04:09Z</time>
   </trkpt>
   <trkpt lat="-3.1898560" lon="37.2795580">
    <ele>1658.9</ele>
    <time>2026-06-20T10:04:10Z</time>
   </trkpt>
   <trkpt lat="-3.1898560" lon="37.2795580">
    <ele>1658.9</ele>
    <time>2026-06-20T10:04:11Z</time>
   </trkpt>
   <trkpt lat="-3.1898580" lon="37.2795590">
    <ele>1658.9</ele>
    <time>2026-06-20T10:04:12Z</time>
   </trkpt>
   <trkpt lat="-3.1898600" lon="37.2795570">
    <ele>1658.9</ele>
    <time>2026-06-20T10:04:13Z</time>
   </trkpt>
   <trkpt lat="-3.1898600" lon="37.2795560">
    <ele>1658.9</ele>
    <time>2026-06-20T10:04:14Z</time>
   </trkpt>
   <trkpt lat="-3.1898590" lon="37.2795620">
    <ele>1658.9</ele>
    <time>2026-06-20T10:04:15Z</time>
   </trkpt>
   <trkpt lat="-3.1898590" lon="37.2795590">
    <ele>1658.9</ele>
    <time>2026-06-20T10:04:16Z</time>
   </trkpt>
   <trkpt lat="-3.1898690" lon="37.2795600">
    <ele>1658.9</ele>
    <time>2026-06-20T10:04:17Z</time>
   </trkpt>
   <trkpt lat="-3.1898660" lon="37.2795610">
    <ele>1658.9</ele>
    <time>2026-06-20T10:04:18Z</time>
   </trkpt>
   <trkpt lat="-3.1898580" lon="37.2795600">
    <ele>1658.9</ele>
    <time>2026-06-20T10:04:19Z</time>
   </trkpt>
   <trkpt lat="-3.1898560" lon="37.2795610">
    <ele>1658.9</ele>
    <time>2026-06-20T10:04:20Z</time>
   </trkpt>
   <trkpt lat="-3.1898520" lon="37.2795610">
    <ele>1658.9</ele>
    <time>2026-06-20T10:04:21Z</time>
   </trkpt>
   <trkpt lat="-3.1898600" lon="37.2795620">
    <ele>1658.9</ele>
    <time>2026-06-20T10:04:22Z</time>
   </trkpt>
   <trkpt lat="-3.1898540" lon="37.2795680">
    <ele>1658.9</ele>
    <time>2026-06-20T10:04:23Z</time>
   </trkpt>
   <trkpt lat="-3.1898500" lon="37.2795620">
    <ele>1658.9</ele>
    <time>2026-06-20T10:04:24Z</time>
   </trkpt>
   <trkpt lat="-3.1898500" lon="37.2795610">
    <ele>1658.9</ele>
    <time>2026-06-20T10:04:25Z</time>
   </trkpt>
   <trkpt lat="-3.1898460" lon="37.2795590">
    <ele>1658.9</ele>
    <time>2026-06-20T10:04:26Z</time>
   </trkpt>
   <trkpt lat="-3.1898450" lon="37.2795570">
    <ele>1658.9</ele>
    <time>2026-06-20T10:04:27Z</time>
   </trkpt>
   <trkpt lat="-3.1898480" lon="37.2795580">
    <ele>1658.9</ele>
    <time>2026-06-20T10:04:28Z</time>
   </trkpt>
   <trkpt lat="-3.1898470" lon="37.2795560">
    <ele>1658.9</ele>
    <time>2026-06-20T10:04:29Z</time>
   </trkpt>
   <trkpt lat="-3.1898470" lon="37.2795590">
    <ele>1658.9</ele>
    <time>2026-06-20T10:04:30Z</time>
   </trkpt>
   <trkpt lat="-3.1898480" lon="37.2795530">
    <ele>1658.8</ele>
    <time>2026-06-20T10:04:31Z</time>
   </trkpt>
   <trkpt lat="-3.1898480" lon="37.2795570">
    <ele>1658.8</ele>
    <time>2026-06-20T10:04:32Z</time>
   </trkpt>
   <trkpt lat="-3.1898480" lon="37.2795580">
    <ele>1658.8</ele>
    <time>2026-06-20T10:04:33Z</time>
   </trkpt>
   <trkpt lat="-3.1898490" lon="37.2795570">
    <ele>1658.8</ele>
    <time>2026-06-20T10:04:34Z</time>
   </trkpt>
   <trkpt lat="-3.1898450" lon="37.2795590">
    <ele>1658.8</ele>
    <time>2026-06-20T10:04:35Z</time>
   </trkpt>
   <trkpt lat="-3.1898440" lon="37.2795600">
    <ele>1658.8</ele>
    <time>2026-06-20T10:04:36Z</time>
   </trkpt>
   <trkpt lat="-3.1898470" lon="37.2795540">
    <ele>1658.8</ele>
    <time>2026-06-20T10:04:37Z</time>
   </trkpt>
   <trkpt lat="-3.1898520" lon="37.2795530">
    <ele>1658.8</ele>
    <time>2026-06-20T10:04:38Z</time>
   </trkpt>
   <trkpt lat="-3.1898430" lon="37.2795550">
    <ele>1658.8</ele>
    <time>2026-06-20T10:04:39Z</time>
   </trkpt>
   <trkpt lat="-3.1898550" lon="37.2795580">
    <ele>1658.8</ele>
    <time>2026-06-20T10:04:40Z</time>
   </trkpt>
   <trkpt lat="-3.1898550" lon="37.2795540">
    <ele>1658.8</ele>
    <time>2026-06-20T10:04:41Z</time>
   </trkpt>
   <trkpt lat="-3.1898540" lon="37.2795490">
    <ele>1658.8</ele>
    <time>2026-06-20T10:04:42Z</time>
   </trkpt>
   <trkpt lat="-3.1898600" lon="37.2795490">
    <ele>1658.8</ele>
    <time>2026-06-20T10:04:43Z</time>
   </trkpt>
   <trkpt lat="-3.1898600" lon="37.2795520">
    <ele>1658.8</ele>
    <time>2026-06-20T10:04:44Z</time>
   </trkpt>
   <trkpt lat="-3.1898450" lon="37.2795540">
    <ele>1658.8</ele>
    <time>2026-06-20T10:04:45Z</time>
   </trkpt>
   <trkpt lat="-3.1898470" lon="37.2795580">
    <ele>1658.8</ele>
    <time>2026-06-20T10:04:46Z</time>
   </trkpt>
   <trkpt lat="-3.1898520" lon="37.2795630">
    <ele>1658.8</ele>
    <time>2026-06-20T10:04:47Z</time>
   </trkpt>
   <trkpt lat="-3.1898480" lon="37.2795680">
    <ele>1658.8</ele>
    <time>2026-06-20T10:04:48Z</time>
   </trkpt>
   <trkpt lat="-3.1898470" lon="37.2795700">
    <ele>1658.8</ele>
    <time>2026-06-20T10:04:49Z</time>
   </trkpt>
   <trkpt lat="-3.1898420" lon="37.2795770">
    <ele>1658.8</ele>
    <time>2026-06-20T10:04:50Z</time>
   </trkpt>
   <trkpt lat="-3.1898340" lon="37.2795860">
    <ele>1658.8</ele>
    <time>2026-06-20T10:04:51Z</time>
   </trkpt>
   <trkpt lat="-3.1898340" lon="37.2795800">
    <ele>1658.8</ele>
    <time>2026-06-20T10:04:52Z</time>
   </trkpt>
   <trkpt lat="-3.1898310" lon="37.2795830">
    <ele>1658.8</ele>
    <time>2026-06-20T10:04:53Z</time>
   </trkpt>
   <trkpt lat="-3.1898270" lon="37.2795820">
    <ele>1658.8</ele>
    <time>2026-06-20T10:04:54Z</time>
   </trkpt>
   <trkpt lat="-3.1898240" lon="37.2795790">
    <ele>1658.8</ele>
    <time>2026-06-20T10:04:55Z</time>
   </trkpt>
   <trkpt lat="-3.1898210" lon="37.2795770">
    <ele>1658.8</ele>
    <time>2026-06-20T10:04:56Z</time>
   </trkpt>
   <trkpt lat="-3.1898190" lon="37.2795740">
    <ele>1658.8</ele>
    <time>2026-06-20T10:04:57Z</time>
   </trkpt>
   <trkpt lat="-3.1898170" lon="37.2795770">
    <ele>1658.8</ele>
    <time>2026-06-20T10:04:58Z</time>
   </trkpt>
   <trkpt lat="-3.1898210" lon="37.2795760">
    <ele>1658.8</ele>
    <time>2026-06-20T10:04:59Z</time>
   </trkpt>
   <trkpt lat="-3.1898230" lon="37.2795740">
    <ele>1658.8</ele>
    <time>2026-06-20T10:05:00Z</time>
   </trkpt>
   <trkpt lat="-3.1898250" lon="37.2795780">
    <ele>1658.8</ele>
    <time>2026-06-20T10:05:01Z</time>
   </trkpt>
   <trkpt lat="-3.1898270" lon="37.2795780">
    <ele>1658.8</ele>
    <time>2026-06-20T10:05:02Z</time>
   </trkpt>
   <trkpt lat="-3.1898350" lon="37.2795770">
    <ele>1658.8</ele>
    <time>2026-06-20T10:05:03Z</time>
   </trkpt>
   <trkpt lat="-3.1898330" lon="37.2795760">
    <ele>1658.8</ele>
    <time>2026-06-20T10:05:04Z</time>
   </trkpt>
   <trkpt lat="-3.1898330" lon="37.2795770">
    <ele>1658.8</ele>
    <time>2026-06-20T10:05:05Z</time>
   </trkpt>
   <trkpt lat="-3.1898370" lon="37.2795770">
    <ele>1658.8</ele>
    <time>2026-06-20T10:05:06Z</time>
   </trkpt>
   <trkpt lat="-3.1898420" lon="37.2795780">
    <ele>1658.8</ele>
    <time>2026-06-20T10:05:07Z</time>
   </trkpt>
   <trkpt lat="-3.1898400" lon="37.2795780">
    <ele>1658.8</ele>
    <time>2026-06-20T10:05:08Z</time>
   </trkpt>
   <trkpt lat="-3.1898420" lon="37.2795780">
    <ele>1658.7</ele>
    <time>2026-06-20T10:05:09Z</time>
   </trkpt>
   <trkpt lat="-3.1898440" lon="37.2795770">
    <ele>1658.7</ele>
    <time>2026-06-20T10:05:10Z</time>
   </trkpt>
   <trkpt lat="-3.1898460" lon="37.2795750">
    <ele>1658.7</ele>
    <time>2026-06-20T10:05:11Z</time>
   </trkpt>
   <trkpt lat="-3.1898490" lon="37.2795750">
    <ele>1658.7</ele>
    <time>2026-06-20T10:05:12Z</time>
   </trkpt>
   <trkpt lat="-3.1898490" lon="37.2795740">
    <ele>1658.7</ele>
    <time>2026-06-20T10:05:13Z</time>
   </trkpt>
   <trkpt lat="-3.1898490" lon="37.2795740">
    <ele>1658.7</ele>
    <time>2026-06-20T10:05:14Z</time>
   </trkpt>
   <trkpt lat="-3.1898490" lon="37.2795740">
    <ele>1658.7</ele>
    <time>2026-06-20T10:05:15Z</time>
   </trkpt>
   <trkpt lat="-3.1898490" lon="37.2795740">
    <ele>1658.7</ele>
    <time>2026-06-20T10:05:16Z</time>
   </trkpt>
   <trkpt lat="-3.1898460" lon="37.2795730">
    <ele>1658.7</ele>
    <time>2026-06-20T10:05:17Z</time>
   </trkpt>
   <trkpt lat="-3.1898450" lon="37.2795740">
    <ele>1658.7</ele>
    <time>2026-06-20T10:05:18Z</time>
   </trkpt>
   <trkpt lat="-3.1898460" lon="37.2795750">
    <ele>1658.7</ele>
    <time>2026-06-20T10:05:19Z</time>
   </trkpt>
   <trkpt lat="-3.1898440" lon="37.2795760">
    <ele>1658.7</ele>
    <time>2026-06-20T10:05:20Z</time>
   </trkpt>
   <trkpt lat="-3.1898430" lon="37.2795760">
    <ele>1658.7</ele>
    <time>2026-06-20T10:05:21Z</time>
   </trkpt>
   <trkpt lat="-3.1898430" lon="37.2795780">
    <ele>1658.7</ele>
    <time>2026-06-20T10:05:22Z</time>
   </trkpt>
   <trkpt lat="-3.1898440" lon="37.2795780">
    <ele>1658.7</ele>
    <time>2026-06-20T10:05:23Z</time>
   </trkpt>
   <trkpt lat="-3.1898410" lon="37.2795780">
    <ele>1658.7</ele>
    <time>2026-06-20T10:05:24Z</time>
   </trkpt>
   <trkpt lat="-3.1898440" lon="37.2795760">
    <ele>1658.7</ele>
    <time>2026-06-20T10:05:25Z</time>
   </trkpt>
   <trkpt lat="-3.1898430" lon="37.2795750">
    <ele>1658.7</ele>
    <time>2026-06-20T10:05:26Z</time>
   </trkpt>
   <trkpt lat="-3.1898480" lon="37.2795760">
    <ele>1658.7</ele>
    <time>2026-06-20T10:05:27Z</time>
   </trkpt>
   <trkpt lat="-3.1898570" lon="37.2795780">
    <ele>1658.7</ele>
    <time>2026-06-20T10:05:28Z</time>
   </trkpt>
   <trkpt lat="-3.1898600" lon="37.2795840">
    <ele>1658.7</ele>
    <time>2026-06-20T10:05:29Z</time>
   </trkpt>
   <trkpt lat="-3.1898680" lon="37.2795760">
    <ele>1658.7</ele>
    <time>2026-06-20T10:05:30Z</time>
   </trkpt>
   <trkpt lat="-3.1898630" lon="37.2795690">
    <ele>1658.7</ele>
    <time>2026-06-20T10:05:31Z</time>
   </trkpt>
   <trkpt lat="-3.1898600" lon="37.2795710">
    <ele>1658.7</ele>
    <time>2026-06-20T10:05:32Z</time>
   </trkpt>
   <trkpt lat="-3.1898600" lon="37.2795670">
    <ele>1658.7</ele>
    <time>2026-06-20T10:05:33Z</time>
   </trkpt>
   <trkpt lat="-3.1898580" lon="37.2795660">
    <ele>1658.7</ele>
    <time>2026-06-20T10:05:34Z</time>
   </trkpt>
   <trkpt lat="-3.1898590" lon="37.2795670">
    <ele>1658.7</ele>
    <time>2026-06-20T10:05:35Z</time>
   </trkpt>
   <trkpt lat="-3.1898630" lon="37.2795640">
    <ele>1658.7</ele>
    <time>2026-06-20T10:05:36Z</time>
   </trkpt>
   <trkpt lat="-3.1898630" lon="37.2795640">
    <ele>1658.7</ele>
    <time>2026-06-20T10:05:37Z</time>
   </trkpt>
   <trkpt lat="-3.1898630" lon="37.2795640">
    <ele>1658.7</ele>
    <time>2026-06-20T10:05:38Z</time>
   </trkpt>
   <trkpt lat="-3.1898650" lon="37.2795640">
    <ele>1658.7</ele>
    <time>2026-06-20T10:05:39Z</time>
   </trkpt>
   <trkpt lat="-3.1898710" lon="37.2795560">
    <ele>1658.7</ele>
    <time>2026-06-20T10:05:40Z</time>
   </trkpt>
   <trkpt lat="-3.1898690" lon="37.2795530">
    <ele>1658.7</ele>
    <time>2026-06-20T10:05:41Z</time>
   </trkpt>
   <trkpt lat="-3.1898680" lon="37.2795560">
    <ele>1658.7</ele>
    <time>2026-06-20T10:05:42Z</time>
   </trkpt>
   <trkpt lat="-3.1898680" lon="37.2795580">
    <ele>1658.7</ele>
    <time>2026-06-20T10:05:43Z</time>
   </trkpt>
   <trkpt lat="-3.1898710" lon="37.2795530">
    <ele>1658.7</ele>
    <time>2026-06-20T10:05:44Z</time>
   </trkpt>
   <trkpt lat="-3.1898700" lon="37.2795430">
    <ele>1658.7</ele>
    <time>2026-06-20T10:05:45Z</time>
   </trkpt>
   <trkpt lat="-3.1898620" lon="37.2795530">
    <ele>1658.7</ele>
    <time>2026-06-20T10:05:46Z</time>
   </trkpt>
   <trkpt lat="-3.1898620" lon="37.2795510">
    <ele>1658.7</ele>
    <time>2026-06-20T10:05:47Z</time>
   </trkpt>
   <trkpt lat="-3.1898620" lon="37.2795520">
    <ele>1658.7</ele>
    <time>2026-06-20T10:05:48Z</time>
   </trkpt>
   <trkpt lat="-3.1898620" lon="37.2795520">
    <ele>1658.7</ele>
    <time>2026-06-20T10:05:49Z</time>
   </trkpt>
   <trkpt lat="-3.1898610" lon="37.2795510">
    <ele>1658.7</ele>
    <time>2026-06-20T10:05:50Z</time>
   </trkpt>
   <trkpt lat="-3.1898600" lon="37.2795540">
    <ele>1658.7</ele>
    <time>2026-06-20T10:05:51Z</time>
   </trkpt>
   <trkpt lat="-3.1898600" lon="37.2795510">
    <ele>1658.7</ele>
    <time>2026-06-20T10:05:52Z</time>
   </trkpt>
   <trkpt lat="-3.1898600" lon="37.2795520">
    <ele>1658.7</ele>
    <time>2026-06-20T10:05:53Z</time>
   </trkpt>
   <trkpt lat="-3.1898600" lon="37.2795510">
    <ele>1658.7</ele>
    <time>2026-06-20T10:05:54Z</time>
   </trkpt>
   <trkpt lat="-3.1898600" lon="37.2795500">
    <ele>1658.7</ele>
    <time>2026-06-20T10:05:55Z</time>
   </trkpt>
   <trkpt lat="-3.1898580" lon="37.2795520">
    <ele>1658.7</ele>
    <time>2026-06-20T10:05:56Z</time>
   </trkpt>
   <trkpt lat="-3.1898560" lon="37.2795520">
    <ele>1658.7</ele>
    <time>2026-06-20T10:05:57Z</time>
   </trkpt>
   <trkpt lat="-3.1898550" lon="37.2795530">
    <ele>1658.7</ele>
    <time>2026-06-20T10:05:58Z</time>
   </trkpt>
   <trkpt lat="-3.1898540" lon="37.2795520">
    <ele>1658.7</ele>
    <time>2026-06-20T10:05:59Z</time>
   </trkpt>
   <trkpt lat="-3.1898540" lon="37.2795530">
    <ele>1658.7</ele>
    <time>2026-06-20T10:06:00Z</time>
   </trkpt>
   <trkpt lat="-3.1898530" lon="37.2795530">
    <ele>1658.7</ele>
    <time>2026-06-20T10:06:01Z</time>
   </trkpt>
   <trkpt lat="-3.1898540" lon="37.2795530">
    <ele>1658.7</ele>
    <time>2026-06-20T10:06:02Z</time>
   </trkpt>
   <trkpt lat="-3.1898540" lon="37.2795530">
    <ele>1658.7</ele>
    <time>2026-06-20T10:06:03Z</time>
   </trkpt>
   <trkpt lat="-3.1898520" lon="37.2795520">
    <ele>1658.7</ele>
    <time>2026-06-20T10:06:04Z</time>
   </trkpt>
   <trkpt lat="-3.1898520" lon="37.2795520">
    <ele>1658.7</ele>
    <time>2026-06-20T10:06:05Z</time>
   </trkpt>
   <trkpt lat="-3.1898520" lon="37.2795520">
    <ele>1658.7</ele>
    <time>2026-06-20T10:06:06Z</time>
   </trkpt>
   <trkpt lat="-3.1898520" lon="37.2795520">
    <ele>1658.7</ele>
    <time>2026-06-20T10:06:07Z</time>
   </trkpt>
   <trkpt lat="-3.1898520" lon="37.2795520">
    <ele>1658.7</ele>
    <time>2026-06-20T10:06:08Z</time>
   </trkpt>
   <trkpt lat="-3.1898510" lon="37.2795520">
    <ele>1658.7</ele>
    <time>2026-06-20T10:06:09Z</time>
   </trkpt>
   <trkpt lat="-3.1898510" lon="37.2795520">
    <ele>1658.7</ele>
    <time>2026-06-20T10:06:10Z</time>
   </trkpt>
   <trkpt lat="-3.1898510" lon="37.2795520">
    <ele>1658.7</ele>
    <time>2026-06-20T10:06:11Z</time>
   </trkpt>
   <trkpt lat="-3.1898510" lon="37.2795520">
    <ele>1658.7</ele>
    <time>2026-06-20T10:06:12Z</time>
   </trkpt>
   <trkpt lat="-3.1898500" lon="37.2795530">
    <ele>1658.7</ele>
    <time>2026-06-20T10:06:13Z</time>
   </trkpt>
   <trkpt lat="-3.1898480" lon="37.2795550">
    <ele>1658.7</ele>
    <time>2026-06-20T10:06:14Z</time>
   </trkpt>
   <trkpt lat="-3.1898490" lon="37.2795540">
    <ele>1658.7</ele>
    <time>2026-06-20T10:06:15Z</time>
   </trkpt>
   <trkpt lat="-3.1898500" lon="37.2795520">
    <ele>1658.7</ele>
    <time>2026-06-20T10:06:16Z</time>
   </trkpt>
   <trkpt lat="-3.1898480" lon="37.2795540">
    <ele>1658.7</ele>
    <time>2026-06-20T10:06:17Z</time>
   </trkpt>
   <trkpt lat="-3.1898450" lon="37.2795560">
    <ele>1658.7</ele>
    <time>2026-06-20T10:06:18Z</time>
   </trkpt>
   <trkpt lat="-3.1898400" lon="37.2795540">
    <ele>1658.7</ele>
    <time>2026-06-20T10:06:19Z</time>
   </trkpt>
   <trkpt lat="-3.1898380" lon="37.2795550">
    <ele>1658.7</ele>
    <time>2026-06-20T10:06:20Z</time>
   </trkpt>
   <trkpt lat="-3.1898410" lon="37.2795530">
    <ele>1658.7</ele>
    <time>2026-06-20T10:06:21Z</time>
   </trkpt>
   <trkpt lat="-3.1898410" lon="37.2795530">
    <ele>1658.7</ele>
    <time>2026-06-20T10:06:22Z</time>
   </trkpt>
   <trkpt lat="-3.1898370" lon="37.2795530">
    <ele>1658.6</ele>
    <time>2026-06-20T10:06:23Z</time>
   </trkpt>
   <trkpt lat="-3.1898390" lon="37.2795520">
    <ele>1658.6</ele>
    <time>2026-06-20T10:06:24Z</time>
   </trkpt>
   <trkpt lat="-3.1898390" lon="37.2795520">
    <ele>1658.6</ele>
    <time>2026-06-20T10:06:25Z</time>
   </trkpt>
   <trkpt lat="-3.1898350" lon="37.2795560">
    <ele>1658.6</ele>
    <time>2026-06-20T10:06:26Z</time>
   </trkpt>
   <trkpt lat="-3.1898320" lon="37.2795570">
    <ele>1658.6</ele>
    <time>2026-06-20T10:06:27Z</time>
   </trkpt>
   <trkpt lat="-3.1898310" lon="37.2795570">
    <ele>1658.6</ele>
    <time>2026-06-20T10:06:28Z</time>
   </trkpt>
   <trkpt lat="-3.1898320" lon="37.2795570">
    <ele>1658.6</ele>
    <time>2026-06-20T10:06:29Z</time>
   </trkpt>
   <trkpt lat="-3.1898320" lon="37.2795560">
    <ele>1658.6</ele>
    <time>2026-06-20T10:06:30Z</time>
   </trkpt>
   <trkpt lat="-3.1898320" lon="37.2795560">
    <ele>1658.6</ele>
    <time>2026-06-20T10:06:31Z</time>
   </trkpt>
   <trkpt lat="-3.1898320" lon="37.2795550">
    <ele>1658.6</ele>
    <time>2026-06-20T10:06:32Z</time>
   </trkpt>
   <trkpt lat="-3.1898320" lon="37.2795550">
    <ele>1658.6</ele>
    <time>2026-06-20T10:06:33Z</time>
   </trkpt>
   <trkpt lat="-3.1898320" lon="37.2795550">
    <ele>1658.6</ele>
    <time>2026-06-20T10:06:34Z</time>
   </trkpt>
   <trkpt lat="-3.1898330" lon="37.2795540">
    <ele>1658.6</ele>
    <time>2026-06-20T10:06:35Z</time>
   </trkpt>
   <trkpt lat="-3.1898340" lon="37.2795540">
    <ele>1658.6</ele>
    <time>2026-06-20T10:06:36Z</time>
   </trkpt>
   <trkpt lat="-3.1898310" lon="37.2795550">
    <ele>1658.6</ele>
    <time>2026-06-20T10:06:37Z</time>
   </trkpt>
   <trkpt lat="-3.1898320" lon="37.2795550">
    <ele>1658.6</ele>
    <time>2026-06-20T10:06:38Z</time>
   </trkpt>
   <trkpt lat="-3.1898340" lon="37.2795540">
    <ele>1658.6</ele>
    <time>2026-06-20T10:06:39Z</time>
   </trkpt>
   <trkpt lat="-3.1898320" lon="37.2795550">
    <ele>1658.6</ele>
    <time>2026-06-20T10:06:40Z</time>
   </trkpt>
   <trkpt lat="-3.1898290" lon="37.2795560">
    <ele>1658.6</ele>
    <time>2026-06-20T10:06:41Z</time>
   </trkpt>
   <trkpt lat="-3.1898280" lon="37.2795570">
    <ele>1658.6</ele>
    <time>2026-06-20T10:06:42Z</time>
   </trkpt>
   <trkpt lat="-3.1898280" lon="37.2795570">
    <ele>1658.6</ele>
    <time>2026-06-20T10:06:43Z</time>
   </trkpt>
   <trkpt lat="-3.1898300" lon="37.2795540">
    <ele>1658.6</ele>
    <time>2026-06-20T10:06:44Z</time>
   </trkpt>
   <trkpt lat="-3.1898300" lon="37.2795550">
    <ele>1658.6</ele>
    <time>2026-06-20T10:06:45Z</time>
   </trkpt>
   <trkpt lat="-3.1898290" lon="37.2795550">
    <ele>1658.6</ele>
    <time>2026-06-20T10:06:46Z</time>
   </trkpt>
   <trkpt lat="-3.1898320" lon="37.2795540">
    <ele>1658.6</ele>
    <time>2026-06-20T10:06:47Z</time>
   </trkpt>
   <trkpt lat="-3.1898330" lon="37.2795550">
    <ele>1658.6</ele>
    <time>2026-06-20T10:06:48Z</time>
   </trkpt>
   <trkpt lat="-3.1898330" lon="37.2795540">
    <ele>1658.6</ele>
    <time>2026-06-20T10:06:49Z</time>
   </trkpt>
   <trkpt lat="-3.1898330" lon="37.2795560">
    <ele>1658.6</ele>
    <time>2026-06-20T10:06:50Z</time>
   </trkpt>
   <trkpt lat="-3.1898330" lon="37.2795550">
    <ele>1658.6</ele>
    <time>2026-06-20T10:06:51Z</time>
   </trkpt>
   <trkpt lat="-3.1898330" lon="37.2795580">
    <ele>1658.6</ele>
    <time>2026-06-20T10:06:52Z</time>
   </trkpt>
   <trkpt lat="-3.1898310" lon="37.2795630">
    <ele>1658.6</ele>
    <time>2026-06-20T10:06:53Z</time>
   </trkpt>
   <trkpt lat="-3.1898350" lon="37.2795600">
    <ele>1658.6</ele>
    <time>2026-06-20T10:06:54Z</time>
   </trkpt>
   <trkpt lat="-3.1898360" lon="37.2795600">
    <ele>1658.6</ele>
    <time>2026-06-20T10:06:55Z</time>
   </trkpt>
   <trkpt lat="-3.1898360" lon="37.2795630">
    <ele>1658.6</ele>
    <time>2026-06-20T10:06:56Z</time>
   </trkpt>
   <trkpt lat="-3.1898370" lon="37.2795640">
    <ele>1658.6</ele>
    <time>2026-06-20T10:06:57Z</time>
   </trkpt>
   <trkpt lat="-3.1898360" lon="37.2795640">
    <ele>1658.6</ele>
    <time>2026-06-20T10:06:58Z</time>
   </trkpt>
   <trkpt lat="-3.1898360" lon="37.2795640">
    <ele>1658.6</ele>
    <time>2026-06-20T10:06:59Z</time>
   </trkpt>
   <trkpt lat="-3.1898340" lon="37.2795640">
    <ele>1658.6</ele>
    <time>2026-06-20T10:07:00Z</time>
   </trkpt>
   <trkpt lat="-3.1898320" lon="37.2795630">
    <ele>1658.6</ele>
    <time>2026-06-20T10:07:01Z</time>
   </trkpt>
   <trkpt lat="-3.1898320" lon="37.2795640">
    <ele>1658.6</ele>
    <time>2026-06-20T10:07:02Z</time>
   </trkpt>
   <trkpt lat="-3.1898350" lon="37.2795600">
    <ele>1658.6</ele>
    <time>2026-06-20T10:07:03Z</time>
   </trkpt>
   <trkpt lat="-3.1898340" lon="37.2795600">
    <ele>1658.6</ele>
    <time>2026-06-20T10:07:04Z</time>
   </trkpt>
   <trkpt lat="-3.1898350" lon="37.2795580">
    <ele>1658.6</ele>
    <time>2026-06-20T10:07:05Z</time>
   </trkpt>
   <trkpt lat="-3.1898350" lon="37.2795580">
    <ele>1658.6</ele>
    <time>2026-06-20T10:07:06Z</time>
   </trkpt>
   <trkpt lat="-3.1898350" lon="37.2795580">
    <ele>1658.6</ele>
    <time>2026-06-20T10:07:07Z</time>
   </trkpt>
   <trkpt lat="-3.1898390" lon="37.2795530">
    <ele>1658.6</ele>
    <time>2026-06-20T10:07:08Z</time>
   </trkpt>
   <trkpt lat="-3.1898400" lon="37.2795530">
    <ele>1658.6</ele>
    <time>2026-06-20T10:07:09Z</time>
   </trkpt>
   <trkpt lat="-3.1898400" lon="37.2795520">
    <ele>1658.6</ele>
    <time>2026-06-20T10:07:10Z</time>
   </trkpt>
   <trkpt lat="-3.1898400" lon="37.2795520">
    <ele>1658.6</ele>
    <time>2026-06-20T10:07:11Z</time>
   </trkpt>
   <trkpt lat="-3.1898410" lon="37.2795510">
    <ele>1658.6</ele>
    <time>2026-06-20T10:07:12Z</time>
   </trkpt>
   <trkpt lat="-3.1898420" lon="37.2795500">
    <ele>1658.6</ele>
    <time>2026-06-20T10:07:13Z</time>
   </trkpt>
   <trkpt lat="-3.1898410" lon="37.2795510">
    <ele>1658.6</ele>
    <time>2026-06-20T10:07:14Z</time>
   </trkpt>
   <trkpt lat="-3.1898430" lon="37.2795510">
    <ele>1658.6</ele>
    <time>2026-06-20T10:07:15Z</time>
   </trkpt>
   <trkpt lat="-3.1898430" lon="37.2795510">
    <ele>1658.6</ele>
    <time>2026-06-20T10:07:16Z</time>
   </trkpt>
   <trkpt lat="-3.1898430" lon="37.2795510">
    <ele>1658.6</ele>
    <time>2026-06-20T10:07:17Z</time>
   </trkpt>
   <trkpt lat="-3.1898430" lon="37.2795510">
    <ele>1658.6</ele>
    <time>2026-06-20T10:07:18Z</time>
   </trkpt>
   <trkpt lat="-3.1898440" lon="37.2795500">
    <ele>1658.6</ele>
    <time>2026-06-20T10:07:19Z</time>
   </trkpt>
   <trkpt lat="-3.1898430" lon="37.2795510">
    <ele>1658.6</ele>
    <time>2026-06-20T10:07:20Z</time>
   </trkpt>
   <trkpt lat="-3.1898440" lon="37.2795520">
    <ele>1658.6</ele>
    <time>2026-06-20T10:07:21Z</time>
   </trkpt>
   <trkpt lat="-3.1898460" lon="37.2795520">
    <ele>1658.6</ele>
    <time>2026-06-20T10:07:22Z</time>
   </trkpt>
   <trkpt lat="-3.1898430" lon="37.2795530">
    <ele>1658.6</ele>
    <time>2026-06-20T10:07:23Z</time>
   </trkpt>
   <trkpt lat="-3.1898440" lon="37.2795510">
    <ele>1658.6</ele>
    <time>2026-06-20T10:07:24Z</time>
   </trkpt>
   <trkpt lat="-3.1898450" lon="37.2795520">
    <ele>1658.6</ele>
    <time>2026-06-20T10:07:25Z</time>
   </trkpt>
   <trkpt lat="-3.1898450" lon="37.2795510">
    <ele>1658.6</ele>
    <time>2026-06-20T10:07:26Z</time>
   </trkpt>
   <trkpt lat="-3.1898450" lon="37.2795500">
    <ele>1658.6</ele>
    <time>2026-06-20T10:07:27Z</time>
   </trkpt>
   <trkpt lat="-3.1898450" lon="37.2795500">
    <ele>1658.6</ele>
    <time>2026-06-20T10:07:28Z</time>
   </trkpt>
   <trkpt lat="-3.1898470" lon="37.2795510">
    <ele>1658.6</ele>
    <time>2026-06-20T10:07:29Z</time>
   </trkpt>
   <trkpt lat="-3.1898460" lon="37.2795510">
    <ele>1658.6</ele>
    <time>2026-06-20T10:07:30Z</time>
   </trkpt>
   <trkpt lat="-3.1898450" lon="37.2795520">
    <ele>1658.6</ele>
    <time>2026-06-20T10:07:31Z</time>
   </trkpt>
   <trkpt lat="-3.1898460" lon="37.2795520">
    <ele>1658.6</ele>
    <time>2026-06-20T10:07:32Z</time>
   </trkpt>
   <trkpt lat="-3.1898460" lon="37.2795520">
    <ele>1658.6</ele>
    <time>2026-06-20T10:07:33Z</time>
   </trkpt>
   <trkpt lat="-3.1898460" lon="37.2795520">
    <ele>1658.6</ele>
    <time>2026-06-20T10:07:34Z</time>
   </trkpt>
   <trkpt lat="-3.1898460" lon="37.2795520">
    <ele>1658.6</ele>
    <time>2026-06-20T10:07:35Z</time>
   </trkpt>
   <trkpt lat="-3.1898460" lon="37.2795520">
    <ele>1658.6</ele>
    <time>2026-06-20T10:07:36Z</time>
   </trkpt>
   <trkpt lat="-3.1898460" lon="37.2795450">
    <ele>1658.6</ele>
    <time>2026-06-20T10:07:37Z</time>
   </trkpt>
   <trkpt lat="-3.1898470" lon="37.2795440">
    <ele>1658.6</ele>
    <time>2026-06-20T10:07:38Z</time>
   </trkpt>
   <trkpt lat="-3.1898480" lon="37.2795430">
    <ele>1658.6</ele>
    <time>2026-06-20T10:07:39Z</time>
   </trkpt>
   <trkpt lat="-3.1898480" lon="37.2795430">
    <ele>1658.6</ele>
    <time>2026-06-20T10:07:40Z</time>
   </trkpt>
   <trkpt lat="-3.1898480" lon="37.2795430">
    <ele>1658.6</ele>
    <time>2026-06-20T10:07:41Z</time>
   </trkpt>
   <trkpt lat="-3.1898470" lon="37.2795430">
    <ele>1658.6</ele>
    <time>2026-06-20T10:07:42Z</time>
   </trkpt>
   <trkpt lat="-3.1898470" lon="37.2795420">
    <ele>1658.6</ele>
    <time>2026-06-20T10:07:43Z</time>
   </trkpt>
   <trkpt lat="-3.1898440" lon="37.2795430">
    <ele>1658.6</ele>
    <time>2026-06-20T10:07:44Z</time>
   </trkpt>
   <trkpt lat="-3.1898400" lon="37.2795460">
    <ele>1658.6</ele>
    <time>2026-06-20T10:07:45Z</time>
   </trkpt>
   <trkpt lat="-3.1898410" lon="37.2795520">
    <ele>1658.6</ele>
    <time>2026-06-20T10:07:46Z</time>
   </trkpt>
   <trkpt lat="-3.1898390" lon="37.2795560">
    <ele>1658.6</ele>
    <time>2026-06-20T10:07:47Z</time>
   </trkpt>
   <trkpt lat="-3.1898360" lon="37.2795550">
    <ele>1658.6</ele>
    <time>2026-06-20T10:07:48Z</time>
   </trkpt>
   <trkpt lat="-3.1898200" lon="37.2795550">
    <ele>1658.6</ele>
    <time>2026-06-20T10:07:49Z</time>
   </trkpt>
   <trkpt lat="-3.1898220" lon="37.2795530">
    <ele>1658.6</ele>
    <time>2026-06-20T10:07:50Z</time>
   </trkpt>
   <trkpt lat="-3.1898250" lon="37.2795490">
    <ele>1658.6</ele>
    <time>2026-06-20T10:07:51Z</time>
   </trkpt>
   <trkpt lat="-3.1898240" lon="37.2795520">
    <ele>1658.6</ele>
    <time>2026-06-20T10:07:52Z</time>
   </trkpt>
   <trkpt lat="-3.1898260" lon="37.2795490">
    <ele>1658.6</ele>
    <time>2026-06-20T10:07:53Z</time>
   </trkpt>
   <trkpt lat="-3.1898260" lon="37.2795480">
    <ele>1658.6</ele>
    <time>2026-06-20T10:07:54Z</time>
   </trkpt>
   <trkpt lat="-3.1898260" lon="37.2795470">
    <ele>1658.6</ele>
    <time>2026-06-20T10:07:55Z</time>
   </trkpt>
   <trkpt lat="-3.1898250" lon="37.2795480">
    <ele>1658.6</ele>
    <time>2026-06-20T10:07:56Z</time>
   </trkpt>
   <trkpt lat="-3.1898250" lon="37.2795480">
    <ele>1658.6</ele>
    <time>2026-06-20T10:07:57Z</time>
   </trkpt>
   <trkpt lat="-3.1898230" lon="37.2795500">
    <ele>1658.6</ele>
    <time>2026-06-20T10:07:58Z</time>
   </trkpt>
   <trkpt lat="-3.1898230" lon="37.2795500">
    <ele>1658.6</ele>
    <time>2026-06-20T10:07:59Z</time>
   </trkpt>
   <trkpt lat="-3.1898210" lon="37.2795530">
    <ele>1658.6</ele>
    <time>2026-06-20T10:08:00Z</time>
   </trkpt>
   <trkpt lat="-3.1898210" lon="37.2795540">
    <ele>1658.5</ele>
    <time>2026-06-20T10:08:01Z</time>
   </trkpt>
   <trkpt lat="-3.1898190" lon="37.2795550">
    <ele>1658.5</ele>
    <time>2026-06-20T10:08:02Z</time>
   </trkpt>
   <trkpt lat="-3.1898200" lon="37.2795560">
    <ele>1658.5</ele>
    <time>2026-06-20T10:08:03Z</time>
   </trkpt>
   <trkpt lat="-3.1898200" lon="37.2795560">
    <ele>1658.5</ele>
    <time>2026-06-20T10:08:04Z</time>
   </trkpt>
   <trkpt lat="-3.1898200" lon="37.2795560">
    <ele>1658.5</ele>
    <time>2026-06-20T10:08:05Z</time>
   </trkpt>
   <trkpt lat="-3.1898200" lon="37.2795560">
    <ele>1658.5</ele>
    <time>2026-06-20T10:08:06Z</time>
   </trkpt>
   <trkpt lat="-3.1898170" lon="37.2795570">
    <ele>1658.5</ele>
    <time>2026-06-20T10:08:07Z</time>
   </trkpt>
   <trkpt lat="-3.1898170" lon="37.2795570">
    <ele>1658.5</ele>
    <time>2026-06-20T10:08:08Z</time>
   </trkpt>
   <trkpt lat="-3.1898130" lon="37.2795590">
    <ele>1658.5</ele>
    <time>2026-06-20T10:08:09Z</time>
   </trkpt>
   <trkpt lat="-3.1898110" lon="37.2795590">
    <ele>1658.5</ele>
    <time>2026-06-20T10:08:10Z</time>
   </trkpt>
   <trkpt lat="-3.1898110" lon="37.2795590">
    <ele>1658.5</ele>
    <time>2026-06-20T10:08:11Z</time>
   </trkpt>
   <trkpt lat="-3.1898110" lon="37.2795590">
    <ele>1658.5</ele>
    <time>2026-06-20T10:08:12Z</time>
   </trkpt>
   <trkpt lat="-3.1898100" lon="37.2795590">
    <ele>1658.5</ele>
    <time>2026-06-20T10:08:13Z</time>
   </trkpt>
   <trkpt lat="-3.1898100" lon="37.2795590">
    <ele>1658.5</ele>
    <time>2026-06-20T10:08:14Z</time>
   </trkpt>
   <trkpt lat="-3.1898100" lon="37.2795590">
    <ele>1658.5</ele>
    <time>2026-06-20T10:08:15Z</time>
   </trkpt>
   <trkpt lat="-3.1898100" lon="37.2795590">
    <ele>1658.5</ele>
    <time>2026-06-20T10:08:16Z</time>
   </trkpt>
   <trkpt lat="-3.1898100" lon="37.2795600">
    <ele>1658.5</ele>
    <time>2026-06-20T10:08:17Z</time>
   </trkpt>
   <trkpt lat="-3.1898100" lon="37.2795600">
    <ele>1658.5</ele>
    <time>2026-06-20T10:08:18Z</time>
   </trkpt>
   <trkpt lat="-3.1898120" lon="37.2795600">
    <ele>1658.5</ele>
    <time>2026-06-20T10:08:19Z</time>
   </trkpt>
   <trkpt lat="-3.1898120" lon="37.2795600">
    <ele>1658.5</ele>
    <time>2026-06-20T10:08:20Z</time>
   </trkpt>
   <trkpt lat="-3.1898120" lon="37.2795610">
    <ele>1658.5</ele>
    <time>2026-06-20T10:08:21Z</time>
   </trkpt>
   <trkpt lat="-3.1898120" lon="37.2795610">
    <ele>1658.5</ele>
    <time>2026-06-20T10:08:22Z</time>
   </trkpt>
   <trkpt lat="-3.1898120" lon="37.2795610">
    <ele>1658.5</ele>
    <time>2026-06-20T10:08:23Z</time>
   </trkpt>
   <trkpt lat="-3.1898120" lon="37.2795620">
    <ele>1658.5</ele>
    <time>2026-06-20T10:08:24Z</time>
   </trkpt>
   <trkpt lat="-3.1898120" lon="37.2795620">
    <ele>1658.5</ele>
    <time>2026-06-20T10:08:25Z</time>
   </trkpt>
   <trkpt lat="-3.1898120" lon="37.2795620">
    <ele>1658.5</ele>
    <time>2026-06-20T10:08:26Z</time>
   </trkpt>
   <trkpt lat="-3.1898120" lon="37.2795620">
    <ele>1658.5</ele>
    <time>2026-06-20T10:08:27Z</time>
   </trkpt>
   <trkpt lat="-3.1898110" lon="37.2795620">
    <ele>1658.5</ele>
    <time>2026-06-20T10:08:28Z</time>
   </trkpt>
   <trkpt lat="-3.1898110" lon="37.2795610">
    <ele>1658.5</ele>
    <time>2026-06-20T10:08:29Z</time>
   </trkpt>
   <trkpt lat="-3.1898100" lon="37.2795610">
    <ele>1658.5</ele>
    <time>2026-06-20T10:08:30Z</time>
   </trkpt>
   <trkpt lat="-3.1898100" lon="37.2795610">
    <ele>1658.5</ele>
    <time>2026-06-20T10:08:31Z</time>
   </trkpt>
   <trkpt lat="-3.1898100" lon="37.2795610">
    <ele>1658.5</ele>
    <time>2026-06-20T10:08:32Z</time>
   </trkpt>
   <trkpt lat="-3.1898100" lon="37.2795610">
    <ele>1658.5</ele>
    <time>2026-06-20T10:08:33Z</time>
   </trkpt>
   <trkpt lat="-3.1898110" lon="37.2795560">
    <ele>1658.5</ele>
    <time>2026-06-20T10:08:34Z</time>
   </trkpt>
   <trkpt lat="-3.1898110" lon="37.2795560">
    <ele>1658.5</ele>
    <time>2026-06-20T10:08:35Z</time>
   </trkpt>
   <trkpt lat="-3.1898120" lon="37.2795550">
    <ele>1658.5</ele>
    <time>2026-06-20T10:08:36Z</time>
   </trkpt>
   <trkpt lat="-3.1898130" lon="37.2795550">
    <ele>1658.5</ele>
    <time>2026-06-20T10:08:37Z</time>
   </trkpt>
   <trkpt lat="-3.1898140" lon="37.2795550">
    <ele>1658.5</ele>
    <time>2026-06-20T10:08:38Z</time>
   </trkpt>
   <trkpt lat="-3.1898140" lon="37.2795550">
    <ele>1658.5</ele>
    <time>2026-06-20T10:08:39Z</time>
   </trkpt>
   <trkpt lat="-3.1898150" lon="37.2795560">
    <ele>1658.5</ele>
    <time>2026-06-20T10:08:40Z</time>
   </trkpt>
   <trkpt lat="-3.1898160" lon="37.2795560">
    <ele>1658.5</ele>
    <time>2026-06-20T10:08:41Z</time>
   </trkpt>
   <trkpt lat="-3.1898160" lon="37.2795560">
    <ele>1658.5</ele>
    <time>2026-06-20T10:08:42Z</time>
   </trkpt>
   <trkpt lat="-3.1898140" lon="37.2795560">
    <ele>1658.5</ele>
    <time>2026-06-20T10:08:43Z</time>
   </trkpt>
   <trkpt lat="-3.1898120" lon="37.2795550">
    <ele>1658.5</ele>
    <time>2026-06-20T10:08:44Z</time>
   </trkpt>
   <trkpt lat="-3.1898110" lon="37.2795520">
    <ele>1658.5</ele>
    <time>2026-06-20T10:08:45Z</time>
   </trkpt>
   <trkpt lat="-3.1898080" lon="37.2795540">
    <ele>1658.5</ele>
    <time>2026-06-20T10:08:46Z</time>
   </trkpt>
   <trkpt lat="-3.1898070" lon="37.2795550">
    <ele>1658.5</ele>
    <time>2026-06-20T10:08:47Z</time>
   </trkpt>
   <trkpt lat="-3.1898070" lon="37.2795550">
    <ele>1658.5</ele>
    <time>2026-06-20T10:08:48Z</time>
   </trkpt>
   <trkpt lat="-3.1898070" lon="37.2795550">
    <ele>1658.5</ele>
    <time>2026-06-20T10:08:49Z</time>
   </trkpt>
   <trkpt lat="-3.1898090" lon="37.2795530">
    <ele>1658.5</ele>
    <time>2026-06-20T10:08:50Z</time>
   </trkpt>
   <trkpt lat="-3.1898090" lon="37.2795520">
    <ele>1658.5</ele>
    <time>2026-06-20T10:08:51Z</time>
   </trkpt>
   <trkpt lat="-3.1898090" lon="37.2795510">
    <ele>1658.5</ele>
    <time>2026-06-20T10:08:52Z</time>
   </trkpt>
   <trkpt lat="-3.1898090" lon="37.2795530">
    <ele>1658.5</ele>
    <time>2026-06-20T10:08:53Z</time>
   </trkpt>
   <trkpt lat="-3.1898100" lon="37.2795530">
    <ele>1658.5</ele>
    <time>2026-06-20T10:08:54Z</time>
   </trkpt>
   <trkpt lat="-3.1898100" lon="37.2795530">
    <ele>1658.5</ele>
    <time>2026-06-20T10:08:55Z</time>
   </trkpt>
   <trkpt lat="-3.1898100" lon="37.2795540">
    <ele>1658.5</ele>
    <time>2026-06-20T10:08:56Z</time>
   </trkpt>
   <trkpt lat="-3.1898100" lon="37.2795550">
    <ele>1658.5</ele>
    <time>2026-06-20T10:08:57Z</time>
   </trkpt>
   <trkpt lat="-3.1898100" lon="37.2795550">
    <ele>1658.5</ele>
    <time>2026-06-20T10:08:58Z</time>
   </trkpt>
   <trkpt lat="-3.1898090" lon="37.2795570">
    <ele>1658.5</ele>
    <time>2026-06-20T10:08:59Z</time>
   </trkpt>
   <trkpt lat="-3.1898080" lon="37.2795590">
    <ele>1658.5</ele>
    <time>2026-06-20T10:09:00Z</time>
   </trkpt>
   <trkpt lat="-3.1898060" lon="37.2795600">
    <ele>1658.5</ele>
    <time>2026-06-20T10:09:01Z</time>
   </trkpt>
   <trkpt lat="-3.1898080" lon="37.2795590">
    <ele>1658.5</ele>
    <time>2026-06-20T10:09:02Z</time>
   </trkpt>
   <trkpt lat="-3.1898080" lon="37.2795610">
    <ele>1658.5</ele>
    <time>2026-06-20T10:09:03Z</time>
   </trkpt>
   <trkpt lat="-3.1898070" lon="37.2795620">
    <ele>1658.5</ele>
    <time>2026-06-20T10:09:04Z</time>
   </trkpt>
   <trkpt lat="-3.1898070" lon="37.2795620">
    <ele>1658.5</ele>
    <time>2026-06-20T10:09:05Z</time>
   </trkpt>
   <trkpt lat="-3.1898080" lon="37.2795620">
    <ele>1658.5</ele>
    <time>2026-06-20T10:09:06Z</time>
   </trkpt>
   <trkpt lat="-3.1898070" lon="37.2795630">
    <ele>1658.5</ele>
    <time>2026-06-20T10:09:07Z</time>
   </trkpt>
   <trkpt lat="-3.1898050" lon="37.2795650">
    <ele>1658.5</ele>
    <time>2026-06-20T10:09:08Z</time>
   </trkpt>
   <trkpt lat="-3.1898040" lon="37.2795650">
    <ele>1658.5</ele>
    <time>2026-06-20T10:09:09Z</time>
   </trkpt>
   <trkpt lat="-3.1898050" lon="37.2795660">
    <ele>1658.5</ele>
    <time>2026-06-20T10:09:10Z</time>
   </trkpt>
   <trkpt lat="-3.1898060" lon="37.2795640">
    <ele>1658.5</ele>
    <time>2026-06-20T10:09:11Z</time>
   </trkpt>
   <trkpt lat="-3.1898070" lon="37.2795640">
    <ele>1658.5</ele>
    <time>2026-06-20T10:09:12Z</time>
   </trkpt>
   <trkpt lat="-3.1898080" lon="37.2795640">
    <ele>1658.5</ele>
    <time>2026-06-20T10:09:13Z</time>
   </trkpt>
   <trkpt lat="-3.1898080" lon="37.2795630">
    <ele>1658.5</ele>
    <time>2026-06-20T10:09:14Z</time>
   </trkpt>
   <trkpt lat="-3.1898090" lon="37.2795620">
    <ele>1658.5</ele>
    <time>2026-06-20T10:09:15Z</time>
   </trkpt>
   <trkpt lat="-3.1898090" lon="37.2795610">
    <ele>1658.5</ele>
    <time>2026-06-20T10:09:16Z</time>
   </trkpt>
   <trkpt lat="-3.1898090" lon="37.2795610">
    <ele>1658.5</ele>
    <time>2026-06-20T10:09:17Z</time>
   </trkpt>
   <trkpt lat="-3.1898080" lon="37.2795600">
    <ele>1658.5</ele>
    <time>2026-06-20T10:09:18Z</time>
   </trkpt>
   <trkpt lat="-3.1898080" lon="37.2795590">
    <ele>1658.5</ele>
    <time>2026-06-20T10:09:19Z</time>
   </trkpt>
   <trkpt lat="-3.1898090" lon="37.2795580">
    <ele>1658.5</ele>
    <time>2026-06-20T10:09:20Z</time>
   </trkpt>
   <trkpt lat="-3.1898080" lon="37.2795580">
    <ele>1658.5</ele>
    <time>2026-06-20T10:09:21Z</time>
   </trkpt>
   <trkpt lat="-3.1898090" lon="37.2795580">
    <ele>1658.5</ele>
    <time>2026-06-20T10:09:22Z</time>
   </trkpt>
   <trkpt lat="-3.1898080" lon="37.2795590">
    <ele>1658.5</ele>
    <time>2026-06-20T10:09:23Z</time>
   </trkpt>
   <trkpt lat="-3.1898080" lon="37.2795590">
    <ele>1658.5</ele>
    <time>2026-06-20T10:09:24Z</time>
   </trkpt>
   <trkpt lat="-3.1898070" lon="37.2795600">
    <ele>1658.5</ele>
    <time>2026-06-20T10:09:25Z</time>
   </trkpt>
   <trkpt lat="-3.1898070" lon="37.2795610">
    <ele>1658.5</ele>
    <time>2026-06-20T10:09:26Z</time>
   </trkpt>
   <trkpt lat="-3.1898060" lon="37.2795630">
    <ele>1658.5</ele>
    <time>2026-06-20T10:09:27Z</time>
   </trkpt>
   <trkpt lat="-3.1898070" lon="37.2795640">
    <ele>1658.5</ele>
    <time>2026-06-20T10:09:28Z</time>
   </trkpt>
   <trkpt lat="-3.1898080" lon="37.2795650">
    <ele>1658.5</ele>
    <time>2026-06-20T10:09:29Z</time>
   </trkpt>
   <trkpt lat="-3.1898080" lon="37.2795650">
    <ele>1658.5</ele>
    <time>2026-06-20T10:09:30Z</time>
   </trkpt>
   <trkpt lat="-3.1898090" lon="37.2795670">
    <ele>1658.5</ele>
    <time>2026-06-20T10:09:31Z</time>
   </trkpt>
   <trkpt lat="-3.1898090" lon="37.2795670">
    <ele>1658.5</ele>
    <time>2026-06-20T10:09:32Z</time>
   </trkpt>
   <trkpt lat="-3.1898060" lon="37.2795690">
    <ele>1658.5</ele>
    <time>2026-06-20T10:09:33Z</time>
   </trkpt>
   <trkpt lat="-3.1898070" lon="37.2795690">
    <ele>1658.5</ele>
    <time>2026-06-20T10:09:34Z</time>
   </trkpt>
   <trkpt lat="-3.1898060" lon="37.2795700">
    <ele>1658.5</ele>
    <time>2026-06-20T10:09:35Z</time>
   </trkpt>
   <trkpt lat="-3.1898060" lon="37.2795700">
    <ele>1658.5</ele>
    <time>2026-06-20T10:09:36Z</time>
   </trkpt>
   <trkpt lat="-3.1898050" lon="37.2795700">
    <ele>1658.5</ele>
    <time>2026-06-20T10:09:37Z</time>
   </trkpt>
   <trkpt lat="-3.1898060" lon="37.2795690">
    <ele>1658.5</ele>
    <time>2026-06-20T10:09:38Z</time>
   </trkpt>
   <trkpt lat="-3.1898060" lon="37.2795690">
    <ele>1658.5</ele>
    <time>2026-06-20T10:09:39Z</time>
   </trkpt>
   <trkpt lat="-3.1898050" lon="37.2795710">
    <ele>1658.5</ele>
    <time>2026-06-20T10:09:40Z</time>
   </trkpt>
   <trkpt lat="-3.1898060" lon="37.2795710">
    <ele>1658.5</ele>
    <time>2026-06-20T10:09:41Z</time>
   </trkpt>
   <trkpt lat="-3.1898060" lon="37.2795710">
    <ele>1658.5</ele>
    <time>2026-06-20T10:09:42Z</time>
   </trkpt>
   <trkpt lat="-3.1898060" lon="37.2795710">
    <ele>1658.5</ele>
    <time>2026-06-20T10:09:43Z</time>
   </trkpt>
   <trkpt lat="-3.1898060" lon="37.2795710">
    <ele>1658.5</ele>
    <time>2026-06-20T10:09:44Z</time>
   </trkpt>
   <trkpt lat="-3.1898060" lon="37.2795710">
    <ele>1658.5</ele>
    <time>2026-06-20T10:09:45Z</time>
   </trkpt>
   <trkpt lat="-3.1898050" lon="37.2795740">
    <ele>1658.5</ele>
    <time>2026-06-20T10:09:46Z</time>
   </trkpt>
   <trkpt lat="-3.1898050" lon="37.2795740">
    <ele>1658.5</ele>
    <time>2026-06-20T10:09:47Z</time>
   </trkpt>
   <trkpt lat="-3.1898050" lon="37.2795730">
    <ele>1658.5</ele>
    <time>2026-06-20T10:09:48Z</time>
   </trkpt>
   <trkpt lat="-3.1898040" lon="37.2795740">
    <ele>1658.5</ele>
    <time>2026-06-20T10:09:49Z</time>
   </trkpt>
   <trkpt lat="-3.1898040" lon="37.2795750">
    <ele>1658.5</ele>
    <time>2026-06-20T10:09:50Z</time>
   </trkpt>
   <trkpt lat="-3.1898040" lon="37.2795750">
    <ele>1658.5</ele>
    <time>2026-06-20T10:09:51Z</time>
   </trkpt>
   <trkpt lat="-3.1898040" lon="37.2795750">
    <ele>1658.5</ele>
    <time>2026-06-20T10:09:52Z</time>
   </trkpt>
   <trkpt lat="-3.1898040" lon="37.2795750">
    <ele>1658.5</ele>
    <time>2026-06-20T10:09:53Z</time>
   </trkpt>
   <trkpt lat="-3.1898040" lon="37.2795750">
    <ele>1658.5</ele>
    <time>2026-06-20T10:09:54Z</time>
   </trkpt>
   <trkpt lat="-3.1898040" lon="37.2795750">
    <ele>1658.5</ele>
    <time>2026-06-20T10:09:55Z</time>
   </trkpt>
   <trkpt lat="-3.1898010" lon="37.2795760">
    <ele>1658.5</ele>
    <time>2026-06-20T10:09:56Z</time>
   </trkpt>
   <trkpt lat="-3.1898030" lon="37.2795740">
    <ele>1658.5</ele>
    <time>2026-06-20T10:09:57Z</time>
   </trkpt>
   <trkpt lat="-3.1898030" lon="37.2795740">
    <ele>1658.5</ele>
    <time>2026-06-20T10:09:58Z</time>
   </trkpt>
   <trkpt lat="-3.1898030" lon="37.2795740">
    <ele>1658.5</ele>
    <time>2026-06-20T10:09:59Z</time>
   </trkpt>
   <trkpt lat="-3.1898060" lon="37.2795740">
    <ele>1658.5</ele>
    <time>2026-06-20T10:10:00Z</time>
   </trkpt>
   <trkpt lat="-3.1898060" lon="37.2795740">
    <ele>1658.5</ele>
    <time>2026-06-20T10:10:01Z</time>
   </trkpt>
   <trkpt lat="-3.1898070" lon="37.2795760">
    <ele>1658.5</ele>
    <time>2026-06-20T10:10:02Z</time>
   </trkpt>
   <trkpt lat="-3.1898060" lon="37.2795760">
    <ele>1658.5</ele>
    <time>2026-06-20T10:10:03Z</time>
   </trkpt>
   <trkpt lat="-3.1898060" lon="37.2795780">
    <ele>1658.5</ele>
    <time>2026-06-20T10:10:04Z</time>
   </trkpt>
   <trkpt lat="-3.1898070" lon="37.2795760">
    <ele>1658.5</ele>
    <time>2026-06-20T10:10:05Z</time>
   </trkpt>
   <trkpt lat="-3.1898070" lon="37.2795760">
    <ele>1658.5</ele>
    <time>2026-06-20T10:10:06Z</time>
   </trkpt>
   <trkpt lat="-3.1898090" lon="37.2795770">
    <ele>1658.5</ele>
    <time>2026-06-20T10:10:07Z</time>
   </trkpt>
   <trkpt lat="-3.1898110" lon="37.2795750">
    <ele>1658.5</ele>
    <time>2026-06-20T10:10:08Z</time>
   </trkpt>
   <trkpt lat="-3.1898120" lon="37.2795740">
    <ele>1658.5</ele>
    <time>2026-06-20T10:10:09Z</time>
   </trkpt>
   <trkpt lat="-3.1898130" lon="37.2795730">
    <ele>1658.5</ele>
    <time>2026-06-20T10:10:10Z</time>
   </trkpt>
   <trkpt lat="-3.1898130" lon="37.2795760">
    <ele>1658.5</ele>
    <time>2026-06-20T10:10:11Z</time>
   </trkpt>
   <trkpt lat="-3.1898120" lon="37.2795790">
    <ele>1658.5</ele>
    <time>2026-06-20T10:10:12Z</time>
   </trkpt>
   <trkpt lat="-3.1898130" lon="37.2795790">
    <ele>1658.5</ele>
    <time>2026-06-20T10:10:13Z</time>
   </trkpt>
   <trkpt lat="-3.1898120" lon="37.2795810">
    <ele>1658.5</ele>
    <time>2026-06-20T10:10:14Z</time>
   </trkpt>
   <trkpt lat="-3.1898130" lon="37.2795810">
    <ele>1658.5</ele>
    <time>2026-06-20T10:10:15Z</time>
   </trkpt>
   <trkpt lat="-3.1898110" lon="37.2795820">
    <ele>1658.5</ele>
    <time>2026-06-20T10:10:16Z</time>
   </trkpt>
   <trkpt lat="-3.1898100" lon="37.2795830">
    <ele>1658.5</ele>
    <time>2026-06-20T10:10:17Z</time>
   </trkpt>
   <trkpt lat="-3.1898090" lon="37.2795820">
    <ele>1658.5</ele>
    <time>2026-06-20T10:10:18Z</time>
   </trkpt>
   <trkpt lat="-3.1898080" lon="37.2795820">
    <ele>1658.5</ele>
    <time>2026-06-20T10:10:19Z</time>
   </trkpt>
   <trkpt lat="-3.1898090" lon="37.2795810">
    <ele>1658.5</ele>
    <time>2026-06-20T10:10:20Z</time>
   </trkpt>
   <trkpt lat="-3.1898090" lon="37.2795810">
    <ele>1658.5</ele>
    <time>2026-06-20T10:10:21Z</time>
   </trkpt>
   <trkpt lat="-3.1898090" lon="37.2795810">
    <ele>1658.5</ele>
    <time>2026-06-20T10:10:22Z</time>
   </trkpt>
   <trkpt lat="-3.1898090" lon="37.2795810">
    <ele>1658.5</ele>
    <time>2026-06-20T10:10:23Z</time>
   </trkpt>
   <trkpt lat="-3.1898090" lon="37.2795810">
    <ele>1658.5</ele>
    <time>2026-06-20T10:10:24Z</time>
   </trkpt>
   <trkpt lat="-3.1898090" lon="37.2795810">
    <ele>1658.5</ele>
    <time>2026-06-20T10:10:25Z</time>
   </trkpt>
   <trkpt lat="-3.1898090" lon="37.2795810">
    <ele>1658.5</ele>
    <time>2026-06-20T10:10:26Z</time>
   </trkpt>
   <trkpt lat="-3.1898090" lon="37.2795810">
    <ele>1658.5</ele>
    <time>2026-06-20T10:10:27Z</time>
   </trkpt>
   <trkpt lat="-3.1898090" lon="37.2795810">
    <ele>1658.5</ele>
    <time>2026-06-20T10:10:28Z</time>
   </trkpt>
   <trkpt lat="-3.1898090" lon="37.2795770">
    <ele>1658.5</ele>
    <time>2026-06-20T10:10:29Z</time>
   </trkpt>
   <trkpt lat="-3.1898080" lon="37.2795760">
    <ele>1658.5</ele>
    <time>2026-06-20T10:10:30Z</time>
   </trkpt>
   <trkpt lat="-3.1898090" lon="37.2795760">
    <ele>1658.5</ele>
    <time>2026-06-20T10:10:31Z</time>
   </trkpt>
   <trkpt lat="-3.1898100" lon="37.2795760">
    <ele>1658.5</ele>
    <time>2026-06-20T10:10:32Z</time>
   </trkpt>
   <trkpt lat="-3.1898100" lon="37.2795750">
    <ele>1658.5</ele>
    <time>2026-06-20T10:10:33Z</time>
   </trkpt>
   <trkpt lat="-3.1898100" lon="37.2795790">
    <ele>1658.5</ele>
    <time>2026-06-20T10:10:34Z</time>
   </trkpt>
   <trkpt lat="-3.1898100" lon="37.2795810">
    <ele>1658.5</ele>
    <time>2026-06-20T10:10:35Z</time>
   </trkpt>
   <trkpt lat="-3.1898070" lon="37.2795830">
    <ele>1658.5</ele>
    <time>2026-06-20T10:10:36Z</time>
   </trkpt>
   <trkpt lat="-3.1898040" lon="37.2795870">
    <ele>1658.5</ele>
    <time>2026-06-20T10:10:37Z</time>
   </trkpt>
   <trkpt lat="-3.1898010" lon="37.2795910">
    <ele>1658.5</ele>
    <time>2026-06-20T10:10:38Z</time>
   </trkpt>
   <trkpt lat="-3.1897980" lon="37.2795910">
    <ele>1658.4</ele>
    <time>2026-06-20T10:10:39Z</time>
   </trkpt>
   <trkpt lat="-3.1897970" lon="37.2795930">
    <ele>1658.4</ele>
    <time>2026-06-20T10:10:40Z</time>
   </trkpt>
   <trkpt lat="-3.1897970" lon="37.2795970">
    <ele>1658.4</ele>
    <time>2026-06-20T10:10:41Z</time>
   </trkpt>
   <trkpt lat="-3.1897940" lon="37.2796120">
    <ele>1658.4</ele>
    <time>2026-06-20T10:10:42Z</time>
   </trkpt>
   <trkpt lat="-3.1897950" lon="37.2796130">
    <ele>1658.4</ele>
    <time>2026-06-20T10:10:43Z</time>
   </trkpt>
   <trkpt lat="-3.1897940" lon="37.2796140">
    <ele>1658.4</ele>
    <time>2026-06-20T10:10:44Z</time>
   </trkpt>
   <trkpt lat="-3.1897970" lon="37.2796090">
    <ele>1658.4</ele>
    <time>2026-06-20T10:10:45Z</time>
   </trkpt>
   <trkpt lat="-3.1897980" lon="37.2796040">
    <ele>1658.4</ele>
    <time>2026-06-20T10:10:46Z</time>
   </trkpt>
   <trkpt lat="-3.1897990" lon="37.2796000">
    <ele>1658.4</ele>
    <time>2026-06-20T10:10:47Z</time>
   </trkpt>
   <trkpt lat="-3.1897950" lon="37.2796000">
    <ele>1658.4</ele>
    <time>2026-06-20T10:10:48Z</time>
   </trkpt>
   <trkpt lat="-3.1897950" lon="37.2795980">
    <ele>1658.4</ele>
    <time>2026-06-20T10:10:49Z</time>
   </trkpt>
   <trkpt lat="-3.1898000" lon="37.2795940">
    <ele>1658.4</ele>
    <time>2026-06-20T10:10:50Z</time>
   </trkpt>
   <trkpt lat="-3.1898020" lon="37.2795930">
    <ele>1658.4</ele>
    <time>2026-06-20T10:10:51Z</time>
   </trkpt>
   <trkpt lat="-3.1898020" lon="37.2795940">
    <ele>1658.4</ele>
    <time>2026-06-20T10:10:52Z</time>
   </trkpt>
   <trkpt lat="-3.1898030" lon="37.2795930">
    <ele>1658.4</ele>
    <time>2026-06-20T10:10:53Z</time>
   </trkpt>
   <trkpt lat="-3.1898050" lon="37.2795920">
    <ele>1658.4</ele>
    <time>2026-06-20T10:10:54Z</time>
   </trkpt>
   <trkpt lat="-3.1898090" lon="37.2795900">
    <ele>1658.4</ele>
    <time>2026-06-20T10:10:55Z</time>
   </trkpt>
   <trkpt lat="-3.1898090" lon="37.2795890">
    <ele>1658.4</ele>
    <time>2026-06-20T10:10:56Z</time>
   </trkpt>
   <trkpt lat="-3.1898120" lon="37.2795880">
    <ele>1658.4</ele>
    <time>2026-06-20T10:10:57Z</time>
   </trkpt>
   <trkpt lat="-3.1898120" lon="37.2795900">
    <ele>1658.4</ele>
    <time>2026-06-20T10:10:58Z</time>
   </trkpt>
   <trkpt lat="-3.1898120" lon="37.2795900">
    <ele>1658.4</ele>
    <time>2026-06-20T10:10:59Z</time>
   </trkpt>
   <trkpt lat="-3.1898130" lon="37.2795900">
    <ele>1658.4</ele>
    <time>2026-06-20T10:11:00Z</time>
   </trkpt>
   <trkpt lat="-3.1898130" lon="37.2795900">
    <ele>1658.4</ele>
    <time>2026-06-20T10:11:01Z</time>
   </trkpt>
   <trkpt lat="-3.1898140" lon="37.2795900">
    <ele>1658.4</ele>
    <time>2026-06-20T10:11:02Z</time>
   </trkpt>
   <trkpt lat="-3.1898140" lon="37.2795900">
    <ele>1658.4</ele>
    <time>2026-06-20T10:11:03Z</time>
   </trkpt>
   <trkpt lat="-3.1898150" lon="37.2795900">
    <ele>1658.4</ele>
    <time>2026-06-20T10:11:04Z</time>
   </trkpt>
   <trkpt lat="-3.1898150" lon="37.2795900">
    <ele>1658.4</ele>
    <time>2026-06-20T10:11:05Z</time>
   </trkpt>
   <trkpt lat="-3.1898150" lon="37.2795900">
    <ele>1658.4</ele>
    <time>2026-06-20T10:11:06Z</time>
   </trkpt>
   <trkpt lat="-3.1898150" lon="37.2795900">
    <ele>1658.4</ele>
    <time>2026-06-20T10:11:07Z</time>
   </trkpt>
   <trkpt lat="-3.1898150" lon="37.2795900">
    <ele>1658.4</ele>
    <time>2026-06-20T10:11:08Z</time>
   </trkpt>
   <trkpt lat="-3.1898160" lon="37.2795910">
    <ele>1658.4</ele>
    <time>2026-06-20T10:11:09Z</time>
   </trkpt>
   <trkpt lat="-3.1898160" lon="37.2795910">
    <ele>1658.4</ele>
    <time>2026-06-20T10:11:10Z</time>
   </trkpt>
   <trkpt lat="-3.1898170" lon="37.2795910">
    <ele>1658.4</ele>
    <time>2026-06-20T10:11:11Z</time>
   </trkpt>
   <trkpt lat="-3.1898160" lon="37.2795910">
    <ele>1658.4</ele>
    <time>2026-06-20T10:11:12Z</time>
   </trkpt>
   <trkpt lat="-3.1898170" lon="37.2795910">
    <ele>1658.4</ele>
    <time>2026-06-20T10:11:13Z</time>
   </trkpt>
   <trkpt lat="-3.1898170" lon="37.2795910">
    <ele>1658.4</ele>
    <time>2026-06-20T10:11:14Z</time>
   </trkpt>
   <trkpt lat="-3.1898170" lon="37.2795910">
    <ele>1658.4</ele>
    <time>2026-06-20T10:11:15Z</time>
   </trkpt>
   <trkpt lat="-3.1898170" lon="37.2795910">
    <ele>1658.4</ele>
    <time>2026-06-20T10:11:16Z</time>
   </trkpt>
   <trkpt lat="-3.1898170" lon="37.2795900">
    <ele>1658.4</ele>
    <time>2026-06-20T10:11:17Z</time>
   </trkpt>
   <trkpt lat="-3.1898170" lon="37.2795900">
    <ele>1658.4</ele>
    <time>2026-06-20T10:11:18Z</time>
   </trkpt>
   <trkpt lat="-3.1898170" lon="37.2795900">
    <ele>1658.4</ele>
    <time>2026-06-20T10:11:19Z</time>
   </trkpt>
   <trkpt lat="-3.1898160" lon="37.2795910">
    <ele>1658.4</ele>
    <time>2026-06-20T10:11:20Z</time>
   </trkpt>
   <trkpt lat="-3.1898160" lon="37.2795920">
    <ele>1658.4</ele>
    <time>2026-06-20T10:11:21Z</time>
   </trkpt>
   <trkpt lat="-3.1898190" lon="37.2795900">
    <ele>1658.4</ele>
    <time>2026-06-20T10:11:22Z</time>
   </trkpt>
   <trkpt lat="-3.1898180" lon="37.2795890">
    <ele>1658.4</ele>
    <time>2026-06-20T10:11:23Z</time>
   </trkpt>
   <trkpt lat="-3.1898190" lon="37.2795890">
    <ele>1658.4</ele>
    <time>2026-06-20T10:11:24Z</time>
   </trkpt>
   <trkpt lat="-3.1898190" lon="37.2795900">
    <ele>1658.4</ele>
    <time>2026-06-20T10:11:25Z</time>
   </trkpt>
   <trkpt lat="-3.1898190" lon="37.2795900">
    <ele>1658.4</ele>
    <time>2026-06-20T10:11:26Z</time>
   </trkpt>
   <trkpt lat="-3.1898190" lon="37.2795900">
    <ele>1658.4</ele>
    <time>2026-06-20T10:11:27Z</time>
   </trkpt>
   <trkpt lat="-3.1898190" lon="37.2795900">
    <ele>1658.4</ele>
    <time>2026-06-20T10:11:28Z</time>
   </trkpt>
   <trkpt lat="-3.1898220" lon="37.2795890">
    <ele>1658.4</ele>
    <time>2026-06-20T10:11:29Z</time>
   </trkpt>
   <trkpt lat="-3.1898220" lon="37.2795900">
    <ele>1658.4</ele>
    <time>2026-06-20T10:11:30Z</time>
   </trkpt>
   <trkpt lat="-3.1898210" lon="37.2795900">
    <ele>1658.4</ele>
    <time>2026-06-20T10:11:31Z</time>
   </trkpt>
   <trkpt lat="-3.1898210" lon="37.2795900">
    <ele>1658.4</ele>
    <time>2026-06-20T10:11:32Z</time>
   </trkpt>
   <trkpt lat="-3.1898190" lon="37.2795910">
    <ele>1658.4</ele>
    <time>2026-06-20T10:11:33Z</time>
   </trkpt>
   <trkpt lat="-3.1898190" lon="37.2795910">
    <ele>1658.4</ele>
    <time>2026-06-20T10:11:34Z</time>
   </trkpt>
   <trkpt lat="-3.1898190" lon="37.2795920">
    <ele>1658.4</ele>
    <time>2026-06-20T10:11:35Z</time>
   </trkpt>
   <trkpt lat="-3.1898190" lon="37.2795920">
    <ele>1658.4</ele>
    <time>2026-06-20T10:11:36Z</time>
   </trkpt>
   <trkpt lat="-3.1898190" lon="37.2795920">
    <ele>1658.4</ele>
    <time>2026-06-20T10:11:37Z</time>
   </trkpt>
   <trkpt lat="-3.1898200" lon="37.2795940">
    <ele>1658.4</ele>
    <time>2026-06-20T10:11:38Z</time>
   </trkpt>
   <trkpt lat="-3.1898200" lon="37.2795940">
    <ele>1658.4</ele>
    <time>2026-06-20T10:11:39Z</time>
   </trkpt>
   <trkpt lat="-3.1898200" lon="37.2795940">
    <ele>1658.4</ele>
    <time>2026-06-20T10:11:40Z</time>
   </trkpt>
   <trkpt lat="-3.1898200" lon="37.2795940">
    <ele>1658.4</ele>
    <time>2026-06-20T10:11:41Z</time>
   </trkpt>
   <trkpt lat="-3.1898200" lon="37.2795940">
    <ele>1658.4</ele>
    <time>2026-06-20T10:11:42Z</time>
   </trkpt>
   <trkpt lat="-3.1898200" lon="37.2795940">
    <ele>1658.4</ele>
    <time>2026-06-20T10:11:43Z</time>
   </trkpt>
   <trkpt lat="-3.1898200" lon="37.2795940">
    <ele>1658.4</ele>
    <time>2026-06-20T10:11:44Z</time>
   </trkpt>
   <trkpt lat="-3.1898200" lon="37.2795940">
    <ele>1658.4</ele>
    <time>2026-06-20T10:11:45Z</time>
   </trkpt>
   <trkpt lat="-3.1898160" lon="37.2795960">
    <ele>1658.4</ele>
    <time>2026-06-20T10:11:46Z</time>
   </trkpt>
   <trkpt lat="-3.1898160" lon="37.2795960">
    <ele>1658.4</ele>
    <time>2026-06-20T10:11:47Z</time>
   </trkpt>
   <trkpt lat="-3.1898150" lon="37.2795960">
    <ele>1658.4</ele>
    <time>2026-06-20T10:11:48Z</time>
   </trkpt>
   <trkpt lat="-3.1898150" lon="37.2795960">
    <ele>1658.4</ele>
    <time>2026-06-20T10:11:49Z</time>
   </trkpt>
   <trkpt lat="-3.1898150" lon="37.2795950">
    <ele>1658.4</ele>
    <time>2026-06-20T10:11:50Z</time>
   </trkpt>
   <trkpt lat="-3.1898170" lon="37.2795940">
    <ele>1658.4</ele>
    <time>2026-06-20T10:11:51Z</time>
   </trkpt>
   <trkpt lat="-3.1898170" lon="37.2795940">
    <ele>1658.4</ele>
    <time>2026-06-20T10:11:52Z</time>
   </trkpt>
   <trkpt lat="-3.1898170" lon="37.2795940">
    <ele>1658.4</ele>
    <time>2026-06-20T10:11:53Z</time>
   </trkpt>
   <trkpt lat="-3.1898180" lon="37.2795940">
    <ele>1658.4</ele>
    <time>2026-06-20T10:11:54Z</time>
   </trkpt>
   <trkpt lat="-3.1898180" lon="37.2795940">
    <ele>1658.4</ele>
    <time>2026-06-20T10:11:55Z</time>
   </trkpt>
   <trkpt lat="-3.1898180" lon="37.2795940">
    <ele>1658.4</ele>
    <time>2026-06-20T10:11:56Z</time>
   </trkpt>
   <trkpt lat="-3.1898180" lon="37.2795940">
    <ele>1658.4</ele>
    <time>2026-06-20T10:11:57Z</time>
   </trkpt>
   <trkpt lat="-3.1898180" lon="37.2795940">
    <ele>1658.4</ele>
    <time>2026-06-20T10:11:58Z</time>
   </trkpt>
   <trkpt lat="-3.1898180" lon="37.2795940">
    <ele>1658.4</ele>
    <time>2026-06-20T10:11:59Z</time>
   </trkpt>
   <trkpt lat="-3.1898180" lon="37.2795940">
    <ele>1658.4</ele>
    <time>2026-06-20T10:12:00Z</time>
   </trkpt>
   <trkpt lat="-3.1898180" lon="37.2795940">
    <ele>1658.4</ele>
    <time>2026-06-20T10:12:01Z</time>
   </trkpt>
   <trkpt lat="-3.1898180" lon="37.2795940">
    <ele>1658.4</ele>
    <time>2026-06-20T10:12:02Z</time>
   </trkpt>
   <trkpt lat="-3.1898180" lon="37.2795940">
    <ele>1658.4</ele>
    <time>2026-06-20T10:12:03Z</time>
   </trkpt>
   <trkpt lat="-3.1898180" lon="37.2795940">
    <ele>1658.4</ele>
    <time>2026-06-20T10:12:04Z</time>
   </trkpt>
   <trkpt lat="-3.1898180" lon="37.2795940">
    <ele>1658.4</ele>
    <time>2026-06-20T10:12:05Z</time>
   </trkpt>
   <trkpt lat="-3.1898180" lon="37.2795940">
    <ele>1658.4</ele>
    <time>2026-06-20T10:12:06Z</time>
   </trkpt>
   <trkpt lat="-3.1898210" lon="37.2795890">
    <ele>1658.4</ele>
    <time>2026-06-20T10:12:07Z</time>
   </trkpt>
   <trkpt lat="-3.1898210" lon="37.2795880">
    <ele>1658.4</ele>
    <time>2026-06-20T10:12:08Z</time>
   </trkpt>
   <trkpt lat="-3.1898210" lon="37.2795880">
    <ele>1658.4</ele>
    <time>2026-06-20T10:12:09Z</time>
   </trkpt>
   <trkpt lat="-3.1898210" lon="37.2795880">
    <ele>1658.4</ele>
    <time>2026-06-20T10:12:10Z</time>
   </trkpt>
   <trkpt lat="-3.1898210" lon="37.2795880">
    <ele>1658.4</ele>
    <time>2026-06-20T10:12:11Z</time>
   </trkpt>
   <trkpt lat="-3.1898210" lon="37.2795880">
    <ele>1658.4</ele>
    <time>2026-06-20T10:12:12Z</time>
   </trkpt>
   <trkpt lat="-3.1898210" lon="37.2795880">
    <ele>1658.4</ele>
    <time>2026-06-20T10:12:13Z</time>
   </trkpt>
   <trkpt lat="-3.1898210" lon="37.2795880">
    <ele>1658.4</ele>
    <time>2026-06-20T10:12:14Z</time>
   </trkpt>
   <trkpt lat="-3.1898210" lon="37.2795880">
    <ele>1658.4</ele>
    <time>2026-06-20T10:12:15Z</time>
   </trkpt>
   <trkpt lat="-3.1898210" lon="37.2795860">
    <ele>1658.4</ele>
    <time>2026-06-20T10:12:16Z</time>
   </trkpt>
   <trkpt lat="-3.1898220" lon="37.2795830">
    <ele>1658.4</ele>
    <time>2026-06-20T10:12:17Z</time>
   </trkpt>
   <trkpt lat="-3.1898210" lon="37.2795830">
    <ele>1658.4</ele>
    <time>2026-06-20T10:12:18Z</time>
   </trkpt>
   <trkpt lat="-3.1898210" lon="37.2795830">
    <ele>1658.4</ele>
    <time>2026-06-20T10:12:19Z</time>
   </trkpt>
   <trkpt lat="-3.1898210" lon="37.2795830">
    <ele>1658.4</ele>
    <time>2026-06-20T10:12:20Z</time>
   </trkpt>
   <trkpt lat="-3.1898220" lon="37.2795800">
    <ele>1658.4</ele>
    <time>2026-06-20T10:12:21Z</time>
   </trkpt>
   <trkpt lat="-3.1898220" lon="37.2795810">
    <ele>1658.4</ele>
    <time>2026-06-20T10:12:22Z</time>
   </trkpt>
   <trkpt lat="-3.1898220" lon="37.2795810">
    <ele>1658.4</ele>
    <time>2026-06-20T10:12:23Z</time>
   </trkpt>
   <trkpt lat="-3.1898220" lon="37.2795810">
    <ele>1658.4</ele>
    <time>2026-06-20T10:12:24Z</time>
   </trkpt>
   <trkpt lat="-3.1898240" lon="37.2795790">
    <ele>1658.4</ele>
    <time>2026-06-20T10:12:25Z</time>
   </trkpt>
   <trkpt lat="-3.1898240" lon="37.2795780">
    <ele>1658.4</ele>
    <time>2026-06-20T10:12:26Z</time>
   </trkpt>
   <trkpt lat="-3.1898240" lon="37.2795780">
    <ele>1658.4</ele>
    <time>2026-06-20T10:12:27Z</time>
   </trkpt>
   <trkpt lat="-3.1898240" lon="37.2795780">
    <ele>1658.4</ele>
    <time>2026-06-20T10:12:28Z</time>
   </trkpt>
   <trkpt lat="-3.1898240" lon="37.2795780">
    <ele>1658.4</ele>
    <time>2026-06-20T10:12:29Z</time>
   </trkpt>
   <trkpt lat="-3.1898250" lon="37.2795790">
    <ele>1658.4</ele>
    <time>2026-06-20T10:12:30Z</time>
   </trkpt>
   <trkpt lat="-3.1898250" lon="37.2795780">
    <ele>1658.4</ele>
    <time>2026-06-20T10:12:31Z</time>
   </trkpt>
   <trkpt lat="-3.1898240" lon="37.2795770">
    <ele>1658.4</ele>
    <time>2026-06-20T10:12:32Z</time>
   </trkpt>
   <trkpt lat="-3.1898260" lon="37.2795760">
    <ele>1658.4</ele>
    <time>2026-06-20T10:12:33Z</time>
   </trkpt>
   <trkpt lat="-3.1898280" lon="37.2795730">
    <ele>1658.4</ele>
    <time>2026-06-20T10:12:34Z</time>
   </trkpt>
   <trkpt lat="-3.1898300" lon="37.2795730">
    <ele>1658.4</ele>
    <time>2026-06-20T10:12:35Z</time>
   </trkpt>
   <trkpt lat="-3.1898300" lon="37.2795730">
    <ele>1658.4</ele>
    <time>2026-06-20T10:12:36Z</time>
   </trkpt>
   <trkpt lat="-3.1898310" lon="37.2795730">
    <ele>1658.4</ele>
    <time>2026-06-20T10:12:37Z</time>
   </trkpt>
   <trkpt lat="-3.1898300" lon="37.2795760">
    <ele>1658.4</ele>
    <time>2026-06-20T10:12:38Z</time>
   </trkpt>
   <trkpt lat="-3.1898280" lon="37.2795780">
    <ele>1658.4</ele>
    <time>2026-06-20T10:12:40Z</time>
   </trkpt>
   <trkpt lat="-3.1898290" lon="37.2795800">
    <ele>1658.4</ele>
    <time>2026-06-20T10:12:41Z</time>
   </trkpt>
   <trkpt lat="-3.1898280" lon="37.2795820">
    <ele>1658.4</ele>
    <time>2026-06-20T10:12:42Z</time>
   </trkpt>
   <trkpt lat="-3.1898280" lon="37.2795840">
    <ele>1658.4</ele>
    <time>2026-06-20T10:12:43Z</time>
   </trkpt>
   <trkpt lat="-3.1898260" lon="37.2795860">
    <ele>1658.4</ele>
    <time>2026-06-20T10:12:44Z</time>
   </trkpt>
   <trkpt lat="-3.1898270" lon="37.2795870">
    <ele>1658.4</ele>
    <time>2026-06-20T10:12:45Z</time>
   </trkpt>
   <trkpt lat="-3.1898270" lon="37.2795890">
    <ele>1658.4</ele>
    <time>2026-06-20T10:12:46Z</time>
   </trkpt>
   <trkpt lat="-3.1898280" lon="37.2795910">
    <ele>1658.4</ele>
    <time>2026-06-20T10:12:47Z</time>
   </trkpt>
   <trkpt lat="-3.1898250" lon="37.2795950">
    <ele>1658.4</ele>
    <time>2026-06-20T10:12:48Z</time>
   </trkpt>
   <trkpt lat="-3.1898220" lon="37.2795970">
    <ele>1658.4</ele>
    <time>2026-06-20T10:12:49Z</time>
   </trkpt>
   <trkpt lat="-3.1898200" lon="37.2796010">
    <ele>1658.4</ele>
    <time>2026-06-20T10:12:50Z</time>
   </trkpt>
   <trkpt lat="-3.1898230" lon="37.2796040">
    <ele>1658.4</ele>
    <time>2026-06-20T10:12:51Z</time>
   </trkpt>
   <trkpt lat="-3.1898260" lon="37.2796120">
    <ele>1658.4</ele>
    <time>2026-06-20T10:12:52Z</time>
   </trkpt>
   <trkpt lat="-3.1898280" lon="37.2796150">
    <ele>1658.3</ele>
    <time>2026-06-20T10:12:53Z</time>
   </trkpt>
   <trkpt lat="-3.1898350" lon="37.2796130">
    <ele>1658.3</ele>
    <time>2026-06-20T10:12:54Z</time>
   </trkpt>
   <trkpt lat="-3.1898370" lon="37.2796110">
    <ele>1658.3</ele>
    <time>2026-06-20T10:12:55Z</time>
   </trkpt>
   <trkpt lat="-3.1898340" lon="37.2796130">
    <ele>1658.3</ele>
    <time>2026-06-20T10:12:56Z</time>
   </trkpt>
   <trkpt lat="-3.1898340" lon="37.2796130">
    <ele>1658.3</ele>
    <time>2026-06-20T10:12:57Z</time>
   </trkpt>
   <trkpt lat="-3.1898330" lon="37.2796130">
    <ele>1658.3</ele>
    <time>2026-06-20T10:12:58Z</time>
   </trkpt>
   <trkpt lat="-3.1898340" lon="37.2796130">
    <ele>1658.3</ele>
    <time>2026-06-20T10:12:59Z</time>
   </trkpt>
   <trkpt lat="-3.1898340" lon="37.2796120">
    <ele>1658.3</ele>
    <time>2026-06-20T10:13:00Z</time>
   </trkpt>
   <trkpt lat="-3.1898340" lon="37.2796120">
    <ele>1658.3</ele>
    <time>2026-06-20T10:13:01Z</time>
   </trkpt>
   <trkpt lat="-3.1898340" lon="37.2796110">
    <ele>1658.3</ele>
    <time>2026-06-20T10:13:02Z</time>
   </trkpt>
   <trkpt lat="-3.1898340" lon="37.2796110">
    <ele>1658.3</ele>
    <time>2026-06-20T10:13:03Z</time>
   </trkpt>
   <trkpt lat="-3.1898340" lon="37.2796110">
    <ele>1658.3</ele>
    <time>2026-06-20T10:13:04Z</time>
   </trkpt>
   <trkpt lat="-3.1898340" lon="37.2796110">
    <ele>1658.3</ele>
    <time>2026-06-20T10:13:05Z</time>
   </trkpt>
   <trkpt lat="-3.1898340" lon="37.2796120">
    <ele>1658.3</ele>
    <time>2026-06-20T10:13:06Z</time>
   </trkpt>
   <trkpt lat="-3.1898340" lon="37.2796120">
    <ele>1658.3</ele>
    <time>2026-06-20T10:13:07Z</time>
   </trkpt>
   <trkpt lat="-3.1898340" lon="37.2796120">
    <ele>1658.3</ele>
    <time>2026-06-20T10:13:08Z</time>
   </trkpt>
   <trkpt lat="-3.1898340" lon="37.2796120">
    <ele>1658.3</ele>
    <time>2026-06-20T10:13:09Z</time>
   </trkpt>
   <trkpt lat="-3.1898350" lon="37.2796130">
    <ele>1658.3</ele>
    <time>2026-06-20T10:13:10Z</time>
   </trkpt>
   <trkpt lat="-3.1898360" lon="37.2796130">
    <ele>1658.3</ele>
    <time>2026-06-20T10:13:11Z</time>
   </trkpt>
   <trkpt lat="-3.1898360" lon="37.2796130">
    <ele>1658.3</ele>
    <time>2026-06-20T10:13:12Z</time>
   </trkpt>
   <trkpt lat="-3.1898360" lon="37.2796130">
    <ele>1658.3</ele>
    <time>2026-06-20T10:13:13Z</time>
   </trkpt>
   <trkpt lat="-3.1898360" lon="37.2796130">
    <ele>1658.3</ele>
    <time>2026-06-20T10:13:14Z</time>
   </trkpt>
   <trkpt lat="-3.1898360" lon="37.2796120">
    <ele>1658.3</ele>
    <time>2026-06-20T10:13:15Z</time>
   </trkpt>
   <trkpt lat="-3.1898360" lon="37.2796120">
    <ele>1658.3</ele>
    <time>2026-06-20T10:13:16Z</time>
   </trkpt>
   <trkpt lat="-3.1898360" lon="37.2796120">
    <ele>1658.3</ele>
    <time>2026-06-20T10:13:17Z</time>
   </trkpt>
   <trkpt lat="-3.1898360" lon="37.2796120">
    <ele>1658.3</ele>
    <time>2026-06-20T10:13:18Z</time>
   </trkpt>
   <trkpt lat="-3.1898360" lon="37.2796120">
    <ele>1658.3</ele>
    <time>2026-06-20T10:13:19Z</time>
   </trkpt>
   <trkpt lat="-3.1898360" lon="37.2796120">
    <ele>1658.3</ele>
    <time>2026-06-20T10:13:20Z</time>
   </trkpt>
   <trkpt lat="-3.1898340" lon="37.2796110">
    <ele>1658.3</ele>
    <time>2026-06-20T10:13:21Z</time>
   </trkpt>
   <trkpt lat="-3.1898340" lon="37.2796110">
    <ele>1658.3</ele>
    <time>2026-06-20T10:13:22Z</time>
   </trkpt>
   <trkpt lat="-3.1898340" lon="37.2796110">
    <ele>1658.3</ele>
    <time>2026-06-20T10:13:23Z</time>
   </trkpt>
   <trkpt lat="-3.1898340" lon="37.2796110">
    <ele>1658.3</ele>
    <time>2026-06-20T10:13:24Z</time>
   </trkpt>
   <trkpt lat="-3.1898340" lon="37.2796110">
    <ele>1658.3</ele>
    <time>2026-06-20T10:13:25Z</time>
   </trkpt>
   <trkpt lat="-3.1898320" lon="37.2796120">
    <ele>1658.3</ele>
    <time>2026-06-20T10:13:26Z</time>
   </trkpt>
   <trkpt lat="-3.1898330" lon="37.2796120">
    <ele>1658.3</ele>
    <time>2026-06-20T10:13:27Z</time>
   </trkpt>
   <trkpt lat="-3.1898320" lon="37.2796110">
    <ele>1658.3</ele>
    <time>2026-06-20T10:13:28Z</time>
   </trkpt>
   <trkpt lat="-3.1898320" lon="37.2796110">
    <ele>1658.3</ele>
    <time>2026-06-20T10:13:29Z</time>
   </trkpt>
   <trkpt lat="-3.1898310" lon="37.2796110">
    <ele>1658.3</ele>
    <time>2026-06-20T10:13:30Z</time>
   </trkpt>
   <trkpt lat="-3.1898300" lon="37.2796110">
    <ele>1658.3</ele>
    <time>2026-06-20T10:13:31Z</time>
   </trkpt>
   <trkpt lat="-3.1898300" lon="37.2796100">
    <ele>1658.3</ele>
    <time>2026-06-20T10:13:32Z</time>
   </trkpt>
   <trkpt lat="-3.1898310" lon="37.2796100">
    <ele>1658.3</ele>
    <time>2026-06-20T10:13:33Z</time>
   </trkpt>
   <trkpt lat="-3.1898310" lon="37.2796100">
    <ele>1658.3</ele>
    <time>2026-06-20T10:13:34Z</time>
   </trkpt>
   <trkpt lat="-3.1898300" lon="37.2796100">
    <ele>1658.3</ele>
    <time>2026-06-20T10:13:35Z</time>
   </trkpt>
   <trkpt lat="-3.1898310" lon="37.2796110">
    <ele>1658.3</ele>
    <time>2026-06-20T10:13:36Z</time>
   </trkpt>
   <trkpt lat="-3.1898310" lon="37.2796110">
    <ele>1658.3</ele>
    <time>2026-06-20T10:13:37Z</time>
   </trkpt>
   <trkpt lat="-3.1898320" lon="37.2796110">
    <ele>1658.3</ele>
    <time>2026-06-20T10:13:38Z</time>
   </trkpt>
   <trkpt lat="-3.1898320" lon="37.2796110">
    <ele>1658.3</ele>
    <time>2026-06-20T10:13:39Z</time>
   </trkpt>
   <trkpt lat="-3.1898320" lon="37.2796110">
    <ele>1658.3</ele>
    <time>2026-06-20T10:13:40Z</time>
   </trkpt>
   <trkpt lat="-3.1898320" lon="37.2796110">
    <ele>1658.3</ele>
    <time>2026-06-20T10:13:41Z</time>
   </trkpt>
   <trkpt lat="-3.1898330" lon="37.2796090">
    <ele>1658.3</ele>
    <time>2026-06-20T10:13:42Z</time>
   </trkpt>
   <trkpt lat="-3.1898320" lon="37.2796060">
    <ele>1658.3</ele>
    <time>2026-06-20T10:13:43Z</time>
   </trkpt>
   <trkpt lat="-3.1898310" lon="37.2796000">
    <ele>1658.3</ele>
    <time>2026-06-20T10:13:44Z</time>
   </trkpt>
   <trkpt lat="-3.1898270" lon="37.2795900">
    <ele>1658.3</ele>
    <time>2026-06-20T10:13:45Z</time>
   </trkpt>
   <trkpt lat="-3.1898270" lon="37.2795830">
    <ele>1658.3</ele>
    <time>2026-06-20T10:13:46Z</time>
   </trkpt>
   <trkpt lat="-3.1898280" lon="37.2795810">
    <ele>1658.3</ele>
    <time>2026-06-20T10:13:47Z</time>
   </trkpt>
   <trkpt lat="-3.1898290" lon="37.2795850">
    <ele>1658.3</ele>
    <time>2026-06-20T10:13:48Z</time>
   </trkpt>
   <trkpt lat="-3.1898340" lon="37.2795730">
    <ele>1658.3</ele>
    <time>2026-06-20T10:13:49Z</time>
   </trkpt>
   <trkpt lat="-3.1898300" lon="37.2795720">
    <ele>1658.3</ele>
    <time>2026-06-20T10:13:50Z</time>
   </trkpt>
   <trkpt lat="-3.1898310" lon="37.2795750">
    <ele>1658.3</ele>
    <time>2026-06-20T10:13:51Z</time>
   </trkpt>
   <trkpt lat="-3.1898340" lon="37.2795760">
    <ele>1658.3</ele>
    <time>2026-06-20T10:13:52Z</time>
   </trkpt>
   <trkpt lat="-3.1898400" lon="37.2795740">
    <ele>1658.3</ele>
    <time>2026-06-20T10:13:53Z</time>
   </trkpt>
   <trkpt lat="-3.1898430" lon="37.2795750">
    <ele>1658.3</ele>
    <time>2026-06-20T10:13:54Z</time>
   </trkpt>
   <trkpt lat="-3.1898370" lon="37.2795790">
    <ele>1658.3</ele>
    <time>2026-06-20T10:13:55Z</time>
   </trkpt>
   <trkpt lat="-3.1898390" lon="37.2795800">
    <ele>1658.3</ele>
    <time>2026-06-20T10:13:56Z</time>
   </trkpt>
   <trkpt lat="-3.1898400" lon="37.2795820">
    <ele>1658.3</ele>
    <time>2026-06-20T10:13:57Z</time>
   </trkpt>
   <trkpt lat="-3.1898410" lon="37.2795820">
    <ele>1658.3</ele>
    <time>2026-06-20T10:13:58Z</time>
   </trkpt>
   <trkpt lat="-3.1898470" lon="37.2795790">
    <ele>1658.3</ele>
    <time>2026-06-20T10:13:59Z</time>
   </trkpt>
   <trkpt lat="-3.1898530" lon="37.2795710">
    <ele>1658.3</ele>
    <time>2026-06-20T10:14:00Z</time>
   </trkpt>
   <trkpt lat="-3.1898620" lon="37.2795680">
    <ele>1658.3</ele>
    <time>2026-06-20T10:14:01Z</time>
   </trkpt>
   <trkpt lat="-3.1898730" lon="37.2795640">
    <ele>1658.3</ele>
    <time>2026-06-20T10:14:02Z</time>
   </trkpt>
   <trkpt lat="-3.1898740" lon="37.2795610">
    <ele>1658.3</ele>
    <time>2026-06-20T10:14:03Z</time>
   </trkpt>
   <trkpt lat="-3.1898700" lon="37.2795620">
    <ele>1658.3</ele>
    <time>2026-06-20T10:14:04Z</time>
   </trkpt>
   <trkpt lat="-3.1898720" lon="37.2795600">
    <ele>1658.3</ele>
    <time>2026-06-20T10:14:05Z</time>
   </trkpt>
   <trkpt lat="-3.1898700" lon="37.2795600">
    <ele>1658.3</ele>
    <time>2026-06-20T10:14:06Z</time>
   </trkpt>
   <trkpt lat="-3.1898680" lon="37.2795600">
    <ele>1658.3</ele>
    <time>2026-06-20T10:14:07Z</time>
   </trkpt>
   <trkpt lat="-3.1898690" lon="37.2795590">
    <ele>1658.3</ele>
    <time>2026-06-20T10:14:08Z</time>
   </trkpt>
   <trkpt lat="-3.1898660" lon="37.2795620">
    <ele>1658.3</ele>
    <time>2026-06-20T10:14:09Z</time>
   </trkpt>
   <trkpt lat="-3.1898670" lon="37.2795590">
    <ele>1658.3</ele>
    <time>2026-06-20T10:14:10Z</time>
   </trkpt>
   <trkpt lat="-3.1898660" lon="37.2795610">
    <ele>1658.3</ele>
    <time>2026-06-20T10:14:11Z</time>
   </trkpt>
   <trkpt lat="-3.1898650" lon="37.2795590">
    <ele>1658.3</ele>
    <time>2026-06-20T10:14:12Z</time>
   </trkpt>
   <trkpt lat="-3.1898700" lon="37.2795590">
    <ele>1658.2</ele>
    <time>2026-06-20T10:14:13Z</time>
   </trkpt>
   <trkpt lat="-3.1898690" lon="37.2795580">
    <ele>1658.2</ele>
    <time>2026-06-20T10:14:14Z</time>
   </trkpt>
   <trkpt lat="-3.1898680" lon="37.2795590">
    <ele>1658.2</ele>
    <time>2026-06-20T10:14:15Z</time>
   </trkpt>
   <trkpt lat="-3.1898690" lon="37.2795580">
    <ele>1658.2</ele>
    <time>2026-06-20T10:14:16Z</time>
   </trkpt>
   <trkpt lat="-3.1898680" lon="37.2795580">
    <ele>1658.2</ele>
    <time>2026-06-20T10:14:17Z</time>
   </trkpt>
   <trkpt lat="-3.1898680" lon="37.2795570">
    <ele>1658.2</ele>
    <time>2026-06-20T10:14:18Z</time>
   </trkpt>
   <trkpt lat="-3.1898680" lon="37.2795570">
    <ele>1658.2</ele>
    <time>2026-06-20T10:14:19Z</time>
   </trkpt>
   <trkpt lat="-3.1898690" lon="37.2795560">
    <ele>1658.2</ele>
    <time>2026-06-20T10:14:20Z</time>
   </trkpt>
   <trkpt lat="-3.1898700" lon="37.2795560">
    <ele>1658.2</ele>
    <time>2026-06-20T10:14:21Z</time>
   </trkpt>
   <trkpt lat="-3.1898690" lon="37.2795560">
    <ele>1658.2</ele>
    <time>2026-06-20T10:14:22Z</time>
   </trkpt>
   <trkpt lat="-3.1898720" lon="37.2795560">
    <ele>1658.2</ele>
    <time>2026-06-20T10:14:23Z</time>
   </trkpt>
   <trkpt lat="-3.1898710" lon="37.2795560">
    <ele>1658.2</ele>
    <time>2026-06-20T10:14:24Z</time>
   </trkpt>
   <trkpt lat="-3.1898710" lon="37.2795560">
    <ele>1658.2</ele>
    <time>2026-06-20T10:14:25Z</time>
   </trkpt>
   <trkpt lat="-3.1898720" lon="37.2795550">
    <ele>1658.2</ele>
    <time>2026-06-20T10:14:26Z</time>
   </trkpt>
   <trkpt lat="-3.1898730" lon="37.2795550">
    <ele>1658.2</ele>
    <time>2026-06-20T10:14:27Z</time>
   </trkpt>
   <trkpt lat="-3.1898730" lon="37.2795540">
    <ele>1658.2</ele>
    <time>2026-06-20T10:14:28Z</time>
   </trkpt>
   <trkpt lat="-3.1898720" lon="37.2795550">
    <ele>1658.2</ele>
    <time>2026-06-20T10:14:29Z</time>
   </trkpt>
   <trkpt lat="-3.1898720" lon="37.2795550">
    <ele>1658.2</ele>
    <time>2026-06-20T10:14:30Z</time>
   </trkpt>
   <trkpt lat="-3.1898730" lon="37.2795550">
    <ele>1658.2</ele>
    <time>2026-06-20T10:14:31Z</time>
   </trkpt>
   <trkpt lat="-3.1898730" lon="37.2795560">
    <ele>1658.2</ele>
    <time>2026-06-20T10:14:32Z</time>
   </trkpt>
   <trkpt lat="-3.1898730" lon="37.2795560">
    <ele>1658.2</ele>
    <time>2026-06-20T10:14:33Z</time>
   </trkpt>
   <trkpt lat="-3.1898730" lon="37.2795560">
    <ele>1658.2</ele>
    <time>2026-06-20T10:14:34Z</time>
   </trkpt>
   <trkpt lat="-3.1898740" lon="37.2795560">
    <ele>1658.2</ele>
    <time>2026-06-20T10:14:35Z</time>
   </trkpt>
   <trkpt lat="-3.1898750" lon="37.2795560">
    <ele>1658.2</ele>
    <time>2026-06-20T10:14:36Z</time>
   </trkpt>
   <trkpt lat="-3.1898750" lon="37.2795560">
    <ele>1658.2</ele>
    <time>2026-06-20T10:14:37Z</time>
   </trkpt>
   <trkpt lat="-3.1898770" lon="37.2795560">
    <ele>1658.2</ele>
    <time>2026-06-20T10:14:38Z</time>
   </trkpt>
   <trkpt lat="-3.1898760" lon="37.2795560">
    <ele>1658.2</ele>
    <time>2026-06-20T10:14:39Z</time>
   </trkpt>
   <trkpt lat="-3.1898760" lon="37.2795570">
    <ele>1658.2</ele>
    <time>2026-06-20T10:14:40Z</time>
   </trkpt>
   <trkpt lat="-3.1898770" lon="37.2795560">
    <ele>1658.2</ele>
    <time>2026-06-20T10:14:41Z</time>
   </trkpt>
   <trkpt lat="-3.1898760" lon="37.2795580">
    <ele>1658.2</ele>
    <time>2026-06-20T10:14:42Z</time>
   </trkpt>
   <trkpt lat="-3.1898770" lon="37.2795580">
    <ele>1658.2</ele>
    <time>2026-06-20T10:14:43Z</time>
   </trkpt>
   <trkpt lat="-3.1898770" lon="37.2795580">
    <ele>1658.2</ele>
    <time>2026-06-20T10:14:44Z</time>
   </trkpt>
   <trkpt lat="-3.1898780" lon="37.2795580">
    <ele>1658.2</ele>
    <time>2026-06-20T10:14:46Z</time>
   </trkpt>
   <trkpt lat="-3.1898780" lon="37.2795580">
    <ele>1658.2</ele>
    <time>2026-06-20T10:14:47Z</time>
   </trkpt>
   <trkpt lat="-3.1898780" lon="37.2795590">
    <ele>1658.2</ele>
    <time>2026-06-20T10:14:48Z</time>
   </trkpt>
   <trkpt lat="-3.1898840" lon="37.2795560">
    <ele>1658.2</ele>
    <time>2026-06-20T10:14:49Z</time>
   </trkpt>
   <trkpt lat="-3.1898880" lon="37.2795580">
    <ele>1658.2</ele>
    <time>2026-06-20T10:14:50Z</time>
   </trkpt>
   <trkpt lat="-3.1898900" lon="37.2795600">
    <ele>1658.2</ele>
    <time>2026-06-20T10:14:51Z</time>
   </trkpt>
   <trkpt lat="-3.1898910" lon="37.2795610">
    <ele>1658.2</ele>
    <time>2026-06-20T10:14:52Z</time>
   </trkpt>
   <trkpt lat="-3.1898910" lon="37.2795620">
    <ele>1658.2</ele>
    <time>2026-06-20T10:14:53Z</time>
   </trkpt>
   <trkpt lat="-3.1898910" lon="37.2795640">
    <ele>1658.2</ele>
    <time>2026-06-20T10:14:54Z</time>
   </trkpt>
   <trkpt lat="-3.1898900" lon="37.2795630">
    <ele>1658.2</ele>
    <time>2026-06-20T10:14:55Z</time>
   </trkpt>
   <trkpt lat="-3.1898920" lon="37.2795630">
    <ele>1658.2</ele>
    <time>2026-06-20T10:14:56Z</time>
   </trkpt>
   <trkpt lat="-3.1898960" lon="37.2795610">
    <ele>1658.2</ele>
    <time>2026-06-20T10:14:57Z</time>
   </trkpt>
   <trkpt lat="-3.1899000" lon="37.2795630">
    <ele>1658.2</ele>
    <time>2026-06-20T10:14:58Z</time>
   </trkpt>
   <trkpt lat="-3.1899000" lon="37.2795630">
    <ele>1658.2</ele>
    <time>2026-06-20T10:14:59Z</time>
   </trkpt>
   <trkpt lat="-3.1899010" lon="37.2795650">
    <ele>1658.2</ele>
    <time>2026-06-20T10:15:00Z</time>
   </trkpt>
   <trkpt lat="-3.1899050" lon="37.2795650">
    <ele>1658.2</ele>
    <time>2026-06-20T10:15:01Z</time>
   </trkpt>
   <trkpt lat="-3.1899100" lon="37.2795660">
    <ele>1658.2</ele>
    <time>2026-06-20T10:15:02Z</time>
   </trkpt>
   <trkpt lat="-3.1899080" lon="37.2795680">
    <ele>1658.2</ele>
    <time>2026-06-20T10:15:03Z</time>
   </trkpt>
   <trkpt lat="-3.1899080" lon="37.2795700">
    <ele>1658.2</ele>
    <time>2026-06-20T10:15:04Z</time>
   </trkpt>
   <trkpt lat="-3.1899080" lon="37.2795710">
    <ele>1658.2</ele>
    <time>2026-06-20T10:15:05Z</time>
   </trkpt>
   <trkpt lat="-3.1899070" lon="37.2795710">
    <ele>1658.2</ele>
    <time>2026-06-20T10:15:06Z</time>
   </trkpt>
   <trkpt lat="-3.1899070" lon="37.2795720">
    <ele>1658.2</ele>
    <time>2026-06-20T10:15:07Z</time>
   </trkpt>
   <trkpt lat="-3.1899070" lon="37.2795720">
    <ele>1658.2</ele>
    <time>2026-06-20T10:15:08Z</time>
   </trkpt>
   <trkpt lat="-3.1899070" lon="37.2795720">
    <ele>1658.2</ele>
    <time>2026-06-20T10:15:09Z</time>
   </trkpt>
   <trkpt lat="-3.1899070" lon="37.2795720">
    <ele>1658.2</ele>
    <time>2026-06-20T10:15:10Z</time>
   </trkpt>
   <trkpt lat="-3.1899060" lon="37.2795720">
    <ele>1658.2</ele>
    <time>2026-06-20T10:15:11Z</time>
   </trkpt>
   <trkpt lat="-3.1899060" lon="37.2795730">
    <ele>1658.2</ele>
    <time>2026-06-20T10:15:12Z</time>
   </trkpt>
   <trkpt lat="-3.1899090" lon="37.2795710">
    <ele>1658.2</ele>
    <time>2026-06-20T10:15:13Z</time>
   </trkpt>
   <trkpt lat="-3.1899090" lon="37.2795710">
    <ele>1658.2</ele>
    <time>2026-06-20T10:15:14Z</time>
   </trkpt>
   <trkpt lat="-3.1899090" lon="37.2795720">
    <ele>1658.2</ele>
    <time>2026-06-20T10:15:15Z</time>
   </trkpt>
   <trkpt lat="-3.1899100" lon="37.2795720">
    <ele>1658.2</ele>
    <time>2026-06-20T10:15:16Z</time>
   </trkpt>
   <trkpt lat="-3.1899100" lon="37.2795710">
    <ele>1658.2</ele>
    <time>2026-06-20T10:15:17Z</time>
   </trkpt>
   <trkpt lat="-3.1899100" lon="37.2795720">
    <ele>1658.2</ele>
    <time>2026-06-20T10:15:18Z</time>
   </trkpt>
   <trkpt lat="-3.1899100" lon="37.2795720">
    <ele>1658.2</ele>
    <time>2026-06-20T10:15:19Z</time>
   </trkpt>
   <trkpt lat="-3.1899100" lon="37.2795710">
    <ele>1658.2</ele>
    <time>2026-06-20T10:15:20Z</time>
   </trkpt>
   <trkpt lat="-3.1899100" lon="37.2795710">
    <ele>1658.2</ele>
    <time>2026-06-20T10:15:21Z</time>
   </trkpt>
   <trkpt lat="-3.1899100" lon="37.2795720">
    <ele>1658.2</ele>
    <time>2026-06-20T10:15:22Z</time>
   </trkpt>
   <trkpt lat="-3.1899100" lon="37.2795720">
    <ele>1658.2</ele>
    <time>2026-06-20T10:15:23Z</time>
   </trkpt>
   <trkpt lat="-3.1899100" lon="37.2795720">
    <ele>1658.2</ele>
    <time>2026-06-20T10:15:24Z</time>
   </trkpt>
   <trkpt lat="-3.1899100" lon="37.2795710">
    <ele>1658.2</ele>
    <time>2026-06-20T10:15:25Z</time>
   </trkpt>
   <trkpt lat="-3.1899100" lon="37.2795710">
    <ele>1658.2</ele>
    <time>2026-06-20T10:15:26Z</time>
   </trkpt>
   <trkpt lat="-3.1899100" lon="37.2795720">
    <ele>1658.2</ele>
    <time>2026-06-20T10:15:27Z</time>
   </trkpt>
   <trkpt lat="-3.1899080" lon="37.2795720">
    <ele>1658.2</ele>
    <time>2026-06-20T10:15:28Z</time>
   </trkpt>
   <trkpt lat="-3.1899080" lon="37.2795720">
    <ele>1658.2</ele>
    <time>2026-06-20T10:15:29Z</time>
   </trkpt>
   <trkpt lat="-3.1899080" lon="37.2795720">
    <ele>1658.2</ele>
    <time>2026-06-20T10:15:30Z</time>
   </trkpt>
   <trkpt lat="-3.1899080" lon="37.2795720">
    <ele>1658.2</ele>
    <time>2026-06-20T10:15:31Z</time>
   </trkpt>
   <trkpt lat="-3.1899080" lon="37.2795720">
    <ele>1658.2</ele>
    <time>2026-06-20T10:15:32Z</time>
   </trkpt>
   <trkpt lat="-3.1899100" lon="37.2795740">
    <ele>1658.2</ele>
    <time>2026-06-20T10:15:33Z</time>
   </trkpt>
   <trkpt lat="-3.1899110" lon="37.2795740">
    <ele>1658.2</ele>
    <time>2026-06-20T10:15:34Z</time>
   </trkpt>
   <trkpt lat="-3.1899110" lon="37.2795740">
    <ele>1658.2</ele>
    <time>2026-06-20T10:15:35Z</time>
   </trkpt>
   <trkpt lat="-3.1899110" lon="37.2795740">
    <ele>1658.2</ele>
    <time>2026-06-20T10:15:36Z</time>
   </trkpt>
   <trkpt lat="-3.1899110" lon="37.2795740">
    <ele>1658.2</ele>
    <time>2026-06-20T10:15:37Z</time>
   </trkpt>
   <trkpt lat="-3.1899110" lon="37.2795740">
    <ele>1658.2</ele>
    <time>2026-06-20T10:15:38Z</time>
   </trkpt>
   <trkpt lat="-3.1899110" lon="37.2795740">
    <ele>1658.2</ele>
    <time>2026-06-20T10:15:39Z</time>
   </trkpt>
   <trkpt lat="-3.1899110" lon="37.2795740">
    <ele>1658.2</ele>
    <time>2026-06-20T10:15:40Z</time>
   </trkpt>
   <trkpt lat="-3.1899110" lon="37.2795740">
    <ele>1658.2</ele>
    <time>2026-06-20T10:15:41Z</time>
   </trkpt>
   <trkpt lat="-3.1899110" lon="37.2795750">
    <ele>1658.2</ele>
    <time>2026-06-20T10:15:42Z</time>
   </trkpt>
   <trkpt lat="-3.1899110" lon="37.2795750">
    <ele>1658.2</ele>
    <time>2026-06-20T10:15:43Z</time>
   </trkpt>
   <trkpt lat="-3.1899110" lon="37.2795750">
    <ele>1658.2</ele>
    <time>2026-06-20T10:15:44Z</time>
   </trkpt>
   <trkpt lat="-3.1899110" lon="37.2795750">
    <ele>1658.2</ele>
    <time>2026-06-20T10:15:45Z</time>
   </trkpt>
   <trkpt lat="-3.1899110" lon="37.2795750">
    <ele>1658.2</ele>
    <time>2026-06-20T10:15:46Z</time>
   </trkpt>
   <trkpt lat="-3.1899100" lon="37.2795750">
    <ele>1658.2</ele>
    <time>2026-06-20T10:15:47Z</time>
   </trkpt>
   <trkpt lat="-3.1899100" lon="37.2795750">
    <ele>1658.2</ele>
    <time>2026-06-20T10:15:48Z</time>
   </trkpt>
   <trkpt lat="-3.1899100" lon="37.2795750">
    <ele>1658.2</ele>
    <time>2026-06-20T10:15:49Z</time>
   </trkpt>
   <trkpt lat="-3.1899090" lon="37.2795760">
    <ele>1658.2</ele>
    <time>2026-06-20T10:15:50Z</time>
   </trkpt>
   <trkpt lat="-3.1899070" lon="37.2795770">
    <ele>1658.2</ele>
    <time>2026-06-20T10:15:51Z</time>
   </trkpt>
   <trkpt lat="-3.1899050" lon="37.2795780">
    <ele>1658.2</ele>
    <time>2026-06-20T10:15:52Z</time>
   </trkpt>
   <trkpt lat="-3.1899030" lon="37.2795790">
    <ele>1658.2</ele>
    <time>2026-06-20T10:15:53Z</time>
   </trkpt>
   <trkpt lat="-3.1899010" lon="37.2795790">
    <ele>1658.2</ele>
    <time>2026-06-20T10:15:54Z</time>
   </trkpt>
   <trkpt lat="-3.1899000" lon="37.2795790">
    <ele>1658.2</ele>
    <time>2026-06-20T10:15:55Z</time>
   </trkpt>
   <trkpt lat="-3.1898990" lon="37.2795790">
    <ele>1658.2</ele>
    <time>2026-06-20T10:15:56Z</time>
   </trkpt>
   <trkpt lat="-3.1898970" lon="37.2795790">
    <ele>1658.2</ele>
    <time>2026-06-20T10:15:57Z</time>
   </trkpt>
   <trkpt lat="-3.1898950" lon="37.2795770">
    <ele>1658.2</ele>
    <time>2026-06-20T10:15:58Z</time>
   </trkpt>
   <trkpt lat="-3.1898950" lon="37.2795780">
    <ele>1658.2</ele>
    <time>2026-06-20T10:15:59Z</time>
   </trkpt>
   <trkpt lat="-3.1898950" lon="37.2795780">
    <ele>1658.2</ele>
    <time>2026-06-20T10:16:00Z</time>
   </trkpt>
   <trkpt lat="-3.1898940" lon="37.2795780">
    <ele>1658.2</ele>
    <time>2026-06-20T10:16:01Z</time>
   </trkpt>
   <trkpt lat="-3.1898930" lon="37.2795780">
    <ele>1658.2</ele>
    <time>2026-06-20T10:16:02Z</time>
   </trkpt>
   <trkpt lat="-3.1898930" lon="37.2795780">
    <ele>1658.2</ele>
    <time>2026-06-20T10:16:03Z</time>
   </trkpt>
   <trkpt lat="-3.1898930" lon="37.2795780">
    <ele>1658.2</ele>
    <time>2026-06-20T10:16:04Z</time>
   </trkpt>
   <trkpt lat="-3.1898930" lon="37.2795780">
    <ele>1658.2</ele>
    <time>2026-06-20T10:16:05Z</time>
   </trkpt>
   <trkpt lat="-3.1898930" lon="37.2795780">
    <ele>1658.2</ele>
    <time>2026-06-20T10:16:06Z</time>
   </trkpt>
   <trkpt lat="-3.1898930" lon="37.2795780">
    <ele>1658.2</ele>
    <time>2026-06-20T10:16:07Z</time>
   </trkpt>
   <trkpt lat="-3.1898940" lon="37.2795780">
    <ele>1658.2</ele>
    <time>2026-06-20T10:16:08Z</time>
   </trkpt>
   <trkpt lat="-3.1898950" lon="37.2795780">
    <ele>1658.2</ele>
    <time>2026-06-20T10:16:09Z</time>
   </trkpt>
   <trkpt lat="-3.1898940" lon="37.2795770">
    <ele>1658.2</ele>
    <time>2026-06-20T10:16:10Z</time>
   </trkpt>
   <trkpt lat="-3.1898920" lon="37.2795760">
    <ele>1658.2</ele>
    <time>2026-06-20T10:16:11Z</time>
   </trkpt>
   <trkpt lat="-3.1898900" lon="37.2795760">
    <ele>1658.2</ele>
    <time>2026-06-20T10:16:12Z</time>
   </trkpt>
   <trkpt lat="-3.1898910" lon="37.2795750">
    <ele>1658.2</ele>
    <time>2026-06-20T10:16:13Z</time>
   </trkpt>
   <trkpt lat="-3.1898900" lon="37.2795760">
    <ele>1658.2</ele>
    <time>2026-06-20T10:16:14Z</time>
   </trkpt>
   <trkpt lat="-3.1898900" lon="37.2795760">
    <ele>1658.2</ele>
    <time>2026-06-20T10:16:15Z</time>
   </trkpt>
   <trkpt lat="-3.1898900" lon="37.2795760">
    <ele>1658.2</ele>
    <time>2026-06-20T10:16:16Z</time>
   </trkpt>
   <trkpt lat="-3.1898900" lon="37.2795760">
    <ele>1658.2</ele>
    <time>2026-06-20T10:16:17Z</time>
   </trkpt>
   <trkpt lat="-3.1898900" lon="37.2795760">
    <ele>1658.2</ele>
    <time>2026-06-20T10:16:18Z</time>
   </trkpt>
   <trkpt lat="-3.1898900" lon="37.2795760">
    <ele>1658.2</ele>
    <time>2026-06-20T10:16:19Z</time>
   </trkpt>
   <trkpt lat="-3.1898900" lon="37.2795750">
    <ele>1658.2</ele>
    <time>2026-06-20T10:16:20Z</time>
   </trkpt>
   <trkpt lat="-3.1898900" lon="37.2795760">
    <ele>1658.2</ele>
    <time>2026-06-20T10:16:21Z</time>
   </trkpt>
   <trkpt lat="-3.1898910" lon="37.2795730">
    <ele>1658.2</ele>
    <time>2026-06-20T10:16:22Z</time>
   </trkpt>
   <trkpt lat="-3.1898910" lon="37.2795720">
    <ele>1658.2</ele>
    <time>2026-06-20T10:16:23Z</time>
   </trkpt>
   <trkpt lat="-3.1898890" lon="37.2795710">
    <ele>1658.2</ele>
    <time>2026-06-20T10:16:24Z</time>
   </trkpt>
   <trkpt lat="-3.1898880" lon="37.2795720">
    <ele>1658.2</ele>
    <time>2026-06-20T10:16:25Z</time>
   </trkpt>
   <trkpt lat="-3.1898860" lon="37.2795720">
    <ele>1658.2</ele>
    <time>2026-06-20T10:16:26Z</time>
   </trkpt>
   <trkpt lat="-3.1898850" lon="37.2795710">
    <ele>1658.2</ele>
    <time>2026-06-20T10:16:27Z</time>
   </trkpt>
   <trkpt lat="-3.1898850" lon="37.2795710">
    <ele>1658.2</ele>
    <time>2026-06-20T10:16:28Z</time>
   </trkpt>
   <trkpt lat="-3.1898850" lon="37.2795710">
    <ele>1658.2</ele>
    <time>2026-06-20T10:16:29Z</time>
   </trkpt>
   <trkpt lat="-3.1898850" lon="37.2795710">
    <ele>1658.2</ele>
    <time>2026-06-20T10:16:30Z</time>
   </trkpt>
   <trkpt lat="-3.1898850" lon="37.2795710">
    <ele>1658.2</ele>
    <time>2026-06-20T10:16:31Z</time>
   </trkpt>
   <trkpt lat="-3.1898810" lon="37.2795720">
    <ele>1658.2</ele>
    <time>2026-06-20T10:16:32Z</time>
   </trkpt>
   <trkpt lat="-3.1898790" lon="37.2795720">
    <ele>1658.2</ele>
    <time>2026-06-20T10:16:33Z</time>
   </trkpt>
   <trkpt lat="-3.1898790" lon="37.2795710">
    <ele>1658.2</ele>
    <time>2026-06-20T10:16:34Z</time>
   </trkpt>
   <trkpt lat="-3.1898790" lon="37.2795710">
    <ele>1658.2</ele>
    <time>2026-06-20T10:16:35Z</time>
   </trkpt>
   <trkpt lat="-3.1898790" lon="37.2795710">
    <ele>1658.2</ele>
    <time>2026-06-20T10:16:36Z</time>
   </trkpt>
   <trkpt lat="-3.1898790" lon="37.2795710">
    <ele>1658.2</ele>
    <time>2026-06-20T10:16:37Z</time>
   </trkpt>
   <trkpt lat="-3.1898790" lon="37.2795710">
    <ele>1658.2</ele>
    <time>2026-06-20T10:16:38Z</time>
   </trkpt>
   <trkpt lat="-3.1898780" lon="37.2795710">
    <ele>1658.2</ele>
    <time>2026-06-20T10:16:39Z</time>
   </trkpt>
   <trkpt lat="-3.1898790" lon="37.2795720">
    <ele>1658.2</ele>
    <time>2026-06-20T10:16:40Z</time>
   </trkpt>
   <trkpt lat="-3.1898790" lon="37.2795730">
    <ele>1658.2</ele>
    <time>2026-06-20T10:16:41Z</time>
   </trkpt>
   <trkpt lat="-3.1898780" lon="37.2795740">
    <ele>1658.2</ele>
    <time>2026-06-20T10:16:42Z</time>
   </trkpt>
   <trkpt lat="-3.1898770" lon="37.2795740">
    <ele>1658.2</ele>
    <time>2026-06-20T10:16:43Z</time>
   </trkpt>
   <trkpt lat="-3.1898770" lon="37.2795740">
    <ele>1658.2</ele>
    <time>2026-06-20T10:16:44Z</time>
   </trkpt>
   <trkpt lat="-3.1898770" lon="37.2795740">
    <ele>1658.2</ele>
    <time>2026-06-20T10:16:45Z</time>
   </trkpt>
   <trkpt lat="-3.1898770" lon="37.2795730">
    <ele>1658.2</ele>
    <time>2026-06-20T10:16:46Z</time>
   </trkpt>
   <trkpt lat="-3.1898770" lon="37.2795730">
    <ele>1658.2</ele>
    <time>2026-06-20T10:16:47Z</time>
   </trkpt>
   <trkpt lat="-3.1898770" lon="37.2795730">
    <ele>1658.2</ele>
    <time>2026-06-20T10:16:48Z</time>
   </trkpt>
   <trkpt lat="-3.1898780" lon="37.2795730">
    <ele>1658.2</ele>
    <time>2026-06-20T10:16:49Z</time>
   </trkpt>
   <trkpt lat="-3.1898770" lon="37.2795740">
    <ele>1658.2</ele>
    <time>2026-06-20T10:16:50Z</time>
   </trkpt>
   <trkpt lat="-3.1898770" lon="37.2795740">
    <ele>1658.2</ele>
    <time>2026-06-20T10:16:51Z</time>
   </trkpt>
   <trkpt lat="-3.1898770" lon="37.2795740">
    <ele>1658.2</ele>
    <time>2026-06-20T10:16:52Z</time>
   </trkpt>
   <trkpt lat="-3.1898780" lon="37.2795740">
    <ele>1658.2</ele>
    <time>2026-06-20T10:16:53Z</time>
   </trkpt>
   <trkpt lat="-3.1898780" lon="37.2795740">
    <ele>1658.2</ele>
    <time>2026-06-20T10:16:54Z</time>
   </trkpt>
   <trkpt lat="-3.1898780" lon="37.2795740">
    <ele>1658.2</ele>
    <time>2026-06-20T10:16:55Z</time>
   </trkpt>
   <trkpt lat="-3.1898780" lon="37.2795750">
    <ele>1658.2</ele>
    <time>2026-06-20T10:16:56Z</time>
   </trkpt>
   <trkpt lat="-3.1898780" lon="37.2795740">
    <ele>1658.2</ele>
    <time>2026-06-20T10:16:57Z</time>
   </trkpt>
   <trkpt lat="-3.1898780" lon="37.2795750">
    <ele>1658.2</ele>
    <time>2026-06-20T10:16:58Z</time>
   </trkpt>
   <trkpt lat="-3.1898770" lon="37.2795750">
    <ele>1658.2</ele>
    <time>2026-06-20T10:16:59Z</time>
   </trkpt>
   <trkpt lat="-3.1898770" lon="37.2795760">
    <ele>1658.2</ele>
    <time>2026-06-20T10:17:00Z</time>
   </trkpt>
   <trkpt lat="-3.1898770" lon="37.2795760">
    <ele>1658.2</ele>
    <time>2026-06-20T10:17:01Z</time>
   </trkpt>
   <trkpt lat="-3.1898770" lon="37.2795750">
    <ele>1658.2</ele>
    <time>2026-06-20T10:17:02Z</time>
   </trkpt>
   <trkpt lat="-3.1898770" lon="37.2795750">
    <ele>1658.2</ele>
    <time>2026-06-20T10:17:03Z</time>
   </trkpt>
   <trkpt lat="-3.1898770" lon="37.2795740">
    <ele>1658.2</ele>
    <time>2026-06-20T10:17:04Z</time>
   </trkpt>
   <trkpt lat="-3.1898760" lon="37.2795750">
    <ele>1658.2</ele>
    <time>2026-06-20T10:17:05Z</time>
   </trkpt>
   <trkpt lat="-3.1898760" lon="37.2795760">
    <ele>1658.2</ele>
    <time>2026-06-20T10:17:06Z</time>
   </trkpt>
   <trkpt lat="-3.1898770" lon="37.2795750">
    <ele>1658.2</ele>
    <time>2026-06-20T10:17:07Z</time>
   </trkpt>
   <trkpt lat="-3.1898770" lon="37.2795740">
    <ele>1658.2</ele>
    <time>2026-06-20T10:17:08Z</time>
   </trkpt>
   <trkpt lat="-3.1898760" lon="37.2795750">
    <ele>1658.2</ele>
    <time>2026-06-20T10:17:09Z</time>
   </trkpt>
   <trkpt lat="-3.1898760" lon="37.2795730">
    <ele>1658.2</ele>
    <time>2026-06-20T10:17:10Z</time>
   </trkpt>
   <trkpt lat="-3.1898750" lon="37.2795730">
    <ele>1658.2</ele>
    <time>2026-06-20T10:17:11Z</time>
   </trkpt>
   <trkpt lat="-3.1898740" lon="37.2795720">
    <ele>1658.2</ele>
    <time>2026-06-20T10:17:12Z</time>
   </trkpt>
   <trkpt lat="-3.1898740" lon="37.2795720">
    <ele>1658.2</ele>
    <time>2026-06-20T10:17:13Z</time>
   </trkpt>
   <trkpt lat="-3.1898730" lon="37.2795700">
    <ele>1658.2</ele>
    <time>2026-06-20T10:17:14Z</time>
   </trkpt>
   <trkpt lat="-3.1898730" lon="37.2795690">
    <ele>1658.2</ele>
    <time>2026-06-20T10:17:15Z</time>
   </trkpt>
   <trkpt lat="-3.1898720" lon="37.2795700">
    <ele>1658.2</ele>
    <time>2026-06-20T10:17:16Z</time>
   </trkpt>
   <trkpt lat="-3.1898710" lon="37.2795680">
    <ele>1658.2</ele>
    <time>2026-06-20T10:17:17Z</time>
   </trkpt>
   <trkpt lat="-3.1898720" lon="37.2795670">
    <ele>1658.1</ele>
    <time>2026-06-20T10:17:18Z</time>
   </trkpt>
   <trkpt lat="-3.1898710" lon="37.2795660">
    <ele>1658.1</ele>
    <time>2026-06-20T10:17:19Z</time>
   </trkpt>
   <trkpt lat="-3.1898690" lon="37.2795680">
    <ele>1658.1</ele>
    <time>2026-06-20T10:17:20Z</time>
   </trkpt>
   <trkpt lat="-3.1898680" lon="37.2795660">
    <ele>1658.1</ele>
    <time>2026-06-20T10:17:21Z</time>
   </trkpt>
   <trkpt lat="-3.1898690" lon="37.2795660">
    <ele>1658.1</ele>
    <time>2026-06-20T10:17:22Z</time>
   </trkpt>
   <trkpt lat="-3.1898680" lon="37.2795660">
    <ele>1658.1</ele>
    <time>2026-06-20T10:17:23Z</time>
   </trkpt>
   <trkpt lat="-3.1898690" lon="37.2795660">
    <ele>1658.1</ele>
    <time>2026-06-20T10:17:24Z</time>
   </trkpt>
   <trkpt lat="-3.1898680" lon="37.2795650">
    <ele>1658.1</ele>
    <time>2026-06-20T10:17:25Z</time>
   </trkpt>
   <trkpt lat="-3.1898690" lon="37.2795650">
    <ele>1658.1</ele>
    <time>2026-06-20T10:17:26Z</time>
   </trkpt>
   <trkpt lat="-3.1898680" lon="37.2795650">
    <ele>1658.1</ele>
    <time>2026-06-20T10:17:27Z</time>
   </trkpt>
   <trkpt lat="-3.1898680" lon="37.2795650">
    <ele>1658.1</ele>
    <time>2026-06-20T10:17:28Z</time>
   </trkpt>
   <trkpt lat="-3.1898710" lon="37.2795640">
    <ele>1658.1</ele>
    <time>2026-06-20T10:17:29Z</time>
   </trkpt>
   <trkpt lat="-3.1898710" lon="37.2795620">
    <ele>1658.1</ele>
    <time>2026-06-20T10:17:30Z</time>
   </trkpt>
   <trkpt lat="-3.1898720" lon="37.2795610">
    <ele>1658.1</ele>
    <time>2026-06-20T10:17:31Z</time>
   </trkpt>
   <trkpt lat="-3.1898830" lon="37.2795540">
    <ele>1658.1</ele>
    <time>2026-06-20T10:17:32Z</time>
   </trkpt>
   <trkpt lat="-3.1898880" lon="37.2795600">
    <ele>1658.1</ele>
    <time>2026-06-20T10:17:33Z</time>
   </trkpt>
   <trkpt lat="-3.1898790" lon="37.2795580">
    <ele>1658.1</ele>
    <time>2026-06-20T10:17:34Z</time>
   </trkpt>
   <trkpt lat="-3.1898780" lon="37.2795590">
    <ele>1658.1</ele>
    <time>2026-06-20T10:17:35Z</time>
   </trkpt>
   <trkpt lat="-3.1898820" lon="37.2795580">
    <ele>1658.1</ele>
    <time>2026-06-20T10:17:36Z</time>
   </trkpt>
   <trkpt lat="-3.1898810" lon="37.2795570">
    <ele>1658.1</ele>
    <time>2026-06-20T10:17:37Z</time>
   </trkpt>
   <trkpt lat="-3.1898770" lon="37.2795550">
    <ele>1658.1</ele>
    <time>2026-06-20T10:17:38Z</time>
   </trkpt>
   <trkpt lat="-3.1898770" lon="37.2795580">
    <ele>1658.1</ele>
    <time>2026-06-20T10:17:39Z</time>
   </trkpt>
   <trkpt lat="-3.1898720" lon="37.2795600">
    <ele>1658.1</ele>
    <time>2026-06-20T10:17:40Z</time>
   </trkpt>
   <trkpt lat="-3.1898720" lon="37.2795570">
    <ele>1658.1</ele>
    <time>2026-06-20T10:17:41Z</time>
   </trkpt>
   <trkpt lat="-3.1898730" lon="37.2795580">
    <ele>1658.1</ele>
    <time>2026-06-20T10:17:43Z</time>
   </trkpt>
   <trkpt lat="-3.1898750" lon="37.2795550">
    <ele>1658.1</ele>
    <time>2026-06-20T10:17:44Z</time>
   </trkpt>
   <trkpt lat="-3.1898710" lon="37.2795600">
    <ele>1658.1</ele>
    <time>2026-06-20T10:17:45Z</time>
   </trkpt>
   <trkpt lat="-3.1898730" lon="37.2795610">
    <ele>1658.2</ele>
    <time>2026-06-20T10:17:46Z</time>
   </trkpt>
   <trkpt lat="-3.1898690" lon="37.2795620">
    <ele>1658.2</ele>
    <time>2026-06-20T10:17:47Z</time>
   </trkpt>
   <trkpt lat="-3.1898590" lon="37.2795650">
    <ele>1658.2</ele>
    <time>2026-06-20T10:17:48Z</time>
   </trkpt>
   <trkpt lat="-3.1898560" lon="37.2795720">
    <ele>1658.2</ele>
    <time>2026-06-20T10:17:49Z</time>
   </trkpt>
   <trkpt lat="-3.1898570" lon="37.2795820">
    <ele>1658.3</ele>
    <time>2026-06-20T10:17:50Z</time>
   </trkpt>
   <trkpt lat="-3.1898520" lon="37.2795910">
    <ele>1658.3</ele>
    <time>2026-06-20T10:17:51Z</time>
   </trkpt>
   <trkpt lat="-3.1898460" lon="37.2795960">
    <ele>1658.4</ele>
    <time>2026-06-20T10:17:52Z</time>
   </trkpt>
   <trkpt lat="-3.1898350" lon="37.2796020">
    <ele>1658.4</ele>
    <time>2026-06-20T10:17:53Z</time>
   </trkpt>
   <trkpt lat="-3.1898270" lon="37.2796070">
    <ele>1658.4</ele>
    <time>2026-06-20T10:17:54Z</time>
   </trkpt>
   <trkpt lat="-3.1898170" lon="37.2796120">
    <ele>1658.5</ele>
    <time>2026-06-20T10:17:55Z</time>
   </trkpt>
   <trkpt lat="-3.1898180" lon="37.2796150">
    <ele>1658.5</ele>
    <time>2026-06-20T10:17:56Z</time>
   </trkpt>
   <trkpt lat="-3.1898160" lon="37.2796140">
    <ele>1658.5</ele>
    <time>2026-06-20T10:17:57Z</time>
   </trkpt>
   <trkpt lat="-3.1898160" lon="37.2796130">
    <ele>1658.5</ele>
    <time>2026-06-20T10:17:58Z</time>
   </trkpt>
   <trkpt lat="-3.1898180" lon="37.2796130">
    <ele>1658.5</ele>
    <time>2026-06-20T10:17:59Z</time>
   </trkpt>
   <trkpt lat="-3.1898180" lon="37.2796130">
    <ele>1658.5</ele>
    <time>2026-06-20T10:18:00Z</time>
   </trkpt>
   <trkpt lat="-3.1898190" lon="37.2796120">
    <ele>1658.5</ele>
    <time>2026-06-20T10:18:01Z</time>
   </trkpt>
   <trkpt lat="-3.1898200" lon="37.2796120">
    <ele>1658.5</ele>
    <time>2026-06-20T10:18:02Z</time>
   </trkpt>
   <trkpt lat="-3.1898210" lon="37.2796130">
    <ele>1658.5</ele>
    <time>2026-06-20T10:18:03Z</time>
   </trkpt>
   <trkpt lat="-3.1898210" lon="37.2796130">
    <ele>1658.5</ele>
    <time>2026-06-20T10:18:04Z</time>
   </trkpt>
   <trkpt lat="-3.1898220" lon="37.2796130">
    <ele>1658.5</ele>
    <time>2026-06-20T10:18:05Z</time>
   </trkpt>
   <trkpt lat="-3.1898240" lon="37.2796130">
    <ele>1658.5</ele>
    <time>2026-06-20T10:18:06Z</time>
   </trkpt>
   <trkpt lat="-3.1898240" lon="37.2796120">
    <ele>1658.5</ele>
    <time>2026-06-20T10:18:07Z</time>
   </trkpt>
   <trkpt lat="-3.1898250" lon="37.2796120">
    <ele>1658.5</ele>
    <time>2026-06-20T10:18:08Z</time>
   </trkpt>
   <trkpt lat="-3.1898240" lon="37.2796130">
    <ele>1658.6</ele>
    <time>2026-06-20T10:18:09Z</time>
   </trkpt>
   <trkpt lat="-3.1898240" lon="37.2796130">
    <ele>1658.6</ele>
    <time>2026-06-20T10:18:10Z</time>
   </trkpt>
   <trkpt lat="-3.1898280" lon="37.2796120">
    <ele>1658.6</ele>
    <time>2026-06-20T10:18:11Z</time>
   </trkpt>
   <trkpt lat="-3.1898270" lon="37.2796110">
    <ele>1658.6</ele>
    <time>2026-06-20T10:18:12Z</time>
   </trkpt>
   <trkpt lat="-3.1898280" lon="37.2796110">
    <ele>1658.6</ele>
    <time>2026-06-20T10:18:13Z</time>
   </trkpt>
   <trkpt lat="-3.1898270" lon="37.2796100">
    <ele>1658.6</ele>
    <time>2026-06-20T10:18:14Z</time>
   </trkpt>
   <trkpt lat="-3.1898270" lon="37.2796110">
    <ele>1658.6</ele>
    <time>2026-06-20T10:18:15Z</time>
   </trkpt>
   <trkpt lat="-3.1898250" lon="37.2796110">
    <ele>1658.6</ele>
    <time>2026-06-20T10:18:16Z</time>
   </trkpt>
   <trkpt lat="-3.1898260" lon="37.2796100">
    <ele>1658.6</ele>
    <time>2026-06-20T10:18:17Z</time>
   </trkpt>
   <trkpt lat="-3.1898260" lon="37.2796110">
    <ele>1658.6</ele>
    <time>2026-06-20T10:18:18Z</time>
   </trkpt>
   <trkpt lat="-3.1898280" lon="37.2796110">
    <ele>1658.6</ele>
    <time>2026-06-20T10:18:19Z</time>
   </trkpt>
   <trkpt lat="-3.1898270" lon="37.2796110">
    <ele>1658.6</ele>
    <time>2026-06-20T10:18:20Z</time>
   </trkpt>
   <trkpt lat="-3.1898280" lon="37.2796110">
    <ele>1658.6</ele>
    <time>2026-06-20T10:18:21Z</time>
   </trkpt>
   <trkpt lat="-3.1898280" lon="37.2796100">
    <ele>1658.6</ele>
    <time>2026-06-20T10:18:22Z</time>
   </trkpt>
   <trkpt lat="-3.1898280" lon="37.2796110">
    <ele>1658.6</ele>
    <time>2026-06-20T10:18:23Z</time>
   </trkpt>
   <trkpt lat="-3.1898280" lon="37.2796120">
    <ele>1658.6</ele>
    <time>2026-06-20T10:18:24Z</time>
   </trkpt>
   <trkpt lat="-3.1898280" lon="37.2796120">
    <ele>1658.6</ele>
    <time>2026-06-20T10:18:25Z</time>
   </trkpt>
   <trkpt lat="-3.1898280" lon="37.2796120">
    <ele>1658.6</ele>
    <time>2026-06-20T10:18:26Z</time>
   </trkpt>
   <trkpt lat="-3.1898290" lon="37.2796120">
    <ele>1658.6</ele>
    <time>2026-06-20T10:18:27Z</time>
   </trkpt>
   <trkpt lat="-3.1898290" lon="37.2796110">
    <ele>1658.6</ele>
    <time>2026-06-20T10:18:28Z</time>
   </trkpt>
   <trkpt lat="-3.1898290" lon="37.2796110">
    <ele>1658.6</ele>
    <time>2026-06-20T10:18:29Z</time>
   </trkpt>
   <trkpt lat="-3.1898290" lon="37.2796110">
    <ele>1658.6</ele>
    <time>2026-06-20T10:18:30Z</time>
   </trkpt>
   <trkpt lat="-3.1898300" lon="37.2796120">
    <ele>1658.6</ele>
    <time>2026-06-20T10:18:31Z</time>
   </trkpt>
   <trkpt lat="-3.1898300" lon="37.2796120">
    <ele>1658.6</ele>
    <time>2026-06-20T10:18:32Z</time>
   </trkpt>
   <trkpt lat="-3.1898310" lon="37.2796120">
    <ele>1658.6</ele>
    <time>2026-06-20T10:18:33Z</time>
   </trkpt>
   <trkpt lat="-3.1898310" lon="37.2796120">
    <ele>1658.6</ele>
    <time>2026-06-20T10:18:34Z</time>
   </trkpt>
   <trkpt lat="-3.1898310" lon="37.2796120">
    <ele>1658.6</ele>
    <time>2026-06-20T10:18:35Z</time>
   </trkpt>
   <trkpt lat="-3.1898310" lon="37.2796130">
    <ele>1658.7</ele>
    <time>2026-06-20T10:18:36Z</time>
   </trkpt>
   <trkpt lat="-3.1898310" lon="37.2796120">
    <ele>1658.7</ele>
    <time>2026-06-20T10:18:37Z</time>
   </trkpt>
   <trkpt lat="-3.1898310" lon="37.2796130">
    <ele>1658.7</ele>
    <time>2026-06-20T10:18:38Z</time>
   </trkpt>
   <trkpt lat="-3.1898300" lon="37.2796130">
    <ele>1658.7</ele>
    <time>2026-06-20T10:18:39Z</time>
   </trkpt>
   <trkpt lat="-3.1898310" lon="37.2796130">
    <ele>1658.7</ele>
    <time>2026-06-20T10:18:40Z</time>
   </trkpt>
   <trkpt lat="-3.1898310" lon="37.2796130">
    <ele>1658.7</ele>
    <time>2026-06-20T10:18:41Z</time>
   </trkpt>
   <trkpt lat="-3.1898290" lon="37.2796120">
    <ele>1658.7</ele>
    <time>2026-06-20T10:18:42Z</time>
   </trkpt>
   <trkpt lat="-3.1898280" lon="37.2796130">
    <ele>1658.7</ele>
    <time>2026-06-20T10:18:43Z</time>
   </trkpt>
   <trkpt lat="-3.1898270" lon="37.2796110">
    <ele>1658.7</ele>
    <time>2026-06-20T10:18:44Z</time>
   </trkpt>
   <trkpt lat="-3.1898270" lon="37.2796090">
    <ele>1658.7</ele>
    <time>2026-06-20T10:18:45Z</time>
   </trkpt>
   <trkpt lat="-3.1898270" lon="37.2796090">
    <ele>1658.7</ele>
    <time>2026-06-20T10:18:46Z</time>
   </trkpt>
   <trkpt lat="-3.1898260" lon="37.2796110">
    <ele>1658.7</ele>
    <time>2026-06-20T10:18:47Z</time>
   </trkpt>
   <trkpt lat="-3.1898260" lon="37.2796100">
    <ele>1658.7</ele>
    <time>2026-06-20T10:18:48Z</time>
   </trkpt>
   <trkpt lat="-3.1898260" lon="37.2796120">
    <ele>1658.7</ele>
    <time>2026-06-20T10:18:49Z</time>
   </trkpt>
   <trkpt lat="-3.1898260" lon="37.2796110">
    <ele>1658.7</ele>
    <time>2026-06-20T10:18:50Z</time>
   </trkpt>
   <trkpt lat="-3.1898260" lon="37.2796100">
    <ele>1658.7</ele>
    <time>2026-06-20T10:18:51Z</time>
   </trkpt>
   <trkpt lat="-3.1898260" lon="37.2796090">
    <ele>1658.7</ele>
    <time>2026-06-20T10:18:52Z</time>
   </trkpt>
   <trkpt lat="-3.1898250" lon="37.2796100">
    <ele>1658.7</ele>
    <time>2026-06-20T10:18:53Z</time>
   </trkpt>
   <trkpt lat="-3.1898240" lon="37.2796090">
    <ele>1658.7</ele>
    <time>2026-06-20T10:18:54Z</time>
   </trkpt>
   <trkpt lat="-3.1898240" lon="37.2796090">
    <ele>1658.7</ele>
    <time>2026-06-20T10:18:55Z</time>
   </trkpt>
   <trkpt lat="-3.1898240" lon="37.2796090">
    <ele>1658.7</ele>
    <time>2026-06-20T10:18:56Z</time>
   </trkpt>
   <trkpt lat="-3.1898240" lon="37.2796090">
    <ele>1658.7</ele>
    <time>2026-06-20T10:18:57Z</time>
   </trkpt>
   <trkpt lat="-3.1898240" lon="37.2796090">
    <ele>1658.7</ele>
    <time>2026-06-20T10:18:58Z</time>
   </trkpt>
   <trkpt lat="-3.1898250" lon="37.2796090">
    <ele>1658.7</ele>
    <time>2026-06-20T10:18:59Z</time>
   </trkpt>
   <trkpt lat="-3.1898250" lon="37.2796120">
    <ele>1658.8</ele>
    <time>2026-06-20T10:19:00Z</time>
   </trkpt>
   <trkpt lat="-3.1898250" lon="37.2796120">
    <ele>1658.8</ele>
    <time>2026-06-20T10:19:01Z</time>
   </trkpt>
   <trkpt lat="-3.1898240" lon="37.2796120">
    <ele>1658.8</ele>
    <time>2026-06-20T10:19:02Z</time>
   </trkpt>
   <trkpt lat="-3.1898250" lon="37.2796110">
    <ele>1658.8</ele>
    <time>2026-06-20T10:19:03Z</time>
   </trkpt>
   <trkpt lat="-3.1898250" lon="37.2796110">
    <ele>1658.8</ele>
    <time>2026-06-20T10:19:04Z</time>
   </trkpt>
   <trkpt lat="-3.1898260" lon="37.2796100">
    <ele>1658.8</ele>
    <time>2026-06-20T10:19:05Z</time>
   </trkpt>
   <trkpt lat="-3.1898260" lon="37.2796100">
    <ele>1658.8</ele>
    <time>2026-06-20T10:19:06Z</time>
   </trkpt>
   <trkpt lat="-3.1898260" lon="37.2796100">
    <ele>1658.8</ele>
    <time>2026-06-20T10:19:07Z</time>
   </trkpt>
   <trkpt lat="-3.1898260" lon="37.2796110">
    <ele>1658.8</ele>
    <time>2026-06-20T10:19:08Z</time>
   </trkpt>
   <trkpt lat="-3.1898260" lon="37.2796100">
    <ele>1658.8</ele>
    <time>2026-06-20T10:19:09Z</time>
   </trkpt>
   <trkpt lat="-3.1898250" lon="37.2796100">
    <ele>1658.8</ele>
    <time>2026-06-20T10:19:10Z</time>
   </trkpt>
   <trkpt lat="-3.1898250" lon="37.2796100">
    <ele>1658.8</ele>
    <time>2026-06-20T10:19:11Z</time>
   </trkpt>
   <trkpt lat="-3.1898270" lon="37.2796120">
    <ele>1658.8</ele>
    <time>2026-06-20T10:19:12Z</time>
   </trkpt>
   <trkpt lat="-3.1898270" lon="37.2796130">
    <ele>1658.8</ele>
    <time>2026-06-20T10:19:13Z</time>
   </trkpt>
   <trkpt lat="-3.1898260" lon="37.2796120">
    <ele>1658.8</ele>
    <time>2026-06-20T10:19:14Z</time>
   </trkpt>
   <trkpt lat="-3.1898270" lon="37.2796120">
    <ele>1658.8</ele>
    <time>2026-06-20T10:19:15Z</time>
   </trkpt>
   <trkpt lat="-3.1898270" lon="37.2796140">
    <ele>1658.8</ele>
    <time>2026-06-20T10:19:16Z</time>
   </trkpt>
   <trkpt lat="-3.1898270" lon="37.2796120">
    <ele>1658.8</ele>
    <time>2026-06-20T10:19:17Z</time>
   </trkpt>
   <trkpt lat="-3.1898270" lon="37.2796120">
    <ele>1658.8</ele>
    <time>2026-06-20T10:19:18Z</time>
   </trkpt>
   <trkpt lat="-3.1898280" lon="37.2796140">
    <ele>1658.8</ele>
    <time>2026-06-20T10:19:19Z</time>
   </trkpt>
   <trkpt lat="-3.1898290" lon="37.2796140">
    <ele>1658.8</ele>
    <time>2026-06-20T10:19:20Z</time>
   </trkpt>
   <trkpt lat="-3.1898290" lon="37.2796150">
    <ele>1658.8</ele>
    <time>2026-06-20T10:19:21Z</time>
   </trkpt>
   <trkpt lat="-3.1898280" lon="37.2796140">
    <ele>1658.8</ele>
    <time>2026-06-20T10:19:22Z</time>
   </trkpt>
   <trkpt lat="-3.1898280" lon="37.2796150">
    <ele>1658.8</ele>
    <time>2026-06-20T10:19:23Z</time>
   </trkpt>
   <trkpt lat="-3.1898280" lon="37.2796150">
    <ele>1658.8</ele>
    <time>2026-06-20T10:19:24Z</time>
   </trkpt>
   <trkpt lat="-3.1898280" lon="37.2796160">
    <ele>1658.9</ele>
    <time>2026-06-20T10:19:25Z</time>
   </trkpt>
   <trkpt lat="-3.1898280" lon="37.2796150">
    <ele>1658.9</ele>
    <time>2026-06-20T10:19:26Z</time>
   </trkpt>
   <trkpt lat="-3.1898290" lon="37.2796150">
    <ele>1658.9</ele>
    <time>2026-06-20T10:19:27Z</time>
   </trkpt>
   <trkpt lat="-3.1898280" lon="37.2796160">
    <ele>1658.9</ele>
    <time>2026-06-20T10:19:28Z</time>
   </trkpt>
   <trkpt lat="-3.1898280" lon="37.2796170">
    <ele>1658.9</ele>
    <time>2026-06-20T10:19:29Z</time>
   </trkpt>
   <trkpt lat="-3.1898270" lon="37.2796160">
    <ele>1658.9</ele>
    <time>2026-06-20T10:19:30Z</time>
   </trkpt>
   <trkpt lat="-3.1898270" lon="37.2796150">
    <ele>1658.9</ele>
    <time>2026-06-20T10:19:31Z</time>
   </trkpt>
   <trkpt lat="-3.1898260" lon="37.2796150">
    <ele>1658.9</ele>
    <time>2026-06-20T10:19:32Z</time>
   </trkpt>
   <trkpt lat="-3.1898270" lon="37.2796150">
    <ele>1658.9</ele>
    <time>2026-06-20T10:19:33Z</time>
   </trkpt>
   <trkpt lat="-3.1898270" lon="37.2796150">
    <ele>1658.9</ele>
    <time>2026-06-20T10:19:34Z</time>
   </trkpt>
   <trkpt lat="-3.1898270" lon="37.2796120">
    <ele>1658.9</ele>
    <time>2026-06-20T10:19:35Z</time>
   </trkpt>
   <trkpt lat="-3.1898250" lon="37.2796130">
    <ele>1658.9</ele>
    <time>2026-06-20T10:19:36Z</time>
   </trkpt>
   <trkpt lat="-3.1898250" lon="37.2796110">
    <ele>1658.9</ele>
    <time>2026-06-20T10:19:37Z</time>
   </trkpt>
   <trkpt lat="-3.1898260" lon="37.2796110">
    <ele>1658.9</ele>
    <time>2026-06-20T10:19:38Z</time>
   </trkpt>
   <trkpt lat="-3.1898250" lon="37.2796130">
    <ele>1658.9</ele>
    <time>2026-06-20T10:19:39Z</time>
   </trkpt>
   <trkpt lat="-3.1898250" lon="37.2796110">
    <ele>1658.9</ele>
    <time>2026-06-20T10:19:40Z</time>
   </trkpt>
   <trkpt lat="-3.1898250" lon="37.2796110">
    <ele>1658.9</ele>
    <time>2026-06-20T10:19:41Z</time>
   </trkpt>
   <trkpt lat="-3.1898250" lon="37.2796110">
    <ele>1658.9</ele>
    <time>2026-06-20T10:19:42Z</time>
   </trkpt>
   <trkpt lat="-3.1898250" lon="37.2796110">
    <ele>1658.9</ele>
    <time>2026-06-20T10:19:43Z</time>
   </trkpt>
   <trkpt lat="-3.1898250" lon="37.2796100">
    <ele>1658.9</ele>
    <time>2026-06-20T10:19:44Z</time>
   </trkpt>
   <trkpt lat="-3.1898260" lon="37.2796110">
    <ele>1658.9</ele>
    <time>2026-06-20T10:19:45Z</time>
   </trkpt>
   <trkpt lat="-3.1898240" lon="37.2796120">
    <ele>1659.0</ele>
    <time>2026-06-20T10:19:46Z</time>
   </trkpt>
   <trkpt lat="-3.1898240" lon="37.2796110">
    <ele>1659.0</ele>
    <time>2026-06-20T10:19:47Z</time>
   </trkpt>
   <trkpt lat="-3.1898240" lon="37.2796110">
    <ele>1659.0</ele>
    <time>2026-06-20T10:19:48Z</time>
   </trkpt>
   <trkpt lat="-3.1898220" lon="37.2796090">
    <ele>1659.0</ele>
    <time>2026-06-20T10:19:49Z</time>
   </trkpt>
   <trkpt lat="-3.1898220" lon="37.2796110">
    <ele>1659.0</ele>
    <time>2026-06-20T10:19:50Z</time>
   </trkpt>
   <trkpt lat="-3.1898240" lon="37.2796110">
    <ele>1659.0</ele>
    <time>2026-06-20T10:19:51Z</time>
   </trkpt>
   <trkpt lat="-3.1898230" lon="37.2796110">
    <ele>1659.0</ele>
    <time>2026-06-20T10:19:52Z</time>
   </trkpt>
   <trkpt lat="-3.1898230" lon="37.2796110">
    <ele>1659.0</ele>
    <time>2026-06-20T10:19:53Z</time>
   </trkpt>
   <trkpt lat="-3.1898220" lon="37.2796120">
    <ele>1659.0</ele>
    <time>2026-06-20T10:19:54Z</time>
   </trkpt>
   <trkpt lat="-3.1898230" lon="37.2796120">
    <ele>1659.0</ele>
    <time>2026-06-20T10:19:55Z</time>
   </trkpt>
   <trkpt lat="-3.1898230" lon="37.2796120">
    <ele>1659.0</ele>
    <time>2026-06-20T10:19:56Z</time>
   </trkpt>
   <trkpt lat="-3.1898230" lon="37.2796120">
    <ele>1659.0</ele>
    <time>2026-06-20T10:19:57Z</time>
   </trkpt>
   <trkpt lat="-3.1898230" lon="37.2796120">
    <ele>1659.0</ele>
    <time>2026-06-20T10:19:58Z</time>
   </trkpt>
   <trkpt lat="-3.1898240" lon="37.2796140">
    <ele>1659.0</ele>
    <time>2026-06-20T10:19:59Z</time>
   </trkpt>
   <trkpt lat="-3.1898240" lon="37.2796140">
    <ele>1659.0</ele>
    <time>2026-06-20T10:20:00Z</time>
   </trkpt>
   <trkpt lat="-3.1898240" lon="37.2796140">
    <ele>1659.0</ele>
    <time>2026-06-20T10:20:01Z</time>
   </trkpt>
   <trkpt lat="-3.1898240" lon="37.2796140">
    <ele>1659.0</ele>
    <time>2026-06-20T10:20:02Z</time>
   </trkpt>
   <trkpt lat="-3.1898230" lon="37.2796160">
    <ele>1659.0</ele>
    <time>2026-06-20T10:20:03Z</time>
   </trkpt>
   <trkpt lat="-3.1898250" lon="37.2796150">
    <ele>1659.0</ele>
    <time>2026-06-20T10:20:04Z</time>
   </trkpt>
   <trkpt lat="-3.1898250" lon="37.2796150">
    <ele>1659.0</ele>
    <time>2026-06-20T10:20:05Z</time>
   </trkpt>
   <trkpt lat="-3.1898240" lon="37.2796150">
    <ele>1659.0</ele>
    <time>2026-06-20T10:20:06Z</time>
   </trkpt>
   <trkpt lat="-3.1898250" lon="37.2796160">
    <ele>1659.0</ele>
    <time>2026-06-20T10:20:07Z</time>
   </trkpt>
   <trkpt lat="-3.1898260" lon="37.2796160">
    <ele>1659.0</ele>
    <time>2026-06-20T10:20:08Z</time>
   </trkpt>
   <trkpt lat="-3.1898260" lon="37.2796150">
    <ele>1659.0</ele>
    <time>2026-06-20T10:20:09Z</time>
   </trkpt>
   <trkpt lat="-3.1898260" lon="37.2796150">
    <ele>1659.0</ele>
    <time>2026-06-20T10:20:10Z</time>
   </trkpt>
   <trkpt lat="-3.1898290" lon="37.2796150">
    <ele>1659.1</ele>
    <time>2026-06-20T10:20:11Z</time>
   </trkpt>
   <trkpt lat="-3.1898300" lon="37.2796140">
    <ele>1659.1</ele>
    <time>2026-06-20T10:20:12Z</time>
   </trkpt>
   <trkpt lat="-3.1898300" lon="37.2796130">
    <ele>1659.1</ele>
    <time>2026-06-20T10:20:13Z</time>
   </trkpt>
   <trkpt lat="-3.1898320" lon="37.2796120">
    <ele>1659.1</ele>
    <time>2026-06-20T10:20:14Z</time>
   </trkpt>
   <trkpt lat="-3.1898310" lon="37.2796120">
    <ele>1659.1</ele>
    <time>2026-06-20T10:20:15Z</time>
   </trkpt>
   <trkpt lat="-3.1898310" lon="37.2796120">
    <ele>1659.1</ele>
    <time>2026-06-20T10:20:16Z</time>
   </trkpt>
   <trkpt lat="-3.1898310" lon="37.2796130">
    <ele>1659.1</ele>
    <time>2026-06-20T10:20:17Z</time>
   </trkpt>
   <trkpt lat="-3.1898340" lon="37.2796130">
    <ele>1659.1</ele>
    <time>2026-06-20T10:20:18Z</time>
   </trkpt>
   <trkpt lat="-3.1898280" lon="37.2796070">
    <ele>1659.1</ele>
    <time>2026-06-20T10:20:19Z</time>
   </trkpt>
   <trkpt lat="-3.1898320" lon="37.2796040">
    <ele>1659.1</ele>
    <time>2026-06-20T10:20:20Z</time>
   </trkpt>
   <trkpt lat="-3.1898340" lon="37.2796090">
    <ele>1659.2</ele>
    <time>2026-06-20T10:20:21Z</time>
   </trkpt>
   <trkpt lat="-3.1898340" lon="37.2796130">
    <ele>1659.2</ele>
    <time>2026-06-20T10:20:22Z</time>
   </trkpt>
   <trkpt lat="-3.1898350" lon="37.2796120">
    <ele>1659.2</ele>
    <time>2026-06-20T10:20:23Z</time>
   </trkpt>
   <trkpt lat="-3.1898350" lon="37.2796130">
    <ele>1659.2</ele>
    <time>2026-06-20T10:20:24Z</time>
   </trkpt>
   <trkpt lat="-3.1898350" lon="37.2796130">
    <ele>1659.2</ele>
    <time>2026-06-20T10:20:25Z</time>
   </trkpt>
   <trkpt lat="-3.1898350" lon="37.2796100">
    <ele>1659.2</ele>
    <time>2026-06-20T10:20:26Z</time>
   </trkpt>
   <trkpt lat="-3.1898360" lon="37.2796100">
    <ele>1659.2</ele>
    <time>2026-06-20T10:20:27Z</time>
   </trkpt>
   <trkpt lat="-3.1898370" lon="37.2796090">
    <ele>1659.2</ele>
    <time>2026-06-20T10:20:28Z</time>
   </trkpt>
   <trkpt lat="-3.1898360" lon="37.2796100">
    <ele>1659.2</ele>
    <time>2026-06-20T10:20:29Z</time>
   </trkpt>
   <trkpt lat="-3.1898370" lon="37.2796110">
    <ele>1659.2</ele>
    <time>2026-06-20T10:20:30Z</time>
   </trkpt>
   <trkpt lat="-3.1898370" lon="37.2796120">
    <ele>1659.2</ele>
    <time>2026-06-20T10:20:31Z</time>
   </trkpt>
   <trkpt lat="-3.1898370" lon="37.2796110">
    <ele>1659.2</ele>
    <time>2026-06-20T10:20:32Z</time>
   </trkpt>
   <trkpt lat="-3.1898370" lon="37.2796110">
    <ele>1659.2</ele>
    <time>2026-06-20T10:20:33Z</time>
   </trkpt>
   <trkpt lat="-3.1898370" lon="37.2796110">
    <ele>1659.2</ele>
    <time>2026-06-20T10:20:34Z</time>
   </trkpt>
   <trkpt lat="-3.1898400" lon="37.2796100">
    <ele>1659.2</ele>
    <time>2026-06-20T10:20:35Z</time>
   </trkpt>
   <trkpt lat="-3.1898380" lon="37.2796090">
    <ele>1659.2</ele>
    <time>2026-06-20T10:20:36Z</time>
   </trkpt>
   <trkpt lat="-3.1898390" lon="37.2796100">
    <ele>1659.3</ele>
    <time>2026-06-20T10:20:37Z</time>
   </trkpt>
   <trkpt lat="-3.1898380" lon="37.2796100">
    <ele>1659.3</ele>
    <time>2026-06-20T10:20:38Z</time>
   </trkpt>
   <trkpt lat="-3.1898410" lon="37.2796060">
    <ele>1659.3</ele>
    <time>2026-06-20T10:20:39Z</time>
   </trkpt>
   <trkpt lat="-3.1898410" lon="37.2796070">
    <ele>1659.3</ele>
    <time>2026-06-20T10:20:40Z</time>
   </trkpt>
   <trkpt lat="-3.1898410" lon="37.2796070">
    <ele>1659.3</ele>
    <time>2026-06-20T10:20:41Z</time>
   </trkpt>
   <trkpt lat="-3.1898410" lon="37.2796070">
    <ele>1659.3</ele>
    <time>2026-06-20T10:20:42Z</time>
   </trkpt>
   <trkpt lat="-3.1898350" lon="37.2796080">
    <ele>1659.3</ele>
    <time>2026-06-20T10:20:43Z</time>
   </trkpt>
   <trkpt lat="-3.1898350" lon="37.2796070">
    <ele>1659.3</ele>
    <time>2026-06-20T10:20:44Z</time>
   </trkpt>
   <trkpt lat="-3.1898360" lon="37.2796050">
    <ele>1659.3</ele>
    <time>2026-06-20T10:20:45Z</time>
   </trkpt>
   <trkpt lat="-3.1898360" lon="37.2796040">
    <ele>1659.3</ele>
    <time>2026-06-20T10:20:46Z</time>
   </trkpt>
   <trkpt lat="-3.1898350" lon="37.2796050">
    <ele>1659.3</ele>
    <time>2026-06-20T10:20:47Z</time>
   </trkpt>
   <trkpt lat="-3.1898350" lon="37.2796060">
    <ele>1659.3</ele>
    <time>2026-06-20T10:20:48Z</time>
   </trkpt>
   <trkpt lat="-3.1898340" lon="37.2796080">
    <ele>1659.3</ele>
    <time>2026-06-20T10:20:49Z</time>
   </trkpt>
   <trkpt lat="-3.1898340" lon="37.2796090">
    <ele>1659.3</ele>
    <time>2026-06-20T10:20:50Z</time>
   </trkpt>
   <trkpt lat="-3.1898340" lon="37.2796100">
    <ele>1659.3</ele>
    <time>2026-06-20T10:20:51Z</time>
   </trkpt>
   <trkpt lat="-3.1898320" lon="37.2796100">
    <ele>1659.4</ele>
    <time>2026-06-20T10:20:52Z</time>
   </trkpt>
   <trkpt lat="-3.1898320" lon="37.2796090">
    <ele>1659.4</ele>
    <time>2026-06-20T10:20:53Z</time>
   </trkpt>
   <trkpt lat="-3.1898320" lon="37.2796090">
    <ele>1659.4</ele>
    <time>2026-06-20T10:20:54Z</time>
   </trkpt>
   <trkpt lat="-3.1898310" lon="37.2796110">
    <ele>1659.4</ele>
    <time>2026-06-20T10:20:55Z</time>
   </trkpt>
   <trkpt lat="-3.1898280" lon="37.2796100">
    <ele>1659.4</ele>
    <time>2026-06-20T10:20:56Z</time>
   </trkpt>
   <trkpt lat="-3.1898280" lon="37.2796100">
    <ele>1659.4</ele>
    <time>2026-06-20T10:20:57Z</time>
   </trkpt>
   <trkpt lat="-3.1898290" lon="37.2796090">
    <ele>1659.4</ele>
    <time>2026-06-20T10:20:58Z</time>
   </trkpt>
   <trkpt lat="-3.1898310" lon="37.2796070">
    <ele>1659.4</ele>
    <time>2026-06-20T10:20:59Z</time>
   </trkpt>
   <trkpt lat="-3.1898300" lon="37.2796080">
    <ele>1659.4</ele>
    <time>2026-06-20T10:21:00Z</time>
   </trkpt>
   <trkpt lat="-3.1898300" lon="37.2796080">
    <ele>1659.4</ele>
    <time>2026-06-20T10:21:01Z</time>
   </trkpt>
   <trkpt lat="-3.1898300" lon="37.2796090">
    <ele>1659.4</ele>
    <time>2026-06-20T10:21:02Z</time>
   </trkpt>
   <trkpt lat="-3.1898300" lon="37.2796090">
    <ele>1659.4</ele>
    <time>2026-06-20T10:21:03Z</time>
   </trkpt>
   <trkpt lat="-3.1898320" lon="37.2796070">
    <ele>1659.4</ele>
    <time>2026-06-20T10:21:04Z</time>
   </trkpt>
   <trkpt lat="-3.1898320" lon="37.2796070">
    <ele>1659.4</ele>
    <time>2026-06-20T10:21:05Z</time>
   </trkpt>
   <trkpt lat="-3.1898330" lon="37.2796090">
    <ele>1659.4</ele>
    <time>2026-06-20T10:21:06Z</time>
   </trkpt>
   <trkpt lat="-3.1898320" lon="37.2796100">
    <ele>1659.4</ele>
    <time>2026-06-20T10:21:07Z</time>
   </trkpt>
   <trkpt lat="-3.1898330" lon="37.2796080">
    <ele>1659.4</ele>
    <time>2026-06-20T10:21:08Z</time>
   </trkpt>
   <trkpt lat="-3.1898330" lon="37.2796080">
    <ele>1659.4</ele>
    <time>2026-06-20T10:21:09Z</time>
   </trkpt>
   <trkpt lat="-3.1898310" lon="37.2796090">
    <ele>1659.4</ele>
    <time>2026-06-20T10:21:10Z</time>
   </trkpt>
   <trkpt lat="-3.1898300" lon="37.2796080">
    <ele>1659.4</ele>
    <time>2026-06-20T10:21:11Z</time>
   </trkpt>
   <trkpt lat="-3.1898310" lon="37.2796080">
    <ele>1659.5</ele>
    <time>2026-06-20T10:21:12Z</time>
   </trkpt>
   <trkpt lat="-3.1898300" lon="37.2796100">
    <ele>1659.5</ele>
    <time>2026-06-20T10:21:13Z</time>
   </trkpt>
   <trkpt lat="-3.1898270" lon="37.2796070">
    <ele>1659.5</ele>
    <time>2026-06-20T10:21:14Z</time>
   </trkpt>
   <trkpt lat="-3.1898300" lon="37.2796100">
    <ele>1659.5</ele>
    <time>2026-06-20T10:21:15Z</time>
   </trkpt>
   <trkpt lat="-3.1898290" lon="37.2796110">
    <ele>1659.5</ele>
    <time>2026-06-20T10:21:16Z</time>
   </trkpt>
   <trkpt lat="-3.1898300" lon="37.2796100">
    <ele>1659.5</ele>
    <time>2026-06-20T10:21:17Z</time>
   </trkpt>
   <trkpt lat="-3.1898310" lon="37.2796100">
    <ele>1659.5</ele>
    <time>2026-06-20T10:21:18Z</time>
   </trkpt>
   <trkpt lat="-3.1898310" lon="37.2796130">
    <ele>1659.5</ele>
    <time>2026-06-20T10:21:19Z</time>
   </trkpt>
   <trkpt lat="-3.1898300" lon="37.2796130">
    <ele>1659.5</ele>
    <time>2026-06-20T10:21:20Z</time>
   </trkpt>
   <trkpt lat="-3.1898330" lon="37.2796150">
    <ele>1659.5</ele>
    <time>2026-06-20T10:21:21Z</time>
   </trkpt>
   <trkpt lat="-3.1898300" lon="37.2796140">
    <ele>1659.6</ele>
    <time>2026-06-20T10:21:22Z</time>
   </trkpt>
   <trkpt lat="-3.1898300" lon="37.2796130">
    <ele>1659.6</ele>
    <time>2026-06-20T10:21:23Z</time>
   </trkpt>
   <trkpt lat="-3.1898310" lon="37.2796140">
    <ele>1659.6</ele>
    <time>2026-06-20T10:21:24Z</time>
   </trkpt>
   <trkpt lat="-3.1898290" lon="37.2796150">
    <ele>1659.6</ele>
    <time>2026-06-20T10:21:25Z</time>
   </trkpt>
   <trkpt lat="-3.1898300" lon="37.2796140">
    <ele>1659.6</ele>
    <time>2026-06-20T10:21:26Z</time>
   </trkpt>
   <trkpt lat="-3.1898320" lon="37.2796120">
    <ele>1659.6</ele>
    <time>2026-06-20T10:21:27Z</time>
   </trkpt>
   <trkpt lat="-3.1898310" lon="37.2796120">
    <ele>1659.6</ele>
    <time>2026-06-20T10:21:28Z</time>
   </trkpt>
   <trkpt lat="-3.1898320" lon="37.2796120">
    <ele>1659.6</ele>
    <time>2026-06-20T10:21:29Z</time>
   </trkpt>
   <trkpt lat="-3.1898330" lon="37.2796140">
    <ele>1659.6</ele>
    <time>2026-06-20T10:21:30Z</time>
   </trkpt>
   <trkpt lat="-3.1898320" lon="37.2796120">
    <ele>1659.6</ele>
    <time>2026-06-20T10:21:31Z</time>
   </trkpt>
   <trkpt lat="-3.1898330" lon="37.2796110">
    <ele>1659.6</ele>
    <time>2026-06-20T10:21:32Z</time>
   </trkpt>
   <trkpt lat="-3.1898330" lon="37.2796110">
    <ele>1659.6</ele>
    <time>2026-06-20T10:21:33Z</time>
   </trkpt>
   <trkpt lat="-3.1898330" lon="37.2796110">
    <ele>1659.6</ele>
    <time>2026-06-20T10:21:34Z</time>
   </trkpt>
   <trkpt lat="-3.1898310" lon="37.2796110">
    <ele>1659.6</ele>
    <time>2026-06-20T10:21:35Z</time>
   </trkpt>
   <trkpt lat="-3.1898320" lon="37.2796110">
    <ele>1659.6</ele>
    <time>2026-06-20T10:21:36Z</time>
   </trkpt>
   <trkpt lat="-3.1898320" lon="37.2796110">
    <ele>1659.6</ele>
    <time>2026-06-20T10:21:37Z</time>
   </trkpt>
   <trkpt lat="-3.1898310" lon="37.2796130">
    <ele>1659.6</ele>
    <time>2026-06-20T10:21:38Z</time>
   </trkpt>
   <trkpt lat="-3.1898300" lon="37.2796150">
    <ele>1659.6</ele>
    <time>2026-06-20T10:21:39Z</time>
   </trkpt>
   <trkpt lat="-3.1898320" lon="37.2796150">
    <ele>1659.7</ele>
    <time>2026-06-20T10:21:40Z</time>
   </trkpt>
   <trkpt lat="-3.1898310" lon="37.2796160">
    <ele>1659.7</ele>
    <time>2026-06-20T10:21:41Z</time>
   </trkpt>
   <trkpt lat="-3.1898320" lon="37.2796170">
    <ele>1659.7</ele>
    <time>2026-06-20T10:21:42Z</time>
   </trkpt>
   <trkpt lat="-3.1898320" lon="37.2796180">
    <ele>1659.7</ele>
    <time>2026-06-20T10:21:43Z</time>
   </trkpt>
   <trkpt lat="-3.1898330" lon="37.2796170">
    <ele>1659.7</ele>
    <time>2026-06-20T10:21:44Z</time>
   </trkpt>
   <trkpt lat="-3.1898330" lon="37.2796170">
    <ele>1659.7</ele>
    <time>2026-06-20T10:21:45Z</time>
   </trkpt>
   <trkpt lat="-3.1898330" lon="37.2796170">
    <ele>1659.7</ele>
    <time>2026-06-20T10:21:46Z</time>
   </trkpt>
   <trkpt lat="-3.1898330" lon="37.2796170">
    <ele>1659.7</ele>
    <time>2026-06-20T10:21:47Z</time>
   </trkpt>
   <trkpt lat="-3.1898340" lon="37.2796170">
    <ele>1659.7</ele>
    <time>2026-06-20T10:21:48Z</time>
   </trkpt>
   <trkpt lat="-3.1898340" lon="37.2796170">
    <ele>1659.7</ele>
    <time>2026-06-20T10:21:49Z</time>
   </trkpt>
   <trkpt lat="-3.1898340" lon="37.2796170">
    <ele>1659.7</ele>
    <time>2026-06-20T10:21:50Z</time>
   </trkpt>
   <trkpt lat="-3.1898340" lon="37.2796190">
    <ele>1659.7</ele>
    <time>2026-06-20T10:21:51Z</time>
   </trkpt>
   <trkpt lat="-3.1898340" lon="37.2796170">
    <ele>1659.7</ele>
    <time>2026-06-20T10:21:52Z</time>
   </trkpt>
   <trkpt lat="-3.1898340" lon="37.2796180">
    <ele>1659.7</ele>
    <time>2026-06-20T10:21:53Z</time>
   </trkpt>
   <trkpt lat="-3.1898340" lon="37.2796180">
    <ele>1659.7</ele>
    <time>2026-06-20T10:21:54Z</time>
   </trkpt>
   <trkpt lat="-3.1898340" lon="37.2796180">
    <ele>1659.7</ele>
    <time>2026-06-20T10:21:55Z</time>
   </trkpt>
   <trkpt lat="-3.1898330" lon="37.2796180">
    <ele>1659.7</ele>
    <time>2026-06-20T10:21:56Z</time>
   </trkpt>
   <trkpt lat="-3.1898330" lon="37.2796170">
    <ele>1659.7</ele>
    <time>2026-06-20T10:21:57Z</time>
   </trkpt>
   <trkpt lat="-3.1898330" lon="37.2796170">
    <ele>1659.7</ele>
    <time>2026-06-20T10:21:58Z</time>
   </trkpt>
   <trkpt lat="-3.1898330" lon="37.2796170">
    <ele>1659.7</ele>
    <time>2026-06-20T10:21:59Z</time>
   </trkpt>
   <trkpt lat="-3.1898330" lon="37.2796170">
    <ele>1659.7</ele>
    <time>2026-06-20T10:22:00Z</time>
   </trkpt>
   <trkpt lat="-3.1898330" lon="37.2796170">
    <ele>1659.7</ele>
    <time>2026-06-20T10:22:01Z</time>
   </trkpt>
   <trkpt lat="-3.1898330" lon="37.2796180">
    <ele>1659.7</ele>
    <time>2026-06-20T10:22:02Z</time>
   </trkpt>
   <trkpt lat="-3.1898330" lon="37.2796170">
    <ele>1659.7</ele>
    <time>2026-06-20T10:22:03Z</time>
   </trkpt>
   <trkpt lat="-3.1898330" lon="37.2796160">
    <ele>1659.7</ele>
    <time>2026-06-20T10:22:04Z</time>
   </trkpt>
   <trkpt lat="-3.1898330" lon="37.2796170">
    <ele>1659.7</ele>
    <time>2026-06-20T10:22:05Z</time>
   </trkpt>
   <trkpt lat="-3.1898330" lon="37.2796170">
    <ele>1659.7</ele>
    <time>2026-06-20T10:22:06Z</time>
   </trkpt>
   <trkpt lat="-3.1898310" lon="37.2796160">
    <ele>1659.7</ele>
    <time>2026-06-20T10:22:07Z</time>
   </trkpt>
   <trkpt lat="-3.1898310" lon="37.2796160">
    <ele>1659.7</ele>
    <time>2026-06-20T10:22:08Z</time>
   </trkpt>
   <trkpt lat="-3.1898310" lon="37.2796170">
    <ele>1659.7</ele>
    <time>2026-06-20T10:22:09Z</time>
   </trkpt>
   <trkpt lat="-3.1898310" lon="37.2796170">
    <ele>1659.7</ele>
    <time>2026-06-20T10:22:10Z</time>
   </trkpt>
   <trkpt lat="-3.1898310" lon="37.2796170">
    <ele>1659.7</ele>
    <time>2026-06-20T10:22:11Z</time>
   </trkpt>
   <trkpt lat="-3.1898320" lon="37.2796170">
    <ele>1659.7</ele>
    <time>2026-06-20T10:22:12Z</time>
   </trkpt>
   <trkpt lat="-3.1898320" lon="37.2796170">
    <ele>1659.7</ele>
    <time>2026-06-20T10:22:13Z</time>
   </trkpt>
   <trkpt lat="-3.1898310" lon="37.2796160">
    <ele>1659.7</ele>
    <time>2026-06-20T10:22:14Z</time>
   </trkpt>
   <trkpt lat="-3.1898310" lon="37.2796170">
    <ele>1659.7</ele>
    <time>2026-06-20T10:22:15Z</time>
   </trkpt>
   <trkpt lat="-3.1898320" lon="37.2796170">
    <ele>1659.7</ele>
    <time>2026-06-20T10:22:16Z</time>
   </trkpt>
   <trkpt lat="-3.1898310" lon="37.2796170">
    <ele>1659.8</ele>
    <time>2026-06-20T10:22:17Z</time>
   </trkpt>
   <trkpt lat="-3.1898320" lon="37.2796150">
    <ele>1659.8</ele>
    <time>2026-06-20T10:22:18Z</time>
   </trkpt>
   <trkpt lat="-3.1898340" lon="37.2796140">
    <ele>1659.8</ele>
    <time>2026-06-20T10:22:19Z</time>
   </trkpt>
   <trkpt lat="-3.1898300" lon="37.2796100">
    <ele>1659.8</ele>
    <time>2026-06-20T10:22:20Z</time>
   </trkpt>
   <trkpt lat="-3.1898310" lon="37.2796110">
    <ele>1659.8</ele>
    <time>2026-06-20T10:22:21Z</time>
   </trkpt>
   <trkpt lat="-3.1898320" lon="37.2796120">
    <ele>1659.8</ele>
    <time>2026-06-20T10:22:22Z</time>
   </trkpt>
   <trkpt lat="-3.1898320" lon="37.2796130">
    <ele>1659.8</ele>
    <time>2026-06-20T10:22:23Z</time>
   </trkpt>
   <trkpt lat="-3.1898310" lon="37.2796090">
    <ele>1659.8</ele>
    <time>2026-06-20T10:22:24Z</time>
   </trkpt>
   <trkpt lat="-3.1898300" lon="37.2796090">
    <ele>1659.8</ele>
    <time>2026-06-20T10:22:25Z</time>
   </trkpt>
   <trkpt lat="-3.1898250" lon="37.2796060">
    <ele>1659.8</ele>
    <time>2026-06-20T10:22:26Z</time>
   </trkpt>
   <trkpt lat="-3.1898230" lon="37.2796030">
    <ele>1659.9</ele>
    <time>2026-06-20T10:22:27Z</time>
   </trkpt>
   <trkpt lat="-3.1898170" lon="37.2795980">
    <ele>1659.9</ele>
    <time>2026-06-20T10:22:28Z</time>
   </trkpt>
   <trkpt lat="-3.1898120" lon="37.2795960">
    <ele>1659.9</ele>
    <time>2026-06-20T10:22:29Z</time>
   </trkpt>
   <trkpt lat="-3.1898060" lon="37.2795970">
    <ele>1659.9</ele>
    <time>2026-06-20T10:22:30Z</time>
   </trkpt>
   <trkpt lat="-3.1898010" lon="37.2795950">
    <ele>1660.0</ele>
    <time>2026-06-20T10:22:31Z</time>
   </trkpt>
   <trkpt lat="-3.1898010" lon="37.2795960">
    <ele>1660.0</ele>
    <time>2026-06-20T10:22:32Z</time>
   </trkpt>
   <trkpt lat="-3.1897960" lon="37.2795910">
    <ele>1660.0</ele>
    <time>2026-06-20T10:22:33Z</time>
   </trkpt>
   <trkpt lat="-3.1897890" lon="37.2795920">
    <ele>1660.0</ele>
    <time>2026-06-20T10:22:34Z</time>
   </trkpt>
   <trkpt lat="-3.1897770" lon="37.2795980">
    <ele>1660.1</ele>
    <time>2026-06-20T10:22:35Z</time>
   </trkpt>
   <trkpt lat="-3.1897750" lon="37.2796010">
    <ele>1660.1</ele>
    <time>2026-06-20T10:22:36Z</time>
   </trkpt>
   <trkpt lat="-3.1897710" lon="37.2796080">
    <ele>1660.1</ele>
    <time>2026-06-20T10:22:37Z</time>
   </trkpt>
   <trkpt lat="-3.1897680" lon="37.2796140">
    <ele>1660.1</ele>
    <time>2026-06-20T10:22:38Z</time>
   </trkpt>
   <trkpt lat="-3.1897660" lon="37.2796160">
    <ele>1660.1</ele>
    <time>2026-06-20T10:22:39Z</time>
   </trkpt>
   <trkpt lat="-3.1897640" lon="37.2796170">
    <ele>1660.2</ele>
    <time>2026-06-20T10:22:40Z</time>
   </trkpt>
   <trkpt lat="-3.1897540" lon="37.2796200">
    <ele>1660.2</ele>
    <time>2026-06-20T10:22:41Z</time>
   </trkpt>
   <trkpt lat="-3.1897440" lon="37.2796180">
    <ele>1660.2</ele>
    <time>2026-06-20T10:22:42Z</time>
   </trkpt>
   <trkpt lat="-3.1897370" lon="37.2796170">
    <ele>1660.3</ele>
    <time>2026-06-20T10:22:43Z</time>
   </trkpt>
   <trkpt lat="-3.1897280" lon="37.2796140">
    <ele>1660.3</ele>
    <time>2026-06-20T10:22:44Z</time>
   </trkpt>
   <trkpt lat="-3.1897200" lon="37.2796100">
    <ele>1660.3</ele>
    <time>2026-06-20T10:22:45Z</time>
   </trkpt>
   <trkpt lat="-3.1897130" lon="37.2796060">
    <ele>1660.4</ele>
    <time>2026-06-20T10:22:46Z</time>
   </trkpt>
   <trkpt lat="-3.1897050" lon="37.2796070">
    <ele>1660.4</ele>
    <time>2026-06-20T10:22:47Z</time>
   </trkpt>
   <trkpt lat="-3.1896940" lon="37.2796060">
    <ele>1660.4</ele>
    <time>2026-06-20T10:22:48Z</time>
   </trkpt>
   <trkpt lat="-3.1896840" lon="37.2796040">
    <ele>1660.5</ele>
    <time>2026-06-20T10:22:49Z</time>
   </trkpt>
   <trkpt lat="-3.1896760" lon="37.2796050">
    <ele>1660.5</ele>
    <time>2026-06-20T10:22:50Z</time>
   </trkpt>
   <trkpt lat="-3.1896660" lon="37.2796040">
    <ele>1660.6</ele>
    <time>2026-06-20T10:22:51Z</time>
   </trkpt>
   <trkpt lat="-3.1896540" lon="37.2796040">
    <ele>1660.6</ele>
    <time>2026-06-20T10:22:52Z</time>
   </trkpt>
   <trkpt lat="-3.1896450" lon="37.2796050">
    <ele>1660.6</ele>
    <time>2026-06-20T10:22:53Z</time>
   </trkpt>
   <trkpt lat="-3.1896400" lon="37.2796030">
    <ele>1660.7</ele>
    <time>2026-06-20T10:22:54Z</time>
   </trkpt>
   <trkpt lat="-3.1896320" lon="37.2796020">
    <ele>1660.7</ele>
    <time>2026-06-20T10:22:55Z</time>
   </trkpt>
   <trkpt lat="-3.1896280" lon="37.2796030">
    <ele>1660.7</ele>
    <time>2026-06-20T10:22:56Z</time>
   </trkpt>
   <trkpt lat="-3.1896220" lon="37.2796040">
    <ele>1660.7</ele>
    <time>2026-06-20T10:22:57Z</time>
   </trkpt>
   <trkpt lat="-3.1896110" lon="37.2796040">
    <ele>1660.8</ele>
    <time>2026-06-20T10:22:58Z</time>
   </trkpt>
   <trkpt lat="-3.1896000" lon="37.2796030">
    <ele>1660.8</ele>
    <time>2026-06-20T10:22:59Z</time>
   </trkpt>
   <trkpt lat="-3.1895940" lon="37.2796030">
    <ele>1660.8</ele>
    <time>2026-06-20T10:23:00Z</time>
   </trkpt>
   <trkpt lat="-3.1895850" lon="37.2796020">
    <ele>1660.9</ele>
    <time>2026-06-20T10:23:01Z</time>
   </trkpt>
   <trkpt lat="-3.1895760" lon="37.2795990">
    <ele>1660.9</ele>
    <time>2026-06-20T10:23:02Z</time>
   </trkpt>
   <trkpt lat="-3.1895690" lon="37.2796000">
    <ele>1660.9</ele>
    <time>2026-06-20T10:23:03Z</time>
   </trkpt>
   <trkpt lat="-3.1895670" lon="37.2796020">
    <ele>1660.9</ele>
    <time>2026-06-20T10:23:04Z</time>
   </trkpt>
   <trkpt lat="-3.1895640" lon="37.2796010">
    <ele>1661.0</ele>
    <time>2026-06-20T10:23:05Z</time>
   </trkpt>
   <trkpt lat="-3.1895530" lon="37.2796020">
    <ele>1661.0</ele>
    <time>2026-06-20T10:23:06Z</time>
   </trkpt>
   <trkpt lat="-3.1895480" lon="37.2795990">
    <ele>1661.1</ele>
    <time>2026-06-20T10:23:07Z</time>
   </trkpt>
   <trkpt lat="-3.1895440" lon="37.2795990">
    <ele>1661.1</ele>
    <time>2026-06-20T10:23:08Z</time>
   </trkpt>
   <trkpt lat="-3.1895330" lon="37.2795940">
    <ele>1661.2</ele>
    <time>2026-06-20T10:23:09Z</time>
   </trkpt>
   <trkpt lat="-3.1895220" lon="37.2795920">
    <ele>1661.3</ele>
    <time>2026-06-20T10:23:10Z</time>
   </trkpt>
   <trkpt lat="-3.1895180" lon="37.2795950">
    <ele>1661.4</ele>
    <time>2026-06-20T10:23:11Z</time>
   </trkpt>
   <trkpt lat="-3.1895140" lon="37.2795990">
    <ele>1661.5</ele>
    <time>2026-06-20T10:23:12Z</time>
   </trkpt>
   <trkpt lat="-3.1895070" lon="37.2796010">
    <ele>1661.5</ele>
    <time>2026-06-20T10:23:13Z</time>
   </trkpt>
   <trkpt lat="-3.1895050" lon="37.2796020">
    <ele>1661.6</ele>
    <time>2026-06-20T10:23:14Z</time>
   </trkpt>
   <trkpt lat="-3.1894970" lon="37.2796030">
    <ele>1661.6</ele>
    <time>2026-06-20T10:23:15Z</time>
   </trkpt>
   <trkpt lat="-3.1894910" lon="37.2796010">
    <ele>1661.7</ele>
    <time>2026-06-20T10:23:16Z</time>
   </trkpt>
   <trkpt lat="-3.1894850" lon="37.2796010">
    <ele>1661.8</ele>
    <time>2026-06-20T10:23:17Z</time>
   </trkpt>
   <trkpt lat="-3.1894810" lon="37.2796000">
    <ele>1661.8</ele>
    <time>2026-06-20T10:23:18Z</time>
   </trkpt>
   <trkpt lat="-3.1894760" lon="37.2796020">
    <ele>1661.9</ele>
    <time>2026-06-20T10:23:19Z</time>
   </trkpt>
   <trkpt lat="-3.1894660" lon="37.2796010">
    <ele>1662.0</ele>
    <time>2026-06-20T10:23:20Z</time>
   </trkpt>
   <trkpt lat="-3.1894620" lon="37.2796010">
    <ele>1662.0</ele>
    <time>2026-06-20T10:23:21Z</time>
   </trkpt>
   <trkpt lat="-3.1894530" lon="37.2795980">
    <ele>1662.1</ele>
    <time>2026-06-20T10:23:22Z</time>
   </trkpt>
   <trkpt lat="-3.1894480" lon="37.2795960">
    <ele>1662.2</ele>
    <time>2026-06-20T10:23:23Z</time>
   </trkpt>
   <trkpt lat="-3.1894460" lon="37.2795950">
    <ele>1662.2</ele>
    <time>2026-06-20T10:23:24Z</time>
   </trkpt>
   <trkpt lat="-3.1894400" lon="37.2795950">
    <ele>1662.2</ele>
    <time>2026-06-20T10:23:25Z</time>
   </trkpt>
   <trkpt lat="-3.1894320" lon="37.2795910">
    <ele>1662.3</ele>
    <time>2026-06-20T10:23:26Z</time>
   </trkpt>
   <trkpt lat="-3.1894290" lon="37.2795930">
    <ele>1662.4</ele>
    <time>2026-06-20T10:23:27Z</time>
   </trkpt>
   <trkpt lat="-3.1894210" lon="37.2795910">
    <ele>1662.5</ele>
    <time>2026-06-20T10:23:28Z</time>
   </trkpt>
   <trkpt lat="-3.1894170" lon="37.2795910">
    <ele>1662.5</ele>
    <time>2026-06-20T10:23:29Z</time>
   </trkpt>
   <trkpt lat="-3.1894110" lon="37.2795920">
    <ele>1662.5</ele>
    <time>2026-06-20T10:23:30Z</time>
   </trkpt>
   <trkpt lat="-3.1894030" lon="37.2795920">
    <ele>1662.6</ele>
    <time>2026-06-20T10:23:31Z</time>
   </trkpt>
   <trkpt lat="-3.1893940" lon="37.2795970">
    <ele>1662.7</ele>
    <time>2026-06-20T10:23:32Z</time>
   </trkpt>
   <trkpt lat="-3.1893910" lon="37.2795940">
    <ele>1662.8</ele>
    <time>2026-06-20T10:23:33Z</time>
   </trkpt>
   <trkpt lat="-3.1893880" lon="37.2795910">
    <ele>1662.8</ele>
    <time>2026-06-20T10:23:34Z</time>
   </trkpt>
   <trkpt lat="-3.1893830" lon="37.2795890">
    <ele>1662.8</ele>
    <time>2026-06-20T10:23:35Z</time>
   </trkpt>
   <trkpt lat="-3.1893760" lon="37.2795870">
    <ele>1662.9</ele>
    <time>2026-06-20T10:23:36Z</time>
   </trkpt>
   <trkpt lat="-3.1893720" lon="37.2795860">
    <ele>1663.0</ele>
    <time>2026-06-20T10:23:37Z</time>
   </trkpt>
   <trkpt lat="-3.1893640" lon="37.2795860">
    <ele>1663.0</ele>
    <time>2026-06-20T10:23:38Z</time>
   </trkpt>
   <trkpt lat="-3.1893630" lon="37.2795850">
    <ele>1663.0</ele>
    <time>2026-06-20T10:23:39Z</time>
   </trkpt>
   <trkpt lat="-3.1893580" lon="37.2795850">
    <ele>1663.1</ele>
    <time>2026-06-20T10:23:40Z</time>
   </trkpt>
   <trkpt lat="-3.1893510" lon="37.2795830">
    <ele>1663.2</ele>
    <time>2026-06-20T10:23:41Z</time>
   </trkpt>
   <trkpt lat="-3.1893530" lon="37.2795830">
    <ele>1663.2</ele>
    <time>2026-06-20T10:23:42Z</time>
   </trkpt>
   <trkpt lat="-3.1893500" lon="37.2795850">
    <ele>1663.2</ele>
    <time>2026-06-20T10:23:43Z</time>
   </trkpt>
   <trkpt lat="-3.1893480" lon="37.2795850">
    <ele>1663.2</ele>
    <time>2026-06-20T10:23:44Z</time>
   </trkpt>
   <trkpt lat="-3.1893400" lon="37.2795870">
    <ele>1663.3</ele>
    <time>2026-06-20T10:23:45Z</time>
   </trkpt>
   <trkpt lat="-3.1893310" lon="37.2795870">
    <ele>1663.4</ele>
    <time>2026-06-20T10:23:46Z</time>
   </trkpt>
   <trkpt lat="-3.1893270" lon="37.2795840">
    <ele>1663.4</ele>
    <time>2026-06-20T10:23:47Z</time>
   </trkpt>
   <trkpt lat="-3.1893200" lon="37.2795820">
    <ele>1663.5</ele>
    <time>2026-06-20T10:23:48Z</time>
   </trkpt>
   <trkpt lat="-3.1893110" lon="37.2795800">
    <ele>1663.6</ele>
    <time>2026-06-20T10:23:49Z</time>
   </trkpt>
   <trkpt lat="-3.1892940" lon="37.2795760">
    <ele>1663.8</ele>
    <time>2026-06-20T10:23:50Z</time>
   </trkpt>
   <trkpt lat="-3.1892900" lon="37.2795760">
    <ele>1663.8</ele>
    <time>2026-06-20T10:23:51Z</time>
   </trkpt>
   <trkpt lat="-3.1892810" lon="37.2795740">
    <ele>1663.9</ele>
    <time>2026-06-20T10:23:52Z</time>
   </trkpt>
   <trkpt lat="-3.1892780" lon="37.2795720">
    <ele>1663.9</ele>
    <time>2026-06-20T10:23:53Z</time>
   </trkpt>
   <trkpt lat="-3.1892710" lon="37.2795720">
    <ele>1664.0</ele>
    <time>2026-06-20T10:23:54Z</time>
   </trkpt>
   <trkpt lat="-3.1892620" lon="37.2795720">
    <ele>1664.1</ele>
    <time>2026-06-20T10:23:55Z</time>
   </trkpt>
   <trkpt lat="-3.1892610" lon="37.2795700">
    <ele>1664.1</ele>
    <time>2026-06-20T10:23:56Z</time>
   </trkpt>
   <trkpt lat="-3.1892540" lon="37.2795680">
    <ele>1664.2</ele>
    <time>2026-06-20T10:23:57Z</time>
   </trkpt>
   <trkpt lat="-3.1892500" lon="37.2795660">
    <ele>1664.2</ele>
    <time>2026-06-20T10:23:58Z</time>
   </trkpt>
   <trkpt lat="-3.1892420" lon="37.2795660">
    <ele>1664.3</ele>
    <time>2026-06-20T10:23:59Z</time>
   </trkpt>
   <trkpt lat="-3.1892370" lon="37.2795660">
    <ele>1664.3</ele>
    <time>2026-06-20T10:24:00Z</time>
   </trkpt>
   <trkpt lat="-3.1892310" lon="37.2795650">
    <ele>1664.4</ele>
    <time>2026-06-20T10:24:01Z</time>
   </trkpt>
   <trkpt lat="-3.1892250" lon="37.2795630">
    <ele>1664.4</ele>
    <time>2026-06-20T10:24:02Z</time>
   </trkpt>
   <trkpt lat="-3.1892180" lon="37.2795620">
    <ele>1664.5</ele>
    <time>2026-06-20T10:24:03Z</time>
   </trkpt>
   <trkpt lat="-3.1892070" lon="37.2795670">
    <ele>1664.6</ele>
    <time>2026-06-20T10:24:04Z</time>
   </trkpt>
   <trkpt lat="-3.1892050" lon="37.2795630">
    <ele>1664.7</ele>
    <time>2026-06-20T10:24:05Z</time>
   </trkpt>
   <trkpt lat="-3.1892030" lon="37.2795640">
    <ele>1664.7</ele>
    <time>2026-06-20T10:24:06Z</time>
   </trkpt>
   <trkpt lat="-3.1891970" lon="37.2795640">
    <ele>1664.8</ele>
    <time>2026-06-20T10:24:07Z</time>
   </trkpt>
   <trkpt lat="-3.1891920" lon="37.2795640">
    <ele>1664.8</ele>
    <time>2026-06-20T10:24:08Z</time>
   </trkpt>
   <trkpt lat="-3.1891850" lon="37.2795610">
    <ele>1664.9</ele>
    <time>2026-06-20T10:24:09Z</time>
   </trkpt>
   <trkpt lat="-3.1891810" lon="37.2795590">
    <ele>1664.9</ele>
    <time>2026-06-20T10:24:10Z</time>
   </trkpt>
   <trkpt lat="-3.1891790" lon="37.2795570">
    <ele>1665.0</ele>
    <time>2026-06-20T10:24:11Z</time>
   </trkpt>
   <trkpt lat="-3.1891710" lon="37.2795560">
    <ele>1665.0</ele>
    <time>2026-06-20T10:24:12Z</time>
   </trkpt>
   <trkpt lat="-3.1891650" lon="37.2795550">
    <ele>1665.1</ele>
    <time>2026-06-20T10:24:13Z</time>
   </trkpt>
   <trkpt lat="-3.1891610" lon="37.2795550">
    <ele>1665.1</ele>
    <time>2026-06-20T10:24:14Z</time>
   </trkpt>
   <trkpt lat="-3.1891560" lon="37.2795540">
    <ele>1665.2</ele>
    <time>2026-06-20T10:24:15Z</time>
   </trkpt>
   <trkpt lat="-3.1891490" lon="37.2795510">
    <ele>1665.3</ele>
    <time>2026-06-20T10:24:16Z</time>
   </trkpt>
   <trkpt lat="-3.1891450" lon="37.2795520">
    <ele>1665.3</ele>
    <time>2026-06-20T10:24:17Z</time>
   </trkpt>
   <trkpt lat="-3.1891390" lon="37.2795510">
    <ele>1665.4</ele>
    <time>2026-06-20T10:24:18Z</time>
   </trkpt>
   <trkpt lat="-3.1891340" lon="37.2795490">
    <ele>1665.4</ele>
    <time>2026-06-20T10:24:19Z</time>
   </trkpt>
   <trkpt lat="-3.1891290" lon="37.2795490">
    <ele>1665.5</ele>
    <time>2026-06-20T10:24:20Z</time>
   </trkpt>
   <trkpt lat="-3.1891250" lon="37.2795480">
    <ele>1665.5</ele>
    <time>2026-06-20T10:24:21Z</time>
   </trkpt>
   <trkpt lat="-3.1891210" lon="37.2795460">
    <ele>1665.5</ele>
    <time>2026-06-20T10:24:22Z</time>
   </trkpt>
   <trkpt lat="-3.1891120" lon="37.2795420">
    <ele>1665.6</ele>
    <time>2026-06-20T10:24:23Z</time>
   </trkpt>
   <trkpt lat="-3.1891080" lon="37.2795420">
    <ele>1665.7</ele>
    <time>2026-06-20T10:24:24Z</time>
   </trkpt>
   <trkpt lat="-3.1891030" lon="37.2795420">
    <ele>1665.7</ele>
    <time>2026-06-20T10:24:25Z</time>
   </trkpt>
   <trkpt lat="-3.1890990" lon="37.2795410">
    <ele>1665.8</ele>
    <time>2026-06-20T10:24:26Z</time>
   </trkpt>
   <trkpt lat="-3.1890950" lon="37.2795370">
    <ele>1665.8</ele>
    <time>2026-06-20T10:24:27Z</time>
   </trkpt>
   <trkpt lat="-3.1890880" lon="37.2795410">
    <ele>1665.9</ele>
    <time>2026-06-20T10:24:28Z</time>
   </trkpt>
   <trkpt lat="-3.1890790" lon="37.2795390">
    <ele>1666.0</ele>
    <time>2026-06-20T10:24:29Z</time>
   </trkpt>
   <trkpt lat="-3.1890770" lon="37.2795400">
    <ele>1666.0</ele>
    <time>2026-06-20T10:24:30Z</time>
   </trkpt>
   <trkpt lat="-3.1890680" lon="37.2795350">
    <ele>1666.1</ele>
    <time>2026-06-20T10:24:31Z</time>
   </trkpt>
   <trkpt lat="-3.1890660" lon="37.2795370">
    <ele>1666.2</ele>
    <time>2026-06-20T10:24:32Z</time>
   </trkpt>
   <trkpt lat="-3.1890570" lon="37.2795380">
    <ele>1666.2</ele>
    <time>2026-06-20T10:24:33Z</time>
   </trkpt>
   <trkpt lat="-3.1890540" lon="37.2795400">
    <ele>1666.3</ele>
    <time>2026-06-20T10:24:34Z</time>
   </trkpt>
   <trkpt lat="-3.1890480" lon="37.2795390">
    <ele>1666.3</ele>
    <time>2026-06-20T10:24:35Z</time>
   </trkpt>
   <trkpt lat="-3.1890410" lon="37.2795340">
    <ele>1666.4</ele>
    <time>2026-06-20T10:24:36Z</time>
   </trkpt>
   <trkpt lat="-3.1890340" lon="37.2795330">
    <ele>1666.5</ele>
    <time>2026-06-20T10:24:37Z</time>
   </trkpt>
   <trkpt lat="-3.1890290" lon="37.2795310">
    <ele>1666.5</ele>
    <time>2026-06-20T10:24:38Z</time>
   </trkpt>
   <trkpt lat="-3.1890230" lon="37.2795330">
    <ele>1666.6</ele>
    <time>2026-06-20T10:24:39Z</time>
   </trkpt>
   <trkpt lat="-3.1890160" lon="37.2795330">
    <ele>1666.7</ele>
    <time>2026-06-20T10:24:40Z</time>
   </trkpt>
   <trkpt lat="-3.1890070" lon="37.2795330">
    <ele>1666.8</ele>
    <time>2026-06-20T10:24:41Z</time>
   </trkpt>
   <trkpt lat="-3.1890020" lon="37.2795320">
    <ele>1666.8</ele>
    <time>2026-06-20T10:24:42Z</time>
   </trkpt>
   <trkpt lat="-3.1889960" lon="37.2795320">
    <ele>1666.9</ele>
    <time>2026-06-20T10:24:43Z</time>
   </trkpt>
   <trkpt lat="-3.1889890" lon="37.2795300">
    <ele>1666.9</ele>
    <time>2026-06-20T10:24:44Z</time>
   </trkpt>
   <trkpt lat="-3.1889830" lon="37.2795290">
    <ele>1667.0</ele>
    <time>2026-06-20T10:24:45Z</time>
   </trkpt>
   <trkpt lat="-3.1889760" lon="37.2795280">
    <ele>1667.1</ele>
    <time>2026-06-20T10:24:46Z</time>
   </trkpt>
   <trkpt lat="-3.1889710" lon="37.2795250">
    <ele>1667.1</ele>
    <time>2026-06-20T10:24:47Z</time>
   </trkpt>
   <trkpt lat="-3.1889620" lon="37.2795240">
    <ele>1667.2</ele>
    <time>2026-06-20T10:24:48Z</time>
   </trkpt>
   <trkpt lat="-3.1889600" lon="37.2795250">
    <ele>1667.2</ele>
    <time>2026-06-20T10:24:49Z</time>
   </trkpt>
   <trkpt lat="-3.1889520" lon="37.2795240">
    <ele>1667.3</ele>
    <time>2026-06-20T10:24:50Z</time>
   </trkpt>
   <trkpt lat="-3.1889480" lon="37.2795230">
    <ele>1667.3</ele>
    <time>2026-06-20T10:24:51Z</time>
   </trkpt>
   <trkpt lat="-3.1889400" lon="37.2795230">
    <ele>1667.4</ele>
    <time>2026-06-20T10:24:52Z</time>
   </trkpt>
   <trkpt lat="-3.1889320" lon="37.2795230">
    <ele>1667.5</ele>
    <time>2026-06-20T10:24:53Z</time>
   </trkpt>
   <trkpt lat="-3.1889260" lon="37.2795230">
    <ele>1667.6</ele>
    <time>2026-06-20T10:24:54Z</time>
   </trkpt>
   <trkpt lat="-3.1889180" lon="37.2795250">
    <ele>1667.6</ele>
    <time>2026-06-20T10:24:55Z</time>
   </trkpt>
   <trkpt lat="-3.1889110" lon="37.2795240">
    <ele>1667.7</ele>
    <time>2026-06-20T10:24:56Z</time>
   </trkpt>
   <trkpt lat="-3.1889080" lon="37.2795260">
    <ele>1667.7</ele>
    <time>2026-06-20T10:24:57Z</time>
   </trkpt>
   <trkpt lat="-3.1889030" lon="37.2795250">
    <ele>1667.8</ele>
    <time>2026-06-20T10:24:58Z</time>
   </trkpt>
   <trkpt lat="-3.1888930" lon="37.2795220">
    <ele>1667.9</ele>
    <time>2026-06-20T10:24:59Z</time>
   </trkpt>
   <trkpt lat="-3.1888850" lon="37.2795240">
    <ele>1667.9</ele>
    <time>2026-06-20T10:25:00Z</time>
   </trkpt>
   <trkpt lat="-3.1888760" lon="37.2795250">
    <ele>1668.0</ele>
    <time>2026-06-20T10:25:01Z</time>
   </trkpt>
   <trkpt lat="-3.1888690" lon="37.2795240">
    <ele>1668.1</ele>
    <time>2026-06-20T10:25:02Z</time>
   </trkpt>
   <trkpt lat="-3.1888640" lon="37.2795240">
    <ele>1668.1</ele>
    <time>2026-06-20T10:25:03Z</time>
   </trkpt>
   <trkpt lat="-3.1888590" lon="37.2795200">
    <ele>1668.2</ele>
    <time>2026-06-20T10:25:04Z</time>
   </trkpt>
   <trkpt lat="-3.1888550" lon="37.2795240">
    <ele>1668.2</ele>
    <time>2026-06-20T10:25:05Z</time>
   </trkpt>
   <trkpt lat="-3.1888470" lon="37.2795230">
    <ele>1668.3</ele>
    <time>2026-06-20T10:25:06Z</time>
   </trkpt>
   <trkpt lat="-3.1888430" lon="37.2795220">
    <ele>1668.3</ele>
    <time>2026-06-20T10:25:07Z</time>
   </trkpt>
   <trkpt lat="-3.1888360" lon="37.2795220">
    <ele>1668.4</ele>
    <time>2026-06-20T10:25:08Z</time>
   </trkpt>
   <trkpt lat="-3.1888270" lon="37.2795210">
    <ele>1668.5</ele>
    <time>2026-06-20T10:25:09Z</time>
   </trkpt>
   <trkpt lat="-3.1888190" lon="37.2795170">
    <ele>1668.5</ele>
    <time>2026-06-20T10:25:10Z</time>
   </trkpt>
   <trkpt lat="-3.1888170" lon="37.2795170">
    <ele>1668.5</ele>
    <time>2026-06-20T10:25:11Z</time>
   </trkpt>
   <trkpt lat="-3.1888080" lon="37.2795150">
    <ele>1668.6</ele>
    <time>2026-06-20T10:25:12Z</time>
   </trkpt>
   <trkpt lat="-3.1888020" lon="37.2795130">
    <ele>1668.7</ele>
    <time>2026-06-20T10:25:13Z</time>
   </trkpt>
   <trkpt lat="-3.1887980" lon="37.2795110">
    <ele>1668.7</ele>
    <time>2026-06-20T10:25:14Z</time>
   </trkpt>
   <trkpt lat="-3.1887900" lon="37.2795120">
    <ele>1668.8</ele>
    <time>2026-06-20T10:25:15Z</time>
   </trkpt>
   <trkpt lat="-3.1887840" lon="37.2795170">
    <ele>1668.8</ele>
    <time>2026-06-20T10:25:16Z</time>
   </trkpt>
   <trkpt lat="-3.1887770" lon="37.2795130">
    <ele>1668.9</ele>
    <time>2026-06-20T10:25:17Z</time>
   </trkpt>
   <trkpt lat="-3.1887730" lon="37.2795150">
    <ele>1669.0</ele>
    <time>2026-06-20T10:25:18Z</time>
   </trkpt>
   <trkpt lat="-3.1887650" lon="37.2795160">
    <ele>1669.0</ele>
    <time>2026-06-20T10:25:19Z</time>
   </trkpt>
   <trkpt lat="-3.1887620" lon="37.2795170">
    <ele>1669.0</ele>
    <time>2026-06-20T10:25:20Z</time>
   </trkpt>
   <trkpt lat="-3.1887510" lon="37.2795180">
    <ele>1669.1</ele>
    <time>2026-06-20T10:25:21Z</time>
   </trkpt>
   <trkpt lat="-3.1887470" lon="37.2795160">
    <ele>1669.2</ele>
    <time>2026-06-20T10:25:22Z</time>
   </trkpt>
   <trkpt lat="-3.1887430" lon="37.2795150">
    <ele>1669.2</ele>
    <time>2026-06-20T10:25:23Z</time>
   </trkpt>
   <trkpt lat="-3.1887370" lon="37.2795150">
    <ele>1669.3</ele>
    <time>2026-06-20T10:25:24Z</time>
   </trkpt>
   <trkpt lat="-3.1887270" lon="37.2795140">
    <ele>1669.3</ele>
    <time>2026-06-20T10:25:25Z</time>
   </trkpt>
   <trkpt lat="-3.1887220" lon="37.2795150">
    <ele>1669.4</ele>
    <time>2026-06-20T10:25:26Z</time>
   </trkpt>
   <trkpt lat="-3.1887160" lon="37.2795120">
    <ele>1669.4</ele>
    <time>2026-06-20T10:25:27Z</time>
   </trkpt>
   <trkpt lat="-3.1887110" lon="37.2795130">
    <ele>1669.5</ele>
    <time>2026-06-20T10:25:28Z</time>
   </trkpt>
   <trkpt lat="-3.1887060" lon="37.2795150">
    <ele>1669.5</ele>
    <time>2026-06-20T10:25:29Z</time>
   </trkpt>
   <trkpt lat="-3.1886990" lon="37.2795150">
    <ele>1669.6</ele>
    <time>2026-06-20T10:25:30Z</time>
   </trkpt>
   <trkpt lat="-3.1886920" lon="37.2795140">
    <ele>1669.6</ele>
    <time>2026-06-20T10:25:31Z</time>
   </trkpt>
   <trkpt lat="-3.1886870" lon="37.2795130">
    <ele>1669.7</ele>
    <time>2026-06-20T10:25:32Z</time>
   </trkpt>
   <trkpt lat="-3.1886800" lon="37.2795140">
    <ele>1669.7</ele>
    <time>2026-06-20T10:25:33Z</time>
   </trkpt>
   <trkpt lat="-3.1886730" lon="37.2795140">
    <ele>1669.8</ele>
    <time>2026-06-20T10:25:34Z</time>
   </trkpt>
   <trkpt lat="-3.1886680" lon="37.2795140">
    <ele>1669.8</ele>
    <time>2026-06-20T10:25:35Z</time>
   </trkpt>
   <trkpt lat="-3.1886610" lon="37.2795150">
    <ele>1669.9</ele>
    <time>2026-06-20T10:25:36Z</time>
   </trkpt>
   <trkpt lat="-3.1886560" lon="37.2795150">
    <ele>1669.9</ele>
    <time>2026-06-20T10:25:37Z</time>
   </trkpt>
   <trkpt lat="-3.1886470" lon="37.2795170">
    <ele>1670.0</ele>
    <time>2026-06-20T10:25:38Z</time>
   </trkpt>
   <trkpt lat="-3.1886400" lon="37.2795170">
    <ele>1670.0</ele>
    <time>2026-06-20T10:25:39Z</time>
   </trkpt>
   <trkpt lat="-3.1886330" lon="37.2795160">
    <ele>1670.1</ele>
    <time>2026-06-20T10:25:40Z</time>
   </trkpt>
   <trkpt lat="-3.1886280" lon="37.2795170">
    <ele>1670.1</ele>
    <time>2026-06-20T10:25:41Z</time>
   </trkpt>
   <trkpt lat="-3.1886210" lon="37.2795180">
    <ele>1670.2</ele>
    <time>2026-06-20T10:25:42Z</time>
   </trkpt>
   <trkpt lat="-3.1886160" lon="37.2795210">
    <ele>1670.2</ele>
    <time>2026-06-20T10:25:43Z</time>
   </trkpt>
   <trkpt lat="-3.1886110" lon="37.2795230">
    <ele>1670.2</ele>
    <time>2026-06-20T10:25:44Z</time>
   </trkpt>
   <trkpt lat="-3.1886030" lon="37.2795260">
    <ele>1670.3</ele>
    <time>2026-06-20T10:25:45Z</time>
   </trkpt>
   <trkpt lat="-3.1885960" lon="37.2795270">
    <ele>1670.3</ele>
    <time>2026-06-20T10:25:46Z</time>
   </trkpt>
   <trkpt lat="-3.1885890" lon="37.2795290">
    <ele>1670.4</ele>
    <time>2026-06-20T10:25:47Z</time>
   </trkpt>
   <trkpt lat="-3.1885830" lon="37.2795290">
    <ele>1670.4</ele>
    <time>2026-06-20T10:25:48Z</time>
   </trkpt>
   <trkpt lat="-3.1885750" lon="37.2795280">
    <ele>1670.5</ele>
    <time>2026-06-20T10:25:49Z</time>
   </trkpt>
   <trkpt lat="-3.1885700" lon="37.2795250">
    <ele>1670.5</ele>
    <time>2026-06-20T10:25:50Z</time>
   </trkpt>
   <trkpt lat="-3.1885650" lon="37.2795270">
    <ele>1670.6</ele>
    <time>2026-06-20T10:25:51Z</time>
   </trkpt>
   <trkpt lat="-3.1885550" lon="37.2795290">
    <ele>1670.6</ele>
    <time>2026-06-20T10:25:52Z</time>
   </trkpt>
   <trkpt lat="-3.1885470" lon="37.2795290">
    <ele>1670.7</ele>
    <time>2026-06-20T10:25:53Z</time>
   </trkpt>
   <trkpt lat="-3.1885440" lon="37.2795300">
    <ele>1670.7</ele>
    <time>2026-06-20T10:25:54Z</time>
   </trkpt>
   <trkpt lat="-3.1885370" lon="37.2795290">
    <ele>1670.8</ele>
    <time>2026-06-20T10:25:55Z</time>
   </trkpt>
   <trkpt lat="-3.1885330" lon="37.2795280">
    <ele>1670.8</ele>
    <time>2026-06-20T10:25:56Z</time>
   </trkpt>
   <trkpt lat="-3.1885240" lon="37.2795300">
    <ele>1670.8</ele>
    <time>2026-06-20T10:25:57Z</time>
   </trkpt>
   <trkpt lat="-3.1885170" lon="37.2795310">
    <ele>1670.9</ele>
    <time>2026-06-20T10:25:58Z</time>
   </trkpt>
   <trkpt lat="-3.1885100" lon="37.2795320">
    <ele>1670.9</ele>
    <time>2026-06-20T10:25:59Z</time>
   </trkpt>
   <trkpt lat="-3.1885030" lon="37.2795340">
    <ele>1671.0</ele>
    <time>2026-06-20T10:26:00Z</time>
   </trkpt>
   <trkpt lat="-3.1884950" lon="37.2795360">
    <ele>1671.0</ele>
    <time>2026-06-20T10:26:01Z</time>
   </trkpt>
   <trkpt lat="-3.1884890" lon="37.2795370">
    <ele>1671.1</ele>
    <time>2026-06-20T10:26:02Z</time>
   </trkpt>
   <trkpt lat="-3.1884860" lon="37.2795370">
    <ele>1671.1</ele>
    <time>2026-06-20T10:26:03Z</time>
   </trkpt>
   <trkpt lat="-3.1884780" lon="37.2795390">
    <ele>1671.1</ele>
    <time>2026-06-20T10:26:04Z</time>
   </trkpt>
   <trkpt lat="-3.1884700" lon="37.2795420">
    <ele>1671.2</ele>
    <time>2026-06-20T10:26:05Z</time>
   </trkpt>
   <trkpt lat="-3.1884640" lon="37.2795400">
    <ele>1671.2</ele>
    <time>2026-06-20T10:26:06Z</time>
   </trkpt>
   <trkpt lat="-3.1884560" lon="37.2795450">
    <ele>1671.3</ele>
    <time>2026-06-20T10:26:07Z</time>
   </trkpt>
   <trkpt lat="-3.1884490" lon="37.2795490">
    <ele>1671.3</ele>
    <time>2026-06-20T10:26:08Z</time>
   </trkpt>
   <trkpt lat="-3.1884450" lon="37.2795480">
    <ele>1671.4</ele>
    <time>2026-06-20T10:26:09Z</time>
   </trkpt>
   <trkpt lat="-3.1884380" lon="37.2795510">
    <ele>1671.4</ele>
    <time>2026-06-20T10:26:10Z</time>
   </trkpt>
   <trkpt lat="-3.1884310" lon="37.2795520">
    <ele>1671.4</ele>
    <time>2026-06-20T10:26:11Z</time>
   </trkpt>
   <trkpt lat="-3.1884250" lon="37.2795550">
    <ele>1671.5</ele>
    <time>2026-06-20T10:26:12Z</time>
   </trkpt>
   <trkpt lat="-3.1884180" lon="37.2795580">
    <ele>1671.5</ele>
    <time>2026-06-20T10:26:13Z</time>
   </trkpt>
   <trkpt lat="-3.1884130" lon="37.2795590">
    <ele>1671.5</ele>
    <time>2026-06-20T10:26:14Z</time>
   </trkpt>
   <trkpt lat="-3.1884100" lon="37.2795610">
    <ele>1671.6</ele>
    <time>2026-06-20T10:26:15Z</time>
   </trkpt>
   <trkpt lat="-3.1884010" lon="37.2795620">
    <ele>1671.6</ele>
    <time>2026-06-20T10:26:16Z</time>
   </trkpt>
   <trkpt lat="-3.1883930" lon="37.2795680">
    <ele>1671.7</ele>
    <time>2026-06-20T10:26:17Z</time>
   </trkpt>
   <trkpt lat="-3.1883880" lon="37.2795660">
    <ele>1671.7</ele>
    <time>2026-06-20T10:26:18Z</time>
   </trkpt>
   <trkpt lat="-3.1883850" lon="37.2795700">
    <ele>1671.7</ele>
    <time>2026-06-20T10:26:19Z</time>
   </trkpt>
   <trkpt lat="-3.1883800" lon="37.2795720">
    <ele>1671.8</ele>
    <time>2026-06-20T10:26:20Z</time>
   </trkpt>
   <trkpt lat="-3.1883730" lon="37.2795760">
    <ele>1671.8</ele>
    <time>2026-06-20T10:26:21Z</time>
   </trkpt>
   <trkpt lat="-3.1883710" lon="37.2795760">
    <ele>1671.8</ele>
    <time>2026-06-20T10:26:22Z</time>
   </trkpt>
   <trkpt lat="-3.1883600" lon="37.2795770">
    <ele>1671.9</ele>
    <time>2026-06-20T10:26:23Z</time>
   </trkpt>
   <trkpt lat="-3.1883540" lon="37.2795790">
    <ele>1671.9</ele>
    <time>2026-06-20T10:26:24Z</time>
   </trkpt>
   <trkpt lat="-3.1883480" lon="37.2795810">
    <ele>1672.0</ele>
    <time>2026-06-20T10:26:25Z</time>
   </trkpt>
   <trkpt lat="-3.1883420" lon="37.2795830">
    <ele>1672.0</ele>
    <time>2026-06-20T10:26:26Z</time>
   </trkpt>
   <trkpt lat="-3.1883370" lon="37.2795850">
    <ele>1672.0</ele>
    <time>2026-06-20T10:26:27Z</time>
   </trkpt>
   <trkpt lat="-3.1883330" lon="37.2795840">
    <ele>1672.0</ele>
    <time>2026-06-20T10:26:28Z</time>
   </trkpt>
   <trkpt lat="-3.1883260" lon="37.2795850">
    <ele>1672.1</ele>
    <time>2026-06-20T10:26:29Z</time>
   </trkpt>
   <trkpt lat="-3.1883250" lon="37.2795870">
    <ele>1672.1</ele>
    <time>2026-06-20T10:26:30Z</time>
   </trkpt>
   <trkpt lat="-3.1883130" lon="37.2795930">
    <ele>1672.2</ele>
    <time>2026-06-20T10:26:31Z</time>
   </trkpt>
   <trkpt lat="-3.1883110" lon="37.2795960">
    <ele>1672.2</ele>
    <time>2026-06-20T10:26:32Z</time>
   </trkpt>
   <trkpt lat="-3.1883000" lon="37.2795960">
    <ele>1672.3</ele>
    <time>2026-06-20T10:26:33Z</time>
   </trkpt>
   <trkpt lat="-3.1882930" lon="37.2796000">
    <ele>1672.3</ele>
    <time>2026-06-20T10:26:34Z</time>
   </trkpt>
   <trkpt lat="-3.1882910" lon="37.2796010">
    <ele>1672.3</ele>
    <time>2026-06-20T10:26:35Z</time>
   </trkpt>
   <trkpt lat="-3.1882770" lon="37.2796050">
    <ele>1672.4</ele>
    <time>2026-06-20T10:26:36Z</time>
   </trkpt>
   <trkpt lat="-3.1882740" lon="37.2796040">
    <ele>1672.4</ele>
    <time>2026-06-20T10:26:37Z</time>
   </trkpt>
   <trkpt lat="-3.1882650" lon="37.2796060">
    <ele>1672.5</ele>
    <time>2026-06-20T10:26:38Z</time>
   </trkpt>
   <trkpt lat="-3.1882570" lon="37.2796060">
    <ele>1672.5</ele>
    <time>2026-06-20T10:26:39Z</time>
   </trkpt>
   <trkpt lat="-3.1882530" lon="37.2796070">
    <ele>1672.6</ele>
    <time>2026-06-20T10:26:40Z</time>
   </trkpt>
   <trkpt lat="-3.1882480" lon="37.2796100">
    <ele>1672.6</ele>
    <time>2026-06-20T10:26:41Z</time>
   </trkpt>
   <trkpt lat="-3.1882410" lon="37.2796100">
    <ele>1672.6</ele>
    <time>2026-06-20T10:26:42Z</time>
   </trkpt>
   <trkpt lat="-3.1882360" lon="37.2796120">
    <ele>1672.7</ele>
    <time>2026-06-20T10:26:43Z</time>
   </trkpt>
   <trkpt lat="-3.1882300" lon="37.2796140">
    <ele>1672.7</ele>
    <time>2026-06-20T10:26:44Z</time>
   </trkpt>
   <trkpt lat="-3.1882230" lon="37.2796130">
    <ele>1672.8</ele>
    <time>2026-06-20T10:26:45Z</time>
   </trkpt>
   <trkpt lat="-3.1882160" lon="37.2796160">
    <ele>1672.8</ele>
    <time>2026-06-20T10:26:46Z</time>
   </trkpt>
   <trkpt lat="-3.1882090" lon="37.2796160">
    <ele>1672.8</ele>
    <time>2026-06-20T10:26:47Z</time>
   </trkpt>
   <trkpt lat="-3.1882010" lon="37.2796180">
    <ele>1672.9</ele>
    <time>2026-06-20T10:26:48Z</time>
   </trkpt>
   <trkpt lat="-3.1881970" lon="37.2796180">
    <ele>1672.9</ele>
    <time>2026-06-20T10:26:49Z</time>
   </trkpt>
   <trkpt lat="-3.1881900" lon="37.2796200">
    <ele>1673.0</ele>
    <time>2026-06-20T10:26:50Z</time>
   </trkpt>
   <trkpt lat="-3.1881880" lon="37.2796200">
    <ele>1673.0</ele>
    <time>2026-06-20T10:26:51Z</time>
   </trkpt>
   <trkpt lat="-3.1881780" lon="37.2796220">
    <ele>1673.0</ele>
    <time>2026-06-20T10:26:52Z</time>
   </trkpt>
   <trkpt lat="-3.1881710" lon="37.2796210">
    <ele>1673.1</ele>
    <time>2026-06-20T10:26:53Z</time>
   </trkpt>
   <trkpt lat="-3.1881650" lon="37.2796240">
    <ele>1673.1</ele>
    <time>2026-06-20T10:26:54Z</time>
   </trkpt>
   <trkpt lat="-3.1881610" lon="37.2796260">
    <ele>1673.2</ele>
    <time>2026-06-20T10:26:55Z</time>
   </trkpt>
   <trkpt lat="-3.1881540" lon="37.2796290">
    <ele>1673.2</ele>
    <time>2026-06-20T10:26:56Z</time>
   </trkpt>
   <trkpt lat="-3.1881450" lon="37.2796310">
    <ele>1673.3</ele>
    <time>2026-06-20T10:26:57Z</time>
   </trkpt>
   <trkpt lat="-3.1881400" lon="37.2796330">
    <ele>1673.3</ele>
    <time>2026-06-20T10:26:58Z</time>
   </trkpt>
   <trkpt lat="-3.1881330" lon="37.2796370">
    <ele>1673.3</ele>
    <time>2026-06-20T10:26:59Z</time>
   </trkpt>
   <trkpt lat="-3.1881310" lon="37.2796380">
    <ele>1673.4</ele>
    <time>2026-06-20T10:27:00Z</time>
   </trkpt>
   <trkpt lat="-3.1881220" lon="37.2796370">
    <ele>1673.4</ele>
    <time>2026-06-20T10:27:01Z</time>
   </trkpt>
   <trkpt lat="-3.1881140" lon="37.2796380">
    <ele>1673.5</ele>
    <time>2026-06-20T10:27:02Z</time>
   </trkpt>
   <trkpt lat="-3.1881060" lon="37.2796400">
    <ele>1673.5</ele>
    <time>2026-06-20T10:27:03Z</time>
   </trkpt>
   <trkpt lat="-3.1881010" lon="37.2796420">
    <ele>1673.5</ele>
    <time>2026-06-20T10:27:04Z</time>
   </trkpt>
   <trkpt lat="-3.1880950" lon="37.2796420">
    <ele>1673.6</ele>
    <time>2026-06-20T10:27:05Z</time>
   </trkpt>
   <trkpt lat="-3.1880810" lon="37.2796340">
    <ele>1673.7</ele>
    <time>2026-06-20T10:27:06Z</time>
   </trkpt>
   <trkpt lat="-3.1880790" lon="37.2796320">
    <ele>1673.7</ele>
    <time>2026-06-20T10:27:07Z</time>
   </trkpt>
   <trkpt lat="-3.1880780" lon="37.2796460">
    <ele>1673.8</ele>
    <time>2026-06-20T10:27:08Z</time>
   </trkpt>
   <trkpt lat="-3.1880800" lon="37.2796500">
    <ele>1673.8</ele>
    <time>2026-06-20T10:27:09Z</time>
   </trkpt>
   <trkpt lat="-3.1880690" lon="37.2796520">
    <ele>1673.9</ele>
    <time>2026-06-20T10:27:10Z</time>
   </trkpt>
   <trkpt lat="-3.1880710" lon="37.2796620">
    <ele>1673.9</ele>
    <time>2026-06-20T10:27:11Z</time>
   </trkpt>
   <trkpt lat="-3.1880650" lon="37.2796620">
    <ele>1674.0</ele>
    <time>2026-06-20T10:27:12Z</time>
   </trkpt>
   <trkpt lat="-3.1880540" lon="37.2796570">
    <ele>1674.0</ele>
    <time>2026-06-20T10:27:13Z</time>
   </trkpt>
   <trkpt lat="-3.1880490" lon="37.2796580">
    <ele>1674.1</ele>
    <time>2026-06-20T10:27:14Z</time>
   </trkpt>
   <trkpt lat="-3.1880420" lon="37.2796580">
    <ele>1674.1</ele>
    <time>2026-06-20T10:27:15Z</time>
   </trkpt>
   <trkpt lat="-3.1880380" lon="37.2796570">
    <ele>1674.1</ele>
    <time>2026-06-20T10:27:16Z</time>
   </trkpt>
   <trkpt lat="-3.1880350" lon="37.2796570">
    <ele>1674.2</ele>
    <time>2026-06-20T10:27:17Z</time>
   </trkpt>
   <trkpt lat="-3.1880300" lon="37.2796570">
    <ele>1674.2</ele>
    <time>2026-06-20T10:27:18Z</time>
   </trkpt>
   <trkpt lat="-3.1880240" lon="37.2796580">
    <ele>1674.2</ele>
    <time>2026-06-20T10:27:19Z</time>
   </trkpt>
   <trkpt lat="-3.1880140" lon="37.2796560">
    <ele>1674.3</ele>
    <time>2026-06-20T10:27:20Z</time>
   </trkpt>
   <trkpt lat="-3.1880080" lon="37.2796560">
    <ele>1674.3</ele>
    <time>2026-06-20T10:27:21Z</time>
   </trkpt>
   <trkpt lat="-3.1880010" lon="37.2796580">
    <ele>1674.4</ele>
    <time>2026-06-20T10:27:22Z</time>
   </trkpt>
   <trkpt lat="-3.1879900" lon="37.2796610">
    <ele>1674.4</ele>
    <time>2026-06-20T10:27:23Z</time>
   </trkpt>
   <trkpt lat="-3.1879830" lon="37.2796620">
    <ele>1674.5</ele>
    <time>2026-06-20T10:27:24Z</time>
   </trkpt>
   <trkpt lat="-3.1879750" lon="37.2796650">
    <ele>1674.5</ele>
    <time>2026-06-20T10:27:25Z</time>
   </trkpt>
   <trkpt lat="-3.1879660" lon="37.2796670">
    <ele>1674.6</ele>
    <time>2026-06-20T10:27:26Z</time>
   </trkpt>
   <trkpt lat="-3.1879550" lon="37.2796680">
    <ele>1674.6</ele>
    <time>2026-06-20T10:27:27Z</time>
   </trkpt>
   <trkpt lat="-3.1879450" lon="37.2796700">
    <ele>1674.7</ele>
    <time>2026-06-20T10:27:28Z</time>
   </trkpt>
   <trkpt lat="-3.1879320" lon="37.2796710">
    <ele>1674.8</ele>
    <time>2026-06-20T10:27:29Z</time>
   </trkpt>
   <trkpt lat="-3.1879200" lon="37.2796770">
    <ele>1674.9</ele>
    <time>2026-06-20T10:27:30Z</time>
   </trkpt>
   <trkpt lat="-3.1879120" lon="37.2796790">
    <ele>1674.9</ele>
    <time>2026-06-20T10:27:31Z</time>
   </trkpt>
   <trkpt lat="-3.1879060" lon="37.2796830">
    <ele>1674.9</ele>
    <time>2026-06-20T10:27:32Z</time>
   </trkpt>
   <trkpt lat="-3.1879010" lon="37.2796860">
    <ele>1675.0</ele>
    <time>2026-06-20T10:27:33Z</time>
   </trkpt>
   <trkpt lat="-3.1878920" lon="37.2796870">
    <ele>1675.0</ele>
    <time>2026-06-20T10:27:34Z</time>
   </trkpt>
   <trkpt lat="-3.1878810" lon="37.2796890">
    <ele>1675.1</ele>
    <time>2026-06-20T10:27:35Z</time>
   </trkpt>
   <trkpt lat="-3.1878760" lon="37.2796950">
    <ele>1675.1</ele>
    <time>2026-06-20T10:27:36Z</time>
   </trkpt>
   <trkpt lat="-3.1878680" lon="37.2796940">
    <ele>1675.2</ele>
    <time>2026-06-20T10:27:37Z</time>
   </trkpt>
   <trkpt lat="-3.1878590" lon="37.2796920">
    <ele>1675.2</ele>
    <time>2026-06-20T10:27:38Z</time>
   </trkpt>
   <trkpt lat="-3.1878480" lon="37.2796970">
    <ele>1675.3</ele>
    <time>2026-06-20T10:27:39Z</time>
   </trkpt>
   <trkpt lat="-3.1878400" lon="37.2797010">
    <ele>1675.4</ele>
    <time>2026-06-20T10:27:40Z</time>
   </trkpt>
   <trkpt lat="-3.1878360" lon="37.2797010">
    <ele>1675.4</ele>
    <time>2026-06-20T10:27:41Z</time>
   </trkpt>
   <trkpt lat="-3.1878280" lon="37.2797050">
    <ele>1675.4</ele>
    <time>2026-06-20T10:27:42Z</time>
   </trkpt>
   <trkpt lat="-3.1878210" lon="37.2797050">
    <ele>1675.5</ele>
    <time>2026-06-20T10:27:43Z</time>
   </trkpt>
   <trkpt lat="-3.1878180" lon="37.2797060">
    <ele>1675.5</ele>
    <time>2026-06-20T10:27:44Z</time>
   </trkpt>
   <trkpt lat="-3.1878130" lon="37.2797090">
    <ele>1675.5</ele>
    <time>2026-06-20T10:27:45Z</time>
   </trkpt>
   <trkpt lat="-3.1878040" lon="37.2797120">
    <ele>1675.6</ele>
    <time>2026-06-20T10:27:46Z</time>
   </trkpt>
   <trkpt lat="-3.1878020" lon="37.2797120">
    <ele>1675.6</ele>
    <time>2026-06-20T10:27:47Z</time>
   </trkpt>
   <trkpt lat="-3.1877980" lon="37.2797120">
    <ele>1675.6</ele>
    <time>2026-06-20T10:27:48Z</time>
   </trkpt>
   <trkpt lat="-3.1877960" lon="37.2797170">
    <ele>1675.7</ele>
    <time>2026-06-20T10:27:49Z</time>
   </trkpt>
   <trkpt lat="-3.1877900" lon="37.2797170">
    <ele>1675.7</ele>
    <time>2026-06-20T10:27:50Z</time>
   </trkpt>
   <trkpt lat="-3.1877800" lon="37.2797180">
    <ele>1675.7</ele>
    <time>2026-06-20T10:27:51Z</time>
   </trkpt>
   <trkpt lat="-3.1877780" lon="37.2797190">
    <ele>1675.8</ele>
    <time>2026-06-20T10:27:52Z</time>
   </trkpt>
   <trkpt lat="-3.1877730" lon="37.2797180">
    <ele>1675.8</ele>
    <time>2026-06-20T10:27:53Z</time>
   </trkpt>
   <trkpt lat="-3.1877640" lon="37.2797220">
    <ele>1675.8</ele>
    <time>2026-06-20T10:27:54Z</time>
   </trkpt>
   <trkpt lat="-3.1877550" lon="37.2797220">
    <ele>1675.9</ele>
    <time>2026-06-20T10:27:55Z</time>
   </trkpt>
   <trkpt lat="-3.1877480" lon="37.2797220">
    <ele>1675.9</ele>
    <time>2026-06-20T10:27:56Z</time>
   </trkpt>
   <trkpt lat="-3.1877410" lon="37.2797260">
    <ele>1676.0</ele>
    <time>2026-06-20T10:27:57Z</time>
   </trkpt>
   <trkpt lat="-3.1877320" lon="37.2797200">
    <ele>1676.1</ele>
    <time>2026-06-20T10:27:58Z</time>
   </trkpt>
   <trkpt lat="-3.1877230" lon="37.2797210">
    <ele>1676.1</ele>
    <time>2026-06-20T10:27:59Z</time>
   </trkpt>
   <trkpt lat="-3.1877160" lon="37.2797260">
    <ele>1676.2</ele>
    <time>2026-06-20T10:28:00Z</time>
   </trkpt>
   <trkpt lat="-3.1877090" lon="37.2797290">
    <ele>1676.2</ele>
    <time>2026-06-20T10:28:01Z</time>
   </trkpt>
   <trkpt lat="-3.1877010" lon="37.2797300">
    <ele>1676.3</ele>
    <time>2026-06-20T10:28:02Z</time>
   </trkpt>
   <trkpt lat="-3.1876970" lon="37.2797330">
    <ele>1676.3</ele>
    <time>2026-06-20T10:28:03Z</time>
   </trkpt>
   <trkpt lat="-3.1876900" lon="37.2797340">
    <ele>1676.3</ele>
    <time>2026-06-20T10:28:04Z</time>
   </trkpt>
   <trkpt lat="-3.1876820" lon="37.2797350">
    <ele>1676.4</ele>
    <time>2026-06-20T10:28:05Z</time>
   </trkpt>
   <trkpt lat="-3.1876700" lon="37.2797360">
    <ele>1676.4</ele>
    <time>2026-06-20T10:28:06Z</time>
   </trkpt>
   <trkpt lat="-3.1876660" lon="37.2797360">
    <ele>1676.5</ele>
    <time>2026-06-20T10:28:07Z</time>
   </trkpt>
   <trkpt lat="-3.1876580" lon="37.2797370">
    <ele>1676.5</ele>
    <time>2026-06-20T10:28:08Z</time>
   </trkpt>
   <trkpt lat="-3.1876540" lon="37.2797400">
    <ele>1676.6</ele>
    <time>2026-06-20T10:28:09Z</time>
   </trkpt>
   <trkpt lat="-3.1876490" lon="37.2797420">
    <ele>1676.6</ele>
    <time>2026-06-20T10:28:10Z</time>
   </trkpt>
   <trkpt lat="-3.1876450" lon="37.2797460">
    <ele>1676.6</ele>
    <time>2026-06-20T10:28:11Z</time>
   </trkpt>
   <trkpt lat="-3.1876370" lon="37.2797460">
    <ele>1676.7</ele>
    <time>2026-06-20T10:28:12Z</time>
   </trkpt>
   <trkpt lat="-3.1876310" lon="37.2797480">
    <ele>1676.7</ele>
    <time>2026-06-20T10:28:13Z</time>
   </trkpt>
   <trkpt lat="-3.1876190" lon="37.2797490">
    <ele>1676.8</ele>
    <time>2026-06-20T10:28:14Z</time>
   </trkpt>
   <trkpt lat="-3.1876100" lon="37.2797480">
    <ele>1676.8</ele>
    <time>2026-06-20T10:28:15Z</time>
   </trkpt>
   <trkpt lat="-3.1876010" lon="37.2797480">
    <ele>1676.9</ele>
    <time>2026-06-20T10:28:16Z</time>
   </trkpt>
   <trkpt lat="-3.1875950" lon="37.2797500">
    <ele>1676.9</ele>
    <time>2026-06-20T10:28:17Z</time>
   </trkpt>
   <trkpt lat="-3.1875890" lon="37.2797520">
    <ele>1676.9</ele>
    <time>2026-06-20T10:28:18Z</time>
   </trkpt>
   <trkpt lat="-3.1875770" lon="37.2797570">
    <ele>1677.0</ele>
    <time>2026-06-20T10:28:19Z</time>
   </trkpt>
   <trkpt lat="-3.1875710" lon="37.2797600">
    <ele>1677.0</ele>
    <time>2026-06-20T10:28:20Z</time>
   </trkpt>
   <trkpt lat="-3.1875640" lon="37.2797630">
    <ele>1677.1</ele>
    <time>2026-06-20T10:28:21Z</time>
   </trkpt>
   <trkpt lat="-3.1875600" lon="37.2797640">
    <ele>1677.1</ele>
    <time>2026-06-20T10:28:22Z</time>
   </trkpt>
   <trkpt lat="-3.1875540" lon="37.2797650">
    <ele>1677.1</ele>
    <time>2026-06-20T10:28:23Z</time>
   </trkpt>
   <trkpt lat="-3.1875450" lon="37.2797640">
    <ele>1677.2</ele>
    <time>2026-06-20T10:28:24Z</time>
   </trkpt>
   <trkpt lat="-3.1875340" lon="37.2797680">
    <ele>1677.2</ele>
    <time>2026-06-20T10:28:25Z</time>
   </trkpt>
   <trkpt lat="-3.1875300" lon="37.2797710">
    <ele>1677.3</ele>
    <time>2026-06-20T10:28:26Z</time>
   </trkpt>
   <trkpt lat="-3.1875250" lon="37.2797710">
    <ele>1677.3</ele>
    <time>2026-06-20T10:28:27Z</time>
   </trkpt>
   <trkpt lat="-3.1875200" lon="37.2797700">
    <ele>1677.3</ele>
    <time>2026-06-20T10:28:28Z</time>
   </trkpt>
   <trkpt lat="-3.1875110" lon="37.2797700">
    <ele>1677.4</ele>
    <time>2026-06-20T10:28:29Z</time>
   </trkpt>
   <trkpt lat="-3.1875040" lon="37.2797680">
    <ele>1677.4</ele>
    <time>2026-06-20T10:28:30Z</time>
   </trkpt>
   <trkpt lat="-3.1874960" lon="37.2797690">
    <ele>1677.4</ele>
    <time>2026-06-20T10:28:31Z</time>
   </trkpt>
   <trkpt lat="-3.1874940" lon="37.2797690">
    <ele>1677.4</ele>
    <time>2026-06-20T10:28:32Z</time>
   </trkpt>
   <trkpt lat="-3.1874800" lon="37.2797650">
    <ele>1677.5</ele>
    <time>2026-06-20T10:28:33Z</time>
   </trkpt>
   <trkpt lat="-3.1874790" lon="37.2797700">
    <ele>1677.5</ele>
    <time>2026-06-20T10:28:34Z</time>
   </trkpt>
   <trkpt lat="-3.1874720" lon="37.2797690">
    <ele>1677.6</ele>
    <time>2026-06-20T10:28:35Z</time>
   </trkpt>
   <trkpt lat="-3.1874650" lon="37.2797690">
    <ele>1677.6</ele>
    <time>2026-06-20T10:28:36Z</time>
   </trkpt>
   <trkpt lat="-3.1874580" lon="37.2797720">
    <ele>1677.7</ele>
    <time>2026-06-20T10:28:37Z</time>
   </trkpt>
   <trkpt lat="-3.1874500" lon="37.2797730">
    <ele>1677.7</ele>
    <time>2026-06-20T10:28:38Z</time>
   </trkpt>
   <trkpt lat="-3.1874440" lon="37.2797770">
    <ele>1677.7</ele>
    <time>2026-06-20T10:28:39Z</time>
   </trkpt>
   <trkpt lat="-3.1874360" lon="37.2797790">
    <ele>1677.8</ele>
    <time>2026-06-20T10:28:40Z</time>
   </trkpt>
   <trkpt lat="-3.1874270" lon="37.2797840">
    <ele>1677.8</ele>
    <time>2026-06-20T10:28:41Z</time>
   </trkpt>
   <trkpt lat="-3.1874200" lon="37.2797800">
    <ele>1677.9</ele>
    <time>2026-06-20T10:28:42Z</time>
   </trkpt>
   <trkpt lat="-3.1874170" lon="37.2797830">
    <ele>1677.9</ele>
    <time>2026-06-20T10:28:43Z</time>
   </trkpt>
   <trkpt lat="-3.1874070" lon="37.2797860">
    <ele>1677.9</ele>
    <time>2026-06-20T10:28:44Z</time>
   </trkpt>
   <trkpt lat="-3.1874000" lon="37.2797860">
    <ele>1678.0</ele>
    <time>2026-06-20T10:28:45Z</time>
   </trkpt>
   <trkpt lat="-3.1873920" lon="37.2797880">
    <ele>1678.0</ele>
    <time>2026-06-20T10:28:46Z</time>
   </trkpt>
   <trkpt lat="-3.1873840" lon="37.2797910">
    <ele>1678.0</ele>
    <time>2026-06-20T10:28:47Z</time>
   </trkpt>
   <trkpt lat="-3.1873740" lon="37.2797960">
    <ele>1678.1</ele>
    <time>2026-06-20T10:28:48Z</time>
   </trkpt>
   <trkpt lat="-3.1873680" lon="37.2797990">
    <ele>1678.1</ele>
    <time>2026-06-20T10:28:49Z</time>
   </trkpt>
   <trkpt lat="-3.1873650" lon="37.2798010">
    <ele>1678.1</ele>
    <time>2026-06-20T10:28:50Z</time>
   </trkpt>
   <trkpt lat="-3.1873550" lon="37.2798030">
    <ele>1678.2</ele>
    <time>2026-06-20T10:28:51Z</time>
   </trkpt>
   <trkpt lat="-3.1873480" lon="37.2798040">
    <ele>1678.2</ele>
    <time>2026-06-20T10:28:52Z</time>
   </trkpt>
   <trkpt lat="-3.1873400" lon="37.2798070">
    <ele>1678.3</ele>
    <time>2026-06-20T10:28:53Z</time>
   </trkpt>
   <trkpt lat="-3.1873330" lon="37.2798090">
    <ele>1678.3</ele>
    <time>2026-06-20T10:28:54Z</time>
   </trkpt>
   <trkpt lat="-3.1873240" lon="37.2798140">
    <ele>1678.3</ele>
    <time>2026-06-20T10:28:55Z</time>
   </trkpt>
   <trkpt lat="-3.1873150" lon="37.2798150">
    <ele>1678.4</ele>
    <time>2026-06-20T10:28:56Z</time>
   </trkpt>
   <trkpt lat="-3.1873050" lon="37.2798190">
    <ele>1678.4</ele>
    <time>2026-06-20T10:28:57Z</time>
   </trkpt>
   <trkpt lat="-3.1872980" lon="37.2798210">
    <ele>1678.5</ele>
    <time>2026-06-20T10:28:58Z</time>
   </trkpt>
   <trkpt lat="-3.1872920" lon="37.2798220">
    <ele>1678.5</ele>
    <time>2026-06-20T10:28:59Z</time>
   </trkpt>
   <trkpt lat="-3.1872870" lon="37.2798250">
    <ele>1678.5</ele>
    <time>2026-06-20T10:29:00Z</time>
   </trkpt>
   <trkpt lat="-3.1872810" lon="37.2798290">
    <ele>1678.5</ele>
    <time>2026-06-20T10:29:01Z</time>
   </trkpt>
   <trkpt lat="-3.1872730" lon="37.2798340">
    <ele>1678.6</ele>
    <time>2026-06-20T10:29:02Z</time>
   </trkpt>
   <trkpt lat="-3.1872670" lon="37.2798410">
    <ele>1678.6</ele>
    <time>2026-06-20T10:29:03Z</time>
   </trkpt>
   <trkpt lat="-3.1872670" lon="37.2798420">
    <ele>1678.6</ele>
    <time>2026-06-20T10:29:04Z</time>
   </trkpt>
   <trkpt lat="-3.1872690" lon="37.2798420">
    <ele>1678.6</ele>
    <time>2026-06-20T10:29:05Z</time>
   </trkpt>
   <trkpt lat="-3.1872640" lon="37.2798410">
    <ele>1678.6</ele>
    <time>2026-06-20T10:29:06Z</time>
   </trkpt>
   <trkpt lat="-3.1872640" lon="37.2798400">
    <ele>1678.6</ele>
    <time>2026-06-20T10:29:07Z</time>
   </trkpt>
   <trkpt lat="-3.1872560" lon="37.2798400">
    <ele>1678.7</ele>
    <time>2026-06-20T10:29:08Z</time>
   </trkpt>
   <trkpt lat="-3.1872460" lon="37.2798400">
    <ele>1678.7</ele>
    <time>2026-06-20T10:29:09Z</time>
   </trkpt>
   <trkpt lat="-3.1872390" lon="37.2798430">
    <ele>1678.7</ele>
    <time>2026-06-20T10:29:10Z</time>
   </trkpt>
   <trkpt lat="-3.1872340" lon="37.2798450">
    <ele>1678.7</ele>
    <time>2026-06-20T10:29:11Z</time>
   </trkpt>
   <trkpt lat="-3.1872270" lon="37.2798460">
    <ele>1678.8</ele>
    <time>2026-06-20T10:29:12Z</time>
   </trkpt>
   <trkpt lat="-3.1872170" lon="37.2798460">
    <ele>1678.8</ele>
    <time>2026-06-20T10:29:13Z</time>
   </trkpt>
   <trkpt lat="-3.1872100" lon="37.2798470">
    <ele>1678.8</ele>
    <time>2026-06-20T10:29:14Z</time>
   </trkpt>
   <trkpt lat="-3.1872050" lon="37.2798480">
    <ele>1678.9</ele>
    <time>2026-06-20T10:29:15Z</time>
   </trkpt>
   <trkpt lat="-3.1871970" lon="37.2798560">
    <ele>1678.9</ele>
    <time>2026-06-20T10:29:16Z</time>
   </trkpt>
   <trkpt lat="-3.1871890" lon="37.2798540">
    <ele>1678.9</ele>
    <time>2026-06-20T10:29:17Z</time>
   </trkpt>
   <trkpt lat="-3.1871830" lon="37.2798530">
    <ele>1678.9</ele>
    <time>2026-06-20T10:29:18Z</time>
   </trkpt>
   <trkpt lat="-3.1871770" lon="37.2798580">
    <ele>1679.0</ele>
    <time>2026-06-20T10:29:19Z</time>
   </trkpt>
   <trkpt lat="-3.1871740" lon="37.2798600">
    <ele>1679.0</ele>
    <time>2026-06-20T10:29:20Z</time>
   </trkpt>
   <trkpt lat="-3.1871670" lon="37.2798600">
    <ele>1679.0</ele>
    <time>2026-06-20T10:29:21Z</time>
   </trkpt>
   <trkpt lat="-3.1871600" lon="37.2798630">
    <ele>1679.0</ele>
    <time>2026-06-20T10:29:22Z</time>
   </trkpt>
   <trkpt lat="-3.1871530" lon="37.2798640">
    <ele>1679.0</ele>
    <time>2026-06-20T10:29:23Z</time>
   </trkpt>
   <trkpt lat="-3.1871460" lon="37.2798650">
    <ele>1679.1</ele>
    <time>2026-06-20T10:29:24Z</time>
   </trkpt>
   <trkpt lat="-3.1871370" lon="37.2798660">
    <ele>1679.1</ele>
    <time>2026-06-20T10:29:25Z</time>
   </trkpt>
   <trkpt lat="-3.1871300" lon="37.2798700">
    <ele>1679.1</ele>
    <time>2026-06-20T10:29:26Z</time>
   </trkpt>
   <trkpt lat="-3.1871220" lon="37.2798730">
    <ele>1679.2</ele>
    <time>2026-06-20T10:29:27Z</time>
   </trkpt>
   <trkpt lat="-3.1871140" lon="37.2798780">
    <ele>1679.2</ele>
    <time>2026-06-20T10:29:28Z</time>
   </trkpt>
   <trkpt lat="-3.1871050" lon="37.2798810">
    <ele>1679.2</ele>
    <time>2026-06-20T10:29:29Z</time>
   </trkpt>
   <trkpt lat="-3.1871000" lon="37.2798840">
    <ele>1679.2</ele>
    <time>2026-06-20T10:29:30Z</time>
   </trkpt>
   <trkpt lat="-3.1870940" lon="37.2798820">
    <ele>1679.3</ele>
    <time>2026-06-20T10:29:31Z</time>
   </trkpt>
   <trkpt lat="-3.1870900" lon="37.2798860">
    <ele>1679.3</ele>
    <time>2026-06-20T10:29:32Z</time>
   </trkpt>
   <trkpt lat="-3.1870790" lon="37.2798890">
    <ele>1679.3</ele>
    <time>2026-06-20T10:29:33Z</time>
   </trkpt>
   <trkpt lat="-3.1870700" lon="37.2798890">
    <ele>1679.3</ele>
    <time>2026-06-20T10:29:34Z</time>
   </trkpt>
   <trkpt lat="-3.1870620" lon="37.2798910">
    <ele>1679.4</ele>
    <time>2026-06-20T10:29:35Z</time>
   </trkpt>
   <trkpt lat="-3.1870540" lon="37.2798890">
    <ele>1679.4</ele>
    <time>2026-06-20T10:29:36Z</time>
   </trkpt>
   <trkpt lat="-3.1870420" lon="37.2798930">
    <ele>1679.4</ele>
    <time>2026-06-20T10:29:37Z</time>
   </trkpt>
   <trkpt lat="-3.1870340" lon="37.2798980">
    <ele>1679.5</ele>
    <time>2026-06-20T10:29:38Z</time>
   </trkpt>
   <trkpt lat="-3.1870240" lon="37.2798980">
    <ele>1679.5</ele>
    <time>2026-06-20T10:29:39Z</time>
   </trkpt>
   <trkpt lat="-3.1870180" lon="37.2799010">
    <ele>1679.5</ele>
    <time>2026-06-20T10:29:40Z</time>
   </trkpt>
   <trkpt lat="-3.1870050" lon="37.2799050">
    <ele>1679.6</ele>
    <time>2026-06-20T10:29:41Z</time>
   </trkpt>
   <trkpt lat="-3.1869980" lon="37.2799070">
    <ele>1679.6</ele>
    <time>2026-06-20T10:29:42Z</time>
   </trkpt>
   <trkpt lat="-3.1869900" lon="37.2799100">
    <ele>1679.6</ele>
    <time>2026-06-20T10:29:43Z</time>
   </trkpt>
   <trkpt lat="-3.1869790" lon="37.2799120">
    <ele>1679.7</ele>
    <time>2026-06-20T10:29:44Z</time>
   </trkpt>
   <trkpt lat="-3.1869680" lon="37.2799150">
    <ele>1679.7</ele>
    <time>2026-06-20T10:29:45Z</time>
   </trkpt>
   <trkpt lat="-3.1869650" lon="37.2799160">
    <ele>1679.7</ele>
    <time>2026-06-20T10:29:46Z</time>
   </trkpt>
   <trkpt lat="-3.1869550" lon="37.2799160">
    <ele>1679.8</ele>
    <time>2026-06-20T10:29:47Z</time>
   </trkpt>
   <trkpt lat="-3.1869480" lon="37.2799190">
    <ele>1679.8</ele>
    <time>2026-06-20T10:29:48Z</time>
   </trkpt>
   <trkpt lat="-3.1869310" lon="37.2799200">
    <ele>1679.8</ele>
    <time>2026-06-20T10:29:49Z</time>
   </trkpt>
   <trkpt lat="-3.1869230" lon="37.2799230">
    <ele>1679.9</ele>
    <time>2026-06-20T10:29:50Z</time>
   </trkpt>
   <trkpt lat="-3.1869220" lon="37.2799260">
    <ele>1679.9</ele>
    <time>2026-06-20T10:29:51Z</time>
   </trkpt>
   <trkpt lat="-3.1869140" lon="37.2799290">
    <ele>1679.9</ele>
    <time>2026-06-20T10:29:52Z</time>
   </trkpt>
   <trkpt lat="-3.1869050" lon="37.2799310">
    <ele>1679.9</ele>
    <time>2026-06-20T10:29:53Z</time>
   </trkpt>
   <trkpt lat="-3.1868960" lon="37.2799310">
    <ele>1680.0</ele>
    <time>2026-06-20T10:29:54Z</time>
   </trkpt>
   <trkpt lat="-3.1868950" lon="37.2799320">
    <ele>1680.0</ele>
    <time>2026-06-20T10:29:55Z</time>
   </trkpt>
   <trkpt lat="-3.1868800" lon="37.2799350">
    <ele>1680.0</ele>
    <time>2026-06-20T10:29:56Z</time>
   </trkpt>
   <trkpt lat="-3.1868730" lon="37.2799380">
    <ele>1680.1</ele>
    <time>2026-06-20T10:29:57Z</time>
   </trkpt>
   <trkpt lat="-3.1868660" lon="37.2799390">
    <ele>1680.1</ele>
    <time>2026-06-20T10:29:58Z</time>
   </trkpt>
   <trkpt lat="-3.1868580" lon="37.2799410">
    <ele>1680.1</ele>
    <time>2026-06-20T10:29:59Z</time>
   </trkpt>
   <trkpt lat="-3.1868490" lon="37.2799420">
    <ele>1680.1</ele>
    <time>2026-06-20T10:30:00Z</time>
   </trkpt>
   <trkpt lat="-3.1868420" lon="37.2799440">
    <ele>1680.2</ele>
    <time>2026-06-20T10:30:01Z</time>
   </trkpt>
   <trkpt lat="-3.1868400" lon="37.2799440">
    <ele>1680.2</ele>
    <time>2026-06-20T10:30:02Z</time>
   </trkpt>
   <trkpt lat="-3.1868280" lon="37.2799480">
    <ele>1680.2</ele>
    <time>2026-06-20T10:30:03Z</time>
   </trkpt>
   <trkpt lat="-3.1868220" lon="37.2799480">
    <ele>1680.2</ele>
    <time>2026-06-20T10:30:04Z</time>
   </trkpt>
   <trkpt lat="-3.1868140" lon="37.2799500">
    <ele>1680.3</ele>
    <time>2026-06-20T10:30:05Z</time>
   </trkpt>
   <trkpt lat="-3.1868040" lon="37.2799530">
    <ele>1680.3</ele>
    <time>2026-06-20T10:30:06Z</time>
   </trkpt>
   <trkpt lat="-3.1867950" lon="37.2799530">
    <ele>1680.3</ele>
    <time>2026-06-20T10:30:07Z</time>
   </trkpt>
   <trkpt lat="-3.1867900" lon="37.2799500">
    <ele>1680.3</ele>
    <time>2026-06-20T10:30:08Z</time>
   </trkpt>
   <trkpt lat="-3.1867800" lon="37.2799520">
    <ele>1680.4</ele>
    <time>2026-06-20T10:30:09Z</time>
   </trkpt>
   <trkpt lat="-3.1867690" lon="37.2799530">
    <ele>1680.4</ele>
    <time>2026-06-20T10:30:10Z</time>
   </trkpt>
   <trkpt lat="-3.1867600" lon="37.2799530">
    <ele>1680.4</ele>
    <time>2026-06-20T10:30:11Z</time>
   </trkpt>
   <trkpt lat="-3.1867540" lon="37.2799530">
    <ele>1680.5</ele>
    <time>2026-06-20T10:30:12Z</time>
   </trkpt>
   <trkpt lat="-3.1867480" lon="37.2799540">
    <ele>1680.5</ele>
    <time>2026-06-20T10:30:13Z</time>
   </trkpt>
   <trkpt lat="-3.1867390" lon="37.2799540">
    <ele>1680.5</ele>
    <time>2026-06-20T10:30:14Z</time>
   </trkpt>
   <trkpt lat="-3.1867330" lon="37.2799560">
    <ele>1680.5</ele>
    <time>2026-06-20T10:30:15Z</time>
   </trkpt>
   <trkpt lat="-3.1867270" lon="37.2799530">
    <ele>1680.5</ele>
    <time>2026-06-20T10:30:16Z</time>
   </trkpt>
   <trkpt lat="-3.1867180" lon="37.2799530">
    <ele>1680.6</ele>
    <time>2026-06-20T10:30:17Z</time>
   </trkpt>
   <trkpt lat="-3.1867120" lon="37.2799560">
    <ele>1680.6</ele>
    <time>2026-06-20T10:30:18Z</time>
   </trkpt>
   <trkpt lat="-3.1867010" lon="37.2799560">
    <ele>1680.6</ele>
    <time>2026-06-20T10:30:19Z</time>
   </trkpt>
   <trkpt lat="-3.1866910" lon="37.2799580">
    <ele>1680.6</ele>
    <time>2026-06-20T10:30:20Z</time>
   </trkpt>
   <trkpt lat="-3.1866850" lon="37.2799580">
    <ele>1680.7</ele>
    <time>2026-06-20T10:30:21Z</time>
   </trkpt>
   <trkpt lat="-3.1866820" lon="37.2799570">
    <ele>1680.7</ele>
    <time>2026-06-20T10:30:22Z</time>
   </trkpt>
   <trkpt lat="-3.1866740" lon="37.2799570">
    <ele>1680.7</ele>
    <time>2026-06-20T10:30:23Z</time>
   </trkpt>
   <trkpt lat="-3.1866660" lon="37.2799580">
    <ele>1680.7</ele>
    <time>2026-06-20T10:30:24Z</time>
   </trkpt>
   <trkpt lat="-3.1866570" lon="37.2799540">
    <ele>1680.7</ele>
    <time>2026-06-20T10:30:25Z</time>
   </trkpt>
   <trkpt lat="-3.1866500" lon="37.2799540">
    <ele>1680.7</ele>
    <time>2026-06-20T10:30:26Z</time>
   </trkpt>
   <trkpt lat="-3.1866390" lon="37.2799580">
    <ele>1680.8</ele>
    <time>2026-06-20T10:30:27Z</time>
   </trkpt>
   <trkpt lat="-3.1866290" lon="37.2799590">
    <ele>1680.8</ele>
    <time>2026-06-20T10:30:28Z</time>
   </trkpt>
   <trkpt lat="-3.1866200" lon="37.2799600">
    <ele>1680.8</ele>
    <time>2026-06-20T10:30:29Z</time>
   </trkpt>
   <trkpt lat="-3.1866100" lon="37.2799630">
    <ele>1680.9</ele>
    <time>2026-06-20T10:30:30Z</time>
   </trkpt>
   <trkpt lat="-3.1866020" lon="37.2799630">
    <ele>1680.9</ele>
    <time>2026-06-20T10:30:31Z</time>
   </trkpt>
   <trkpt lat="-3.1865940" lon="37.2799630">
    <ele>1680.9</ele>
    <time>2026-06-20T10:30:32Z</time>
   </trkpt>
   <trkpt lat="-3.1865790" lon="37.2799630">
    <ele>1680.9</ele>
    <time>2026-06-20T10:30:33Z</time>
   </trkpt>
   <trkpt lat="-3.1865730" lon="37.2799620">
    <ele>1680.9</ele>
    <time>2026-06-20T10:30:34Z</time>
   </trkpt>
   <trkpt lat="-3.1865690" lon="37.2799620">
    <ele>1681.0</ele>
    <time>2026-06-20T10:30:35Z</time>
   </trkpt>
   <trkpt lat="-3.1865570" lon="37.2799630">
    <ele>1681.0</ele>
    <time>2026-06-20T10:30:36Z</time>
   </trkpt>
   <trkpt lat="-3.1865460" lon="37.2799630">
    <ele>1681.0</ele>
    <time>2026-06-20T10:30:37Z</time>
   </trkpt>
   <trkpt lat="-3.1865400" lon="37.2799610">
    <ele>1681.0</ele>
    <time>2026-06-20T10:30:38Z</time>
   </trkpt>
   <trkpt lat="-3.1865290" lon="37.2799600">
    <ele>1681.1</ele>
    <time>2026-06-20T10:30:39Z</time>
   </trkpt>
   <trkpt lat="-3.1865200" lon="37.2799660">
    <ele>1681.1</ele>
    <time>2026-06-20T10:30:40Z</time>
   </trkpt>
   <trkpt lat="-3.1865160" lon="37.2799700">
    <ele>1681.1</ele>
    <time>2026-06-20T10:30:41Z</time>
   </trkpt>
   <trkpt lat="-3.1865050" lon="37.2799700">
    <ele>1681.1</ele>
    <time>2026-06-20T10:30:42Z</time>
   </trkpt>
   <trkpt lat="-3.1864980" lon="37.2799700">
    <ele>1681.1</ele>
    <time>2026-06-20T10:30:43Z</time>
   </trkpt>
   <trkpt lat="-3.1864920" lon="37.2799700">
    <ele>1681.2</ele>
    <time>2026-06-20T10:30:44Z</time>
   </trkpt>
   <trkpt lat="-3.1864850" lon="37.2799690">
    <ele>1681.2</ele>
    <time>2026-06-20T10:30:45Z</time>
   </trkpt>
   <trkpt lat="-3.1864750" lon="37.2799680">
    <ele>1681.2</ele>
    <time>2026-06-20T10:30:46Z</time>
   </trkpt>
   <trkpt lat="-3.1864610" lon="37.2799670">
    <ele>1681.2</ele>
    <time>2026-06-20T10:30:47Z</time>
   </trkpt>
   <trkpt lat="-3.1864570" lon="37.2799700">
    <ele>1681.3</ele>
    <time>2026-06-20T10:30:48Z</time>
   </trkpt>
   <trkpt lat="-3.1864480" lon="37.2799730">
    <ele>1681.3</ele>
    <time>2026-06-20T10:30:49Z</time>
   </trkpt>
   <trkpt lat="-3.1864390" lon="37.2799740">
    <ele>1681.3</ele>
    <time>2026-06-20T10:30:50Z</time>
   </trkpt>
   <trkpt lat="-3.1864300" lon="37.2799740">
    <ele>1681.3</ele>
    <time>2026-06-20T10:30:51Z</time>
   </trkpt>
   <trkpt lat="-3.1864230" lon="37.2799740">
    <ele>1681.3</ele>
    <time>2026-06-20T10:30:52Z</time>
   </trkpt>
   <trkpt lat="-3.1864160" lon="37.2799760">
    <ele>1681.4</ele>
    <time>2026-06-20T10:30:53Z</time>
   </trkpt>
   <trkpt lat="-3.1864070" lon="37.2799760">
    <ele>1681.4</ele>
    <time>2026-06-20T10:30:54Z</time>
   </trkpt>
   <trkpt lat="-3.1863980" lon="37.2799790">
    <ele>1681.4</ele>
    <time>2026-06-20T10:30:55Z</time>
   </trkpt>
   <trkpt lat="-3.1863920" lon="37.2799810">
    <ele>1681.4</ele>
    <time>2026-06-20T10:30:56Z</time>
   </trkpt>
   <trkpt lat="-3.1863840" lon="37.2799790">
    <ele>1681.4</ele>
    <time>2026-06-20T10:30:57Z</time>
   </trkpt>
   <trkpt lat="-3.1863740" lon="37.2799770">
    <ele>1681.5</ele>
    <time>2026-06-20T10:30:58Z</time>
   </trkpt>
   <trkpt lat="-3.1863670" lon="37.2799770">
    <ele>1681.5</ele>
    <time>2026-06-20T10:30:59Z</time>
   </trkpt>
   <trkpt lat="-3.1863590" lon="37.2799790">
    <ele>1681.5</ele>
    <time>2026-06-20T10:31:00Z</time>
   </trkpt>
   <trkpt lat="-3.1863540" lon="37.2799800">
    <ele>1681.5</ele>
    <time>2026-06-20T10:31:01Z</time>
   </trkpt>
   <trkpt lat="-3.1863460" lon="37.2799770">
    <ele>1681.6</ele>
    <time>2026-06-20T10:31:02Z</time>
   </trkpt>
   <trkpt lat="-3.1863380" lon="37.2799740">
    <ele>1681.6</ele>
    <time>2026-06-20T10:31:03Z</time>
   </trkpt>
   <trkpt lat="-3.1863290" lon="37.2799700">
    <ele>1681.6</ele>
    <time>2026-06-20T10:31:04Z</time>
   </trkpt>
   <trkpt lat="-3.1863210" lon="37.2799660">
    <ele>1681.7</ele>
    <time>2026-06-20T10:31:05Z</time>
   </trkpt>
   <trkpt lat="-3.1863130" lon="37.2799650">
    <ele>1681.7</ele>
    <time>2026-06-20T10:31:06Z</time>
   </trkpt>
   <trkpt lat="-3.1863060" lon="37.2799640">
    <ele>1681.7</ele>
    <time>2026-06-20T10:31:07Z</time>
   </trkpt>
   <trkpt lat="-3.1863000" lon="37.2799620">
    <ele>1681.7</ele>
    <time>2026-06-20T10:31:08Z</time>
   </trkpt>
   <trkpt lat="-3.1862940" lon="37.2799610">
    <ele>1681.7</ele>
    <time>2026-06-20T10:31:09Z</time>
   </trkpt>
   <trkpt lat="-3.1862870" lon="37.2799640">
    <ele>1681.8</ele>
    <time>2026-06-20T10:31:10Z</time>
   </trkpt>
   <trkpt lat="-3.1862780" lon="37.2799630">
    <ele>1681.8</ele>
    <time>2026-06-20T10:31:11Z</time>
   </trkpt>
   <trkpt lat="-3.1862710" lon="37.2799620">
    <ele>1681.8</ele>
    <time>2026-06-20T10:31:12Z</time>
   </trkpt>
   <trkpt lat="-3.1862630" lon="37.2799610">
    <ele>1681.8</ele>
    <time>2026-06-20T10:31:13Z</time>
   </trkpt>
   <trkpt lat="-3.1862560" lon="37.2799600">
    <ele>1681.9</ele>
    <time>2026-06-20T10:31:14Z</time>
   </trkpt>
   <trkpt lat="-3.1862500" lon="37.2799590">
    <ele>1681.9</ele>
    <time>2026-06-20T10:31:15Z</time>
   </trkpt>
   <trkpt lat="-3.1862440" lon="37.2799580">
    <ele>1681.9</ele>
    <time>2026-06-20T10:31:16Z</time>
   </trkpt>
   <trkpt lat="-3.1862360" lon="37.2799550">
    <ele>1681.9</ele>
    <time>2026-06-20T10:31:17Z</time>
   </trkpt>
   <trkpt lat="-3.1862280" lon="37.2799540">
    <ele>1682.0</ele>
    <time>2026-06-20T10:31:18Z</time>
   </trkpt>
   <trkpt lat="-3.1862210" lon="37.2799530">
    <ele>1682.0</ele>
    <time>2026-06-20T10:31:19Z</time>
   </trkpt>
   <trkpt lat="-3.1862160" lon="37.2799510">
    <ele>1682.0</ele>
    <time>2026-06-20T10:31:20Z</time>
   </trkpt>
   <trkpt lat="-3.1862080" lon="37.2799490">
    <ele>1682.0</ele>
    <time>2026-06-20T10:31:21Z</time>
   </trkpt>
   <trkpt lat="-3.1862010" lon="37.2799470">
    <ele>1682.1</ele>
    <time>2026-06-20T10:31:22Z</time>
   </trkpt>
   <trkpt lat="-3.1861920" lon="37.2799470">
    <ele>1682.1</ele>
    <time>2026-06-20T10:31:23Z</time>
   </trkpt>
   <trkpt lat="-3.1861860" lon="37.2799460">
    <ele>1682.1</ele>
    <time>2026-06-20T10:31:24Z</time>
   </trkpt>
   <trkpt lat="-3.1861780" lon="37.2799460">
    <ele>1682.1</ele>
    <time>2026-06-20T10:31:25Z</time>
   </trkpt>
   <trkpt lat="-3.1861700" lon="37.2799460">
    <ele>1682.1</ele>
    <time>2026-06-20T10:31:26Z</time>
   </trkpt>
   <trkpt lat="-3.1861600" lon="37.2799430">
    <ele>1682.2</ele>
    <time>2026-06-20T10:31:27Z</time>
   </trkpt>
   <trkpt lat="-3.1861550" lon="37.2799420">
    <ele>1682.2</ele>
    <time>2026-06-20T10:31:28Z</time>
   </trkpt>
   <trkpt lat="-3.1861460" lon="37.2799400">
    <ele>1682.2</ele>
    <time>2026-06-20T10:31:29Z</time>
   </trkpt>
   <trkpt lat="-3.1861370" lon="37.2799370">
    <ele>1682.3</ele>
    <time>2026-06-20T10:31:30Z</time>
   </trkpt>
   <trkpt lat="-3.1861300" lon="37.2799330">
    <ele>1682.3</ele>
    <time>2026-06-20T10:31:31Z</time>
   </trkpt>
   <trkpt lat="-3.1861250" lon="37.2799310">
    <ele>1682.3</ele>
    <time>2026-06-20T10:31:32Z</time>
   </trkpt>
   <trkpt lat="-3.1861170" lon="37.2799320">
    <ele>1682.3</ele>
    <time>2026-06-20T10:31:33Z</time>
   </trkpt>
   <trkpt lat="-3.1861090" lon="37.2799310">
    <ele>1682.3</ele>
    <time>2026-06-20T10:31:34Z</time>
   </trkpt>
   <trkpt lat="-3.1861010" lon="37.2799290">
    <ele>1682.4</ele>
    <time>2026-06-20T10:31:35Z</time>
   </trkpt>
   <trkpt lat="-3.1860900" lon="37.2799270">
    <ele>1682.4</ele>
    <time>2026-06-20T10:31:36Z</time>
   </trkpt>
   <trkpt lat="-3.1860830" lon="37.2799260">
    <ele>1682.4</ele>
    <time>2026-06-20T10:31:37Z</time>
   </trkpt>
   <trkpt lat="-3.1860790" lon="37.2799270">
    <ele>1682.4</ele>
    <time>2026-06-20T10:31:38Z</time>
   </trkpt>
   <trkpt lat="-3.1860690" lon="37.2799280">
    <ele>1682.5</ele>
    <time>2026-06-20T10:31:39Z</time>
   </trkpt>
   <trkpt lat="-3.1860630" lon="37.2799250">
    <ele>1682.5</ele>
    <time>2026-06-20T10:31:40Z</time>
   </trkpt>
   <trkpt lat="-3.1860550" lon="37.2799240">
    <ele>1682.5</ele>
    <time>2026-06-20T10:31:41Z</time>
   </trkpt>
   <trkpt lat="-3.1860490" lon="37.2799210">
    <ele>1682.5</ele>
    <time>2026-06-20T10:31:42Z</time>
   </trkpt>
   <trkpt lat="-3.1860430" lon="37.2799180">
    <ele>1682.5</ele>
    <time>2026-06-20T10:31:43Z</time>
   </trkpt>
   <trkpt lat="-3.1860340" lon="37.2799140">
    <ele>1682.6</ele>
    <time>2026-06-20T10:31:44Z</time>
   </trkpt>
   <trkpt lat="-3.1860260" lon="37.2799110">
    <ele>1682.6</ele>
    <time>2026-06-20T10:31:45Z</time>
   </trkpt>
   <trkpt lat="-3.1860200" lon="37.2799110">
    <ele>1682.6</ele>
    <time>2026-06-20T10:31:46Z</time>
   </trkpt>
   <trkpt lat="-3.1860100" lon="37.2799120">
    <ele>1682.7</ele>
    <time>2026-06-20T10:31:47Z</time>
   </trkpt>
   <trkpt lat="-3.1860040" lon="37.2799100">
    <ele>1682.7</ele>
    <time>2026-06-20T10:31:48Z</time>
   </trkpt>
   <trkpt lat="-3.1859970" lon="37.2799110">
    <ele>1682.7</ele>
    <time>2026-06-20T10:31:49Z</time>
   </trkpt>
   <trkpt lat="-3.1859850" lon="37.2799100">
    <ele>1682.7</ele>
    <time>2026-06-20T10:31:50Z</time>
   </trkpt>
   <trkpt lat="-3.1859790" lon="37.2799070">
    <ele>1682.8</ele>
    <time>2026-06-20T10:31:51Z</time>
   </trkpt>
   <trkpt lat="-3.1859680" lon="37.2799020">
    <ele>1682.8</ele>
    <time>2026-06-20T10:31:52Z</time>
   </trkpt>
   <trkpt lat="-3.1859600" lon="37.2799010">
    <ele>1682.8</ele>
    <time>2026-06-20T10:31:53Z</time>
   </trkpt>
   <trkpt lat="-3.1859510" lon="37.2798990">
    <ele>1682.9</ele>
    <time>2026-06-20T10:31:54Z</time>
   </trkpt>
   <trkpt lat="-3.1859440" lon="37.2799010">
    <ele>1682.9</ele>
    <time>2026-06-20T10:31:55Z</time>
   </trkpt>
   <trkpt lat="-3.1859360" lon="37.2799020">
    <ele>1682.9</ele>
    <time>2026-06-20T10:31:56Z</time>
   </trkpt>
   <trkpt lat="-3.1859260" lon="37.2799010">
    <ele>1682.9</ele>
    <time>2026-06-20T10:31:57Z</time>
   </trkpt>
   <trkpt lat="-3.1859210" lon="37.2799000">
    <ele>1683.0</ele>
    <time>2026-06-20T10:31:58Z</time>
   </trkpt>
   <trkpt lat="-3.1859130" lon="37.2798990">
    <ele>1683.0</ele>
    <time>2026-06-20T10:31:59Z</time>
   </trkpt>
   <trkpt lat="-3.1859050" lon="37.2799000">
    <ele>1683.0</ele>
    <time>2026-06-20T10:32:00Z</time>
   </trkpt>
   <trkpt lat="-3.1858970" lon="37.2798990">
    <ele>1683.0</ele>
    <time>2026-06-20T10:32:01Z</time>
   </trkpt>
   <trkpt lat="-3.1858870" lon="37.2798900">
    <ele>1683.1</ele>
    <time>2026-06-20T10:32:02Z</time>
   </trkpt>
   <trkpt lat="-3.1858770" lon="37.2798880">
    <ele>1683.1</ele>
    <time>2026-06-20T10:32:03Z</time>
   </trkpt>
   <trkpt lat="-3.1858710" lon="37.2798850">
    <ele>1683.1</ele>
    <time>2026-06-20T10:32:04Z</time>
   </trkpt>
   <trkpt lat="-3.1858630" lon="37.2798830">
    <ele>1683.2</ele>
    <time>2026-06-20T10:32:05Z</time>
   </trkpt>
   <trkpt lat="-3.1858560" lon="37.2798830">
    <ele>1683.2</ele>
    <time>2026-06-20T10:32:06Z</time>
   </trkpt>
   <trkpt lat="-3.1858500" lon="37.2798830">
    <ele>1683.2</ele>
    <time>2026-06-20T10:32:07Z</time>
   </trkpt>
   <trkpt lat="-3.1858420" lon="37.2798810">
    <ele>1683.2</ele>
    <time>2026-06-20T10:32:08Z</time>
   </trkpt>
   <trkpt lat="-3.1858340" lon="37.2798830">
    <ele>1683.2</ele>
    <time>2026-06-20T10:32:09Z</time>
   </trkpt>
   <trkpt lat="-3.1858260" lon="37.2798820">
    <ele>1683.3</ele>
    <time>2026-06-20T10:32:10Z</time>
   </trkpt>
   <trkpt lat="-3.1858210" lon="37.2798810">
    <ele>1683.3</ele>
    <time>2026-06-20T10:32:11Z</time>
   </trkpt>
   <trkpt lat="-3.1858150" lon="37.2798790">
    <ele>1683.3</ele>
    <time>2026-06-20T10:32:12Z</time>
   </trkpt>
   <trkpt lat="-3.1858060" lon="37.2798800">
    <ele>1683.3</ele>
    <time>2026-06-20T10:32:13Z</time>
   </trkpt>
   <trkpt lat="-3.1857970" lon="37.2798800">
    <ele>1683.4</ele>
    <time>2026-06-20T10:32:14Z</time>
   </trkpt>
   <trkpt lat="-3.1857890" lon="37.2798780">
    <ele>1683.4</ele>
    <time>2026-06-20T10:32:15Z</time>
   </trkpt>
   <trkpt lat="-3.1857840" lon="37.2798780">
    <ele>1683.4</ele>
    <time>2026-06-20T10:32:16Z</time>
   </trkpt>
   <trkpt lat="-3.1857750" lon="37.2798770">
    <ele>1683.4</ele>
    <time>2026-06-20T10:32:17Z</time>
   </trkpt>
   <trkpt lat="-3.1857680" lon="37.2798790">
    <ele>1683.4</ele>
    <time>2026-06-20T10:32:18Z</time>
   </trkpt>
   <trkpt lat="-3.1857580" lon="37.2798760">
    <ele>1683.5</ele>
    <time>2026-06-20T10:32:19Z</time>
   </trkpt>
   <trkpt lat="-3.1857510" lon="37.2798750">
    <ele>1683.5</ele>
    <time>2026-06-20T10:32:20Z</time>
   </trkpt>
   <trkpt lat="-3.1857450" lon="37.2798730">
    <ele>1683.5</ele>
    <time>2026-06-20T10:32:21Z</time>
   </trkpt>
   <trkpt lat="-3.1857340" lon="37.2798720">
    <ele>1683.5</ele>
    <time>2026-06-20T10:32:22Z</time>
   </trkpt>
   <trkpt lat="-3.1857260" lon="37.2798690">
    <ele>1683.6</ele>
    <time>2026-06-20T10:32:23Z</time>
   </trkpt>
   <trkpt lat="-3.1857160" lon="37.2798650">
    <ele>1683.6</ele>
    <time>2026-06-20T10:32:24Z</time>
   </trkpt>
   <trkpt lat="-3.1857100" lon="37.2798610">
    <ele>1683.6</ele>
    <time>2026-06-20T10:32:25Z</time>
   </trkpt>
   <trkpt lat="-3.1856960" lon="37.2798570">
    <ele>1683.7</ele>
    <time>2026-06-20T10:32:26Z</time>
   </trkpt>
   <trkpt lat="-3.1856870" lon="37.2798570">
    <ele>1683.7</ele>
    <time>2026-06-20T10:32:27Z</time>
   </trkpt>
   <trkpt lat="-3.1856800" lon="37.2798560">
    <ele>1683.7</ele>
    <time>2026-06-20T10:32:28Z</time>
   </trkpt>
   <trkpt lat="-3.1856710" lon="37.2798550">
    <ele>1683.7</ele>
    <time>2026-06-20T10:32:29Z</time>
   </trkpt>
   <trkpt lat="-3.1856640" lon="37.2798520">
    <ele>1683.8</ele>
    <time>2026-06-20T10:32:30Z</time>
   </trkpt>
   <trkpt lat="-3.1856540" lon="37.2798460">
    <ele>1683.8</ele>
    <time>2026-06-20T10:32:31Z</time>
   </trkpt>
   <trkpt lat="-3.1856460" lon="37.2798470">
    <ele>1683.8</ele>
    <time>2026-06-20T10:32:32Z</time>
   </trkpt>
   <trkpt lat="-3.1856430" lon="37.2798470">
    <ele>1683.8</ele>
    <time>2026-06-20T10:32:33Z</time>
   </trkpt>
   <trkpt lat="-3.1856380" lon="37.2798470">
    <ele>1683.9</ele>
    <time>2026-06-20T10:32:34Z</time>
   </trkpt>
   <trkpt lat="-3.1856290" lon="37.2798440">
    <ele>1683.9</ele>
    <time>2026-06-20T10:32:35Z</time>
   </trkpt>
   <trkpt lat="-3.1856250" lon="37.2798450">
    <ele>1683.9</ele>
    <time>2026-06-20T10:32:36Z</time>
   </trkpt>
   <trkpt lat="-3.1856230" lon="37.2798410">
    <ele>1683.9</ele>
    <time>2026-06-20T10:32:37Z</time>
   </trkpt>
   <trkpt lat="-3.1856180" lon="37.2798390">
    <ele>1683.9</ele>
    <time>2026-06-20T10:32:38Z</time>
   </trkpt>
   <trkpt lat="-3.1856120" lon="37.2798330">
    <ele>1684.0</ele>
    <time>2026-06-20T10:32:39Z</time>
   </trkpt>
   <trkpt lat="-3.1856100" lon="37.2798330">
    <ele>1684.0</ele>
    <time>2026-06-20T10:32:40Z</time>
   </trkpt>
   <trkpt lat="-3.1856020" lon="37.2798290">
    <ele>1684.0</ele>
    <time>2026-06-20T10:32:41Z</time>
   </trkpt>
   <trkpt lat="-3.1855960" lon="37.2798270">
    <ele>1684.0</ele>
    <time>2026-06-20T10:32:42Z</time>
   </trkpt>
   <trkpt lat="-3.1855890" lon="37.2798310">
    <ele>1684.0</ele>
    <time>2026-06-20T10:32:43Z</time>
   </trkpt>
   <trkpt lat="-3.1855820" lon="37.2798250">
    <ele>1684.1</ele>
    <time>2026-06-20T10:32:44Z</time>
   </trkpt>
   <trkpt lat="-3.1855720" lon="37.2798210">
    <ele>1684.1</ele>
    <time>2026-06-20T10:32:45Z</time>
   </trkpt>
   <trkpt lat="-3.1855670" lon="37.2798190">
    <ele>1684.1</ele>
    <time>2026-06-20T10:32:46Z</time>
   </trkpt>
   <trkpt lat="-3.1855600" lon="37.2798180">
    <ele>1684.2</ele>
    <time>2026-06-20T10:32:47Z</time>
   </trkpt>
   <trkpt lat="-3.1855540" lon="37.2798170">
    <ele>1684.2</ele>
    <time>2026-06-20T10:32:48Z</time>
   </trkpt>
   <trkpt lat="-3.1855450" lon="37.2798140">
    <ele>1684.2</ele>
    <time>2026-06-20T10:32:49Z</time>
   </trkpt>
   <trkpt lat="-3.1855390" lon="37.2798080">
    <ele>1684.3</ele>
    <time>2026-06-20T10:32:50Z</time>
   </trkpt>
   <trkpt lat="-3.1855260" lon="37.2798020">
    <ele>1684.3</ele>
    <time>2026-06-20T10:32:51Z</time>
   </trkpt>
   <trkpt lat="-3.1855170" lon="37.2798010">
    <ele>1684.3</ele>
    <time>2026-06-20T10:32:52Z</time>
   </trkpt>
   <trkpt lat="-3.1855060" lon="37.2797960">
    <ele>1684.4</ele>
    <time>2026-06-20T10:32:53Z</time>
   </trkpt>
   <trkpt lat="-3.1854980" lon="37.2797930">
    <ele>1684.4</ele>
    <time>2026-06-20T10:32:54Z</time>
   </trkpt>
   <trkpt lat="-3.1854910" lon="37.2797890">
    <ele>1684.4</ele>
    <time>2026-06-20T10:32:55Z</time>
   </trkpt>
   <trkpt lat="-3.1854830" lon="37.2797860">
    <ele>1684.5</ele>
    <time>2026-06-20T10:32:56Z</time>
   </trkpt>
   <trkpt lat="-3.1854730" lon="37.2797810">
    <ele>1684.5</ele>
    <time>2026-06-20T10:32:57Z</time>
   </trkpt>
   <trkpt lat="-3.1854620" lon="37.2797790">
    <ele>1684.6</ele>
    <time>2026-06-20T10:32:58Z</time>
   </trkpt>
   <trkpt lat="-3.1854570" lon="37.2797750">
    <ele>1684.6</ele>
    <time>2026-06-20T10:32:59Z</time>
   </trkpt>
   <trkpt lat="-3.1854500" lon="37.2797710">
    <ele>1684.6</ele>
    <time>2026-06-20T10:33:00Z</time>
   </trkpt>
   <trkpt lat="-3.1854440" lon="37.2797670">
    <ele>1684.6</ele>
    <time>2026-06-20T10:33:01Z</time>
   </trkpt>
   <trkpt lat="-3.1854370" lon="37.2797640">
    <ele>1684.7</ele>
    <time>2026-06-20T10:33:02Z</time>
   </trkpt>
   <trkpt lat="-3.1854290" lon="37.2797610">
    <ele>1684.7</ele>
    <time>2026-06-20T10:33:03Z</time>
   </trkpt>
   <trkpt lat="-3.1854180" lon="37.2797570">
    <ele>1684.7</ele>
    <time>2026-06-20T10:33:04Z</time>
   </trkpt>
   <trkpt lat="-3.1854070" lon="37.2797530">
    <ele>1684.8</ele>
    <time>2026-06-20T10:33:05Z</time>
   </trkpt>
   <trkpt lat="-3.1854010" lon="37.2797520">
    <ele>1684.8</ele>
    <time>2026-06-20T10:33:06Z</time>
   </trkpt>
   <trkpt lat="-3.1853950" lon="37.2797480">
    <ele>1684.8</ele>
    <time>2026-06-20T10:33:07Z</time>
   </trkpt>
   <trkpt lat="-3.1853880" lon="37.2797470">
    <ele>1684.9</ele>
    <time>2026-06-20T10:33:08Z</time>
   </trkpt>
   <trkpt lat="-3.1853790" lon="37.2797420">
    <ele>1684.9</ele>
    <time>2026-06-20T10:33:09Z</time>
   </trkpt>
   <trkpt lat="-3.1853730" lon="37.2797400">
    <ele>1684.9</ele>
    <time>2026-06-20T10:33:10Z</time>
   </trkpt>
   <trkpt lat="-3.1853670" lon="37.2797300">
    <ele>1685.0</ele>
    <time>2026-06-20T10:33:11Z</time>
   </trkpt>
   <trkpt lat="-3.1853580" lon="37.2797230">
    <ele>1685.0</ele>
    <time>2026-06-20T10:33:12Z</time>
   </trkpt>
   <trkpt lat="-3.1853530" lon="37.2797200">
    <ele>1685.1</ele>
    <time>2026-06-20T10:33:13Z</time>
   </trkpt>
   <trkpt lat="-3.1853470" lon="37.2797130">
    <ele>1685.1</ele>
    <time>2026-06-20T10:33:14Z</time>
   </trkpt>
   <trkpt lat="-3.1853390" lon="37.2797090">
    <ele>1685.1</ele>
    <time>2026-06-20T10:33:15Z</time>
   </trkpt>
   <trkpt lat="-3.1853320" lon="37.2797020">
    <ele>1685.2</ele>
    <time>2026-06-20T10:33:16Z</time>
   </trkpt>
   <trkpt lat="-3.1853270" lon="37.2796970">
    <ele>1685.2</ele>
    <time>2026-06-20T10:33:17Z</time>
   </trkpt>
   <trkpt lat="-3.1853210" lon="37.2796880">
    <ele>1685.3</ele>
    <time>2026-06-20T10:33:18Z</time>
   </trkpt>
   <trkpt lat="-3.1853150" lon="37.2796820">
    <ele>1685.3</ele>
    <time>2026-06-20T10:33:19Z</time>
   </trkpt>
   <trkpt lat="-3.1853100" lon="37.2796760">
    <ele>1685.3</ele>
    <time>2026-06-20T10:33:20Z</time>
   </trkpt>
   <trkpt lat="-3.1853060" lon="37.2796720">
    <ele>1685.3</ele>
    <time>2026-06-20T10:33:21Z</time>
   </trkpt>
   <trkpt lat="-3.1853020" lon="37.2796630">
    <ele>1685.4</ele>
    <time>2026-06-20T10:33:22Z</time>
   </trkpt>
   <trkpt lat="-3.1852960" lon="37.2796520">
    <ele>1685.4</ele>
    <time>2026-06-20T10:33:23Z</time>
   </trkpt>
   <trkpt lat="-3.1852920" lon="37.2796430">
    <ele>1685.5</ele>
    <time>2026-06-20T10:33:24Z</time>
   </trkpt>
   <trkpt lat="-3.1852880" lon="37.2796370">
    <ele>1685.5</ele>
    <time>2026-06-20T10:33:25Z</time>
   </trkpt>
   <trkpt lat="-3.1852840" lon="37.2796290">
    <ele>1685.6</ele>
    <time>2026-06-20T10:33:26Z</time>
   </trkpt>
   <trkpt lat="-3.1852830" lon="37.2796250">
    <ele>1685.6</ele>
    <time>2026-06-20T10:33:27Z</time>
   </trkpt>
   <trkpt lat="-3.1852810" lon="37.2796220">
    <ele>1685.6</ele>
    <time>2026-06-20T10:33:28Z</time>
   </trkpt>
   <trkpt lat="-3.1852850" lon="37.2796180">
    <ele>1685.6</ele>
    <time>2026-06-20T10:33:29Z</time>
   </trkpt>
   <trkpt lat="-3.1852810" lon="37.2796200">
    <ele>1685.6</ele>
    <time>2026-06-20T10:33:30Z</time>
   </trkpt>
   <trkpt lat="-3.1852820" lon="37.2796210">
    <ele>1685.7</ele>
    <time>2026-06-20T10:33:31Z</time>
   </trkpt>
   <trkpt lat="-3.1852810" lon="37.2796170">
    <ele>1685.7</ele>
    <time>2026-06-20T10:33:32Z</time>
   </trkpt>
   <trkpt lat="-3.1852780" lon="37.2796130">
    <ele>1685.7</ele>
    <time>2026-06-20T10:33:33Z</time>
   </trkpt>
   <trkpt lat="-3.1852740" lon="37.2796080">
    <ele>1685.7</ele>
    <time>2026-06-20T10:33:34Z</time>
   </trkpt>
   <trkpt lat="-3.1852680" lon="37.2796010">
    <ele>1685.8</ele>
    <time>2026-06-20T10:33:35Z</time>
   </trkpt>
   <trkpt lat="-3.1852660" lon="37.2795930">
    <ele>1685.8</ele>
    <time>2026-06-20T10:33:36Z</time>
   </trkpt>
   <trkpt lat="-3.1852620" lon="37.2795840">
    <ele>1685.9</ele>
    <time>2026-06-20T10:33:37Z</time>
   </trkpt>
   <trkpt lat="-3.1852570" lon="37.2795760">
    <ele>1685.9</ele>
    <time>2026-06-20T10:33:38Z</time>
   </trkpt>
   <trkpt lat="-3.1852520" lon="37.2795670">
    <ele>1685.9</ele>
    <time>2026-06-20T10:33:39Z</time>
   </trkpt>
   <trkpt lat="-3.1852490" lon="37.2795550">
    <ele>1686.0</ele>
    <time>2026-06-20T10:33:40Z</time>
   </trkpt>
   <trkpt lat="-3.1852450" lon="37.2795480">
    <ele>1686.1</ele>
    <time>2026-06-20T10:33:41Z</time>
   </trkpt>
   <trkpt lat="-3.1852410" lon="37.2795450">
    <ele>1686.1</ele>
    <time>2026-06-20T10:33:42Z</time>
   </trkpt>
   <trkpt lat="-3.1852350" lon="37.2795370">
    <ele>1686.1</ele>
    <time>2026-06-20T10:33:43Z</time>
   </trkpt>
   <trkpt lat="-3.1852300" lon="37.2795320">
    <ele>1686.2</ele>
    <time>2026-06-20T10:33:44Z</time>
   </trkpt>
   <trkpt lat="-3.1852250" lon="37.2795300">
    <ele>1686.2</ele>
    <time>2026-06-20T10:33:45Z</time>
   </trkpt>
   <trkpt lat="-3.1852180" lon="37.2795250">
    <ele>1686.2</ele>
    <time>2026-06-20T10:33:46Z</time>
   </trkpt>
   <trkpt lat="-3.1852140" lon="37.2795200">
    <ele>1686.3</ele>
    <time>2026-06-20T10:33:47Z</time>
   </trkpt>
   <trkpt lat="-3.1852130" lon="37.2795120">
    <ele>1686.3</ele>
    <time>2026-06-20T10:33:48Z</time>
   </trkpt>
   <trkpt lat="-3.1852120" lon="37.2795080">
    <ele>1686.3</ele>
    <time>2026-06-20T10:33:49Z</time>
   </trkpt>
   <trkpt lat="-3.1852100" lon="37.2795020">
    <ele>1686.4</ele>
    <time>2026-06-20T10:33:50Z</time>
   </trkpt>
   <trkpt lat="-3.1852060" lon="37.2794900">
    <ele>1686.4</ele>
    <time>2026-06-20T10:33:51Z</time>
   </trkpt>
   <trkpt lat="-3.1852040" lon="37.2794810">
    <ele>1686.5</ele>
    <time>2026-06-20T10:33:52Z</time>
   </trkpt>
   <trkpt lat="-3.1852030" lon="37.2794730">
    <ele>1686.5</ele>
    <time>2026-06-20T10:33:53Z</time>
   </trkpt>
   <trkpt lat="-3.1852010" lon="37.2794680">
    <ele>1686.6</ele>
    <time>2026-06-20T10:33:54Z</time>
   </trkpt>
   <trkpt lat="-3.1851950" lon="37.2794620">
    <ele>1686.6</ele>
    <time>2026-06-20T10:33:55Z</time>
   </trkpt>
   <trkpt lat="-3.1851930" lon="37.2794510">
    <ele>1686.7</ele>
    <time>2026-06-20T10:33:56Z</time>
   </trkpt>
   <trkpt lat="-3.1851920" lon="37.2794490">
    <ele>1686.7</ele>
    <time>2026-06-20T10:33:57Z</time>
   </trkpt>
   <trkpt lat="-3.1851900" lon="37.2794440">
    <ele>1686.7</ele>
    <time>2026-06-20T10:33:58Z</time>
   </trkpt>
   <trkpt lat="-3.1851840" lon="37.2794340">
    <ele>1686.8</ele>
    <time>2026-06-20T10:33:59Z</time>
   </trkpt>
   <trkpt lat="-3.1851790" lon="37.2794270">
    <ele>1686.9</ele>
    <time>2026-06-20T10:34:00Z</time>
   </trkpt>
   <trkpt lat="-3.1851760" lon="37.2794250">
    <ele>1686.9</ele>
    <time>2026-06-20T10:34:01Z</time>
   </trkpt>
   <trkpt lat="-3.1851730" lon="37.2794170">
    <ele>1686.9</ele>
    <time>2026-06-20T10:34:02Z</time>
   </trkpt>
   <trkpt lat="-3.1851710" lon="37.2794090">
    <ele>1687.0</ele>
    <time>2026-06-20T10:34:03Z</time>
   </trkpt>
   <trkpt lat="-3.1851680" lon="37.2793980">
    <ele>1687.1</ele>
    <time>2026-06-20T10:34:04Z</time>
   </trkpt>
   <trkpt lat="-3.1851660" lon="37.2793900">
    <ele>1687.1</ele>
    <time>2026-06-20T10:34:05Z</time>
   </trkpt>
   <trkpt lat="-3.1851620" lon="37.2793820">
    <ele>1687.2</ele>
    <time>2026-06-20T10:34:06Z</time>
   </trkpt>
   <trkpt lat="-3.1851580" lon="37.2793780">
    <ele>1687.2</ele>
    <time>2026-06-20T10:34:07Z</time>
   </trkpt>
   <trkpt lat="-3.1851540" lon="37.2793700">
    <ele>1687.2</ele>
    <time>2026-06-20T10:34:08Z</time>
   </trkpt>
   <trkpt lat="-3.1851500" lon="37.2793570">
    <ele>1687.3</ele>
    <time>2026-06-20T10:34:09Z</time>
   </trkpt>
   <trkpt lat="-3.1851470" lon="37.2793540">
    <ele>1687.4</ele>
    <time>2026-06-20T10:34:10Z</time>
   </trkpt>
   <trkpt lat="-3.1851410" lon="37.2793490">
    <ele>1687.4</ele>
    <time>2026-06-20T10:34:11Z</time>
   </trkpt>
   <trkpt lat="-3.1851420" lon="37.2793470">
    <ele>1687.4</ele>
    <time>2026-06-20T10:34:12Z</time>
   </trkpt>
   <trkpt lat="-3.1851410" lon="37.2793360">
    <ele>1687.5</ele>
    <time>2026-06-20T10:34:13Z</time>
   </trkpt>
   <trkpt lat="-3.1851370" lon="37.2793280">
    <ele>1687.5</ele>
    <time>2026-06-20T10:34:14Z</time>
   </trkpt>
   <trkpt lat="-3.1851330" lon="37.2793220">
    <ele>1687.6</ele>
    <time>2026-06-20T10:34:15Z</time>
   </trkpt>
   <trkpt lat="-3.1851300" lon="37.2793140">
    <ele>1687.6</ele>
    <time>2026-06-20T10:34:16Z</time>
   </trkpt>
   <trkpt lat="-3.1851280" lon="37.2793090">
    <ele>1687.7</ele>
    <time>2026-06-20T10:34:17Z</time>
   </trkpt>
   <trkpt lat="-3.1851240" lon="37.2792980">
    <ele>1687.7</ele>
    <time>2026-06-20T10:34:18Z</time>
   </trkpt>
   <trkpt lat="-3.1851210" lon="37.2792940">
    <ele>1687.8</ele>
    <time>2026-06-20T10:34:19Z</time>
   </trkpt>
   <trkpt lat="-3.1851190" lon="37.2792850">
    <ele>1687.8</ele>
    <time>2026-06-20T10:34:20Z</time>
   </trkpt>
   <trkpt lat="-3.1851160" lon="37.2792790">
    <ele>1687.9</ele>
    <time>2026-06-20T10:34:21Z</time>
   </trkpt>
   <trkpt lat="-3.1851140" lon="37.2792730">
    <ele>1687.9</ele>
    <time>2026-06-20T10:34:22Z</time>
   </trkpt>
   <trkpt lat="-3.1851090" lon="37.2792650">
    <ele>1688.0</ele>
    <time>2026-06-20T10:34:23Z</time>
   </trkpt>
   <trkpt lat="-3.1851040" lon="37.2792570">
    <ele>1688.0</ele>
    <time>2026-06-20T10:34:24Z</time>
   </trkpt>
   <trkpt lat="-3.1851010" lon="37.2792510">
    <ele>1688.1</ele>
    <time>2026-06-20T10:34:25Z</time>
   </trkpt>
   <trkpt lat="-3.1850980" lon="37.2792460">
    <ele>1688.1</ele>
    <time>2026-06-20T10:34:26Z</time>
   </trkpt>
   <trkpt lat="-3.1850930" lon="37.2792350">
    <ele>1688.2</ele>
    <time>2026-06-20T10:34:27Z</time>
   </trkpt>
   <trkpt lat="-3.1850910" lon="37.2792320">
    <ele>1688.2</ele>
    <time>2026-06-20T10:34:28Z</time>
   </trkpt>
   <trkpt lat="-3.1850880" lon="37.2792210">
    <ele>1688.3</ele>
    <time>2026-06-20T10:34:29Z</time>
   </trkpt>
   <trkpt lat="-3.1850920" lon="37.2792220">
    <ele>1688.3</ele>
    <time>2026-06-20T10:34:30Z</time>
   </trkpt>
   <trkpt lat="-3.1850890" lon="37.2792180">
    <ele>1688.4</ele>
    <time>2026-06-20T10:34:31Z</time>
   </trkpt>
   <trkpt lat="-3.1850840" lon="37.2792060">
    <ele>1688.5</ele>
    <time>2026-06-20T10:34:32Z</time>
   </trkpt>
   <trkpt lat="-3.1850790" lon="37.2791970">
    <ele>1688.5</ele>
    <time>2026-06-20T10:34:33Z</time>
   </trkpt>
   <trkpt lat="-3.1850770" lon="37.2791880">
    <ele>1688.6</ele>
    <time>2026-06-20T10:34:34Z</time>
   </trkpt>
   <trkpt lat="-3.1850750" lon="37.2791830">
    <ele>1688.7</ele>
    <time>2026-06-20T10:34:35Z</time>
   </trkpt>
   <trkpt lat="-3.1850730" lon="37.2791790">
    <ele>1688.7</ele>
    <time>2026-06-20T10:34:36Z</time>
   </trkpt>
   <trkpt lat="-3.1850680" lon="37.2791700">
    <ele>1688.8</ele>
    <time>2026-06-20T10:34:37Z</time>
   </trkpt>
   <trkpt lat="-3.1850650" lon="37.2791600">
    <ele>1688.9</ele>
    <time>2026-06-20T10:34:38Z</time>
   </trkpt>
   <trkpt lat="-3.1850620" lon="37.2791530">
    <ele>1688.9</ele>
    <time>2026-06-20T10:34:39Z</time>
   </trkpt>
   <trkpt lat="-3.1850620" lon="37.2791410">
    <ele>1689.0</ele>
    <time>2026-06-20T10:34:40Z</time>
   </trkpt>
   <trkpt lat="-3.1850590" lon="37.2791320">
    <ele>1689.1</ele>
    <time>2026-06-20T10:34:41Z</time>
   </trkpt>
   <trkpt lat="-3.1850540" lon="37.2791240">
    <ele>1689.2</ele>
    <time>2026-06-20T10:34:42Z</time>
   </trkpt>
   <trkpt lat="-3.1850500" lon="37.2791200">
    <ele>1689.2</ele>
    <time>2026-06-20T10:34:43Z</time>
   </trkpt>
   <trkpt lat="-3.1850440" lon="37.2791170">
    <ele>1689.3</ele>
    <time>2026-06-20T10:34:44Z</time>
   </trkpt>
   <trkpt lat="-3.1850420" lon="37.2791090">
    <ele>1689.4</ele>
    <time>2026-06-20T10:34:45Z</time>
   </trkpt>
   <trkpt lat="-3.1850390" lon="37.2790980">
    <ele>1689.5</ele>
    <time>2026-06-20T10:34:46Z</time>
   </trkpt>
   <trkpt lat="-3.1850340" lon="37.2790860">
    <ele>1689.6</ele>
    <time>2026-06-20T10:34:47Z</time>
   </trkpt>
   <trkpt lat="-3.1850300" lon="37.2790810">
    <ele>1689.7</ele>
    <time>2026-06-20T10:34:48Z</time>
   </trkpt>
   <trkpt lat="-3.1850280" lon="37.2790740">
    <ele>1689.8</ele>
    <time>2026-06-20T10:34:49Z</time>
   </trkpt>
   <trkpt lat="-3.1850250" lon="37.2790710">
    <ele>1689.8</ele>
    <time>2026-06-20T10:34:50Z</time>
   </trkpt>
   <trkpt lat="-3.1850190" lon="37.2790650">
    <ele>1689.9</ele>
    <time>2026-06-20T10:34:51Z</time>
   </trkpt>
   <trkpt lat="-3.1850150" lon="37.2790600">
    <ele>1689.9</ele>
    <time>2026-06-20T10:34:52Z</time>
   </trkpt>
   <trkpt lat="-3.1850110" lon="37.2790520">
    <ele>1690.0</ele>
    <time>2026-06-20T10:34:53Z</time>
   </trkpt>
   <trkpt lat="-3.1850050" lon="37.2790440">
    <ele>1690.1</ele>
    <time>2026-06-20T10:34:54Z</time>
   </trkpt>
   <trkpt lat="-3.1850030" lon="37.2790400">
    <ele>1690.2</ele>
    <time>2026-06-20T10:34:55Z</time>
   </trkpt>
   <trkpt lat="-3.1849990" lon="37.2790380">
    <ele>1690.2</ele>
    <time>2026-06-20T10:34:56Z</time>
   </trkpt>
   <trkpt lat="-3.1849930" lon="37.2790290">
    <ele>1690.3</ele>
    <time>2026-06-20T10:34:57Z</time>
   </trkpt>
   <trkpt lat="-3.1849900" lon="37.2790220">
    <ele>1690.4</ele>
    <time>2026-06-20T10:34:58Z</time>
   </trkpt>
   <trkpt lat="-3.1849880" lon="37.2790170">
    <ele>1690.5</ele>
    <time>2026-06-20T10:34:59Z</time>
   </trkpt>
   <trkpt lat="-3.1849820" lon="37.2790130">
    <ele>1690.5</ele>
    <time>2026-06-20T10:35:00Z</time>
   </trkpt>
   <trkpt lat="-3.1849780" lon="37.2790050">
    <ele>1690.6</ele>
    <time>2026-06-20T10:35:01Z</time>
   </trkpt>
   <trkpt lat="-3.1849780" lon="37.2789990">
    <ele>1690.7</ele>
    <time>2026-06-20T10:35:02Z</time>
   </trkpt>
   <trkpt lat="-3.1849770" lon="37.2789930">
    <ele>1690.8</ele>
    <time>2026-06-20T10:35:03Z</time>
   </trkpt>
   <trkpt lat="-3.1849770" lon="37.2789870">
    <ele>1690.8</ele>
    <time>2026-06-20T10:35:04Z</time>
   </trkpt>
   <trkpt lat="-3.1849710" lon="37.2789850">
    <ele>1690.9</ele>
    <time>2026-06-20T10:35:05Z</time>
   </trkpt>
   <trkpt lat="-3.1849700" lon="37.2789770">
    <ele>1691.0</ele>
    <time>2026-06-20T10:35:06Z</time>
   </trkpt>
   <trkpt lat="-3.1849690" lon="37.2789670">
    <ele>1691.1</ele>
    <time>2026-06-20T10:35:07Z</time>
   </trkpt>
   <trkpt lat="-3.1849660" lon="37.2789650">
    <ele>1691.1</ele>
    <time>2026-06-20T10:35:08Z</time>
   </trkpt>
   <trkpt lat="-3.1849620" lon="37.2789610">
    <ele>1691.2</ele>
    <time>2026-06-20T10:35:09Z</time>
   </trkpt>
   <trkpt lat="-3.1849600" lon="37.2789580">
    <ele>1691.2</ele>
    <time>2026-06-20T10:35:10Z</time>
   </trkpt>
   <trkpt lat="-3.1849590" lon="37.2789510">
    <ele>1691.3</ele>
    <time>2026-06-20T10:35:11Z</time>
   </trkpt>
   <trkpt lat="-3.1849550" lon="37.2789500">
    <ele>1691.3</ele>
    <time>2026-06-20T10:35:12Z</time>
   </trkpt>
   <trkpt lat="-3.1849500" lon="37.2789460">
    <ele>1691.4</ele>
    <time>2026-06-20T10:35:13Z</time>
   </trkpt>
   <trkpt lat="-3.1849460" lon="37.2789410">
    <ele>1691.5</ele>
    <time>2026-06-20T10:35:14Z</time>
   </trkpt>
   <trkpt lat="-3.1849440" lon="37.2789300">
    <ele>1691.6</ele>
    <time>2026-06-20T10:35:15Z</time>
   </trkpt>
   <trkpt lat="-3.1849400" lon="37.2789230">
    <ele>1691.7</ele>
    <time>2026-06-20T10:35:16Z</time>
   </trkpt>
   <trkpt lat="-3.1849370" lon="37.2789160">
    <ele>1691.8</ele>
    <time>2026-06-20T10:35:17Z</time>
   </trkpt>
   <trkpt lat="-3.1849350" lon="37.2789100">
    <ele>1691.9</ele>
    <time>2026-06-20T10:35:18Z</time>
   </trkpt>
   <trkpt lat="-3.1849320" lon="37.2789030">
    <ele>1692.0</ele>
    <time>2026-06-20T10:35:19Z</time>
   </trkpt>
   <trkpt lat="-3.1849220" lon="37.2788940">
    <ele>1692.1</ele>
    <time>2026-06-20T10:35:20Z</time>
   </trkpt>
   <trkpt lat="-3.1849190" lon="37.2788880">
    <ele>1692.2</ele>
    <time>2026-06-20T10:35:21Z</time>
   </trkpt>
   <trkpt lat="-3.1849140" lon="37.2788800">
    <ele>1692.3</ele>
    <time>2026-06-20T10:35:22Z</time>
   </trkpt>
   <trkpt lat="-3.1849110" lon="37.2788730">
    <ele>1692.4</ele>
    <time>2026-06-20T10:35:23Z</time>
   </trkpt>
   <trkpt lat="-3.1849060" lon="37.2788690">
    <ele>1692.5</ele>
    <time>2026-06-20T10:35:24Z</time>
   </trkpt>
   <trkpt lat="-3.1849020" lon="37.2788580">
    <ele>1692.6</ele>
    <time>2026-06-20T10:35:25Z</time>
   </trkpt>
   <trkpt lat="-3.1849000" lon="37.2788570">
    <ele>1692.6</ele>
    <time>2026-06-20T10:35:26Z</time>
   </trkpt>
   <trkpt lat="-3.1848970" lon="37.2788540">
    <ele>1692.7</ele>
    <time>2026-06-20T10:35:27Z</time>
   </trkpt>
   <trkpt lat="-3.1848930" lon="37.2788460">
    <ele>1692.8</ele>
    <time>2026-06-20T10:35:28Z</time>
   </trkpt>
   <trkpt lat="-3.1848900" lon="37.2788470">
    <ele>1692.8</ele>
    <time>2026-06-20T10:35:29Z</time>
   </trkpt>
   <trkpt lat="-3.1848890" lon="37.2788410">
    <ele>1692.9</ele>
    <time>2026-06-20T10:35:30Z</time>
   </trkpt>
   <trkpt lat="-3.1848840" lon="37.2788310">
    <ele>1693.0</ele>
    <time>2026-06-20T10:35:31Z</time>
   </trkpt>
   <trkpt lat="-3.1848850" lon="37.2788290">
    <ele>1693.0</ele>
    <time>2026-06-20T10:35:32Z</time>
   </trkpt>
   <trkpt lat="-3.1848830" lon="37.2788260">
    <ele>1693.1</ele>
    <time>2026-06-20T10:35:33Z</time>
   </trkpt>
   <trkpt lat="-3.1848840" lon="37.2788220">
    <ele>1693.1</ele>
    <time>2026-06-20T10:35:34Z</time>
   </trkpt>
   <trkpt lat="-3.1848810" lon="37.2788140">
    <ele>1693.2</ele>
    <time>2026-06-20T10:35:35Z</time>
   </trkpt>
   <trkpt lat="-3.1848790" lon="37.2788060">
    <ele>1693.3</ele>
    <time>2026-06-20T10:35:36Z</time>
   </trkpt>
   <trkpt lat="-3.1848710" lon="37.2787970">
    <ele>1693.5</ele>
    <time>2026-06-20T10:35:37Z</time>
   </trkpt>
   <trkpt lat="-3.1848650" lon="37.2787950">
    <ele>1693.5</ele>
    <time>2026-06-20T10:35:38Z</time>
   </trkpt>
   <trkpt lat="-3.1848560" lon="37.2787870">
    <ele>1693.7</ele>
    <time>2026-06-20T10:35:39Z</time>
   </trkpt>
   <trkpt lat="-3.1848510" lon="37.2787810">
    <ele>1693.8</ele>
    <time>2026-06-20T10:35:40Z</time>
   </trkpt>
   <trkpt lat="-3.1848440" lon="37.2787740">
    <ele>1693.9</ele>
    <time>2026-06-20T10:35:41Z</time>
   </trkpt>
   <trkpt lat="-3.1848310" lon="37.2787680">
    <ele>1694.1</ele>
    <time>2026-06-20T10:35:42Z</time>
   </trkpt>
   <trkpt lat="-3.1848290" lon="37.2787610">
    <ele>1694.2</ele>
    <time>2026-06-20T10:35:44Z</time>
   </trkpt>
   <trkpt lat="-3.1848250" lon="37.2787530">
    <ele>1694.3</ele>
    <time>2026-06-20T10:35:45Z</time>
   </trkpt>
   <trkpt lat="-3.1848200" lon="37.2787470">
    <ele>1694.4</ele>
    <time>2026-06-20T10:35:46Z</time>
   </trkpt>
   <trkpt lat="-3.1848160" lon="37.2787440">
    <ele>1694.5</ele>
    <time>2026-06-20T10:35:47Z</time>
   </trkpt>
   <trkpt lat="-3.1848140" lon="37.2787370">
    <ele>1694.6</ele>
    <time>2026-06-20T10:35:48Z</time>
   </trkpt>
   <trkpt lat="-3.1848050" lon="37.2787300">
    <ele>1694.8</ele>
    <time>2026-06-20T10:35:49Z</time>
   </trkpt>
   <trkpt lat="-3.1848050" lon="37.2787300">
    <ele>1694.8</ele>
    <time>2026-06-20T10:35:50Z</time>
   </trkpt>
   <trkpt lat="-3.1848060" lon="37.2787270">
    <ele>1694.8</ele>
    <time>2026-06-20T10:35:51Z</time>
   </trkpt>
   <trkpt lat="-3.1847930" lon="37.2787230">
    <ele>1695.0</ele>
    <time>2026-06-20T10:35:52Z</time>
   </trkpt>
   <trkpt lat="-3.1847920" lon="37.2787130">
    <ele>1695.2</ele>
    <time>2026-06-20T10:35:53Z</time>
   </trkpt>
   <trkpt lat="-3.1847860" lon="37.2787030">
    <ele>1695.3</ele>
    <time>2026-06-20T10:35:54Z</time>
   </trkpt>
   <trkpt lat="-3.1847870" lon="37.2786970">
    <ele>1695.4</ele>
    <time>2026-06-20T10:35:55Z</time>
   </trkpt>
   <trkpt lat="-3.1847890" lon="37.2786960">
    <ele>1695.5</ele>
    <time>2026-06-20T10:35:56Z</time>
   </trkpt>
   <trkpt lat="-3.1847890" lon="37.2786930">
    <ele>1695.5</ele>
    <time>2026-06-20T10:35:57Z</time>
   </trkpt>
   <trkpt lat="-3.1847850" lon="37.2786890">
    <ele>1695.6</ele>
    <time>2026-06-20T10:35:58Z</time>
   </trkpt>
   <trkpt lat="-3.1847820" lon="37.2786870">
    <ele>1695.7</ele>
    <time>2026-06-20T10:35:59Z</time>
   </trkpt>
   <trkpt lat="-3.1847800" lon="37.2786790">
    <ele>1695.8</ele>
    <time>2026-06-20T10:36:00Z</time>
   </trkpt>
   <trkpt lat="-3.1847730" lon="37.2786720">
    <ele>1695.9</ele>
    <time>2026-06-20T10:36:01Z</time>
   </trkpt>
   <trkpt lat="-3.1847700" lon="37.2786690">
    <ele>1696.0</ele>
    <time>2026-06-20T10:36:02Z</time>
   </trkpt>
   <trkpt lat="-3.1847630" lon="37.2786590">
    <ele>1696.2</ele>
    <time>2026-06-20T10:36:03Z</time>
   </trkpt>
   <trkpt lat="-3.1847520" lon="37.2786590">
    <ele>1696.3</ele>
    <time>2026-06-20T10:36:04Z</time>
   </trkpt>
   <trkpt lat="-3.1847470" lon="37.2786530">
    <ele>1696.5</ele>
    <time>2026-06-20T10:36:05Z</time>
   </trkpt>
   <trkpt lat="-3.1847450" lon="37.2786460">
    <ele>1696.6</ele>
    <time>2026-06-20T10:36:06Z</time>
   </trkpt>
   <trkpt lat="-3.1847410" lon="37.2786480">
    <ele>1696.6</ele>
    <time>2026-06-20T10:36:07Z</time>
   </trkpt>
   <trkpt lat="-3.1847370" lon="37.2786440">
    <ele>1696.7</ele>
    <time>2026-06-20T10:36:08Z</time>
   </trkpt>
   <trkpt lat="-3.1847370" lon="37.2786440">
    <ele>1696.7</ele>
    <time>2026-06-20T10:36:09Z</time>
   </trkpt>
   <trkpt lat="-3.1847290" lon="37.2786430">
    <ele>1696.9</ele>
    <time>2026-06-20T10:36:10Z</time>
   </trkpt>
   <trkpt lat="-3.1847250" lon="37.2786430">
    <ele>1696.9</ele>
    <time>2026-06-20T10:36:11Z</time>
   </trkpt>
   <trkpt lat="-3.1847170" lon="37.2786430">
    <ele>1697.0</ele>
    <time>2026-06-20T10:36:12Z</time>
   </trkpt>
   <trkpt lat="-3.1847120" lon="37.2786410">
    <ele>1697.1</ele>
    <time>2026-06-20T10:36:13Z</time>
   </trkpt>
   <trkpt lat="-3.1847070" lon="37.2786330">
    <ele>1697.3</ele>
    <time>2026-06-20T10:36:14Z</time>
   </trkpt>
   <trkpt lat="-3.1847010" lon="37.2786330">
    <ele>1697.4</ele>
    <time>2026-06-20T10:36:15Z</time>
   </trkpt>
   <trkpt lat="-3.1846940" lon="37.2786340">
    <ele>1697.5</ele>
    <time>2026-06-20T10:36:16Z</time>
   </trkpt>
   <trkpt lat="-3.1846920" lon="37.2786300">
    <ele>1697.5</ele>
    <time>2026-06-20T10:36:17Z</time>
   </trkpt>
   <trkpt lat="-3.1846890" lon="37.2786340">
    <ele>1697.6</ele>
    <time>2026-06-20T10:36:18Z</time>
   </trkpt>
   <trkpt lat="-3.1846830" lon="37.2786280">
    <ele>1697.8</ele>
    <time>2026-06-20T10:36:19Z</time>
   </trkpt>
   <trkpt lat="-3.1846790" lon="37.2786220">
    <ele>1697.9</ele>
    <time>2026-06-20T10:36:20Z</time>
   </trkpt>
   <trkpt lat="-3.1846760" lon="37.2786250">
    <ele>1697.9</ele>
    <time>2026-06-20T10:36:21Z</time>
   </trkpt>
   <trkpt lat="-3.1846730" lon="37.2786190">
    <ele>1698.0</ele>
    <time>2026-06-20T10:36:22Z</time>
   </trkpt>
   <trkpt lat="-3.1846650" lon="37.2786170">
    <ele>1698.2</ele>
    <time>2026-06-20T10:36:23Z</time>
   </trkpt>
   <trkpt lat="-3.1846620" lon="37.2786150">
    <ele>1698.2</ele>
    <time>2026-06-20T10:36:24Z</time>
   </trkpt>
   <trkpt lat="-3.1846610" lon="37.2786160">
    <ele>1698.2</ele>
    <time>2026-06-20T10:36:25Z</time>
   </trkpt>
   <trkpt lat="-3.1846550" lon="37.2786110">
    <ele>1698.4</ele>
    <time>2026-06-20T10:36:26Z</time>
   </trkpt>
   <trkpt lat="-3.1846520" lon="37.2786030">
    <ele>1698.5</ele>
    <time>2026-06-20T10:36:27Z</time>
   </trkpt>
   <trkpt lat="-3.1846540" lon="37.2786040">
    <ele>1698.5</ele>
    <time>2026-06-20T10:36:28Z</time>
   </trkpt>
   <trkpt lat="-3.1846450" lon="37.2786000">
    <ele>1698.7</ele>
    <time>2026-06-20T10:36:29Z</time>
   </trkpt>
   <trkpt lat="-3.1846450" lon="37.2785980">
    <ele>1698.7</ele>
    <time>2026-06-20T10:36:30Z</time>
   </trkpt>
   <trkpt lat="-3.1846400" lon="37.2785920">
    <ele>1698.8</ele>
    <time>2026-06-20T10:36:31Z</time>
   </trkpt>
   <trkpt lat="-3.1846360" lon="37.2785880">
    <ele>1698.9</ele>
    <time>2026-06-20T10:36:32Z</time>
   </trkpt>
   <trkpt lat="-3.1846320" lon="37.2785820">
    <ele>1699.0</ele>
    <time>2026-06-20T10:36:33Z</time>
   </trkpt>
   <trkpt lat="-3.1846290" lon="37.2785740">
    <ele>1699.2</ele>
    <time>2026-06-20T10:36:34Z</time>
   </trkpt>
   <trkpt lat="-3.1846260" lon="37.2785690">
    <ele>1699.3</ele>
    <time>2026-06-20T10:36:35Z</time>
   </trkpt>
   <trkpt lat="-3.1846210" lon="37.2785640">
    <ele>1699.4</ele>
    <time>2026-06-20T10:36:36Z</time>
   </trkpt>
   <trkpt lat="-3.1846140" lon="37.2785550">
    <ele>1699.5</ele>
    <time>2026-06-20T10:36:37Z</time>
   </trkpt>
   <trkpt lat="-3.1846110" lon="37.2785520">
    <ele>1699.6</ele>
    <time>2026-06-20T10:36:38Z</time>
   </trkpt>
   <trkpt lat="-3.1846040" lon="37.2785480">
    <ele>1699.7</ele>
    <time>2026-06-20T10:36:39Z</time>
   </trkpt>
   <trkpt lat="-3.1845960" lon="37.2785430">
    <ele>1699.9</ele>
    <time>2026-06-20T10:36:40Z</time>
   </trkpt>
   <trkpt lat="-3.1845930" lon="37.2785410">
    <ele>1699.9</ele>
    <time>2026-06-20T10:36:41Z</time>
   </trkpt>
   <trkpt lat="-3.1845940" lon="37.2785420">
    <ele>1700.0</ele>
    <time>2026-06-20T10:36:42Z</time>
   </trkpt>
   <trkpt lat="-3.1845850" lon="37.2785370">
    <ele>1700.1</ele>
    <time>2026-06-20T10:36:43Z</time>
   </trkpt>
   <trkpt lat="-3.1845850" lon="37.2785290">
    <ele>1700.2</ele>
    <time>2026-06-20T10:36:44Z</time>
   </trkpt>
   <trkpt lat="-3.1845830" lon="37.2785220">
    <ele>1700.4</ele>
    <time>2026-06-20T10:36:45Z</time>
   </trkpt>
   <trkpt lat="-3.1845800" lon="37.2785230">
    <ele>1700.4</ele>
    <time>2026-06-20T10:36:46Z</time>
   </trkpt>
   <trkpt lat="-3.1845730" lon="37.2785220">
    <ele>1700.5</ele>
    <time>2026-06-20T10:36:47Z</time>
   </trkpt>
   <trkpt lat="-3.1845720" lon="37.2785200">
    <ele>1700.5</ele>
    <time>2026-06-20T10:36:48Z</time>
   </trkpt>
   <trkpt lat="-3.1845690" lon="37.2785080">
    <ele>1700.7</ele>
    <time>2026-06-20T10:36:49Z</time>
   </trkpt>
   <trkpt lat="-3.1845660" lon="37.2785050">
    <ele>1700.8</ele>
    <time>2026-06-20T10:36:50Z</time>
   </trkpt>
   <trkpt lat="-3.1845610" lon="37.2785060">
    <ele>1700.9</ele>
    <time>2026-06-20T10:36:51Z</time>
   </trkpt>
   <trkpt lat="-3.1845560" lon="37.2785050">
    <ele>1701.0</ele>
    <time>2026-06-20T10:36:52Z</time>
   </trkpt>
   <trkpt lat="-3.1845490" lon="37.2785030">
    <ele>1701.1</ele>
    <time>2026-06-20T10:36:53Z</time>
   </trkpt>
   <trkpt lat="-3.1845430" lon="37.2784930">
    <ele>1701.3</ele>
    <time>2026-06-20T10:36:54Z</time>
   </trkpt>
   <trkpt lat="-3.1845370" lon="37.2784870">
    <ele>1701.4</ele>
    <time>2026-06-20T10:36:55Z</time>
   </trkpt>
   <trkpt lat="-3.1845350" lon="37.2784850">
    <ele>1701.4</ele>
    <time>2026-06-20T10:36:56Z</time>
   </trkpt>
   <trkpt lat="-3.1845260" lon="37.2784860">
    <ele>1701.6</ele>
    <time>2026-06-20T10:36:57Z</time>
   </trkpt>
   <trkpt lat="-3.1845260" lon="37.2784890">
    <ele>1701.6</ele>
    <time>2026-06-20T10:36:58Z</time>
   </trkpt>
   <trkpt lat="-3.1845150" lon="37.2784870">
    <ele>1701.8</ele>
    <time>2026-06-20T10:36:59Z</time>
   </trkpt>
   <trkpt lat="-3.1845110" lon="37.2784850">
    <ele>1701.9</ele>
    <time>2026-06-20T10:37:00Z</time>
   </trkpt>
   <trkpt lat="-3.1845000" lon="37.2784840">
    <ele>1702.0</ele>
    <time>2026-06-20T10:37:01Z</time>
   </trkpt>
   <trkpt lat="-3.1844930" lon="37.2784820">
    <ele>1702.1</ele>
    <time>2026-06-20T10:37:02Z</time>
   </trkpt>
   <trkpt lat="-3.1844930" lon="37.2784840">
    <ele>1702.2</ele>
    <time>2026-06-20T10:37:03Z</time>
   </trkpt>
   <trkpt lat="-3.1844750" lon="37.2784860">
    <ele>1702.5</ele>
    <time>2026-06-20T10:37:04Z</time>
   </trkpt>
   <trkpt lat="-3.1844620" lon="37.2784820">
    <ele>1702.7</ele>
    <time>2026-06-20T10:37:05Z</time>
   </trkpt>
   <trkpt lat="-3.1844590" lon="37.2784790">
    <ele>1702.7</ele>
    <time>2026-06-20T10:37:06Z</time>
   </trkpt>
   <trkpt lat="-3.1844530" lon="37.2784720">
    <ele>1702.9</ele>
    <time>2026-06-20T10:37:07Z</time>
   </trkpt>
   <trkpt lat="-3.1844440" lon="37.2784660">
    <ele>1703.0</ele>
    <time>2026-06-20T10:37:08Z</time>
   </trkpt>
   <trkpt lat="-3.1844350" lon="37.2784670">
    <ele>1703.2</ele>
    <time>2026-06-20T10:37:09Z</time>
   </trkpt>
   <trkpt lat="-3.1844280" lon="37.2784640">
    <ele>1703.3</ele>
    <time>2026-06-20T10:37:10Z</time>
   </trkpt>
   <trkpt lat="-3.1844240" lon="37.2784540">
    <ele>1703.4</ele>
    <time>2026-06-20T10:37:11Z</time>
   </trkpt>
   <trkpt lat="-3.1844200" lon="37.2784510">
    <ele>1703.5</ele>
    <time>2026-06-20T10:37:12Z</time>
   </trkpt>
   <trkpt lat="-3.1844130" lon="37.2784480">
    <ele>1703.6</ele>
    <time>2026-06-20T10:37:13Z</time>
   </trkpt>
   <trkpt lat="-3.1844060" lon="37.2784430">
    <ele>1703.7</ele>
    <time>2026-06-20T10:37:14Z</time>
   </trkpt>
   <trkpt lat="-3.1843980" lon="37.2784390">
    <ele>1703.9</ele>
    <time>2026-06-20T10:37:15Z</time>
   </trkpt>
   <trkpt lat="-3.1843820" lon="37.2784350">
    <ele>1704.1</ele>
    <time>2026-06-20T10:37:16Z</time>
   </trkpt>
   <trkpt lat="-3.1843790" lon="37.2784320">
    <ele>1704.2</ele>
    <time>2026-06-20T10:37:17Z</time>
   </trkpt>
   <trkpt lat="-3.1843730" lon="37.2784280">
    <ele>1704.3</ele>
    <time>2026-06-20T10:37:18Z</time>
   </trkpt>
   <trkpt lat="-3.1843730" lon="37.2784260">
    <ele>1704.3</ele>
    <time>2026-06-20T10:37:19Z</time>
   </trkpt>
   <trkpt lat="-3.1843690" lon="37.2784200">
    <ele>1704.4</ele>
    <time>2026-06-20T10:37:20Z</time>
   </trkpt>
   <trkpt lat="-3.1843530" lon="37.2784200">
    <ele>1704.7</ele>
    <time>2026-06-20T10:37:21Z</time>
   </trkpt>
   <trkpt lat="-3.1843450" lon="37.2784160">
    <ele>1704.8</ele>
    <time>2026-06-20T10:37:22Z</time>
   </trkpt>
   <trkpt lat="-3.1843370" lon="37.2784140">
    <ele>1704.9</ele>
    <time>2026-06-20T10:37:23Z</time>
   </trkpt>
   <trkpt lat="-3.1843300" lon="37.2784150">
    <ele>1705.0</ele>
    <time>2026-06-20T10:37:24Z</time>
   </trkpt>
   <trkpt lat="-3.1843170" lon="37.2784070">
    <ele>1705.2</ele>
    <time>2026-06-20T10:37:25Z</time>
   </trkpt>
   <trkpt lat="-3.1843120" lon="37.2783990">
    <ele>1705.4</ele>
    <time>2026-06-20T10:37:26Z</time>
   </trkpt>
   <trkpt lat="-3.1843100" lon="37.2783920">
    <ele>1705.5</ele>
    <time>2026-06-20T10:37:27Z</time>
   </trkpt>
   <trkpt lat="-3.1843050" lon="37.2783820">
    <ele>1705.6</ele>
    <time>2026-06-20T10:37:28Z</time>
   </trkpt>
   <trkpt lat="-3.1843050" lon="37.2783830">
    <ele>1705.7</ele>
    <time>2026-06-20T10:37:29Z</time>
   </trkpt>
   <trkpt lat="-3.1842940" lon="37.2783770">
    <ele>1705.8</ele>
    <time>2026-06-20T10:37:30Z</time>
   </trkpt>
   <trkpt lat="-3.1842890" lon="37.2783730">
    <ele>1705.9</ele>
    <time>2026-06-20T10:37:31Z</time>
   </trkpt>
   <trkpt lat="-3.1842790" lon="37.2783700">
    <ele>1706.1</ele>
    <time>2026-06-20T10:37:32Z</time>
   </trkpt>
   <trkpt lat="-3.1842710" lon="37.2783630">
    <ele>1706.2</ele>
    <time>2026-06-20T10:37:33Z</time>
   </trkpt>
   <trkpt lat="-3.1842680" lon="37.2783580">
    <ele>1706.3</ele>
    <time>2026-06-20T10:37:34Z</time>
   </trkpt>
   <trkpt lat="-3.1842680" lon="37.2783530">
    <ele>1706.4</ele>
    <time>2026-06-20T10:37:35Z</time>
   </trkpt>
   <trkpt lat="-3.1842660" lon="37.2783470">
    <ele>1706.5</ele>
    <time>2026-06-20T10:37:36Z</time>
   </trkpt>
   <trkpt lat="-3.1842630" lon="37.2783400">
    <ele>1706.6</ele>
    <time>2026-06-20T10:37:37Z</time>
   </trkpt>
   <trkpt lat="-3.1842590" lon="37.2783410">
    <ele>1706.7</ele>
    <time>2026-06-20T10:37:38Z</time>
   </trkpt>
   <trkpt lat="-3.1842550" lon="37.2783390">
    <ele>1706.7</ele>
    <time>2026-06-20T10:37:39Z</time>
   </trkpt>
   <trkpt lat="-3.1842510" lon="37.2783270">
    <ele>1706.9</ele>
    <time>2026-06-20T10:37:40Z</time>
   </trkpt>
   <trkpt lat="-3.1842450" lon="37.2783210">
    <ele>1707.0</ele>
    <time>2026-06-20T10:37:41Z</time>
   </trkpt>
   <trkpt lat="-3.1842390" lon="37.2783200">
    <ele>1707.1</ele>
    <time>2026-06-20T10:37:42Z</time>
   </trkpt>
   <trkpt lat="-3.1842350" lon="37.2783150">
    <ele>1707.2</ele>
    <time>2026-06-20T10:37:43Z</time>
   </trkpt>
   <trkpt lat="-3.1842230" lon="37.2783090">
    <ele>1707.4</ele>
    <time>2026-06-20T10:37:44Z</time>
   </trkpt>
   <trkpt lat="-3.1842190" lon="37.2783120">
    <ele>1707.5</ele>
    <time>2026-06-20T10:37:45Z</time>
   </trkpt>
   <trkpt lat="-3.1842090" lon="37.2783060">
    <ele>1707.6</ele>
    <time>2026-06-20T10:37:46Z</time>
   </trkpt>
   <trkpt lat="-3.1842000" lon="37.2783030">
    <ele>1707.7</ele>
    <time>2026-06-20T10:37:47Z</time>
   </trkpt>
   <trkpt lat="-3.1841960" lon="37.2782990">
    <ele>1707.8</ele>
    <time>2026-06-20T10:37:48Z</time>
   </trkpt>
   <trkpt lat="-3.1841900" lon="37.2783000">
    <ele>1707.9</ele>
    <time>2026-06-20T10:37:50Z</time>
   </trkpt>
   <trkpt lat="-3.1841850" lon="37.2782940">
    <ele>1708.0</ele>
    <time>2026-06-20T10:37:51Z</time>
   </trkpt>
   <trkpt lat="-3.1841840" lon="37.2782920">
    <ele>1708.0</ele>
    <time>2026-06-20T10:37:52Z</time>
   </trkpt>
   <trkpt lat="-3.1841750" lon="37.2782890">
    <ele>1708.2</ele>
    <time>2026-06-20T10:37:53Z</time>
   </trkpt>
   <trkpt lat="-3.1841680" lon="37.2782850">
    <ele>1708.3</ele>
    <time>2026-06-20T10:37:54Z</time>
   </trkpt>
   <trkpt lat="-3.1841580" lon="37.2782810">
    <ele>1708.4</ele>
    <time>2026-06-20T10:37:55Z</time>
   </trkpt>
   <trkpt lat="-3.1841610" lon="37.2782790">
    <ele>1708.4</ele>
    <time>2026-06-20T10:37:56Z</time>
   </trkpt>
   <trkpt lat="-3.1841540" lon="37.2782710">
    <ele>1708.6</ele>
    <time>2026-06-20T10:37:57Z</time>
   </trkpt>
   <trkpt lat="-3.1841520" lon="37.2782680">
    <ele>1708.6</ele>
    <time>2026-06-20T10:37:58Z</time>
   </trkpt>
   <trkpt lat="-3.1841480" lon="37.2782640">
    <ele>1708.7</ele>
    <time>2026-06-20T10:37:59Z</time>
   </trkpt>
   <trkpt lat="-3.1841440" lon="37.2782640">
    <ele>1708.7</ele>
    <time>2026-06-20T10:38:00Z</time>
   </trkpt>
   <trkpt lat="-3.1841380" lon="37.2782640">
    <ele>1708.8</ele>
    <time>2026-06-20T10:38:01Z</time>
   </trkpt>
   <trkpt lat="-3.1841300" lon="37.2782600">
    <ele>1708.9</ele>
    <time>2026-06-20T10:38:02Z</time>
   </trkpt>
   <trkpt lat="-3.1841260" lon="37.2782590">
    <ele>1709.0</ele>
    <time>2026-06-20T10:38:03Z</time>
   </trkpt>
   <trkpt lat="-3.1841160" lon="37.2782600">
    <ele>1709.1</ele>
    <time>2026-06-20T10:38:04Z</time>
   </trkpt>
   <trkpt lat="-3.1841110" lon="37.2782590">
    <ele>1709.2</ele>
    <time>2026-06-20T10:38:05Z</time>
   </trkpt>
   <trkpt lat="-3.1841060" lon="37.2782570">
    <ele>1709.2</ele>
    <time>2026-06-20T10:38:06Z</time>
   </trkpt>
   <trkpt lat="-3.1841010" lon="37.2782530">
    <ele>1709.3</ele>
    <time>2026-06-20T10:38:07Z</time>
   </trkpt>
   <trkpt lat="-3.1840950" lon="37.2782510">
    <ele>1709.4</ele>
    <time>2026-06-20T10:38:08Z</time>
   </trkpt>
   <trkpt lat="-3.1840860" lon="37.2782440">
    <ele>1709.5</ele>
    <time>2026-06-20T10:38:09Z</time>
   </trkpt>
   <trkpt lat="-3.1840750" lon="37.2782390">
    <ele>1709.7</ele>
    <time>2026-06-20T10:38:10Z</time>
   </trkpt>
   <trkpt lat="-3.1840690" lon="37.2782380">
    <ele>1709.8</ele>
    <time>2026-06-20T10:38:11Z</time>
   </trkpt>
   <trkpt lat="-3.1840630" lon="37.2782330">
    <ele>1709.9</ele>
    <time>2026-06-20T10:38:12Z</time>
   </trkpt>
   <trkpt lat="-3.1840530" lon="37.2782310">
    <ele>1710.0</ele>
    <time>2026-06-20T10:38:13Z</time>
   </trkpt>
   <trkpt lat="-3.1840440" lon="37.2782290">
    <ele>1710.1</ele>
    <time>2026-06-20T10:38:14Z</time>
   </trkpt>
   <trkpt lat="-3.1840310" lon="37.2782280">
    <ele>1710.2</ele>
    <time>2026-06-20T10:38:15Z</time>
   </trkpt>
   <trkpt lat="-3.1840230" lon="37.2782220">
    <ele>1710.4</ele>
    <time>2026-06-20T10:38:16Z</time>
   </trkpt>
   <trkpt lat="-3.1840130" lon="37.2782190">
    <ele>1710.5</ele>
    <time>2026-06-20T10:38:17Z</time>
   </trkpt>
   <trkpt lat="-3.1840040" lon="37.2782140">
    <ele>1710.6</ele>
    <time>2026-06-20T10:38:18Z</time>
   </trkpt>
   <trkpt lat="-3.1840020" lon="37.2782120">
    <ele>1710.6</ele>
    <time>2026-06-20T10:38:19Z</time>
   </trkpt>
   <trkpt lat="-3.1839940" lon="37.2782080">
    <ele>1710.7</ele>
    <time>2026-06-20T10:38:20Z</time>
   </trkpt>
   <trkpt lat="-3.1839880" lon="37.2782040">
    <ele>1710.8</ele>
    <time>2026-06-20T10:38:21Z</time>
   </trkpt>
   <trkpt lat="-3.1839800" lon="37.2782070">
    <ele>1710.9</ele>
    <time>2026-06-20T10:38:22Z</time>
   </trkpt>
   <trkpt lat="-3.1839720" lon="37.2782040">
    <ele>1711.0</ele>
    <time>2026-06-20T10:38:23Z</time>
   </trkpt>
   <trkpt lat="-3.1839640" lon="37.2782040">
    <ele>1711.1</ele>
    <time>2026-06-20T10:38:24Z</time>
   </trkpt>
   <trkpt lat="-3.1839500" lon="37.2782040">
    <ele>1711.3</ele>
    <time>2026-06-20T10:38:25Z</time>
   </trkpt>
   <trkpt lat="-3.1839390" lon="37.2782020">
    <ele>1711.4</ele>
    <time>2026-06-20T10:38:26Z</time>
   </trkpt>
   <trkpt lat="-3.1839300" lon="37.2781990">
    <ele>1711.5</ele>
    <time>2026-06-20T10:38:27Z</time>
   </trkpt>
   <trkpt lat="-3.1839220" lon="37.2782000">
    <ele>1711.6</ele>
    <time>2026-06-20T10:38:28Z</time>
   </trkpt>
   <trkpt lat="-3.1839150" lon="37.2781970">
    <ele>1711.7</ele>
    <time>2026-06-20T10:38:29Z</time>
   </trkpt>
   <trkpt lat="-3.1839190" lon="37.2781960">
    <ele>1711.7</ele>
    <time>2026-06-20T10:38:30Z</time>
   </trkpt>
   <trkpt lat="-3.1839060" lon="37.2781930">
    <ele>1711.9</ele>
    <time>2026-06-20T10:38:31Z</time>
   </trkpt>
   <trkpt lat="-3.1838940" lon="37.2781920">
    <ele>1712.0</ele>
    <time>2026-06-20T10:38:32Z</time>
   </trkpt>
   <trkpt lat="-3.1838900" lon="37.2781880">
    <ele>1712.1</ele>
    <time>2026-06-20T10:38:33Z</time>
   </trkpt>
   <trkpt lat="-3.1838820" lon="37.2781900">
    <ele>1712.2</ele>
    <time>2026-06-20T10:38:34Z</time>
   </trkpt>
   <trkpt lat="-3.1838720" lon="37.2781890">
    <ele>1712.3</ele>
    <time>2026-06-20T10:38:35Z</time>
   </trkpt>
   <trkpt lat="-3.1838660" lon="37.2781900">
    <ele>1712.3</ele>
    <time>2026-06-20T10:38:36Z</time>
   </trkpt>
   <trkpt lat="-3.1838620" lon="37.2781870">
    <ele>1712.4</ele>
    <time>2026-06-20T10:38:37Z</time>
   </trkpt>
   <trkpt lat="-3.1838560" lon="37.2781860">
    <ele>1712.5</ele>
    <time>2026-06-20T10:38:38Z</time>
   </trkpt>
   <trkpt lat="-3.1838440" lon="37.2781880">
    <ele>1712.6</ele>
    <time>2026-06-20T10:38:39Z</time>
   </trkpt>
   <trkpt lat="-3.1838380" lon="37.2781850">
    <ele>1712.7</ele>
    <time>2026-06-20T10:38:40Z</time>
   </trkpt>
   <trkpt lat="-3.1838310" lon="37.2781810">
    <ele>1712.8</ele>
    <time>2026-06-20T10:38:41Z</time>
   </trkpt>
   <trkpt lat="-3.1838240" lon="37.2781790">
    <ele>1712.8</ele>
    <time>2026-06-20T10:38:42Z</time>
   </trkpt>
   <trkpt lat="-3.1838220" lon="37.2781780">
    <ele>1712.9</ele>
    <time>2026-06-20T10:38:43Z</time>
   </trkpt>
   <trkpt lat="-3.1838140" lon="37.2781770">
    <ele>1713.0</ele>
    <time>2026-06-20T10:38:44Z</time>
   </trkpt>
   <trkpt lat="-3.1838070" lon="37.2781750">
    <ele>1713.0</ele>
    <time>2026-06-20T10:38:45Z</time>
   </trkpt>
   <trkpt lat="-3.1838000" lon="37.2781740">
    <ele>1713.1</ele>
    <time>2026-06-20T10:38:46Z</time>
   </trkpt>
   <trkpt lat="-3.1837950" lon="37.2781690">
    <ele>1713.2</ele>
    <time>2026-06-20T10:38:47Z</time>
   </trkpt>
   <trkpt lat="-3.1837860" lon="37.2781660">
    <ele>1713.3</ele>
    <time>2026-06-20T10:38:48Z</time>
   </trkpt>
   <trkpt lat="-3.1837800" lon="37.2781690">
    <ele>1713.4</ele>
    <time>2026-06-20T10:38:49Z</time>
   </trkpt>
   <trkpt lat="-3.1837710" lon="37.2781700">
    <ele>1713.5</ele>
    <time>2026-06-20T10:38:50Z</time>
   </trkpt>
   <trkpt lat="-3.1837680" lon="37.2781680">
    <ele>1713.5</ele>
    <time>2026-06-20T10:38:51Z</time>
   </trkpt>
   <trkpt lat="-3.1837610" lon="37.2781660">
    <ele>1713.6</ele>
    <time>2026-06-20T10:38:52Z</time>
   </trkpt>
   <trkpt lat="-3.1837550" lon="37.2781620">
    <ele>1713.6</ele>
    <time>2026-06-20T10:38:53Z</time>
   </trkpt>
   <trkpt lat="-3.1837520" lon="37.2781630">
    <ele>1713.7</ele>
    <time>2026-06-20T10:38:54Z</time>
   </trkpt>
   <trkpt lat="-3.1837360" lon="37.2781600">
    <ele>1713.8</ele>
    <time>2026-06-20T10:38:55Z</time>
   </trkpt>
   <trkpt lat="-3.1837300" lon="37.2781580">
    <ele>1713.9</ele>
    <time>2026-06-20T10:38:56Z</time>
   </trkpt>
   <trkpt lat="-3.1837200" lon="37.2781580">
    <ele>1714.0</ele>
    <time>2026-06-20T10:38:57Z</time>
   </trkpt>
   <trkpt lat="-3.1837140" lon="37.2781570">
    <ele>1714.0</ele>
    <time>2026-06-20T10:38:58Z</time>
   </trkpt>
   <trkpt lat="-3.1837140" lon="37.2781590">
    <ele>1714.1</ele>
    <time>2026-06-20T10:38:59Z</time>
   </trkpt>
   <trkpt lat="-3.1837080" lon="37.2781590">
    <ele>1714.1</ele>
    <time>2026-06-20T10:39:00Z</time>
   </trkpt>
   <trkpt lat="-3.1836950" lon="37.2781590">
    <ele>1714.2</ele>
    <time>2026-06-20T10:39:01Z</time>
   </trkpt>
   <trkpt lat="-3.1836860" lon="37.2781590">
    <ele>1714.3</ele>
    <time>2026-06-20T10:39:02Z</time>
   </trkpt>
   <trkpt lat="-3.1836800" lon="37.2781580">
    <ele>1714.4</ele>
    <time>2026-06-20T10:39:03Z</time>
   </trkpt>
   <trkpt lat="-3.1836730" lon="37.2781560">
    <ele>1714.5</ele>
    <time>2026-06-20T10:39:04Z</time>
   </trkpt>
   <trkpt lat="-3.1836600" lon="37.2781570">
    <ele>1714.6</ele>
    <time>2026-06-20T10:39:05Z</time>
   </trkpt>
   <trkpt lat="-3.1836580" lon="37.2781550">
    <ele>1714.6</ele>
    <time>2026-06-20T10:39:06Z</time>
   </trkpt>
   <trkpt lat="-3.1836560" lon="37.2781530">
    <ele>1714.6</ele>
    <time>2026-06-20T10:39:07Z</time>
   </trkpt>
   <trkpt lat="-3.1836480" lon="37.2781500">
    <ele>1714.7</ele>
    <time>2026-06-20T10:39:08Z</time>
   </trkpt>
   <trkpt lat="-3.1836410" lon="37.2781440">
    <ele>1714.8</ele>
    <time>2026-06-20T10:39:09Z</time>
   </trkpt>
   <trkpt lat="-3.1836430" lon="37.2781430">
    <ele>1714.8</ele>
    <time>2026-06-20T10:39:10Z</time>
   </trkpt>
   <trkpt lat="-3.1836430" lon="37.2781430">
    <ele>1714.8</ele>
    <time>2026-06-20T10:39:11Z</time>
   </trkpt>
   <trkpt lat="-3.1836400" lon="37.2781450">
    <ele>1714.9</ele>
    <time>2026-06-20T10:39:12Z</time>
   </trkpt>
   <trkpt lat="-3.1836280" lon="37.2781440">
    <ele>1715.0</ele>
    <time>2026-06-20T10:39:13Z</time>
   </trkpt>
   <trkpt lat="-3.1836180" lon="37.2781390">
    <ele>1715.1</ele>
    <time>2026-06-20T10:39:14Z</time>
   </trkpt>
   <trkpt lat="-3.1836130" lon="37.2781370">
    <ele>1715.1</ele>
    <time>2026-06-20T10:39:15Z</time>
   </trkpt>
   <trkpt lat="-3.1836100" lon="37.2781360">
    <ele>1715.2</ele>
    <time>2026-06-20T10:39:16Z</time>
   </trkpt>
   <trkpt lat="-3.1836000" lon="37.2781370">
    <ele>1715.3</ele>
    <time>2026-06-20T10:39:17Z</time>
   </trkpt>
   <trkpt lat="-3.1835950" lon="37.2781350">
    <ele>1715.3</ele>
    <time>2026-06-20T10:39:18Z</time>
   </trkpt>
   <trkpt lat="-3.1835860" lon="37.2781330">
    <ele>1715.4</ele>
    <time>2026-06-20T10:39:19Z</time>
   </trkpt>
   <trkpt lat="-3.1835760" lon="37.2781320">
    <ele>1715.5</ele>
    <time>2026-06-20T10:39:20Z</time>
   </trkpt>
   <trkpt lat="-3.1835720" lon="37.2781420">
    <ele>1715.6</ele>
    <time>2026-06-20T10:39:21Z</time>
   </trkpt>
   <trkpt lat="-3.1835610" lon="37.2781410">
    <ele>1715.8</ele>
    <time>2026-06-20T10:39:22Z</time>
   </trkpt>
   <trkpt lat="-3.1835540" lon="37.2781290">
    <ele>1715.9</ele>
    <time>2026-06-20T10:39:23Z</time>
   </trkpt>
   <trkpt lat="-3.1835420" lon="37.2781280">
    <ele>1716.0</ele>
    <time>2026-06-20T10:39:24Z</time>
   </trkpt>
   <trkpt lat="-3.1835350" lon="37.2781260">
    <ele>1716.1</ele>
    <time>2026-06-20T10:39:25Z</time>
   </trkpt>
   <trkpt lat="-3.1835280" lon="37.2781240">
    <ele>1716.2</ele>
    <time>2026-06-20T10:39:26Z</time>
   </trkpt>
   <trkpt lat="-3.1835210" lon="37.2781230">
    <ele>1716.3</ele>
    <time>2026-06-20T10:39:27Z</time>
   </trkpt>
   <trkpt lat="-3.1835140" lon="37.2781220">
    <ele>1716.3</ele>
    <time>2026-06-20T10:39:28Z</time>
   </trkpt>
   <trkpt lat="-3.1835060" lon="37.2781220">
    <ele>1716.4</ele>
    <time>2026-06-20T10:39:29Z</time>
   </trkpt>
   <trkpt lat="-3.1834990" lon="37.2781170">
    <ele>1716.5</ele>
    <time>2026-06-20T10:39:30Z</time>
   </trkpt>
   <trkpt lat="-3.1834900" lon="37.2781150">
    <ele>1716.6</ele>
    <time>2026-06-20T10:39:31Z</time>
   </trkpt>
   <trkpt lat="-3.1834770" lon="37.2781160">
    <ele>1716.8</ele>
    <time>2026-06-20T10:39:32Z</time>
   </trkpt>
   <trkpt lat="-3.1834740" lon="37.2781140">
    <ele>1716.8</ele>
    <time>2026-06-20T10:39:33Z</time>
   </trkpt>
   <trkpt lat="-3.1834660" lon="37.2781190">
    <ele>1716.9</ele>
    <time>2026-06-20T10:39:34Z</time>
   </trkpt>
   <trkpt lat="-3.1834580" lon="37.2781160">
    <ele>1717.0</ele>
    <time>2026-06-20T10:39:35Z</time>
   </trkpt>
   <trkpt lat="-3.1834510" lon="37.2781140">
    <ele>1717.1</ele>
    <time>2026-06-20T10:39:36Z</time>
   </trkpt>
   <trkpt lat="-3.1834420" lon="37.2781060">
    <ele>1717.2</ele>
    <time>2026-06-20T10:39:37Z</time>
   </trkpt>
   <trkpt lat="-3.1834330" lon="37.2780990">
    <ele>1717.3</ele>
    <time>2026-06-20T10:39:38Z</time>
   </trkpt>
   <trkpt lat="-3.1834270" lon="37.2781000">
    <ele>1717.4</ele>
    <time>2026-06-20T10:39:39Z</time>
   </trkpt>
   <trkpt lat="-3.1834180" lon="37.2780970">
    <ele>1717.5</ele>
    <time>2026-06-20T10:39:40Z</time>
   </trkpt>
   <trkpt lat="-3.1834050" lon="37.2780960">
    <ele>1717.7</ele>
    <time>2026-06-20T10:39:41Z</time>
   </trkpt>
   <trkpt lat="-3.1833990" lon="37.2780970">
    <ele>1717.7</ele>
    <time>2026-06-20T10:39:42Z</time>
   </trkpt>
   <trkpt lat="-3.1833860" lon="37.2781000">
    <ele>1717.9</ele>
    <time>2026-06-20T10:39:43Z</time>
   </trkpt>
   <trkpt lat="-3.1833800" lon="37.2781030">
    <ele>1718.0</ele>
    <time>2026-06-20T10:39:44Z</time>
   </trkpt>
   <trkpt lat="-3.1833670" lon="37.2781020">
    <ele>1718.1</ele>
    <time>2026-06-20T10:39:45Z</time>
   </trkpt>
   <trkpt lat="-3.1833570" lon="37.2781060">
    <ele>1718.2</ele>
    <time>2026-06-20T10:39:46Z</time>
   </trkpt>
   <trkpt lat="-3.1833500" lon="37.2781050">
    <ele>1718.3</ele>
    <time>2026-06-20T10:39:47Z</time>
   </trkpt>
   <trkpt lat="-3.1833410" lon="37.2781080">
    <ele>1718.4</ele>
    <time>2026-06-20T10:39:48Z</time>
   </trkpt>
   <trkpt lat="-3.1833320" lon="37.2781080">
    <ele>1718.5</ele>
    <time>2026-06-20T10:39:49Z</time>
   </trkpt>
   <trkpt lat="-3.1833210" lon="37.2781070">
    <ele>1718.6</ele>
    <time>2026-06-20T10:39:50Z</time>
   </trkpt>
   <trkpt lat="-3.1833120" lon="37.2781040">
    <ele>1718.7</ele>
    <time>2026-06-20T10:39:51Z</time>
   </trkpt>
   <trkpt lat="-3.1833030" lon="37.2781050">
    <ele>1718.8</ele>
    <time>2026-06-20T10:39:52Z</time>
   </trkpt>
   <trkpt lat="-3.1832950" lon="37.2781090">
    <ele>1718.9</ele>
    <time>2026-06-20T10:39:53Z</time>
   </trkpt>
   <trkpt lat="-3.1832820" lon="37.2781100">
    <ele>1719.1</ele>
    <time>2026-06-20T10:39:54Z</time>
   </trkpt>
   <trkpt lat="-3.1832790" lon="37.2781060">
    <ele>1719.1</ele>
    <time>2026-06-20T10:39:56Z</time>
   </trkpt>
   <trkpt lat="-3.1832710" lon="37.2781060">
    <ele>1719.2</ele>
    <time>2026-06-20T10:39:57Z</time>
   </trkpt>
   <trkpt lat="-3.1832570" lon="37.2781040">
    <ele>1719.4</ele>
    <time>2026-06-20T10:39:58Z</time>
   </trkpt>
   <trkpt lat="-3.1832500" lon="37.2781050">
    <ele>1719.5</ele>
    <time>2026-06-20T10:39:59Z</time>
   </trkpt>
   <trkpt lat="-3.1832420" lon="37.2781040">
    <ele>1719.5</ele>
    <time>2026-06-20T10:40:00Z</time>
   </trkpt>
   <trkpt lat="-3.1832400" lon="37.2781030">
    <ele>1719.6</ele>
    <time>2026-06-20T10:40:01Z</time>
   </trkpt>
   <trkpt lat="-3.1832320" lon="37.2781040">
    <ele>1719.7</ele>
    <time>2026-06-20T10:40:02Z</time>
   </trkpt>
   <trkpt lat="-3.1832240" lon="37.2781020">
    <ele>1719.8</ele>
    <time>2026-06-20T10:40:03Z</time>
   </trkpt>
   <trkpt lat="-3.1832180" lon="37.2781020">
    <ele>1719.8</ele>
    <time>2026-06-20T10:40:04Z</time>
   </trkpt>
   <trkpt lat="-3.1832110" lon="37.2781030">
    <ele>1719.9</ele>
    <time>2026-06-20T10:40:05Z</time>
   </trkpt>
   <trkpt lat="-3.1832060" lon="37.2781050">
    <ele>1720.0</ele>
    <time>2026-06-20T10:40:06Z</time>
   </trkpt>
   <trkpt lat="-3.1832000" lon="37.2781050">
    <ele>1720.0</ele>
    <time>2026-06-20T10:40:07Z</time>
   </trkpt>
   <trkpt lat="-3.1831910" lon="37.2781030">
    <ele>1720.1</ele>
    <time>2026-06-20T10:40:08Z</time>
   </trkpt>
   <trkpt lat="-3.1831770" lon="37.2781020">
    <ele>1720.3</ele>
    <time>2026-06-20T10:40:09Z</time>
   </trkpt>
   <trkpt lat="-3.1831680" lon="37.2781000">
    <ele>1720.4</ele>
    <time>2026-06-20T10:40:10Z</time>
   </trkpt>
   <trkpt lat="-3.1831620" lon="37.2781000">
    <ele>1720.5</ele>
    <time>2026-06-20T10:40:11Z</time>
   </trkpt>
   <trkpt lat="-3.1831540" lon="37.2780970">
    <ele>1720.5</ele>
    <time>2026-06-20T10:40:12Z</time>
   </trkpt>
   <trkpt lat="-3.1831450" lon="37.2780990">
    <ele>1720.6</ele>
    <time>2026-06-20T10:40:13Z</time>
   </trkpt>
   <trkpt lat="-3.1831370" lon="37.2781000">
    <ele>1720.7</ele>
    <time>2026-06-20T10:40:14Z</time>
   </trkpt>
   <trkpt lat="-3.1831330" lon="37.2780940">
    <ele>1720.8</ele>
    <time>2026-06-20T10:40:15Z</time>
   </trkpt>
   <trkpt lat="-3.1831200" lon="37.2780900">
    <ele>1721.0</ele>
    <time>2026-06-20T10:40:16Z</time>
   </trkpt>
   <trkpt lat="-3.1831170" lon="37.2780970">
    <ele>1721.1</ele>
    <time>2026-06-20T10:40:17Z</time>
   </trkpt>
   <trkpt lat="-3.1831140" lon="37.2780960">
    <ele>1721.1</ele>
    <time>2026-06-20T10:40:18Z</time>
   </trkpt>
   <trkpt lat="-3.1831080" lon="37.2780950">
    <ele>1721.2</ele>
    <time>2026-06-20T10:40:19Z</time>
   </trkpt>
   <trkpt lat="-3.1831000" lon="37.2780970">
    <ele>1721.2</ele>
    <time>2026-06-20T10:40:20Z</time>
   </trkpt>
   <trkpt lat="-3.1830920" lon="37.2780950">
    <ele>1721.3</ele>
    <time>2026-06-20T10:40:21Z</time>
   </trkpt>
   <trkpt lat="-3.1830820" lon="37.2780940">
    <ele>1721.5</ele>
    <time>2026-06-20T10:40:22Z</time>
   </trkpt>
   <trkpt lat="-3.1830760" lon="37.2780920">
    <ele>1721.5</ele>
    <time>2026-06-20T10:40:23Z</time>
   </trkpt>
   <trkpt lat="-3.1830720" lon="37.2780920">
    <ele>1721.6</ele>
    <time>2026-06-20T10:40:24Z</time>
   </trkpt>
   <trkpt lat="-3.1830690" lon="37.2780880">
    <ele>1721.6</ele>
    <time>2026-06-20T10:40:25Z</time>
   </trkpt>
   <trkpt lat="-3.1830620" lon="37.2780840">
    <ele>1721.7</ele>
    <time>2026-06-20T10:40:26Z</time>
   </trkpt>
   <trkpt lat="-3.1830530" lon="37.2780810">
    <ele>1721.8</ele>
    <time>2026-06-20T10:40:27Z</time>
   </trkpt>
   <trkpt lat="-3.1830480" lon="37.2780770">
    <ele>1721.9</ele>
    <time>2026-06-20T10:40:28Z</time>
   </trkpt>
   <trkpt lat="-3.1830380" lon="37.2780720">
    <ele>1722.0</ele>
    <time>2026-06-20T10:40:29Z</time>
   </trkpt>
   <trkpt lat="-3.1830290" lon="37.2780680">
    <ele>1722.1</ele>
    <time>2026-06-20T10:40:30Z</time>
   </trkpt>
   <trkpt lat="-3.1830230" lon="37.2780660">
    <ele>1722.2</ele>
    <time>2026-06-20T10:40:31Z</time>
   </trkpt>
   <trkpt lat="-3.1830170" lon="37.2780640">
    <ele>1722.3</ele>
    <time>2026-06-20T10:40:32Z</time>
   </trkpt>
   <trkpt lat="-3.1830060" lon="37.2780680">
    <ele>1722.4</ele>
    <time>2026-06-20T10:40:33Z</time>
   </trkpt>
   <trkpt lat="-3.1829970" lon="37.2780670">
    <ele>1722.5</ele>
    <time>2026-06-20T10:40:34Z</time>
   </trkpt>
   <trkpt lat="-3.1829850" lon="37.2780660">
    <ele>1722.6</ele>
    <time>2026-06-20T10:40:35Z</time>
   </trkpt>
   <trkpt lat="-3.1829820" lon="37.2780620">
    <ele>1722.7</ele>
    <time>2026-06-20T10:40:36Z</time>
   </trkpt>
   <trkpt lat="-3.1829750" lon="37.2780580">
    <ele>1722.8</ele>
    <time>2026-06-20T10:40:37Z</time>
   </trkpt>
   <trkpt lat="-3.1829680" lon="37.2780530">
    <ele>1722.9</ele>
    <time>2026-06-20T10:40:38Z</time>
   </trkpt>
   <trkpt lat="-3.1829630" lon="37.2780460">
    <ele>1723.0</ele>
    <time>2026-06-20T10:40:39Z</time>
   </trkpt>
   <trkpt lat="-3.1829590" lon="37.2780480">
    <ele>1723.0</ele>
    <time>2026-06-20T10:40:40Z</time>
   </trkpt>
   <trkpt lat="-3.1829500" lon="37.2780460">
    <ele>1723.1</ele>
    <time>2026-06-20T10:40:41Z</time>
   </trkpt>
   <trkpt lat="-3.1829420" lon="37.2780470">
    <ele>1723.2</ele>
    <time>2026-06-20T10:40:42Z</time>
   </trkpt>
   <trkpt lat="-3.1829360" lon="37.2780450">
    <ele>1723.3</ele>
    <time>2026-06-20T10:40:43Z</time>
   </trkpt>
   <trkpt lat="-3.1829190" lon="37.2780440">
    <ele>1723.5</ele>
    <time>2026-06-20T10:40:44Z</time>
   </trkpt>
   <trkpt lat="-3.1829080" lon="37.2780380">
    <ele>1723.6</ele>
    <time>2026-06-20T10:40:45Z</time>
   </trkpt>
   <trkpt lat="-3.1829050" lon="37.2780340">
    <ele>1723.6</ele>
    <time>2026-06-20T10:40:46Z</time>
   </trkpt>
   <trkpt lat="-3.1828960" lon="37.2780320">
    <ele>1723.7</ele>
    <time>2026-06-20T10:40:47Z</time>
   </trkpt>
   <trkpt lat="-3.1828900" lon="37.2780330">
    <ele>1723.8</ele>
    <time>2026-06-20T10:40:48Z</time>
   </trkpt>
   <trkpt lat="-3.1828850" lon="37.2780440">
    <ele>1723.9</ele>
    <time>2026-06-20T10:40:49Z</time>
   </trkpt>
   <trkpt lat="-3.1828740" lon="37.2780500">
    <ele>1724.1</ele>
    <time>2026-06-20T10:40:50Z</time>
   </trkpt>
   <trkpt lat="-3.1828590" lon="37.2780370">
    <ele>1724.3</ele>
    <time>2026-06-20T10:40:51Z</time>
   </trkpt>
   <trkpt lat="-3.1828410" lon="37.2780390">
    <ele>1724.4</ele>
    <time>2026-06-20T10:40:52Z</time>
   </trkpt>
   <trkpt lat="-3.1828270" lon="37.2780400">
    <ele>1724.6</ele>
    <time>2026-06-20T10:40:53Z</time>
   </trkpt>
   <trkpt lat="-3.1828120" lon="37.2780380">
    <ele>1724.7</ele>
    <time>2026-06-20T10:40:54Z</time>
   </trkpt>
   <trkpt lat="-3.1828180" lon="37.2780330">
    <ele>1724.8</ele>
    <time>2026-06-20T10:40:55Z</time>
   </trkpt>
   <trkpt lat="-3.1828110" lon="37.2780350">
    <ele>1724.9</ele>
    <time>2026-06-20T10:40:56Z</time>
   </trkpt>
   <trkpt lat="-3.1828010" lon="37.2780430">
    <ele>1725.0</ele>
    <time>2026-06-20T10:40:57Z</time>
   </trkpt>
   <trkpt lat="-3.1828000" lon="37.2780350">
    <ele>1725.1</ele>
    <time>2026-06-20T10:40:58Z</time>
   </trkpt>
   <trkpt lat="-3.1827950" lon="37.2780340">
    <ele>1725.1</ele>
    <time>2026-06-20T10:40:59Z</time>
   </trkpt>
   <trkpt lat="-3.1827870" lon="37.2780340">
    <ele>1725.2</ele>
    <time>2026-06-20T10:41:00Z</time>
   </trkpt>
   <trkpt lat="-3.1827790" lon="37.2780330">
    <ele>1725.3</ele>
    <time>2026-06-20T10:41:01Z</time>
   </trkpt>
   <trkpt lat="-3.1827700" lon="37.2780300">
    <ele>1725.4</ele>
    <time>2026-06-20T10:41:02Z</time>
   </trkpt>
   <trkpt lat="-3.1827570" lon="37.2780270">
    <ele>1725.5</ele>
    <time>2026-06-20T10:41:03Z</time>
   </trkpt>
   <trkpt lat="-3.1827500" lon="37.2780250">
    <ele>1725.6</ele>
    <time>2026-06-20T10:41:04Z</time>
   </trkpt>
   <trkpt lat="-3.1827410" lon="37.2780240">
    <ele>1725.7</ele>
    <time>2026-06-20T10:41:05Z</time>
   </trkpt>
   <trkpt lat="-3.1827330" lon="37.2780220">
    <ele>1725.7</ele>
    <time>2026-06-20T10:41:06Z</time>
   </trkpt>
   <trkpt lat="-3.1827220" lon="37.2780200">
    <ele>1725.9</ele>
    <time>2026-06-20T10:41:07Z</time>
   </trkpt>
   <trkpt lat="-3.1827090" lon="37.2780160">
    <ele>1726.0</ele>
    <time>2026-06-20T10:41:08Z</time>
   </trkpt>
   <trkpt lat="-3.1827010" lon="37.2780070">
    <ele>1726.1</ele>
    <time>2026-06-20T10:41:09Z</time>
   </trkpt>
   <trkpt lat="-3.1826920" lon="37.2780050">
    <ele>1726.2</ele>
    <time>2026-06-20T10:41:10Z</time>
   </trkpt>
   <trkpt lat="-3.1826830" lon="37.2779990">
    <ele>1726.3</ele>
    <time>2026-06-20T10:41:11Z</time>
   </trkpt>
   <trkpt lat="-3.1826790" lon="37.2779960">
    <ele>1726.3</ele>
    <time>2026-06-20T10:41:12Z</time>
   </trkpt>
   <trkpt lat="-3.1826700" lon="37.2779950">
    <ele>1726.4</ele>
    <time>2026-06-20T10:41:13Z</time>
   </trkpt>
   <trkpt lat="-3.1826640" lon="37.2779940">
    <ele>1726.4</ele>
    <time>2026-06-20T10:41:14Z</time>
   </trkpt>
   <trkpt lat="-3.1826570" lon="37.2779960">
    <ele>1726.5</ele>
    <time>2026-06-20T10:41:15Z</time>
   </trkpt>
   <trkpt lat="-3.1826500" lon="37.2779980">
    <ele>1726.6</ele>
    <time>2026-06-20T10:41:16Z</time>
   </trkpt>
   <trkpt lat="-3.1826470" lon="37.2779980">
    <ele>1726.6</ele>
    <time>2026-06-20T10:41:17Z</time>
   </trkpt>
   <trkpt lat="-3.1826430" lon="37.2780020">
    <ele>1726.6</ele>
    <time>2026-06-20T10:41:18Z</time>
   </trkpt>
   <trkpt lat="-3.1826380" lon="37.2779990">
    <ele>1726.7</ele>
    <time>2026-06-20T10:41:19Z</time>
   </trkpt>
   <trkpt lat="-3.1826360" lon="37.2780000">
    <ele>1726.7</ele>
    <time>2026-06-20T10:41:20Z</time>
   </trkpt>
   <trkpt lat="-3.1826320" lon="37.2780030">
    <ele>1726.8</ele>
    <time>2026-06-20T10:41:21Z</time>
   </trkpt>
   <trkpt lat="-3.1826210" lon="37.2780010">
    <ele>1726.8</ele>
    <time>2026-06-20T10:41:22Z</time>
   </trkpt>
   <trkpt lat="-3.1826130" lon="37.2779960">
    <ele>1726.9</ele>
    <time>2026-06-20T10:41:23Z</time>
   </trkpt>
   <trkpt lat="-3.1826030" lon="37.2779940">
    <ele>1727.0</ele>
    <time>2026-06-20T10:41:24Z</time>
   </trkpt>
   <trkpt lat="-3.1825970" lon="37.2779900">
    <ele>1727.1</ele>
    <time>2026-06-20T10:41:25Z</time>
   </trkpt>
   <trkpt lat="-3.1825980" lon="37.2779930">
    <ele>1727.1</ele>
    <time>2026-06-20T10:41:26Z</time>
   </trkpt>
   <trkpt lat="-3.1825920" lon="37.2779910">
    <ele>1727.2</ele>
    <time>2026-06-20T10:41:27Z</time>
   </trkpt>
   <trkpt lat="-3.1825860" lon="37.2779920">
    <ele>1727.2</ele>
    <time>2026-06-20T10:41:28Z</time>
   </trkpt>
   <trkpt lat="-3.1825740" lon="37.2779970">
    <ele>1727.3</ele>
    <time>2026-06-20T10:41:29Z</time>
   </trkpt>
   <trkpt lat="-3.1825690" lon="37.2779890">
    <ele>1727.4</ele>
    <time>2026-06-20T10:41:30Z</time>
   </trkpt>
   <trkpt lat="-3.1825630" lon="37.2779910">
    <ele>1727.5</ele>
    <time>2026-06-20T10:41:31Z</time>
   </trkpt>
   <trkpt lat="-3.1825480" lon="37.2779950">
    <ele>1727.6</ele>
    <time>2026-06-20T10:41:32Z</time>
   </trkpt>
   <trkpt lat="-3.1825350" lon="37.2779870">
    <ele>1727.7</ele>
    <time>2026-06-20T10:41:33Z</time>
   </trkpt>
   <trkpt lat="-3.1825260" lon="37.2779890">
    <ele>1727.8</ele>
    <time>2026-06-20T10:41:34Z</time>
   </trkpt>
   <trkpt lat="-3.1825170" lon="37.2779870">
    <ele>1727.9</ele>
    <time>2026-06-20T10:41:35Z</time>
   </trkpt>
   <trkpt lat="-3.1825040" lon="37.2779850">
    <ele>1728.0</ele>
    <time>2026-06-20T10:41:36Z</time>
   </trkpt>
   <trkpt lat="-3.1825040" lon="37.2779850">
    <ele>1728.0</ele>
    <time>2026-06-20T10:41:37Z</time>
   </trkpt>
   <trkpt lat="-3.1824960" lon="37.2779840">
    <ele>1728.1</ele>
    <time>2026-06-20T10:41:38Z</time>
   </trkpt>
   <trkpt lat="-3.1824920" lon="37.2779830">
    <ele>1728.1</ele>
    <time>2026-06-20T10:41:39Z</time>
   </trkpt>
   <trkpt lat="-3.1824850" lon="37.2779840">
    <ele>1728.2</ele>
    <time>2026-06-20T10:41:40Z</time>
   </trkpt>
   <trkpt lat="-3.1824800" lon="37.2779800">
    <ele>1728.2</ele>
    <time>2026-06-20T10:41:41Z</time>
   </trkpt>
   <trkpt lat="-3.1824720" lon="37.2779740">
    <ele>1728.3</ele>
    <time>2026-06-20T10:41:42Z</time>
   </trkpt>
   <trkpt lat="-3.1824610" lon="37.2779740">
    <ele>1728.4</ele>
    <time>2026-06-20T10:41:43Z</time>
   </trkpt>
   <trkpt lat="-3.1824530" lon="37.2779740">
    <ele>1728.5</ele>
    <time>2026-06-20T10:41:44Z</time>
   </trkpt>
   <trkpt lat="-3.1824410" lon="37.2779720">
    <ele>1728.6</ele>
    <time>2026-06-20T10:41:45Z</time>
   </trkpt>
   <trkpt lat="-3.1824300" lon="37.2779680">
    <ele>1728.7</ele>
    <time>2026-06-20T10:41:46Z</time>
   </trkpt>
   <trkpt lat="-3.1824210" lon="37.2779630">
    <ele>1728.8</ele>
    <time>2026-06-20T10:41:47Z</time>
   </trkpt>
   <trkpt lat="-3.1824180" lon="37.2779630">
    <ele>1728.8</ele>
    <time>2026-06-20T10:41:48Z</time>
   </trkpt>
   <trkpt lat="-3.1824100" lon="37.2779630">
    <ele>1728.8</ele>
    <time>2026-06-20T10:41:49Z</time>
   </trkpt>
   <trkpt lat="-3.1824090" lon="37.2779680">
    <ele>1728.9</ele>
    <time>2026-06-20T10:41:50Z</time>
   </trkpt>
   <trkpt lat="-3.1823930" lon="37.2779620">
    <ele>1729.0</ele>
    <time>2026-06-20T10:41:51Z</time>
   </trkpt>
   <trkpt lat="-3.1823840" lon="37.2779710">
    <ele>1729.1</ele>
    <time>2026-06-20T10:41:52Z</time>
   </trkpt>
   <trkpt lat="-3.1823770" lon="37.2779670">
    <ele>1729.2</ele>
    <time>2026-06-20T10:41:53Z</time>
   </trkpt>
   <trkpt lat="-3.1823690" lon="37.2779660">
    <ele>1729.3</ele>
    <time>2026-06-20T10:41:54Z</time>
   </trkpt>
   <trkpt lat="-3.1823650" lon="37.2779630">
    <ele>1729.3</ele>
    <time>2026-06-20T10:41:55Z</time>
   </trkpt>
   <trkpt lat="-3.1823580" lon="37.2779610">
    <ele>1729.4</ele>
    <time>2026-06-20T10:41:56Z</time>
   </trkpt>
   <trkpt lat="-3.1823470" lon="37.2779570">
    <ele>1729.5</ele>
    <time>2026-06-20T10:41:57Z</time>
   </trkpt>
   <trkpt lat="-3.1823340" lon="37.2779530">
    <ele>1729.6</ele>
    <time>2026-06-20T10:41:58Z</time>
   </trkpt>
   <trkpt lat="-3.1823300" lon="37.2779480">
    <ele>1729.6</ele>
    <time>2026-06-20T10:41:59Z</time>
   </trkpt>
   <trkpt lat="-3.1823190" lon="37.2779510">
    <ele>1729.7</ele>
    <time>2026-06-20T10:42:00Z</time>
   </trkpt>
   <trkpt lat="-3.1823120" lon="37.2779500">
    <ele>1729.8</ele>
    <time>2026-06-20T10:42:02Z</time>
   </trkpt>
   <trkpt lat="-3.1823050" lon="37.2779490">
    <ele>1729.9</ele>
    <time>2026-06-20T10:42:03Z</time>
   </trkpt>
   <trkpt lat="-3.1822980" lon="37.2779500">
    <ele>1729.9</ele>
    <time>2026-06-20T10:42:04Z</time>
   </trkpt>
   <trkpt lat="-3.1822860" lon="37.2779510">
    <ele>1730.0</ele>
    <time>2026-06-20T10:42:05Z</time>
   </trkpt>
   <trkpt lat="-3.1822770" lon="37.2779530">
    <ele>1730.1</ele>
    <time>2026-06-20T10:42:06Z</time>
   </trkpt>
   <trkpt lat="-3.1822670" lon="37.2779490">
    <ele>1730.2</ele>
    <time>2026-06-20T10:42:07Z</time>
   </trkpt>
   <trkpt lat="-3.1822590" lon="37.2779450">
    <ele>1730.3</ele>
    <time>2026-06-20T10:42:08Z</time>
   </trkpt>
   <trkpt lat="-3.1822560" lon="37.2779440">
    <ele>1730.4</ele>
    <time>2026-06-20T10:42:09Z</time>
   </trkpt>
   <trkpt lat="-3.1822500" lon="37.2779460">
    <ele>1730.4</ele>
    <time>2026-06-20T10:42:10Z</time>
   </trkpt>
   <trkpt lat="-3.1822450" lon="37.2779420">
    <ele>1730.5</ele>
    <time>2026-06-20T10:42:11Z</time>
   </trkpt>
   <trkpt lat="-3.1822330" lon="37.2779370">
    <ele>1730.6</ele>
    <time>2026-06-20T10:42:12Z</time>
   </trkpt>
   <trkpt lat="-3.1822280" lon="37.2779340">
    <ele>1730.7</ele>
    <time>2026-06-20T10:42:13Z</time>
   </trkpt>
   <trkpt lat="-3.1822150" lon="37.2779280">
    <ele>1730.8</ele>
    <time>2026-06-20T10:42:14Z</time>
   </trkpt>
   <trkpt lat="-3.1822160" lon="37.2779260">
    <ele>1730.9</ele>
    <time>2026-06-20T10:42:15Z</time>
   </trkpt>
   <trkpt lat="-3.1822130" lon="37.2779230">
    <ele>1730.9</ele>
    <time>2026-06-20T10:42:16Z</time>
   </trkpt>
   <trkpt lat="-3.1822070" lon="37.2779230">
    <ele>1731.0</ele>
    <time>2026-06-20T10:42:17Z</time>
   </trkpt>
   <trkpt lat="-3.1821980" lon="37.2779160">
    <ele>1731.1</ele>
    <time>2026-06-20T10:42:18Z</time>
   </trkpt>
   <trkpt lat="-3.1821930" lon="37.2779110">
    <ele>1731.2</ele>
    <time>2026-06-20T10:42:19Z</time>
   </trkpt>
   <trkpt lat="-3.1821880" lon="37.2779090">
    <ele>1731.2</ele>
    <time>2026-06-20T10:42:20Z</time>
   </trkpt>
   <trkpt lat="-3.1821830" lon="37.2779060">
    <ele>1731.3</ele>
    <time>2026-06-20T10:42:21Z</time>
   </trkpt>
   <trkpt lat="-3.1821820" lon="37.2779070">
    <ele>1731.3</ele>
    <time>2026-06-20T10:42:22Z</time>
   </trkpt>
   <trkpt lat="-3.1821780" lon="37.2779070">
    <ele>1731.4</ele>
    <time>2026-06-20T10:42:23Z</time>
   </trkpt>
   <trkpt lat="-3.1821680" lon="37.2779020">
    <ele>1731.5</ele>
    <time>2026-06-20T10:42:24Z</time>
   </trkpt>
   <trkpt lat="-3.1821590" lon="37.2779000">
    <ele>1731.6</ele>
    <time>2026-06-20T10:42:25Z</time>
   </trkpt>
   <trkpt lat="-3.1821490" lon="37.2779020">
    <ele>1731.7</ele>
    <time>2026-06-20T10:42:26Z</time>
   </trkpt>
   <trkpt lat="-3.1821440" lon="37.2778970">
    <ele>1731.8</ele>
    <time>2026-06-20T10:42:27Z</time>
   </trkpt>
   <trkpt lat="-3.1821380" lon="37.2778920">
    <ele>1731.9</ele>
    <time>2026-06-20T10:42:28Z</time>
   </trkpt>
   <trkpt lat="-3.1821300" lon="37.2778910">
    <ele>1732.0</ele>
    <time>2026-06-20T10:42:29Z</time>
   </trkpt>
   <trkpt lat="-3.1821290" lon="37.2778890">
    <ele>1732.0</ele>
    <time>2026-06-20T10:42:30Z</time>
   </trkpt>
   <trkpt lat="-3.1821160" lon="37.2778850">
    <ele>1732.2</ele>
    <time>2026-06-20T10:42:31Z</time>
   </trkpt>
   <trkpt lat="-3.1821040" lon="37.2778870">
    <ele>1732.3</ele>
    <time>2026-06-20T10:42:32Z</time>
   </trkpt>
   <trkpt lat="-3.1820950" lon="37.2778830">
    <ele>1732.4</ele>
    <time>2026-06-20T10:42:33Z</time>
   </trkpt>
   <trkpt lat="-3.1820870" lon="37.2778800">
    <ele>1732.5</ele>
    <time>2026-06-20T10:42:34Z</time>
   </trkpt>
   <trkpt lat="-3.1820810" lon="37.2778760">
    <ele>1732.6</ele>
    <time>2026-06-20T10:42:35Z</time>
   </trkpt>
   <trkpt lat="-3.1820590" lon="37.2778750">
    <ele>1732.8</ele>
    <time>2026-06-20T10:42:36Z</time>
   </trkpt>
   <trkpt lat="-3.1820510" lon="37.2778720">
    <ele>1732.9</ele>
    <time>2026-06-20T10:42:37Z</time>
   </trkpt>
   <trkpt lat="-3.1820420" lon="37.2778680">
    <ele>1733.0</ele>
    <time>2026-06-20T10:42:38Z</time>
   </trkpt>
   <trkpt lat="-3.1820430" lon="37.2778670">
    <ele>1733.0</ele>
    <time>2026-06-20T10:42:39Z</time>
   </trkpt>
   <trkpt lat="-3.1820270" lon="37.2778560">
    <ele>1733.2</ele>
    <time>2026-06-20T10:42:40Z</time>
   </trkpt>
   <trkpt lat="-3.1820150" lon="37.2778590">
    <ele>1733.3</ele>
    <time>2026-06-20T10:42:41Z</time>
   </trkpt>
   <trkpt lat="-3.1820080" lon="37.2778560">
    <ele>1733.4</ele>
    <time>2026-06-20T10:42:42Z</time>
   </trkpt>
   <trkpt lat="-3.1820020" lon="37.2778530">
    <ele>1733.4</ele>
    <time>2026-06-20T10:42:43Z</time>
   </trkpt>
   <trkpt lat="-3.1819880" lon="37.2778510">
    <ele>1733.5</ele>
    <time>2026-06-20T10:42:44Z</time>
   </trkpt>
   <trkpt lat="-3.1819790" lon="37.2778530">
    <ele>1733.6</ele>
    <time>2026-06-20T10:42:45Z</time>
   </trkpt>
   <trkpt lat="-3.1819760" lon="37.2778580">
    <ele>1733.6</ele>
    <time>2026-06-20T10:42:46Z</time>
   </trkpt>
   <trkpt lat="-3.1819640" lon="37.2778570">
    <ele>1733.7</ele>
    <time>2026-06-20T10:42:47Z</time>
   </trkpt>
   <trkpt lat="-3.1819590" lon="37.2778540">
    <ele>1733.8</ele>
    <time>2026-06-20T10:42:48Z</time>
   </trkpt>
   <trkpt lat="-3.1819570" lon="37.2778530">
    <ele>1733.8</ele>
    <time>2026-06-20T10:42:49Z</time>
   </trkpt>
   <trkpt lat="-3.1819490" lon="37.2778540">
    <ele>1733.9</ele>
    <time>2026-06-20T10:42:50Z</time>
   </trkpt>
   <trkpt lat="-3.1819410" lon="37.2778500">
    <ele>1733.9</ele>
    <time>2026-06-20T10:42:51Z</time>
   </trkpt>
   <trkpt lat="-3.1819330" lon="37.2778440">
    <ele>1734.0</ele>
    <time>2026-06-20T10:42:52Z</time>
   </trkpt>
   <trkpt lat="-3.1819280" lon="37.2778410">
    <ele>1734.0</ele>
    <time>2026-06-20T10:42:53Z</time>
   </trkpt>
   <trkpt lat="-3.1819270" lon="37.2778440">
    <ele>1734.0</ele>
    <time>2026-06-20T10:42:54Z</time>
   </trkpt>
   <trkpt lat="-3.1819230" lon="37.2778500">
    <ele>1734.1</ele>
    <time>2026-06-20T10:42:55Z</time>
   </trkpt>
   <trkpt lat="-3.1819180" lon="37.2778540">
    <ele>1734.1</ele>
    <time>2026-06-20T10:42:56Z</time>
   </trkpt>
   <trkpt lat="-3.1819110" lon="37.2778520">
    <ele>1734.2</ele>
    <time>2026-06-20T10:42:57Z</time>
   </trkpt>
   <trkpt lat="-3.1819050" lon="37.2778510">
    <ele>1734.2</ele>
    <time>2026-06-20T10:42:58Z</time>
   </trkpt>
   <trkpt lat="-3.1818990" lon="37.2778480">
    <ele>1734.3</ele>
    <time>2026-06-20T10:42:59Z</time>
   </trkpt>
   <trkpt lat="-3.1818890" lon="37.2778490">
    <ele>1734.3</ele>
    <time>2026-06-20T10:43:00Z</time>
   </trkpt>
   <trkpt lat="-3.1818760" lon="37.2778480">
    <ele>1734.4</ele>
    <time>2026-06-20T10:43:01Z</time>
   </trkpt>
   <trkpt lat="-3.1818690" lon="37.2778470">
    <ele>1734.5</ele>
    <time>2026-06-20T10:43:02Z</time>
   </trkpt>
   <trkpt lat="-3.1818630" lon="37.2778470">
    <ele>1734.5</ele>
    <time>2026-06-20T10:43:03Z</time>
   </trkpt>
   <trkpt lat="-3.1818570" lon="37.2778440">
    <ele>1734.6</ele>
    <time>2026-06-20T10:43:04Z</time>
   </trkpt>
   <trkpt lat="-3.1818490" lon="37.2778430">
    <ele>1734.6</ele>
    <time>2026-06-20T10:43:05Z</time>
   </trkpt>
   <trkpt lat="-3.1818440" lon="37.2778420">
    <ele>1734.6</ele>
    <time>2026-06-20T10:43:06Z</time>
   </trkpt>
   <trkpt lat="-3.1818410" lon="37.2778340">
    <ele>1734.7</ele>
    <time>2026-06-20T10:43:07Z</time>
   </trkpt>
   <trkpt lat="-3.1818340" lon="37.2778320">
    <ele>1734.7</ele>
    <time>2026-06-20T10:43:08Z</time>
   </trkpt>
   <trkpt lat="-3.1818300" lon="37.2778270">
    <ele>1734.8</ele>
    <time>2026-06-20T10:43:09Z</time>
   </trkpt>
   <trkpt lat="-3.1818240" lon="37.2778250">
    <ele>1734.8</ele>
    <time>2026-06-20T10:43:10Z</time>
   </trkpt>
   <trkpt lat="-3.1818220" lon="37.2778200">
    <ele>1734.8</ele>
    <time>2026-06-20T10:43:11Z</time>
   </trkpt>
   <trkpt lat="-3.1818170" lon="37.2778180">
    <ele>1734.9</ele>
    <time>2026-06-20T10:43:12Z</time>
   </trkpt>
   <trkpt lat="-3.1818140" lon="37.2778180">
    <ele>1734.9</ele>
    <time>2026-06-20T10:43:13Z</time>
   </trkpt>
   <trkpt lat="-3.1818040" lon="37.2778170">
    <ele>1734.9</ele>
    <time>2026-06-20T10:43:14Z</time>
   </trkpt>
   <trkpt lat="-3.1817960" lon="37.2778130">
    <ele>1735.0</ele>
    <time>2026-06-20T10:43:15Z</time>
   </trkpt>
   <trkpt lat="-3.1817920" lon="37.2778110">
    <ele>1735.0</ele>
    <time>2026-06-20T10:43:16Z</time>
   </trkpt>
   <trkpt lat="-3.1817840" lon="37.2778110">
    <ele>1735.1</ele>
    <time>2026-06-20T10:43:17Z</time>
   </trkpt>
   <trkpt lat="-3.1817740" lon="37.2778100">
    <ele>1735.1</ele>
    <time>2026-06-20T10:43:18Z</time>
   </trkpt>
   <trkpt lat="-3.1817700" lon="37.2778110">
    <ele>1735.2</ele>
    <time>2026-06-20T10:43:19Z</time>
   </trkpt>
   <trkpt lat="-3.1817630" lon="37.2778070">
    <ele>1735.2</ele>
    <time>2026-06-20T10:43:20Z</time>
   </trkpt>
   <trkpt lat="-3.1817510" lon="37.2778030">
    <ele>1735.3</ele>
    <time>2026-06-20T10:43:21Z</time>
   </trkpt>
   <trkpt lat="-3.1817470" lon="37.2778050">
    <ele>1735.3</ele>
    <time>2026-06-20T10:43:22Z</time>
   </trkpt>
   <trkpt lat="-3.1817440" lon="37.2778060">
    <ele>1735.3</ele>
    <time>2026-06-20T10:43:23Z</time>
   </trkpt>
   <trkpt lat="-3.1817380" lon="37.2778070">
    <ele>1735.4</ele>
    <time>2026-06-20T10:43:24Z</time>
   </trkpt>
   <trkpt lat="-3.1817330" lon="37.2778090">
    <ele>1735.4</ele>
    <time>2026-06-20T10:43:25Z</time>
   </trkpt>
   <trkpt lat="-3.1817300" lon="37.2778080">
    <ele>1735.4</ele>
    <time>2026-06-20T10:43:26Z</time>
   </trkpt>
   <trkpt lat="-3.1817160" lon="37.2778090">
    <ele>1735.5</ele>
    <time>2026-06-20T10:43:27Z</time>
   </trkpt>
   <trkpt lat="-3.1817040" lon="37.2778080">
    <ele>1735.6</ele>
    <time>2026-06-20T10:43:28Z</time>
   </trkpt>
   <trkpt lat="-3.1816990" lon="37.2778080">
    <ele>1735.6</ele>
    <time>2026-06-20T10:43:29Z</time>
   </trkpt>
   <trkpt lat="-3.1816920" lon="37.2778080">
    <ele>1735.6</ele>
    <time>2026-06-20T10:43:30Z</time>
   </trkpt>
   <trkpt lat="-3.1816800" lon="37.2778080">
    <ele>1735.7</ele>
    <time>2026-06-20T10:43:31Z</time>
   </trkpt>
   <trkpt lat="-3.1816730" lon="37.2778080">
    <ele>1735.8</ele>
    <time>2026-06-20T10:43:32Z</time>
   </trkpt>
   <trkpt lat="-3.1816650" lon="37.2778080">
    <ele>1735.8</ele>
    <time>2026-06-20T10:43:33Z</time>
   </trkpt>
   <trkpt lat="-3.1816560" lon="37.2778120">
    <ele>1735.9</ele>
    <time>2026-06-20T10:43:34Z</time>
   </trkpt>
   <trkpt lat="-3.1816490" lon="37.2778130">
    <ele>1735.9</ele>
    <time>2026-06-20T10:43:35Z</time>
   </trkpt>
   <trkpt lat="-3.1816470" lon="37.2778150">
    <ele>1735.9</ele>
    <time>2026-06-20T10:43:36Z</time>
   </trkpt>
   <trkpt lat="-3.1816470" lon="37.2778200">
    <ele>1736.0</ele>
    <time>2026-06-20T10:43:37Z</time>
   </trkpt>
   <trkpt lat="-3.1816480" lon="37.2778240">
    <ele>1736.0</ele>
    <time>2026-06-20T10:43:38Z</time>
   </trkpt>
   <trkpt lat="-3.1816420" lon="37.2778280">
    <ele>1736.0</ele>
    <time>2026-06-20T10:43:39Z</time>
   </trkpt>
   <trkpt lat="-3.1816380" lon="37.2778310">
    <ele>1736.0</ele>
    <time>2026-06-20T10:43:40Z</time>
   </trkpt>
   <trkpt lat="-3.1816280" lon="37.2778310">
    <ele>1736.1</ele>
    <time>2026-06-20T10:43:41Z</time>
   </trkpt>
   <trkpt lat="-3.1816240" lon="37.2778290">
    <ele>1736.1</ele>
    <time>2026-06-20T10:43:42Z</time>
   </trkpt>
   <trkpt lat="-3.1816150" lon="37.2778240">
    <ele>1736.1</ele>
    <time>2026-06-20T10:43:43Z</time>
   </trkpt>
   <trkpt lat="-3.1816030" lon="37.2778230">
    <ele>1736.2</ele>
    <time>2026-06-20T10:43:44Z</time>
   </trkpt>
   <trkpt lat="-3.1815830" lon="37.2778300">
    <ele>1736.3</ele>
    <time>2026-06-20T10:43:45Z</time>
   </trkpt>
   <trkpt lat="-3.1815750" lon="37.2778340">
    <ele>1736.3</ele>
    <time>2026-06-20T10:43:46Z</time>
   </trkpt>
   <trkpt lat="-3.1815600" lon="37.2778390">
    <ele>1736.4</ele>
    <time>2026-06-20T10:43:47Z</time>
   </trkpt>
   <trkpt lat="-3.1815550" lon="37.2778420">
    <ele>1736.4</ele>
    <time>2026-06-20T10:43:48Z</time>
   </trkpt>
   <trkpt lat="-3.1815510" lon="37.2778420">
    <ele>1736.4</ele>
    <time>2026-06-20T10:43:49Z</time>
   </trkpt>
   <trkpt lat="-3.1815420" lon="37.2778480">
    <ele>1736.5</ele>
    <time>2026-06-20T10:43:50Z</time>
   </trkpt>
   <trkpt lat="-3.1815260" lon="37.2778520">
    <ele>1736.6</ele>
    <time>2026-06-20T10:43:51Z</time>
   </trkpt>
   <trkpt lat="-3.1815110" lon="37.2778590">
    <ele>1736.6</ele>
    <time>2026-06-20T10:43:52Z</time>
   </trkpt>
   <trkpt lat="-3.1814990" lon="37.2778610">
    <ele>1736.7</ele>
    <time>2026-06-20T10:43:53Z</time>
   </trkpt>
   <trkpt lat="-3.1814880" lon="37.2778670">
    <ele>1736.7</ele>
    <time>2026-06-20T10:43:54Z</time>
   </trkpt>
   <trkpt lat="-3.1814820" lon="37.2778690">
    <ele>1736.8</ele>
    <time>2026-06-20T10:43:55Z</time>
   </trkpt>
   <trkpt lat="-3.1814760" lon="37.2778720">
    <ele>1736.8</ele>
    <time>2026-06-20T10:43:56Z</time>
   </trkpt>
   <trkpt lat="-3.1814700" lon="37.2778720">
    <ele>1736.8</ele>
    <time>2026-06-20T10:43:57Z</time>
   </trkpt>
   <trkpt lat="-3.1814720" lon="37.2778700">
    <ele>1736.8</ele>
    <time>2026-06-20T10:43:58Z</time>
   </trkpt>
   <trkpt lat="-3.1814690" lon="37.2778670">
    <ele>1736.8</ele>
    <time>2026-06-20T10:43:59Z</time>
   </trkpt>
   <trkpt lat="-3.1814670" lon="37.2778650">
    <ele>1736.9</ele>
    <time>2026-06-20T10:44:00Z</time>
   </trkpt>
   <trkpt lat="-3.1814720" lon="37.2778690">
    <ele>1736.9</ele>
    <time>2026-06-20T10:44:01Z</time>
   </trkpt>
   <trkpt lat="-3.1814680" lon="37.2778720">
    <ele>1736.9</ele>
    <time>2026-06-20T10:44:02Z</time>
   </trkpt>
   <trkpt lat="-3.1814620" lon="37.2778730">
    <ele>1736.9</ele>
    <time>2026-06-20T10:44:03Z</time>
   </trkpt>
   <trkpt lat="-3.1814560" lon="37.2778760">
    <ele>1737.0</ele>
    <time>2026-06-20T10:44:04Z</time>
   </trkpt>
   <trkpt lat="-3.1814480" lon="37.2778780">
    <ele>1737.0</ele>
    <time>2026-06-20T10:44:05Z</time>
   </trkpt>
   <trkpt lat="-3.1814500" lon="37.2778740">
    <ele>1737.0</ele>
    <time>2026-06-20T10:44:06Z</time>
   </trkpt>
   <trkpt lat="-3.1814440" lon="37.2778780">
    <ele>1737.0</ele>
    <time>2026-06-20T10:44:08Z</time>
   </trkpt>
   <trkpt lat="-3.1814380" lon="37.2778760">
    <ele>1737.1</ele>
    <time>2026-06-20T10:44:09Z</time>
   </trkpt>
   <trkpt lat="-3.1814290" lon="37.2778840">
    <ele>1737.1</ele>
    <time>2026-06-20T10:44:10Z</time>
   </trkpt>
   <trkpt lat="-3.1814230" lon="37.2778820">
    <ele>1737.1</ele>
    <time>2026-06-20T10:44:11Z</time>
   </trkpt>
   <trkpt lat="-3.1814130" lon="37.2778870">
    <ele>1737.2</ele>
    <time>2026-06-20T10:44:12Z</time>
   </trkpt>
   <trkpt lat="-3.1814080" lon="37.2778850">
    <ele>1737.2</ele>
    <time>2026-06-20T10:44:13Z</time>
   </trkpt>
   <trkpt lat="-3.1813950" lon="37.2778930">
    <ele>1737.3</ele>
    <time>2026-06-20T10:44:14Z</time>
   </trkpt>
   <trkpt lat="-3.1813870" lon="37.2779010">
    <ele>1737.3</ele>
    <time>2026-06-20T10:44:15Z</time>
   </trkpt>
   <trkpt lat="-3.1813810" lon="37.2779030">
    <ele>1737.3</ele>
    <time>2026-06-20T10:44:16Z</time>
   </trkpt>
   <trkpt lat="-3.1813740" lon="37.2779100">
    <ele>1737.4</ele>
    <time>2026-06-20T10:44:17Z</time>
   </trkpt>
   <trkpt lat="-3.1813650" lon="37.2779110">
    <ele>1737.4</ele>
    <time>2026-06-20T10:44:18Z</time>
   </trkpt>
   <trkpt lat="-3.1813550" lon="37.2779150">
    <ele>1737.5</ele>
    <time>2026-06-20T10:44:19Z</time>
   </trkpt>
   <trkpt lat="-3.1813490" lon="37.2779140">
    <ele>1737.5</ele>
    <time>2026-06-20T10:44:20Z</time>
   </trkpt>
   <trkpt lat="-3.1813360" lon="37.2779200">
    <ele>1737.5</ele>
    <time>2026-06-20T10:44:21Z</time>
   </trkpt>
   <trkpt lat="-3.1813280" lon="37.2779230">
    <ele>1737.5</ele>
    <time>2026-06-20T10:44:22Z</time>
   </trkpt>
   <trkpt lat="-3.1813210" lon="37.2779250">
    <ele>1737.6</ele>
    <time>2026-06-20T10:44:23Z</time>
   </trkpt>
   <trkpt lat="-3.1813100" lon="37.2779300">
    <ele>1737.6</ele>
    <time>2026-06-20T10:44:24Z</time>
   </trkpt>
   <trkpt lat="-3.1813050" lon="37.2779340">
    <ele>1737.6</ele>
    <time>2026-06-20T10:44:25Z</time>
   </trkpt>
   <trkpt lat="-3.1813020" lon="37.2779350">
    <ele>1737.6</ele>
    <time>2026-06-20T10:44:26Z</time>
   </trkpt>
   <trkpt lat="-3.1813010" lon="37.2779360">
    <ele>1737.6</ele>
    <time>2026-06-20T10:44:27Z</time>
   </trkpt>
   <trkpt lat="-3.1812900" lon="37.2779430">
    <ele>1737.7</ele>
    <time>2026-06-20T10:44:28Z</time>
   </trkpt>
   <trkpt lat="-3.1812880" lon="37.2779410">
    <ele>1737.7</ele>
    <time>2026-06-20T10:44:29Z</time>
   </trkpt>
   <trkpt lat="-3.1812760" lon="37.2779520">
    <ele>1737.7</ele>
    <time>2026-06-20T10:44:30Z</time>
   </trkpt>
   <trkpt lat="-3.1812750" lon="37.2779590">
    <ele>1737.7</ele>
    <time>2026-06-20T10:44:31Z</time>
   </trkpt>
   <trkpt lat="-3.1812670" lon="37.2779610">
    <ele>1737.7</ele>
    <time>2026-06-20T10:44:32Z</time>
   </trkpt>
   <trkpt lat="-3.1812570" lon="37.2779680">
    <ele>1737.8</ele>
    <time>2026-06-20T10:44:33Z</time>
   </trkpt>
   <trkpt lat="-3.1812480" lon="37.2779700">
    <ele>1737.8</ele>
    <time>2026-06-20T10:44:34Z</time>
   </trkpt>
   <trkpt lat="-3.1812420" lon="37.2779730">
    <ele>1737.8</ele>
    <time>2026-06-20T10:44:35Z</time>
   </trkpt>
   <trkpt lat="-3.1812340" lon="37.2779790">
    <ele>1737.8</ele>
    <time>2026-06-20T10:44:36Z</time>
   </trkpt>
   <trkpt lat="-3.1812240" lon="37.2779830">
    <ele>1737.9</ele>
    <time>2026-06-20T10:44:37Z</time>
   </trkpt>
   <trkpt lat="-3.1812160" lon="37.2779900">
    <ele>1737.9</ele>
    <time>2026-06-20T10:44:38Z</time>
   </trkpt>
   <trkpt lat="-3.1812240" lon="37.2779960">
    <ele>1737.9</ele>
    <time>2026-06-20T10:44:39Z</time>
   </trkpt>
   <trkpt lat="-3.1812220" lon="37.2780080">
    <ele>1737.9</ele>
    <time>2026-06-20T10:44:40Z</time>
   </trkpt>
   <trkpt lat="-3.1812030" lon="37.2780150">
    <ele>1738.0</ele>
    <time>2026-06-20T10:44:41Z</time>
   </trkpt>
   <trkpt lat="-3.1811720" lon="37.2780290">
    <ele>1738.1</ele>
    <time>2026-06-20T10:44:42Z</time>
   </trkpt>
   <trkpt lat="-3.1811630" lon="37.2780330">
    <ele>1738.1</ele>
    <time>2026-06-20T10:44:43Z</time>
   </trkpt>
   <trkpt lat="-3.1811570" lon="37.2780370">
    <ele>1738.1</ele>
    <time>2026-06-20T10:44:44Z</time>
   </trkpt>
   <trkpt lat="-3.1811500" lon="37.2780390">
    <ele>1738.1</ele>
    <time>2026-06-20T10:44:45Z</time>
   </trkpt>
   <trkpt lat="-3.1811430" lon="37.2780430">
    <ele>1738.1</ele>
    <time>2026-06-20T10:44:46Z</time>
   </trkpt>
   <trkpt lat="-3.1811360" lon="37.2780460">
    <ele>1738.2</ele>
    <time>2026-06-20T10:44:47Z</time>
   </trkpt>
   <trkpt lat="-3.1811280" lon="37.2780510">
    <ele>1738.2</ele>
    <time>2026-06-20T10:44:48Z</time>
   </trkpt>
   <trkpt lat="-3.1811230" lon="37.2780630">
    <ele>1738.2</ele>
    <time>2026-06-20T10:44:49Z</time>
   </trkpt>
   <trkpt lat="-3.1811170" lon="37.2780680">
    <ele>1738.3</ele>
    <time>2026-06-20T10:44:50Z</time>
   </trkpt>
   <trkpt lat="-3.1811090" lon="37.2780710">
    <ele>1738.3</ele>
    <time>2026-06-20T10:44:51Z</time>
   </trkpt>
   <trkpt lat="-3.1810930" lon="37.2780750">
    <ele>1738.4</ele>
    <time>2026-06-20T10:44:52Z</time>
   </trkpt>
   <trkpt lat="-3.1810850" lon="37.2780810">
    <ele>1738.4</ele>
    <time>2026-06-20T10:44:53Z</time>
   </trkpt>
   <trkpt lat="-3.1810860" lon="37.2780870">
    <ele>1738.4</ele>
    <time>2026-06-20T10:44:54Z</time>
   </trkpt>
   <trkpt lat="-3.1810820" lon="37.2780920">
    <ele>1738.5</ele>
    <time>2026-06-20T10:44:55Z</time>
   </trkpt>
   <trkpt lat="-3.1810820" lon="37.2780970">
    <ele>1738.5</ele>
    <time>2026-06-20T10:44:56Z</time>
   </trkpt>
   <trkpt lat="-3.1810810" lon="37.2781050">
    <ele>1738.5</ele>
    <time>2026-06-20T10:44:57Z</time>
   </trkpt>
   <trkpt lat="-3.1810720" lon="37.2781060">
    <ele>1738.5</ele>
    <time>2026-06-20T10:44:58Z</time>
   </trkpt>
   <trkpt lat="-3.1810650" lon="37.2781110">
    <ele>1738.6</ele>
    <time>2026-06-20T10:44:59Z</time>
   </trkpt>
   <trkpt lat="-3.1810580" lon="37.2781140">
    <ele>1738.6</ele>
    <time>2026-06-20T10:45:00Z</time>
   </trkpt>
   <trkpt lat="-3.1810490" lon="37.2781180">
    <ele>1738.7</ele>
    <time>2026-06-20T10:45:01Z</time>
   </trkpt>
   <trkpt lat="-3.1810470" lon="37.2781200">
    <ele>1738.7</ele>
    <time>2026-06-20T10:45:02Z</time>
   </trkpt>
   <trkpt lat="-3.1810390" lon="37.2781220">
    <ele>1738.7</ele>
    <time>2026-06-20T10:45:03Z</time>
   </trkpt>
   <trkpt lat="-3.1810360" lon="37.2781250">
    <ele>1738.7</ele>
    <time>2026-06-20T10:45:04Z</time>
   </trkpt>
   <trkpt lat="-3.1810370" lon="37.2781270">
    <ele>1738.7</ele>
    <time>2026-06-20T10:45:05Z</time>
   </trkpt>
   <trkpt lat="-3.1810300" lon="37.2781300">
    <ele>1738.8</ele>
    <time>2026-06-20T10:45:06Z</time>
   </trkpt>
   <trkpt lat="-3.1810220" lon="37.2781330">
    <ele>1738.8</ele>
    <time>2026-06-20T10:45:07Z</time>
   </trkpt>
   <trkpt lat="-3.1810130" lon="37.2781410">
    <ele>1738.9</ele>
    <time>2026-06-20T10:45:08Z</time>
   </trkpt>
   <trkpt lat="-3.1810090" lon="37.2781420">
    <ele>1738.9</ele>
    <time>2026-06-20T10:45:09Z</time>
   </trkpt>
   <trkpt lat="-3.1809990" lon="37.2781490">
    <ele>1738.9</ele>
    <time>2026-06-20T10:45:10Z</time>
   </trkpt>
   <trkpt lat="-3.1809910" lon="37.2781520">
    <ele>1739.0</ele>
    <time>2026-06-20T10:45:11Z</time>
   </trkpt>
   <trkpt lat="-3.1809820" lon="37.2781560">
    <ele>1739.0</ele>
    <time>2026-06-20T10:45:12Z</time>
   </trkpt>
   <trkpt lat="-3.1809780" lon="37.2781610">
    <ele>1739.0</ele>
    <time>2026-06-20T10:45:13Z</time>
   </trkpt>
   <trkpt lat="-3.1809760" lon="37.2781640">
    <ele>1739.1</ele>
    <time>2026-06-20T10:45:14Z</time>
   </trkpt>
   <trkpt lat="-3.1809680" lon="37.2781680">
    <ele>1739.1</ele>
    <time>2026-06-20T10:45:15Z</time>
   </trkpt>
   <trkpt lat="-3.1809560" lon="37.2781750">
    <ele>1739.2</ele>
    <time>2026-06-20T10:45:16Z</time>
   </trkpt>
   <trkpt lat="-3.1809500" lon="37.2781780">
    <ele>1739.2</ele>
    <time>2026-06-20T10:45:17Z</time>
   </trkpt>
   <trkpt lat="-3.1809470" lon="37.2781810">
    <ele>1739.2</ele>
    <time>2026-06-20T10:45:18Z</time>
   </trkpt>
   <trkpt lat="-3.1809420" lon="37.2781830">
    <ele>1739.2</ele>
    <time>2026-06-20T10:45:19Z</time>
   </trkpt>
   <trkpt lat="-3.1809320" lon="37.2781860">
    <ele>1739.3</ele>
    <time>2026-06-20T10:45:20Z</time>
   </trkpt>
   <trkpt lat="-3.1809270" lon="37.2781900">
    <ele>1739.3</ele>
    <time>2026-06-20T10:45:21Z</time>
   </trkpt>
   <trkpt lat="-3.1809160" lon="37.2781950">
    <ele>1739.4</ele>
    <time>2026-06-20T10:45:22Z</time>
   </trkpt>
   <trkpt lat="-3.1809140" lon="37.2781960">
    <ele>1739.4</ele>
    <time>2026-06-20T10:45:23Z</time>
   </trkpt>
   <trkpt lat="-3.1809010" lon="37.2782030">
    <ele>1739.4</ele>
    <time>2026-06-20T10:45:24Z</time>
   </trkpt>
   <trkpt lat="-3.1808970" lon="37.2782060">
    <ele>1739.5</ele>
    <time>2026-06-20T10:45:25Z</time>
   </trkpt>
   <trkpt lat="-3.1808920" lon="37.2782090">
    <ele>1739.5</ele>
    <time>2026-06-20T10:45:26Z</time>
   </trkpt>
   <trkpt lat="-3.1808800" lon="37.2782180">
    <ele>1739.5</ele>
    <time>2026-06-20T10:45:27Z</time>
   </trkpt>
   <trkpt lat="-3.1808690" lon="37.2782310">
    <ele>1739.6</ele>
    <time>2026-06-20T10:45:28Z</time>
   </trkpt>
   <trkpt lat="-3.1808620" lon="37.2782380">
    <ele>1739.7</ele>
    <time>2026-06-20T10:45:29Z</time>
   </trkpt>
   <trkpt lat="-3.1808530" lon="37.2782430">
    <ele>1739.7</ele>
    <time>2026-06-20T10:45:30Z</time>
   </trkpt>
   <trkpt lat="-3.1808490" lon="37.2782490">
    <ele>1739.7</ele>
    <time>2026-06-20T10:45:31Z</time>
   </trkpt>
   <trkpt lat="-3.1808410" lon="37.2782540">
    <ele>1739.8</ele>
    <time>2026-06-20T10:45:32Z</time>
   </trkpt>
   <trkpt lat="-3.1808370" lon="37.2782560">
    <ele>1739.8</ele>
    <time>2026-06-20T10:45:33Z</time>
   </trkpt>
   <trkpt lat="-3.1808270" lon="37.2782630">
    <ele>1739.8</ele>
    <time>2026-06-20T10:45:34Z</time>
   </trkpt>
   <trkpt lat="-3.1808190" lon="37.2782690">
    <ele>1739.9</ele>
    <time>2026-06-20T10:45:35Z</time>
   </trkpt>
   <trkpt lat="-3.1808110" lon="37.2782720">
    <ele>1739.9</ele>
    <time>2026-06-20T10:45:36Z</time>
   </trkpt>
   <trkpt lat="-3.1808110" lon="37.2782750">
    <ele>1739.9</ele>
    <time>2026-06-20T10:45:37Z</time>
   </trkpt>
   <trkpt lat="-3.1808120" lon="37.2782790">
    <ele>1739.9</ele>
    <time>2026-06-20T10:45:38Z</time>
   </trkpt>
   <trkpt lat="-3.1808090" lon="37.2782810">
    <ele>1740.0</ele>
    <time>2026-06-20T10:45:39Z</time>
   </trkpt>
   <trkpt lat="-3.1808080" lon="37.2782830">
    <ele>1740.0</ele>
    <time>2026-06-20T10:45:40Z</time>
   </trkpt>
   <trkpt lat="-3.1807980" lon="37.2782850">
    <ele>1740.0</ele>
    <time>2026-06-20T10:45:41Z</time>
   </trkpt>
   <trkpt lat="-3.1807910" lon="37.2782940">
    <ele>1740.1</ele>
    <time>2026-06-20T10:45:42Z</time>
   </trkpt>
   <trkpt lat="-3.1807810" lon="37.2782980">
    <ele>1740.1</ele>
    <time>2026-06-20T10:45:43Z</time>
   </trkpt>
   <trkpt lat="-3.1807690" lon="37.2782990">
    <ele>1740.1</ele>
    <time>2026-06-20T10:45:44Z</time>
   </trkpt>
   <trkpt lat="-3.1807630" lon="37.2783040">
    <ele>1740.2</ele>
    <time>2026-06-20T10:45:45Z</time>
   </trkpt>
   <trkpt lat="-3.1807510" lon="37.2783030">
    <ele>1740.2</ele>
    <time>2026-06-20T10:45:46Z</time>
   </trkpt>
   <trkpt lat="-3.1807390" lon="37.2783050">
    <ele>1740.3</ele>
    <time>2026-06-20T10:45:47Z</time>
   </trkpt>
   <trkpt lat="-3.1807310" lon="37.2783080">
    <ele>1740.3</ele>
    <time>2026-06-20T10:45:48Z</time>
   </trkpt>
   <trkpt lat="-3.1807280" lon="37.2783130">
    <ele>1740.3</ele>
    <time>2026-06-20T10:45:49Z</time>
   </trkpt>
   <trkpt lat="-3.1807220" lon="37.2783180">
    <ele>1740.4</ele>
    <time>2026-06-20T10:45:50Z</time>
   </trkpt>
   <trkpt lat="-3.1807240" lon="37.2783150">
    <ele>1740.4</ele>
    <time>2026-06-20T10:45:51Z</time>
   </trkpt>
   <trkpt lat="-3.1807250" lon="37.2783130">
    <ele>1740.4</ele>
    <time>2026-06-20T10:45:52Z</time>
   </trkpt>
   <trkpt lat="-3.1807200" lon="37.2783190">
    <ele>1740.4</ele>
    <time>2026-06-20T10:45:53Z</time>
   </trkpt>
   <trkpt lat="-3.1807210" lon="37.2783260">
    <ele>1740.5</ele>
    <time>2026-06-20T10:45:54Z</time>
   </trkpt>
   <trkpt lat="-3.1807120" lon="37.2783270">
    <ele>1740.5</ele>
    <time>2026-06-20T10:45:55Z</time>
   </trkpt>
   <trkpt lat="-3.1807080" lon="37.2783320">
    <ele>1740.5</ele>
    <time>2026-06-20T10:45:56Z</time>
   </trkpt>
   <trkpt lat="-3.1807030" lon="37.2783350">
    <ele>1740.5</ele>
    <time>2026-06-20T10:45:57Z</time>
   </trkpt>
   <trkpt lat="-3.1806910" lon="37.2783430">
    <ele>1740.6</ele>
    <time>2026-06-20T10:45:58Z</time>
   </trkpt>
   <trkpt lat="-3.1806900" lon="37.2783490">
    <ele>1740.6</ele>
    <time>2026-06-20T10:45:59Z</time>
   </trkpt>
   <trkpt lat="-3.1806850" lon="37.2783550">
    <ele>1740.7</ele>
    <time>2026-06-20T10:46:00Z</time>
   </trkpt>
   <trkpt lat="-3.1806760" lon="37.2783660">
    <ele>1740.7</ele>
    <time>2026-06-20T10:46:01Z</time>
   </trkpt>
   <trkpt lat="-3.1806670" lon="37.2783710">
    <ele>1740.8</ele>
    <time>2026-06-20T10:46:02Z</time>
   </trkpt>
   <trkpt lat="-3.1806550" lon="37.2783740">
    <ele>1740.8</ele>
    <time>2026-06-20T10:46:03Z</time>
   </trkpt>
   <trkpt lat="-3.1806480" lon="37.2783760">
    <ele>1740.8</ele>
    <time>2026-06-20T10:46:04Z</time>
   </trkpt>
   <trkpt lat="-3.1806370" lon="37.2783790">
    <ele>1740.9</ele>
    <time>2026-06-20T10:46:05Z</time>
   </trkpt>
   <trkpt lat="-3.1806290" lon="37.2783800">
    <ele>1740.9</ele>
    <time>2026-06-20T10:46:06Z</time>
   </trkpt>
   <trkpt lat="-3.1806160" lon="37.2783870">
    <ele>1741.0</ele>
    <time>2026-06-20T10:46:07Z</time>
   </trkpt>
   <trkpt lat="-3.1806070" lon="37.2783920">
    <ele>1741.0</ele>
    <time>2026-06-20T10:46:08Z</time>
   </trkpt>
   <trkpt lat="-3.1805960" lon="37.2784040">
    <ele>1741.1</ele>
    <time>2026-06-20T10:46:09Z</time>
   </trkpt>
   <trkpt lat="-3.1805870" lon="37.2784080">
    <ele>1741.1</ele>
    <time>2026-06-20T10:46:10Z</time>
   </trkpt>
   <trkpt lat="-3.1805840" lon="37.2784200">
    <ele>1741.1</ele>
    <time>2026-06-20T10:46:11Z</time>
   </trkpt>
   <trkpt lat="-3.1805750" lon="37.2784270">
    <ele>1741.2</ele>
    <time>2026-06-20T10:46:13Z</time>
   </trkpt>
   <trkpt lat="-3.1805640" lon="37.2784330">
    <ele>1741.2</ele>
    <time>2026-06-20T10:46:14Z</time>
   </trkpt>
   <trkpt lat="-3.1805580" lon="37.2784380">
    <ele>1741.2</ele>
    <time>2026-06-20T10:46:15Z</time>
   </trkpt>
   <trkpt lat="-3.1805550" lon="37.2784390">
    <ele>1741.2</ele>
    <time>2026-06-20T10:46:16Z</time>
   </trkpt>
   <trkpt lat="-3.1805410" lon="37.2784460">
    <ele>1741.3</ele>
    <time>2026-06-20T10:46:17Z</time>
   </trkpt>
   <trkpt lat="-3.1805370" lon="37.2784540">
    <ele>1741.3</ele>
    <time>2026-06-20T10:46:18Z</time>
   </trkpt>
   <trkpt lat="-3.1805340" lon="37.2784560">
    <ele>1741.3</ele>
    <time>2026-06-20T10:46:19Z</time>
   </trkpt>
   <trkpt lat="-3.1805220" lon="37.2784600">
    <ele>1741.4</ele>
    <time>2026-06-20T10:46:20Z</time>
   </trkpt>
   <trkpt lat="-3.1805140" lon="37.2784630">
    <ele>1741.4</ele>
    <time>2026-06-20T10:46:21Z</time>
   </trkpt>
   <trkpt lat="-3.1805030" lon="37.2784680">
    <ele>1741.4</ele>
    <time>2026-06-20T10:46:22Z</time>
   </trkpt>
   <trkpt lat="-3.1805080" lon="37.2784750">
    <ele>1741.5</ele>
    <time>2026-06-20T10:46:23Z</time>
   </trkpt>
   <trkpt lat="-3.1805080" lon="37.2784760">
    <ele>1741.5</ele>
    <time>2026-06-20T10:46:24Z</time>
   </trkpt>
   <trkpt lat="-3.1805010" lon="37.2784820">
    <ele>1741.5</ele>
    <time>2026-06-20T10:46:25Z</time>
   </trkpt>
   <trkpt lat="-3.1804970" lon="37.2784860">
    <ele>1741.5</ele>
    <time>2026-06-20T10:46:26Z</time>
   </trkpt>
   <trkpt lat="-3.1804930" lon="37.2784830">
    <ele>1741.5</ele>
    <time>2026-06-20T10:46:27Z</time>
   </trkpt>
   <trkpt lat="-3.1804850" lon="37.2784830">
    <ele>1741.6</ele>
    <time>2026-06-20T10:46:28Z</time>
   </trkpt>
   <trkpt lat="-3.1804800" lon="37.2784820">
    <ele>1741.6</ele>
    <time>2026-06-20T10:46:29Z</time>
   </trkpt>
   <trkpt lat="-3.1804760" lon="37.2784850">
    <ele>1741.6</ele>
    <time>2026-06-20T10:46:30Z</time>
   </trkpt>
   <trkpt lat="-3.1804750" lon="37.2784870">
    <ele>1741.6</ele>
    <time>2026-06-20T10:46:31Z</time>
   </trkpt>
   <trkpt lat="-3.1804760" lon="37.2784950">
    <ele>1741.6</ele>
    <time>2026-06-20T10:46:32Z</time>
   </trkpt>
   <trkpt lat="-3.1804700" lon="37.2784940">
    <ele>1741.6</ele>
    <time>2026-06-20T10:46:33Z</time>
   </trkpt>
   <trkpt lat="-3.1804610" lon="37.2784930">
    <ele>1741.7</ele>
    <time>2026-06-20T10:46:34Z</time>
   </trkpt>
   <trkpt lat="-3.1804520" lon="37.2785020">
    <ele>1741.7</ele>
    <time>2026-06-20T10:46:35Z</time>
   </trkpt>
   <trkpt lat="-3.1804470" lon="37.2785070">
    <ele>1741.7</ele>
    <time>2026-06-20T10:46:36Z</time>
   </trkpt>
   <trkpt lat="-3.1804430" lon="37.2785160">
    <ele>1741.8</ele>
    <time>2026-06-20T10:46:37Z</time>
   </trkpt>
   <trkpt lat="-3.1804370" lon="37.2785180">
    <ele>1741.8</ele>
    <time>2026-06-20T10:46:38Z</time>
   </trkpt>
   <trkpt lat="-3.1804290" lon="37.2785250">
    <ele>1741.8</ele>
    <time>2026-06-20T10:46:39Z</time>
   </trkpt>
   <trkpt lat="-3.1804230" lon="37.2785290">
    <ele>1741.8</ele>
    <time>2026-06-20T10:46:40Z</time>
   </trkpt>
   <trkpt lat="-3.1804050" lon="37.2785350">
    <ele>1741.9</ele>
    <time>2026-06-20T10:46:41Z</time>
   </trkpt>
   <trkpt lat="-3.1804030" lon="37.2785350">
    <ele>1741.9</ele>
    <time>2026-06-20T10:46:42Z</time>
   </trkpt>
   <trkpt lat="-3.1803960" lon="37.2785350">
    <ele>1741.9</ele>
    <time>2026-06-20T10:46:43Z</time>
   </trkpt>
   <trkpt lat="-3.1803870" lon="37.2785440">
    <ele>1742.0</ele>
    <time>2026-06-20T10:46:44Z</time>
   </trkpt>
   <trkpt lat="-3.1803830" lon="37.2785520">
    <ele>1742.0</ele>
    <time>2026-06-20T10:46:45Z</time>
   </trkpt>
   <trkpt lat="-3.1803770" lon="37.2785550">
    <ele>1742.0</ele>
    <time>2026-06-20T10:46:46Z</time>
   </trkpt>
   <trkpt lat="-3.1803700" lon="37.2785570">
    <ele>1742.1</ele>
    <time>2026-06-20T10:46:47Z</time>
   </trkpt>
   <trkpt lat="-3.1803680" lon="37.2785610">
    <ele>1742.1</ele>
    <time>2026-06-20T10:46:48Z</time>
   </trkpt>
   <trkpt lat="-3.1803640" lon="37.2785610">
    <ele>1742.1</ele>
    <time>2026-06-20T10:46:49Z</time>
   </trkpt>
   <trkpt lat="-3.1803570" lon="37.2785640">
    <ele>1742.1</ele>
    <time>2026-06-20T10:46:50Z</time>
   </trkpt>
   <trkpt lat="-3.1803500" lon="37.2785660">
    <ele>1742.2</ele>
    <time>2026-06-20T10:46:51Z</time>
   </trkpt>
   <trkpt lat="-3.1803440" lon="37.2785700">
    <ele>1742.2</ele>
    <time>2026-06-20T10:46:52Z</time>
   </trkpt>
   <trkpt lat="-3.1803370" lon="37.2785710">
    <ele>1742.2</ele>
    <time>2026-06-20T10:46:53Z</time>
   </trkpt>
   <trkpt lat="-3.1803310" lon="37.2785750">
    <ele>1742.2</ele>
    <time>2026-06-20T10:46:54Z</time>
   </trkpt>
   <trkpt lat="-3.1803200" lon="37.2785800">
    <ele>1742.3</ele>
    <time>2026-06-20T10:46:55Z</time>
   </trkpt>
   <trkpt lat="-3.1803120" lon="37.2785790">
    <ele>1742.3</ele>
    <time>2026-06-20T10:46:56Z</time>
   </trkpt>
   <trkpt lat="-3.1803050" lon="37.2785850">
    <ele>1742.4</ele>
    <time>2026-06-20T10:46:57Z</time>
   </trkpt>
   <trkpt lat="-3.1802960" lon="37.2785840">
    <ele>1742.4</ele>
    <time>2026-06-20T10:46:58Z</time>
   </trkpt>
   <trkpt lat="-3.1802900" lon="37.2785890">
    <ele>1742.4</ele>
    <time>2026-06-20T10:46:59Z</time>
   </trkpt>
   <trkpt lat="-3.1802830" lon="37.2785940">
    <ele>1742.5</ele>
    <time>2026-06-20T10:47:00Z</time>
   </trkpt>
   <trkpt lat="-3.1802880" lon="37.2786030">
    <ele>1742.5</ele>
    <time>2026-06-20T10:47:01Z</time>
   </trkpt>
   <trkpt lat="-3.1802830" lon="37.2786060">
    <ele>1742.5</ele>
    <time>2026-06-20T10:47:02Z</time>
   </trkpt>
   <trkpt lat="-3.1802780" lon="37.2786110">
    <ele>1742.6</ele>
    <time>2026-06-20T10:47:03Z</time>
   </trkpt>
   <trkpt lat="-3.1802730" lon="37.2786140">
    <ele>1742.6</ele>
    <time>2026-06-20T10:47:04Z</time>
   </trkpt>
   <trkpt lat="-3.1802670" lon="37.2786200">
    <ele>1742.6</ele>
    <time>2026-06-20T10:47:05Z</time>
   </trkpt>
   <trkpt lat="-3.1802530" lon="37.2786260">
    <ele>1742.7</ele>
    <time>2026-06-20T10:47:06Z</time>
   </trkpt>
   <trkpt lat="-3.1802440" lon="37.2786340">
    <ele>1742.7</ele>
    <time>2026-06-20T10:47:07Z</time>
   </trkpt>
   <trkpt lat="-3.1802310" lon="37.2786390">
    <ele>1742.8</ele>
    <time>2026-06-20T10:47:08Z</time>
   </trkpt>
   <trkpt lat="-3.1802170" lon="37.2786460">
    <ele>1742.8</ele>
    <time>2026-06-20T10:47:09Z</time>
   </trkpt>
   <trkpt lat="-3.1802030" lon="37.2786550">
    <ele>1742.9</ele>
    <time>2026-06-20T10:47:10Z</time>
   </trkpt>
   <trkpt lat="-3.1801910" lon="37.2786580">
    <ele>1743.0</ele>
    <time>2026-06-20T10:47:11Z</time>
   </trkpt>
   <trkpt lat="-3.1801770" lon="37.2786640">
    <ele>1743.0</ele>
    <time>2026-06-20T10:47:12Z</time>
   </trkpt>
   <trkpt lat="-3.1801630" lon="37.2786740">
    <ele>1743.1</ele>
    <time>2026-06-20T10:47:13Z</time>
   </trkpt>
   <trkpt lat="-3.1801490" lon="37.2786840">
    <ele>1743.2</ele>
    <time>2026-06-20T10:47:14Z</time>
   </trkpt>
   <trkpt lat="-3.1801390" lon="37.2786880">
    <ele>1743.2</ele>
    <time>2026-06-20T10:47:15Z</time>
   </trkpt>
   <trkpt lat="-3.1801260" lon="37.2786940">
    <ele>1743.3</ele>
    <time>2026-06-20T10:47:16Z</time>
   </trkpt>
   <trkpt lat="-3.1801220" lon="37.2786990">
    <ele>1743.3</ele>
    <time>2026-06-20T10:47:17Z</time>
   </trkpt>
   <trkpt lat="-3.1801090" lon="37.2787020">
    <ele>1743.4</ele>
    <time>2026-06-20T10:47:18Z</time>
   </trkpt>
   <trkpt lat="-3.1801060" lon="37.2787080">
    <ele>1743.4</ele>
    <time>2026-06-20T10:47:19Z</time>
   </trkpt>
   <trkpt lat="-3.1801020" lon="37.2787130">
    <ele>1743.4</ele>
    <time>2026-06-20T10:47:20Z</time>
   </trkpt>
   <trkpt lat="-3.1800970" lon="37.2787120">
    <ele>1743.5</ele>
    <time>2026-06-20T10:47:21Z</time>
   </trkpt>
   <trkpt lat="-3.1800890" lon="37.2787150">
    <ele>1743.5</ele>
    <time>2026-06-20T10:47:22Z</time>
   </trkpt>
   <trkpt lat="-3.1800790" lon="37.2787200">
    <ele>1743.5</ele>
    <time>2026-06-20T10:47:23Z</time>
   </trkpt>
   <trkpt lat="-3.1800730" lon="37.2787260">
    <ele>1743.6</ele>
    <time>2026-06-20T10:47:24Z</time>
   </trkpt>
   <trkpt lat="-3.1800660" lon="37.2787280">
    <ele>1743.6</ele>
    <time>2026-06-20T10:47:25Z</time>
   </trkpt>
   <trkpt lat="-3.1800630" lon="37.2787330">
    <ele>1743.6</ele>
    <time>2026-06-20T10:47:26Z</time>
   </trkpt>
   <trkpt lat="-3.1800610" lon="37.2787310">
    <ele>1743.6</ele>
    <time>2026-06-20T10:47:27Z</time>
   </trkpt>
   <trkpt lat="-3.1800590" lon="37.2787280">
    <ele>1743.6</ele>
    <time>2026-06-20T10:47:28Z</time>
   </trkpt>
   <trkpt lat="-3.1800600" lon="37.2787260">
    <ele>1743.6</ele>
    <time>2026-06-20T10:47:29Z</time>
   </trkpt>
   <trkpt lat="-3.1800510" lon="37.2787230">
    <ele>1743.7</ele>
    <time>2026-06-20T10:47:30Z</time>
   </trkpt>
   <trkpt lat="-3.1800430" lon="37.2787240">
    <ele>1743.7</ele>
    <time>2026-06-20T10:47:31Z</time>
   </trkpt>
   <trkpt lat="-3.1800360" lon="37.2787250">
    <ele>1743.7</ele>
    <time>2026-06-20T10:47:32Z</time>
   </trkpt>
   <trkpt lat="-3.1800290" lon="37.2787310">
    <ele>1743.8</ele>
    <time>2026-06-20T10:47:33Z</time>
   </trkpt>
   <trkpt lat="-3.1800150" lon="37.2787380">
    <ele>1743.8</ele>
    <time>2026-06-20T10:47:34Z</time>
   </trkpt>
   <trkpt lat="-3.1800080" lon="37.2787390">
    <ele>1743.9</ele>
    <time>2026-06-20T10:47:35Z</time>
   </trkpt>
   <trkpt lat="-3.1800000" lon="37.2787490">
    <ele>1743.9</ele>
    <time>2026-06-20T10:47:36Z</time>
   </trkpt>
   <trkpt lat="-3.1799900" lon="37.2787600">
    <ele>1744.0</ele>
    <time>2026-06-20T10:47:37Z</time>
   </trkpt>
   <trkpt lat="-3.1799810" lon="37.2787610">
    <ele>1744.0</ele>
    <time>2026-06-20T10:47:38Z</time>
   </trkpt>
   <trkpt lat="-3.1799710" lon="37.2787650">
    <ele>1744.0</ele>
    <time>2026-06-20T10:47:39Z</time>
   </trkpt>
   <trkpt lat="-3.1799630" lon="37.2787700">
    <ele>1744.1</ele>
    <time>2026-06-20T10:47:40Z</time>
   </trkpt>
   <trkpt lat="-3.1799620" lon="37.2787750">
    <ele>1744.1</ele>
    <time>2026-06-20T10:47:41Z</time>
   </trkpt>
   <trkpt lat="-3.1799670" lon="37.2787730">
    <ele>1744.1</ele>
    <time>2026-06-20T10:47:42Z</time>
   </trkpt>
   <trkpt lat="-3.1799630" lon="37.2787750">
    <ele>1744.1</ele>
    <time>2026-06-20T10:47:43Z</time>
   </trkpt>
   <trkpt lat="-3.1799580" lon="37.2787780">
    <ele>1744.2</ele>
    <time>2026-06-20T10:47:44Z</time>
   </trkpt>
   <trkpt lat="-3.1799490" lon="37.2787900">
    <ele>1744.2</ele>
    <time>2026-06-20T10:47:45Z</time>
   </trkpt>
   <trkpt lat="-3.1799420" lon="37.2787970">
    <ele>1744.2</ele>
    <time>2026-06-20T10:47:46Z</time>
   </trkpt>
   <trkpt lat="-3.1799360" lon="37.2788000">
    <ele>1744.3</ele>
    <time>2026-06-20T10:47:47Z</time>
   </trkpt>
   <trkpt lat="-3.1799300" lon="37.2788020">
    <ele>1744.3</ele>
    <time>2026-06-20T10:47:48Z</time>
   </trkpt>
   <trkpt lat="-3.1799160" lon="37.2788040">
    <ele>1744.4</ele>
    <time>2026-06-20T10:47:49Z</time>
   </trkpt>
   <trkpt lat="-3.1799060" lon="37.2788060">
    <ele>1744.4</ele>
    <time>2026-06-20T10:47:50Z</time>
   </trkpt>
   <trkpt lat="-3.1798940" lon="37.2788110">
    <ele>1744.5</ele>
    <time>2026-06-20T10:47:51Z</time>
   </trkpt>
   <trkpt lat="-3.1798900" lon="37.2788090">
    <ele>1744.5</ele>
    <time>2026-06-20T10:47:52Z</time>
   </trkpt>
   <trkpt lat="-3.1798790" lon="37.2788080">
    <ele>1744.5</ele>
    <time>2026-06-20T10:47:53Z</time>
   </trkpt>
   <trkpt lat="-3.1798650" lon="37.2788160">
    <ele>1744.6</ele>
    <time>2026-06-20T10:47:54Z</time>
   </trkpt>
   <trkpt lat="-3.1798590" lon="37.2788240">
    <ele>1744.7</ele>
    <time>2026-06-20T10:47:55Z</time>
   </trkpt>
   <trkpt lat="-3.1798560" lon="37.2788260">
    <ele>1744.7</ele>
    <time>2026-06-20T10:47:56Z</time>
   </trkpt>
   <trkpt lat="-3.1798480" lon="37.2788310">
    <ele>1744.7</ele>
    <time>2026-06-20T10:47:57Z</time>
   </trkpt>
   <trkpt lat="-3.1798390" lon="37.2788360">
    <ele>1744.8</ele>
    <time>2026-06-20T10:47:58Z</time>
   </trkpt>
   <trkpt lat="-3.1798350" lon="37.2788390">
    <ele>1744.8</ele>
    <time>2026-06-20T10:47:59Z</time>
   </trkpt>
   <trkpt lat="-3.1798220" lon="37.2788440">
    <ele>1744.9</ele>
    <time>2026-06-20T10:48:00Z</time>
   </trkpt>
   <trkpt lat="-3.1798180" lon="37.2788490">
    <ele>1744.9</ele>
    <time>2026-06-20T10:48:01Z</time>
   </trkpt>
   <trkpt lat="-3.1798200" lon="37.2788600">
    <ele>1745.0</ele>
    <time>2026-06-20T10:48:02Z</time>
   </trkpt>
   <trkpt lat="-3.1798220" lon="37.2788680">
    <ele>1745.0</ele>
    <time>2026-06-20T10:48:03Z</time>
   </trkpt>
   <trkpt lat="-3.1798190" lon="37.2788660">
    <ele>1745.0</ele>
    <time>2026-06-20T10:48:04Z</time>
   </trkpt>
   <trkpt lat="-3.1798130" lon="37.2788710">
    <ele>1745.1</ele>
    <time>2026-06-20T10:48:05Z</time>
   </trkpt>
   <trkpt lat="-3.1798060" lon="37.2788750">
    <ele>1745.1</ele>
    <time>2026-06-20T10:48:06Z</time>
   </trkpt>
   <trkpt lat="-3.1798010" lon="37.2788810">
    <ele>1745.1</ele>
    <time>2026-06-20T10:48:07Z</time>
   </trkpt>
   <trkpt lat="-3.1797940" lon="37.2788890">
    <ele>1745.2</ele>
    <time>2026-06-20T10:48:08Z</time>
   </trkpt>
   <trkpt lat="-3.1797890" lon="37.2788920">
    <ele>1745.2</ele>
    <time>2026-06-20T10:48:09Z</time>
   </trkpt>
   <trkpt lat="-3.1797800" lon="37.2789000">
    <ele>1745.3</ele>
    <time>2026-06-20T10:48:10Z</time>
   </trkpt>
   <trkpt lat="-3.1797740" lon="37.2789090">
    <ele>1745.3</ele>
    <time>2026-06-20T10:48:11Z</time>
   </trkpt>
   <trkpt lat="-3.1797580" lon="37.2789170">
    <ele>1745.4</ele>
    <time>2026-06-20T10:48:12Z</time>
   </trkpt>
   <trkpt lat="-3.1797500" lon="37.2789190">
    <ele>1745.4</ele>
    <time>2026-06-20T10:48:13Z</time>
   </trkpt>
   <trkpt lat="-3.1797420" lon="37.2789230">
    <ele>1745.5</ele>
    <time>2026-06-20T10:48:14Z</time>
   </trkpt>
   <trkpt lat="-3.1797320" lon="37.2789310">
    <ele>1745.6</ele>
    <time>2026-06-20T10:48:15Z</time>
   </trkpt>
   <trkpt lat="-3.1797230" lon="37.2789340">
    <ele>1745.6</ele>
    <time>2026-06-20T10:48:16Z</time>
   </trkpt>
   <trkpt lat="-3.1797130" lon="37.2789330">
    <ele>1745.7</ele>
    <time>2026-06-20T10:48:17Z</time>
   </trkpt>
   <trkpt lat="-3.1797020" lon="37.2789350">
    <ele>1745.7</ele>
    <time>2026-06-20T10:48:19Z</time>
   </trkpt>
   <trkpt lat="-3.1796920" lon="37.2789390">
    <ele>1745.8</ele>
    <time>2026-06-20T10:48:20Z</time>
   </trkpt>
   <trkpt lat="-3.1796850" lon="37.2789390">
    <ele>1745.8</ele>
    <time>2026-06-20T10:48:21Z</time>
   </trkpt>
   <trkpt lat="-3.1796740" lon="37.2789440">
    <ele>1745.9</ele>
    <time>2026-06-20T10:48:22Z</time>
   </trkpt>
   <trkpt lat="-3.1796630" lon="37.2789540">
    <ele>1745.9</ele>
    <time>2026-06-20T10:48:23Z</time>
   </trkpt>
   <trkpt lat="-3.1796560" lon="37.2789620">
    <ele>1746.0</ele>
    <time>2026-06-20T10:48:24Z</time>
   </trkpt>
   <trkpt lat="-3.1796490" lon="37.2789680">
    <ele>1746.1</ele>
    <time>2026-06-20T10:48:25Z</time>
   </trkpt>
   <trkpt lat="-3.1796440" lon="37.2789730">
    <ele>1746.1</ele>
    <time>2026-06-20T10:48:26Z</time>
   </trkpt>
   <trkpt lat="-3.1796330" lon="37.2789820">
    <ele>1746.2</ele>
    <time>2026-06-20T10:48:27Z</time>
   </trkpt>
   <trkpt lat="-3.1796270" lon="37.2789890">
    <ele>1746.2</ele>
    <time>2026-06-20T10:48:28Z</time>
   </trkpt>
   <trkpt lat="-3.1796200" lon="37.2789910">
    <ele>1746.3</ele>
    <time>2026-06-20T10:48:29Z</time>
   </trkpt>
   <trkpt lat="-3.1796160" lon="37.2789970">
    <ele>1746.3</ele>
    <time>2026-06-20T10:48:30Z</time>
   </trkpt>
   <trkpt lat="-3.1796120" lon="37.2790020">
    <ele>1746.3</ele>
    <time>2026-06-20T10:48:31Z</time>
   </trkpt>
   <trkpt lat="-3.1796070" lon="37.2790040">
    <ele>1746.4</ele>
    <time>2026-06-20T10:48:32Z</time>
   </trkpt>
   <trkpt lat="-3.1796070" lon="37.2790070">
    <ele>1746.4</ele>
    <time>2026-06-20T10:48:33Z</time>
   </trkpt>
   <trkpt lat="-3.1796020" lon="37.2790090">
    <ele>1746.4</ele>
    <time>2026-06-20T10:48:34Z</time>
   </trkpt>
   <trkpt lat="-3.1795990" lon="37.2790140">
    <ele>1746.5</ele>
    <time>2026-06-20T10:48:35Z</time>
   </trkpt>
   <trkpt lat="-3.1795940" lon="37.2790130">
    <ele>1746.5</ele>
    <time>2026-06-20T10:48:36Z</time>
   </trkpt>
   <trkpt lat="-3.1795840" lon="37.2790160">
    <ele>1746.6</ele>
    <time>2026-06-20T10:48:37Z</time>
   </trkpt>
   <trkpt lat="-3.1795810" lon="37.2790130">
    <ele>1746.6</ele>
    <time>2026-06-20T10:48:38Z</time>
   </trkpt>
   <trkpt lat="-3.1795790" lon="37.2790160">
    <ele>1746.6</ele>
    <time>2026-06-20T10:48:39Z</time>
   </trkpt>
   <trkpt lat="-3.1795610" lon="37.2790160">
    <ele>1746.7</ele>
    <time>2026-06-20T10:48:40Z</time>
   </trkpt>
   <trkpt lat="-3.1795610" lon="37.2790250">
    <ele>1746.8</ele>
    <time>2026-06-20T10:48:41Z</time>
   </trkpt>
   <trkpt lat="-3.1795550" lon="37.2790310">
    <ele>1746.8</ele>
    <time>2026-06-20T10:48:42Z</time>
   </trkpt>
   <trkpt lat="-3.1795420" lon="37.2790320">
    <ele>1746.9</ele>
    <time>2026-06-20T10:48:43Z</time>
   </trkpt>
   <trkpt lat="-3.1795230" lon="37.2790370">
    <ele>1747.0</ele>
    <time>2026-06-20T10:48:44Z</time>
   </trkpt>
   <trkpt lat="-3.1795270" lon="37.2790390">
    <ele>1747.1</ele>
    <time>2026-06-20T10:48:45Z</time>
   </trkpt>
   <trkpt lat="-3.1795300" lon="37.2790400">
    <ele>1747.1</ele>
    <time>2026-06-20T10:48:46Z</time>
   </trkpt>
   <trkpt lat="-3.1795290" lon="37.2790510">
    <ele>1747.2</ele>
    <time>2026-06-20T10:48:47Z</time>
   </trkpt>
   <trkpt lat="-3.1795300" lon="37.2790540">
    <ele>1747.2</ele>
    <time>2026-06-20T10:48:48Z</time>
   </trkpt>
   <trkpt lat="-3.1795250" lon="37.2790600">
    <ele>1747.2</ele>
    <time>2026-06-20T10:48:49Z</time>
   </trkpt>
   <trkpt lat="-3.1795240" lon="37.2790640">
    <ele>1747.3</ele>
    <time>2026-06-20T10:48:50Z</time>
   </trkpt>
   <trkpt lat="-3.1795230" lon="37.2790640">
    <ele>1747.3</ele>
    <time>2026-06-20T10:48:51Z</time>
   </trkpt>
   <trkpt lat="-3.1795130" lon="37.2790700">
    <ele>1747.4</ele>
    <time>2026-06-20T10:48:52Z</time>
   </trkpt>
   <trkpt lat="-3.1794990" lon="37.2790760">
    <ele>1747.5</ele>
    <time>2026-06-20T10:48:53Z</time>
   </trkpt>
   <trkpt lat="-3.1794970" lon="37.2790770">
    <ele>1747.5</ele>
    <time>2026-06-20T10:48:54Z</time>
   </trkpt>
   <trkpt lat="-3.1794920" lon="37.2790790">
    <ele>1747.5</ele>
    <time>2026-06-20T10:48:55Z</time>
   </trkpt>
   <trkpt lat="-3.1794770" lon="37.2790820">
    <ele>1747.7</ele>
    <time>2026-06-20T10:48:56Z</time>
   </trkpt>
   <trkpt lat="-3.1794730" lon="37.2790890">
    <ele>1747.7</ele>
    <time>2026-06-20T10:48:57Z</time>
   </trkpt>
   <trkpt lat="-3.1794630" lon="37.2790940">
    <ele>1747.8</ele>
    <time>2026-06-20T10:48:58Z</time>
   </trkpt>
   <trkpt lat="-3.1794540" lon="37.2791000">
    <ele>1747.9</ele>
    <time>2026-06-20T10:48:59Z</time>
   </trkpt>
   <trkpt lat="-3.1794480" lon="37.2791040">
    <ele>1747.9</ele>
    <time>2026-06-20T10:49:00Z</time>
   </trkpt>
   <trkpt lat="-3.1794400" lon="37.2791060">
    <ele>1748.0</ele>
    <time>2026-06-20T10:49:01Z</time>
   </trkpt>
   <trkpt lat="-3.1794360" lon="37.2791140">
    <ele>1748.1</ele>
    <time>2026-06-20T10:49:02Z</time>
   </trkpt>
   <trkpt lat="-3.1794290" lon="37.2791160">
    <ele>1748.1</ele>
    <time>2026-06-20T10:49:03Z</time>
   </trkpt>
   <trkpt lat="-3.1794130" lon="37.2791160">
    <ele>1748.3</ele>
    <time>2026-06-20T10:49:04Z</time>
   </trkpt>
   <trkpt lat="-3.1794150" lon="37.2791210">
    <ele>1748.3</ele>
    <time>2026-06-20T10:49:05Z</time>
   </trkpt>
   <trkpt lat="-3.1794110" lon="37.2791270">
    <ele>1748.4</ele>
    <time>2026-06-20T10:49:06Z</time>
   </trkpt>
   <trkpt lat="-3.1794050" lon="37.2791300">
    <ele>1748.4</ele>
    <time>2026-06-20T10:49:07Z</time>
   </trkpt>
   <trkpt lat="-3.1793970" lon="37.2791320">
    <ele>1748.5</ele>
    <time>2026-06-20T10:49:08Z</time>
   </trkpt>
   <trkpt lat="-3.1793870" lon="37.2791320">
    <ele>1748.6</ele>
    <time>2026-06-20T10:49:09Z</time>
   </trkpt>
   <trkpt lat="-3.1793830" lon="37.2791350">
    <ele>1748.6</ele>
    <time>2026-06-20T10:49:10Z</time>
   </trkpt>
   <trkpt lat="-3.1793740" lon="37.2791360">
    <ele>1748.7</ele>
    <time>2026-06-20T10:49:11Z</time>
   </trkpt>
   <trkpt lat="-3.1793660" lon="37.2791380">
    <ele>1748.8</ele>
    <time>2026-06-20T10:49:12Z</time>
   </trkpt>
   <trkpt lat="-3.1793590" lon="37.2791430">
    <ele>1748.8</ele>
    <time>2026-06-20T10:49:13Z</time>
   </trkpt>
   <trkpt lat="-3.1793550" lon="37.2791470">
    <ele>1748.9</ele>
    <time>2026-06-20T10:49:14Z</time>
   </trkpt>
   <trkpt lat="-3.1793450" lon="37.2791530">
    <ele>1749.0</ele>
    <time>2026-06-20T10:49:15Z</time>
   </trkpt>
   <trkpt lat="-3.1793430" lon="37.2791560">
    <ele>1749.0</ele>
    <time>2026-06-20T10:49:16Z</time>
   </trkpt>
   <trkpt lat="-3.1793320" lon="37.2791600">
    <ele>1749.1</ele>
    <time>2026-06-20T10:49:17Z</time>
   </trkpt>
   <trkpt lat="-3.1793260" lon="37.2791620">
    <ele>1749.2</ele>
    <time>2026-06-20T10:49:18Z</time>
   </trkpt>
   <trkpt lat="-3.1793160" lon="37.2791660">
    <ele>1749.3</ele>
    <time>2026-06-20T10:49:19Z</time>
   </trkpt>
   <trkpt lat="-3.1793070" lon="37.2791680">
    <ele>1749.4</ele>
    <time>2026-06-20T10:49:20Z</time>
   </trkpt>
   <trkpt lat="-3.1792960" lon="37.2791720">
    <ele>1749.5</ele>
    <time>2026-06-20T10:49:21Z</time>
   </trkpt>
   <trkpt lat="-3.1792900" lon="37.2791740">
    <ele>1749.5</ele>
    <time>2026-06-20T10:49:22Z</time>
   </trkpt>
   <trkpt lat="-3.1792800" lon="37.2791790">
    <ele>1749.7</ele>
    <time>2026-06-20T10:49:23Z</time>
   </trkpt>
   <trkpt lat="-3.1792720" lon="37.2791830">
    <ele>1749.7</ele>
    <time>2026-06-20T10:49:24Z</time>
   </trkpt>
   <trkpt lat="-3.1792640" lon="37.2791840">
    <ele>1749.8</ele>
    <time>2026-06-20T10:49:25Z</time>
   </trkpt>
   <trkpt lat="-3.1792640" lon="37.2791900">
    <ele>1749.9</ele>
    <time>2026-06-20T10:49:26Z</time>
   </trkpt>
   <trkpt lat="-3.1792640" lon="37.2791970">
    <ele>1749.9</ele>
    <time>2026-06-20T10:49:27Z</time>
   </trkpt>
   <trkpt lat="-3.1792540" lon="37.2792060">
    <ele>1750.0</ele>
    <time>2026-06-20T10:49:28Z</time>
   </trkpt>
   <trkpt lat="-3.1792440" lon="37.2792180">
    <ele>1750.2</ele>
    <time>2026-06-20T10:49:29Z</time>
   </trkpt>
   <trkpt lat="-3.1792420" lon="37.2792220">
    <ele>1750.2</ele>
    <time>2026-06-20T10:49:30Z</time>
   </trkpt>
   <trkpt lat="-3.1792370" lon="37.2792250">
    <ele>1750.3</ele>
    <time>2026-06-20T10:49:31Z</time>
   </trkpt>
   <trkpt lat="-3.1792310" lon="37.2792310">
    <ele>1750.4</ele>
    <time>2026-06-20T10:49:32Z</time>
   </trkpt>
   <trkpt lat="-3.1792210" lon="37.2792370">
    <ele>1750.5</ele>
    <time>2026-06-20T10:49:33Z</time>
   </trkpt>
   <trkpt lat="-3.1792170" lon="37.2792400">
    <ele>1750.5</ele>
    <time>2026-06-20T10:49:34Z</time>
   </trkpt>
   <trkpt lat="-3.1792090" lon="37.2792430">
    <ele>1750.6</ele>
    <time>2026-06-20T10:49:35Z</time>
   </trkpt>
   <trkpt lat="-3.1792050" lon="37.2792400">
    <ele>1750.6</ele>
    <time>2026-06-20T10:49:36Z</time>
   </trkpt>
   <trkpt lat="-3.1792070" lon="37.2792370">
    <ele>1750.7</ele>
    <time>2026-06-20T10:49:37Z</time>
   </trkpt>
   <trkpt lat="-3.1792030" lon="37.2792390">
    <ele>1750.7</ele>
    <time>2026-06-20T10:49:38Z</time>
   </trkpt>
   <trkpt lat="-3.1791950" lon="37.2792390">
    <ele>1750.8</ele>
    <time>2026-06-20T10:49:39Z</time>
   </trkpt>
   <trkpt lat="-3.1791880" lon="37.2792440">
    <ele>1750.9</ele>
    <time>2026-06-20T10:49:40Z</time>
   </trkpt>
   <trkpt lat="-3.1791800" lon="37.2792450">
    <ele>1750.9</ele>
    <time>2026-06-20T10:49:41Z</time>
   </trkpt>
   <trkpt lat="-3.1791740" lon="37.2792510">
    <ele>1751.0</ele>
    <time>2026-06-20T10:49:42Z</time>
   </trkpt>
   <trkpt lat="-3.1791630" lon="37.2792610">
    <ele>1751.2</ele>
    <time>2026-06-20T10:49:43Z</time>
   </trkpt>
   <trkpt lat="-3.1791560" lon="37.2792610">
    <ele>1751.2</ele>
    <time>2026-06-20T10:49:44Z</time>
   </trkpt>
   <trkpt lat="-3.1791520" lon="37.2792640">
    <ele>1751.3</ele>
    <time>2026-06-20T10:49:45Z</time>
   </trkpt>
   <trkpt lat="-3.1791440" lon="37.2792650">
    <ele>1751.3</ele>
    <time>2026-06-20T10:49:46Z</time>
   </trkpt>
   <trkpt lat="-3.1791430" lon="37.2792690">
    <ele>1751.4</ele>
    <time>2026-06-20T10:49:47Z</time>
   </trkpt>
   <trkpt lat="-3.1791360" lon="37.2792750">
    <ele>1751.5</ele>
    <time>2026-06-20T10:49:48Z</time>
   </trkpt>
   <trkpt lat="-3.1791330" lon="37.2792740">
    <ele>1751.5</ele>
    <time>2026-06-20T10:49:49Z</time>
   </trkpt>
   <trkpt lat="-3.1791280" lon="37.2792760">
    <ele>1751.5</ele>
    <time>2026-06-20T10:49:50Z</time>
   </trkpt>
   <trkpt lat="-3.1791330" lon="37.2792780">
    <ele>1751.6</ele>
    <time>2026-06-20T10:49:51Z</time>
   </trkpt>
   <trkpt lat="-3.1791210" lon="37.2792840">
    <ele>1751.7</ele>
    <time>2026-06-20T10:49:52Z</time>
   </trkpt>
   <trkpt lat="-3.1791190" lon="37.2792850">
    <ele>1751.7</ele>
    <time>2026-06-20T10:49:53Z</time>
   </trkpt>
   <trkpt lat="-3.1791130" lon="37.2792870">
    <ele>1751.8</ele>
    <time>2026-06-20T10:49:54Z</time>
   </trkpt>
   <trkpt lat="-3.1791160" lon="37.2792930">
    <ele>1751.9</ele>
    <time>2026-06-20T10:49:55Z</time>
   </trkpt>
   <trkpt lat="-3.1791130" lon="37.2793000">
    <ele>1751.9</ele>
    <time>2026-06-20T10:49:56Z</time>
   </trkpt>
   <trkpt lat="-3.1791000" lon="37.2793020">
    <ele>1752.1</ele>
    <time>2026-06-20T10:49:57Z</time>
   </trkpt>
   <trkpt lat="-3.1790950" lon="37.2793050">
    <ele>1752.1</ele>
    <time>2026-06-20T10:49:58Z</time>
   </trkpt>
   <trkpt lat="-3.1790920" lon="37.2793090">
    <ele>1752.2</ele>
    <time>2026-06-20T10:49:59Z</time>
   </trkpt>
   <trkpt lat="-3.1790810" lon="37.2793180">
    <ele>1752.3</ele>
    <time>2026-06-20T10:50:00Z</time>
   </trkpt>
   <trkpt lat="-3.1790720" lon="37.2793200">
    <ele>1752.4</ele>
    <time>2026-06-20T10:50:01Z</time>
   </trkpt>
   <trkpt lat="-3.1790690" lon="37.2793190">
    <ele>1752.4</ele>
    <time>2026-06-20T10:50:02Z</time>
   </trkpt>
   <trkpt lat="-3.1790600" lon="37.2793250">
    <ele>1752.5</ele>
    <time>2026-06-20T10:50:03Z</time>
   </trkpt>
   <trkpt lat="-3.1790530" lon="37.2793360">
    <ele>1752.6</ele>
    <time>2026-06-20T10:50:04Z</time>
   </trkpt>
   <trkpt lat="-3.1790430" lon="37.2793460">
    <ele>1752.8</ele>
    <time>2026-06-20T10:50:05Z</time>
   </trkpt>
   <trkpt lat="-3.1790390" lon="37.2793530">
    <ele>1752.8</ele>
    <time>2026-06-20T10:50:06Z</time>
   </trkpt>
   <trkpt lat="-3.1790340" lon="37.2793580">
    <ele>1752.9</ele>
    <time>2026-06-20T10:50:07Z</time>
   </trkpt>
   <trkpt lat="-3.1790260" lon="37.2793640">
    <ele>1753.0</ele>
    <time>2026-06-20T10:50:08Z</time>
   </trkpt>
   <trkpt lat="-3.1790220" lon="37.2793680">
    <ele>1753.1</ele>
    <time>2026-06-20T10:50:09Z</time>
   </trkpt>
   <trkpt lat="-3.1790120" lon="37.2793760">
    <ele>1753.2</ele>
    <time>2026-06-20T10:50:10Z</time>
   </trkpt>
   <trkpt lat="-3.1790050" lon="37.2793810">
    <ele>1753.3</ele>
    <time>2026-06-20T10:50:11Z</time>
   </trkpt>
   <trkpt lat="-3.1789970" lon="37.2793850">
    <ele>1753.3</ele>
    <time>2026-06-20T10:50:12Z</time>
   </trkpt>
   <trkpt lat="-3.1789860" lon="37.2793910">
    <ele>1753.5</ele>
    <time>2026-06-20T10:50:13Z</time>
   </trkpt>
   <trkpt lat="-3.1789810" lon="37.2793950">
    <ele>1753.5</ele>
    <time>2026-06-20T10:50:14Z</time>
   </trkpt>
   <trkpt lat="-3.1789720" lon="37.2794010">
    <ele>1753.6</ele>
    <time>2026-06-20T10:50:15Z</time>
   </trkpt>
   <trkpt lat="-3.1789650" lon="37.2793920">
    <ele>1753.7</ele>
    <time>2026-06-20T10:50:16Z</time>
   </trkpt>
   <trkpt lat="-3.1789570" lon="37.2793930">
    <ele>1753.8</ele>
    <time>2026-06-20T10:50:17Z</time>
   </trkpt>
   <trkpt lat="-3.1789580" lon="37.2794010">
    <ele>1753.9</ele>
    <time>2026-06-20T10:50:18Z</time>
   </trkpt>
   <trkpt lat="-3.1789550" lon="37.2794030">
    <ele>1753.9</ele>
    <time>2026-06-20T10:50:19Z</time>
   </trkpt>
   <trkpt lat="-3.1789440" lon="37.2794060">
    <ele>1754.0</ele>
    <time>2026-06-20T10:50:20Z</time>
   </trkpt>
   <trkpt lat="-3.1789340" lon="37.2794100">
    <ele>1754.1</ele>
    <time>2026-06-20T10:50:21Z</time>
   </trkpt>
   <trkpt lat="-3.1789250" lon="37.2794100">
    <ele>1754.2</ele>
    <time>2026-06-20T10:50:22Z</time>
   </trkpt>
   <trkpt lat="-3.1789140" lon="37.2794140">
    <ele>1754.3</ele>
    <time>2026-06-20T10:50:23Z</time>
   </trkpt>
   <trkpt lat="-3.1789020" lon="37.2794220">
    <ele>1754.5</ele>
    <time>2026-06-20T10:50:25Z</time>
   </trkpt>
   <trkpt lat="-3.1788980" lon="37.2794200">
    <ele>1754.5</ele>
    <time>2026-06-20T10:50:26Z</time>
   </trkpt>
   <trkpt lat="-3.1788870" lon="37.2794320">
    <ele>1754.7</ele>
    <time>2026-06-20T10:50:27Z</time>
   </trkpt>
   <trkpt lat="-3.1788780" lon="37.2794380">
    <ele>1754.8</ele>
    <time>2026-06-20T10:50:28Z</time>
   </trkpt>
   <trkpt lat="-3.1788650" lon="37.2794420">
    <ele>1754.9</ele>
    <time>2026-06-20T10:50:29Z</time>
   </trkpt>
   <trkpt lat="-3.1788620" lon="37.2794470">
    <ele>1755.0</ele>
    <time>2026-06-20T10:50:30Z</time>
   </trkpt>
   <trkpt lat="-3.1788530" lon="37.2794530">
    <ele>1755.1</ele>
    <time>2026-06-20T10:50:31Z</time>
   </trkpt>
   <trkpt lat="-3.1788390" lon="37.2794600">
    <ele>1755.2</ele>
    <time>2026-06-20T10:50:32Z</time>
   </trkpt>
   <trkpt lat="-3.1788380" lon="37.2794610">
    <ele>1755.2</ele>
    <time>2026-06-20T10:50:33Z</time>
   </trkpt>
   <trkpt lat="-3.1788280" lon="37.2794680">
    <ele>1755.4</ele>
    <time>2026-06-20T10:50:34Z</time>
   </trkpt>
   <trkpt lat="-3.1788170" lon="37.2794710">
    <ele>1755.5</ele>
    <time>2026-06-20T10:50:35Z</time>
   </trkpt>
   <trkpt lat="-3.1788040" lon="37.2794790">
    <ele>1755.6</ele>
    <time>2026-06-20T10:50:36Z</time>
   </trkpt>
   <trkpt lat="-3.1787950" lon="37.2794850">
    <ele>1755.7</ele>
    <time>2026-06-20T10:50:37Z</time>
   </trkpt>
   <trkpt lat="-3.1787790" lon="37.2794910">
    <ele>1755.9</ele>
    <time>2026-06-20T10:50:38Z</time>
   </trkpt>
   <trkpt lat="-3.1787660" lon="37.2794960">
    <ele>1756.0</ele>
    <time>2026-06-20T10:50:39Z</time>
   </trkpt>
   <trkpt lat="-3.1787560" lon="37.2794980">
    <ele>1756.1</ele>
    <time>2026-06-20T10:50:40Z</time>
   </trkpt>
   <trkpt lat="-3.1787450" lon="37.2795020">
    <ele>1756.2</ele>
    <time>2026-06-20T10:50:41Z</time>
   </trkpt>
   <trkpt lat="-3.1787360" lon="37.2795080">
    <ele>1756.3</ele>
    <time>2026-06-20T10:50:42Z</time>
   </trkpt>
   <trkpt lat="-3.1787270" lon="37.2795150">
    <ele>1756.5</ele>
    <time>2026-06-20T10:50:43Z</time>
   </trkpt>
   <trkpt lat="-3.1787160" lon="37.2795190">
    <ele>1756.6</ele>
    <time>2026-06-20T10:50:44Z</time>
   </trkpt>
   <trkpt lat="-3.1787140" lon="37.2795180">
    <ele>1756.6</ele>
    <time>2026-06-20T10:50:45Z</time>
   </trkpt>
   <trkpt lat="-3.1787030" lon="37.2795250">
    <ele>1756.7</ele>
    <time>2026-06-20T10:50:46Z</time>
   </trkpt>
   <trkpt lat="-3.1786970" lon="37.2795270">
    <ele>1756.8</ele>
    <time>2026-06-20T10:50:47Z</time>
   </trkpt>
   <trkpt lat="-3.1786880" lon="37.2795350">
    <ele>1756.9</ele>
    <time>2026-06-20T10:50:48Z</time>
   </trkpt>
   <trkpt lat="-3.1786680" lon="37.2795420">
    <ele>1757.1</ele>
    <time>2026-06-20T10:50:49Z</time>
   </trkpt>
   <trkpt lat="-3.1786610" lon="37.2795450">
    <ele>1757.2</ele>
    <time>2026-06-20T10:50:50Z</time>
   </trkpt>
   <trkpt lat="-3.1786570" lon="37.2795500">
    <ele>1757.2</ele>
    <time>2026-06-20T10:50:51Z</time>
   </trkpt>
   <trkpt lat="-3.1786560" lon="37.2795530">
    <ele>1757.3</ele>
    <time>2026-06-20T10:50:52Z</time>
   </trkpt>
   <trkpt lat="-3.1786520" lon="37.2795630">
    <ele>1757.4</ele>
    <time>2026-06-20T10:50:53Z</time>
   </trkpt>
   <trkpt lat="-3.1786470" lon="37.2795710">
    <ele>1757.4</ele>
    <time>2026-06-20T10:50:54Z</time>
   </trkpt>
   <trkpt lat="-3.1786380" lon="37.2795760">
    <ele>1757.5</ele>
    <time>2026-06-20T10:50:55Z</time>
   </trkpt>
   <trkpt lat="-3.1786330" lon="37.2795810">
    <ele>1757.6</ele>
    <time>2026-06-20T10:50:56Z</time>
   </trkpt>
   <trkpt lat="-3.1786260" lon="37.2795850">
    <ele>1757.7</ele>
    <time>2026-06-20T10:50:57Z</time>
   </trkpt>
   <trkpt lat="-3.1786180" lon="37.2795880">
    <ele>1757.7</ele>
    <time>2026-06-20T10:50:58Z</time>
   </trkpt>
   <trkpt lat="-3.1786120" lon="37.2795950">
    <ele>1757.8</ele>
    <time>2026-06-20T10:50:59Z</time>
   </trkpt>
   <trkpt lat="-3.1786050" lon="37.2796020">
    <ele>1757.9</ele>
    <time>2026-06-20T10:51:00Z</time>
   </trkpt>
   <trkpt lat="-3.1785960" lon="37.2796000">
    <ele>1758.0</ele>
    <time>2026-06-20T10:51:01Z</time>
   </trkpt>
   <trkpt lat="-3.1785880" lon="37.2796070">
    <ele>1758.1</ele>
    <time>2026-06-20T10:51:02Z</time>
   </trkpt>
   <trkpt lat="-3.1785840" lon="37.2796090">
    <ele>1758.1</ele>
    <time>2026-06-20T10:51:03Z</time>
   </trkpt>
   <trkpt lat="-3.1785800" lon="37.2796050">
    <ele>1758.1</ele>
    <time>2026-06-20T10:51:04Z</time>
   </trkpt>
   <trkpt lat="-3.1785700" lon="37.2796070">
    <ele>1758.2</ele>
    <time>2026-06-20T10:51:05Z</time>
   </trkpt>
   <trkpt lat="-3.1785570" lon="37.2796110">
    <ele>1758.3</ele>
    <time>2026-06-20T10:51:06Z</time>
   </trkpt>
   <trkpt lat="-3.1785500" lon="37.2796170">
    <ele>1758.4</ele>
    <time>2026-06-20T10:51:07Z</time>
   </trkpt>
   <trkpt lat="-3.1785410" lon="37.2796230">
    <ele>1758.5</ele>
    <time>2026-06-20T10:51:08Z</time>
   </trkpt>
   <trkpt lat="-3.1785390" lon="37.2796240">
    <ele>1758.5</ele>
    <time>2026-06-20T10:51:09Z</time>
   </trkpt>
   <trkpt lat="-3.1785320" lon="37.2796310">
    <ele>1758.6</ele>
    <time>2026-06-20T10:51:10Z</time>
   </trkpt>
   <trkpt lat="-3.1785270" lon="37.2796360">
    <ele>1758.6</ele>
    <time>2026-06-20T10:51:11Z</time>
   </trkpt>
   <trkpt lat="-3.1785140" lon="37.2796420">
    <ele>1758.8</ele>
    <time>2026-06-20T10:51:12Z</time>
   </trkpt>
   <trkpt lat="-3.1785080" lon="37.2796520">
    <ele>1758.8</ele>
    <time>2026-06-20T10:51:13Z</time>
   </trkpt>
   <trkpt lat="-3.1785050" lon="37.2796570">
    <ele>1758.9</ele>
    <time>2026-06-20T10:51:14Z</time>
   </trkpt>
   <trkpt lat="-3.1784980" lon="37.2796650">
    <ele>1759.0</ele>
    <time>2026-06-20T10:51:15Z</time>
   </trkpt>
   <trkpt lat="-3.1784840" lon="37.2796780">
    <ele>1759.1</ele>
    <time>2026-06-20T10:51:16Z</time>
   </trkpt>
   <trkpt lat="-3.1784750" lon="37.2796820">
    <ele>1759.2</ele>
    <time>2026-06-20T10:51:17Z</time>
   </trkpt>
   <trkpt lat="-3.1784720" lon="37.2796920">
    <ele>1759.3</ele>
    <time>2026-06-20T10:51:18Z</time>
   </trkpt>
   <trkpt lat="-3.1784670" lon="37.2796960">
    <ele>1759.3</ele>
    <time>2026-06-20T10:51:19Z</time>
   </trkpt>
   <trkpt lat="-3.1784610" lon="37.2797010">
    <ele>1759.4</ele>
    <time>2026-06-20T10:51:20Z</time>
   </trkpt>
   <trkpt lat="-3.1784530" lon="37.2797040">
    <ele>1759.5</ele>
    <time>2026-06-20T10:51:21Z</time>
   </trkpt>
   <trkpt lat="-3.1784530" lon="37.2797080">
    <ele>1759.5</ele>
    <time>2026-06-20T10:51:22Z</time>
   </trkpt>
   <trkpt lat="-3.1784590" lon="37.2797110">
    <ele>1759.6</ele>
    <time>2026-06-20T10:51:23Z</time>
   </trkpt>
   <trkpt lat="-3.1784610" lon="37.2797120">
    <ele>1759.6</ele>
    <time>2026-06-20T10:51:24Z</time>
   </trkpt>
   <trkpt lat="-3.1784540" lon="37.2797080">
    <ele>1759.6</ele>
    <time>2026-06-20T10:51:25Z</time>
   </trkpt>
   <trkpt lat="-3.1784540" lon="37.2797050">
    <ele>1759.7</ele>
    <time>2026-06-20T10:51:26Z</time>
   </trkpt>
   <trkpt lat="-3.1784570" lon="37.2797070">
    <ele>1759.7</ele>
    <time>2026-06-20T10:51:27Z</time>
   </trkpt>
   <trkpt lat="-3.1784540" lon="37.2797080">
    <ele>1759.7</ele>
    <time>2026-06-20T10:51:28Z</time>
   </trkpt>
   <trkpt lat="-3.1784480" lon="37.2797110">
    <ele>1759.8</ele>
    <time>2026-06-20T10:51:29Z</time>
   </trkpt>
   <trkpt lat="-3.1784470" lon="37.2797190">
    <ele>1759.8</ele>
    <time>2026-06-20T10:51:30Z</time>
   </trkpt>
   <trkpt lat="-3.1784430" lon="37.2797220">
    <ele>1759.9</ele>
    <time>2026-06-20T10:51:31Z</time>
   </trkpt>
   <trkpt lat="-3.1784400" lon="37.2797260">
    <ele>1759.9</ele>
    <time>2026-06-20T10:51:32Z</time>
   </trkpt>
   <trkpt lat="-3.1784300" lon="37.2797240">
    <ele>1760.0</ele>
    <time>2026-06-20T10:51:33Z</time>
   </trkpt>
   <trkpt lat="-3.1784280" lon="37.2797260">
    <ele>1760.0</ele>
    <time>2026-06-20T10:51:34Z</time>
   </trkpt>
   <trkpt lat="-3.1784230" lon="37.2797250">
    <ele>1760.0</ele>
    <time>2026-06-20T10:51:35Z</time>
   </trkpt>
   <trkpt lat="-3.1784180" lon="37.2797200">
    <ele>1760.1</ele>
    <time>2026-06-20T10:51:36Z</time>
   </trkpt>
   <trkpt lat="-3.1784110" lon="37.2797200">
    <ele>1760.2</ele>
    <time>2026-06-20T10:51:37Z</time>
   </trkpt>
   <trkpt lat="-3.1784080" lon="37.2797280">
    <ele>1760.2</ele>
    <time>2026-06-20T10:51:38Z</time>
   </trkpt>
   <trkpt lat="-3.1784080" lon="37.2797240">
    <ele>1760.3</ele>
    <time>2026-06-20T10:51:39Z</time>
   </trkpt>
   <trkpt lat="-3.1784030" lon="37.2797240">
    <ele>1760.3</ele>
    <time>2026-06-20T10:51:40Z</time>
   </trkpt>
   <trkpt lat="-3.1783980" lon="37.2797280">
    <ele>1760.3</ele>
    <time>2026-06-20T10:51:41Z</time>
   </trkpt>
   <trkpt lat="-3.1783910" lon="37.2797330">
    <ele>1760.4</ele>
    <time>2026-06-20T10:51:42Z</time>
   </trkpt>
   <trkpt lat="-3.1783820" lon="37.2797330">
    <ele>1760.5</ele>
    <time>2026-06-20T10:51:43Z</time>
   </trkpt>
   <trkpt lat="-3.1783740" lon="37.2797420">
    <ele>1760.5</ele>
    <time>2026-06-20T10:51:44Z</time>
   </trkpt>
   <trkpt lat="-3.1783690" lon="37.2797410">
    <ele>1760.6</ele>
    <time>2026-06-20T10:51:45Z</time>
   </trkpt>
   <trkpt lat="-3.1783480" lon="37.2797550">
    <ele>1760.7</ele>
    <time>2026-06-20T10:51:46Z</time>
   </trkpt>
   <trkpt lat="-3.1783340" lon="37.2797560">
    <ele>1760.8</ele>
    <time>2026-06-20T10:51:47Z</time>
   </trkpt>
   <trkpt lat="-3.1783240" lon="37.2797560">
    <ele>1760.9</ele>
    <time>2026-06-20T10:51:48Z</time>
   </trkpt>
   <trkpt lat="-3.1783070" lon="37.2797610">
    <ele>1761.0</ele>
    <time>2026-06-20T10:51:49Z</time>
   </trkpt>
   <trkpt lat="-3.1783000" lon="37.2797690">
    <ele>1761.0</ele>
    <time>2026-06-20T10:51:50Z</time>
   </trkpt>
   <trkpt lat="-3.1782910" lon="37.2797770">
    <ele>1761.1</ele>
    <time>2026-06-20T10:51:51Z</time>
   </trkpt>
   <trkpt lat="-3.1782830" lon="37.2797800">
    <ele>1761.1</ele>
    <time>2026-06-20T10:51:52Z</time>
   </trkpt>
   <trkpt lat="-3.1782780" lon="37.2797840">
    <ele>1761.2</ele>
    <time>2026-06-20T10:51:53Z</time>
   </trkpt>
   <trkpt lat="-3.1782740" lon="37.2797870">
    <ele>1761.2</ele>
    <time>2026-06-20T10:51:54Z</time>
   </trkpt>
   <trkpt lat="-3.1782680" lon="37.2797910">
    <ele>1761.2</ele>
    <time>2026-06-20T10:51:55Z</time>
   </trkpt>
   <trkpt lat="-3.1782610" lon="37.2797950">
    <ele>1761.3</ele>
    <time>2026-06-20T10:51:56Z</time>
   </trkpt>
   <trkpt lat="-3.1782570" lon="37.2797980">
    <ele>1761.3</ele>
    <time>2026-06-20T10:51:57Z</time>
   </trkpt>
   <trkpt lat="-3.1782470" lon="37.2798070">
    <ele>1761.3</ele>
    <time>2026-06-20T10:51:58Z</time>
   </trkpt>
   <trkpt lat="-3.1782410" lon="37.2798090">
    <ele>1761.4</ele>
    <time>2026-06-20T10:51:59Z</time>
   </trkpt>
   <trkpt lat="-3.1782380" lon="37.2798110">
    <ele>1761.4</ele>
    <time>2026-06-20T10:52:00Z</time>
   </trkpt>
   <trkpt lat="-3.1782370" lon="37.2798100">
    <ele>1761.4</ele>
    <time>2026-06-20T10:52:01Z</time>
   </trkpt>
   <trkpt lat="-3.1782320" lon="37.2798100">
    <ele>1761.4</ele>
    <time>2026-06-20T10:52:02Z</time>
   </trkpt>
   <trkpt lat="-3.1782250" lon="37.2798130">
    <ele>1761.5</ele>
    <time>2026-06-20T10:52:03Z</time>
   </trkpt>
   <trkpt lat="-3.1782180" lon="37.2798180">
    <ele>1761.5</ele>
    <time>2026-06-20T10:52:04Z</time>
   </trkpt>
   <trkpt lat="-3.1782150" lon="37.2798240">
    <ele>1761.5</ele>
    <time>2026-06-20T10:52:05Z</time>
   </trkpt>
   <trkpt lat="-3.1782080" lon="37.2798270">
    <ele>1761.6</ele>
    <time>2026-06-20T10:52:06Z</time>
   </trkpt>
   <trkpt lat="-3.1782040" lon="37.2798270">
    <ele>1761.6</ele>
    <time>2026-06-20T10:52:07Z</time>
   </trkpt>
   <trkpt lat="-3.1781950" lon="37.2798300">
    <ele>1761.6</ele>
    <time>2026-06-20T10:52:08Z</time>
   </trkpt>
   <trkpt lat="-3.1781890" lon="37.2798270">
    <ele>1761.7</ele>
    <time>2026-06-20T10:52:09Z</time>
   </trkpt>
   <trkpt lat="-3.1781780" lon="37.2798320">
    <ele>1761.7</ele>
    <time>2026-06-20T10:52:10Z</time>
   </trkpt>
   <trkpt lat="-3.1781680" lon="37.2798380">
    <ele>1761.8</ele>
    <time>2026-06-20T10:52:11Z</time>
   </trkpt>
   <trkpt lat="-3.1781630" lon="37.2798440">
    <ele>1761.9</ele>
    <time>2026-06-20T10:52:12Z</time>
   </trkpt>
   <trkpt lat="-3.1781580" lon="37.2798450">
    <ele>1761.9</ele>
    <time>2026-06-20T10:52:13Z</time>
   </trkpt>
   <trkpt lat="-3.1781410" lon="37.2798540">
    <ele>1762.0</ele>
    <time>2026-06-20T10:52:14Z</time>
   </trkpt>
   <trkpt lat="-3.1781370" lon="37.2798580">
    <ele>1762.0</ele>
    <time>2026-06-20T10:52:15Z</time>
   </trkpt>
   <trkpt lat="-3.1781380" lon="37.2798600">
    <ele>1762.1</ele>
    <time>2026-06-20T10:52:16Z</time>
   </trkpt>
   <trkpt lat="-3.1781350" lon="37.2798630">
    <ele>1762.1</ele>
    <time>2026-06-20T10:52:17Z</time>
   </trkpt>
   <trkpt lat="-3.1781300" lon="37.2798660">
    <ele>1762.1</ele>
    <time>2026-06-20T10:52:18Z</time>
   </trkpt>
   <trkpt lat="-3.1781200" lon="37.2798700">
    <ele>1762.2</ele>
    <time>2026-06-20T10:52:19Z</time>
   </trkpt>
   <trkpt lat="-3.1781140" lon="37.2798720">
    <ele>1762.2</ele>
    <time>2026-06-20T10:52:20Z</time>
   </trkpt>
   <trkpt lat="-3.1781030" lon="37.2798750">
    <ele>1762.3</ele>
    <time>2026-06-20T10:52:21Z</time>
   </trkpt>
   <trkpt lat="-3.1780930" lon="37.2798810">
    <ele>1762.4</ele>
    <time>2026-06-20T10:52:22Z</time>
   </trkpt>
   <trkpt lat="-3.1780940" lon="37.2798800">
    <ele>1762.4</ele>
    <time>2026-06-20T10:52:23Z</time>
   </trkpt>
   <trkpt lat="-3.1780990" lon="37.2798770">
    <ele>1762.5</ele>
    <time>2026-06-20T10:52:24Z</time>
   </trkpt>
   <trkpt lat="-3.1780850" lon="37.2798820">
    <ele>1762.6</ele>
    <time>2026-06-20T10:52:25Z</time>
   </trkpt>
   <trkpt lat="-3.1780740" lon="37.2798820">
    <ele>1762.6</ele>
    <time>2026-06-20T10:52:26Z</time>
   </trkpt>
   <trkpt lat="-3.1780690" lon="37.2798890">
    <ele>1762.7</ele>
    <time>2026-06-20T10:52:27Z</time>
   </trkpt>
   <trkpt lat="-3.1780550" lon="37.2798960">
    <ele>1762.8</ele>
    <time>2026-06-20T10:52:28Z</time>
   </trkpt>
   <trkpt lat="-3.1780480" lon="37.2798970">
    <ele>1762.9</ele>
    <time>2026-06-20T10:52:30Z</time>
   </trkpt>
   <trkpt lat="-3.1780410" lon="37.2798950">
    <ele>1763.0</ele>
    <time>2026-06-20T10:52:31Z</time>
   </trkpt>
   <trkpt lat="-3.1780350" lon="37.2799020">
    <ele>1763.0</ele>
    <time>2026-06-20T10:52:32Z</time>
   </trkpt>
   <trkpt lat="-3.1780240" lon="37.2799150">
    <ele>1763.2</ele>
    <time>2026-06-20T10:52:33Z</time>
   </trkpt>
   <trkpt lat="-3.1780200" lon="37.2799190">
    <ele>1763.2</ele>
    <time>2026-06-20T10:52:34Z</time>
   </trkpt>
   <trkpt lat="-3.1780130" lon="37.2799260">
    <ele>1763.3</ele>
    <time>2026-06-20T10:52:35Z</time>
   </trkpt>
   <trkpt lat="-3.1779990" lon="37.2799350">
    <ele>1763.5</ele>
    <time>2026-06-20T10:52:36Z</time>
   </trkpt>
   <trkpt lat="-3.1779940" lon="37.2799380">
    <ele>1763.5</ele>
    <time>2026-06-20T10:52:37Z</time>
   </trkpt>
   <trkpt lat="-3.1779830" lon="37.2799450">
    <ele>1763.6</ele>
    <time>2026-06-20T10:52:38Z</time>
   </trkpt>
   <trkpt lat="-3.1779760" lon="37.2799500">
    <ele>1763.7</ele>
    <time>2026-06-20T10:52:39Z</time>
   </trkpt>
   <trkpt lat="-3.1779740" lon="37.2799520">
    <ele>1763.7</ele>
    <time>2026-06-20T10:52:40Z</time>
   </trkpt>
   <trkpt lat="-3.1779630" lon="37.2799580">
    <ele>1763.8</ele>
    <time>2026-06-20T10:52:41Z</time>
   </trkpt>
   <trkpt lat="-3.1779490" lon="37.2799600">
    <ele>1764.0</ele>
    <time>2026-06-20T10:52:42Z</time>
   </trkpt>
   <trkpt lat="-3.1779540" lon="37.2799620">
    <ele>1764.0</ele>
    <time>2026-06-20T10:52:43Z</time>
   </trkpt>
   <trkpt lat="-3.1779280" lon="37.2799540">
    <ele>1764.3</ele>
    <time>2026-06-20T10:52:44Z</time>
   </trkpt>
   <trkpt lat="-3.1779270" lon="37.2799650">
    <ele>1764.4</ele>
    <time>2026-06-20T10:52:45Z</time>
   </trkpt>
   <trkpt lat="-3.1779240" lon="37.2799760">
    <ele>1764.5</ele>
    <time>2026-06-20T10:52:46Z</time>
   </trkpt>
   <trkpt lat="-3.1779250" lon="37.2799800">
    <ele>1764.5</ele>
    <time>2026-06-20T10:52:47Z</time>
   </trkpt>
   <trkpt lat="-3.1779070" lon="37.2799870">
    <ele>1764.7</ele>
    <time>2026-06-20T10:52:48Z</time>
   </trkpt>
   <trkpt lat="-3.1779060" lon="37.2799970">
    <ele>1764.8</ele>
    <time>2026-06-20T10:52:49Z</time>
   </trkpt>
   <trkpt lat="-3.1779030" lon="37.2800070">
    <ele>1764.9</ele>
    <time>2026-06-20T10:52:50Z</time>
   </trkpt>
   <trkpt lat="-3.1779040" lon="37.2800110">
    <ele>1765.0</ele>
    <time>2026-06-20T10:52:51Z</time>
   </trkpt>
   <trkpt lat="-3.1779020" lon="37.2800130">
    <ele>1765.0</ele>
    <time>2026-06-20T10:52:52Z</time>
   </trkpt>
   <trkpt lat="-3.1779030" lon="37.2800110">
    <ele>1765.0</ele>
    <time>2026-06-20T10:52:53Z</time>
   </trkpt>
   <trkpt lat="-3.1779030" lon="37.2800080">
    <ele>1765.0</ele>
    <time>2026-06-20T10:52:54Z</time>
   </trkpt>
   <trkpt lat="-3.1778980" lon="37.2800060">
    <ele>1765.1</ele>
    <time>2026-06-20T10:52:55Z</time>
   </trkpt>
   <trkpt lat="-3.1779060" lon="37.2800020">
    <ele>1765.2</ele>
    <time>2026-06-20T10:52:56Z</time>
   </trkpt>
   <trkpt lat="-3.1779040" lon="37.2800010">
    <ele>1765.2</ele>
    <time>2026-06-20T10:52:57Z</time>
   </trkpt>
   <trkpt lat="-3.1779050" lon="37.2799990">
    <ele>1765.2</ele>
    <time>2026-06-20T10:52:58Z</time>
   </trkpt>
   <trkpt lat="-3.1779020" lon="37.2800020">
    <ele>1765.3</ele>
    <time>2026-06-20T10:52:59Z</time>
   </trkpt>
   <trkpt lat="-3.1778930" lon="37.2800060">
    <ele>1765.4</ele>
    <time>2026-06-20T10:53:00Z</time>
   </trkpt>
   <trkpt lat="-3.1778870" lon="37.2800100">
    <ele>1765.4</ele>
    <time>2026-06-20T10:53:01Z</time>
   </trkpt>
   <trkpt lat="-3.1778810" lon="37.2800120">
    <ele>1765.5</ele>
    <time>2026-06-20T10:53:02Z</time>
   </trkpt>
   <trkpt lat="-3.1778710" lon="37.2800220">
    <ele>1765.6</ele>
    <time>2026-06-20T10:53:03Z</time>
   </trkpt>
   <trkpt lat="-3.1778610" lon="37.2800310">
    <ele>1765.8</ele>
    <time>2026-06-20T10:53:04Z</time>
   </trkpt>
   <trkpt lat="-3.1778520" lon="37.2800390">
    <ele>1765.9</ele>
    <time>2026-06-20T10:53:05Z</time>
   </trkpt>
   <trkpt lat="-3.1778440" lon="37.2800460">
    <ele>1766.0</ele>
    <time>2026-06-20T10:53:06Z</time>
   </trkpt>
   <trkpt lat="-3.1778430" lon="37.2800510">
    <ele>1766.0</ele>
    <time>2026-06-20T10:53:07Z</time>
   </trkpt>
   <trkpt lat="-3.1778400" lon="37.2800540">
    <ele>1766.1</ele>
    <time>2026-06-20T10:53:08Z</time>
   </trkpt>
   <trkpt lat="-3.1778320" lon="37.2800560">
    <ele>1766.2</ele>
    <time>2026-06-20T10:53:09Z</time>
   </trkpt>
   <trkpt lat="-3.1778250" lon="37.2800600">
    <ele>1766.2</ele>
    <time>2026-06-20T10:53:10Z</time>
   </trkpt>
   <trkpt lat="-3.1778170" lon="37.2800690">
    <ele>1766.3</ele>
    <time>2026-06-20T10:53:11Z</time>
   </trkpt>
   <trkpt lat="-3.1778090" lon="37.2800710">
    <ele>1766.4</ele>
    <time>2026-06-20T10:53:12Z</time>
   </trkpt>
   <trkpt lat="-3.1777990" lon="37.2800750">
    <ele>1766.5</ele>
    <time>2026-06-20T10:53:13Z</time>
   </trkpt>
   <trkpt lat="-3.1777900" lon="37.2800800">
    <ele>1766.6</ele>
    <time>2026-06-20T10:53:14Z</time>
   </trkpt>
   <trkpt lat="-3.1777790" lon="37.2800870">
    <ele>1766.8</ele>
    <time>2026-06-20T10:53:15Z</time>
   </trkpt>
   <trkpt lat="-3.1777680" lon="37.2800890">
    <ele>1766.9</ele>
    <time>2026-06-20T10:53:16Z</time>
   </trkpt>
   <trkpt lat="-3.1777640" lon="37.2800880">
    <ele>1766.9</ele>
    <time>2026-06-20T10:53:17Z</time>
   </trkpt>
   <trkpt lat="-3.1777580" lon="37.2800860">
    <ele>1767.0</ele>
    <time>2026-06-20T10:53:18Z</time>
   </trkpt>
   <trkpt lat="-3.1777580" lon="37.2800850">
    <ele>1767.0</ele>
    <time>2026-06-20T10:53:19Z</time>
   </trkpt>
   <trkpt lat="-3.1777500" lon="37.2800830">
    <ele>1767.0</ele>
    <time>2026-06-20T10:53:20Z</time>
   </trkpt>
   <trkpt lat="-3.1777470" lon="37.2800840">
    <ele>1767.1</ele>
    <time>2026-06-20T10:53:21Z</time>
   </trkpt>
   <trkpt lat="-3.1777410" lon="37.2800940">
    <ele>1767.2</ele>
    <time>2026-06-20T10:53:22Z</time>
   </trkpt>
   <trkpt lat="-3.1777350" lon="37.2800840">
    <ele>1767.3</ele>
    <time>2026-06-20T10:53:23Z</time>
   </trkpt>
   <trkpt lat="-3.1777370" lon="37.2800840">
    <ele>1767.3</ele>
    <time>2026-06-20T10:53:24Z</time>
   </trkpt>
   <trkpt lat="-3.1777340" lon="37.2800830">
    <ele>1767.3</ele>
    <time>2026-06-20T10:53:25Z</time>
   </trkpt>
   <trkpt lat="-3.1777340" lon="37.2800800">
    <ele>1767.4</ele>
    <time>2026-06-20T10:53:26Z</time>
   </trkpt>
   <trkpt lat="-3.1777300" lon="37.2800840">
    <ele>1767.4</ele>
    <time>2026-06-20T10:53:27Z</time>
   </trkpt>
   <trkpt lat="-3.1777280" lon="37.2800890">
    <ele>1767.4</ele>
    <time>2026-06-20T10:53:28Z</time>
   </trkpt>
   <trkpt lat="-3.1777220" lon="37.2800910">
    <ele>1767.5</ele>
    <time>2026-06-20T10:53:29Z</time>
   </trkpt>
   <trkpt lat="-3.1777150" lon="37.2800950">
    <ele>1767.6</ele>
    <time>2026-06-20T10:53:30Z</time>
   </trkpt>
   <trkpt lat="-3.1777060" lon="37.2800950">
    <ele>1767.6</ele>
    <time>2026-06-20T10:53:31Z</time>
   </trkpt>
   <trkpt lat="-3.1777000" lon="37.2801050">
    <ele>1767.7</ele>
    <time>2026-06-20T10:53:32Z</time>
   </trkpt>
   <trkpt lat="-3.1776900" lon="37.2801100">
    <ele>1767.8</ele>
    <time>2026-06-20T10:53:33Z</time>
   </trkpt>
   <trkpt lat="-3.1776860" lon="37.2801140">
    <ele>1767.8</ele>
    <time>2026-06-20T10:53:34Z</time>
   </trkpt>
   <trkpt lat="-3.1776810" lon="37.2801200">
    <ele>1767.9</ele>
    <time>2026-06-20T10:53:35Z</time>
   </trkpt>
   <trkpt lat="-3.1776830" lon="37.2801230">
    <ele>1767.9</ele>
    <time>2026-06-20T10:53:36Z</time>
   </trkpt>
   <trkpt lat="-3.1776890" lon="37.2801290">
    <ele>1768.0</ele>
    <time>2026-06-20T10:53:37Z</time>
   </trkpt>
   <trkpt lat="-3.1776910" lon="37.2801270">
    <ele>1768.0</ele>
    <time>2026-06-20T10:53:38Z</time>
   </trkpt>
   <trkpt lat="-3.1776940" lon="37.2801290">
    <ele>1768.0</ele>
    <time>2026-06-20T10:53:39Z</time>
   </trkpt>
   <trkpt lat="-3.1776890" lon="37.2801380">
    <ele>1768.1</ele>
    <time>2026-06-20T10:53:40Z</time>
   </trkpt>
   <trkpt lat="-3.1776940" lon="37.2801460">
    <ele>1768.1</ele>
    <time>2026-06-20T10:53:41Z</time>
   </trkpt>
   <trkpt lat="-3.1776880" lon="37.2801560">
    <ele>1768.2</ele>
    <time>2026-06-20T10:53:42Z</time>
   </trkpt>
   <trkpt lat="-3.1776910" lon="37.2801590">
    <ele>1768.2</ele>
    <time>2026-06-20T10:53:43Z</time>
   </trkpt>
   <trkpt lat="-3.1776850" lon="37.2801650">
    <ele>1768.3</ele>
    <time>2026-06-20T10:53:44Z</time>
   </trkpt>
   <trkpt lat="-3.1776820" lon="37.2801850">
    <ele>1768.4</ele>
    <time>2026-06-20T10:53:45Z</time>
   </trkpt>
   <trkpt lat="-3.1776690" lon="37.2801940">
    <ele>1768.4</ele>
    <time>2026-06-20T10:53:46Z</time>
   </trkpt>
   <trkpt lat="-3.1776610" lon="37.2801980">
    <ele>1768.5</ele>
    <time>2026-06-20T10:53:47Z</time>
   </trkpt>
   <trkpt lat="-3.1776490" lon="37.2802100">
    <ele>1768.6</ele>
    <time>2026-06-20T10:53:48Z</time>
   </trkpt>
   <trkpt lat="-3.1776420" lon="37.2802160">
    <ele>1768.6</ele>
    <time>2026-06-20T10:53:49Z</time>
   </trkpt>
   <trkpt lat="-3.1776420" lon="37.2802220">
    <ele>1768.6</ele>
    <time>2026-06-20T10:53:50Z</time>
   </trkpt>
   <trkpt lat="-3.1776330" lon="37.2802300">
    <ele>1768.7</ele>
    <time>2026-06-20T10:53:51Z</time>
   </trkpt>
   <trkpt lat="-3.1776280" lon="37.2802290">
    <ele>1768.7</ele>
    <time>2026-06-20T10:53:52Z</time>
   </trkpt>
   <trkpt lat="-3.1776160" lon="37.2802410">
    <ele>1768.8</ele>
    <time>2026-06-20T10:53:53Z</time>
   </trkpt>
   <trkpt lat="-3.1776010" lon="37.2802490">
    <ele>1768.8</ele>
    <time>2026-06-20T10:53:54Z</time>
   </trkpt>
   <trkpt lat="-3.1775850" lon="37.2802550">
    <ele>1768.9</ele>
    <time>2026-06-20T10:53:55Z</time>
   </trkpt>
   <trkpt lat="-3.1775790" lon="37.2802650">
    <ele>1768.9</ele>
    <time>2026-06-20T10:53:56Z</time>
   </trkpt>
   <trkpt lat="-3.1775770" lon="37.2802750">
    <ele>1769.0</ele>
    <time>2026-06-20T10:53:57Z</time>
   </trkpt>
   <trkpt lat="-3.1775740" lon="37.2802820">
    <ele>1769.0</ele>
    <time>2026-06-20T10:53:58Z</time>
   </trkpt>
   <trkpt lat="-3.1775800" lon="37.2802800">
    <ele>1769.0</ele>
    <time>2026-06-20T10:53:59Z</time>
   </trkpt>
   <trkpt lat="-3.1775750" lon="37.2802830">
    <ele>1769.0</ele>
    <time>2026-06-20T10:54:00Z</time>
   </trkpt>
   <trkpt lat="-3.1775790" lon="37.2802810">
    <ele>1769.1</ele>
    <time>2026-06-20T10:54:01Z</time>
   </trkpt>
   <trkpt lat="-3.1775750" lon="37.2802840">
    <ele>1769.1</ele>
    <time>2026-06-20T10:54:02Z</time>
   </trkpt>
   <trkpt lat="-3.1775780" lon="37.2802830">
    <ele>1769.1</ele>
    <time>2026-06-20T10:54:03Z</time>
   </trkpt>
   <trkpt lat="-3.1775830" lon="37.2802980">
    <ele>1769.1</ele>
    <time>2026-06-20T10:54:04Z</time>
   </trkpt>
   <trkpt lat="-3.1775790" lon="37.2803040">
    <ele>1769.2</ele>
    <time>2026-06-20T10:54:05Z</time>
   </trkpt>
   <trkpt lat="-3.1775760" lon="37.2803080">
    <ele>1769.2</ele>
    <time>2026-06-20T10:54:06Z</time>
   </trkpt>
   <trkpt lat="-3.1775710" lon="37.2803150">
    <ele>1769.2</ele>
    <time>2026-06-20T10:54:07Z</time>
   </trkpt>
   <trkpt lat="-3.1775680" lon="37.2803220">
    <ele>1769.2</ele>
    <time>2026-06-20T10:54:08Z</time>
   </trkpt>
   <trkpt lat="-3.1775630" lon="37.2803230">
    <ele>1769.2</ele>
    <time>2026-06-20T10:54:09Z</time>
   </trkpt>
   <trkpt lat="-3.1775500" lon="37.2803370">
    <ele>1769.3</ele>
    <time>2026-06-20T10:54:10Z</time>
   </trkpt>
   <trkpt lat="-3.1775390" lon="37.2803410">
    <ele>1769.3</ele>
    <time>2026-06-20T10:54:11Z</time>
   </trkpt>
   <trkpt lat="-3.1775420" lon="37.2803410">
    <ele>1769.3</ele>
    <time>2026-06-20T10:54:12Z</time>
   </trkpt>
   <trkpt lat="-3.1775360" lon="37.2803430">
    <ele>1769.3</ele>
    <time>2026-06-20T10:54:13Z</time>
   </trkpt>
   <trkpt lat="-3.1775250" lon="37.2803520">
    <ele>1769.4</ele>
    <time>2026-06-20T10:54:14Z</time>
   </trkpt>
   <trkpt lat="-3.1775230" lon="37.2803740">
    <ele>1769.4</ele>
    <time>2026-06-20T10:54:15Z</time>
   </trkpt>
   <trkpt lat="-3.1775200" lon="37.2803760">
    <ele>1769.4</ele>
    <time>2026-06-20T10:54:16Z</time>
   </trkpt>
   <trkpt lat="-3.1775140" lon="37.2803840">
    <ele>1769.5</ele>
    <time>2026-06-20T10:54:17Z</time>
   </trkpt>
   <trkpt lat="-3.1775090" lon="37.2803950">
    <ele>1769.5</ele>
    <time>2026-06-20T10:54:18Z</time>
   </trkpt>
   <trkpt lat="-3.1775040" lon="37.2804010">
    <ele>1769.5</ele>
    <time>2026-06-20T10:54:19Z</time>
   </trkpt>
   <trkpt lat="-3.1775050" lon="37.2804100">
    <ele>1769.5</ele>
    <time>2026-06-20T10:54:20Z</time>
   </trkpt>
   <trkpt lat="-3.1775020" lon="37.2804210">
    <ele>1769.6</ele>
    <time>2026-06-20T10:54:21Z</time>
   </trkpt>
   <trkpt lat="-3.1774870" lon="37.2804350">
    <ele>1769.6</ele>
    <time>2026-06-20T10:54:22Z</time>
   </trkpt>
   <trkpt lat="-3.1774810" lon="37.2804360">
    <ele>1769.6</ele>
    <time>2026-06-20T10:54:23Z</time>
   </trkpt>
   <trkpt lat="-3.1774760" lon="37.2804430">
    <ele>1769.6</ele>
    <time>2026-06-20T10:54:24Z</time>
   </trkpt>
   <trkpt lat="-3.1774700" lon="37.2804460">
    <ele>1769.6</ele>
    <time>2026-06-20T10:54:25Z</time>
   </trkpt>
   <trkpt lat="-3.1774590" lon="37.2804540">
    <ele>1769.7</ele>
    <time>2026-06-20T10:54:26Z</time>
   </trkpt>
   <trkpt lat="-3.1774520" lon="37.2804550">
    <ele>1769.7</ele>
    <time>2026-06-20T10:54:27Z</time>
   </trkpt>
   <trkpt lat="-3.1774440" lon="37.2804630">
    <ele>1769.7</ele>
    <time>2026-06-20T10:54:28Z</time>
   </trkpt>
   <trkpt lat="-3.1774400" lon="37.2804690">
    <ele>1769.7</ele>
    <time>2026-06-20T10:54:29Z</time>
   </trkpt>
   <trkpt lat="-3.1774350" lon="37.2804700">
    <ele>1769.7</ele>
    <time>2026-06-20T10:54:30Z</time>
   </trkpt>
   <trkpt lat="-3.1774300" lon="37.2804690">
    <ele>1769.7</ele>
    <time>2026-06-20T10:54:31Z</time>
   </trkpt>
   <trkpt lat="-3.1774240" lon="37.2804700">
    <ele>1769.8</ele>
    <time>2026-06-20T10:54:32Z</time>
   </trkpt>
   <trkpt lat="-3.1774190" lon="37.2804710">
    <ele>1769.8</ele>
    <time>2026-06-20T10:54:33Z</time>
   </trkpt>
   <trkpt lat="-3.1774150" lon="37.2804740">
    <ele>1769.8</ele>
    <time>2026-06-20T10:54:34Z</time>
   </trkpt>
   <trkpt lat="-3.1774100" lon="37.2804800">
    <ele>1769.8</ele>
    <time>2026-06-20T10:54:35Z</time>
   </trkpt>
   <trkpt lat="-3.1774080" lon="37.2804870">
    <ele>1769.8</ele>
    <time>2026-06-20T10:54:36Z</time>
   </trkpt>
   <trkpt lat="-3.1774100" lon="37.2804970">
    <ele>1769.8</ele>
    <time>2026-06-20T10:54:37Z</time>
   </trkpt>
   <trkpt lat="-3.1774040" lon="37.2805050">
    <ele>1769.9</ele>
    <time>2026-06-20T10:54:38Z</time>
   </trkpt>
   <trkpt lat="-3.1773980" lon="37.2805100">
    <ele>1769.9</ele>
    <time>2026-06-20T10:54:39Z</time>
   </trkpt>
   <trkpt lat="-3.1773930" lon="37.2805130">
    <ele>1769.9</ele>
    <time>2026-06-20T10:54:40Z</time>
   </trkpt>
   <trkpt lat="-3.1773890" lon="37.2805170">
    <ele>1769.9</ele>
    <time>2026-06-20T10:54:41Z</time>
   </trkpt>
   <trkpt lat="-3.1773870" lon="37.2805240">
    <ele>1769.9</ele>
    <time>2026-06-20T10:54:42Z</time>
   </trkpt>
   <trkpt lat="-3.1773830" lon="37.2805290">
    <ele>1769.9</ele>
    <time>2026-06-20T10:54:43Z</time>
   </trkpt>
   <trkpt lat="-3.1773800" lon="37.2805360">
    <ele>1769.9</ele>
    <time>2026-06-20T10:54:44Z</time>
   </trkpt>
   <trkpt lat="-3.1773730" lon="37.2805410">
    <ele>1770.0</ele>
    <time>2026-06-20T10:54:45Z</time>
   </trkpt>
   <trkpt lat="-3.1773690" lon="37.2805450">
    <ele>1770.0</ele>
    <time>2026-06-20T10:54:46Z</time>
   </trkpt>
   <trkpt lat="-3.1773630" lon="37.2805500">
    <ele>1770.0</ele>
    <time>2026-06-20T10:54:47Z</time>
   </trkpt>
   <trkpt lat="-3.1773630" lon="37.2805510">
    <ele>1770.0</ele>
    <time>2026-06-20T10:54:48Z</time>
   </trkpt>
   <trkpt lat="-3.1773620" lon="37.2805540">
    <ele>1770.0</ele>
    <time>2026-06-20T10:54:49Z</time>
   </trkpt>
   <trkpt lat="-3.1773540" lon="37.2805630">
    <ele>1770.0</ele>
    <time>2026-06-20T10:54:50Z</time>
   </trkpt>
   <trkpt lat="-3.1773500" lon="37.2805680">
    <ele>1770.0</ele>
    <time>2026-06-20T10:54:51Z</time>
   </trkpt>
   <trkpt lat="-3.1773430" lon="37.2805760">
    <ele>1770.1</ele>
    <time>2026-06-20T10:54:52Z</time>
   </trkpt>
   <trkpt lat="-3.1773380" lon="37.2805830">
    <ele>1770.1</ele>
    <time>2026-06-20T10:54:53Z</time>
   </trkpt>
   <trkpt lat="-3.1773370" lon="37.2805870">
    <ele>1770.1</ele>
    <time>2026-06-20T10:54:54Z</time>
   </trkpt>
   <trkpt lat="-3.1773290" lon="37.2805900">
    <ele>1770.1</ele>
    <time>2026-06-20T10:54:55Z</time>
   </trkpt>
   <trkpt lat="-3.1773300" lon="37.2805920">
    <ele>1770.1</ele>
    <time>2026-06-20T10:54:56Z</time>
   </trkpt>
   <trkpt lat="-3.1773250" lon="37.2805950">
    <ele>1770.2</ele>
    <time>2026-06-20T10:54:57Z</time>
   </trkpt>
   <trkpt lat="-3.1773230" lon="37.2806020">
    <ele>1770.2</ele>
    <time>2026-06-20T10:54:58Z</time>
   </trkpt>
   <trkpt lat="-3.1773250" lon="37.2806100">
    <ele>1770.2</ele>
    <time>2026-06-20T10:54:59Z</time>
   </trkpt>
   <trkpt lat="-3.1773260" lon="37.2806170">
    <ele>1770.2</ele>
    <time>2026-06-20T10:55:00Z</time>
   </trkpt>
   <trkpt lat="-3.1773220" lon="37.2806240">
    <ele>1770.3</ele>
    <time>2026-06-20T10:55:01Z</time>
   </trkpt>
   <trkpt lat="-3.1773160" lon="37.2806370">
    <ele>1770.3</ele>
    <time>2026-06-20T10:55:02Z</time>
   </trkpt>
   <trkpt lat="-3.1773060" lon="37.2806400">
    <ele>1770.4</ele>
    <time>2026-06-20T10:55:03Z</time>
   </trkpt>
   <trkpt lat="-3.1772920" lon="37.2806540">
    <ele>1770.4</ele>
    <time>2026-06-20T10:55:04Z</time>
   </trkpt>
   <trkpt lat="-3.1772840" lon="37.2806650">
    <ele>1770.5</ele>
    <time>2026-06-20T10:55:05Z</time>
   </trkpt>
   <trkpt lat="-3.1772750" lon="37.2806740">
    <ele>1770.5</ele>
    <time>2026-06-20T10:55:06Z</time>
   </trkpt>
   <trkpt lat="-3.1772660" lon="37.2806780">
    <ele>1770.6</ele>
    <time>2026-06-20T10:55:07Z</time>
   </trkpt>
   <trkpt lat="-3.1772610" lon="37.2806880">
    <ele>1770.6</ele>
    <time>2026-06-20T10:55:08Z</time>
   </trkpt>
   <trkpt lat="-3.1772510" lon="37.2806950">
    <ele>1770.7</ele>
    <time>2026-06-20T10:55:09Z</time>
   </trkpt>
   <trkpt lat="-3.1772430" lon="37.2807060">
    <ele>1770.8</ele>
    <time>2026-06-20T10:55:10Z</time>
   </trkpt>
   <trkpt lat="-3.1772450" lon="37.2807140">
    <ele>1770.8</ele>
    <time>2026-06-20T10:55:11Z</time>
   </trkpt>
   <trkpt lat="-3.1772340" lon="37.2807220">
    <ele>1770.9</ele>
    <time>2026-06-20T10:55:12Z</time>
   </trkpt>
   <trkpt lat="-3.1772230" lon="37.2807310">
    <ele>1770.9</ele>
    <time>2026-06-20T10:55:13Z</time>
   </trkpt>
   <trkpt lat="-3.1772110" lon="37.2807340">
    <ele>1771.0</ele>
    <time>2026-06-20T10:55:14Z</time>
   </trkpt>
   <trkpt lat="-3.1772030" lon="37.2807470">
    <ele>1771.0</ele>
    <time>2026-06-20T10:55:15Z</time>
   </trkpt>
   <trkpt lat="-3.1772020" lon="37.2807520">
    <ele>1771.1</ele>
    <time>2026-06-20T10:55:16Z</time>
   </trkpt>
   <trkpt lat="-3.1771970" lon="37.2807600">
    <ele>1771.1</ele>
    <time>2026-06-20T10:55:17Z</time>
   </trkpt>
   <trkpt lat="-3.1771920" lon="37.2807640">
    <ele>1771.1</ele>
    <time>2026-06-20T10:55:18Z</time>
   </trkpt>
   <trkpt lat="-3.1771870" lon="37.2807750">
    <ele>1771.2</ele>
    <time>2026-06-20T10:55:19Z</time>
   </trkpt>
   <trkpt lat="-3.1771860" lon="37.2807820">
    <ele>1771.2</ele>
    <time>2026-06-20T10:55:20Z</time>
   </trkpt>
   <trkpt lat="-3.1771830" lon="37.2807810">
    <ele>1771.3</ele>
    <time>2026-06-20T10:55:21Z</time>
   </trkpt>
   <trkpt lat="-3.1771800" lon="37.2807810">
    <ele>1771.3</ele>
    <time>2026-06-20T10:55:22Z</time>
   </trkpt>
   <trkpt lat="-3.1771710" lon="37.2807900">
    <ele>1771.3</ele>
    <time>2026-06-20T10:55:23Z</time>
   </trkpt>
   <trkpt lat="-3.1771600" lon="37.2807950">
    <ele>1771.4</ele>
    <time>2026-06-20T10:55:24Z</time>
   </trkpt>
   <trkpt lat="-3.1771460" lon="37.2808040">
    <ele>1771.5</ele>
    <time>2026-06-20T10:55:25Z</time>
   </trkpt>
   <trkpt lat="-3.1771340" lon="37.2808120">
    <ele>1771.5</ele>
    <time>2026-06-20T10:55:26Z</time>
   </trkpt>
   <trkpt lat="-3.1771240" lon="37.2808230">
    <ele>1771.6</ele>
    <time>2026-06-20T10:55:27Z</time>
   </trkpt>
   <trkpt lat="-3.1771170" lon="37.2808240">
    <ele>1771.6</ele>
    <time>2026-06-20T10:55:28Z</time>
   </trkpt>
   <trkpt lat="-3.1771080" lon="37.2808340">
    <ele>1771.7</ele>
    <time>2026-06-20T10:55:29Z</time>
   </trkpt>
   <trkpt lat="-3.1771010" lon="37.2808400">
    <ele>1771.7</ele>
    <time>2026-06-20T10:55:30Z</time>
   </trkpt>
   <trkpt lat="-3.1770910" lon="37.2808510">
    <ele>1771.8</ele>
    <time>2026-06-20T10:55:31Z</time>
   </trkpt>
   <trkpt lat="-3.1770830" lon="37.2808550">
    <ele>1771.8</ele>
    <time>2026-06-20T10:55:32Z</time>
   </trkpt>
   <trkpt lat="-3.1770720" lon="37.2808580">
    <ele>1771.9</ele>
    <time>2026-06-20T10:55:33Z</time>
   </trkpt>
   <trkpt lat="-3.1770660" lon="37.2808640">
    <ele>1771.9</ele>
    <time>2026-06-20T10:55:34Z</time>
   </trkpt>
   <trkpt lat="-3.1770520" lon="37.2808720">
    <ele>1772.0</ele>
    <time>2026-06-20T10:55:35Z</time>
   </trkpt>
   <trkpt lat="-3.1770460" lon="37.2808780">
    <ele>1772.0</ele>
    <time>2026-06-20T10:55:36Z</time>
   </trkpt>
   <trkpt lat="-3.1770370" lon="37.2808810">
    <ele>1772.1</ele>
    <time>2026-06-20T10:55:37Z</time>
   </trkpt>
   <trkpt lat="-3.1770280" lon="37.2808860">
    <ele>1772.1</ele>
    <time>2026-06-20T10:55:38Z</time>
   </trkpt>
   <trkpt lat="-3.1770200" lon="37.2808870">
    <ele>1772.1</ele>
    <time>2026-06-20T10:55:39Z</time>
   </trkpt>
   <trkpt lat="-3.1770140" lon="37.2808920">
    <ele>1772.2</ele>
    <time>2026-06-20T10:55:40Z</time>
   </trkpt>
   <trkpt lat="-3.1770100" lon="37.2808980">
    <ele>1772.2</ele>
    <time>2026-06-20T10:55:41Z</time>
   </trkpt>
   <trkpt lat="-3.1769980" lon="37.2809100">
    <ele>1772.3</ele>
    <time>2026-06-20T10:55:42Z</time>
   </trkpt>
   <trkpt lat="-3.1769920" lon="37.2809170">
    <ele>1772.3</ele>
    <time>2026-06-20T10:55:43Z</time>
   </trkpt>
   <trkpt lat="-3.1769830" lon="37.2809290">
    <ele>1772.4</ele>
    <time>2026-06-20T10:55:44Z</time>
   </trkpt>
   <trkpt lat="-3.1769770" lon="37.2809370">
    <ele>1772.4</ele>
    <time>2026-06-20T10:55:45Z</time>
   </trkpt>
   <trkpt lat="-3.1769730" lon="37.2809490">
    <ele>1772.5</ele>
    <time>2026-06-20T10:55:46Z</time>
   </trkpt>
   <trkpt lat="-3.1769640" lon="37.2809630">
    <ele>1772.5</ele>
    <time>2026-06-20T10:55:47Z</time>
   </trkpt>
   <trkpt lat="-3.1769560" lon="37.2809760">
    <ele>1772.6</ele>
    <time>2026-06-20T10:55:48Z</time>
   </trkpt>
   <trkpt lat="-3.1769440" lon="37.2809900">
    <ele>1772.7</ele>
    <time>2026-06-20T10:55:49Z</time>
   </trkpt>
   <trkpt lat="-3.1769380" lon="37.2809990">
    <ele>1772.7</ele>
    <time>2026-06-20T10:55:50Z</time>
   </trkpt>
   <trkpt lat="-3.1769280" lon="37.2810150">
    <ele>1772.8</ele>
    <time>2026-06-20T10:55:51Z</time>
   </trkpt>
   <trkpt lat="-3.1769210" lon="37.2810250">
    <ele>1772.9</ele>
    <time>2026-06-20T10:55:52Z</time>
   </trkpt>
   <trkpt lat="-3.1769130" lon="37.2810410">
    <ele>1773.0</ele>
    <time>2026-06-20T10:55:53Z</time>
   </trkpt>
   <trkpt lat="-3.1769100" lon="37.2810520">
    <ele>1773.0</ele>
    <time>2026-06-20T10:55:54Z</time>
   </trkpt>
   <trkpt lat="-3.1769070" lon="37.2810600">
    <ele>1773.0</ele>
    <time>2026-06-20T10:55:55Z</time>
   </trkpt>
   <trkpt lat="-3.1769050" lon="37.2810650">
    <ele>1773.1</ele>
    <time>2026-06-20T10:55:56Z</time>
   </trkpt>
   <trkpt lat="-3.1769090" lon="37.2810620">
    <ele>1773.1</ele>
    <time>2026-06-20T10:55:57Z</time>
   </trkpt>
   <trkpt lat="-3.1769080" lon="37.2810610">
    <ele>1773.1</ele>
    <time>2026-06-20T10:55:58Z</time>
   </trkpt>
   <trkpt lat="-3.1769090" lon="37.2810600">
    <ele>1773.1</ele>
    <time>2026-06-20T10:55:59Z</time>
   </trkpt>
   <trkpt lat="-3.1769090" lon="37.2810600">
    <ele>1773.1</ele>
    <time>2026-06-20T10:56:00Z</time>
   </trkpt>
   <trkpt lat="-3.1769100" lon="37.2810560">
    <ele>1773.1</ele>
    <time>2026-06-20T10:56:01Z</time>
   </trkpt>
   <trkpt lat="-3.1769110" lon="37.2810560">
    <ele>1773.1</ele>
    <time>2026-06-20T10:56:02Z</time>
   </trkpt>
   <trkpt lat="-3.1769130" lon="37.2810550">
    <ele>1773.2</ele>
    <time>2026-06-20T10:56:03Z</time>
   </trkpt>
   <trkpt lat="-3.1769150" lon="37.2810550">
    <ele>1773.2</ele>
    <time>2026-06-20T10:56:04Z</time>
   </trkpt>
   <trkpt lat="-3.1769140" lon="37.2810560">
    <ele>1773.2</ele>
    <time>2026-06-20T10:56:05Z</time>
   </trkpt>
   <trkpt lat="-3.1769080" lon="37.2810630">
    <ele>1773.2</ele>
    <time>2026-06-20T10:56:06Z</time>
   </trkpt>
   <trkpt lat="-3.1769060" lon="37.2810770">
    <ele>1773.3</ele>
    <time>2026-06-20T10:56:07Z</time>
   </trkpt>
   <trkpt lat="-3.1768940" lon="37.2810880">
    <ele>1773.4</ele>
    <time>2026-06-20T10:56:08Z</time>
   </trkpt>
   <trkpt lat="-3.1768910" lon="37.2810900">
    <ele>1773.4</ele>
    <time>2026-06-20T10:56:09Z</time>
   </trkpt>
   <trkpt lat="-3.1768830" lon="37.2810930">
    <ele>1773.4</ele>
    <time>2026-06-20T10:56:10Z</time>
   </trkpt>
   <trkpt lat="-3.1768750" lon="37.2810930">
    <ele>1773.5</ele>
    <time>2026-06-20T10:56:11Z</time>
   </trkpt>
   <trkpt lat="-3.1768720" lon="37.2810950">
    <ele>1773.5</ele>
    <time>2026-06-20T10:56:12Z</time>
   </trkpt>
   <trkpt lat="-3.1768710" lon="37.2810990">
    <ele>1773.5</ele>
    <time>2026-06-20T10:56:13Z</time>
   </trkpt>
   <trkpt lat="-3.1768630" lon="37.2811160">
    <ele>1773.6</ele>
    <time>2026-06-20T10:56:14Z</time>
   </trkpt>
   <trkpt lat="-3.1768630" lon="37.2811240">
    <ele>1773.6</ele>
    <time>2026-06-20T10:56:15Z</time>
   </trkpt>
   <trkpt lat="-3.1768550" lon="37.2811320">
    <ele>1773.7</ele>
    <time>2026-06-20T10:56:16Z</time>
   </trkpt>
   <trkpt lat="-3.1768510" lon="37.2811310">
    <ele>1773.7</ele>
    <time>2026-06-20T10:56:17Z</time>
   </trkpt>
   <trkpt lat="-3.1768510" lon="37.2811340">
    <ele>1773.7</ele>
    <time>2026-06-20T10:56:18Z</time>
   </trkpt>
   <trkpt lat="-3.1768410" lon="37.2811390">
    <ele>1773.8</ele>
    <time>2026-06-20T10:56:19Z</time>
   </trkpt>
   <trkpt lat="-3.1768400" lon="37.2811430">
    <ele>1773.8</ele>
    <time>2026-06-20T10:56:20Z</time>
   </trkpt>
   <trkpt lat="-3.1768360" lon="37.2811460">
    <ele>1773.8</ele>
    <time>2026-06-20T10:56:21Z</time>
   </trkpt>
   <trkpt lat="-3.1768290" lon="37.2811510">
    <ele>1773.9</ele>
    <time>2026-06-20T10:56:22Z</time>
   </trkpt>
   <trkpt lat="-3.1768170" lon="37.2811580">
    <ele>1774.0</ele>
    <time>2026-06-20T10:56:23Z</time>
   </trkpt>
   <trkpt lat="-3.1768100" lon="37.2811690">
    <ele>1774.0</ele>
    <time>2026-06-20T10:56:24Z</time>
   </trkpt>
   <trkpt lat="-3.1768140" lon="37.2811670">
    <ele>1774.1</ele>
    <time>2026-06-20T10:56:25Z</time>
   </trkpt>
   <trkpt lat="-3.1768070" lon="37.2811730">
    <ele>1774.1</ele>
    <time>2026-06-20T10:56:26Z</time>
   </trkpt>
   <trkpt lat="-3.1768080" lon="37.2811800">
    <ele>1774.1</ele>
    <time>2026-06-20T10:56:27Z</time>
   </trkpt>
   <trkpt lat="-3.1767970" lon="37.2811840">
    <ele>1774.2</ele>
    <time>2026-06-20T10:56:28Z</time>
   </trkpt>
   <trkpt lat="-3.1767820" lon="37.2811910">
    <ele>1774.3</ele>
    <time>2026-06-20T10:56:29Z</time>
   </trkpt>
   <trkpt lat="-3.1767760" lon="37.2811970">
    <ele>1774.3</ele>
    <time>2026-06-20T10:56:30Z</time>
   </trkpt>
   <trkpt lat="-3.1767700" lon="37.2812010">
    <ele>1774.4</ele>
    <time>2026-06-20T10:56:31Z</time>
   </trkpt>
   <trkpt lat="-3.1767660" lon="37.2812020">
    <ele>1774.4</ele>
    <time>2026-06-20T10:56:32Z</time>
   </trkpt>
   <trkpt lat="-3.1767600" lon="37.2812060">
    <ele>1774.4</ele>
    <time>2026-06-20T10:56:33Z</time>
   </trkpt>
   <trkpt lat="-3.1767570" lon="37.2812030">
    <ele>1774.5</ele>
    <time>2026-06-20T10:56:34Z</time>
   </trkpt>
   <trkpt lat="-3.1767460" lon="37.2812060">
    <ele>1774.5</ele>
    <time>2026-06-20T10:56:35Z</time>
   </trkpt>
   <trkpt lat="-3.1767420" lon="37.2812120">
    <ele>1774.5</ele>
    <time>2026-06-20T10:56:36Z</time>
   </trkpt>
   <trkpt lat="-3.1767390" lon="37.2812190">
    <ele>1774.6</ele>
    <time>2026-06-20T10:56:37Z</time>
   </trkpt>
   <trkpt lat="-3.1767360" lon="37.2812230">
    <ele>1774.6</ele>
    <time>2026-06-20T10:56:38Z</time>
   </trkpt>
   <trkpt lat="-3.1767330" lon="37.2812300">
    <ele>1774.7</ele>
    <time>2026-06-20T10:56:39Z</time>
   </trkpt>
   <trkpt lat="-3.1767230" lon="37.2812360">
    <ele>1774.7</ele>
    <time>2026-06-20T10:56:40Z</time>
   </trkpt>
   <trkpt lat="-3.1767140" lon="37.2812410">
    <ele>1774.8</ele>
    <time>2026-06-20T10:56:41Z</time>
   </trkpt>
   <trkpt lat="-3.1767040" lon="37.2812500">
    <ele>1774.8</ele>
    <time>2026-06-20T10:56:42Z</time>
   </trkpt>
   <trkpt lat="-3.1766970" lon="37.2812540">
    <ele>1774.9</ele>
    <time>2026-06-20T10:56:43Z</time>
   </trkpt>
   <trkpt lat="-3.1766900" lon="37.2812640">
    <ele>1774.9</ele>
    <time>2026-06-20T10:56:44Z</time>
   </trkpt>
   <trkpt lat="-3.1766760" lon="37.2812710">
    <ele>1775.0</ele>
    <time>2026-06-20T10:56:45Z</time>
   </trkpt>
   <trkpt lat="-3.1766740" lon="37.2812800">
    <ele>1775.1</ele>
    <time>2026-06-20T10:56:46Z</time>
   </trkpt>
   <trkpt lat="-3.1766660" lon="37.2812810">
    <ele>1775.1</ele>
    <time>2026-06-20T10:56:47Z</time>
   </trkpt>
   <trkpt lat="-3.1766510" lon="37.2813010">
    <ele>1775.2</ele>
    <time>2026-06-20T10:56:48Z</time>
   </trkpt>
   <trkpt lat="-3.1766450" lon="37.2813120">
    <ele>1775.3</ele>
    <time>2026-06-20T10:56:49Z</time>
   </trkpt>
   <trkpt lat="-3.1766470" lon="37.2813160">
    <ele>1775.3</ele>
    <time>2026-06-20T10:56:50Z</time>
   </trkpt>
   <trkpt lat="-3.1766380" lon="37.2813180">
    <ele>1775.4</ele>
    <time>2026-06-20T10:56:51Z</time>
   </trkpt>
   <trkpt lat="-3.1766300" lon="37.2813310">
    <ele>1775.4</ele>
    <time>2026-06-20T10:56:52Z</time>
   </trkpt>
   <trkpt lat="-3.1766240" lon="37.2813320">
    <ele>1775.5</ele>
    <time>2026-06-20T10:56:53Z</time>
   </trkpt>
   <trkpt lat="-3.1766160" lon="37.2813360">
    <ele>1775.5</ele>
    <time>2026-06-20T10:56:54Z</time>
   </trkpt>
   <trkpt lat="-3.1766070" lon="37.2813400">
    <ele>1775.6</ele>
    <time>2026-06-20T10:56:55Z</time>
   </trkpt>
   <trkpt lat="-3.1766040" lon="37.2813460">
    <ele>1775.6</ele>
    <time>2026-06-20T10:56:56Z</time>
   </trkpt>
   <trkpt lat="-3.1765990" lon="37.2813480">
    <ele>1775.6</ele>
    <time>2026-06-20T10:56:57Z</time>
   </trkpt>
   <trkpt lat="-3.1766050" lon="37.2813510">
    <ele>1775.6</ele>
    <time>2026-06-20T10:56:58Z</time>
   </trkpt>
   <trkpt lat="-3.1766030" lon="37.2813570">
    <ele>1775.7</ele>
    <time>2026-06-20T10:56:59Z</time>
   </trkpt>
   <trkpt lat="-3.1766000" lon="37.2813630">
    <ele>1775.7</ele>
    <time>2026-06-20T10:57:00Z</time>
   </trkpt>
   <trkpt lat="-3.1765950" lon="37.2813800">
    <ele>1775.8</ele>
    <time>2026-06-20T10:57:01Z</time>
   </trkpt>
   <trkpt lat="-3.1765900" lon="37.2813870">
    <ele>1775.8</ele>
    <time>2026-06-20T10:57:02Z</time>
   </trkpt>
   <trkpt lat="-3.1765840" lon="37.2813910">
    <ele>1775.9</ele>
    <time>2026-06-20T10:57:03Z</time>
   </trkpt>
   <trkpt lat="-3.1765800" lon="37.2813880">
    <ele>1775.9</ele>
    <time>2026-06-20T10:57:04Z</time>
   </trkpt>
   <trkpt lat="-3.1765760" lon="37.2813880">
    <ele>1775.9</ele>
    <time>2026-06-20T10:57:05Z</time>
   </trkpt>
   <trkpt lat="-3.1765740" lon="37.2813980">
    <ele>1776.0</ele>
    <time>2026-06-20T10:57:06Z</time>
   </trkpt>
   <trkpt lat="-3.1765680" lon="37.2813920">
    <ele>1776.0</ele>
    <time>2026-06-20T10:57:07Z</time>
   </trkpt>
   <trkpt lat="-3.1765590" lon="37.2813980">
    <ele>1776.1</ele>
    <time>2026-06-20T10:57:08Z</time>
   </trkpt>
   <trkpt lat="-3.1765530" lon="37.2814020">
    <ele>1776.1</ele>
    <time>2026-06-20T10:57:09Z</time>
   </trkpt>
   <trkpt lat="-3.1765490" lon="37.2814070">
    <ele>1776.1</ele>
    <time>2026-06-20T10:57:10Z</time>
   </trkpt>
   <trkpt lat="-3.1765410" lon="37.2814180">
    <ele>1776.2</ele>
    <time>2026-06-20T10:57:11Z</time>
   </trkpt>
   <trkpt lat="-3.1765380" lon="37.2814250">
    <ele>1776.2</ele>
    <time>2026-06-20T10:57:12Z</time>
   </trkpt>
   <trkpt lat="-3.1765300" lon="37.2814330">
    <ele>1776.3</ele>
    <time>2026-06-20T10:57:13Z</time>
   </trkpt>
   <trkpt lat="-3.1765240" lon="37.2814380">
    <ele>1776.3</ele>
    <time>2026-06-20T10:57:14Z</time>
   </trkpt>
   <trkpt lat="-3.1765190" lon="37.2814420">
    <ele>1776.4</ele>
    <time>2026-06-20T10:57:15Z</time>
   </trkpt>
   <trkpt lat="-3.1765140" lon="37.2814450">
    <ele>1776.4</ele>
    <time>2026-06-20T10:57:16Z</time>
   </trkpt>
   <trkpt lat="-3.1765080" lon="37.2814520">
    <ele>1776.4</ele>
    <time>2026-06-20T10:57:17Z</time>
   </trkpt>
   <trkpt lat="-3.1764990" lon="37.2814580">
    <ele>1776.5</ele>
    <time>2026-06-20T10:57:18Z</time>
   </trkpt>
   <trkpt lat="-3.1764920" lon="37.2814650">
    <ele>1776.5</ele>
    <time>2026-06-20T10:57:19Z</time>
   </trkpt>
   <trkpt lat="-3.1764850" lon="37.2814780">
    <ele>1776.6</ele>
    <time>2026-06-20T10:57:20Z</time>
   </trkpt>
   <trkpt lat="-3.1764780" lon="37.2814820">
    <ele>1776.7</ele>
    <time>2026-06-20T10:57:21Z</time>
   </trkpt>
   <trkpt lat="-3.1764710" lon="37.2814840">
    <ele>1776.7</ele>
    <time>2026-06-20T10:57:22Z</time>
   </trkpt>
   <trkpt lat="-3.1764640" lon="37.2814920">
    <ele>1776.7</ele>
    <time>2026-06-20T10:57:23Z</time>
   </trkpt>
   <trkpt lat="-3.1764560" lon="37.2814960">
    <ele>1776.8</ele>
    <time>2026-06-20T10:57:24Z</time>
   </trkpt>
   <trkpt lat="-3.1764490" lon="37.2815010">
    <ele>1776.8</ele>
    <time>2026-06-20T10:57:25Z</time>
   </trkpt>
   <trkpt lat="-3.1764410" lon="37.2815080">
    <ele>1776.9</ele>
    <time>2026-06-20T10:57:26Z</time>
   </trkpt>
   <trkpt lat="-3.1764380" lon="37.2815120">
    <ele>1776.9</ele>
    <time>2026-06-20T10:57:27Z</time>
   </trkpt>
   <trkpt lat="-3.1764330" lon="37.2815160">
    <ele>1776.9</ele>
    <time>2026-06-20T10:57:28Z</time>
   </trkpt>
   <trkpt lat="-3.1764230" lon="37.2815270">
    <ele>1777.0</ele>
    <time>2026-06-20T10:57:29Z</time>
   </trkpt>
   <trkpt lat="-3.1764210" lon="37.2815340">
    <ele>1777.1</ele>
    <time>2026-06-20T10:57:30Z</time>
   </trkpt>
   <trkpt lat="-3.1764150" lon="37.2815360">
    <ele>1777.1</ele>
    <time>2026-06-20T10:57:31Z</time>
   </trkpt>
   <trkpt lat="-3.1764020" lon="37.2815480">
    <ele>1777.2</ele>
    <time>2026-06-20T10:57:32Z</time>
   </trkpt>
   <trkpt lat="-3.1763990" lon="37.2815500">
    <ele>1777.2</ele>
    <time>2026-06-20T10:57:33Z</time>
   </trkpt>
   <trkpt lat="-3.1763930" lon="37.2815400">
    <ele>1777.3</ele>
    <time>2026-06-20T10:57:34Z</time>
   </trkpt>
   <trkpt lat="-3.1763870" lon="37.2815590">
    <ele>1777.4</ele>
    <time>2026-06-20T10:57:35Z</time>
   </trkpt>
   <trkpt lat="-3.1763870" lon="37.2815650">
    <ele>1777.5</ele>
    <time>2026-06-20T10:57:36Z</time>
   </trkpt>
   <trkpt lat="-3.1763820" lon="37.2815680">
    <ele>1777.5</ele>
    <time>2026-06-20T10:57:37Z</time>
   </trkpt>
   <trkpt lat="-3.1763760" lon="37.2815740">
    <ele>1777.6</ele>
    <time>2026-06-20T10:57:38Z</time>
   </trkpt>
   <trkpt lat="-3.1763660" lon="37.2815810">
    <ele>1777.6</ele>
    <time>2026-06-20T10:57:39Z</time>
   </trkpt>
   <trkpt lat="-3.1763620" lon="37.2815900">
    <ele>1777.7</ele>
    <time>2026-06-20T10:57:40Z</time>
   </trkpt>
   <trkpt lat="-3.1763560" lon="37.2815940">
    <ele>1777.8</ele>
    <time>2026-06-20T10:57:41Z</time>
   </trkpt>
   <trkpt lat="-3.1763490" lon="37.2816010">
    <ele>1777.8</ele>
    <time>2026-06-20T10:57:42Z</time>
   </trkpt>
   <trkpt lat="-3.1763430" lon="37.2816090">
    <ele>1777.9</ele>
    <time>2026-06-20T10:57:43Z</time>
   </trkpt>
   <trkpt lat="-3.1763320" lon="37.2816160">
    <ele>1778.0</ele>
    <time>2026-06-20T10:57:44Z</time>
   </trkpt>
   <trkpt lat="-3.1763260" lon="37.2816230">
    <ele>1778.1</ele>
    <time>2026-06-20T10:57:45Z</time>
   </trkpt>
   <trkpt lat="-3.1763160" lon="37.2816300">
    <ele>1778.2</ele>
    <time>2026-06-20T10:57:46Z</time>
   </trkpt>
   <trkpt lat="-3.1763100" lon="37.2816410">
    <ele>1778.3</ele>
    <time>2026-06-20T10:57:47Z</time>
   </trkpt>
   <trkpt lat="-3.1763030" lon="37.2816470">
    <ele>1778.4</ele>
    <time>2026-06-20T10:57:48Z</time>
   </trkpt>
   <trkpt lat="-3.1762990" lon="37.2816540">
    <ele>1778.5</ele>
    <time>2026-06-20T10:57:49Z</time>
   </trkpt>
   <trkpt lat="-3.1762910" lon="37.2816590">
    <ele>1778.6</ele>
    <time>2026-06-20T10:57:50Z</time>
   </trkpt>
   <trkpt lat="-3.1762880" lon="37.2816620">
    <ele>1778.6</ele>
    <time>2026-06-20T10:57:51Z</time>
   </trkpt>
   <trkpt lat="-3.1762800" lon="37.2816710">
    <ele>1778.7</ele>
    <time>2026-06-20T10:57:52Z</time>
   </trkpt>
   <trkpt lat="-3.1762780" lon="37.2816730">
    <ele>1778.7</ele>
    <time>2026-06-20T10:57:53Z</time>
   </trkpt>
   <trkpt lat="-3.1762800" lon="37.2816770">
    <ele>1778.8</ele>
    <time>2026-06-20T10:57:54Z</time>
   </trkpt>
   <trkpt lat="-3.1762770" lon="37.2816830">
    <ele>1778.9</ele>
    <time>2026-06-20T10:57:55Z</time>
   </trkpt>
   <trkpt lat="-3.1762740" lon="37.2816870">
    <ele>1778.9</ele>
    <time>2026-06-20T10:57:56Z</time>
   </trkpt>
   <trkpt lat="-3.1762690" lon="37.2816840">
    <ele>1779.0</ele>
    <time>2026-06-20T10:57:57Z</time>
   </trkpt>
   <trkpt lat="-3.1762650" lon="37.2816870">
    <ele>1779.0</ele>
    <time>2026-06-20T10:57:58Z</time>
   </trkpt>
   <trkpt lat="-3.1762680" lon="37.2816920">
    <ele>1779.1</ele>
    <time>2026-06-20T10:57:59Z</time>
   </trkpt>
   <trkpt lat="-3.1762600" lon="37.2817040">
    <ele>1779.2</ele>
    <time>2026-06-20T10:58:00Z</time>
   </trkpt>
   <trkpt lat="-3.1762570" lon="37.2817090">
    <ele>1779.3</ele>
    <time>2026-06-20T10:58:01Z</time>
   </trkpt>
   <trkpt lat="-3.1762500" lon="37.2817140">
    <ele>1779.4</ele>
    <time>2026-06-20T10:58:02Z</time>
   </trkpt>
   <trkpt lat="-3.1762450" lon="37.2817220">
    <ele>1779.5</ele>
    <time>2026-06-20T10:58:03Z</time>
   </trkpt>
   <trkpt lat="-3.1762420" lon="37.2817280">
    <ele>1779.5</ele>
    <time>2026-06-20T10:58:04Z</time>
   </trkpt>
   <trkpt lat="-3.1762380" lon="37.2817330">
    <ele>1779.6</ele>
    <time>2026-06-20T10:58:05Z</time>
   </trkpt>
   <trkpt lat="-3.1762320" lon="37.2817450">
    <ele>1779.7</ele>
    <time>2026-06-20T10:58:06Z</time>
   </trkpt>
   <trkpt lat="-3.1762300" lon="37.2817450">
    <ele>1779.8</ele>
    <time>2026-06-20T10:58:07Z</time>
   </trkpt>
   <trkpt lat="-3.1762220" lon="37.2817470">
    <ele>1779.8</ele>
    <time>2026-06-20T10:58:08Z</time>
   </trkpt>
   <trkpt lat="-3.1762230" lon="37.2817570">
    <ele>1779.9</ele>
    <time>2026-06-20T10:58:09Z</time>
   </trkpt>
   <trkpt lat="-3.1762200" lon="37.2817630">
    <ele>1780.0</ele>
    <time>2026-06-20T10:58:10Z</time>
   </trkpt>
   <trkpt lat="-3.1762220" lon="37.2817650">
    <ele>1780.0</ele>
    <time>2026-06-20T10:58:11Z</time>
   </trkpt>
   <trkpt lat="-3.1762190" lon="37.2817720">
    <ele>1780.1</ele>
    <time>2026-06-20T10:58:12Z</time>
   </trkpt>
   <trkpt lat="-3.1762120" lon="37.2817770">
    <ele>1780.2</ele>
    <time>2026-06-20T10:58:13Z</time>
   </trkpt>
   <trkpt lat="-3.1762110" lon="37.2817810">
    <ele>1780.2</ele>
    <time>2026-06-20T10:58:14Z</time>
   </trkpt>
   <trkpt lat="-3.1762070" lon="37.2817840">
    <ele>1780.3</ele>
    <time>2026-06-20T10:58:15Z</time>
   </trkpt>
   <trkpt lat="-3.1762040" lon="37.2817850">
    <ele>1780.3</ele>
    <time>2026-06-20T10:58:16Z</time>
   </trkpt>
   <trkpt lat="-3.1761980" lon="37.2817910">
    <ele>1780.4</ele>
    <time>2026-06-20T10:58:17Z</time>
   </trkpt>
   <trkpt lat="-3.1761950" lon="37.2817950">
    <ele>1780.5</ele>
    <time>2026-06-20T10:58:18Z</time>
   </trkpt>
   <trkpt lat="-3.1761900" lon="37.2817940">
    <ele>1780.5</ele>
    <time>2026-06-20T10:58:19Z</time>
   </trkpt>
   <trkpt lat="-3.1761900" lon="37.2817940">
    <ele>1780.5</ele>
    <time>2026-06-20T10:58:20Z</time>
   </trkpt>
   <trkpt lat="-3.1761860" lon="37.2818030">
    <ele>1780.6</ele>
    <time>2026-06-20T10:58:21Z</time>
   </trkpt>
   <trkpt lat="-3.1761840" lon="37.2818090">
    <ele>1780.7</ele>
    <time>2026-06-20T10:58:22Z</time>
   </trkpt>
   <trkpt lat="-3.1761780" lon="37.2818150">
    <ele>1780.8</ele>
    <time>2026-06-20T10:58:23Z</time>
   </trkpt>
   <trkpt lat="-3.1761740" lon="37.2818160">
    <ele>1780.8</ele>
    <time>2026-06-20T10:58:24Z</time>
   </trkpt>
   <trkpt lat="-3.1761680" lon="37.2818180">
    <ele>1780.9</ele>
    <time>2026-06-20T10:58:25Z</time>
   </trkpt>
   <trkpt lat="-3.1761630" lon="37.2818200">
    <ele>1780.9</ele>
    <time>2026-06-20T10:58:26Z</time>
   </trkpt>
   <trkpt lat="-3.1761560" lon="37.2818280">
    <ele>1781.0</ele>
    <time>2026-06-20T10:58:27Z</time>
   </trkpt>
   <trkpt lat="-3.1761560" lon="37.2818210">
    <ele>1781.1</ele>
    <time>2026-06-20T10:58:28Z</time>
   </trkpt>
   <trkpt lat="-3.1761500" lon="37.2818250">
    <ele>1781.2</ele>
    <time>2026-06-20T10:58:29Z</time>
   </trkpt>
   <trkpt lat="-3.1761510" lon="37.2818260">
    <ele>1781.2</ele>
    <time>2026-06-20T10:58:30Z</time>
   </trkpt>
   <trkpt lat="-3.1761410" lon="37.2818370">
    <ele>1781.3</ele>
    <time>2026-06-20T10:58:31Z</time>
   </trkpt>
   <trkpt lat="-3.1761390" lon="37.2818370">
    <ele>1781.3</ele>
    <time>2026-06-20T10:58:32Z</time>
   </trkpt>
   <trkpt lat="-3.1761290" lon="37.2818460">
    <ele>1781.4</ele>
    <time>2026-06-20T10:58:33Z</time>
   </trkpt>
   <trkpt lat="-3.1761240" lon="37.2818550">
    <ele>1781.5</ele>
    <time>2026-06-20T10:58:34Z</time>
   </trkpt>
   <trkpt lat="-3.1761220" lon="37.2818610">
    <ele>1781.6</ele>
    <time>2026-06-20T10:58:35Z</time>
   </trkpt>
   <trkpt lat="-3.1761220" lon="37.2818630">
    <ele>1781.6</ele>
    <time>2026-06-20T10:58:36Z</time>
   </trkpt>
   <trkpt lat="-3.1761110" lon="37.2818780">
    <ele>1781.8</ele>
    <time>2026-06-20T10:58:37Z</time>
   </trkpt>
   <trkpt lat="-3.1761090" lon="37.2818850">
    <ele>1781.8</ele>
    <time>2026-06-20T10:58:38Z</time>
   </trkpt>
   <trkpt lat="-3.1761040" lon="37.2818930">
    <ele>1781.9</ele>
    <time>2026-06-20T10:58:39Z</time>
   </trkpt>
   <trkpt lat="-3.1760990" lon="37.2818990">
    <ele>1782.0</ele>
    <time>2026-06-20T10:58:40Z</time>
   </trkpt>
   <trkpt lat="-3.1760950" lon="37.2819040">
    <ele>1782.0</ele>
    <time>2026-06-20T10:58:41Z</time>
   </trkpt>
   <trkpt lat="-3.1760880" lon="37.2819080">
    <ele>1782.1</ele>
    <time>2026-06-20T10:58:42Z</time>
   </trkpt>
   <trkpt lat="-3.1760810" lon="37.2819160">
    <ele>1782.2</ele>
    <time>2026-06-20T10:58:43Z</time>
   </trkpt>
   <trkpt lat="-3.1760750" lon="37.2819240">
    <ele>1782.3</ele>
    <time>2026-06-20T10:58:44Z</time>
   </trkpt>
   <trkpt lat="-3.1760740" lon="37.2819230">
    <ele>1782.3</ele>
    <time>2026-06-20T10:58:45Z</time>
   </trkpt>
   <trkpt lat="-3.1760730" lon="37.2819360">
    <ele>1782.4</ele>
    <time>2026-06-20T10:58:46Z</time>
   </trkpt>
   <trkpt lat="-3.1760620" lon="37.2819430">
    <ele>1782.5</ele>
    <time>2026-06-20T10:58:47Z</time>
   </trkpt>
   <trkpt lat="-3.1760570" lon="37.2819480">
    <ele>1782.6</ele>
    <time>2026-06-20T10:58:48Z</time>
   </trkpt>
   <trkpt lat="-3.1760530" lon="37.2819550">
    <ele>1782.6</ele>
    <time>2026-06-20T10:58:49Z</time>
   </trkpt>
   <trkpt lat="-3.1760470" lon="37.2819600">
    <ele>1782.7</ele>
    <time>2026-06-20T10:58:50Z</time>
   </trkpt>
   <trkpt lat="-3.1760440" lon="37.2819630">
    <ele>1782.7</ele>
    <time>2026-06-20T10:58:51Z</time>
   </trkpt>
   <trkpt lat="-3.1760390" lon="37.2819640">
    <ele>1782.8</ele>
    <time>2026-06-20T10:58:52Z</time>
   </trkpt>
   <trkpt lat="-3.1760310" lon="37.2819730">
    <ele>1782.9</ele>
    <time>2026-06-20T10:58:53Z</time>
   </trkpt>
   <trkpt lat="-3.1760300" lon="37.2819790">
    <ele>1782.9</ele>
    <time>2026-06-20T10:58:54Z</time>
   </trkpt>
   <trkpt lat="-3.1760160" lon="37.2819870">
    <ele>1783.1</ele>
    <time>2026-06-20T10:58:55Z</time>
   </trkpt>
   <trkpt lat="-3.1760090" lon="37.2819960">
    <ele>1783.1</ele>
    <time>2026-06-20T10:58:56Z</time>
   </trkpt>
   <trkpt lat="-3.1760070" lon="37.2820040">
    <ele>1783.2</ele>
    <time>2026-06-20T10:58:57Z</time>
   </trkpt>
   <trkpt lat="-3.1760040" lon="37.2820060">
    <ele>1783.2</ele>
    <time>2026-06-20T10:58:58Z</time>
   </trkpt>
   <trkpt lat="-3.1759980" lon="37.2820080">
    <ele>1783.3</ele>
    <time>2026-06-20T10:58:59Z</time>
   </trkpt>
   <trkpt lat="-3.1759970" lon="37.2820180">
    <ele>1783.3</ele>
    <time>2026-06-20T10:59:00Z</time>
   </trkpt>
   <trkpt lat="-3.1759870" lon="37.2820260">
    <ele>1783.4</ele>
    <time>2026-06-20T10:59:01Z</time>
   </trkpt>
   <trkpt lat="-3.1759810" lon="37.2820310">
    <ele>1783.5</ele>
    <time>2026-06-20T10:59:02Z</time>
   </trkpt>
   <trkpt lat="-3.1759720" lon="37.2820340">
    <ele>1783.6</ele>
    <time>2026-06-20T10:59:03Z</time>
   </trkpt>
   <trkpt lat="-3.1759650" lon="37.2820390">
    <ele>1783.6</ele>
    <time>2026-06-20T10:59:04Z</time>
   </trkpt>
   <trkpt lat="-3.1759640" lon="37.2820450">
    <ele>1783.7</ele>
    <time>2026-06-20T10:59:05Z</time>
   </trkpt>
   <trkpt lat="-3.1759560" lon="37.2820530">
    <ele>1783.7</ele>
    <time>2026-06-20T10:59:06Z</time>
   </trkpt>
   <trkpt lat="-3.1759540" lon="37.2820610">
    <ele>1783.8</ele>
    <time>2026-06-20T10:59:07Z</time>
   </trkpt>
   <trkpt lat="-3.1759470" lon="37.2820670">
    <ele>1783.8</ele>
    <time>2026-06-20T10:59:08Z</time>
   </trkpt>
   <trkpt lat="-3.1759490" lon="37.2820750">
    <ele>1783.9</ele>
    <time>2026-06-20T10:59:09Z</time>
   </trkpt>
   <trkpt lat="-3.1759420" lon="37.2820780">
    <ele>1783.9</ele>
    <time>2026-06-20T10:59:10Z</time>
   </trkpt>
   <trkpt lat="-3.1759370" lon="37.2820830">
    <ele>1784.0</ele>
    <time>2026-06-20T10:59:11Z</time>
   </trkpt>
   <trkpt lat="-3.1759340" lon="37.2820930">
    <ele>1784.1</ele>
    <time>2026-06-20T10:59:12Z</time>
   </trkpt>
   <trkpt lat="-3.1759290" lon="37.2821050">
    <ele>1784.1</ele>
    <time>2026-06-20T10:59:13Z</time>
   </trkpt>
   <trkpt lat="-3.1759220" lon="37.2821190">
    <ele>1784.2</ele>
    <time>2026-06-20T10:59:14Z</time>
   </trkpt>
   <trkpt lat="-3.1759190" lon="37.2821160">
    <ele>1784.3</ele>
    <time>2026-06-20T10:59:15Z</time>
   </trkpt>
   <trkpt lat="-3.1759190" lon="37.2821190">
    <ele>1784.3</ele>
    <time>2026-06-20T10:59:16Z</time>
   </trkpt>
   <trkpt lat="-3.1759210" lon="37.2821330">
    <ele>1784.4</ele>
    <time>2026-06-20T10:59:17Z</time>
   </trkpt>
   <trkpt lat="-3.1759090" lon="37.2821330">
    <ele>1784.5</ele>
    <time>2026-06-20T10:59:18Z</time>
   </trkpt>
   <trkpt lat="-3.1759000" lon="37.2821430">
    <ele>1784.6</ele>
    <time>2026-06-20T10:59:19Z</time>
   </trkpt>
   <trkpt lat="-3.1758890" lon="37.2821530">
    <ele>1784.7</ele>
    <time>2026-06-20T10:59:20Z</time>
   </trkpt>
   <trkpt lat="-3.1758790" lon="37.2821590">
    <ele>1784.7</ele>
    <time>2026-06-20T10:59:21Z</time>
   </trkpt>
   <trkpt lat="-3.1758730" lon="37.2821620">
    <ele>1784.8</ele>
    <time>2026-06-20T10:59:22Z</time>
   </trkpt>
   <trkpt lat="-3.1758680" lon="37.2821680">
    <ele>1784.8</ele>
    <time>2026-06-20T10:59:23Z</time>
   </trkpt>
   <trkpt lat="-3.1758580" lon="37.2821830">
    <ele>1785.0</ele>
    <time>2026-06-20T10:59:24Z</time>
   </trkpt>
   <trkpt lat="-3.1758510" lon="37.2821930">
    <ele>1785.1</ele>
    <time>2026-06-20T10:59:25Z</time>
   </trkpt>
   <trkpt lat="-3.1758370" lon="37.2822020">
    <ele>1785.2</ele>
    <time>2026-06-20T10:59:26Z</time>
   </trkpt>
   <trkpt lat="-3.1758300" lon="37.2822040">
    <ele>1785.2</ele>
    <time>2026-06-20T10:59:27Z</time>
   </trkpt>
   <trkpt lat="-3.1758270" lon="37.2822090">
    <ele>1785.3</ele>
    <time>2026-06-20T10:59:28Z</time>
   </trkpt>
   <trkpt lat="-3.1758220" lon="37.2822150">
    <ele>1785.3</ele>
    <time>2026-06-20T10:59:29Z</time>
   </trkpt>
   <trkpt lat="-3.1758090" lon="37.2822200">
    <ele>1785.4</ele>
    <time>2026-06-20T10:59:30Z</time>
   </trkpt>
   <trkpt lat="-3.1758030" lon="37.2822280">
    <ele>1785.5</ele>
    <time>2026-06-20T10:59:31Z</time>
   </trkpt>
   <trkpt lat="-3.1758000" lon="37.2822350">
    <ele>1785.6</ele>
    <time>2026-06-20T10:59:32Z</time>
   </trkpt>
   <trkpt lat="-3.1757950" lon="37.2822380">
    <ele>1785.6</ele>
    <time>2026-06-20T10:59:33Z</time>
   </trkpt>
   <trkpt lat="-3.1757850" lon="37.2822400">
    <ele>1785.7</ele>
    <time>2026-06-20T10:59:34Z</time>
   </trkpt>
   <trkpt lat="-3.1757810" lon="37.2822420">
    <ele>1785.7</ele>
    <time>2026-06-20T10:59:35Z</time>
   </trkpt>
   <trkpt lat="-3.1757710" lon="37.2822480">
    <ele>1785.8</ele>
    <time>2026-06-20T10:59:36Z</time>
   </trkpt>
   <trkpt lat="-3.1757650" lon="37.2822540">
    <ele>1785.9</ele>
    <time>2026-06-20T10:59:37Z</time>
   </trkpt>
   <trkpt lat="-3.1757550" lon="37.2822600">
    <ele>1786.0</ele>
    <time>2026-06-20T10:59:38Z</time>
   </trkpt>
   <trkpt lat="-3.1757480" lon="37.2822670">
    <ele>1786.1</ele>
    <time>2026-06-20T10:59:39Z</time>
   </trkpt>
   <trkpt lat="-3.1757380" lon="37.2822750">
    <ele>1786.2</ele>
    <time>2026-06-20T10:59:40Z</time>
   </trkpt>
   <trkpt lat="-3.1757310" lon="37.2822820">
    <ele>1786.3</ele>
    <time>2026-06-20T10:59:41Z</time>
   </trkpt>
   <trkpt lat="-3.1757260" lon="37.2822880">
    <ele>1786.3</ele>
    <time>2026-06-20T10:59:42Z</time>
   </trkpt>
   <trkpt lat="-3.1757140" lon="37.2822950">
    <ele>1786.5</ele>
    <time>2026-06-20T10:59:43Z</time>
   </trkpt>
   <trkpt lat="-3.1757080" lon="37.2823020">
    <ele>1786.5</ele>
    <time>2026-06-20T10:59:44Z</time>
   </trkpt>
   <trkpt lat="-3.1757020" lon="37.2823110">
    <ele>1786.6</ele>
    <time>2026-06-20T10:59:45Z</time>
   </trkpt>
   <trkpt lat="-3.1756960" lon="37.2823180">
    <ele>1786.7</ele>
    <time>2026-06-20T10:59:46Z</time>
   </trkpt>
   <trkpt lat="-3.1756870" lon="37.2823240">
    <ele>1786.8</ele>
    <time>2026-06-20T10:59:47Z</time>
   </trkpt>
   <trkpt lat="-3.1756790" lon="37.2823310">
    <ele>1786.9</ele>
    <time>2026-06-20T10:59:48Z</time>
   </trkpt>
   <trkpt lat="-3.1756770" lon="37.2823350">
    <ele>1786.9</ele>
    <time>2026-06-20T10:59:49Z</time>
   </trkpt>
   <trkpt lat="-3.1756750" lon="37.2823400">
    <ele>1787.0</ele>
    <time>2026-06-20T10:59:50Z</time>
   </trkpt>
   <trkpt lat="-3.1756700" lon="37.2823480">
    <ele>1787.0</ele>
    <time>2026-06-20T10:59:51Z</time>
   </trkpt>
   <trkpt lat="-3.1756640" lon="37.2823540">
    <ele>1787.1</ele>
    <time>2026-06-20T10:59:52Z</time>
   </trkpt>
   <trkpt lat="-3.1756600" lon="37.2823560">
    <ele>1787.1</ele>
    <time>2026-06-20T10:59:53Z</time>
   </trkpt>
   <trkpt lat="-3.1756590" lon="37.2823600">
    <ele>1787.2</ele>
    <time>2026-06-20T10:59:54Z</time>
   </trkpt>
   <trkpt lat="-3.1756520" lon="37.2823660">
    <ele>1787.2</ele>
    <time>2026-06-20T10:59:55Z</time>
   </trkpt>
   <trkpt lat="-3.1756410" lon="37.2823710">
    <ele>1787.3</ele>
    <time>2026-06-20T10:59:56Z</time>
   </trkpt>
   <trkpt lat="-3.1756400" lon="37.2823720">
    <ele>1787.4</ele>
    <time>2026-06-20T10:59:57Z</time>
   </trkpt>
   <trkpt lat="-3.1756330" lon="37.2823750">
    <ele>1787.4</ele>
    <time>2026-06-20T10:59:58Z</time>
   </trkpt>
   <trkpt lat="-3.1756250" lon="37.2823780">
    <ele>1787.5</ele>
    <time>2026-06-20T10:59:59Z</time>
   </trkpt>
   <trkpt lat="-3.1756200" lon="37.2823800">
    <ele>1787.5</ele>
    <time>2026-06-20T11:00:00Z</time>
   </trkpt>
   <trkpt lat="-3.1756050" lon="37.2823780">
    <ele>1787.6</ele>
    <time>2026-06-20T11:00:01Z</time>
   </trkpt>
   <trkpt lat="-3.1755960" lon="37.2823840">
    <ele>1787.7</ele>
    <time>2026-06-20T11:00:02Z</time>
   </trkpt>
   <trkpt lat="-3.1755840" lon="37.2823830">
    <ele>1787.8</ele>
    <time>2026-06-20T11:00:03Z</time>
   </trkpt>
   <trkpt lat="-3.1755750" lon="37.2823830">
    <ele>1787.8</ele>
    <time>2026-06-20T11:00:04Z</time>
   </trkpt>
   <trkpt lat="-3.1755620" lon="37.2823850">
    <ele>1787.9</ele>
    <time>2026-06-20T11:00:05Z</time>
   </trkpt>
   <trkpt lat="-3.1755540" lon="37.2823880">
    <ele>1788.0</ele>
    <time>2026-06-20T11:00:06Z</time>
   </trkpt>
   <trkpt lat="-3.1755480" lon="37.2823900">
    <ele>1788.0</ele>
    <time>2026-06-20T11:00:07Z</time>
   </trkpt>
   <trkpt lat="-3.1755390" lon="37.2823910">
    <ele>1788.1</ele>
    <time>2026-06-20T11:00:08Z</time>
   </trkpt>
   <trkpt lat="-3.1755310" lon="37.2823910">
    <ele>1788.1</ele>
    <time>2026-06-20T11:00:09Z</time>
   </trkpt>
   <trkpt lat="-3.1755240" lon="37.2823910">
    <ele>1788.2</ele>
    <time>2026-06-20T11:00:10Z</time>
   </trkpt>
   <trkpt lat="-3.1755190" lon="37.2823920">
    <ele>1788.2</ele>
    <time>2026-06-20T11:00:11Z</time>
   </trkpt>
   <trkpt lat="-3.1755100" lon="37.2823950">
    <ele>1788.3</ele>
    <time>2026-06-20T11:00:12Z</time>
   </trkpt>
   <trkpt lat="-3.1754930" lon="37.2823990">
    <ele>1788.4</ele>
    <time>2026-06-20T11:00:13Z</time>
   </trkpt>
   <trkpt lat="-3.1754860" lon="37.2824080">
    <ele>1788.5</ele>
    <time>2026-06-20T11:00:14Z</time>
   </trkpt>
   <trkpt lat="-3.1754760" lon="37.2824120">
    <ele>1788.6</ele>
    <time>2026-06-20T11:00:15Z</time>
   </trkpt>
   <trkpt lat="-3.1754720" lon="37.2824130">
    <ele>1788.6</ele>
    <time>2026-06-20T11:00:16Z</time>
   </trkpt>
   <trkpt lat="-3.1754610" lon="37.2824120">
    <ele>1788.7</ele>
    <time>2026-06-20T11:00:17Z</time>
   </trkpt>
   <trkpt lat="-3.1754530" lon="37.2824130">
    <ele>1788.7</ele>
    <time>2026-06-20T11:00:18Z</time>
   </trkpt>
   <trkpt lat="-3.1754480" lon="37.2824170">
    <ele>1788.7</ele>
    <time>2026-06-20T11:00:19Z</time>
   </trkpt>
   <trkpt lat="-3.1754420" lon="37.2824140">
    <ele>1788.8</ele>
    <time>2026-06-20T11:00:20Z</time>
   </trkpt>
   <trkpt lat="-3.1754300" lon="37.2824120">
    <ele>1788.9</ele>
    <time>2026-06-20T11:00:21Z</time>
   </trkpt>
   <trkpt lat="-3.1754260" lon="37.2824110">
    <ele>1788.9</ele>
    <time>2026-06-20T11:00:22Z</time>
   </trkpt>
   <trkpt lat="-3.1754220" lon="37.2824140">
    <ele>1788.9</ele>
    <time>2026-06-20T11:00:23Z</time>
   </trkpt>
   <trkpt lat="-3.1754130" lon="37.2824150">
    <ele>1789.0</ele>
    <time>2026-06-20T11:00:24Z</time>
   </trkpt>
   <trkpt lat="-3.1754040" lon="37.2824160">
    <ele>1789.1</ele>
    <time>2026-06-20T11:00:25Z</time>
   </trkpt>
   <trkpt lat="-3.1753970" lon="37.2824140">
    <ele>1789.1</ele>
    <time>2026-06-20T11:00:26Z</time>
   </trkpt>
   <trkpt lat="-3.1753900" lon="37.2824160">
    <ele>1789.1</ele>
    <time>2026-06-20T11:00:27Z</time>
   </trkpt>
   <trkpt lat="-3.1753830" lon="37.2824160">
    <ele>1789.2</ele>
    <time>2026-06-20T11:00:28Z</time>
   </trkpt>
   <trkpt lat="-3.1753610" lon="37.2824150">
    <ele>1789.3</ele>
    <time>2026-06-20T11:00:29Z</time>
   </trkpt>
   <trkpt lat="-3.1753570" lon="37.2824100">
    <ele>1789.4</ele>
    <time>2026-06-20T11:00:30Z</time>
   </trkpt>
   <trkpt lat="-3.1753540" lon="37.2824110">
    <ele>1789.4</ele>
    <time>2026-06-20T11:00:31Z</time>
   </trkpt>
   <trkpt lat="-3.1753500" lon="37.2824120">
    <ele>1789.4</ele>
    <time>2026-06-20T11:00:32Z</time>
   </trkpt>
   <trkpt lat="-3.1753400" lon="37.2824090">
    <ele>1789.5</ele>
    <time>2026-06-20T11:00:33Z</time>
   </trkpt>
   <trkpt lat="-3.1753340" lon="37.2824090">
    <ele>1789.5</ele>
    <time>2026-06-20T11:00:34Z</time>
   </trkpt>
   <trkpt lat="-3.1753280" lon="37.2824140">
    <ele>1789.6</ele>
    <time>2026-06-20T11:00:35Z</time>
   </trkpt>
   <trkpt lat="-3.1753190" lon="37.2824160">
    <ele>1789.6</ele>
    <time>2026-06-20T11:00:36Z</time>
   </trkpt>
   <trkpt lat="-3.1753120" lon="37.2824150">
    <ele>1789.7</ele>
    <time>2026-06-20T11:00:37Z</time>
   </trkpt>
   <trkpt lat="-3.1753060" lon="37.2824120">
    <ele>1789.7</ele>
    <time>2026-06-20T11:00:38Z</time>
   </trkpt>
   <trkpt lat="-3.1753030" lon="37.2824130">
    <ele>1789.7</ele>
    <time>2026-06-20T11:00:39Z</time>
   </trkpt>
   <trkpt lat="-3.1752970" lon="37.2824140">
    <ele>1789.8</ele>
    <time>2026-06-20T11:00:40Z</time>
   </trkpt>
   <trkpt lat="-3.1752920" lon="37.2824160">
    <ele>1789.8</ele>
    <time>2026-06-20T11:00:41Z</time>
   </trkpt>
   <trkpt lat="-3.1752780" lon="37.2824150">
    <ele>1789.9</ele>
    <time>2026-06-20T11:00:42Z</time>
   </trkpt>
   <trkpt lat="-3.1752700" lon="37.2824160">
    <ele>1789.9</ele>
    <time>2026-06-20T11:00:43Z</time>
   </trkpt>
   <trkpt lat="-3.1752600" lon="37.2824120">
    <ele>1790.0</ele>
    <time>2026-06-20T11:00:44Z</time>
   </trkpt>
   <trkpt lat="-3.1752470" lon="37.2824080">
    <ele>1790.1</ele>
    <time>2026-06-20T11:00:45Z</time>
   </trkpt>
   <trkpt lat="-3.1752420" lon="37.2824100">
    <ele>1790.1</ele>
    <time>2026-06-20T11:00:46Z</time>
   </trkpt>
   <trkpt lat="-3.1752380" lon="37.2824100">
    <ele>1790.1</ele>
    <time>2026-06-20T11:00:47Z</time>
   </trkpt>
   <trkpt lat="-3.1752270" lon="37.2824080">
    <ele>1790.2</ele>
    <time>2026-06-20T11:00:48Z</time>
   </trkpt>
   <trkpt lat="-3.1752180" lon="37.2824060">
    <ele>1790.2</ele>
    <time>2026-06-20T11:00:49Z</time>
   </trkpt>
   <trkpt lat="-3.1752100" lon="37.2824020">
    <ele>1790.3</ele>
    <time>2026-06-20T11:00:50Z</time>
   </trkpt>
   <trkpt lat="-3.1752030" lon="37.2824030">
    <ele>1790.3</ele>
    <time>2026-06-20T11:00:52Z</time>
   </trkpt>
   <trkpt lat="-3.1752030" lon="37.2824000">
    <ele>1790.3</ele>
    <time>2026-06-20T11:00:53Z</time>
   </trkpt>
   <trkpt lat="-3.1751910" lon="37.2823980">
    <ele>1790.4</ele>
    <time>2026-06-20T11:00:54Z</time>
   </trkpt>
   <trkpt lat="-3.1751830" lon="37.2824030">
    <ele>1790.5</ele>
    <time>2026-06-20T11:00:55Z</time>
   </trkpt>
   <trkpt lat="-3.1751730" lon="37.2823920">
    <ele>1790.5</ele>
    <time>2026-06-20T11:00:56Z</time>
   </trkpt>
   <trkpt lat="-3.1751690" lon="37.2823900">
    <ele>1790.6</ele>
    <time>2026-06-20T11:00:57Z</time>
   </trkpt>
   <trkpt lat="-3.1751600" lon="37.2823900">
    <ele>1790.6</ele>
    <time>2026-06-20T11:00:58Z</time>
   </trkpt>
   <trkpt lat="-3.1751510" lon="37.2823890">
    <ele>1790.6</ele>
    <time>2026-06-20T11:00:59Z</time>
   </trkpt>
   <trkpt lat="-3.1751430" lon="37.2823880">
    <ele>1790.7</ele>
    <time>2026-06-20T11:01:00Z</time>
   </trkpt>
   <trkpt lat="-3.1751310" lon="37.2823860">
    <ele>1790.7</ele>
    <time>2026-06-20T11:01:01Z</time>
   </trkpt>
   <trkpt lat="-3.1751300" lon="37.2823870">
    <ele>1790.7</ele>
    <time>2026-06-20T11:01:02Z</time>
   </trkpt>
   <trkpt lat="-3.1751230" lon="37.2823890">
    <ele>1790.8</ele>
    <time>2026-06-20T11:01:03Z</time>
   </trkpt>
   <trkpt lat="-3.1751110" lon="37.2823860">
    <ele>1790.8</ele>
    <time>2026-06-20T11:01:04Z</time>
   </trkpt>
   <trkpt lat="-3.1751040" lon="37.2823890">
    <ele>1790.8</ele>
    <time>2026-06-20T11:01:05Z</time>
   </trkpt>
   <trkpt lat="-3.1750970" lon="37.2823840">
    <ele>1790.9</ele>
    <time>2026-06-20T11:01:06Z</time>
   </trkpt>
   <trkpt lat="-3.1750900" lon="37.2823820">
    <ele>1790.9</ele>
    <time>2026-06-20T11:01:07Z</time>
   </trkpt>
   <trkpt lat="-3.1750850" lon="37.2823790">
    <ele>1790.9</ele>
    <time>2026-06-20T11:01:08Z</time>
   </trkpt>
   <trkpt lat="-3.1750700" lon="37.2823720">
    <ele>1791.0</ele>
    <time>2026-06-20T11:01:09Z</time>
   </trkpt>
   <trkpt lat="-3.1750620" lon="37.2823710">
    <ele>1791.0</ele>
    <time>2026-06-20T11:01:10Z</time>
   </trkpt>
   <trkpt lat="-3.1750570" lon="37.2823700">
    <ele>1791.0</ele>
    <time>2026-06-20T11:01:11Z</time>
   </trkpt>
   <trkpt lat="-3.1750520" lon="37.2823730">
    <ele>1791.1</ele>
    <time>2026-06-20T11:01:12Z</time>
   </trkpt>
   <trkpt lat="-3.1750510" lon="37.2823770">
    <ele>1791.1</ele>
    <time>2026-06-20T11:01:13Z</time>
   </trkpt>
   <trkpt lat="-3.1750430" lon="37.2823760">
    <ele>1791.1</ele>
    <time>2026-06-20T11:01:14Z</time>
   </trkpt>
   <trkpt lat="-3.1750320" lon="37.2823710">
    <ele>1791.1</ele>
    <time>2026-06-20T11:01:15Z</time>
   </trkpt>
   <trkpt lat="-3.1750220" lon="37.2823730">
    <ele>1791.2</ele>
    <time>2026-06-20T11:01:16Z</time>
   </trkpt>
   <trkpt lat="-3.1750120" lon="37.2823770">
    <ele>1791.2</ele>
    <time>2026-06-20T11:01:17Z</time>
   </trkpt>
   <trkpt lat="-3.1750050" lon="37.2823830">
    <ele>1791.3</ele>
    <time>2026-06-20T11:01:18Z</time>
   </trkpt>
   <trkpt lat="-3.1749940" lon="37.2823850">
    <ele>1791.3</ele>
    <time>2026-06-20T11:01:19Z</time>
   </trkpt>
   <trkpt lat="-3.1749860" lon="37.2823850">
    <ele>1791.3</ele>
    <time>2026-06-20T11:01:20Z</time>
   </trkpt>
   <trkpt lat="-3.1749720" lon="37.2823840">
    <ele>1791.4</ele>
    <time>2026-06-20T11:01:21Z</time>
   </trkpt>
   <trkpt lat="-3.1749580" lon="37.2823850">
    <ele>1791.5</ele>
    <time>2026-06-20T11:01:22Z</time>
   </trkpt>
   <trkpt lat="-3.1749490" lon="37.2823860">
    <ele>1791.5</ele>
    <time>2026-06-20T11:01:23Z</time>
   </trkpt>
   <trkpt lat="-3.1749410" lon="37.2823920">
    <ele>1791.5</ele>
    <time>2026-06-20T11:01:24Z</time>
   </trkpt>
   <trkpt lat="-3.1749380" lon="37.2823950">
    <ele>1791.6</ele>
    <time>2026-06-20T11:01:25Z</time>
   </trkpt>
   <trkpt lat="-3.1749280" lon="37.2823930">
    <ele>1791.6</ele>
    <time>2026-06-20T11:01:26Z</time>
   </trkpt>
   <trkpt lat="-3.1749150" lon="37.2823920">
    <ele>1791.7</ele>
    <time>2026-06-20T11:01:27Z</time>
   </trkpt>
   <trkpt lat="-3.1749030" lon="37.2823920">
    <ele>1791.7</ele>
    <time>2026-06-20T11:01:28Z</time>
   </trkpt>
   <trkpt lat="-3.1748960" lon="37.2823830">
    <ele>1791.8</ele>
    <time>2026-06-20T11:01:29Z</time>
   </trkpt>
   <trkpt lat="-3.1748880" lon="37.2823810">
    <ele>1791.8</ele>
    <time>2026-06-20T11:01:30Z</time>
   </trkpt>
   <trkpt lat="-3.1748790" lon="37.2823770">
    <ele>1791.9</ele>
    <time>2026-06-20T11:01:31Z</time>
   </trkpt>
   <trkpt lat="-3.1748740" lon="37.2823760">
    <ele>1791.9</ele>
    <time>2026-06-20T11:01:32Z</time>
   </trkpt>
   <trkpt lat="-3.1748760" lon="37.2823730">
    <ele>1791.9</ele>
    <time>2026-06-20T11:01:33Z</time>
   </trkpt>
   <trkpt lat="-3.1748680" lon="37.2823720">
    <ele>1791.9</ele>
    <time>2026-06-20T11:01:34Z</time>
   </trkpt>
   <trkpt lat="-3.1748640" lon="37.2823730">
    <ele>1791.9</ele>
    <time>2026-06-20T11:01:35Z</time>
   </trkpt>
   <trkpt lat="-3.1748610" lon="37.2823730">
    <ele>1792.0</ele>
    <time>2026-06-20T11:01:36Z</time>
   </trkpt>
   <trkpt lat="-3.1748510" lon="37.2823730">
    <ele>1792.0</ele>
    <time>2026-06-20T11:01:37Z</time>
   </trkpt>
   <trkpt lat="-3.1748370" lon="37.2823760">
    <ele>1792.1</ele>
    <time>2026-06-20T11:01:38Z</time>
   </trkpt>
   <trkpt lat="-3.1748280" lon="37.2823720">
    <ele>1792.1</ele>
    <time>2026-06-20T11:01:39Z</time>
   </trkpt>
   <trkpt lat="-3.1748180" lon="37.2823710">
    <ele>1792.2</ele>
    <time>2026-06-20T11:01:40Z</time>
   </trkpt>
   <trkpt lat="-3.1748100" lon="37.2823660">
    <ele>1792.2</ele>
    <time>2026-06-20T11:01:41Z</time>
   </trkpt>
   <trkpt lat="-3.1748020" lon="37.2823670">
    <ele>1792.2</ele>
    <time>2026-06-20T11:01:42Z</time>
   </trkpt>
   <trkpt lat="-3.1747940" lon="37.2823660">
    <ele>1792.3</ele>
    <time>2026-06-20T11:01:43Z</time>
   </trkpt>
   <trkpt lat="-3.1747810" lon="37.2823700">
    <ele>1792.3</ele>
    <time>2026-06-20T11:01:44Z</time>
   </trkpt>
   <trkpt lat="-3.1747700" lon="37.2823710">
    <ele>1792.4</ele>
    <time>2026-06-20T11:01:45Z</time>
   </trkpt>
   <trkpt lat="-3.1747580" lon="37.2823750">
    <ele>1792.4</ele>
    <time>2026-06-20T11:01:46Z</time>
   </trkpt>
   <trkpt lat="-3.1747470" lon="37.2823750">
    <ele>1792.5</ele>
    <time>2026-06-20T11:01:47Z</time>
   </trkpt>
   <trkpt lat="-3.1747340" lon="37.2823760">
    <ele>1792.5</ele>
    <time>2026-06-20T11:01:48Z</time>
   </trkpt>
   <trkpt lat="-3.1747270" lon="37.2823780">
    <ele>1792.6</ele>
    <time>2026-06-20T11:01:49Z</time>
   </trkpt>
   <trkpt lat="-3.1747150" lon="37.2823810">
    <ele>1792.6</ele>
    <time>2026-06-20T11:01:50Z</time>
   </trkpt>
   <trkpt lat="-3.1747100" lon="37.2823790">
    <ele>1792.6</ele>
    <time>2026-06-20T11:01:51Z</time>
   </trkpt>
   <trkpt lat="-3.1747010" lon="37.2823830">
    <ele>1792.7</ele>
    <time>2026-06-20T11:01:52Z</time>
   </trkpt>
   <trkpt lat="-3.1746930" lon="37.2823850">
    <ele>1792.7</ele>
    <time>2026-06-20T11:01:53Z</time>
   </trkpt>
   <trkpt lat="-3.1746860" lon="37.2823780">
    <ele>1792.7</ele>
    <time>2026-06-20T11:01:54Z</time>
   </trkpt>
   <trkpt lat="-3.1746770" lon="37.2823770">
    <ele>1792.8</ele>
    <time>2026-06-20T11:01:55Z</time>
   </trkpt>
   <trkpt lat="-3.1746630" lon="37.2823770">
    <ele>1792.8</ele>
    <time>2026-06-20T11:01:56Z</time>
   </trkpt>
   <trkpt lat="-3.1746560" lon="37.2823790">
    <ele>1792.9</ele>
    <time>2026-06-20T11:01:57Z</time>
   </trkpt>
   <trkpt lat="-3.1746420" lon="37.2823840">
    <ele>1792.9</ele>
    <time>2026-06-20T11:01:58Z</time>
   </trkpt>
   <trkpt lat="-3.1746370" lon="37.2823810">
    <ele>1793.0</ele>
    <time>2026-06-20T11:01:59Z</time>
   </trkpt>
   <trkpt lat="-3.1746280" lon="37.2823790">
    <ele>1793.0</ele>
    <time>2026-06-20T11:02:00Z</time>
   </trkpt>
   <trkpt lat="-3.1746230" lon="37.2823730">
    <ele>1793.0</ele>
    <time>2026-06-20T11:02:01Z</time>
   </trkpt>
   <trkpt lat="-3.1746120" lon="37.2823710">
    <ele>1793.1</ele>
    <time>2026-06-20T11:02:02Z</time>
   </trkpt>
   <trkpt lat="-3.1746070" lon="37.2823670">
    <ele>1793.1</ele>
    <time>2026-06-20T11:02:03Z</time>
   </trkpt>
   <trkpt lat="-3.1746060" lon="37.2823660">
    <ele>1793.1</ele>
    <time>2026-06-20T11:02:04Z</time>
   </trkpt>
   <trkpt lat="-3.1745980" lon="37.2823590">
    <ele>1793.2</ele>
    <time>2026-06-20T11:02:05Z</time>
   </trkpt>
   <trkpt lat="-3.1745950" lon="37.2823520">
    <ele>1793.2</ele>
    <time>2026-06-20T11:02:06Z</time>
   </trkpt>
   <trkpt lat="-3.1745910" lon="37.2823510">
    <ele>1793.2</ele>
    <time>2026-06-20T11:02:07Z</time>
   </trkpt>
   <trkpt lat="-3.1745830" lon="37.2823560">
    <ele>1793.3</ele>
    <time>2026-06-20T11:02:08Z</time>
   </trkpt>
   <trkpt lat="-3.1745790" lon="37.2823550">
    <ele>1793.3</ele>
    <time>2026-06-20T11:02:09Z</time>
   </trkpt>
   <trkpt lat="-3.1745740" lon="37.2823510">
    <ele>1793.3</ele>
    <time>2026-06-20T11:02:10Z</time>
   </trkpt>
   <trkpt lat="-3.1745720" lon="37.2823430">
    <ele>1793.4</ele>
    <time>2026-06-20T11:02:11Z</time>
   </trkpt>
   <trkpt lat="-3.1745660" lon="37.2823480">
    <ele>1793.4</ele>
    <time>2026-06-20T11:02:12Z</time>
   </trkpt>
   <trkpt lat="-3.1745610" lon="37.2823480">
    <ele>1793.4</ele>
    <time>2026-06-20T11:02:13Z</time>
   </trkpt>
   <trkpt lat="-3.1745570" lon="37.2823440">
    <ele>1793.5</ele>
    <time>2026-06-20T11:02:14Z</time>
   </trkpt>
   <trkpt lat="-3.1745460" lon="37.2823490">
    <ele>1793.5</ele>
    <time>2026-06-20T11:02:15Z</time>
   </trkpt>
   <trkpt lat="-3.1745400" lon="37.2823490">
    <ele>1793.6</ele>
    <time>2026-06-20T11:02:16Z</time>
   </trkpt>
   <trkpt lat="-3.1745360" lon="37.2823430">
    <ele>1793.6</ele>
    <time>2026-06-20T11:02:17Z</time>
   </trkpt>
   <trkpt lat="-3.1745250" lon="37.2823450">
    <ele>1793.7</ele>
    <time>2026-06-20T11:02:18Z</time>
   </trkpt>
   <trkpt lat="-3.1745170" lon="37.2823450">
    <ele>1793.7</ele>
    <time>2026-06-20T11:02:19Z</time>
   </trkpt>
   <trkpt lat="-3.1745100" lon="37.2823410">
    <ele>1793.7</ele>
    <time>2026-06-20T11:02:20Z</time>
   </trkpt>
   <trkpt lat="-3.1745030" lon="37.2823370">
    <ele>1793.8</ele>
    <time>2026-06-20T11:02:21Z</time>
   </trkpt>
   <trkpt lat="-3.1744970" lon="37.2823330">
    <ele>1793.8</ele>
    <time>2026-06-20T11:02:22Z</time>
   </trkpt>
   <trkpt lat="-3.1744880" lon="37.2823300">
    <ele>1793.9</ele>
    <time>2026-06-20T11:02:23Z</time>
   </trkpt>
   <trkpt lat="-3.1744850" lon="37.2823200">
    <ele>1793.9</ele>
    <time>2026-06-20T11:02:24Z</time>
   </trkpt>
   <trkpt lat="-3.1744790" lon="37.2823140">
    <ele>1794.0</ele>
    <time>2026-06-20T11:02:25Z</time>
   </trkpt>
   <trkpt lat="-3.1744680" lon="37.2823070">
    <ele>1794.0</ele>
    <time>2026-06-20T11:02:26Z</time>
   </trkpt>
   <trkpt lat="-3.1744580" lon="37.2823080">
    <ele>1794.1</ele>
    <time>2026-06-20T11:02:27Z</time>
   </trkpt>
   <trkpt lat="-3.1744480" lon="37.2823070">
    <ele>1794.1</ele>
    <time>2026-06-20T11:02:28Z</time>
   </trkpt>
   <trkpt lat="-3.1744420" lon="37.2823060">
    <ele>1794.2</ele>
    <time>2026-06-20T11:02:29Z</time>
   </trkpt>
   <trkpt lat="-3.1744330" lon="37.2823070">
    <ele>1794.2</ele>
    <time>2026-06-20T11:02:30Z</time>
   </trkpt>
   <trkpt lat="-3.1744210" lon="37.2823050">
    <ele>1794.2</ele>
    <time>2026-06-20T11:02:31Z</time>
   </trkpt>
   <trkpt lat="-3.1744080" lon="37.2823020">
    <ele>1794.3</ele>
    <time>2026-06-20T11:02:32Z</time>
   </trkpt>
   <trkpt lat="-3.1744000" lon="37.2822990">
    <ele>1794.3</ele>
    <time>2026-06-20T11:02:33Z</time>
   </trkpt>
   <trkpt lat="-3.1743930" lon="37.2823030">
    <ele>1794.4</ele>
    <time>2026-06-20T11:02:34Z</time>
   </trkpt>
   <trkpt lat="-3.1743820" lon="37.2823020">
    <ele>1794.4</ele>
    <time>2026-06-20T11:02:35Z</time>
   </trkpt>
   <trkpt lat="-3.1743720" lon="37.2823000">
    <ele>1794.5</ele>
    <time>2026-06-20T11:02:36Z</time>
   </trkpt>
   <trkpt lat="-3.1743620" lon="37.2823000">
    <ele>1794.5</ele>
    <time>2026-06-20T11:02:37Z</time>
   </trkpt>
   <trkpt lat="-3.1743540" lon="37.2823030">
    <ele>1794.5</ele>
    <time>2026-06-20T11:02:38Z</time>
   </trkpt>
   <trkpt lat="-3.1743460" lon="37.2823020">
    <ele>1794.6</ele>
    <time>2026-06-20T11:02:39Z</time>
   </trkpt>
   <trkpt lat="-3.1743390" lon="37.2823030">
    <ele>1794.6</ele>
    <time>2026-06-20T11:02:40Z</time>
   </trkpt>
   <trkpt lat="-3.1743290" lon="37.2823070">
    <ele>1794.7</ele>
    <time>2026-06-20T11:02:41Z</time>
   </trkpt>
   <trkpt lat="-3.1743250" lon="37.2823080">
    <ele>1794.7</ele>
    <time>2026-06-20T11:02:42Z</time>
   </trkpt>
   <trkpt lat="-3.1743130" lon="37.2823060">
    <ele>1794.7</ele>
    <time>2026-06-20T11:02:43Z</time>
   </trkpt>
   <trkpt lat="-3.1743040" lon="37.2823090">
    <ele>1794.8</ele>
    <time>2026-06-20T11:02:44Z</time>
   </trkpt>
   <trkpt lat="-3.1742970" lon="37.2823050">
    <ele>1794.8</ele>
    <time>2026-06-20T11:02:45Z</time>
   </trkpt>
   <trkpt lat="-3.1742910" lon="37.2823010">
    <ele>1794.8</ele>
    <time>2026-06-20T11:02:46Z</time>
   </trkpt>
   <trkpt lat="-3.1742810" lon="37.2823020">
    <ele>1794.9</ele>
    <time>2026-06-20T11:02:47Z</time>
   </trkpt>
   <trkpt lat="-3.1742790" lon="37.2822920">
    <ele>1794.9</ele>
    <time>2026-06-20T11:02:48Z</time>
   </trkpt>
   <trkpt lat="-3.1742680" lon="37.2822860">
    <ele>1795.0</ele>
    <time>2026-06-20T11:02:49Z</time>
   </trkpt>
   <trkpt lat="-3.1742600" lon="37.2822820">
    <ele>1795.0</ele>
    <time>2026-06-20T11:02:50Z</time>
   </trkpt>
   <trkpt lat="-3.1742550" lon="37.2822770">
    <ele>1795.0</ele>
    <time>2026-06-20T11:02:51Z</time>
   </trkpt>
   <trkpt lat="-3.1742480" lon="37.2822740">
    <ele>1795.1</ele>
    <time>2026-06-20T11:02:52Z</time>
   </trkpt>
   <trkpt lat="-3.1742460" lon="37.2822650">
    <ele>1795.1</ele>
    <time>2026-06-20T11:02:53Z</time>
   </trkpt>
   <trkpt lat="-3.1742400" lon="37.2822670">
    <ele>1795.2</ele>
    <time>2026-06-20T11:02:54Z</time>
   </trkpt>
   <trkpt lat="-3.1742310" lon="37.2822650">
    <ele>1795.2</ele>
    <time>2026-06-20T11:02:55Z</time>
   </trkpt>
   <trkpt lat="-3.1742160" lon="37.2822610">
    <ele>1795.3</ele>
    <time>2026-06-20T11:02:56Z</time>
   </trkpt>
   <trkpt lat="-3.1742050" lon="37.2822630">
    <ele>1795.4</ele>
    <time>2026-06-20T11:02:58Z</time>
   </trkpt>
   <trkpt lat="-3.1741960" lon="37.2822650">
    <ele>1795.4</ele>
    <time>2026-06-20T11:02:59Z</time>
   </trkpt>
   <trkpt lat="-3.1741960" lon="37.2822630">
    <ele>1795.4</ele>
    <time>2026-06-20T11:03:00Z</time>
   </trkpt>
   <trkpt lat="-3.1741930" lon="37.2822580">
    <ele>1795.4</ele>
    <time>2026-06-20T11:03:01Z</time>
   </trkpt>
   <trkpt lat="-3.1741890" lon="37.2822530">
    <ele>1795.5</ele>
    <time>2026-06-20T11:03:02Z</time>
   </trkpt>
   <trkpt lat="-3.1741800" lon="37.2822530">
    <ele>1795.5</ele>
    <time>2026-06-20T11:03:03Z</time>
   </trkpt>
   <trkpt lat="-3.1741750" lon="37.2822490">
    <ele>1795.6</ele>
    <time>2026-06-20T11:03:04Z</time>
   </trkpt>
   <trkpt lat="-3.1741670" lon="37.2822450">
    <ele>1795.6</ele>
    <time>2026-06-20T11:03:05Z</time>
   </trkpt>
   <trkpt lat="-3.1741620" lon="37.2822410">
    <ele>1795.6</ele>
    <time>2026-06-20T11:03:06Z</time>
   </trkpt>
   <trkpt lat="-3.1741540" lon="37.2822350">
    <ele>1795.7</ele>
    <time>2026-06-20T11:03:07Z</time>
   </trkpt>
   <trkpt lat="-3.1741470" lon="37.2822330">
    <ele>1795.7</ele>
    <time>2026-06-20T11:03:08Z</time>
   </trkpt>
   <trkpt lat="-3.1741380" lon="37.2822250">
    <ele>1795.8</ele>
    <time>2026-06-20T11:03:09Z</time>
   </trkpt>
   <trkpt lat="-3.1741300" lon="37.2822290">
    <ele>1795.8</ele>
    <time>2026-06-20T11:03:10Z</time>
   </trkpt>
   <trkpt lat="-3.1741210" lon="37.2822230">
    <ele>1795.9</ele>
    <time>2026-06-20T11:03:11Z</time>
   </trkpt>
   <trkpt lat="-3.1741120" lon="37.2822230">
    <ele>1795.9</ele>
    <time>2026-06-20T11:03:12Z</time>
   </trkpt>
   <trkpt lat="-3.1740970" lon="37.2822250">
    <ele>1796.0</ele>
    <time>2026-06-20T11:03:13Z</time>
   </trkpt>
   <trkpt lat="-3.1740840" lon="37.2822270">
    <ele>1796.1</ele>
    <time>2026-06-20T11:03:14Z</time>
   </trkpt>
   <trkpt lat="-3.1740730" lon="37.2822260">
    <ele>1796.2</ele>
    <time>2026-06-20T11:03:15Z</time>
   </trkpt>
   <trkpt lat="-3.1740600" lon="37.2822300">
    <ele>1796.2</ele>
    <time>2026-06-20T11:03:16Z</time>
   </trkpt>
   <trkpt lat="-3.1740550" lon="37.2822280">
    <ele>1796.3</ele>
    <time>2026-06-20T11:03:17Z</time>
   </trkpt>
   <trkpt lat="-3.1740460" lon="37.2822240">
    <ele>1796.3</ele>
    <time>2026-06-20T11:03:18Z</time>
   </trkpt>
   <trkpt lat="-3.1740400" lon="37.2822240">
    <ele>1796.4</ele>
    <time>2026-06-20T11:03:19Z</time>
   </trkpt>
   <trkpt lat="-3.1740330" lon="37.2822200">
    <ele>1796.4</ele>
    <time>2026-06-20T11:03:20Z</time>
   </trkpt>
   <trkpt lat="-3.1740180" lon="37.2822170">
    <ele>1796.5</ele>
    <time>2026-06-20T11:03:21Z</time>
   </trkpt>
   <trkpt lat="-3.1740110" lon="37.2822160">
    <ele>1796.5</ele>
    <time>2026-06-20T11:03:22Z</time>
   </trkpt>
   <trkpt lat="-3.1740030" lon="37.2822120">
    <ele>1796.6</ele>
    <time>2026-06-20T11:03:23Z</time>
   </trkpt>
   <trkpt lat="-3.1739980" lon="37.2822060">
    <ele>1796.7</ele>
    <time>2026-06-20T11:03:24Z</time>
   </trkpt>
   <trkpt lat="-3.1739920" lon="37.2822010">
    <ele>1796.7</ele>
    <time>2026-06-20T11:03:25Z</time>
   </trkpt>
   <trkpt lat="-3.1739830" lon="37.2821960">
    <ele>1796.8</ele>
    <time>2026-06-20T11:03:26Z</time>
   </trkpt>
   <trkpt lat="-3.1739780" lon="37.2822020">
    <ele>1796.8</ele>
    <time>2026-06-20T11:03:27Z</time>
   </trkpt>
   <trkpt lat="-3.1739740" lon="37.2822030">
    <ele>1796.8</ele>
    <time>2026-06-20T11:03:28Z</time>
   </trkpt>
   <trkpt lat="-3.1739620" lon="37.2821990">
    <ele>1796.9</ele>
    <time>2026-06-20T11:03:29Z</time>
   </trkpt>
   <trkpt lat="-3.1739600" lon="37.2822010">
    <ele>1796.9</ele>
    <time>2026-06-20T11:03:30Z</time>
   </trkpt>
   <trkpt lat="-3.1739570" lon="37.2822040">
    <ele>1797.0</ele>
    <time>2026-06-20T11:03:31Z</time>
   </trkpt>
   <trkpt lat="-3.1739480" lon="37.2822010">
    <ele>1797.0</ele>
    <time>2026-06-20T11:03:32Z</time>
   </trkpt>
   <trkpt lat="-3.1739410" lon="37.2821970">
    <ele>1797.1</ele>
    <time>2026-06-20T11:03:33Z</time>
   </trkpt>
   <trkpt lat="-3.1739320" lon="37.2821970">
    <ele>1797.1</ele>
    <time>2026-06-20T11:03:34Z</time>
   </trkpt>
   <trkpt lat="-3.1739220" lon="37.2821980">
    <ele>1797.2</ele>
    <time>2026-06-20T11:03:35Z</time>
   </trkpt>
   <trkpt lat="-3.1739140" lon="37.2821950">
    <ele>1797.2</ele>
    <time>2026-06-20T11:03:36Z</time>
   </trkpt>
   <trkpt lat="-3.1739010" lon="37.2821900">
    <ele>1797.3</ele>
    <time>2026-06-20T11:03:37Z</time>
   </trkpt>
   <trkpt lat="-3.1738920" lon="37.2821860">
    <ele>1797.4</ele>
    <time>2026-06-20T11:03:38Z</time>
   </trkpt>
   <trkpt lat="-3.1738860" lon="37.2821850">
    <ele>1797.4</ele>
    <time>2026-06-20T11:03:39Z</time>
   </trkpt>
   <trkpt lat="-3.1738770" lon="37.2821860">
    <ele>1797.5</ele>
    <time>2026-06-20T11:03:40Z</time>
   </trkpt>
   <trkpt lat="-3.1738680" lon="37.2821840">
    <ele>1797.5</ele>
    <time>2026-06-20T11:03:41Z</time>
   </trkpt>
   <trkpt lat="-3.1738590" lon="37.2821810">
    <ele>1797.6</ele>
    <time>2026-06-20T11:03:42Z</time>
   </trkpt>
   <trkpt lat="-3.1738550" lon="37.2821820">
    <ele>1797.6</ele>
    <time>2026-06-20T11:03:43Z</time>
   </trkpt>
   <trkpt lat="-3.1738520" lon="37.2821810">
    <ele>1797.6</ele>
    <time>2026-06-20T11:03:44Z</time>
   </trkpt>
   <trkpt lat="-3.1738440" lon="37.2821790">
    <ele>1797.7</ele>
    <time>2026-06-20T11:03:45Z</time>
   </trkpt>
   <trkpt lat="-3.1738360" lon="37.2821730">
    <ele>1797.7</ele>
    <time>2026-06-20T11:03:46Z</time>
   </trkpt>
   <trkpt lat="-3.1738290" lon="37.2821700">
    <ele>1797.8</ele>
    <time>2026-06-20T11:03:47Z</time>
   </trkpt>
   <trkpt lat="-3.1738230" lon="37.2821660">
    <ele>1797.8</ele>
    <time>2026-06-20T11:03:48Z</time>
   </trkpt>
   <trkpt lat="-3.1738160" lon="37.2821620">
    <ele>1797.9</ele>
    <time>2026-06-20T11:03:49Z</time>
   </trkpt>
   <trkpt lat="-3.1738120" lon="37.2821590">
    <ele>1797.9</ele>
    <time>2026-06-20T11:03:50Z</time>
   </trkpt>
   <trkpt lat="-3.1738030" lon="37.2821560">
    <ele>1798.0</ele>
    <time>2026-06-20T11:03:51Z</time>
   </trkpt>
   <trkpt lat="-3.1737980" lon="37.2821550">
    <ele>1798.0</ele>
    <time>2026-06-20T11:03:52Z</time>
   </trkpt>
   <trkpt lat="-3.1737950" lon="37.2821490">
    <ele>1798.1</ele>
    <time>2026-06-20T11:03:53Z</time>
   </trkpt>
   <trkpt lat="-3.1737840" lon="37.2821450">
    <ele>1798.1</ele>
    <time>2026-06-20T11:03:54Z</time>
   </trkpt>
   <trkpt lat="-3.1737760" lon="37.2821420">
    <ele>1798.2</ele>
    <time>2026-06-20T11:03:55Z</time>
   </trkpt>
   <trkpt lat="-3.1737730" lon="37.2821400">
    <ele>1798.2</ele>
    <time>2026-06-20T11:03:56Z</time>
   </trkpt>
   <trkpt lat="-3.1737660" lon="37.2821370">
    <ele>1798.2</ele>
    <time>2026-06-20T11:03:57Z</time>
   </trkpt>
   <trkpt lat="-3.1737600" lon="37.2821360">
    <ele>1798.3</ele>
    <time>2026-06-20T11:03:58Z</time>
   </trkpt>
   <trkpt lat="-3.1737530" lon="37.2821350">
    <ele>1798.3</ele>
    <time>2026-06-20T11:03:59Z</time>
   </trkpt>
   <trkpt lat="-3.1737510" lon="37.2821330">
    <ele>1798.3</ele>
    <time>2026-06-20T11:04:00Z</time>
   </trkpt>
   <trkpt lat="-3.1737430" lon="37.2821310">
    <ele>1798.4</ele>
    <time>2026-06-20T11:04:01Z</time>
   </trkpt>
   <trkpt lat="-3.1737340" lon="37.2821250">
    <ele>1798.5</ele>
    <time>2026-06-20T11:04:02Z</time>
   </trkpt>
   <trkpt lat="-3.1737260" lon="37.2821260">
    <ele>1798.5</ele>
    <time>2026-06-20T11:04:03Z</time>
   </trkpt>
   <trkpt lat="-3.1737120" lon="37.2821260">
    <ele>1798.6</ele>
    <time>2026-06-20T11:04:04Z</time>
   </trkpt>
   <trkpt lat="-3.1737050" lon="37.2821200">
    <ele>1798.7</ele>
    <time>2026-06-20T11:04:05Z</time>
   </trkpt>
   <trkpt lat="-3.1736950" lon="37.2821160">
    <ele>1798.7</ele>
    <time>2026-06-20T11:04:06Z</time>
   </trkpt>
   <trkpt lat="-3.1736880" lon="37.2821190">
    <ele>1798.8</ele>
    <time>2026-06-20T11:04:07Z</time>
   </trkpt>
   <trkpt lat="-3.1736900" lon="37.2821150">
    <ele>1798.8</ele>
    <time>2026-06-20T11:04:08Z</time>
   </trkpt>
   <trkpt lat="-3.1736820" lon="37.2821150">
    <ele>1798.8</ele>
    <time>2026-06-20T11:04:09Z</time>
   </trkpt>
   <trkpt lat="-3.1736690" lon="37.2821170">
    <ele>1798.9</ele>
    <time>2026-06-20T11:04:10Z</time>
   </trkpt>
   <trkpt lat="-3.1736600" lon="37.2821170">
    <ele>1799.0</ele>
    <time>2026-06-20T11:04:11Z</time>
   </trkpt>
   <trkpt lat="-3.1736510" lon="37.2821240">
    <ele>1799.1</ele>
    <time>2026-06-20T11:04:12Z</time>
   </trkpt>
   <trkpt lat="-3.1736430" lon="37.2821200">
    <ele>1799.1</ele>
    <time>2026-06-20T11:04:13Z</time>
   </trkpt>
   <trkpt lat="-3.1736430" lon="37.2821140">
    <ele>1799.1</ele>
    <time>2026-06-20T11:04:14Z</time>
   </trkpt>
   <trkpt lat="-3.1736380" lon="37.2821140">
    <ele>1799.2</ele>
    <time>2026-06-20T11:04:15Z</time>
   </trkpt>
   <trkpt lat="-3.1736280" lon="37.2821070">
    <ele>1799.2</ele>
    <time>2026-06-20T11:04:16Z</time>
   </trkpt>
   <trkpt lat="-3.1736240" lon="37.2821020">
    <ele>1799.3</ele>
    <time>2026-06-20T11:04:17Z</time>
   </trkpt>
   <trkpt lat="-3.1736200" lon="37.2820970">
    <ele>1799.3</ele>
    <time>2026-06-20T11:04:18Z</time>
   </trkpt>
   <trkpt lat="-3.1736120" lon="37.2820980">
    <ele>1799.4</ele>
    <time>2026-06-20T11:04:19Z</time>
   </trkpt>
   <trkpt lat="-3.1736020" lon="37.2821020">
    <ele>1799.5</ele>
    <time>2026-06-20T11:04:20Z</time>
   </trkpt>
   <trkpt lat="-3.1735950" lon="37.2821040">
    <ele>1799.5</ele>
    <time>2026-06-20T11:04:21Z</time>
   </trkpt>
   <trkpt lat="-3.1735980" lon="37.2821060">
    <ele>1799.5</ele>
    <time>2026-06-20T11:04:22Z</time>
   </trkpt>
   <trkpt lat="-3.1735880" lon="37.2821070">
    <ele>1799.6</ele>
    <time>2026-06-20T11:04:23Z</time>
   </trkpt>
   <trkpt lat="-3.1735830" lon="37.2821000">
    <ele>1799.6</ele>
    <time>2026-06-20T11:04:24Z</time>
   </trkpt>
   <trkpt lat="-3.1735750" lon="37.2820970">
    <ele>1799.7</ele>
    <time>2026-06-20T11:04:25Z</time>
   </trkpt>
   <trkpt lat="-3.1735690" lon="37.2820930">
    <ele>1799.7</ele>
    <time>2026-06-20T11:04:26Z</time>
   </trkpt>
   <trkpt lat="-3.1735630" lon="37.2820930">
    <ele>1799.8</ele>
    <time>2026-06-20T11:04:27Z</time>
   </trkpt>
   <trkpt lat="-3.1735550" lon="37.2820900">
    <ele>1799.8</ele>
    <time>2026-06-20T11:04:28Z</time>
   </trkpt>
   <trkpt lat="-3.1735490" lon="37.2820890">
    <ele>1799.9</ele>
    <time>2026-06-20T11:04:29Z</time>
   </trkpt>
   <trkpt lat="-3.1735400" lon="37.2820900">
    <ele>1799.9</ele>
    <time>2026-06-20T11:04:30Z</time>
   </trkpt>
   <trkpt lat="-3.1735330" lon="37.2820900">
    <ele>1800.0</ele>
    <time>2026-06-20T11:04:31Z</time>
   </trkpt>
   <trkpt lat="-3.1735260" lon="37.2820930">
    <ele>1800.0</ele>
    <time>2026-06-20T11:04:32Z</time>
   </trkpt>
   <trkpt lat="-3.1735150" lon="37.2820910">
    <ele>1800.1</ele>
    <time>2026-06-20T11:04:33Z</time>
   </trkpt>
   <trkpt lat="-3.1735070" lon="37.2820880">
    <ele>1800.2</ele>
    <time>2026-06-20T11:04:34Z</time>
   </trkpt>
   <trkpt lat="-3.1735000" lon="37.2820860">
    <ele>1800.2</ele>
    <time>2026-06-20T11:04:35Z</time>
   </trkpt>
   <trkpt lat="-3.1734970" lon="37.2820820">
    <ele>1800.2</ele>
    <time>2026-06-20T11:04:36Z</time>
   </trkpt>
   <trkpt lat="-3.1734860" lon="37.2820830">
    <ele>1800.3</ele>
    <time>2026-06-20T11:04:37Z</time>
   </trkpt>
   <trkpt lat="-3.1734770" lon="37.2820880">
    <ele>1800.4</ele>
    <time>2026-06-20T11:04:38Z</time>
   </trkpt>
   <trkpt lat="-3.1734700" lon="37.2820920">
    <ele>1800.4</ele>
    <time>2026-06-20T11:04:39Z</time>
   </trkpt>
   <trkpt lat="-3.1734640" lon="37.2820960">
    <ele>1800.5</ele>
    <time>2026-06-20T11:04:40Z</time>
   </trkpt>
   <trkpt lat="-3.1734570" lon="37.2820950">
    <ele>1800.5</ele>
    <time>2026-06-20T11:04:41Z</time>
   </trkpt>
   <trkpt lat="-3.1734550" lon="37.2820940">
    <ele>1800.6</ele>
    <time>2026-06-20T11:04:42Z</time>
   </trkpt>
   <trkpt lat="-3.1734470" lon="37.2820880">
    <ele>1800.6</ele>
    <time>2026-06-20T11:04:43Z</time>
   </trkpt>
   <trkpt lat="-3.1734410" lon="37.2820900">
    <ele>1800.7</ele>
    <time>2026-06-20T11:04:44Z</time>
   </trkpt>
   <trkpt lat="-3.1734350" lon="37.2820930">
    <ele>1800.7</ele>
    <time>2026-06-20T11:04:45Z</time>
   </trkpt>
   <trkpt lat="-3.1734290" lon="37.2820890">
    <ele>1800.8</ele>
    <time>2026-06-20T11:04:46Z</time>
   </trkpt>
   <trkpt lat="-3.1734280" lon="37.2820870">
    <ele>1800.8</ele>
    <time>2026-06-20T11:04:47Z</time>
   </trkpt>
   <trkpt lat="-3.1734230" lon="37.2820870">
    <ele>1800.8</ele>
    <time>2026-06-20T11:04:48Z</time>
   </trkpt>
   <trkpt lat="-3.1734150" lon="37.2820810">
    <ele>1800.9</ele>
    <time>2026-06-20T11:04:49Z</time>
   </trkpt>
   <trkpt lat="-3.1734040" lon="37.2820840">
    <ele>1801.0</ele>
    <time>2026-06-20T11:04:50Z</time>
   </trkpt>
   <trkpt lat="-3.1733960" lon="37.2820860">
    <ele>1801.0</ele>
    <time>2026-06-20T11:04:51Z</time>
   </trkpt>
   <trkpt lat="-3.1733890" lon="37.2820820">
    <ele>1801.1</ele>
    <time>2026-06-20T11:04:52Z</time>
   </trkpt>
   <trkpt lat="-3.1733810" lon="37.2820890">
    <ele>1801.2</ele>
    <time>2026-06-20T11:04:53Z</time>
   </trkpt>
   <trkpt lat="-3.1733670" lon="37.2820940">
    <ele>1801.3</ele>
    <time>2026-06-20T11:04:54Z</time>
   </trkpt>
   <trkpt lat="-3.1733590" lon="37.2820960">
    <ele>1801.3</ele>
    <time>2026-06-20T11:04:55Z</time>
   </trkpt>
   <trkpt lat="-3.1733500" lon="37.2821010">
    <ele>1801.4</ele>
    <time>2026-06-20T11:04:56Z</time>
   </trkpt>
   <trkpt lat="-3.1733460" lon="37.2821070">
    <ele>1801.4</ele>
    <time>2026-06-20T11:04:57Z</time>
   </trkpt>
   <trkpt lat="-3.1733360" lon="37.2821080">
    <ele>1801.5</ele>
    <time>2026-06-20T11:04:58Z</time>
   </trkpt>
   <trkpt lat="-3.1733300" lon="37.2821090">
    <ele>1801.5</ele>
    <time>2026-06-20T11:04:59Z</time>
   </trkpt>
   <trkpt lat="-3.1733200" lon="37.2821090">
    <ele>1801.6</ele>
    <time>2026-06-20T11:05:00Z</time>
   </trkpt>
   <trkpt lat="-3.1733140" lon="37.2821100">
    <ele>1801.7</ele>
    <time>2026-06-20T11:05:01Z</time>
   </trkpt>
   <trkpt lat="-3.1733030" lon="37.2821080">
    <ele>1801.7</ele>
    <time>2026-06-20T11:05:02Z</time>
   </trkpt>
   <trkpt lat="-3.1732960" lon="37.2821090">
    <ele>1801.8</ele>
    <time>2026-06-20T11:05:04Z</time>
   </trkpt>
   <trkpt lat="-3.1732910" lon="37.2821110">
    <ele>1801.8</ele>
    <time>2026-06-20T11:05:05Z</time>
   </trkpt>
   <trkpt lat="-3.1732910" lon="37.2821130">
    <ele>1801.9</ele>
    <time>2026-06-20T11:05:06Z</time>
   </trkpt>
   <trkpt lat="-3.1732770" lon="37.2821150">
    <ele>1802.0</ele>
    <time>2026-06-20T11:05:07Z</time>
   </trkpt>
   <trkpt lat="-3.1732750" lon="37.2821170">
    <ele>1802.0</ele>
    <time>2026-06-20T11:05:08Z</time>
   </trkpt>
   <trkpt lat="-3.1732630" lon="37.2821200">
    <ele>1802.1</ele>
    <time>2026-06-20T11:05:09Z</time>
   </trkpt>
   <trkpt lat="-3.1732500" lon="37.2821260">
    <ele>1802.2</ele>
    <time>2026-06-20T11:05:10Z</time>
   </trkpt>
   <trkpt lat="-3.1732480" lon="37.2821280">
    <ele>1802.2</ele>
    <time>2026-06-20T11:05:11Z</time>
   </trkpt>
   <trkpt lat="-3.1732420" lon="37.2821300">
    <ele>1802.3</ele>
    <time>2026-06-20T11:05:12Z</time>
   </trkpt>
   <trkpt lat="-3.1732360" lon="37.2821270">
    <ele>1802.3</ele>
    <time>2026-06-20T11:05:13Z</time>
   </trkpt>
   <trkpt lat="-3.1732200" lon="37.2821260">
    <ele>1802.4</ele>
    <time>2026-06-20T11:05:14Z</time>
   </trkpt>
   <trkpt lat="-3.1732120" lon="37.2821300">
    <ele>1802.5</ele>
    <time>2026-06-20T11:05:15Z</time>
   </trkpt>
   <trkpt lat="-3.1732010" lon="37.2821310">
    <ele>1802.6</ele>
    <time>2026-06-20T11:05:16Z</time>
   </trkpt>
   <trkpt lat="-3.1731930" lon="37.2821350">
    <ele>1802.7</ele>
    <time>2026-06-20T11:05:17Z</time>
   </trkpt>
   <trkpt lat="-3.1731880" lon="37.2821340">
    <ele>1802.7</ele>
    <time>2026-06-20T11:05:18Z</time>
   </trkpt>
   <trkpt lat="-3.1731780" lon="37.2821310">
    <ele>1802.8</ele>
    <time>2026-06-20T11:05:19Z</time>
   </trkpt>
   <trkpt lat="-3.1731710" lon="37.2821310">
    <ele>1802.8</ele>
    <time>2026-06-20T11:05:20Z</time>
   </trkpt>
   <trkpt lat="-3.1731640" lon="37.2821330">
    <ele>1802.9</ele>
    <time>2026-06-20T11:05:21Z</time>
   </trkpt>
   <trkpt lat="-3.1731590" lon="37.2821320">
    <ele>1803.0</ele>
    <time>2026-06-20T11:05:22Z</time>
   </trkpt>
   <trkpt lat="-3.1731530" lon="37.2821350">
    <ele>1803.0</ele>
    <time>2026-06-20T11:05:23Z</time>
   </trkpt>
   <trkpt lat="-3.1731400" lon="37.2821390">
    <ele>1803.1</ele>
    <time>2026-06-20T11:05:24Z</time>
   </trkpt>
   <trkpt lat="-3.1731370" lon="37.2821360">
    <ele>1803.2</ele>
    <time>2026-06-20T11:05:25Z</time>
   </trkpt>
   <trkpt lat="-3.1731280" lon="37.2821380">
    <ele>1803.2</ele>
    <time>2026-06-20T11:05:26Z</time>
   </trkpt>
   <trkpt lat="-3.1731200" lon="37.2821330">
    <ele>1803.3</ele>
    <time>2026-06-20T11:05:27Z</time>
   </trkpt>
   <trkpt lat="-3.1731170" lon="37.2821390">
    <ele>1803.4</ele>
    <time>2026-06-20T11:05:28Z</time>
   </trkpt>
   <trkpt lat="-3.1731040" lon="37.2821380">
    <ele>1803.5</ele>
    <time>2026-06-20T11:05:29Z</time>
   </trkpt>
   <trkpt lat="-3.1731000" lon="37.2821360">
    <ele>1803.5</ele>
    <time>2026-06-20T11:05:30Z</time>
   </trkpt>
   <trkpt lat="-3.1730910" lon="37.2821340">
    <ele>1803.6</ele>
    <time>2026-06-20T11:05:31Z</time>
   </trkpt>
   <trkpt lat="-3.1730830" lon="37.2821360">
    <ele>1803.6</ele>
    <time>2026-06-20T11:05:32Z</time>
   </trkpt>
   <trkpt lat="-3.1730780" lon="37.2821340">
    <ele>1803.7</ele>
    <time>2026-06-20T11:05:33Z</time>
   </trkpt>
   <trkpt lat="-3.1730750" lon="37.2821330">
    <ele>1803.7</ele>
    <time>2026-06-20T11:05:34Z</time>
   </trkpt>
   <trkpt lat="-3.1730680" lon="37.2821330">
    <ele>1803.8</ele>
    <time>2026-06-20T11:05:35Z</time>
   </trkpt>
   <trkpt lat="-3.1730650" lon="37.2821320">
    <ele>1803.8</ele>
    <time>2026-06-20T11:05:36Z</time>
   </trkpt>
   <trkpt lat="-3.1730590" lon="37.2821340">
    <ele>1803.8</ele>
    <time>2026-06-20T11:05:37Z</time>
   </trkpt>
   <trkpt lat="-3.1730480" lon="37.2821300">
    <ele>1803.9</ele>
    <time>2026-06-20T11:05:38Z</time>
   </trkpt>
   <trkpt lat="-3.1730460" lon="37.2821360">
    <ele>1804.0</ele>
    <time>2026-06-20T11:05:39Z</time>
   </trkpt>
   <trkpt lat="-3.1730420" lon="37.2821460">
    <ele>1804.1</ele>
    <time>2026-06-20T11:05:40Z</time>
   </trkpt>
   <trkpt lat="-3.1730370" lon="37.2821570">
    <ele>1804.2</ele>
    <time>2026-06-20T11:05:41Z</time>
   </trkpt>
   <trkpt lat="-3.1730280" lon="37.2821640">
    <ele>1804.3</ele>
    <time>2026-06-20T11:05:42Z</time>
   </trkpt>
   <trkpt lat="-3.1730240" lon="37.2821640">
    <ele>1804.3</ele>
    <time>2026-06-20T11:05:43Z</time>
   </trkpt>
   <trkpt lat="-3.1730110" lon="37.2821610">
    <ele>1804.4</ele>
    <time>2026-06-20T11:05:44Z</time>
   </trkpt>
   <trkpt lat="-3.1730000" lon="37.2821590">
    <ele>1804.5</ele>
    <time>2026-06-20T11:05:45Z</time>
   </trkpt>
   <trkpt lat="-3.1729870" lon="37.2821610">
    <ele>1804.6</ele>
    <time>2026-06-20T11:05:46Z</time>
   </trkpt>
   <trkpt lat="-3.1729760" lon="37.2821630">
    <ele>1804.7</ele>
    <time>2026-06-20T11:05:47Z</time>
   </trkpt>
   <trkpt lat="-3.1729660" lon="37.2821670">
    <ele>1804.8</ele>
    <time>2026-06-20T11:05:48Z</time>
   </trkpt>
   <trkpt lat="-3.1729580" lon="37.2821720">
    <ele>1804.9</ele>
    <time>2026-06-20T11:05:49Z</time>
   </trkpt>
   <trkpt lat="-3.1729460" lon="37.2821810">
    <ele>1805.0</ele>
    <time>2026-06-20T11:05:50Z</time>
   </trkpt>
   <trkpt lat="-3.1729410" lon="37.2821900">
    <ele>1805.1</ele>
    <time>2026-06-20T11:05:51Z</time>
   </trkpt>
   <trkpt lat="-3.1729370" lon="37.2821930">
    <ele>1805.1</ele>
    <time>2026-06-20T11:05:52Z</time>
   </trkpt>
   <trkpt lat="-3.1729330" lon="37.2821960">
    <ele>1805.2</ele>
    <time>2026-06-20T11:05:53Z</time>
   </trkpt>
   <trkpt lat="-3.1729220" lon="37.2822000">
    <ele>1805.3</ele>
    <time>2026-06-20T11:05:54Z</time>
   </trkpt>
   <trkpt lat="-3.1729150" lon="37.2822070">
    <ele>1805.4</ele>
    <time>2026-06-20T11:05:55Z</time>
   </trkpt>
   <trkpt lat="-3.1729080" lon="37.2822120">
    <ele>1805.4</ele>
    <time>2026-06-20T11:05:56Z</time>
   </trkpt>
   <trkpt lat="-3.1729010" lon="37.2822140">
    <ele>1805.5</ele>
    <time>2026-06-20T11:05:57Z</time>
   </trkpt>
   <trkpt lat="-3.1728930" lon="37.2822130">
    <ele>1805.6</ele>
    <time>2026-06-20T11:05:58Z</time>
   </trkpt>
   <trkpt lat="-3.1728870" lon="37.2822150">
    <ele>1805.6</ele>
    <time>2026-06-20T11:05:59Z</time>
   </trkpt>
   <trkpt lat="-3.1728810" lon="37.2822140">
    <ele>1805.7</ele>
    <time>2026-06-20T11:06:00Z</time>
   </trkpt>
   <trkpt lat="-3.1728750" lon="37.2822160">
    <ele>1805.7</ele>
    <time>2026-06-20T11:06:01Z</time>
   </trkpt>
   <trkpt lat="-3.1728690" lon="37.2822160">
    <ele>1805.8</ele>
    <time>2026-06-20T11:06:02Z</time>
   </trkpt>
   <trkpt lat="-3.1728670" lon="37.2822180">
    <ele>1805.8</ele>
    <time>2026-06-20T11:06:03Z</time>
   </trkpt>
   <trkpt lat="-3.1728590" lon="37.2822180">
    <ele>1805.9</ele>
    <time>2026-06-20T11:06:04Z</time>
   </trkpt>
   <trkpt lat="-3.1728520" lon="37.2822150">
    <ele>1806.0</ele>
    <time>2026-06-20T11:06:05Z</time>
   </trkpt>
   <trkpt lat="-3.1728440" lon="37.2822150">
    <ele>1806.0</ele>
    <time>2026-06-20T11:06:06Z</time>
   </trkpt>
   <trkpt lat="-3.1728370" lon="37.2822150">
    <ele>1806.1</ele>
    <time>2026-06-20T11:06:07Z</time>
   </trkpt>
   <trkpt lat="-3.1728300" lon="37.2822160">
    <ele>1806.2</ele>
    <time>2026-06-20T11:06:08Z</time>
   </trkpt>
   <trkpt lat="-3.1728180" lon="37.2822160">
    <ele>1806.3</ele>
    <time>2026-06-20T11:06:09Z</time>
   </trkpt>
   <trkpt lat="-3.1728160" lon="37.2822180">
    <ele>1806.3</ele>
    <time>2026-06-20T11:06:10Z</time>
   </trkpt>
   <trkpt lat="-3.1728080" lon="37.2822220">
    <ele>1806.4</ele>
    <time>2026-06-20T11:06:11Z</time>
   </trkpt>
   <trkpt lat="-3.1727960" lon="37.2822230">
    <ele>1806.6</ele>
    <time>2026-06-20T11:06:12Z</time>
   </trkpt>
   <trkpt lat="-3.1727890" lon="37.2822220">
    <ele>1806.6</ele>
    <time>2026-06-20T11:06:13Z</time>
   </trkpt>
   <trkpt lat="-3.1727740" lon="37.2822220">
    <ele>1806.8</ele>
    <time>2026-06-20T11:06:14Z</time>
   </trkpt>
   <trkpt lat="-3.1727590" lon="37.2822230">
    <ele>1807.0</ele>
    <time>2026-06-20T11:06:15Z</time>
   </trkpt>
   <trkpt lat="-3.1727590" lon="37.2822210">
    <ele>1807.0</ele>
    <time>2026-06-20T11:06:16Z</time>
   </trkpt>
   <trkpt lat="-3.1727540" lon="37.2822250">
    <ele>1807.1</ele>
    <time>2026-06-20T11:06:17Z</time>
   </trkpt>
   <trkpt lat="-3.1727430" lon="37.2822250">
    <ele>1807.2</ele>
    <time>2026-06-20T11:06:18Z</time>
   </trkpt>
   <trkpt lat="-3.1727400" lon="37.2822290">
    <ele>1807.2</ele>
    <time>2026-06-20T11:06:19Z</time>
   </trkpt>
   <trkpt lat="-3.1727350" lon="37.2822310">
    <ele>1807.3</ele>
    <time>2026-06-20T11:06:20Z</time>
   </trkpt>
   <trkpt lat="-3.1727310" lon="37.2822340">
    <ele>1807.3</ele>
    <time>2026-06-20T11:06:21Z</time>
   </trkpt>
   <trkpt lat="-3.1727270" lon="37.2822370">
    <ele>1807.4</ele>
    <time>2026-06-20T11:06:22Z</time>
   </trkpt>
   <trkpt lat="-3.1727190" lon="37.2822370">
    <ele>1807.5</ele>
    <time>2026-06-20T11:06:23Z</time>
   </trkpt>
   <trkpt lat="-3.1727160" lon="37.2822390">
    <ele>1807.5</ele>
    <time>2026-06-20T11:06:24Z</time>
   </trkpt>
   <trkpt lat="-3.1727100" lon="37.2822420">
    <ele>1807.6</ele>
    <time>2026-06-20T11:06:25Z</time>
   </trkpt>
   <trkpt lat="-3.1727050" lon="37.2822480">
    <ele>1807.7</ele>
    <time>2026-06-20T11:06:26Z</time>
   </trkpt>
   <trkpt lat="-3.1726980" lon="37.2822480">
    <ele>1807.8</ele>
    <time>2026-06-20T11:06:27Z</time>
   </trkpt>
   <trkpt lat="-3.1726890" lon="37.2822480">
    <ele>1807.9</ele>
    <time>2026-06-20T11:06:28Z</time>
   </trkpt>
   <trkpt lat="-3.1726800" lon="37.2822450">
    <ele>1808.0</ele>
    <time>2026-06-20T11:06:29Z</time>
   </trkpt>
   <trkpt lat="-3.1726730" lon="37.2822480">
    <ele>1808.0</ele>
    <time>2026-06-20T11:06:30Z</time>
   </trkpt>
   <trkpt lat="-3.1726680" lon="37.2822540">
    <ele>1808.1</ele>
    <time>2026-06-20T11:06:31Z</time>
   </trkpt>
   <trkpt lat="-3.1726580" lon="37.2822570">
    <ele>1808.2</ele>
    <time>2026-06-20T11:06:32Z</time>
   </trkpt>
   <trkpt lat="-3.1726330" lon="37.2822700">
    <ele>1808.5</ele>
    <time>2026-06-20T11:06:33Z</time>
   </trkpt>
   <trkpt lat="-3.1726320" lon="37.2822720">
    <ele>1808.5</ele>
    <time>2026-06-20T11:06:34Z</time>
   </trkpt>
   <trkpt lat="-3.1726210" lon="37.2822790">
    <ele>1808.7</ele>
    <time>2026-06-20T11:06:35Z</time>
   </trkpt>
   <trkpt lat="-3.1726160" lon="37.2822780">
    <ele>1808.7</ele>
    <time>2026-06-20T11:06:36Z</time>
   </trkpt>
   <trkpt lat="-3.1726060" lon="37.2822750">
    <ele>1808.8</ele>
    <time>2026-06-20T11:06:37Z</time>
   </trkpt>
   <trkpt lat="-3.1726000" lon="37.2822770">
    <ele>1808.9</ele>
    <time>2026-06-20T11:06:38Z</time>
   </trkpt>
   <trkpt lat="-3.1725950" lon="37.2822810">
    <ele>1809.0</ele>
    <time>2026-06-20T11:06:39Z</time>
   </trkpt>
   <trkpt lat="-3.1725860" lon="37.2822870">
    <ele>1809.1</ele>
    <time>2026-06-20T11:06:40Z</time>
   </trkpt>
   <trkpt lat="-3.1725810" lon="37.2822850">
    <ele>1809.2</ele>
    <time>2026-06-20T11:06:41Z</time>
   </trkpt>
   <trkpt lat="-3.1725710" lon="37.2822770">
    <ele>1809.3</ele>
    <time>2026-06-20T11:06:42Z</time>
   </trkpt>
   <trkpt lat="-3.1725680" lon="37.2822880">
    <ele>1809.4</ele>
    <time>2026-06-20T11:06:43Z</time>
   </trkpt>
   <trkpt lat="-3.1725590" lon="37.2822890">
    <ele>1809.5</ele>
    <time>2026-06-20T11:06:44Z</time>
   </trkpt>
   <trkpt lat="-3.1725500" lon="37.2822880">
    <ele>1809.6</ele>
    <time>2026-06-20T11:06:45Z</time>
   </trkpt>
   <trkpt lat="-3.1725400" lon="37.2822890">
    <ele>1809.7</ele>
    <time>2026-06-20T11:06:46Z</time>
   </trkpt>
   <trkpt lat="-3.1725370" lon="37.2822890">
    <ele>1809.7</ele>
    <time>2026-06-20T11:06:47Z</time>
   </trkpt>
   <trkpt lat="-3.1725300" lon="37.2822920">
    <ele>1809.8</ele>
    <time>2026-06-20T11:06:48Z</time>
   </trkpt>
   <trkpt lat="-3.1725190" lon="37.2822960">
    <ele>1810.0</ele>
    <time>2026-06-20T11:06:49Z</time>
   </trkpt>
   <trkpt lat="-3.1725150" lon="37.2823010">
    <ele>1810.0</ele>
    <time>2026-06-20T11:06:50Z</time>
   </trkpt>
   <trkpt lat="-3.1725100" lon="37.2823010">
    <ele>1810.1</ele>
    <time>2026-06-20T11:06:51Z</time>
   </trkpt>
   <trkpt lat="-3.1725000" lon="37.2823000">
    <ele>1810.2</ele>
    <time>2026-06-20T11:06:52Z</time>
   </trkpt>
   <trkpt lat="-3.1724930" lon="37.2822970">
    <ele>1810.3</ele>
    <time>2026-06-20T11:06:53Z</time>
   </trkpt>
   <trkpt lat="-3.1724940" lon="37.2822940">
    <ele>1810.3</ele>
    <time>2026-06-20T11:06:54Z</time>
   </trkpt>
   <trkpt lat="-3.1724930" lon="37.2822960">
    <ele>1810.4</ele>
    <time>2026-06-20T11:06:55Z</time>
   </trkpt>
   <trkpt lat="-3.1724800" lon="37.2822970">
    <ele>1810.5</ele>
    <time>2026-06-20T11:06:56Z</time>
   </trkpt>
   <trkpt lat="-3.1724760" lon="37.2822960">
    <ele>1810.6</ele>
    <time>2026-06-20T11:06:57Z</time>
   </trkpt>
   <trkpt lat="-3.1724690" lon="37.2823020">
    <ele>1810.7</ele>
    <time>2026-06-20T11:06:58Z</time>
   </trkpt>
   <trkpt lat="-3.1724600" lon="37.2823050">
    <ele>1810.8</ele>
    <time>2026-06-20T11:06:59Z</time>
   </trkpt>
   <trkpt lat="-3.1724500" lon="37.2823110">
    <ele>1810.9</ele>
    <time>2026-06-20T11:07:00Z</time>
   </trkpt>
   <trkpt lat="-3.1724440" lon="37.2823160">
    <ele>1811.0</ele>
    <time>2026-06-20T11:07:01Z</time>
   </trkpt>
   <trkpt lat="-3.1724380" lon="37.2823190">
    <ele>1811.1</ele>
    <time>2026-06-20T11:07:02Z</time>
   </trkpt>
   <trkpt lat="-3.1724290" lon="37.2823180">
    <ele>1811.2</ele>
    <time>2026-06-20T11:07:03Z</time>
   </trkpt>
   <trkpt lat="-3.1724190" lon="37.2823200">
    <ele>1811.3</ele>
    <time>2026-06-20T11:07:04Z</time>
   </trkpt>
   <trkpt lat="-3.1724090" lon="37.2823210">
    <ele>1811.4</ele>
    <time>2026-06-20T11:07:05Z</time>
   </trkpt>
   <trkpt lat="-3.1724030" lon="37.2823210">
    <ele>1811.5</ele>
    <time>2026-06-20T11:07:06Z</time>
   </trkpt>
   <trkpt lat="-3.1723960" lon="37.2823260">
    <ele>1811.6</ele>
    <time>2026-06-20T11:07:07Z</time>
   </trkpt>
   <trkpt lat="-3.1723840" lon="37.2823270">
    <ele>1811.8</ele>
    <time>2026-06-20T11:07:08Z</time>
   </trkpt>
   <trkpt lat="-3.1723730" lon="37.2823310">
    <ele>1811.9</ele>
    <time>2026-06-20T11:07:10Z</time>
   </trkpt>
   <trkpt lat="-3.1723680" lon="37.2823310">
    <ele>1812.0</ele>
    <time>2026-06-20T11:07:11Z</time>
   </trkpt>
   <trkpt lat="-3.1723610" lon="37.2823260">
    <ele>1812.1</ele>
    <time>2026-06-20T11:07:12Z</time>
   </trkpt>
   <trkpt lat="-3.1723520" lon="37.2823350">
    <ele>1812.2</ele>
    <time>2026-06-20T11:07:13Z</time>
   </trkpt>
   <trkpt lat="-3.1723440" lon="37.2823450">
    <ele>1812.4</ele>
    <time>2026-06-20T11:07:14Z</time>
   </trkpt>
   <trkpt lat="-3.1723370" lon="37.2823440">
    <ele>1812.5</ele>
    <time>2026-06-20T11:07:15Z</time>
   </trkpt>
   <trkpt lat="-3.1723240" lon="37.2823470">
    <ele>1812.6</ele>
    <time>2026-06-20T11:07:16Z</time>
   </trkpt>
   <trkpt lat="-3.1723200" lon="37.2823510">
    <ele>1812.7</ele>
    <time>2026-06-20T11:07:17Z</time>
   </trkpt>
   <trkpt lat="-3.1723140" lon="37.2823570">
    <ele>1812.8</ele>
    <time>2026-06-20T11:07:18Z</time>
   </trkpt>
   <trkpt lat="-3.1723030" lon="37.2823600">
    <ele>1813.0</ele>
    <time>2026-06-20T11:07:19Z</time>
   </trkpt>
   <trkpt lat="-3.1722970" lon="37.2823680">
    <ele>1813.1</ele>
    <time>2026-06-20T11:07:20Z</time>
   </trkpt>
   <trkpt lat="-3.1722880" lon="37.2823740">
    <ele>1813.2</ele>
    <time>2026-06-20T11:07:21Z</time>
   </trkpt>
   <trkpt lat="-3.1722820" lon="37.2823750">
    <ele>1813.3</ele>
    <time>2026-06-20T11:07:22Z</time>
   </trkpt>
   <trkpt lat="-3.1722730" lon="37.2823780">
    <ele>1813.4</ele>
    <time>2026-06-20T11:07:23Z</time>
   </trkpt>
   <trkpt lat="-3.1722620" lon="37.2823830">
    <ele>1813.6</ele>
    <time>2026-06-20T11:07:24Z</time>
   </trkpt>
   <trkpt lat="-3.1722530" lon="37.2823800">
    <ele>1813.7</ele>
    <time>2026-06-20T11:07:25Z</time>
   </trkpt>
   <trkpt lat="-3.1722500" lon="37.2823780">
    <ele>1813.8</ele>
    <time>2026-06-20T11:07:26Z</time>
   </trkpt>
   <trkpt lat="-3.1722420" lon="37.2823740">
    <ele>1813.9</ele>
    <time>2026-06-20T11:07:27Z</time>
   </trkpt>
   <trkpt lat="-3.1722360" lon="37.2823700">
    <ele>1814.0</ele>
    <time>2026-06-20T11:07:28Z</time>
   </trkpt>
   <trkpt lat="-3.1722370" lon="37.2823690">
    <ele>1814.0</ele>
    <time>2026-06-20T11:07:29Z</time>
   </trkpt>
   <trkpt lat="-3.1722280" lon="37.2823660">
    <ele>1814.1</ele>
    <time>2026-06-20T11:07:30Z</time>
   </trkpt>
   <trkpt lat="-3.1722230" lon="37.2823660">
    <ele>1814.2</ele>
    <time>2026-06-20T11:07:31Z</time>
   </trkpt>
   <trkpt lat="-3.1722180" lon="37.2823680">
    <ele>1814.3</ele>
    <time>2026-06-20T11:07:32Z</time>
   </trkpt>
   <trkpt lat="-3.1722130" lon="37.2823670">
    <ele>1814.4</ele>
    <time>2026-06-20T11:07:33Z</time>
   </trkpt>
   <trkpt lat="-3.1722020" lon="37.2823670">
    <ele>1814.5</ele>
    <time>2026-06-20T11:07:34Z</time>
   </trkpt>
   <trkpt lat="-3.1721980" lon="37.2823710">
    <ele>1814.6</ele>
    <time>2026-06-20T11:07:35Z</time>
   </trkpt>
   <trkpt lat="-3.1721940" lon="37.2823760">
    <ele>1814.7</ele>
    <time>2026-06-20T11:07:36Z</time>
   </trkpt>
   <trkpt lat="-3.1721900" lon="37.2823800">
    <ele>1814.7</ele>
    <time>2026-06-20T11:07:37Z</time>
   </trkpt>
   <trkpt lat="-3.1721870" lon="37.2823790">
    <ele>1814.8</ele>
    <time>2026-06-20T11:07:38Z</time>
   </trkpt>
   <trkpt lat="-3.1721870" lon="37.2823790">
    <ele>1814.8</ele>
    <time>2026-06-20T11:07:39Z</time>
   </trkpt>
   <trkpt lat="-3.1721750" lon="37.2823760">
    <ele>1814.9</ele>
    <time>2026-06-20T11:07:40Z</time>
   </trkpt>
   <trkpt lat="-3.1721640" lon="37.2823790">
    <ele>1815.1</ele>
    <time>2026-06-20T11:07:41Z</time>
   </trkpt>
   <trkpt lat="-3.1721670" lon="37.2823790">
    <ele>1815.1</ele>
    <time>2026-06-20T11:07:42Z</time>
   </trkpt>
   <trkpt lat="-3.1721600" lon="37.2823840">
    <ele>1815.3</ele>
    <time>2026-06-20T11:07:43Z</time>
   </trkpt>
   <trkpt lat="-3.1721490" lon="37.2823860">
    <ele>1815.4</ele>
    <time>2026-06-20T11:07:44Z</time>
   </trkpt>
   <trkpt lat="-3.1721420" lon="37.2823920">
    <ele>1815.5</ele>
    <time>2026-06-20T11:07:45Z</time>
   </trkpt>
   <trkpt lat="-3.1721370" lon="37.2823930">
    <ele>1815.6</ele>
    <time>2026-06-20T11:07:46Z</time>
   </trkpt>
   <trkpt lat="-3.1721250" lon="37.2823890">
    <ele>1815.8</ele>
    <time>2026-06-20T11:07:47Z</time>
   </trkpt>
   <trkpt lat="-3.1721300" lon="37.2823860">
    <ele>1815.8</ele>
    <time>2026-06-20T11:07:48Z</time>
   </trkpt>
   <trkpt lat="-3.1721270" lon="37.2823880">
    <ele>1815.9</ele>
    <time>2026-06-20T11:07:49Z</time>
   </trkpt>
   <trkpt lat="-3.1721130" lon="37.2823910">
    <ele>1816.1</ele>
    <time>2026-06-20T11:07:50Z</time>
   </trkpt>
   <trkpt lat="-3.1721050" lon="37.2823910">
    <ele>1816.2</ele>
    <time>2026-06-20T11:07:51Z</time>
   </trkpt>
   <trkpt lat="-3.1720970" lon="37.2823930">
    <ele>1816.3</ele>
    <time>2026-06-20T11:07:52Z</time>
   </trkpt>
   <trkpt lat="-3.1720920" lon="37.2823980">
    <ele>1816.4</ele>
    <time>2026-06-20T11:07:53Z</time>
   </trkpt>
   <trkpt lat="-3.1720880" lon="37.2824050">
    <ele>1816.5</ele>
    <time>2026-06-20T11:07:54Z</time>
   </trkpt>
   <trkpt lat="-3.1720800" lon="37.2824090">
    <ele>1816.6</ele>
    <time>2026-06-20T11:07:55Z</time>
   </trkpt>
   <trkpt lat="-3.1720720" lon="37.2824190">
    <ele>1816.8</ele>
    <time>2026-06-20T11:07:56Z</time>
   </trkpt>
   <trkpt lat="-3.1720670" lon="37.2824260">
    <ele>1816.9</ele>
    <time>2026-06-20T11:07:57Z</time>
   </trkpt>
   <trkpt lat="-3.1720590" lon="37.2824310">
    <ele>1817.0</ele>
    <time>2026-06-20T11:07:58Z</time>
   </trkpt>
   <trkpt lat="-3.1720490" lon="37.2824390">
    <ele>1817.2</ele>
    <time>2026-06-20T11:07:59Z</time>
   </trkpt>
   <trkpt lat="-3.1720460" lon="37.2824420">
    <ele>1817.3</ele>
    <time>2026-06-20T11:08:00Z</time>
   </trkpt>
   <trkpt lat="-3.1720370" lon="37.2824480">
    <ele>1817.4</ele>
    <time>2026-06-20T11:08:01Z</time>
   </trkpt>
   <trkpt lat="-3.1720310" lon="37.2824570">
    <ele>1817.5</ele>
    <time>2026-06-20T11:08:02Z</time>
   </trkpt>
   <trkpt lat="-3.1720260" lon="37.2824600">
    <ele>1817.6</ele>
    <time>2026-06-20T11:08:03Z</time>
   </trkpt>
   <trkpt lat="-3.1720180" lon="37.2824650">
    <ele>1817.7</ele>
    <time>2026-06-20T11:08:04Z</time>
   </trkpt>
   <trkpt lat="-3.1720100" lon="37.2824680">
    <ele>1817.8</ele>
    <time>2026-06-20T11:08:05Z</time>
   </trkpt>
   <trkpt lat="-3.1720040" lon="37.2824710">
    <ele>1817.9</ele>
    <time>2026-06-20T11:08:06Z</time>
   </trkpt>
   <trkpt lat="-3.1719970" lon="37.2824730">
    <ele>1818.0</ele>
    <time>2026-06-20T11:08:07Z</time>
   </trkpt>
   <trkpt lat="-3.1719900" lon="37.2824770">
    <ele>1818.1</ele>
    <time>2026-06-20T11:08:08Z</time>
   </trkpt>
   <trkpt lat="-3.1719800" lon="37.2824830">
    <ele>1818.2</ele>
    <time>2026-06-20T11:08:09Z</time>
   </trkpt>
   <trkpt lat="-3.1719730" lon="37.2824830">
    <ele>1818.3</ele>
    <time>2026-06-20T11:08:10Z</time>
   </trkpt>
   <trkpt lat="-3.1719630" lon="37.2824830">
    <ele>1818.4</ele>
    <time>2026-06-20T11:08:11Z</time>
   </trkpt>
   <trkpt lat="-3.1719580" lon="37.2824860">
    <ele>1818.5</ele>
    <time>2026-06-20T11:08:12Z</time>
   </trkpt>
   <trkpt lat="-3.1719520" lon="37.2824860">
    <ele>1818.6</ele>
    <time>2026-06-20T11:08:13Z</time>
   </trkpt>
   <trkpt lat="-3.1719400" lon="37.2824820">
    <ele>1818.7</ele>
    <time>2026-06-20T11:08:14Z</time>
   </trkpt>
   <trkpt lat="-3.1719280" lon="37.2824850">
    <ele>1818.9</ele>
    <time>2026-06-20T11:08:15Z</time>
   </trkpt>
   <trkpt lat="-3.1719140" lon="37.2824860">
    <ele>1819.1</ele>
    <time>2026-06-20T11:08:16Z</time>
   </trkpt>
   <trkpt lat="-3.1719010" lon="37.2824850">
    <ele>1819.2</ele>
    <time>2026-06-20T11:08:17Z</time>
   </trkpt>
   <trkpt lat="-3.1718970" lon="37.2824870">
    <ele>1819.3</ele>
    <time>2026-06-20T11:08:18Z</time>
   </trkpt>
   <trkpt lat="-3.1718910" lon="37.2824870">
    <ele>1819.4</ele>
    <time>2026-06-20T11:08:19Z</time>
   </trkpt>
   <trkpt lat="-3.1718840" lon="37.2824840">
    <ele>1819.5</ele>
    <time>2026-06-20T11:08:20Z</time>
   </trkpt>
   <trkpt lat="-3.1718720" lon="37.2824980">
    <ele>1819.7</ele>
    <time>2026-06-20T11:08:21Z</time>
   </trkpt>
   <trkpt lat="-3.1718660" lon="37.2824960">
    <ele>1819.8</ele>
    <time>2026-06-20T11:08:22Z</time>
   </trkpt>
   <trkpt lat="-3.1718580" lon="37.2825010">
    <ele>1819.9</ele>
    <time>2026-06-20T11:08:23Z</time>
   </trkpt>
   <trkpt lat="-3.1718510" lon="37.2825040">
    <ele>1820.0</ele>
    <time>2026-06-20T11:08:24Z</time>
   </trkpt>
   <trkpt lat="-3.1718430" lon="37.2825070">
    <ele>1820.1</ele>
    <time>2026-06-20T11:08:25Z</time>
   </trkpt>
   <trkpt lat="-3.1718370" lon="37.2825110">
    <ele>1820.2</ele>
    <time>2026-06-20T11:08:26Z</time>
   </trkpt>
   <trkpt lat="-3.1718290" lon="37.2825140">
    <ele>1820.3</ele>
    <time>2026-06-20T11:08:27Z</time>
   </trkpt>
   <trkpt lat="-3.1718230" lon="37.2825140">
    <ele>1820.3</ele>
    <time>2026-06-20T11:08:28Z</time>
   </trkpt>
   <trkpt lat="-3.1718180" lon="37.2825200">
    <ele>1820.4</ele>
    <time>2026-06-20T11:08:29Z</time>
   </trkpt>
   <trkpt lat="-3.1718080" lon="37.2825260">
    <ele>1820.6</ele>
    <time>2026-06-20T11:08:30Z</time>
   </trkpt>
   <trkpt lat="-3.1717980" lon="37.2825290">
    <ele>1820.7</ele>
    <time>2026-06-20T11:08:31Z</time>
   </trkpt>
   <trkpt lat="-3.1717940" lon="37.2825340">
    <ele>1820.8</ele>
    <time>2026-06-20T11:08:32Z</time>
   </trkpt>
   <trkpt lat="-3.1717870" lon="37.2825390">
    <ele>1820.9</ele>
    <time>2026-06-20T11:08:33Z</time>
   </trkpt>
   <trkpt lat="-3.1717870" lon="37.2825390">
    <ele>1820.9</ele>
    <time>2026-06-20T11:08:34Z</time>
   </trkpt>
   <trkpt lat="-3.1717780" lon="37.2825410">
    <ele>1821.0</ele>
    <time>2026-06-20T11:08:35Z</time>
   </trkpt>
   <trkpt lat="-3.1717660" lon="37.2825470">
    <ele>1821.2</ele>
    <time>2026-06-20T11:08:36Z</time>
   </trkpt>
   <trkpt lat="-3.1717680" lon="37.2825450">
    <ele>1821.2</ele>
    <time>2026-06-20T11:08:37Z</time>
   </trkpt>
   <trkpt lat="-3.1717520" lon="37.2825500">
    <ele>1821.4</ele>
    <time>2026-06-20T11:08:38Z</time>
   </trkpt>
   <trkpt lat="-3.1717460" lon="37.2825510">
    <ele>1821.5</ele>
    <time>2026-06-20T11:08:39Z</time>
   </trkpt>
   <trkpt lat="-3.1717360" lon="37.2825560">
    <ele>1821.7</ele>
    <time>2026-06-20T11:08:40Z</time>
   </trkpt>
   <trkpt lat="-3.1717280" lon="37.2825590">
    <ele>1821.8</ele>
    <time>2026-06-20T11:08:41Z</time>
   </trkpt>
   <trkpt lat="-3.1717210" lon="37.2825610">
    <ele>1821.9</ele>
    <time>2026-06-20T11:08:42Z</time>
   </trkpt>
   <trkpt lat="-3.1717180" lon="37.2825610">
    <ele>1821.9</ele>
    <time>2026-06-20T11:08:43Z</time>
   </trkpt>
   <trkpt lat="-3.1717050" lon="37.2825650">
    <ele>1822.1</ele>
    <time>2026-06-20T11:08:44Z</time>
   </trkpt>
   <trkpt lat="-3.1716980" lon="37.2825690">
    <ele>1822.2</ele>
    <time>2026-06-20T11:08:45Z</time>
   </trkpt>
   <trkpt lat="-3.1716890" lon="37.2825690">
    <ele>1822.3</ele>
    <time>2026-06-20T11:08:46Z</time>
   </trkpt>
   <trkpt lat="-3.1716790" lon="37.2825690">
    <ele>1822.4</ele>
    <time>2026-06-20T11:08:47Z</time>
   </trkpt>
   <trkpt lat="-3.1716700" lon="37.2825770">
    <ele>1822.6</ele>
    <time>2026-06-20T11:08:48Z</time>
   </trkpt>
   <trkpt lat="-3.1716650" lon="37.2825750">
    <ele>1822.6</ele>
    <time>2026-06-20T11:08:49Z</time>
   </trkpt>
   <trkpt lat="-3.1716500" lon="37.2825740">
    <ele>1822.8</ele>
    <time>2026-06-20T11:08:50Z</time>
   </trkpt>
   <trkpt lat="-3.1716530" lon="37.2825710">
    <ele>1822.9</ele>
    <time>2026-06-20T11:08:51Z</time>
   </trkpt>
   <trkpt lat="-3.1716450" lon="37.2825680">
    <ele>1823.0</ele>
    <time>2026-06-20T11:08:52Z</time>
   </trkpt>
   <trkpt lat="-3.1716370" lon="37.2825670">
    <ele>1823.1</ele>
    <time>2026-06-20T11:08:53Z</time>
   </trkpt>
   <trkpt lat="-3.1716340" lon="37.2825710">
    <ele>1823.1</ele>
    <time>2026-06-20T11:08:54Z</time>
   </trkpt>
   <trkpt lat="-3.1716280" lon="37.2825630">
    <ele>1823.3</ele>
    <time>2026-06-20T11:08:55Z</time>
   </trkpt>
   <trkpt lat="-3.1716270" lon="37.2825660">
    <ele>1823.3</ele>
    <time>2026-06-20T11:08:56Z</time>
   </trkpt>
   <trkpt lat="-3.1716200" lon="37.2825640">
    <ele>1823.4</ele>
    <time>2026-06-20T11:08:57Z</time>
   </trkpt>
   <trkpt lat="-3.1716060" lon="37.2825610">
    <ele>1823.6</ele>
    <time>2026-06-20T11:08:58Z</time>
   </trkpt>
   <trkpt lat="-3.1716080" lon="37.2825640">
    <ele>1823.6</ele>
    <time>2026-06-20T11:08:59Z</time>
   </trkpt>
   <trkpt lat="-3.1715970" lon="37.2825640">
    <ele>1823.7</ele>
    <time>2026-06-20T11:09:00Z</time>
   </trkpt>
   <trkpt lat="-3.1715890" lon="37.2825620">
    <ele>1823.8</ele>
    <time>2026-06-20T11:09:01Z</time>
   </trkpt>
   <trkpt lat="-3.1715760" lon="37.2825650">
    <ele>1824.0</ele>
    <time>2026-06-20T11:09:02Z</time>
   </trkpt>
   <trkpt lat="-3.1715690" lon="37.2825670">
    <ele>1824.1</ele>
    <time>2026-06-20T11:09:03Z</time>
   </trkpt>
   <trkpt lat="-3.1715600" lon="37.2825620">
    <ele>1824.2</ele>
    <time>2026-06-20T11:09:04Z</time>
   </trkpt>
   <trkpt lat="-3.1715510" lon="37.2825640">
    <ele>1824.3</ele>
    <time>2026-06-20T11:09:05Z</time>
   </trkpt>
   <trkpt lat="-3.1715440" lon="37.2825690">
    <ele>1824.4</ele>
    <time>2026-06-20T11:09:06Z</time>
   </trkpt>
   <trkpt lat="-3.1715400" lon="37.2825710">
    <ele>1824.4</ele>
    <time>2026-06-20T11:09:07Z</time>
   </trkpt>
   <trkpt lat="-3.1715300" lon="37.2825720">
    <ele>1824.5</ele>
    <time>2026-06-20T11:09:08Z</time>
   </trkpt>
   <trkpt lat="-3.1715230" lon="37.2825780">
    <ele>1824.6</ele>
    <time>2026-06-20T11:09:09Z</time>
   </trkpt>
   <trkpt lat="-3.1715160" lon="37.2825820">
    <ele>1824.7</ele>
    <time>2026-06-20T11:09:10Z</time>
   </trkpt>
   <trkpt lat="-3.1715050" lon="37.2825830">
    <ele>1824.8</ele>
    <time>2026-06-20T11:09:11Z</time>
   </trkpt>
   <trkpt lat="-3.1714990" lon="37.2825880">
    <ele>1824.9</ele>
    <time>2026-06-20T11:09:12Z</time>
   </trkpt>
   <trkpt lat="-3.1714840" lon="37.2825890">
    <ele>1825.1</ele>
    <time>2026-06-20T11:09:13Z</time>
   </trkpt>
   <trkpt lat="-3.1714740" lon="37.2825910">
    <ele>1825.2</ele>
    <time>2026-06-20T11:09:14Z</time>
   </trkpt>
   <trkpt lat="-3.1714720" lon="37.2825940">
    <ele>1825.2</ele>
    <time>2026-06-20T11:09:16Z</time>
   </trkpt>
   <trkpt lat="-3.1714600" lon="37.2825920">
    <ele>1825.3</ele>
    <time>2026-06-20T11:09:17Z</time>
   </trkpt>
   <trkpt lat="-3.1714520" lon="37.2825910">
    <ele>1825.4</ele>
    <time>2026-06-20T11:09:18Z</time>
   </trkpt>
   <trkpt lat="-3.1714390" lon="37.2825900">
    <ele>1825.6</ele>
    <time>2026-06-20T11:09:19Z</time>
   </trkpt>
   <trkpt lat="-3.1714360" lon="37.2825850">
    <ele>1825.6</ele>
    <time>2026-06-20T11:09:20Z</time>
   </trkpt>
   <trkpt lat="-3.1714310" lon="37.2825830">
    <ele>1825.7</ele>
    <time>2026-06-20T11:09:21Z</time>
   </trkpt>
   <trkpt lat="-3.1714240" lon="37.2825830">
    <ele>1825.7</ele>
    <time>2026-06-20T11:09:22Z</time>
   </trkpt>
   <trkpt lat="-3.1714160" lon="37.2825820">
    <ele>1825.8</ele>
    <time>2026-06-20T11:09:23Z</time>
   </trkpt>
   <trkpt lat="-3.1714090" lon="37.2825850">
    <ele>1825.9</ele>
    <time>2026-06-20T11:09:24Z</time>
   </trkpt>
   <trkpt lat="-3.1714000" lon="37.2825870">
    <ele>1826.0</ele>
    <time>2026-06-20T11:09:25Z</time>
   </trkpt>
   <trkpt lat="-3.1713890" lon="37.2825920">
    <ele>1826.1</ele>
    <time>2026-06-20T11:09:26Z</time>
   </trkpt>
   <trkpt lat="-3.1713760" lon="37.2825930">
    <ele>1826.2</ele>
    <time>2026-06-20T11:09:27Z</time>
   </trkpt>
   <trkpt lat="-3.1713660" lon="37.2826000">
    <ele>1826.3</ele>
    <time>2026-06-20T11:09:28Z</time>
   </trkpt>
   <trkpt lat="-3.1713580" lon="37.2826020">
    <ele>1826.4</ele>
    <time>2026-06-20T11:09:29Z</time>
   </trkpt>
   <trkpt lat="-3.1713470" lon="37.2826080">
    <ele>1826.5</ele>
    <time>2026-06-20T11:09:30Z</time>
   </trkpt>
   <trkpt lat="-3.1713420" lon="37.2826170">
    <ele>1826.6</ele>
    <time>2026-06-20T11:09:31Z</time>
   </trkpt>
   <trkpt lat="-3.1713360" lon="37.2826120">
    <ele>1826.7</ele>
    <time>2026-06-20T11:09:32Z</time>
   </trkpt>
   <trkpt lat="-3.1713240" lon="37.2826180">
    <ele>1826.8</ele>
    <time>2026-06-20T11:09:33Z</time>
   </trkpt>
   <trkpt lat="-3.1713160" lon="37.2826220">
    <ele>1826.9</ele>
    <time>2026-06-20T11:09:34Z</time>
   </trkpt>
   <trkpt lat="-3.1713070" lon="37.2826250">
    <ele>1827.0</ele>
    <time>2026-06-20T11:09:35Z</time>
   </trkpt>
   <trkpt lat="-3.1713020" lon="37.2826270">
    <ele>1827.0</ele>
    <time>2026-06-20T11:09:36Z</time>
   </trkpt>
   <trkpt lat="-3.1712920" lon="37.2826310">
    <ele>1827.1</ele>
    <time>2026-06-20T11:09:37Z</time>
   </trkpt>
   <trkpt lat="-3.1712860" lon="37.2826320">
    <ele>1827.2</ele>
    <time>2026-06-20T11:09:38Z</time>
   </trkpt>
   <trkpt lat="-3.1712770" lon="37.2826370">
    <ele>1827.3</ele>
    <time>2026-06-20T11:09:39Z</time>
   </trkpt>
   <trkpt lat="-3.1712690" lon="37.2826390">
    <ele>1827.4</ele>
    <time>2026-06-20T11:09:40Z</time>
   </trkpt>
   <trkpt lat="-3.1712560" lon="37.2826460">
    <ele>1827.5</ele>
    <time>2026-06-20T11:09:41Z</time>
   </trkpt>
   <trkpt lat="-3.1712530" lon="37.2826470">
    <ele>1827.5</ele>
    <time>2026-06-20T11:09:42Z</time>
   </trkpt>
   <trkpt lat="-3.1712460" lon="37.2826480">
    <ele>1827.6</ele>
    <time>2026-06-20T11:09:43Z</time>
   </trkpt>
   <trkpt lat="-3.1712350" lon="37.2826500">
    <ele>1827.7</ele>
    <time>2026-06-20T11:09:44Z</time>
   </trkpt>
   <trkpt lat="-3.1712310" lon="37.2826570">
    <ele>1827.8</ele>
    <time>2026-06-20T11:09:45Z</time>
   </trkpt>
   <trkpt lat="-3.1712210" lon="37.2826570">
    <ele>1827.9</ele>
    <time>2026-06-20T11:09:46Z</time>
   </trkpt>
   <trkpt lat="-3.1712130" lon="37.2826610">
    <ele>1827.9</ele>
    <time>2026-06-20T11:09:47Z</time>
   </trkpt>
   <trkpt lat="-3.1712020" lon="37.2826610">
    <ele>1828.0</ele>
    <time>2026-06-20T11:09:48Z</time>
   </trkpt>
   <trkpt lat="-3.1711950" lon="37.2826610">
    <ele>1828.1</ele>
    <time>2026-06-20T11:09:49Z</time>
   </trkpt>
   <trkpt lat="-3.1711890" lon="37.2826630">
    <ele>1828.2</ele>
    <time>2026-06-20T11:09:50Z</time>
   </trkpt>
   <trkpt lat="-3.1711840" lon="37.2826650">
    <ele>1828.2</ele>
    <time>2026-06-20T11:09:51Z</time>
   </trkpt>
   <trkpt lat="-3.1711720" lon="37.2826640">
    <ele>1828.3</ele>
    <time>2026-06-20T11:09:52Z</time>
   </trkpt>
   <trkpt lat="-3.1711710" lon="37.2826630">
    <ele>1828.3</ele>
    <time>2026-06-20T11:09:53Z</time>
   </trkpt>
   <trkpt lat="-3.1711690" lon="37.2826590">
    <ele>1828.4</ele>
    <time>2026-06-20T11:09:54Z</time>
   </trkpt>
   <trkpt lat="-3.1711660" lon="37.2826580">
    <ele>1828.4</ele>
    <time>2026-06-20T11:09:55Z</time>
   </trkpt>
   <trkpt lat="-3.1711530" lon="37.2826560">
    <ele>1828.5</ele>
    <time>2026-06-20T11:09:56Z</time>
   </trkpt>
   <trkpt lat="-3.1711480" lon="37.2826570">
    <ele>1828.6</ele>
    <time>2026-06-20T11:09:57Z</time>
   </trkpt>
   <trkpt lat="-3.1711420" lon="37.2826620">
    <ele>1828.6</ele>
    <time>2026-06-20T11:09:58Z</time>
   </trkpt>
   <trkpt lat="-3.1711340" lon="37.2826660">
    <ele>1828.7</ele>
    <time>2026-06-20T11:09:59Z</time>
   </trkpt>
   <trkpt lat="-3.1711270" lon="37.2826700">
    <ele>1828.8</ele>
    <time>2026-06-20T11:10:00Z</time>
   </trkpt>
   <trkpt lat="-3.1711190" lon="37.2826740">
    <ele>1828.9</ele>
    <time>2026-06-20T11:10:01Z</time>
   </trkpt>
   <trkpt lat="-3.1711140" lon="37.2826780">
    <ele>1828.9</ele>
    <time>2026-06-20T11:10:02Z</time>
   </trkpt>
   <trkpt lat="-3.1711080" lon="37.2826790">
    <ele>1829.0</ele>
    <time>2026-06-20T11:10:03Z</time>
   </trkpt>
   <trkpt lat="-3.1710870" lon="37.2826880">
    <ele>1829.2</ele>
    <time>2026-06-20T11:10:04Z</time>
   </trkpt>
   <trkpt lat="-3.1710750" lon="37.2826880">
    <ele>1829.3</ele>
    <time>2026-06-20T11:10:05Z</time>
   </trkpt>
   <trkpt lat="-3.1710690" lon="37.2826910">
    <ele>1829.4</ele>
    <time>2026-06-20T11:10:06Z</time>
   </trkpt>
   <trkpt lat="-3.1710620" lon="37.2826920">
    <ele>1829.4</ele>
    <time>2026-06-20T11:10:07Z</time>
   </trkpt>
   <trkpt lat="-3.1710530" lon="37.2826960">
    <ele>1829.5</ele>
    <time>2026-06-20T11:10:08Z</time>
   </trkpt>
   <trkpt lat="-3.1710480" lon="37.2827000">
    <ele>1829.6</ele>
    <time>2026-06-20T11:10:09Z</time>
   </trkpt>
   <trkpt lat="-3.1710450" lon="37.2827040">
    <ele>1829.6</ele>
    <time>2026-06-20T11:10:10Z</time>
   </trkpt>
   <trkpt lat="-3.1710330" lon="37.2827080">
    <ele>1829.8</ele>
    <time>2026-06-20T11:10:11Z</time>
   </trkpt>
   <trkpt lat="-3.1710260" lon="37.2827130">
    <ele>1829.8</ele>
    <time>2026-06-20T11:10:12Z</time>
   </trkpt>
   <trkpt lat="-3.1710170" lon="37.2827200">
    <ele>1829.9</ele>
    <time>2026-06-20T11:10:13Z</time>
   </trkpt>
   <trkpt lat="-3.1710110" lon="37.2827230">
    <ele>1830.0</ele>
    <time>2026-06-20T11:10:14Z</time>
   </trkpt>
   <trkpt lat="-3.1710020" lon="37.2827250">
    <ele>1830.1</ele>
    <time>2026-06-20T11:10:15Z</time>
   </trkpt>
   <trkpt lat="-3.1709940" lon="37.2827290">
    <ele>1830.1</ele>
    <time>2026-06-20T11:10:16Z</time>
   </trkpt>
   <trkpt lat="-3.1709830" lon="37.2827350">
    <ele>1830.2</ele>
    <time>2026-06-20T11:10:17Z</time>
   </trkpt>
   <trkpt lat="-3.1709670" lon="37.2827410">
    <ele>1830.4</ele>
    <time>2026-06-20T11:10:18Z</time>
   </trkpt>
   <trkpt lat="-3.1709590" lon="37.2827410">
    <ele>1830.4</ele>
    <time>2026-06-20T11:10:19Z</time>
   </trkpt>
   <trkpt lat="-3.1709530" lon="37.2827390">
    <ele>1830.5</ele>
    <time>2026-06-20T11:10:20Z</time>
   </trkpt>
   <trkpt lat="-3.1709440" lon="37.2827380">
    <ele>1830.6</ele>
    <time>2026-06-20T11:10:21Z</time>
   </trkpt>
   <trkpt lat="-3.1709350" lon="37.2827390">
    <ele>1830.6</ele>
    <time>2026-06-20T11:10:22Z</time>
   </trkpt>
   <trkpt lat="-3.1709230" lon="37.2827420">
    <ele>1830.7</ele>
    <time>2026-06-20T11:10:23Z</time>
   </trkpt>
   <trkpt lat="-3.1709150" lon="37.2827450">
    <ele>1830.8</ele>
    <time>2026-06-20T11:10:24Z</time>
   </trkpt>
   <trkpt lat="-3.1709100" lon="37.2827460">
    <ele>1830.8</ele>
    <time>2026-06-20T11:10:25Z</time>
   </trkpt>
   <trkpt lat="-3.1709030" lon="37.2827490">
    <ele>1830.9</ele>
    <time>2026-06-20T11:10:26Z</time>
   </trkpt>
   <trkpt lat="-3.1708930" lon="37.2827500">
    <ele>1831.0</ele>
    <time>2026-06-20T11:10:27Z</time>
   </trkpt>
   <trkpt lat="-3.1708840" lon="37.2827500">
    <ele>1831.1</ele>
    <time>2026-06-20T11:10:28Z</time>
   </trkpt>
   <trkpt lat="-3.1708810" lon="37.2827530">
    <ele>1831.1</ele>
    <time>2026-06-20T11:10:29Z</time>
   </trkpt>
   <trkpt lat="-3.1708740" lon="37.2827520">
    <ele>1831.1</ele>
    <time>2026-06-20T11:10:30Z</time>
   </trkpt>
   <trkpt lat="-3.1708670" lon="37.2827530">
    <ele>1831.2</ele>
    <time>2026-06-20T11:10:31Z</time>
   </trkpt>
   <trkpt lat="-3.1708580" lon="37.2827540">
    <ele>1831.3</ele>
    <time>2026-06-20T11:10:32Z</time>
   </trkpt>
   <trkpt lat="-3.1708530" lon="37.2827470">
    <ele>1831.3</ele>
    <time>2026-06-20T11:10:33Z</time>
   </trkpt>
   <trkpt lat="-3.1708450" lon="37.2827470">
    <ele>1831.4</ele>
    <time>2026-06-20T11:10:34Z</time>
   </trkpt>
   <trkpt lat="-3.1708380" lon="37.2827510">
    <ele>1831.5</ele>
    <time>2026-06-20T11:10:35Z</time>
   </trkpt>
   <trkpt lat="-3.1708280" lon="37.2827560">
    <ele>1831.5</ele>
    <time>2026-06-20T11:10:36Z</time>
   </trkpt>
   <trkpt lat="-3.1708180" lon="37.2827580">
    <ele>1831.6</ele>
    <time>2026-06-20T11:10:37Z</time>
   </trkpt>
   <trkpt lat="-3.1708090" lon="37.2827600">
    <ele>1831.7</ele>
    <time>2026-06-20T11:10:38Z</time>
   </trkpt>
   <trkpt lat="-3.1708000" lon="37.2827630">
    <ele>1831.8</ele>
    <time>2026-06-20T11:10:39Z</time>
   </trkpt>
   <trkpt lat="-3.1707910" lon="37.2827680">
    <ele>1831.9</ele>
    <time>2026-06-20T11:10:40Z</time>
   </trkpt>
   <trkpt lat="-3.1707790" lon="37.2827670">
    <ele>1831.9</ele>
    <time>2026-06-20T11:10:41Z</time>
   </trkpt>
   <trkpt lat="-3.1707710" lon="37.2827680">
    <ele>1832.0</ele>
    <time>2026-06-20T11:10:42Z</time>
   </trkpt>
   <trkpt lat="-3.1707650" lon="37.2827670">
    <ele>1832.1</ele>
    <time>2026-06-20T11:10:43Z</time>
   </trkpt>
   <trkpt lat="-3.1707540" lon="37.2827680">
    <ele>1832.1</ele>
    <time>2026-06-20T11:10:44Z</time>
   </trkpt>
   <trkpt lat="-3.1707460" lon="37.2827710">
    <ele>1832.2</ele>
    <time>2026-06-20T11:10:45Z</time>
   </trkpt>
   <trkpt lat="-3.1707350" lon="37.2827720">
    <ele>1832.3</ele>
    <time>2026-06-20T11:10:46Z</time>
   </trkpt>
   <trkpt lat="-3.1707270" lon="37.2827730">
    <ele>1832.4</ele>
    <time>2026-06-20T11:10:47Z</time>
   </trkpt>
   <trkpt lat="-3.1707210" lon="37.2827740">
    <ele>1832.4</ele>
    <time>2026-06-20T11:10:48Z</time>
   </trkpt>
   <trkpt lat="-3.1707120" lon="37.2827790">
    <ele>1832.5</ele>
    <time>2026-06-20T11:10:49Z</time>
   </trkpt>
   <trkpt lat="-3.1707090" lon="37.2827790">
    <ele>1832.5</ele>
    <time>2026-06-20T11:10:50Z</time>
   </trkpt>
   <trkpt lat="-3.1707080" lon="37.2827810">
    <ele>1832.5</ele>
    <time>2026-06-20T11:10:51Z</time>
   </trkpt>
   <trkpt lat="-3.1706940" lon="37.2827820">
    <ele>1832.6</ele>
    <time>2026-06-20T11:10:52Z</time>
   </trkpt>
   <trkpt lat="-3.1706900" lon="37.2827840">
    <ele>1832.7</ele>
    <time>2026-06-20T11:10:53Z</time>
   </trkpt>
   <trkpt lat="-3.1706810" lon="37.2827860">
    <ele>1832.7</ele>
    <time>2026-06-20T11:10:54Z</time>
   </trkpt>
   <trkpt lat="-3.1706740" lon="37.2827880">
    <ele>1832.8</ele>
    <time>2026-06-20T11:10:55Z</time>
   </trkpt>
   <trkpt lat="-3.1706690" lon="37.2827910">
    <ele>1832.8</ele>
    <time>2026-06-20T11:10:56Z</time>
   </trkpt>
   <trkpt lat="-3.1706570" lon="37.2827940">
    <ele>1832.9</ele>
    <time>2026-06-20T11:10:57Z</time>
   </trkpt>
   <trkpt lat="-3.1706490" lon="37.2827920">
    <ele>1833.0</ele>
    <time>2026-06-20T11:10:58Z</time>
   </trkpt>
   <trkpt lat="-3.1706390" lon="37.2827910">
    <ele>1833.1</ele>
    <time>2026-06-20T11:10:59Z</time>
   </trkpt>
   <trkpt lat="-3.1706320" lon="37.2827910">
    <ele>1833.1</ele>
    <time>2026-06-20T11:11:00Z</time>
   </trkpt>
   <trkpt lat="-3.1706250" lon="37.2827920">
    <ele>1833.2</ele>
    <time>2026-06-20T11:11:01Z</time>
   </trkpt>
   <trkpt lat="-3.1706250" lon="37.2827920">
    <ele>1833.2</ele>
    <time>2026-06-20T11:11:02Z</time>
   </trkpt>
   <trkpt lat="-3.1706130" lon="37.2827930">
    <ele>1833.3</ele>
    <time>2026-06-20T11:11:03Z</time>
   </trkpt>
   <trkpt lat="-3.1706050" lon="37.2827960">
    <ele>1833.4</ele>
    <time>2026-06-20T11:11:04Z</time>
   </trkpt>
   <trkpt lat="-3.1705910" lon="37.2827970">
    <ele>1833.5</ele>
    <time>2026-06-20T11:11:05Z</time>
   </trkpt>
   <trkpt lat="-3.1705840" lon="37.2827990">
    <ele>1833.5</ele>
    <time>2026-06-20T11:11:06Z</time>
   </trkpt>
   <trkpt lat="-3.1705820" lon="37.2827940">
    <ele>1833.6</ele>
    <time>2026-06-20T11:11:07Z</time>
   </trkpt>
   <trkpt lat="-3.1705720" lon="37.2827950">
    <ele>1833.7</ele>
    <time>2026-06-20T11:11:08Z</time>
   </trkpt>
   <trkpt lat="-3.1705650" lon="37.2827970">
    <ele>1833.7</ele>
    <time>2026-06-20T11:11:09Z</time>
   </trkpt>
   <trkpt lat="-3.1705550" lon="37.2828000">
    <ele>1833.8</ele>
    <time>2026-06-20T11:11:10Z</time>
   </trkpt>
   <trkpt lat="-3.1705480" lon="37.2828020">
    <ele>1833.9</ele>
    <time>2026-06-20T11:11:11Z</time>
   </trkpt>
   <trkpt lat="-3.1705420" lon="37.2828000">
    <ele>1833.9</ele>
    <time>2026-06-20T11:11:12Z</time>
   </trkpt>
   <trkpt lat="-3.1705380" lon="37.2828060">
    <ele>1834.0</ele>
    <time>2026-06-20T11:11:13Z</time>
   </trkpt>
   <trkpt lat="-3.1705330" lon="37.2828070">
    <ele>1834.0</ele>
    <time>2026-06-20T11:11:14Z</time>
   </trkpt>
   <trkpt lat="-3.1705210" lon="37.2828060">
    <ele>1834.2</ele>
    <time>2026-06-20T11:11:15Z</time>
   </trkpt>
   <trkpt lat="-3.1705110" lon="37.2828080">
    <ele>1834.2</ele>
    <time>2026-06-20T11:11:16Z</time>
   </trkpt>
   <trkpt lat="-3.1705050" lon="37.2828100">
    <ele>1834.3</ele>
    <time>2026-06-20T11:11:17Z</time>
   </trkpt>
   <trkpt lat="-3.1704940" lon="37.2828120">
    <ele>1834.4</ele>
    <time>2026-06-20T11:11:18Z</time>
   </trkpt>
   <trkpt lat="-3.1704890" lon="37.2828120">
    <ele>1834.4</ele>
    <time>2026-06-20T11:11:19Z</time>
   </trkpt>
   <trkpt lat="-3.1704790" lon="37.2828170">
    <ele>1834.5</ele>
    <time>2026-06-20T11:11:20Z</time>
   </trkpt>
   <trkpt lat="-3.1704750" lon="37.2828190">
    <ele>1834.6</ele>
    <time>2026-06-20T11:11:22Z</time>
   </trkpt>
   <trkpt lat="-3.1704720" lon="37.2828220">
    <ele>1834.6</ele>
    <time>2026-06-20T11:11:23Z</time>
   </trkpt>
   <trkpt lat="-3.1704610" lon="37.2828230">
    <ele>1834.7</ele>
    <time>2026-06-20T11:11:24Z</time>
   </trkpt>
   <trkpt lat="-3.1704530" lon="37.2828240">
    <ele>1834.8</ele>
    <time>2026-06-20T11:11:25Z</time>
   </trkpt>
   <trkpt lat="-3.1704460" lon="37.2828250">
    <ele>1834.8</ele>
    <time>2026-06-20T11:11:26Z</time>
   </trkpt>
   <trkpt lat="-3.1704360" lon="37.2828280">
    <ele>1834.9</ele>
    <time>2026-06-20T11:11:27Z</time>
   </trkpt>
   <trkpt lat="-3.1704330" lon="37.2828260">
    <ele>1835.0</ele>
    <time>2026-06-20T11:11:28Z</time>
   </trkpt>
   <trkpt lat="-3.1704250" lon="37.2828250">
    <ele>1835.0</ele>
    <time>2026-06-20T11:11:29Z</time>
   </trkpt>
   <trkpt lat="-3.1704140" lon="37.2828250">
    <ele>1835.1</ele>
    <time>2026-06-20T11:11:30Z</time>
   </trkpt>
   <trkpt lat="-3.1704030" lon="37.2828260">
    <ele>1835.2</ele>
    <time>2026-06-20T11:11:31Z</time>
   </trkpt>
   <trkpt lat="-3.1703970" lon="37.2828270">
    <ele>1835.3</ele>
    <time>2026-06-20T11:11:32Z</time>
   </trkpt>
   <trkpt lat="-3.1703850" lon="37.2828290">
    <ele>1835.4</ele>
    <time>2026-06-20T11:11:33Z</time>
   </trkpt>
   <trkpt lat="-3.1703740" lon="37.2828320">
    <ele>1835.5</ele>
    <time>2026-06-20T11:11:34Z</time>
   </trkpt>
   <trkpt lat="-3.1703660" lon="37.2828310">
    <ele>1835.6</ele>
    <time>2026-06-20T11:11:35Z</time>
   </trkpt>
   <trkpt lat="-3.1703540" lon="37.2828290">
    <ele>1835.7</ele>
    <time>2026-06-20T11:11:36Z</time>
   </trkpt>
   <trkpt lat="-3.1703430" lon="37.2828250">
    <ele>1835.8</ele>
    <time>2026-06-20T11:11:37Z</time>
   </trkpt>
   <trkpt lat="-3.1703330" lon="37.2828250">
    <ele>1835.9</ele>
    <time>2026-06-20T11:11:38Z</time>
   </trkpt>
   <trkpt lat="-3.1703250" lon="37.2828280">
    <ele>1835.9</ele>
    <time>2026-06-20T11:11:39Z</time>
   </trkpt>
   <trkpt lat="-3.1703150" lon="37.2828270">
    <ele>1836.0</ele>
    <time>2026-06-20T11:11:40Z</time>
   </trkpt>
   <trkpt lat="-3.1703070" lon="37.2828280">
    <ele>1836.1</ele>
    <time>2026-06-20T11:11:41Z</time>
   </trkpt>
   <trkpt lat="-3.1702950" lon="37.2828290">
    <ele>1836.2</ele>
    <time>2026-06-20T11:11:42Z</time>
   </trkpt>
   <trkpt lat="-3.1702780" lon="37.2828310">
    <ele>1836.3</ele>
    <time>2026-06-20T11:11:43Z</time>
   </trkpt>
   <trkpt lat="-3.1702680" lon="37.2828320">
    <ele>1836.4</ele>
    <time>2026-06-20T11:11:44Z</time>
   </trkpt>
   <trkpt lat="-3.1702590" lon="37.2828330">
    <ele>1836.5</ele>
    <time>2026-06-20T11:11:45Z</time>
   </trkpt>
   <trkpt lat="-3.1702550" lon="37.2828300">
    <ele>1836.5</ele>
    <time>2026-06-20T11:11:46Z</time>
   </trkpt>
   <trkpt lat="-3.1702480" lon="37.2828290">
    <ele>1836.6</ele>
    <time>2026-06-20T11:11:47Z</time>
   </trkpt>
   <trkpt lat="-3.1702400" lon="37.2828310">
    <ele>1836.7</ele>
    <time>2026-06-20T11:11:48Z</time>
   </trkpt>
   <trkpt lat="-3.1702250" lon="37.2828260">
    <ele>1836.8</ele>
    <time>2026-06-20T11:11:49Z</time>
   </trkpt>
   <trkpt lat="-3.1702170" lon="37.2828260">
    <ele>1836.9</ele>
    <time>2026-06-20T11:11:50Z</time>
   </trkpt>
   <trkpt lat="-3.1702020" lon="37.2828290">
    <ele>1837.0</ele>
    <time>2026-06-20T11:11:51Z</time>
   </trkpt>
   <trkpt lat="-3.1701900" lon="37.2828290">
    <ele>1837.1</ele>
    <time>2026-06-20T11:11:52Z</time>
   </trkpt>
   <trkpt lat="-3.1701840" lon="37.2828300">
    <ele>1837.2</ele>
    <time>2026-06-20T11:11:53Z</time>
   </trkpt>
   <trkpt lat="-3.1701760" lon="37.2828350">
    <ele>1837.2</ele>
    <time>2026-06-20T11:11:54Z</time>
   </trkpt>
   <trkpt lat="-3.1701690" lon="37.2828340">
    <ele>1837.3</ele>
    <time>2026-06-20T11:11:55Z</time>
   </trkpt>
   <trkpt lat="-3.1701560" lon="37.2828380">
    <ele>1837.4</ele>
    <time>2026-06-20T11:11:56Z</time>
   </trkpt>
   <trkpt lat="-3.1701450" lon="37.2828370">
    <ele>1837.5</ele>
    <time>2026-06-20T11:11:57Z</time>
   </trkpt>
   <trkpt lat="-3.1701330" lon="37.2828330">
    <ele>1837.6</ele>
    <time>2026-06-20T11:11:58Z</time>
   </trkpt>
   <trkpt lat="-3.1701290" lon="37.2828310">
    <ele>1837.7</ele>
    <time>2026-06-20T11:11:59Z</time>
   </trkpt>
   <trkpt lat="-3.1701190" lon="37.2828300">
    <ele>1837.8</ele>
    <time>2026-06-20T11:12:00Z</time>
   </trkpt>
   <trkpt lat="-3.1701090" lon="37.2828260">
    <ele>1837.9</ele>
    <time>2026-06-20T11:12:01Z</time>
   </trkpt>
   <trkpt lat="-3.1700990" lon="37.2828270">
    <ele>1837.9</ele>
    <time>2026-06-20T11:12:02Z</time>
   </trkpt>
   <trkpt lat="-3.1700970" lon="37.2828290">
    <ele>1838.0</ele>
    <time>2026-06-20T11:12:03Z</time>
   </trkpt>
   <trkpt lat="-3.1700850" lon="37.2828300">
    <ele>1838.1</ele>
    <time>2026-06-20T11:12:04Z</time>
   </trkpt>
   <trkpt lat="-3.1700760" lon="37.2828250">
    <ele>1838.2</ele>
    <time>2026-06-20T11:12:05Z</time>
   </trkpt>
   <trkpt lat="-3.1700660" lon="37.2828210">
    <ele>1838.3</ele>
    <time>2026-06-20T11:12:06Z</time>
   </trkpt>
   <trkpt lat="-3.1700590" lon="37.2828150">
    <ele>1838.3</ele>
    <time>2026-06-20T11:12:07Z</time>
   </trkpt>
   <trkpt lat="-3.1700470" lon="37.2828180">
    <ele>1838.4</ele>
    <time>2026-06-20T11:12:08Z</time>
   </trkpt>
   <trkpt lat="-3.1700410" lon="37.2828160">
    <ele>1838.5</ele>
    <time>2026-06-20T11:12:09Z</time>
   </trkpt>
   <trkpt lat="-3.1700310" lon="37.2828140">
    <ele>1838.6</ele>
    <time>2026-06-20T11:12:10Z</time>
   </trkpt>
   <trkpt lat="-3.1700200" lon="37.2828120">
    <ele>1838.7</ele>
    <time>2026-06-20T11:12:11Z</time>
   </trkpt>
   <trkpt lat="-3.1700110" lon="37.2828160">
    <ele>1838.8</ele>
    <time>2026-06-20T11:12:12Z</time>
   </trkpt>
   <trkpt lat="-3.1700040" lon="37.2828150">
    <ele>1838.8</ele>
    <time>2026-06-20T11:12:13Z</time>
   </trkpt>
   <trkpt lat="-3.1699990" lon="37.2828140">
    <ele>1838.9</ele>
    <time>2026-06-20T11:12:14Z</time>
   </trkpt>
   <trkpt lat="-3.1699920" lon="37.2828100">
    <ele>1839.0</ele>
    <time>2026-06-20T11:12:15Z</time>
   </trkpt>
   <trkpt lat="-3.1699790" lon="37.2828110">
    <ele>1839.1</ele>
    <time>2026-06-20T11:12:16Z</time>
   </trkpt>
   <trkpt lat="-3.1699700" lon="37.2828110">
    <ele>1839.1</ele>
    <time>2026-06-20T11:12:17Z</time>
   </trkpt>
   <trkpt lat="-3.1699600" lon="37.2828080">
    <ele>1839.2</ele>
    <time>2026-06-20T11:12:18Z</time>
   </trkpt>
   <trkpt lat="-3.1699520" lon="37.2828050">
    <ele>1839.3</ele>
    <time>2026-06-20T11:12:19Z</time>
   </trkpt>
   <trkpt lat="-3.1699460" lon="37.2828050">
    <ele>1839.4</ele>
    <time>2026-06-20T11:12:20Z</time>
   </trkpt>
   <trkpt lat="-3.1699350" lon="37.2828010">
    <ele>1839.4</ele>
    <time>2026-06-20T11:12:21Z</time>
   </trkpt>
   <trkpt lat="-3.1699270" lon="37.2827970">
    <ele>1839.5</ele>
    <time>2026-06-20T11:12:22Z</time>
   </trkpt>
   <trkpt lat="-3.1699230" lon="37.2827960">
    <ele>1839.6</ele>
    <time>2026-06-20T11:12:23Z</time>
   </trkpt>
   <trkpt lat="-3.1699130" lon="37.2827920">
    <ele>1839.6</ele>
    <time>2026-06-20T11:12:24Z</time>
   </trkpt>
   <trkpt lat="-3.1699070" lon="37.2827910">
    <ele>1839.7</ele>
    <time>2026-06-20T11:12:25Z</time>
   </trkpt>
   <trkpt lat="-3.1699040" lon="37.2827890">
    <ele>1839.7</ele>
    <time>2026-06-20T11:12:26Z</time>
   </trkpt>
   <trkpt lat="-3.1698950" lon="37.2827910">
    <ele>1839.8</ele>
    <time>2026-06-20T11:12:27Z</time>
   </trkpt>
   <trkpt lat="-3.1698850" lon="37.2827870">
    <ele>1839.9</ele>
    <time>2026-06-20T11:12:28Z</time>
   </trkpt>
   <trkpt lat="-3.1698750" lon="37.2827890">
    <ele>1840.0</ele>
    <time>2026-06-20T11:12:29Z</time>
   </trkpt>
   <trkpt lat="-3.1698700" lon="37.2827860">
    <ele>1840.0</ele>
    <time>2026-06-20T11:12:30Z</time>
   </trkpt>
   <trkpt lat="-3.1698650" lon="37.2827840">
    <ele>1840.0</ele>
    <time>2026-06-20T11:12:31Z</time>
   </trkpt>
   <trkpt lat="-3.1698590" lon="37.2827840">
    <ele>1840.1</ele>
    <time>2026-06-20T11:12:32Z</time>
   </trkpt>
   <trkpt lat="-3.1698560" lon="37.2827860">
    <ele>1840.1</ele>
    <time>2026-06-20T11:12:33Z</time>
   </trkpt>
   <trkpt lat="-3.1698500" lon="37.2827860">
    <ele>1840.2</ele>
    <time>2026-06-20T11:12:34Z</time>
   </trkpt>
   <trkpt lat="-3.1698460" lon="37.2827900">
    <ele>1840.2</ele>
    <time>2026-06-20T11:12:35Z</time>
   </trkpt>
   <trkpt lat="-3.1698380" lon="37.2827910">
    <ele>1840.3</ele>
    <time>2026-06-20T11:12:36Z</time>
   </trkpt>
   <trkpt lat="-3.1698310" lon="37.2827930">
    <ele>1840.3</ele>
    <time>2026-06-20T11:12:37Z</time>
   </trkpt>
   <trkpt lat="-3.1698240" lon="37.2827840">
    <ele>1840.4</ele>
    <time>2026-06-20T11:12:38Z</time>
   </trkpt>
   <trkpt lat="-3.1698160" lon="37.2827860">
    <ele>1840.5</ele>
    <time>2026-06-20T11:12:39Z</time>
   </trkpt>
   <trkpt lat="-3.1698080" lon="37.2827840">
    <ele>1840.5</ele>
    <time>2026-06-20T11:12:40Z</time>
   </trkpt>
   <trkpt lat="-3.1697960" lon="37.2827850">
    <ele>1840.6</ele>
    <time>2026-06-20T11:12:41Z</time>
   </trkpt>
   <trkpt lat="-3.1697840" lon="37.2827810">
    <ele>1840.7</ele>
    <time>2026-06-20T11:12:42Z</time>
   </trkpt>
   <trkpt lat="-3.1697710" lon="37.2827830">
    <ele>1840.8</ele>
    <time>2026-06-20T11:12:43Z</time>
   </trkpt>
   <trkpt lat="-3.1697630" lon="37.2827820">
    <ele>1840.9</ele>
    <time>2026-06-20T11:12:44Z</time>
   </trkpt>
   <trkpt lat="-3.1697550" lon="37.2827780">
    <ele>1840.9</ele>
    <time>2026-06-20T11:12:45Z</time>
   </trkpt>
   <trkpt lat="-3.1697470" lon="37.2827810">
    <ele>1841.0</ele>
    <time>2026-06-20T11:12:46Z</time>
   </trkpt>
   <trkpt lat="-3.1697360" lon="37.2827810">
    <ele>1841.1</ele>
    <time>2026-06-20T11:12:47Z</time>
   </trkpt>
   <trkpt lat="-3.1697410" lon="37.2827870">
    <ele>1841.1</ele>
    <time>2026-06-20T11:12:48Z</time>
   </trkpt>
   <trkpt lat="-3.1697420" lon="37.2827880">
    <ele>1841.1</ele>
    <time>2026-06-20T11:12:49Z</time>
   </trkpt>
   <trkpt lat="-3.1697280" lon="37.2828050">
    <ele>1841.3</ele>
    <time>2026-06-20T11:12:50Z</time>
   </trkpt>
   <trkpt lat="-3.1697310" lon="37.2827980">
    <ele>1841.3</ele>
    <time>2026-06-20T11:12:51Z</time>
   </trkpt>
   <trkpt lat="-3.1697230" lon="37.2828000">
    <ele>1841.4</ele>
    <time>2026-06-20T11:12:52Z</time>
   </trkpt>
   <trkpt lat="-3.1697150" lon="37.2827960">
    <ele>1841.4</ele>
    <time>2026-06-20T11:12:53Z</time>
   </trkpt>
   <trkpt lat="-3.1697080" lon="37.2827910">
    <ele>1841.5</ele>
    <time>2026-06-20T11:12:54Z</time>
   </trkpt>
   <trkpt lat="-3.1697000" lon="37.2827880">
    <ele>1841.5</ele>
    <time>2026-06-20T11:12:55Z</time>
   </trkpt>
   <trkpt lat="-3.1696890" lon="37.2827900">
    <ele>1841.6</ele>
    <time>2026-06-20T11:12:56Z</time>
   </trkpt>
   <trkpt lat="-3.1696700" lon="37.2827870">
    <ele>1841.7</ele>
    <time>2026-06-20T11:12:57Z</time>
   </trkpt>
   <trkpt lat="-3.1696580" lon="37.2827830">
    <ele>1841.7</ele>
    <time>2026-06-20T11:12:58Z</time>
   </trkpt>
   <trkpt lat="-3.1696500" lon="37.2827760">
    <ele>1841.8</ele>
    <time>2026-06-20T11:12:59Z</time>
   </trkpt>
   <trkpt lat="-3.1696410" lon="37.2827740">
    <ele>1841.8</ele>
    <time>2026-06-20T11:13:00Z</time>
   </trkpt>
   <trkpt lat="-3.1696310" lon="37.2827730">
    <ele>1841.9</ele>
    <time>2026-06-20T11:13:01Z</time>
   </trkpt>
   <trkpt lat="-3.1696250" lon="37.2827710">
    <ele>1841.9</ele>
    <time>2026-06-20T11:13:02Z</time>
   </trkpt>
   <trkpt lat="-3.1696170" lon="37.2827700">
    <ele>1842.0</ele>
    <time>2026-06-20T11:13:03Z</time>
   </trkpt>
   <trkpt lat="-3.1696170" lon="37.2827730">
    <ele>1842.0</ele>
    <time>2026-06-20T11:13:04Z</time>
   </trkpt>
   <trkpt lat="-3.1696080" lon="37.2827760">
    <ele>1842.0</ele>
    <time>2026-06-20T11:13:05Z</time>
   </trkpt>
   <trkpt lat="-3.1696000" lon="37.2827720">
    <ele>1842.1</ele>
    <time>2026-06-20T11:13:06Z</time>
   </trkpt>
   <trkpt lat="-3.1695910" lon="37.2827720">
    <ele>1842.1</ele>
    <time>2026-06-20T11:13:07Z</time>
   </trkpt>
   <trkpt lat="-3.1695830" lon="37.2827690">
    <ele>1842.2</ele>
    <time>2026-06-20T11:13:08Z</time>
   </trkpt>
   <trkpt lat="-3.1695730" lon="37.2827640">
    <ele>1842.2</ele>
    <time>2026-06-20T11:13:09Z</time>
   </trkpt>
   <trkpt lat="-3.1695650" lon="37.2827650">
    <ele>1842.3</ele>
    <time>2026-06-20T11:13:10Z</time>
   </trkpt>
   <trkpt lat="-3.1695560" lon="37.2827660">
    <ele>1842.3</ele>
    <time>2026-06-20T11:13:11Z</time>
   </trkpt>
   <trkpt lat="-3.1695450" lon="37.2827630">
    <ele>1842.4</ele>
    <time>2026-06-20T11:13:12Z</time>
   </trkpt>
   <trkpt lat="-3.1695400" lon="37.2827610">
    <ele>1842.4</ele>
    <time>2026-06-20T11:13:13Z</time>
   </trkpt>
   <trkpt lat="-3.1695320" lon="37.2827630">
    <ele>1842.5</ele>
    <time>2026-06-20T11:13:14Z</time>
   </trkpt>
   <trkpt lat="-3.1695180" lon="37.2827650">
    <ele>1842.5</ele>
    <time>2026-06-20T11:13:15Z</time>
   </trkpt>
   <trkpt lat="-3.1695140" lon="37.2827630">
    <ele>1842.6</ele>
    <time>2026-06-20T11:13:16Z</time>
   </trkpt>
   <trkpt lat="-3.1695070" lon="37.2827650">
    <ele>1842.6</ele>
    <time>2026-06-20T11:13:17Z</time>
   </trkpt>
   <trkpt lat="-3.1694950" lon="37.2827670">
    <ele>1842.7</ele>
    <time>2026-06-20T11:13:18Z</time>
   </trkpt>
   <trkpt lat="-3.1694860" lon="37.2827660">
    <ele>1842.7</ele>
    <time>2026-06-20T11:13:19Z</time>
   </trkpt>
   <trkpt lat="-3.1694740" lon="37.2827680">
    <ele>1842.8</ele>
    <time>2026-06-20T11:13:20Z</time>
   </trkpt>
   <trkpt lat="-3.1694700" lon="37.2827660">
    <ele>1842.8</ele>
    <time>2026-06-20T11:13:21Z</time>
   </trkpt>
   <trkpt lat="-3.1694630" lon="37.2827650">
    <ele>1842.9</ele>
    <time>2026-06-20T11:13:22Z</time>
   </trkpt>
   <trkpt lat="-3.1694510" lon="37.2827660">
    <ele>1843.0</ele>
    <time>2026-06-20T11:13:23Z</time>
   </trkpt>
   <trkpt lat="-3.1694430" lon="37.2827640">
    <ele>1843.0</ele>
    <time>2026-06-20T11:13:24Z</time>
   </trkpt>
   <trkpt lat="-3.1694350" lon="37.2827620">
    <ele>1843.1</ele>
    <time>2026-06-20T11:13:25Z</time>
   </trkpt>
   <trkpt lat="-3.1694270" lon="37.2827600">
    <ele>1843.1</ele>
    <time>2026-06-20T11:13:27Z</time>
   </trkpt>
   <trkpt lat="-3.1694220" lon="37.2827590">
    <ele>1843.2</ele>
    <time>2026-06-20T11:13:28Z</time>
   </trkpt>
   <trkpt lat="-3.1694180" lon="37.2827570">
    <ele>1843.2</ele>
    <time>2026-06-20T11:13:29Z</time>
   </trkpt>
   <trkpt lat="-3.1694110" lon="37.2827520">
    <ele>1843.2</ele>
    <time>2026-06-20T11:13:30Z</time>
   </trkpt>
   <trkpt lat="-3.1694040" lon="37.2827550">
    <ele>1843.3</ele>
    <time>2026-06-20T11:13:31Z</time>
   </trkpt>
   <trkpt lat="-3.1693940" lon="37.2827500">
    <ele>1843.4</ele>
    <time>2026-06-20T11:13:32Z</time>
   </trkpt>
   <trkpt lat="-3.1693900" lon="37.2827490">
    <ele>1843.4</ele>
    <time>2026-06-20T11:13:33Z</time>
   </trkpt>
   <trkpt lat="-3.1693840" lon="37.2827490">
    <ele>1843.4</ele>
    <time>2026-06-20T11:13:34Z</time>
   </trkpt>
   <trkpt lat="-3.1693770" lon="37.2827460">
    <ele>1843.5</ele>
    <time>2026-06-20T11:13:35Z</time>
   </trkpt>
   <trkpt lat="-3.1693710" lon="37.2827450">
    <ele>1843.5</ele>
    <time>2026-06-20T11:13:36Z</time>
   </trkpt>
   <trkpt lat="-3.1693580" lon="37.2827440">
    <ele>1843.6</ele>
    <time>2026-06-20T11:13:37Z</time>
   </trkpt>
   <trkpt lat="-3.1693500" lon="37.2827440">
    <ele>1843.7</ele>
    <time>2026-06-20T11:13:38Z</time>
   </trkpt>
   <trkpt lat="-3.1693430" lon="37.2827460">
    <ele>1843.7</ele>
    <time>2026-06-20T11:13:39Z</time>
   </trkpt>
   <trkpt lat="-3.1693380" lon="37.2827440">
    <ele>1843.8</ele>
    <time>2026-06-20T11:13:40Z</time>
   </trkpt>
   <trkpt lat="-3.1693270" lon="37.2827470">
    <ele>1843.9</ele>
    <time>2026-06-20T11:13:41Z</time>
   </trkpt>
   <trkpt lat="-3.1693160" lon="37.2827520">
    <ele>1843.9</ele>
    <time>2026-06-20T11:13:42Z</time>
   </trkpt>
   <trkpt lat="-3.1693110" lon="37.2827520">
    <ele>1844.0</ele>
    <time>2026-06-20T11:13:43Z</time>
   </trkpt>
   <trkpt lat="-3.1693010" lon="37.2827550">
    <ele>1844.1</ele>
    <time>2026-06-20T11:13:44Z</time>
   </trkpt>
   <trkpt lat="-3.1692890" lon="37.2827490">
    <ele>1844.2</ele>
    <time>2026-06-20T11:13:45Z</time>
   </trkpt>
   <trkpt lat="-3.1692880" lon="37.2827500">
    <ele>1844.2</ele>
    <time>2026-06-20T11:13:46Z</time>
   </trkpt>
   <trkpt lat="-3.1692740" lon="37.2827570">
    <ele>1844.3</ele>
    <time>2026-06-20T11:13:47Z</time>
   </trkpt>
   <trkpt lat="-3.1692660" lon="37.2827550">
    <ele>1844.4</ele>
    <time>2026-06-20T11:13:48Z</time>
   </trkpt>
   <trkpt lat="-3.1692600" lon="37.2827610">
    <ele>1844.4</ele>
    <time>2026-06-20T11:13:49Z</time>
   </trkpt>
   <trkpt lat="-3.1692590" lon="37.2827560">
    <ele>1844.5</ele>
    <time>2026-06-20T11:13:50Z</time>
   </trkpt>
   <trkpt lat="-3.1692510" lon="37.2827580">
    <ele>1844.5</ele>
    <time>2026-06-20T11:13:51Z</time>
   </trkpt>
   <trkpt lat="-3.1692440" lon="37.2827580">
    <ele>1844.6</ele>
    <time>2026-06-20T11:13:52Z</time>
   </trkpt>
   <trkpt lat="-3.1692520" lon="37.2827510">
    <ele>1844.7</ele>
    <time>2026-06-20T11:13:53Z</time>
   </trkpt>
   <trkpt lat="-3.1692340" lon="37.2827480">
    <ele>1844.8</ele>
    <time>2026-06-20T11:13:54Z</time>
   </trkpt>
   <trkpt lat="-3.1692300" lon="37.2827520">
    <ele>1844.9</ele>
    <time>2026-06-20T11:13:55Z</time>
   </trkpt>
   <trkpt lat="-3.1692230" lon="37.2827550">
    <ele>1844.9</ele>
    <time>2026-06-20T11:13:56Z</time>
   </trkpt>
   <trkpt lat="-3.1692140" lon="37.2827520">
    <ele>1845.0</ele>
    <time>2026-06-20T11:13:57Z</time>
   </trkpt>
   <trkpt lat="-3.1692130" lon="37.2827540">
    <ele>1845.0</ele>
    <time>2026-06-20T11:13:58Z</time>
   </trkpt>
   <trkpt lat="-3.1692060" lon="37.2827560">
    <ele>1845.1</ele>
    <time>2026-06-20T11:13:59Z</time>
   </trkpt>
   <trkpt lat="-3.1692020" lon="37.2827590">
    <ele>1845.1</ele>
    <time>2026-06-20T11:14:00Z</time>
   </trkpt>
   <trkpt lat="-3.1691940" lon="37.2827500">
    <ele>1845.2</ele>
    <time>2026-06-20T11:14:01Z</time>
   </trkpt>
   <trkpt lat="-3.1691890" lon="37.2827560">
    <ele>1845.3</ele>
    <time>2026-06-20T11:14:02Z</time>
   </trkpt>
   <trkpt lat="-3.1691820" lon="37.2827610">
    <ele>1845.4</ele>
    <time>2026-06-20T11:14:03Z</time>
   </trkpt>
   <trkpt lat="-3.1691770" lon="37.2827600">
    <ele>1845.4</ele>
    <time>2026-06-20T11:14:04Z</time>
   </trkpt>
   <trkpt lat="-3.1691640" lon="37.2827620">
    <ele>1845.5</ele>
    <time>2026-06-20T11:14:05Z</time>
   </trkpt>
   <trkpt lat="-3.1691570" lon="37.2827590">
    <ele>1845.6</ele>
    <time>2026-06-20T11:14:06Z</time>
   </trkpt>
   <trkpt lat="-3.1691490" lon="37.2827540">
    <ele>1845.6</ele>
    <time>2026-06-20T11:14:07Z</time>
   </trkpt>
   <trkpt lat="-3.1691410" lon="37.2827610">
    <ele>1845.7</ele>
    <time>2026-06-20T11:14:08Z</time>
   </trkpt>
   <trkpt lat="-3.1691350" lon="37.2827650">
    <ele>1845.8</ele>
    <time>2026-06-20T11:14:09Z</time>
   </trkpt>
   <trkpt lat="-3.1691370" lon="37.2827640">
    <ele>1845.8</ele>
    <time>2026-06-20T11:14:10Z</time>
   </trkpt>
   <trkpt lat="-3.1691270" lon="37.2827630">
    <ele>1845.9</ele>
    <time>2026-06-20T11:14:11Z</time>
   </trkpt>
   <trkpt lat="-3.1691270" lon="37.2827560">
    <ele>1845.9</ele>
    <time>2026-06-20T11:14:12Z</time>
   </trkpt>
   <trkpt lat="-3.1691160" lon="37.2827540">
    <ele>1846.0</ele>
    <time>2026-06-20T11:14:13Z</time>
   </trkpt>
   <trkpt lat="-3.1691030" lon="37.2827550">
    <ele>1846.1</ele>
    <time>2026-06-20T11:14:14Z</time>
   </trkpt>
   <trkpt lat="-3.1690980" lon="37.2827580">
    <ele>1846.2</ele>
    <time>2026-06-20T11:14:15Z</time>
   </trkpt>
   <trkpt lat="-3.1690890" lon="37.2827550">
    <ele>1846.3</ele>
    <time>2026-06-20T11:14:16Z</time>
   </trkpt>
   <trkpt lat="-3.1690890" lon="37.2827560">
    <ele>1846.3</ele>
    <time>2026-06-20T11:14:17Z</time>
   </trkpt>
   <trkpt lat="-3.1690810" lon="37.2827570">
    <ele>1846.3</ele>
    <time>2026-06-20T11:14:18Z</time>
   </trkpt>
   <trkpt lat="-3.1690700" lon="37.2827580">
    <ele>1846.4</ele>
    <time>2026-06-20T11:14:19Z</time>
   </trkpt>
   <trkpt lat="-3.1690620" lon="37.2827580">
    <ele>1846.5</ele>
    <time>2026-06-20T11:14:20Z</time>
   </trkpt>
   <trkpt lat="-3.1690540" lon="37.2827580">
    <ele>1846.6</ele>
    <time>2026-06-20T11:14:21Z</time>
   </trkpt>
   <trkpt lat="-3.1690500" lon="37.2827590">
    <ele>1846.6</ele>
    <time>2026-06-20T11:14:22Z</time>
   </trkpt>
   <trkpt lat="-3.1690450" lon="37.2827600">
    <ele>1846.6</ele>
    <time>2026-06-20T11:14:23Z</time>
   </trkpt>
   <trkpt lat="-3.1690360" lon="37.2827600">
    <ele>1846.7</ele>
    <time>2026-06-20T11:14:24Z</time>
   </trkpt>
   <trkpt lat="-3.1690280" lon="37.2827590">
    <ele>1846.8</ele>
    <time>2026-06-20T11:14:25Z</time>
   </trkpt>
   <trkpt lat="-3.1690200" lon="37.2827600">
    <ele>1846.8</ele>
    <time>2026-06-20T11:14:26Z</time>
   </trkpt>
   <trkpt lat="-3.1690090" lon="37.2827620">
    <ele>1846.9</ele>
    <time>2026-06-20T11:14:27Z</time>
   </trkpt>
   <trkpt lat="-3.1690000" lon="37.2827640">
    <ele>1847.0</ele>
    <time>2026-06-20T11:14:28Z</time>
   </trkpt>
   <trkpt lat="-3.1689950" lon="37.2827650">
    <ele>1847.1</ele>
    <time>2026-06-20T11:14:29Z</time>
   </trkpt>
   <trkpt lat="-3.1689870" lon="37.2827670">
    <ele>1847.1</ele>
    <time>2026-06-20T11:14:30Z</time>
   </trkpt>
   <trkpt lat="-3.1689800" lon="37.2827650">
    <ele>1847.2</ele>
    <time>2026-06-20T11:14:31Z</time>
   </trkpt>
   <trkpt lat="-3.1689770" lon="37.2827670">
    <ele>1847.2</ele>
    <time>2026-06-20T11:14:32Z</time>
   </trkpt>
   <trkpt lat="-3.1689720" lon="37.2827650">
    <ele>1847.3</ele>
    <time>2026-06-20T11:14:33Z</time>
   </trkpt>
   <trkpt lat="-3.1689660" lon="37.2827610">
    <ele>1847.3</ele>
    <time>2026-06-20T11:14:34Z</time>
   </trkpt>
   <trkpt lat="-3.1689550" lon="37.2827640">
    <ele>1847.4</ele>
    <time>2026-06-20T11:14:35Z</time>
   </trkpt>
   <trkpt lat="-3.1689590" lon="37.2827650">
    <ele>1847.4</ele>
    <time>2026-06-20T11:14:36Z</time>
   </trkpt>
   <trkpt lat="-3.1689460" lon="37.2827660">
    <ele>1847.5</ele>
    <time>2026-06-20T11:14:37Z</time>
   </trkpt>
   <trkpt lat="-3.1689360" lon="37.2827650">
    <ele>1847.6</ele>
    <time>2026-06-20T11:14:38Z</time>
   </trkpt>
   <trkpt lat="-3.1689330" lon="37.2827600">
    <ele>1847.7</ele>
    <time>2026-06-20T11:14:39Z</time>
   </trkpt>
   <trkpt lat="-3.1689250" lon="37.2827630">
    <ele>1847.7</ele>
    <time>2026-06-20T11:14:40Z</time>
   </trkpt>
   <trkpt lat="-3.1689160" lon="37.2827590">
    <ele>1847.8</ele>
    <time>2026-06-20T11:14:41Z</time>
   </trkpt>
   <trkpt lat="-3.1689100" lon="37.2827550">
    <ele>1847.9</ele>
    <time>2026-06-20T11:14:42Z</time>
   </trkpt>
   <trkpt lat="-3.1689060" lon="37.2827550">
    <ele>1847.9</ele>
    <time>2026-06-20T11:14:43Z</time>
   </trkpt>
   <trkpt lat="-3.1688960" lon="37.2827560">
    <ele>1848.0</ele>
    <time>2026-06-20T11:14:44Z</time>
   </trkpt>
   <trkpt lat="-3.1688950" lon="37.2827560">
    <ele>1848.0</ele>
    <time>2026-06-20T11:14:45Z</time>
   </trkpt>
   <trkpt lat="-3.1688850" lon="37.2827540">
    <ele>1848.1</ele>
    <time>2026-06-20T11:14:46Z</time>
   </trkpt>
   <trkpt lat="-3.1688790" lon="37.2827570">
    <ele>1848.1</ele>
    <time>2026-06-20T11:14:47Z</time>
   </trkpt>
   <trkpt lat="-3.1688720" lon="37.2827550">
    <ele>1848.2</ele>
    <time>2026-06-20T11:14:48Z</time>
   </trkpt>
   <trkpt lat="-3.1688630" lon="37.2827590">
    <ele>1848.3</ele>
    <time>2026-06-20T11:14:49Z</time>
   </trkpt>
   <trkpt lat="-3.1688540" lon="37.2827590">
    <ele>1848.3</ele>
    <time>2026-06-20T11:14:50Z</time>
   </trkpt>
   <trkpt lat="-3.1688450" lon="37.2827590">
    <ele>1848.4</ele>
    <time>2026-06-20T11:14:51Z</time>
   </trkpt>
   <trkpt lat="-3.1688390" lon="37.2827610">
    <ele>1848.5</ele>
    <time>2026-06-20T11:14:52Z</time>
   </trkpt>
   <trkpt lat="-3.1688310" lon="37.2827630">
    <ele>1848.5</ele>
    <time>2026-06-20T11:14:53Z</time>
   </trkpt>
   <trkpt lat="-3.1688250" lon="37.2827660">
    <ele>1848.6</ele>
    <time>2026-06-20T11:14:54Z</time>
   </trkpt>
   <trkpt lat="-3.1688160" lon="37.2827690">
    <ele>1848.7</ele>
    <time>2026-06-20T11:14:55Z</time>
   </trkpt>
   <trkpt lat="-3.1688110" lon="37.2827660">
    <ele>1848.7</ele>
    <time>2026-06-20T11:14:56Z</time>
   </trkpt>
   <trkpt lat="-3.1688040" lon="37.2827660">
    <ele>1848.8</ele>
    <time>2026-06-20T11:14:57Z</time>
   </trkpt>
   <trkpt lat="-3.1688020" lon="37.2827620">
    <ele>1848.8</ele>
    <time>2026-06-20T11:14:58Z</time>
   </trkpt>
   <trkpt lat="-3.1687930" lon="37.2827620">
    <ele>1848.9</ele>
    <time>2026-06-20T11:14:59Z</time>
   </trkpt>
   <trkpt lat="-3.1687840" lon="37.2827630">
    <ele>1849.0</ele>
    <time>2026-06-20T11:15:00Z</time>
   </trkpt>
   <trkpt lat="-3.1687760" lon="37.2827630">
    <ele>1849.0</ele>
    <time>2026-06-20T11:15:01Z</time>
   </trkpt>
   <trkpt lat="-3.1687730" lon="37.2827640">
    <ele>1849.1</ele>
    <time>2026-06-20T11:15:02Z</time>
   </trkpt>
   <trkpt lat="-3.1687680" lon="37.2827660">
    <ele>1849.1</ele>
    <time>2026-06-20T11:15:03Z</time>
   </trkpt>
   <trkpt lat="-3.1687600" lon="37.2827660">
    <ele>1849.2</ele>
    <time>2026-06-20T11:15:04Z</time>
   </trkpt>
   <trkpt lat="-3.1687560" lon="37.2827670">
    <ele>1849.2</ele>
    <time>2026-06-20T11:15:05Z</time>
   </trkpt>
   <trkpt lat="-3.1687470" lon="37.2827710">
    <ele>1849.3</ele>
    <time>2026-06-20T11:15:06Z</time>
   </trkpt>
   <trkpt lat="-3.1687440" lon="37.2827690">
    <ele>1849.3</ele>
    <time>2026-06-20T11:15:07Z</time>
   </trkpt>
   <trkpt lat="-3.1687400" lon="37.2827740">
    <ele>1849.4</ele>
    <time>2026-06-20T11:15:08Z</time>
   </trkpt>
   <trkpt lat="-3.1687350" lon="37.2827750">
    <ele>1849.4</ele>
    <time>2026-06-20T11:15:09Z</time>
   </trkpt>
   <trkpt lat="-3.1687270" lon="37.2827740">
    <ele>1849.5</ele>
    <time>2026-06-20T11:15:10Z</time>
   </trkpt>
   <trkpt lat="-3.1687240" lon="37.2827740">
    <ele>1849.5</ele>
    <time>2026-06-20T11:15:11Z</time>
   </trkpt>
   <trkpt lat="-3.1687120" lon="37.2827730">
    <ele>1849.7</ele>
    <time>2026-06-20T11:15:12Z</time>
   </trkpt>
   <trkpt lat="-3.1687060" lon="37.2827750">
    <ele>1849.7</ele>
    <time>2026-06-20T11:15:13Z</time>
   </trkpt>
   <trkpt lat="-3.1687020" lon="37.2827720">
    <ele>1849.8</ele>
    <time>2026-06-20T11:15:14Z</time>
   </trkpt>
   <trkpt lat="-3.1686950" lon="37.2827760">
    <ele>1849.8</ele>
    <time>2026-06-20T11:15:15Z</time>
   </trkpt>
   <trkpt lat="-3.1686920" lon="37.2827730">
    <ele>1849.9</ele>
    <time>2026-06-20T11:15:16Z</time>
   </trkpt>
   <trkpt lat="-3.1686880" lon="37.2827730">
    <ele>1849.9</ele>
    <time>2026-06-20T11:15:17Z</time>
   </trkpt>
   <trkpt lat="-3.1686780" lon="37.2827760">
    <ele>1850.0</ele>
    <time>2026-06-20T11:15:18Z</time>
   </trkpt>
   <trkpt lat="-3.1686760" lon="37.2827760">
    <ele>1850.0</ele>
    <time>2026-06-20T11:15:19Z</time>
   </trkpt>
   <trkpt lat="-3.1686680" lon="37.2827790">
    <ele>1850.1</ele>
    <time>2026-06-20T11:15:20Z</time>
   </trkpt>
   <trkpt lat="-3.1686600" lon="37.2827810">
    <ele>1850.2</ele>
    <time>2026-06-20T11:15:21Z</time>
   </trkpt>
   <trkpt lat="-3.1686550" lon="37.2827820">
    <ele>1850.3</ele>
    <time>2026-06-20T11:15:22Z</time>
   </trkpt>
   <trkpt lat="-3.1686510" lon="37.2827850">
    <ele>1850.3</ele>
    <time>2026-06-20T11:15:23Z</time>
   </trkpt>
   <trkpt lat="-3.1686410" lon="37.2827870">
    <ele>1850.4</ele>
    <time>2026-06-20T11:15:24Z</time>
   </trkpt>
   <trkpt lat="-3.1686380" lon="37.2827870">
    <ele>1850.5</ele>
    <time>2026-06-20T11:15:25Z</time>
   </trkpt>
   <trkpt lat="-3.1686330" lon="37.2827860">
    <ele>1850.5</ele>
    <time>2026-06-20T11:15:26Z</time>
   </trkpt>
   <trkpt lat="-3.1686280" lon="37.2827880">
    <ele>1850.6</ele>
    <time>2026-06-20T11:15:27Z</time>
   </trkpt>
   <trkpt lat="-3.1686180" lon="37.2827920">
    <ele>1850.7</ele>
    <time>2026-06-20T11:15:28Z</time>
   </trkpt>
   <trkpt lat="-3.1686190" lon="37.2827980">
    <ele>1850.8</ele>
    <time>2026-06-20T11:15:29Z</time>
   </trkpt>
   <trkpt lat="-3.1686130" lon="37.2827960">
    <ele>1850.8</ele>
    <time>2026-06-20T11:15:30Z</time>
   </trkpt>
   <trkpt lat="-3.1686060" lon="37.2828000">
    <ele>1850.9</ele>
    <time>2026-06-20T11:15:31Z</time>
   </trkpt>
   <trkpt lat="-3.1686020" lon="37.2828030">
    <ele>1851.0</ele>
    <time>2026-06-20T11:15:33Z</time>
   </trkpt>
   <trkpt lat="-3.1685970" lon="37.2828050">
    <ele>1851.0</ele>
    <time>2026-06-20T11:15:34Z</time>
   </trkpt>
   <trkpt lat="-3.1685920" lon="37.2828070">
    <ele>1851.1</ele>
    <time>2026-06-20T11:15:35Z</time>
   </trkpt>
   <trkpt lat="-3.1685830" lon="37.2828100">
    <ele>1851.2</ele>
    <time>2026-06-20T11:15:36Z</time>
   </trkpt>
   <trkpt lat="-3.1685780" lon="37.2828120">
    <ele>1851.3</ele>
    <time>2026-06-20T11:15:37Z</time>
   </trkpt>
   <trkpt lat="-3.1685750" lon="37.2828150">
    <ele>1851.3</ele>
    <time>2026-06-20T11:15:38Z</time>
   </trkpt>
   <trkpt lat="-3.1685700" lon="37.2828170">
    <ele>1851.4</ele>
    <time>2026-06-20T11:15:39Z</time>
   </trkpt>
   <trkpt lat="-3.1685650" lon="37.2828190">
    <ele>1851.4</ele>
    <time>2026-06-20T11:15:40Z</time>
   </trkpt>
   <trkpt lat="-3.1685570" lon="37.2828260">
    <ele>1851.5</ele>
    <time>2026-06-20T11:15:41Z</time>
   </trkpt>
   <trkpt lat="-3.1685520" lon="37.2828340">
    <ele>1851.7</ele>
    <time>2026-06-20T11:15:42Z</time>
   </trkpt>
   <trkpt lat="-3.1685500" lon="37.2828400">
    <ele>1851.7</ele>
    <time>2026-06-20T11:15:43Z</time>
   </trkpt>
   <trkpt lat="-3.1685420" lon="37.2828440">
    <ele>1851.8</ele>
    <time>2026-06-20T11:15:44Z</time>
   </trkpt>
   <trkpt lat="-3.1685390" lon="37.2828500">
    <ele>1851.9</ele>
    <time>2026-06-20T11:15:45Z</time>
   </trkpt>
   <trkpt lat="-3.1685310" lon="37.2828560">
    <ele>1852.0</ele>
    <time>2026-06-20T11:15:46Z</time>
   </trkpt>
   <trkpt lat="-3.1685280" lon="37.2828640">
    <ele>1852.1</ele>
    <time>2026-06-20T11:15:47Z</time>
   </trkpt>
   <trkpt lat="-3.1685230" lon="37.2828700">
    <ele>1852.2</ele>
    <time>2026-06-20T11:15:48Z</time>
   </trkpt>
   <trkpt lat="-3.1685160" lon="37.2828760">
    <ele>1852.3</ele>
    <time>2026-06-20T11:15:49Z</time>
   </trkpt>
   <trkpt lat="-3.1685140" lon="37.2828820">
    <ele>1852.4</ele>
    <time>2026-06-20T11:15:50Z</time>
   </trkpt>
   <trkpt lat="-3.1685090" lon="37.2828890">
    <ele>1852.5</ele>
    <time>2026-06-20T11:15:51Z</time>
   </trkpt>
   <trkpt lat="-3.1685050" lon="37.2828990">
    <ele>1852.6</ele>
    <time>2026-06-20T11:15:52Z</time>
   </trkpt>
   <trkpt lat="-3.1685010" lon="37.2829080">
    <ele>1852.7</ele>
    <time>2026-06-20T11:15:53Z</time>
   </trkpt>
   <trkpt lat="-3.1684930" lon="37.2829110">
    <ele>1852.9</ele>
    <time>2026-06-20T11:15:54Z</time>
   </trkpt>
   <trkpt lat="-3.1684890" lon="37.2829150">
    <ele>1852.9</ele>
    <time>2026-06-20T11:15:55Z</time>
   </trkpt>
   <trkpt lat="-3.1684870" lon="37.2829190">
    <ele>1853.0</ele>
    <time>2026-06-20T11:15:56Z</time>
   </trkpt>
   <trkpt lat="-3.1684870" lon="37.2829240">
    <ele>1853.0</ele>
    <time>2026-06-20T11:15:57Z</time>
   </trkpt>
   <trkpt lat="-3.1684800" lon="37.2829340">
    <ele>1853.2</ele>
    <time>2026-06-20T11:15:58Z</time>
   </trkpt>
   <trkpt lat="-3.1684800" lon="37.2829340">
    <ele>1853.2</ele>
    <time>2026-06-20T11:15:59Z</time>
   </trkpt>
   <trkpt lat="-3.1684680" lon="37.2829390">
    <ele>1853.3</ele>
    <time>2026-06-20T11:16:00Z</time>
   </trkpt>
   <trkpt lat="-3.1684650" lon="37.2829400">
    <ele>1853.4</ele>
    <time>2026-06-20T11:16:01Z</time>
   </trkpt>
   <trkpt lat="-3.1684600" lon="37.2829430">
    <ele>1853.5</ele>
    <time>2026-06-20T11:16:02Z</time>
   </trkpt>
   <trkpt lat="-3.1684540" lon="37.2829510">
    <ele>1853.6</ele>
    <time>2026-06-20T11:16:03Z</time>
   </trkpt>
   <trkpt lat="-3.1684520" lon="37.2829540">
    <ele>1853.6</ele>
    <time>2026-06-20T11:16:04Z</time>
   </trkpt>
   <trkpt lat="-3.1684470" lon="37.2829580">
    <ele>1853.7</ele>
    <time>2026-06-20T11:16:05Z</time>
   </trkpt>
   <trkpt lat="-3.1684430" lon="37.2829660">
    <ele>1853.8</ele>
    <time>2026-06-20T11:16:06Z</time>
   </trkpt>
   <trkpt lat="-3.1684410" lon="37.2829720">
    <ele>1853.9</ele>
    <time>2026-06-20T11:16:07Z</time>
   </trkpt>
   <trkpt lat="-3.1684370" lon="37.2829770">
    <ele>1854.0</ele>
    <time>2026-06-20T11:16:08Z</time>
   </trkpt>
   <trkpt lat="-3.1684350" lon="37.2829840">
    <ele>1854.1</ele>
    <time>2026-06-20T11:16:09Z</time>
   </trkpt>
   <trkpt lat="-3.1684290" lon="37.2829900">
    <ele>1854.2</ele>
    <time>2026-06-20T11:16:10Z</time>
   </trkpt>
   <trkpt lat="-3.1684280" lon="37.2829970">
    <ele>1854.3</ele>
    <time>2026-06-20T11:16:11Z</time>
   </trkpt>
   <trkpt lat="-3.1684250" lon="37.2830020">
    <ele>1854.4</ele>
    <time>2026-06-20T11:16:12Z</time>
   </trkpt>
   <trkpt lat="-3.1684250" lon="37.2830060">
    <ele>1854.4</ele>
    <time>2026-06-20T11:16:13Z</time>
   </trkpt>
   <trkpt lat="-3.1684200" lon="37.2830150">
    <ele>1854.6</ele>
    <time>2026-06-20T11:16:14Z</time>
   </trkpt>
   <trkpt lat="-3.1684140" lon="37.2830240">
    <ele>1854.7</ele>
    <time>2026-06-20T11:16:15Z</time>
   </trkpt>
   <trkpt lat="-3.1684150" lon="37.2830300">
    <ele>1854.8</ele>
    <time>2026-06-20T11:16:16Z</time>
   </trkpt>
   <trkpt lat="-3.1684060" lon="37.2830330">
    <ele>1854.9</ele>
    <time>2026-06-20T11:16:17Z</time>
   </trkpt>
   <trkpt lat="-3.1684120" lon="37.2830390">
    <ele>1855.0</ele>
    <time>2026-06-20T11:16:18Z</time>
   </trkpt>
   <trkpt lat="-3.1683940" lon="37.2830490">
    <ele>1855.3</ele>
    <time>2026-06-20T11:16:19Z</time>
   </trkpt>
   <trkpt lat="-3.1683910" lon="37.2830530">
    <ele>1855.4</ele>
    <time>2026-06-20T11:16:20Z</time>
   </trkpt>
   <trkpt lat="-3.1683840" lon="37.2830590">
    <ele>1855.5</ele>
    <time>2026-06-20T11:16:21Z</time>
   </trkpt>
   <trkpt lat="-3.1683750" lon="37.2830640">
    <ele>1855.7</ele>
    <time>2026-06-20T11:16:22Z</time>
   </trkpt>
   <trkpt lat="-3.1683690" lon="37.2830680">
    <ele>1855.8</ele>
    <time>2026-06-20T11:16:23Z</time>
   </trkpt>
   <trkpt lat="-3.1683640" lon="37.2830680">
    <ele>1855.8</ele>
    <time>2026-06-20T11:16:24Z</time>
   </trkpt>
   <trkpt lat="-3.1683560" lon="37.2830680">
    <ele>1856.0</ele>
    <time>2026-06-20T11:16:25Z</time>
   </trkpt>
   <trkpt lat="-3.1683460" lon="37.2830740">
    <ele>1856.1</ele>
    <time>2026-06-20T11:16:26Z</time>
   </trkpt>
   <trkpt lat="-3.1683450" lon="37.2830670">
    <ele>1856.2</ele>
    <time>2026-06-20T11:16:27Z</time>
   </trkpt>
   <trkpt lat="-3.1683390" lon="37.2830680">
    <ele>1856.3</ele>
    <time>2026-06-20T11:16:28Z</time>
   </trkpt>
   <trkpt lat="-3.1683340" lon="37.2830760">
    <ele>1856.5</ele>
    <time>2026-06-20T11:16:29Z</time>
   </trkpt>
   <trkpt lat="-3.1683280" lon="37.2830780">
    <ele>1856.6</ele>
    <time>2026-06-20T11:16:30Z</time>
   </trkpt>
   <trkpt lat="-3.1683240" lon="37.2830800">
    <ele>1856.6</ele>
    <time>2026-06-20T11:16:31Z</time>
   </trkpt>
   <trkpt lat="-3.1683170" lon="37.2830870">
    <ele>1856.8</ele>
    <time>2026-06-20T11:16:32Z</time>
   </trkpt>
   <trkpt lat="-3.1683100" lon="37.2830930">
    <ele>1856.9</ele>
    <time>2026-06-20T11:16:33Z</time>
   </trkpt>
   <trkpt lat="-3.1682990" lon="37.2830980">
    <ele>1857.1</ele>
    <time>2026-06-20T11:16:34Z</time>
   </trkpt>
   <trkpt lat="-3.1682950" lon="37.2830970">
    <ele>1857.2</ele>
    <time>2026-06-20T11:16:35Z</time>
   </trkpt>
   <trkpt lat="-3.1682870" lon="37.2831010">
    <ele>1857.3</ele>
    <time>2026-06-20T11:16:36Z</time>
   </trkpt>
   <trkpt lat="-3.1682760" lon="37.2831010">
    <ele>1857.5</ele>
    <time>2026-06-20T11:16:37Z</time>
   </trkpt>
   <trkpt lat="-3.1682690" lon="37.2831000">
    <ele>1857.6</ele>
    <time>2026-06-20T11:16:38Z</time>
   </trkpt>
   <trkpt lat="-3.1682620" lon="37.2831050">
    <ele>1857.7</ele>
    <time>2026-06-20T11:16:39Z</time>
   </trkpt>
   <trkpt lat="-3.1682550" lon="37.2831090">
    <ele>1857.8</ele>
    <time>2026-06-20T11:16:40Z</time>
   </trkpt>
   <trkpt lat="-3.1682540" lon="37.2831130">
    <ele>1857.9</ele>
    <time>2026-06-20T11:16:41Z</time>
   </trkpt>
   <trkpt lat="-3.1682520" lon="37.2831150">
    <ele>1857.9</ele>
    <time>2026-06-20T11:16:42Z</time>
   </trkpt>
   <trkpt lat="-3.1682440" lon="37.2831200">
    <ele>1858.1</ele>
    <time>2026-06-20T11:16:43Z</time>
   </trkpt>
   <trkpt lat="-3.1682360" lon="37.2831180">
    <ele>1858.2</ele>
    <time>2026-06-20T11:16:44Z</time>
   </trkpt>
   <trkpt lat="-3.1682300" lon="37.2831240">
    <ele>1858.3</ele>
    <time>2026-06-20T11:16:45Z</time>
   </trkpt>
   <trkpt lat="-3.1682250" lon="37.2831290">
    <ele>1858.4</ele>
    <time>2026-06-20T11:16:46Z</time>
   </trkpt>
   <trkpt lat="-3.1682180" lon="37.2831310">
    <ele>1858.5</ele>
    <time>2026-06-20T11:16:47Z</time>
   </trkpt>
   <trkpt lat="-3.1682030" lon="37.2831290">
    <ele>1858.7</ele>
    <time>2026-06-20T11:16:48Z</time>
   </trkpt>
   <trkpt lat="-3.1682020" lon="37.2831270">
    <ele>1858.8</ele>
    <time>2026-06-20T11:16:49Z</time>
   </trkpt>
   <trkpt lat="-3.1682040" lon="37.2831280">
    <ele>1858.8</ele>
    <time>2026-06-20T11:16:50Z</time>
   </trkpt>
   <trkpt lat="-3.1682000" lon="37.2831250">
    <ele>1858.9</ele>
    <time>2026-06-20T11:16:51Z</time>
   </trkpt>
   <trkpt lat="-3.1681930" lon="37.2831300">
    <ele>1859.0</ele>
    <time>2026-06-20T11:16:52Z</time>
   </trkpt>
   <trkpt lat="-3.1681880" lon="37.2831300">
    <ele>1859.1</ele>
    <time>2026-06-20T11:16:53Z</time>
   </trkpt>
   <trkpt lat="-3.1681830" lon="37.2831290">
    <ele>1859.2</ele>
    <time>2026-06-20T11:16:54Z</time>
   </trkpt>
   <trkpt lat="-3.1681780" lon="37.2831290">
    <ele>1859.2</ele>
    <time>2026-06-20T11:16:55Z</time>
   </trkpt>
   <trkpt lat="-3.1681750" lon="37.2831290">
    <ele>1859.3</ele>
    <time>2026-06-20T11:16:56Z</time>
   </trkpt>
   <trkpt lat="-3.1681670" lon="37.2831310">
    <ele>1859.4</ele>
    <time>2026-06-20T11:16:57Z</time>
   </trkpt>
   <trkpt lat="-3.1681600" lon="37.2831290">
    <ele>1859.5</ele>
    <time>2026-06-20T11:16:58Z</time>
   </trkpt>
   <trkpt lat="-3.1681540" lon="37.2831330">
    <ele>1859.6</ele>
    <time>2026-06-20T11:16:59Z</time>
   </trkpt>
   <trkpt lat="-3.1681510" lon="37.2831290">
    <ele>1859.7</ele>
    <time>2026-06-20T11:17:00Z</time>
   </trkpt>
   <trkpt lat="-3.1681440" lon="37.2831290">
    <ele>1859.8</ele>
    <time>2026-06-20T11:17:01Z</time>
   </trkpt>
   <trkpt lat="-3.1681360" lon="37.2831280">
    <ele>1859.9</ele>
    <time>2026-06-20T11:17:02Z</time>
   </trkpt>
   <trkpt lat="-3.1681300" lon="37.2831280">
    <ele>1860.0</ele>
    <time>2026-06-20T11:17:03Z</time>
   </trkpt>
   <trkpt lat="-3.1681200" lon="37.2831300">
    <ele>1860.2</ele>
    <time>2026-06-20T11:17:04Z</time>
   </trkpt>
   <trkpt lat="-3.1681090" lon="37.2831330">
    <ele>1860.3</ele>
    <time>2026-06-20T11:17:05Z</time>
   </trkpt>
   <trkpt lat="-3.1681030" lon="37.2831310">
    <ele>1860.4</ele>
    <time>2026-06-20T11:17:06Z</time>
   </trkpt>
   <trkpt lat="-3.1680940" lon="37.2831320">
    <ele>1860.6</ele>
    <time>2026-06-20T11:17:07Z</time>
   </trkpt>
   <trkpt lat="-3.1680950" lon="37.2831320">
    <ele>1860.6</ele>
    <time>2026-06-20T11:17:08Z</time>
   </trkpt>
   <trkpt lat="-3.1680850" lon="37.2831390">
    <ele>1860.8</ele>
    <time>2026-06-20T11:17:09Z</time>
   </trkpt>
   <trkpt lat="-3.1680750" lon="37.2831430">
    <ele>1860.9</ele>
    <time>2026-06-20T11:17:10Z</time>
   </trkpt>
   <trkpt lat="-3.1680720" lon="37.2831420">
    <ele>1861.0</ele>
    <time>2026-06-20T11:17:11Z</time>
   </trkpt>
   <trkpt lat="-3.1680660" lon="37.2831460">
    <ele>1861.1</ele>
    <time>2026-06-20T11:17:12Z</time>
   </trkpt>
   <trkpt lat="-3.1680630" lon="37.2831460">
    <ele>1861.1</ele>
    <time>2026-06-20T11:17:13Z</time>
   </trkpt>
   <trkpt lat="-3.1680550" lon="37.2831490">
    <ele>1861.3</ele>
    <time>2026-06-20T11:17:14Z</time>
   </trkpt>
   <trkpt lat="-3.1680510" lon="37.2831500">
    <ele>1861.3</ele>
    <time>2026-06-20T11:17:15Z</time>
   </trkpt>
   <trkpt lat="-3.1680430" lon="37.2831520">
    <ele>1861.4</ele>
    <time>2026-06-20T11:17:16Z</time>
   </trkpt>
   <trkpt lat="-3.1680400" lon="37.2831570">
    <ele>1861.5</ele>
    <time>2026-06-20T11:17:17Z</time>
   </trkpt>
   <trkpt lat="-3.1680340" lon="37.2831570">
    <ele>1861.6</ele>
    <time>2026-06-20T11:17:18Z</time>
   </trkpt>
   <trkpt lat="-3.1680240" lon="37.2831590">
    <ele>1861.8</ele>
    <time>2026-06-20T11:17:19Z</time>
   </trkpt>
   <trkpt lat="-3.1680160" lon="37.2831610">
    <ele>1861.9</ele>
    <time>2026-06-20T11:17:20Z</time>
   </trkpt>
   <trkpt lat="-3.1680190" lon="37.2831640">
    <ele>1862.0</ele>
    <time>2026-06-20T11:17:21Z</time>
   </trkpt>
   <trkpt lat="-3.1680160" lon="37.2831640">
    <ele>1862.0</ele>
    <time>2026-06-20T11:17:22Z</time>
   </trkpt>
   <trkpt lat="-3.1680050" lon="37.2831630">
    <ele>1862.2</ele>
    <time>2026-06-20T11:17:23Z</time>
   </trkpt>
   <trkpt lat="-3.1680000" lon="37.2831590">
    <ele>1862.3</ele>
    <time>2026-06-20T11:17:24Z</time>
   </trkpt>
   <trkpt lat="-3.1680020" lon="37.2831700">
    <ele>1862.4</ele>
    <time>2026-06-20T11:17:25Z</time>
   </trkpt>
   <trkpt lat="-3.1680020" lon="37.2831690">
    <ele>1862.4</ele>
    <time>2026-06-20T11:17:26Z</time>
   </trkpt>
   <trkpt lat="-3.1680050" lon="37.2831680">
    <ele>1862.5</ele>
    <time>2026-06-20T11:17:27Z</time>
   </trkpt>
   <trkpt lat="-3.1680050" lon="37.2831680">
    <ele>1862.5</ele>
    <time>2026-06-20T11:17:28Z</time>
   </trkpt>
   <trkpt lat="-3.1680070" lon="37.2831690">
    <ele>1862.5</ele>
    <time>2026-06-20T11:17:29Z</time>
   </trkpt>
   <trkpt lat="-3.1680090" lon="37.2831740">
    <ele>1862.6</ele>
    <time>2026-06-20T11:17:30Z</time>
   </trkpt>
   <trkpt lat="-3.1680090" lon="37.2831720">
    <ele>1862.6</ele>
    <time>2026-06-20T11:17:31Z</time>
   </trkpt>
   <trkpt lat="-3.1680140" lon="37.2831800">
    <ele>1862.8</ele>
    <time>2026-06-20T11:17:32Z</time>
   </trkpt>
   <trkpt lat="-3.1680130" lon="37.2831780">
    <ele>1862.8</ele>
    <time>2026-06-20T11:17:33Z</time>
   </trkpt>
   <trkpt lat="-3.1680140" lon="37.2831780">
    <ele>1862.8</ele>
    <time>2026-06-20T11:17:34Z</time>
   </trkpt>
   <trkpt lat="-3.1680160" lon="37.2831800">
    <ele>1862.8</ele>
    <time>2026-06-20T11:17:35Z</time>
   </trkpt>
   <trkpt lat="-3.1680160" lon="37.2831840">
    <ele>1862.9</ele>
    <time>2026-06-20T11:17:36Z</time>
   </trkpt>
   <trkpt lat="-3.1680180" lon="37.2831880">
    <ele>1863.0</ele>
    <time>2026-06-20T11:17:37Z</time>
   </trkpt>
   <trkpt lat="-3.1680190" lon="37.2831920">
    <ele>1863.0</ele>
    <time>2026-06-20T11:17:39Z</time>
   </trkpt>
   <trkpt lat="-3.1680200" lon="37.2831950">
    <ele>1863.1</ele>
    <time>2026-06-20T11:17:40Z</time>
   </trkpt>
   <trkpt lat="-3.1680180" lon="37.2831960">
    <ele>1863.1</ele>
    <time>2026-06-20T11:17:41Z</time>
   </trkpt>
   <trkpt lat="-3.1680200" lon="37.2831990">
    <ele>1863.2</ele>
    <time>2026-06-20T11:17:42Z</time>
   </trkpt>
   <trkpt lat="-3.1680220" lon="37.2832060">
    <ele>1863.3</ele>
    <time>2026-06-20T11:17:43Z</time>
   </trkpt>
   <trkpt lat="-3.1680310" lon="37.2832060">
    <ele>1863.4</ele>
    <time>2026-06-20T11:17:44Z</time>
   </trkpt>
   <trkpt lat="-3.1680410" lon="37.2831990">
    <ele>1863.6</ele>
    <time>2026-06-20T11:17:45Z</time>
   </trkpt>
   <trkpt lat="-3.1680370" lon="37.2831950">
    <ele>1863.6</ele>
    <time>2026-06-20T11:17:46Z</time>
   </trkpt>
   <trkpt lat="-3.1680490" lon="37.2831880">
    <ele>1863.8</ele>
    <time>2026-06-20T11:17:47Z</time>
   </trkpt>
   <trkpt lat="-3.1680550" lon="37.2831810">
    <ele>1864.0</ele>
    <time>2026-06-20T11:17:48Z</time>
   </trkpt>
   <trkpt lat="-3.1680610" lon="37.2831750">
    <ele>1864.1</ele>
    <time>2026-06-20T11:17:49Z</time>
   </trkpt>
   <trkpt lat="-3.1680680" lon="37.2831670">
    <ele>1864.2</ele>
    <time>2026-06-20T11:17:50Z</time>
   </trkpt>
   <trkpt lat="-3.1680770" lon="37.2831640">
    <ele>1864.4</ele>
    <time>2026-06-20T11:17:51Z</time>
   </trkpt>
   <trkpt lat="-3.1680830" lon="37.2831620">
    <ele>1864.5</ele>
    <time>2026-06-20T11:17:52Z</time>
   </trkpt>
   <trkpt lat="-3.1680920" lon="37.2831590">
    <ele>1864.6</ele>
    <time>2026-06-20T11:17:53Z</time>
   </trkpt>
   <trkpt lat="-3.1680990" lon="37.2831570">
    <ele>1864.7</ele>
    <time>2026-06-20T11:17:54Z</time>
   </trkpt>
   <trkpt lat="-3.1681170" lon="37.2831530">
    <ele>1864.9</ele>
    <time>2026-06-20T11:17:55Z</time>
   </trkpt>
   <trkpt lat="-3.1681170" lon="37.2831530">
    <ele>1864.9</ele>
    <time>2026-06-20T11:17:56Z</time>
   </trkpt>
   <trkpt lat="-3.1681260" lon="37.2831580">
    <ele>1865.1</ele>
    <time>2026-06-20T11:17:57Z</time>
   </trkpt>
   <trkpt lat="-3.1681260" lon="37.2831580">
    <ele>1865.1</ele>
    <time>2026-06-20T11:17:58Z</time>
   </trkpt>
   <trkpt lat="-3.1681260" lon="37.2831580">
    <ele>1865.1</ele>
    <time>2026-06-20T11:17:59Z</time>
   </trkpt>
   <trkpt lat="-3.1681260" lon="37.2831580">
    <ele>1865.1</ele>
    <time>2026-06-20T11:18:00Z</time>
   </trkpt>
   <trkpt lat="-3.1681260" lon="37.2831580">
    <ele>1865.1</ele>
    <time>2026-06-20T11:18:01Z</time>
   </trkpt>
   <trkpt lat="-3.1681350" lon="37.2831630">
    <ele>1865.2</ele>
    <time>2026-06-20T11:18:02Z</time>
   </trkpt>
   <trkpt lat="-3.1681350" lon="37.2831630">
    <ele>1865.2</ele>
    <time>2026-06-20T11:18:03Z</time>
   </trkpt>
   <trkpt lat="-3.1681350" lon="37.2831630">
    <ele>1865.2</ele>
    <time>2026-06-20T11:18:04Z</time>
   </trkpt>
   <trkpt lat="-3.1681350" lon="37.2831630">
    <ele>1865.2</ele>
    <time>2026-06-20T11:18:05Z</time>
   </trkpt>
   <trkpt lat="-3.1681350" lon="37.2831630">
    <ele>1865.2</ele>
    <time>2026-06-20T11:18:06Z</time>
   </trkpt>
   <trkpt lat="-3.1681350" lon="37.2831630">
    <ele>1865.2</ele>
    <time>2026-06-20T11:18:07Z</time>
   </trkpt>
   <trkpt lat="-3.1681350" lon="37.2831630">
    <ele>1865.2</ele>
    <time>2026-06-20T11:18:08Z</time>
   </trkpt>
   <trkpt lat="-3.1681350" lon="37.2831630">
    <ele>1865.2</ele>
    <time>2026-06-20T11:18:09Z</time>
   </trkpt>
   <trkpt lat="-3.1681350" lon="37.2831630">
    <ele>1865.2</ele>
    <time>2026-06-20T11:18:10Z</time>
   </trkpt>
   <trkpt lat="-3.1681350" lon="37.2831630">
    <ele>1865.2</ele>
    <time>2026-06-20T11:18:11Z</time>
   </trkpt>
   <trkpt lat="-3.1681350" lon="37.2831630">
    <ele>1865.2</ele>
    <time>2026-06-20T11:18:12Z</time>
   </trkpt>
   <trkpt lat="-3.1681350" lon="37.2831630">
    <ele>1865.2</ele>
    <time>2026-06-20T11:18:13Z</time>
   </trkpt>
   <trkpt lat="-3.1681350" lon="37.2831630">
    <ele>1865.2</ele>
    <time>2026-06-20T11:18:14Z</time>
   </trkpt>
   <trkpt lat="-3.1681350" lon="37.2831630">
    <ele>1865.2</ele>
    <time>2026-06-20T11:18:15Z</time>
   </trkpt>
   <trkpt lat="-3.1681350" lon="37.2831630">
    <ele>1865.2</ele>
    <time>2026-06-20T11:18:16Z</time>
   </trkpt>
   <trkpt lat="-3.1681350" lon="37.2831630">
    <ele>1865.2</ele>
    <time>2026-06-20T11:18:17Z</time>
   </trkpt>
   <trkpt lat="-3.1681350" lon="37.2831630">
    <ele>1865.2</ele>
    <time>2026-06-20T11:18:18Z</time>
   </trkpt>
   <trkpt lat="-3.1681350" lon="37.2831630">
    <ele>1865.2</ele>
    <time>2026-06-20T11:18:19Z</time>
   </trkpt>
   <trkpt lat="-3.1681350" lon="37.2831630">
    <ele>1865.2</ele>
    <time>2026-06-20T11:18:20Z</time>
   </trkpt>
   <trkpt lat="-3.1681350" lon="37.2831630">
    <ele>1865.2</ele>
    <time>2026-06-20T11:18:21Z</time>
   </trkpt>
   <trkpt lat="-3.1681350" lon="37.2831630">
    <ele>1865.2</ele>
    <time>2026-06-20T11:18:22Z</time>
   </trkpt>
   <trkpt lat="-3.1681350" lon="37.2831630">
    <ele>1865.2</ele>
    <time>2026-06-20T11:18:23Z</time>
   </trkpt>
   <trkpt lat="-3.1681350" lon="37.2831630">
    <ele>1865.2</ele>
    <time>2026-06-20T11:18:24Z</time>
   </trkpt>
   <trkpt lat="-3.1681450" lon="37.2831680">
    <ele>1865.4</ele>
    <time>2026-06-20T11:18:25Z</time>
   </trkpt>
   <trkpt lat="-3.1681510" lon="37.2831680">
    <ele>1865.4</ele>
    <time>2026-06-20T11:18:26Z</time>
   </trkpt>
   <trkpt lat="-3.1681440" lon="37.2831460">
    <ele>1865.8</ele>
    <time>2026-06-20T11:18:27Z</time>
   </trkpt>
   <trkpt lat="-3.1681510" lon="37.2831270">
    <ele>1866.0</ele>
    <time>2026-06-20T11:18:28Z</time>
   </trkpt>
   <trkpt lat="-3.1681530" lon="37.2831390">
    <ele>1866.2</ele>
    <time>2026-06-20T11:18:29Z</time>
   </trkpt>
   <trkpt lat="-3.1681500" lon="37.2831360">
    <ele>1866.3</ele>
    <time>2026-06-20T11:18:30Z</time>
   </trkpt>
   <trkpt lat="-3.1681450" lon="37.2831320">
    <ele>1866.3</ele>
    <time>2026-06-20T11:18:31Z</time>
   </trkpt>
   <trkpt lat="-3.1681540" lon="37.2831280">
    <ele>1866.5</ele>
    <time>2026-06-20T11:18:32Z</time>
   </trkpt>
   <trkpt lat="-3.1681550" lon="37.2831220">
    <ele>1866.6</ele>
    <time>2026-06-20T11:18:33Z</time>
   </trkpt>
   <trkpt lat="-3.1681540" lon="37.2831160">
    <ele>1866.6</ele>
    <time>2026-06-20T11:18:34Z</time>
   </trkpt>
   <trkpt lat="-3.1681540" lon="37.2831140">
    <ele>1866.7</ele>
    <time>2026-06-20T11:18:35Z</time>
   </trkpt>
   <trkpt lat="-3.1681530" lon="37.2831170">
    <ele>1866.7</ele>
    <time>2026-06-20T11:18:36Z</time>
   </trkpt>
   <trkpt lat="-3.1681520" lon="37.2831200">
    <ele>1866.7</ele>
    <time>2026-06-20T11:18:37Z</time>
   </trkpt>
   <trkpt lat="-3.1681530" lon="37.2831180">
    <ele>1866.8</ele>
    <time>2026-06-20T11:18:38Z</time>
   </trkpt>
   <trkpt lat="-3.1681500" lon="37.2831180">
    <ele>1866.8</ele>
    <time>2026-06-20T11:18:39Z</time>
   </trkpt>
   <trkpt lat="-3.1681490" lon="37.2831180">
    <ele>1866.8</ele>
    <time>2026-06-20T11:18:40Z</time>
   </trkpt>
   <trkpt lat="-3.1681470" lon="37.2831170">
    <ele>1866.9</ele>
    <time>2026-06-20T11:18:41Z</time>
   </trkpt>
   <trkpt lat="-3.1681450" lon="37.2831160">
    <ele>1866.9</ele>
    <time>2026-06-20T11:18:42Z</time>
   </trkpt>
   <trkpt lat="-3.1681440" lon="37.2831150">
    <ele>1866.9</ele>
    <time>2026-06-20T11:18:43Z</time>
   </trkpt>
   <trkpt lat="-3.1681450" lon="37.2831130">
    <ele>1866.9</ele>
    <time>2026-06-20T11:18:44Z</time>
   </trkpt>
   <trkpt lat="-3.1681440" lon="37.2831110">
    <ele>1867.0</ele>
    <time>2026-06-20T11:18:45Z</time>
   </trkpt>
   <trkpt lat="-3.1681430" lon="37.2831120">
    <ele>1867.0</ele>
    <time>2026-06-20T11:18:46Z</time>
   </trkpt>
   <trkpt lat="-3.1681410" lon="37.2831110">
    <ele>1867.0</ele>
    <time>2026-06-20T11:18:47Z</time>
   </trkpt>
   <trkpt lat="-3.1681400" lon="37.2831110">
    <ele>1867.0</ele>
    <time>2026-06-20T11:18:48Z</time>
   </trkpt>
   <trkpt lat="-3.1681390" lon="37.2831090">
    <ele>1867.1</ele>
    <time>2026-06-20T11:18:49Z</time>
   </trkpt>
   <trkpt lat="-3.1681360" lon="37.2831080">
    <ele>1867.1</ele>
    <time>2026-06-20T11:18:50Z</time>
   </trkpt>
   <trkpt lat="-3.1681350" lon="37.2831080">
    <ele>1867.1</ele>
    <time>2026-06-20T11:18:51Z</time>
   </trkpt>
   <trkpt lat="-3.1681320" lon="37.2831070">
    <ele>1867.2</ele>
    <time>2026-06-20T11:18:52Z</time>
   </trkpt>
   <trkpt lat="-3.1681300" lon="37.2831080">
    <ele>1867.2</ele>
    <time>2026-06-20T11:18:53Z</time>
   </trkpt>
   <trkpt lat="-3.1681230" lon="37.2831080">
    <ele>1867.3</ele>
    <time>2026-06-20T11:18:54Z</time>
   </trkpt>
   <trkpt lat="-3.1681220" lon="37.2831050">
    <ele>1867.3</ele>
    <time>2026-06-20T11:18:55Z</time>
   </trkpt>
   <trkpt lat="-3.1681200" lon="37.2831020">
    <ele>1867.4</ele>
    <time>2026-06-20T11:18:56Z</time>
   </trkpt>
   <trkpt lat="-3.1681200" lon="37.2831020">
    <ele>1867.4</ele>
    <time>2026-06-20T11:18:57Z</time>
   </trkpt>
   <trkpt lat="-3.1681170" lon="37.2831010">
    <ele>1867.4</ele>
    <time>2026-06-20T11:18:58Z</time>
   </trkpt>
   <trkpt lat="-3.1681170" lon="37.2830950">
    <ele>1867.5</ele>
    <time>2026-06-20T11:18:59Z</time>
   </trkpt>
   <trkpt lat="-3.1681170" lon="37.2830950">
    <ele>1867.5</ele>
    <time>2026-06-20T11:19:00Z</time>
   </trkpt>
   <trkpt lat="-3.1681130" lon="37.2830930">
    <ele>1867.6</ele>
    <time>2026-06-20T11:19:01Z</time>
   </trkpt>
   <trkpt lat="-3.1681130" lon="37.2830920">
    <ele>1867.6</ele>
    <time>2026-06-20T11:19:02Z</time>
   </trkpt>
   <trkpt lat="-3.1681140" lon="37.2830880">
    <ele>1867.6</ele>
    <time>2026-06-20T11:19:03Z</time>
   </trkpt>
   <trkpt lat="-3.1681120" lon="37.2830840">
    <ele>1867.7</ele>
    <time>2026-06-20T11:19:04Z</time>
   </trkpt>
   <trkpt lat="-3.1681110" lon="37.2830830">
    <ele>1867.7</ele>
    <time>2026-06-20T11:19:05Z</time>
   </trkpt>
   <trkpt lat="-3.1681090" lon="37.2830860">
    <ele>1867.8</ele>
    <time>2026-06-20T11:19:06Z</time>
   </trkpt>
   <trkpt lat="-3.1681070" lon="37.2830850">
    <ele>1867.8</ele>
    <time>2026-06-20T11:19:07Z</time>
   </trkpt>
   <trkpt lat="-3.1681040" lon="37.2830900">
    <ele>1867.9</ele>
    <time>2026-06-20T11:19:08Z</time>
   </trkpt>
   <trkpt lat="-3.1681010" lon="37.2830940">
    <ele>1867.9</ele>
    <time>2026-06-20T11:19:09Z</time>
   </trkpt>
   <trkpt lat="-3.1680980" lon="37.2830980">
    <ele>1868.0</ele>
    <time>2026-06-20T11:19:10Z</time>
   </trkpt>
   <trkpt lat="-3.1680970" lon="37.2831000">
    <ele>1868.0</ele>
    <time>2026-06-20T11:19:11Z</time>
   </trkpt>
   <trkpt lat="-3.1680950" lon="37.2831020">
    <ele>1868.1</ele>
    <time>2026-06-20T11:19:12Z</time>
   </trkpt>
   <trkpt lat="-3.1680940" lon="37.2831020">
    <ele>1868.1</ele>
    <time>2026-06-20T11:19:13Z</time>
   </trkpt>
   <trkpt lat="-3.1680950" lon="37.2831060">
    <ele>1868.1</ele>
    <time>2026-06-20T11:19:14Z</time>
   </trkpt>
   <trkpt lat="-3.1680880" lon="37.2831100">
    <ele>1868.3</ele>
    <time>2026-06-20T11:19:15Z</time>
   </trkpt>
   <trkpt lat="-3.1680800" lon="37.2831120">
    <ele>1868.4</ele>
    <time>2026-06-20T11:19:16Z</time>
   </trkpt>
   <trkpt lat="-3.1680710" lon="37.2831170">
    <ele>1868.5</ele>
    <time>2026-06-20T11:19:17Z</time>
   </trkpt>
   <trkpt lat="-3.1680630" lon="37.2831220">
    <ele>1868.6</ele>
    <time>2026-06-20T11:19:18Z</time>
   </trkpt>
   <trkpt lat="-3.1680570" lon="37.2831240">
    <ele>1868.7</ele>
    <time>2026-06-20T11:19:19Z</time>
   </trkpt>
   <trkpt lat="-3.1680460" lon="37.2831280">
    <ele>1868.9</ele>
    <time>2026-06-20T11:19:20Z</time>
   </trkpt>
   <trkpt lat="-3.1680430" lon="37.2831310">
    <ele>1868.9</ele>
    <time>2026-06-20T11:19:21Z</time>
   </trkpt>
   <trkpt lat="-3.1680390" lon="37.2831340">
    <ele>1869.0</ele>
    <time>2026-06-20T11:19:22Z</time>
   </trkpt>
   <trkpt lat="-3.1680390" lon="37.2831380">
    <ele>1869.1</ele>
    <time>2026-06-20T11:19:23Z</time>
   </trkpt>
   <trkpt lat="-3.1680290" lon="37.2831400">
    <ele>1869.2</ele>
    <time>2026-06-20T11:19:24Z</time>
   </trkpt>
   <trkpt lat="-3.1680210" lon="37.2831420">
    <ele>1869.3</ele>
    <time>2026-06-20T11:19:25Z</time>
   </trkpt>
   <trkpt lat="-3.1680170" lon="37.2831470">
    <ele>1869.4</ele>
    <time>2026-06-20T11:19:26Z</time>
   </trkpt>
   <trkpt lat="-3.1680160" lon="37.2831510">
    <ele>1869.4</ele>
    <time>2026-06-20T11:19:27Z</time>
   </trkpt>
   <trkpt lat="-3.1680120" lon="37.2831540">
    <ele>1869.5</ele>
    <time>2026-06-20T11:19:28Z</time>
   </trkpt>
   <trkpt lat="-3.1680100" lon="37.2831560">
    <ele>1869.6</ele>
    <time>2026-06-20T11:19:29Z</time>
   </trkpt>
   <trkpt lat="-3.1680110" lon="37.2831630">
    <ele>1869.6</ele>
    <time>2026-06-20T11:19:30Z</time>
   </trkpt>
   <trkpt lat="-3.1680090" lon="37.2831630">
    <ele>1869.7</ele>
    <time>2026-06-20T11:19:31Z</time>
   </trkpt>
   <trkpt lat="-3.1680100" lon="37.2831640">
    <ele>1869.7</ele>
    <time>2026-06-20T11:19:32Z</time>
   </trkpt>
   <trkpt lat="-3.1680100" lon="37.2831640">
    <ele>1869.7</ele>
    <time>2026-06-20T11:19:33Z</time>
   </trkpt>
   <trkpt lat="-3.1680100" lon="37.2831640">
    <ele>1869.7</ele>
    <time>2026-06-20T11:19:34Z</time>
   </trkpt>
   <trkpt lat="-3.1680100" lon="37.2831640">
    <ele>1869.7</ele>
    <time>2026-06-20T11:19:35Z</time>
   </trkpt>
   <trkpt lat="-3.1680110" lon="37.2831790">
    <ele>1869.9</ele>
    <time>2026-06-20T11:19:36Z</time>
   </trkpt>
   <trkpt lat="-3.1680110" lon="37.2831790">
    <ele>1869.9</ele>
    <time>2026-06-20T11:19:37Z</time>
   </trkpt>
   <trkpt lat="-3.1680110" lon="37.2831790">
    <ele>1869.9</ele>
    <time>2026-06-20T11:19:38Z</time>
   </trkpt>
   <trkpt lat="-3.1680110" lon="37.2831790">
    <ele>1869.9</ele>
    <time>2026-06-20T11:19:39Z</time>
   </trkpt>
   <trkpt lat="-3.1680060" lon="37.2831820">
    <ele>1870.0</ele>
    <time>2026-06-20T11:19:40Z</time>
   </trkpt>
   <trkpt lat="-3.1680060" lon="37.2831820">
    <ele>1870.0</ele>
    <time>2026-06-20T11:19:41Z</time>
   </trkpt>
   <trkpt lat="-3.1680060" lon="37.2831820">
    <ele>1870.0</ele>
    <time>2026-06-20T11:19:42Z</time>
   </trkpt>
   <trkpt lat="-3.1680060" lon="37.2831820">
    <ele>1870.0</ele>
    <time>2026-06-20T11:19:43Z</time>
   </trkpt>
   <trkpt lat="-3.1680020" lon="37.2831860">
    <ele>1870.1</ele>
    <time>2026-06-20T11:19:45Z</time>
   </trkpt>
   <trkpt lat="-3.1680020" lon="37.2831870">
    <ele>1870.1</ele>
    <time>2026-06-20T11:19:46Z</time>
   </trkpt>
   <trkpt lat="-3.1680030" lon="37.2831890">
    <ele>1870.1</ele>
    <time>2026-06-20T11:19:47Z</time>
   </trkpt>
   <trkpt lat="-3.1680020" lon="37.2831890">
    <ele>1870.1</ele>
    <time>2026-06-20T11:19:48Z</time>
   </trkpt>
   <trkpt lat="-3.1680040" lon="37.2831900">
    <ele>1870.1</ele>
    <time>2026-06-20T11:19:49Z</time>
   </trkpt>
   <trkpt lat="-3.1680040" lon="37.2831890">
    <ele>1870.2</ele>
    <time>2026-06-20T11:19:50Z</time>
   </trkpt>
   <trkpt lat="-3.1680040" lon="37.2831890">
    <ele>1870.2</ele>
    <time>2026-06-20T11:19:51Z</time>
   </trkpt>
   <trkpt lat="-3.1680050" lon="37.2831910">
    <ele>1870.2</ele>
    <time>2026-06-20T11:19:52Z</time>
   </trkpt>
   <trkpt lat="-3.1680060" lon="37.2831950">
    <ele>1870.2</ele>
    <time>2026-06-20T11:19:53Z</time>
   </trkpt>
   <trkpt lat="-3.1680050" lon="37.2831960">
    <ele>1870.3</ele>
    <time>2026-06-20T11:19:54Z</time>
   </trkpt>
   <trkpt lat="-3.1680050" lon="37.2831960">
    <ele>1870.3</ele>
    <time>2026-06-20T11:19:55Z</time>
   </trkpt>
   <trkpt lat="-3.1680050" lon="37.2831960">
    <ele>1870.3</ele>
    <time>2026-06-20T11:19:56Z</time>
   </trkpt>
   <trkpt lat="-3.1680070" lon="37.2832000">
    <ele>1870.3</ele>
    <time>2026-06-20T11:19:57Z</time>
   </trkpt>
   <trkpt lat="-3.1680080" lon="37.2832000">
    <ele>1870.3</ele>
    <time>2026-06-20T11:19:58Z</time>
   </trkpt>
   <trkpt lat="-3.1680060" lon="37.2832000">
    <ele>1870.4</ele>
    <time>2026-06-20T11:19:59Z</time>
   </trkpt>
   <trkpt lat="-3.1680070" lon="37.2832010">
    <ele>1870.4</ele>
    <time>2026-06-20T11:20:00Z</time>
   </trkpt>
   <trkpt lat="-3.1680070" lon="37.2832020">
    <ele>1870.4</ele>
    <time>2026-06-20T11:20:01Z</time>
   </trkpt>
   <trkpt lat="-3.1680060" lon="37.2832010">
    <ele>1870.4</ele>
    <time>2026-06-20T11:20:02Z</time>
   </trkpt>
   <trkpt lat="-3.1680060" lon="37.2832000">
    <ele>1870.4</ele>
    <time>2026-06-20T11:20:03Z</time>
   </trkpt>
   <trkpt lat="-3.1680060" lon="37.2832000">
    <ele>1870.4</ele>
    <time>2026-06-20T11:20:04Z</time>
   </trkpt>
   <trkpt lat="-3.1680020" lon="37.2831980">
    <ele>1870.5</ele>
    <time>2026-06-20T11:20:05Z</time>
   </trkpt>
   <trkpt lat="-3.1680000" lon="37.2831960">
    <ele>1870.5</ele>
    <time>2026-06-20T11:20:06Z</time>
   </trkpt>
   <trkpt lat="-3.1680000" lon="37.2831960">
    <ele>1870.5</ele>
    <time>2026-06-20T11:20:07Z</time>
   </trkpt>
   <trkpt lat="-3.1680000" lon="37.2831960">
    <ele>1870.5</ele>
    <time>2026-06-20T11:20:08Z</time>
   </trkpt>
   <trkpt lat="-3.1680000" lon="37.2831960">
    <ele>1870.5</ele>
    <time>2026-06-20T11:20:09Z</time>
   </trkpt>
   <trkpt lat="-3.1680000" lon="37.2831960">
    <ele>1870.5</ele>
    <time>2026-06-20T11:20:10Z</time>
   </trkpt>
   <trkpt lat="-3.1680000" lon="37.2831960">
    <ele>1870.5</ele>
    <time>2026-06-20T11:20:11Z</time>
   </trkpt>
   <trkpt lat="-3.1680000" lon="37.2831960">
    <ele>1870.5</ele>
    <time>2026-06-20T11:20:12Z</time>
   </trkpt>
   <trkpt lat="-3.1680000" lon="37.2831960">
    <ele>1870.5</ele>
    <time>2026-06-20T11:20:13Z</time>
   </trkpt>
   <trkpt lat="-3.1679880" lon="37.2831930">
    <ele>1870.7</ele>
    <time>2026-06-20T11:20:14Z</time>
   </trkpt>
   <trkpt lat="-3.1679880" lon="37.2831930">
    <ele>1870.7</ele>
    <time>2026-06-20T11:20:15Z</time>
   </trkpt>
   <trkpt lat="-3.1679880" lon="37.2831930">
    <ele>1870.7</ele>
    <time>2026-06-20T11:20:16Z</time>
   </trkpt>
   <trkpt lat="-3.1679860" lon="37.2831950">
    <ele>1870.7</ele>
    <time>2026-06-20T11:20:17Z</time>
   </trkpt>
   <trkpt lat="-3.1679870" lon="37.2831960">
    <ele>1870.7</ele>
    <time>2026-06-20T11:20:18Z</time>
   </trkpt>
   <trkpt lat="-3.1679860" lon="37.2831990">
    <ele>1870.8</ele>
    <time>2026-06-20T11:20:19Z</time>
   </trkpt>
   <trkpt lat="-3.1679910" lon="37.2832070">
    <ele>1870.9</ele>
    <time>2026-06-20T11:20:20Z</time>
   </trkpt>
   <trkpt lat="-3.1679980" lon="37.2832100">
    <ele>1871.0</ele>
    <time>2026-06-20T11:20:21Z</time>
   </trkpt>
   <trkpt lat="-3.1679890" lon="37.2832080">
    <ele>1871.1</ele>
    <time>2026-06-20T11:20:22Z</time>
   </trkpt>
   <trkpt lat="-3.1679900" lon="37.2832060">
    <ele>1871.2</ele>
    <time>2026-06-20T11:20:23Z</time>
   </trkpt>
   <trkpt lat="-3.1679900" lon="37.2832060">
    <ele>1871.2</ele>
    <time>2026-06-20T11:20:24Z</time>
   </trkpt>
   <trkpt lat="-3.1679900" lon="37.2832060">
    <ele>1871.2</ele>
    <time>2026-06-20T11:20:25Z</time>
   </trkpt>
   <trkpt lat="-3.1679900" lon="37.2832060">
    <ele>1871.2</ele>
    <time>2026-06-20T11:20:26Z</time>
   </trkpt>
   <trkpt lat="-3.1679870" lon="37.2831850">
    <ele>1871.4</ele>
    <time>2026-06-20T11:20:27Z</time>
   </trkpt>
   <trkpt lat="-3.1679870" lon="37.2831800">
    <ele>1871.5</ele>
    <time>2026-06-20T11:20:28Z</time>
   </trkpt>
   <trkpt lat="-3.1679870" lon="37.2831800">
    <ele>1871.5</ele>
    <time>2026-06-20T11:20:29Z</time>
   </trkpt>
   <trkpt lat="-3.1679870" lon="37.2831800">
    <ele>1871.5</ele>
    <time>2026-06-20T11:20:30Z</time>
   </trkpt>
   <trkpt lat="-3.1679930" lon="37.2831690">
    <ele>1871.6</ele>
    <time>2026-06-20T11:20:31Z</time>
   </trkpt>
   <trkpt lat="-3.1679940" lon="37.2831670">
    <ele>1871.7</ele>
    <time>2026-06-20T11:20:32Z</time>
   </trkpt>
   <trkpt lat="-3.1679940" lon="37.2831630">
    <ele>1871.7</ele>
    <time>2026-06-20T11:20:33Z</time>
   </trkpt>
   <trkpt lat="-3.1679930" lon="37.2831600">
    <ele>1871.8</ele>
    <time>2026-06-20T11:20:34Z</time>
   </trkpt>
   <trkpt lat="-3.1679910" lon="37.2831580">
    <ele>1871.8</ele>
    <time>2026-06-20T11:20:35Z</time>
   </trkpt>
   <trkpt lat="-3.1679900" lon="37.2831570">
    <ele>1871.8</ele>
    <time>2026-06-20T11:20:36Z</time>
   </trkpt>
   <trkpt lat="-3.1679900" lon="37.2831580">
    <ele>1871.8</ele>
    <time>2026-06-20T11:20:37Z</time>
   </trkpt>
   <trkpt lat="-3.1679890" lon="37.2831550">
    <ele>1871.9</ele>
    <time>2026-06-20T11:20:38Z</time>
   </trkpt>
   <trkpt lat="-3.1679900" lon="37.2831530">
    <ele>1871.9</ele>
    <time>2026-06-20T11:20:39Z</time>
   </trkpt>
   <trkpt lat="-3.1679900" lon="37.2831520">
    <ele>1871.9</ele>
    <time>2026-06-20T11:20:40Z</time>
   </trkpt>
   <trkpt lat="-3.1679890" lon="37.2831500">
    <ele>1871.9</ele>
    <time>2026-06-20T11:20:41Z</time>
   </trkpt>
   <trkpt lat="-3.1679910" lon="37.2831500">
    <ele>1871.9</ele>
    <time>2026-06-20T11:20:42Z</time>
   </trkpt>
   <trkpt lat="-3.1679900" lon="37.2831490">
    <ele>1872.0</ele>
    <time>2026-06-20T11:20:43Z</time>
   </trkpt>
   <trkpt lat="-3.1679900" lon="37.2831490">
    <ele>1872.0</ele>
    <time>2026-06-20T11:20:44Z</time>
   </trkpt>
   <trkpt lat="-3.1679900" lon="37.2831490">
    <ele>1872.0</ele>
    <time>2026-06-20T11:20:45Z</time>
   </trkpt>
   <trkpt lat="-3.1679900" lon="37.2831490">
    <ele>1872.0</ele>
    <time>2026-06-20T11:20:46Z</time>
   </trkpt>
   <trkpt lat="-3.1679940" lon="37.2831480">
    <ele>1872.0</ele>
    <time>2026-06-20T11:20:47Z</time>
   </trkpt>
   <trkpt lat="-3.1679930" lon="37.2831460">
    <ele>1872.0</ele>
    <time>2026-06-20T11:20:48Z</time>
   </trkpt>
   <trkpt lat="-3.1679940" lon="37.2831460">
    <ele>1872.1</ele>
    <time>2026-06-20T11:20:49Z</time>
   </trkpt>
   <trkpt lat="-3.1679940" lon="37.2831450">
    <ele>1872.1</ele>
    <time>2026-06-20T11:20:50Z</time>
   </trkpt>
   <trkpt lat="-3.1679940" lon="37.2831450">
    <ele>1872.1</ele>
    <time>2026-06-20T11:20:51Z</time>
   </trkpt>
   <trkpt lat="-3.1679940" lon="37.2831450">
    <ele>1872.1</ele>
    <time>2026-06-20T11:20:52Z</time>
   </trkpt>
   <trkpt lat="-3.1679960" lon="37.2831450">
    <ele>1872.1</ele>
    <time>2026-06-20T11:20:53Z</time>
   </trkpt>
   <trkpt lat="-3.1679970" lon="37.2831450">
    <ele>1872.1</ele>
    <time>2026-06-20T11:20:54Z</time>
   </trkpt>
   <trkpt lat="-3.1679960" lon="37.2831450">
    <ele>1872.1</ele>
    <time>2026-06-20T11:20:55Z</time>
   </trkpt>
   <trkpt lat="-3.1679970" lon="37.2831440">
    <ele>1872.1</ele>
    <time>2026-06-20T11:20:56Z</time>
   </trkpt>
   <trkpt lat="-3.1679970" lon="37.2831440">
    <ele>1872.1</ele>
    <time>2026-06-20T11:20:57Z</time>
   </trkpt>
   <trkpt lat="-3.1679980" lon="37.2831440">
    <ele>1872.1</ele>
    <time>2026-06-20T11:20:58Z</time>
   </trkpt>
   <trkpt lat="-3.1679970" lon="37.2831460">
    <ele>1872.2</ele>
    <time>2026-06-20T11:20:59Z</time>
   </trkpt>
   <trkpt lat="-3.1679960" lon="37.2831460">
    <ele>1872.2</ele>
    <time>2026-06-20T11:21:00Z</time>
   </trkpt>
   <trkpt lat="-3.1679960" lon="37.2831460">
    <ele>1872.2</ele>
    <time>2026-06-20T11:21:01Z</time>
   </trkpt>
   <trkpt lat="-3.1679970" lon="37.2831470">
    <ele>1872.2</ele>
    <time>2026-06-20T11:21:02Z</time>
   </trkpt>
   <trkpt lat="-3.1679950" lon="37.2831460">
    <ele>1872.2</ele>
    <time>2026-06-20T11:21:03Z</time>
   </trkpt>
   <trkpt lat="-3.1679940" lon="37.2831470">
    <ele>1872.2</ele>
    <time>2026-06-20T11:21:04Z</time>
   </trkpt>
   <trkpt lat="-3.1679940" lon="37.2831480">
    <ele>1872.3</ele>
    <time>2026-06-20T11:21:05Z</time>
   </trkpt>
   <trkpt lat="-3.1679950" lon="37.2831480">
    <ele>1872.3</ele>
    <time>2026-06-20T11:21:06Z</time>
   </trkpt>
   <trkpt lat="-3.1679950" lon="37.2831480">
    <ele>1872.3</ele>
    <time>2026-06-20T11:21:07Z</time>
   </trkpt>
   <trkpt lat="-3.1679950" lon="37.2831490">
    <ele>1872.3</ele>
    <time>2026-06-20T11:21:08Z</time>
   </trkpt>
   <trkpt lat="-3.1679950" lon="37.2831490">
    <ele>1872.3</ele>
    <time>2026-06-20T11:21:09Z</time>
   </trkpt>
   <trkpt lat="-3.1679950" lon="37.2831490">
    <ele>1872.3</ele>
    <time>2026-06-20T11:21:10Z</time>
   </trkpt>
   <trkpt lat="-3.1679940" lon="37.2831460">
    <ele>1872.3</ele>
    <time>2026-06-20T11:21:11Z</time>
   </trkpt>
   <trkpt lat="-3.1679950" lon="37.2831450">
    <ele>1872.3</ele>
    <time>2026-06-20T11:21:12Z</time>
   </trkpt>
   <trkpt lat="-3.1679960" lon="37.2831470">
    <ele>1872.4</ele>
    <time>2026-06-20T11:21:13Z</time>
   </trkpt>
   <trkpt lat="-3.1679960" lon="37.2831470">
    <ele>1872.4</ele>
    <time>2026-06-20T11:21:14Z</time>
   </trkpt>
   <trkpt lat="-3.1679960" lon="37.2831470">
    <ele>1872.4</ele>
    <time>2026-06-20T11:21:15Z</time>
   </trkpt>
   <trkpt lat="-3.1679960" lon="37.2831470">
    <ele>1872.4</ele>
    <time>2026-06-20T11:21:16Z</time>
   </trkpt>
   <trkpt lat="-3.1679960" lon="37.2831470">
    <ele>1872.4</ele>
    <time>2026-06-20T11:21:17Z</time>
   </trkpt>
   <trkpt lat="-3.1679940" lon="37.2831450">
    <ele>1872.4</ele>
    <time>2026-06-20T11:21:18Z</time>
   </trkpt>
   <trkpt lat="-3.1679930" lon="37.2831440">
    <ele>1872.4</ele>
    <time>2026-06-20T11:21:19Z</time>
   </trkpt>
   <trkpt lat="-3.1679920" lon="37.2831430">
    <ele>1872.4</ele>
    <time>2026-06-20T11:21:20Z</time>
   </trkpt>
   <trkpt lat="-3.1679920" lon="37.2831420">
    <ele>1872.4</ele>
    <time>2026-06-20T11:21:21Z</time>
   </trkpt>
   <trkpt lat="-3.1679920" lon="37.2831420">
    <ele>1872.4</ele>
    <time>2026-06-20T11:21:22Z</time>
   </trkpt>
   <trkpt lat="-3.1679930" lon="37.2831450">
    <ele>1872.5</ele>
    <time>2026-06-20T11:21:23Z</time>
   </trkpt>
   <trkpt lat="-3.1679940" lon="37.2831460">
    <ele>1872.5</ele>
    <time>2026-06-20T11:21:24Z</time>
   </trkpt>
   <trkpt lat="-3.1679940" lon="37.2831460">
    <ele>1872.5</ele>
    <time>2026-06-20T11:21:25Z</time>
   </trkpt>
   <trkpt lat="-3.1679940" lon="37.2831460">
    <ele>1872.5</ele>
    <time>2026-06-20T11:21:26Z</time>
   </trkpt>
   <trkpt lat="-3.1679940" lon="37.2831460">
    <ele>1872.5</ele>
    <time>2026-06-20T11:21:27Z</time>
   </trkpt>
   <trkpt lat="-3.1679930" lon="37.2831500">
    <ele>1872.5</ele>
    <time>2026-06-20T11:21:28Z</time>
   </trkpt>
   <trkpt lat="-3.1679930" lon="37.2831500">
    <ele>1872.5</ele>
    <time>2026-06-20T11:21:29Z</time>
   </trkpt>
   <trkpt lat="-3.1679930" lon="37.2831500">
    <ele>1872.5</ele>
    <time>2026-06-20T11:21:30Z</time>
   </trkpt>
   <trkpt lat="-3.1679940" lon="37.2831510">
    <ele>1872.6</ele>
    <time>2026-06-20T11:21:31Z</time>
   </trkpt>
   <trkpt lat="-3.1679960" lon="37.2831570">
    <ele>1872.6</ele>
    <time>2026-06-20T11:21:32Z</time>
   </trkpt>
   <trkpt lat="-3.1679960" lon="37.2831570">
    <ele>1872.6</ele>
    <time>2026-06-20T11:21:33Z</time>
   </trkpt>
   <trkpt lat="-3.1679960" lon="37.2831570">
    <ele>1872.6</ele>
    <time>2026-06-20T11:21:34Z</time>
   </trkpt>
   <trkpt lat="-3.1679960" lon="37.2831570">
    <ele>1872.6</ele>
    <time>2026-06-20T11:21:35Z</time>
   </trkpt>
   <trkpt lat="-3.1679960" lon="37.2831570">
    <ele>1872.6</ele>
    <time>2026-06-20T11:21:36Z</time>
   </trkpt>
   <trkpt lat="-3.1679960" lon="37.2831570">
    <ele>1872.6</ele>
    <time>2026-06-20T11:21:37Z</time>
   </trkpt>
   <trkpt lat="-3.1679960" lon="37.2831570">
    <ele>1872.6</ele>
    <time>2026-06-20T11:21:38Z</time>
   </trkpt>
   <trkpt lat="-3.1679950" lon="37.2831690">
    <ele>1872.8</ele>
    <time>2026-06-20T11:21:39Z</time>
   </trkpt>
   <trkpt lat="-3.1679940" lon="37.2831720">
    <ele>1872.8</ele>
    <time>2026-06-20T11:21:40Z</time>
   </trkpt>
   <trkpt lat="-3.1679940" lon="37.2831710">
    <ele>1872.8</ele>
    <time>2026-06-20T11:21:41Z</time>
   </trkpt>
   <trkpt lat="-3.1679920" lon="37.2831720">
    <ele>1872.9</ele>
    <time>2026-06-20T11:21:42Z</time>
   </trkpt>
   <trkpt lat="-3.1679930" lon="37.2831740">
    <ele>1872.9</ele>
    <time>2026-06-20T11:21:43Z</time>
   </trkpt>
   <trkpt lat="-3.1679930" lon="37.2831760">
    <ele>1872.9</ele>
    <time>2026-06-20T11:21:44Z</time>
   </trkpt>
   <trkpt lat="-3.1679920" lon="37.2831750">
    <ele>1872.9</ele>
    <time>2026-06-20T11:21:45Z</time>
   </trkpt>
   <trkpt lat="-3.1679920" lon="37.2831750">
    <ele>1872.9</ele>
    <time>2026-06-20T11:21:46Z</time>
   </trkpt>
   <trkpt lat="-3.1679910" lon="37.2831760">
    <ele>1872.9</ele>
    <time>2026-06-20T11:21:47Z</time>
   </trkpt>
   <trkpt lat="-3.1679880" lon="37.2831760">
    <ele>1873.0</ele>
    <time>2026-06-20T11:21:48Z</time>
   </trkpt>
   <trkpt lat="-3.1679890" lon="37.2831760">
    <ele>1873.0</ele>
    <time>2026-06-20T11:21:49Z</time>
   </trkpt>
   <trkpt lat="-3.1679890" lon="37.2831760">
    <ele>1873.0</ele>
    <time>2026-06-20T11:21:50Z</time>
   </trkpt>
   <trkpt lat="-3.1679890" lon="37.2831760">
    <ele>1873.0</ele>
    <time>2026-06-20T11:21:51Z</time>
   </trkpt>
   <trkpt lat="-3.1679890" lon="37.2831760">
    <ele>1873.0</ele>
    <time>2026-06-20T11:21:52Z</time>
   </trkpt>
   <trkpt lat="-3.1679860" lon="37.2831750">
    <ele>1873.0</ele>
    <time>2026-06-20T11:21:53Z</time>
   </trkpt>
   <trkpt lat="-3.1679870" lon="37.2831750">
    <ele>1873.0</ele>
    <time>2026-06-20T11:21:54Z</time>
   </trkpt>
   <trkpt lat="-3.1679810" lon="37.2831700">
    <ele>1873.1</ele>
    <time>2026-06-20T11:21:55Z</time>
   </trkpt>
   <trkpt lat="-3.1679820" lon="37.2831730">
    <ele>1873.2</ele>
    <time>2026-06-20T11:21:56Z</time>
   </trkpt>
   <trkpt lat="-3.1679820" lon="37.2831750">
    <ele>1873.2</ele>
    <time>2026-06-20T11:21:57Z</time>
   </trkpt>
   <trkpt lat="-3.1679820" lon="37.2831730">
    <ele>1873.2</ele>
    <time>2026-06-20T11:21:58Z</time>
   </trkpt>
   <trkpt lat="-3.1679810" lon="37.2831730">
    <ele>1873.2</ele>
    <time>2026-06-20T11:21:59Z</time>
   </trkpt>
   <trkpt lat="-3.1679810" lon="37.2831730">
    <ele>1873.2</ele>
    <time>2026-06-20T11:22:00Z</time>
   </trkpt>
   <trkpt lat="-3.1679810" lon="37.2831730">
    <ele>1873.2</ele>
    <time>2026-06-20T11:22:01Z</time>
   </trkpt>
   <trkpt lat="-3.1679800" lon="37.2831720">
    <ele>1873.2</ele>
    <time>2026-06-20T11:22:02Z</time>
   </trkpt>
   <trkpt lat="-3.1679800" lon="37.2831720">
    <ele>1873.2</ele>
    <time>2026-06-20T11:22:03Z</time>
   </trkpt>
   <trkpt lat="-3.1679810" lon="37.2831680">
    <ele>1873.3</ele>
    <time>2026-06-20T11:22:04Z</time>
   </trkpt>
   <trkpt lat="-3.1679820" lon="37.2831650">
    <ele>1873.3</ele>
    <time>2026-06-20T11:22:05Z</time>
   </trkpt>
   <trkpt lat="-3.1679830" lon="37.2831660">
    <ele>1873.3</ele>
    <time>2026-06-20T11:22:06Z</time>
   </trkpt>
   <trkpt lat="-3.1679830" lon="37.2831660">
    <ele>1873.3</ele>
    <time>2026-06-20T11:22:07Z</time>
   </trkpt>
   <trkpt lat="-3.1679830" lon="37.2831660">
    <ele>1873.3</ele>
    <time>2026-06-20T11:22:08Z</time>
   </trkpt>
   <trkpt lat="-3.1679850" lon="37.2831690">
    <ele>1873.4</ele>
    <time>2026-06-20T11:22:09Z</time>
   </trkpt>
   <trkpt lat="-3.1679840" lon="37.2831690">
    <ele>1873.4</ele>
    <time>2026-06-20T11:22:10Z</time>
   </trkpt>
   <trkpt lat="-3.1679830" lon="37.2831690">
    <ele>1873.4</ele>
    <time>2026-06-20T11:22:11Z</time>
   </trkpt>
   <trkpt lat="-3.1679810" lon="37.2831690">
    <ele>1873.4</ele>
    <time>2026-06-20T11:22:12Z</time>
   </trkpt>
   <trkpt lat="-3.1679810" lon="37.2831690">
    <ele>1873.4</ele>
    <time>2026-06-20T11:22:13Z</time>
   </trkpt>
   <trkpt lat="-3.1679790" lon="37.2831700">
    <ele>1873.4</ele>
    <time>2026-06-20T11:22:14Z</time>
   </trkpt>
   <trkpt lat="-3.1679790" lon="37.2831690">
    <ele>1873.5</ele>
    <time>2026-06-20T11:22:15Z</time>
   </trkpt>
   <trkpt lat="-3.1679780" lon="37.2831700">
    <ele>1873.5</ele>
    <time>2026-06-20T11:22:16Z</time>
   </trkpt>
   <trkpt lat="-3.1679790" lon="37.2831690">
    <ele>1873.5</ele>
    <time>2026-06-20T11:22:17Z</time>
   </trkpt>
   <trkpt lat="-3.1679810" lon="37.2831700">
    <ele>1873.5</ele>
    <time>2026-06-20T11:22:18Z</time>
   </trkpt>
   <trkpt lat="-3.1679810" lon="37.2831700">
    <ele>1873.5</ele>
    <time>2026-06-20T11:22:19Z</time>
   </trkpt>
   <trkpt lat="-3.1679810" lon="37.2831700">
    <ele>1873.5</ele>
    <time>2026-06-20T11:22:20Z</time>
   </trkpt>
   <trkpt lat="-3.1679810" lon="37.2831700">
    <ele>1873.5</ele>
    <time>2026-06-20T11:22:21Z</time>
   </trkpt>
   <trkpt lat="-3.1679770" lon="37.2831710">
    <ele>1873.6</ele>
    <time>2026-06-20T11:22:22Z</time>
   </trkpt>
   <trkpt lat="-3.1679770" lon="37.2831710">
    <ele>1873.6</ele>
    <time>2026-06-20T11:22:23Z</time>
   </trkpt>
   <trkpt lat="-3.1679770" lon="37.2831710">
    <ele>1873.6</ele>
    <time>2026-06-20T11:22:24Z</time>
   </trkpt>
   <trkpt lat="-3.1679790" lon="37.2831720">
    <ele>1873.6</ele>
    <time>2026-06-20T11:22:25Z</time>
   </trkpt>
   <trkpt lat="-3.1679790" lon="37.2831720">
    <ele>1873.6</ele>
    <time>2026-06-20T11:22:26Z</time>
   </trkpt>
   <trkpt lat="-3.1679790" lon="37.2831720">
    <ele>1873.6</ele>
    <time>2026-06-20T11:22:27Z</time>
   </trkpt>
   <trkpt lat="-3.1679790" lon="37.2831720">
    <ele>1873.6</ele>
    <time>2026-06-20T11:22:28Z</time>
   </trkpt>
   <trkpt lat="-3.1679830" lon="37.2831760">
    <ele>1873.7</ele>
    <time>2026-06-20T11:22:29Z</time>
   </trkpt>
   <trkpt lat="-3.1679830" lon="37.2831770">
    <ele>1873.7</ele>
    <time>2026-06-20T11:22:30Z</time>
   </trkpt>
   <trkpt lat="-3.1679840" lon="37.2831770">
    <ele>1873.7</ele>
    <time>2026-06-20T11:22:31Z</time>
   </trkpt>
   <trkpt lat="-3.1679840" lon="37.2831770">
    <ele>1873.7</ele>
    <time>2026-06-20T11:22:32Z</time>
   </trkpt>
   <trkpt lat="-3.1679840" lon="37.2831790">
    <ele>1873.7</ele>
    <time>2026-06-20T11:22:33Z</time>
   </trkpt>
   <trkpt lat="-3.1679840" lon="37.2831790">
    <ele>1873.7</ele>
    <time>2026-06-20T11:22:34Z</time>
   </trkpt>
   <trkpt lat="-3.1679820" lon="37.2831780">
    <ele>1873.7</ele>
    <time>2026-06-20T11:22:35Z</time>
   </trkpt>
   <trkpt lat="-3.1679820" lon="37.2831780">
    <ele>1873.7</ele>
    <time>2026-06-20T11:22:36Z</time>
   </trkpt>
   <trkpt lat="-3.1679840" lon="37.2831820">
    <ele>1873.8</ele>
    <time>2026-06-20T11:22:37Z</time>
   </trkpt>
   <trkpt lat="-3.1679850" lon="37.2831850">
    <ele>1873.8</ele>
    <time>2026-06-20T11:22:38Z</time>
   </trkpt>
   <trkpt lat="-3.1679850" lon="37.2831850">
    <ele>1873.8</ele>
    <time>2026-06-20T11:22:39Z</time>
   </trkpt>
   <trkpt lat="-3.1679850" lon="37.2831850">
    <ele>1873.8</ele>
    <time>2026-06-20T11:22:40Z</time>
   </trkpt>
   <trkpt lat="-3.1679850" lon="37.2831850">
    <ele>1873.8</ele>
    <time>2026-06-20T11:22:41Z</time>
   </trkpt>
   <trkpt lat="-3.1679850" lon="37.2831850">
    <ele>1873.8</ele>
    <time>2026-06-20T11:22:42Z</time>
   </trkpt>
   <trkpt lat="-3.1679850" lon="37.2831850">
    <ele>1873.8</ele>
    <time>2026-06-20T11:22:43Z</time>
   </trkpt>
   <trkpt lat="-3.1679850" lon="37.2831850">
    <ele>1873.8</ele>
    <time>2026-06-20T11:22:44Z</time>
   </trkpt>
   <trkpt lat="-3.1679850" lon="37.2831850">
    <ele>1873.8</ele>
    <time>2026-06-20T11:22:45Z</time>
   </trkpt>
   <trkpt lat="-3.1679850" lon="37.2831850">
    <ele>1873.8</ele>
    <time>2026-06-20T11:22:46Z</time>
   </trkpt>
   <trkpt lat="-3.1679910" lon="37.2831850">
    <ele>1873.9</ele>
    <time>2026-06-20T11:22:47Z</time>
   </trkpt>
   <trkpt lat="-3.1679910" lon="37.2831850">
    <ele>1873.9</ele>
    <time>2026-06-20T11:22:48Z</time>
   </trkpt>
   <trkpt lat="-3.1679910" lon="37.2831850">
    <ele>1873.9</ele>
    <time>2026-06-20T11:22:49Z</time>
   </trkpt>
   <trkpt lat="-3.1679910" lon="37.2831850">
    <ele>1873.9</ele>
    <time>2026-06-20T11:22:50Z</time>
   </trkpt>
   <trkpt lat="-3.1679910" lon="37.2831850">
    <ele>1873.9</ele>
    <time>2026-06-20T11:22:51Z</time>
   </trkpt>
   <trkpt lat="-3.1679910" lon="37.2831850">
    <ele>1873.9</ele>
    <time>2026-06-20T11:22:52Z</time>
   </trkpt>
   <trkpt lat="-3.1679910" lon="37.2831850">
    <ele>1873.9</ele>
    <time>2026-06-20T11:22:53Z</time>
   </trkpt>
   <trkpt lat="-3.1679910" lon="37.2831850">
    <ele>1873.9</ele>
    <time>2026-06-20T11:22:54Z</time>
   </trkpt>
   <trkpt lat="-3.1679910" lon="37.2831850">
    <ele>1873.9</ele>
    <time>2026-06-20T11:22:55Z</time>
   </trkpt>
   <trkpt lat="-3.1679930" lon="37.2831910">
    <ele>1874.0</ele>
    <time>2026-06-20T11:22:56Z</time>
   </trkpt>
   <trkpt lat="-3.1679910" lon="37.2831890">
    <ele>1874.0</ele>
    <time>2026-06-20T11:22:57Z</time>
   </trkpt>
   <trkpt lat="-3.1679910" lon="37.2831910">
    <ele>1874.0</ele>
    <time>2026-06-20T11:22:58Z</time>
   </trkpt>
   <trkpt lat="-3.1679900" lon="37.2831920">
    <ele>1874.0</ele>
    <time>2026-06-20T11:22:59Z</time>
   </trkpt>
   <trkpt lat="-3.1679900" lon="37.2831920">
    <ele>1874.0</ele>
    <time>2026-06-20T11:23:00Z</time>
   </trkpt>
   <trkpt lat="-3.1679900" lon="37.2831920">
    <ele>1874.0</ele>
    <time>2026-06-20T11:23:01Z</time>
   </trkpt>
   <trkpt lat="-3.1679910" lon="37.2831940">
    <ele>1874.1</ele>
    <time>2026-06-20T11:23:02Z</time>
   </trkpt>
   <trkpt lat="-3.1679910" lon="37.2831940">
    <ele>1874.1</ele>
    <time>2026-06-20T11:23:03Z</time>
   </trkpt>
   <trkpt lat="-3.1679910" lon="37.2831940">
    <ele>1874.1</ele>
    <time>2026-06-20T11:23:04Z</time>
   </trkpt>
   <trkpt lat="-3.1679910" lon="37.2831940">
    <ele>1874.1</ele>
    <time>2026-06-20T11:23:05Z</time>
   </trkpt>
   <trkpt lat="-3.1679910" lon="37.2831940">
    <ele>1874.1</ele>
    <time>2026-06-20T11:23:06Z</time>
   </trkpt>
   <trkpt lat="-3.1679910" lon="37.2831940">
    <ele>1874.1</ele>
    <time>2026-06-20T11:23:07Z</time>
   </trkpt>
   <trkpt lat="-3.1679940" lon="37.2831940">
    <ele>1874.1</ele>
    <time>2026-06-20T11:23:08Z</time>
   </trkpt>
   <trkpt lat="-3.1679950" lon="37.2831940">
    <ele>1874.1</ele>
    <time>2026-06-20T11:23:09Z</time>
   </trkpt>
   <trkpt lat="-3.1679950" lon="37.2831940">
    <ele>1874.1</ele>
    <time>2026-06-20T11:23:10Z</time>
   </trkpt>
   <trkpt lat="-3.1679950" lon="37.2831940">
    <ele>1874.1</ele>
    <time>2026-06-20T11:23:11Z</time>
   </trkpt>
   <trkpt lat="-3.1679950" lon="37.2831940">
    <ele>1874.1</ele>
    <time>2026-06-20T11:23:12Z</time>
   </trkpt>
   <trkpt lat="-3.1679950" lon="37.2831940">
    <ele>1874.1</ele>
    <time>2026-06-20T11:23:13Z</time>
   </trkpt>
   <trkpt lat="-3.1679950" lon="37.2831940">
    <ele>1874.1</ele>
    <time>2026-06-20T11:23:14Z</time>
   </trkpt>
   <trkpt lat="-3.1679950" lon="37.2831940">
    <ele>1874.1</ele>
    <time>2026-06-20T11:23:15Z</time>
   </trkpt>
   <trkpt lat="-3.1679950" lon="37.2831940">
    <ele>1874.1</ele>
    <time>2026-06-20T11:23:16Z</time>
   </trkpt>
   <trkpt lat="-3.1679950" lon="37.2831940">
    <ele>1874.1</ele>
    <time>2026-06-20T11:23:17Z</time>
   </trkpt>
   <trkpt lat="-3.1679950" lon="37.2831940">
    <ele>1874.1</ele>
    <time>2026-06-20T11:23:18Z</time>
   </trkpt>
   <trkpt lat="-3.1679960" lon="37.2831930">
    <ele>1874.1</ele>
    <time>2026-06-20T11:23:19Z</time>
   </trkpt>
   <trkpt lat="-3.1679960" lon="37.2831910">
    <ele>1874.1</ele>
    <time>2026-06-20T11:23:20Z</time>
   </trkpt>
   <trkpt lat="-3.1679950" lon="37.2831920">
    <ele>1874.2</ele>
    <time>2026-06-20T11:23:21Z</time>
   </trkpt>
   <trkpt lat="-3.1679960" lon="37.2831900">
    <ele>1874.2</ele>
    <time>2026-06-20T11:23:22Z</time>
   </trkpt>
   <trkpt lat="-3.1679960" lon="37.2831900">
    <ele>1874.2</ele>
    <time>2026-06-20T11:23:23Z</time>
   </trkpt>
   <trkpt lat="-3.1679950" lon="37.2831870">
    <ele>1874.2</ele>
    <time>2026-06-20T11:23:24Z</time>
   </trkpt>
   <trkpt lat="-3.1679950" lon="37.2831870">
    <ele>1874.2</ele>
    <time>2026-06-20T11:23:25Z</time>
   </trkpt>
   <trkpt lat="-3.1679950" lon="37.2831870">
    <ele>1874.2</ele>
    <time>2026-06-20T11:23:26Z</time>
   </trkpt>
   <trkpt lat="-3.1679950" lon="37.2831870">
    <ele>1874.2</ele>
    <time>2026-06-20T11:23:27Z</time>
   </trkpt>
   <trkpt lat="-3.1679930" lon="37.2831830">
    <ele>1874.3</ele>
    <time>2026-06-20T11:23:28Z</time>
   </trkpt>
   <trkpt lat="-3.1679930" lon="37.2831810">
    <ele>1874.3</ele>
    <time>2026-06-20T11:23:29Z</time>
   </trkpt>
   <trkpt lat="-3.1679910" lon="37.2831770">
    <ele>1874.4</ele>
    <time>2026-06-20T11:23:30Z</time>
   </trkpt>
   <trkpt lat="-3.1679910" lon="37.2831770">
    <ele>1874.4</ele>
    <time>2026-06-20T11:23:31Z</time>
   </trkpt>
   <trkpt lat="-3.1679910" lon="37.2831780">
    <ele>1874.4</ele>
    <time>2026-06-20T11:23:32Z</time>
   </trkpt>
   <trkpt lat="-3.1679910" lon="37.2831780">
    <ele>1874.4</ele>
    <time>2026-06-20T11:23:33Z</time>
   </trkpt>
   <trkpt lat="-3.1679930" lon="37.2831760">
    <ele>1874.4</ele>
    <time>2026-06-20T11:23:34Z</time>
   </trkpt>
   <trkpt lat="-3.1679930" lon="37.2831770">
    <ele>1874.4</ele>
    <time>2026-06-20T11:23:35Z</time>
   </trkpt>
   <trkpt lat="-3.1679930" lon="37.2831770">
    <ele>1874.4</ele>
    <time>2026-06-20T11:23:36Z</time>
   </trkpt>
   <trkpt lat="-3.1679930" lon="37.2831770">
    <ele>1874.4</ele>
    <time>2026-06-20T11:23:37Z</time>
   </trkpt>
   <trkpt lat="-3.1679930" lon="37.2831770">
    <ele>1874.4</ele>
    <time>2026-06-20T11:23:38Z</time>
   </trkpt>
   <trkpt lat="-3.1679890" lon="37.2831750">
    <ele>1874.5</ele>
    <time>2026-06-20T11:23:39Z</time>
   </trkpt>
   <trkpt lat="-3.1679890" lon="37.2831760">
    <ele>1874.5</ele>
    <time>2026-06-20T11:23:40Z</time>
   </trkpt>
   <trkpt lat="-3.1679890" lon="37.2831760">
    <ele>1874.5</ele>
    <time>2026-06-20T11:23:41Z</time>
   </trkpt>
   <trkpt lat="-3.1679890" lon="37.2831760">
    <ele>1874.5</ele>
    <time>2026-06-20T11:23:42Z</time>
   </trkpt>
   <trkpt lat="-3.1679890" lon="37.2831760">
    <ele>1874.5</ele>
    <time>2026-06-20T11:23:43Z</time>
   </trkpt>
   <trkpt lat="-3.1679890" lon="37.2831760">
    <ele>1874.5</ele>
    <time>2026-06-20T11:23:44Z</time>
   </trkpt>
   <trkpt lat="-3.1679890" lon="37.2831760">
    <ele>1874.5</ele>
    <time>2026-06-20T11:23:45Z</time>
   </trkpt>
   <trkpt lat="-3.1679890" lon="37.2831760">
    <ele>1874.5</ele>
    <time>2026-06-20T11:23:46Z</time>
   </trkpt>
   <trkpt lat="-3.1679900" lon="37.2831750">
    <ele>1874.5</ele>
    <time>2026-06-20T11:23:47Z</time>
   </trkpt>
   <trkpt lat="-3.1679910" lon="37.2831750">
    <ele>1874.5</ele>
    <time>2026-06-20T11:23:48Z</time>
   </trkpt>
   <trkpt lat="-3.1679910" lon="37.2831750">
    <ele>1874.5</ele>
    <time>2026-06-20T11:23:49Z</time>
   </trkpt>
   <trkpt lat="-3.1679910" lon="37.2831800">
    <ele>1874.6</ele>
    <time>2026-06-20T11:23:50Z</time>
   </trkpt>
   <trkpt lat="-3.1679910" lon="37.2831800">
    <ele>1874.6</ele>
    <time>2026-06-20T11:23:51Z</time>
   </trkpt>
   <trkpt lat="-3.1679910" lon="37.2831800">
    <ele>1874.6</ele>
    <time>2026-06-20T11:23:52Z</time>
   </trkpt>
   <trkpt lat="-3.1679910" lon="37.2831800">
    <ele>1874.6</ele>
    <time>2026-06-20T11:23:53Z</time>
   </trkpt>
   <trkpt lat="-3.1679910" lon="37.2831800">
    <ele>1874.6</ele>
    <time>2026-06-20T11:23:54Z</time>
   </trkpt>
   <trkpt lat="-3.1679910" lon="37.2831800">
    <ele>1874.6</ele>
    <time>2026-06-20T11:23:55Z</time>
   </trkpt>
   <trkpt lat="-3.1679970" lon="37.2831830">
    <ele>1874.7</ele>
    <time>2026-06-20T11:23:56Z</time>
   </trkpt>
   <trkpt lat="-3.1679970" lon="37.2831830">
    <ele>1874.7</ele>
    <time>2026-06-20T11:23:57Z</time>
   </trkpt>
   <trkpt lat="-3.1679970" lon="37.2831830">
    <ele>1874.7</ele>
    <time>2026-06-20T11:23:58Z</time>
   </trkpt>
   <trkpt lat="-3.1679970" lon="37.2831810">
    <ele>1874.7</ele>
    <time>2026-06-20T11:23:59Z</time>
   </trkpt>
   <trkpt lat="-3.1679950" lon="37.2831830">
    <ele>1874.7</ele>
    <time>2026-06-20T11:24:00Z</time>
   </trkpt>
   <trkpt lat="-3.1679950" lon="37.2831820">
    <ele>1874.7</ele>
    <time>2026-06-20T11:24:01Z</time>
   </trkpt>
   <trkpt lat="-3.1679930" lon="37.2831790">
    <ele>1874.8</ele>
    <time>2026-06-20T11:24:02Z</time>
   </trkpt>
   <trkpt lat="-3.1679930" lon="37.2831790">
    <ele>1874.8</ele>
    <time>2026-06-20T11:24:03Z</time>
   </trkpt>
   <trkpt lat="-3.1679940" lon="37.2831800">
    <ele>1874.8</ele>
    <time>2026-06-20T11:24:04Z</time>
   </trkpt>
   <trkpt lat="-3.1679930" lon="37.2831820">
    <ele>1874.8</ele>
    <time>2026-06-20T11:24:05Z</time>
   </trkpt>
   <trkpt lat="-3.1679930" lon="37.2831820">
    <ele>1874.8</ele>
    <time>2026-06-20T11:24:06Z</time>
   </trkpt>
   <trkpt lat="-3.1679930" lon="37.2831840">
    <ele>1874.8</ele>
    <time>2026-06-20T11:24:07Z</time>
   </trkpt>
   <trkpt lat="-3.1679930" lon="37.2831840">
    <ele>1874.8</ele>
    <time>2026-06-20T11:24:08Z</time>
   </trkpt>
   <trkpt lat="-3.1679930" lon="37.2831840">
    <ele>1874.8</ele>
    <time>2026-06-20T11:24:09Z</time>
   </trkpt>
   <trkpt lat="-3.1679940" lon="37.2831880">
    <ele>1874.9</ele>
    <time>2026-06-20T11:24:10Z</time>
   </trkpt>
   <trkpt lat="-3.1679940" lon="37.2831880">
    <ele>1874.9</ele>
    <time>2026-06-20T11:24:11Z</time>
   </trkpt>
   <trkpt lat="-3.1679940" lon="37.2831880">
    <ele>1874.9</ele>
    <time>2026-06-20T11:24:12Z</time>
   </trkpt>
   <trkpt lat="-3.1679940" lon="37.2831880">
    <ele>1874.9</ele>
    <time>2026-06-20T11:24:13Z</time>
   </trkpt>
   <trkpt lat="-3.1679940" lon="37.2831920">
    <ele>1874.9</ele>
    <time>2026-06-20T11:24:14Z</time>
   </trkpt>
   <trkpt lat="-3.1679950" lon="37.2831930">
    <ele>1875.0</ele>
    <time>2026-06-20T11:24:15Z</time>
   </trkpt>
   <trkpt lat="-3.1679940" lon="37.2831940">
    <ele>1875.0</ele>
    <time>2026-06-20T11:24:16Z</time>
   </trkpt>
   <trkpt lat="-3.1679940" lon="37.2831960">
    <ele>1875.0</ele>
    <time>2026-06-20T11:24:17Z</time>
   </trkpt>
   <trkpt lat="-3.1679940" lon="37.2831960">
    <ele>1875.0</ele>
    <time>2026-06-20T11:24:18Z</time>
   </trkpt>
   <trkpt lat="-3.1679940" lon="37.2831960">
    <ele>1875.0</ele>
    <time>2026-06-20T11:24:19Z</time>
   </trkpt>
   <trkpt lat="-3.1679940" lon="37.2831960">
    <ele>1875.0</ele>
    <time>2026-06-20T11:24:20Z</time>
   </trkpt>
   <trkpt lat="-3.1679940" lon="37.2831960">
    <ele>1875.0</ele>
    <time>2026-06-20T11:24:21Z</time>
   </trkpt>
   <trkpt lat="-3.1679920" lon="37.2832020">
    <ele>1875.1</ele>
    <time>2026-06-20T11:24:22Z</time>
   </trkpt>
   <trkpt lat="-3.1679930" lon="37.2832020">
    <ele>1875.1</ele>
    <time>2026-06-20T11:24:23Z</time>
   </trkpt>
   <trkpt lat="-3.1679920" lon="37.2832020">
    <ele>1875.1</ele>
    <time>2026-06-20T11:24:24Z</time>
   </trkpt>
   <trkpt lat="-3.1679920" lon="37.2832030">
    <ele>1875.1</ele>
    <time>2026-06-20T11:24:25Z</time>
   </trkpt>
   <trkpt lat="-3.1679930" lon="37.2832030">
    <ele>1875.1</ele>
    <time>2026-06-20T11:24:26Z</time>
   </trkpt>
   <trkpt lat="-3.1679930" lon="37.2832030">
    <ele>1875.1</ele>
    <time>2026-06-20T11:24:27Z</time>
   </trkpt>
   <trkpt lat="-3.1679930" lon="37.2832030">
    <ele>1875.1</ele>
    <time>2026-06-20T11:24:28Z</time>
   </trkpt>
   <trkpt lat="-3.1679930" lon="37.2832030">
    <ele>1875.1</ele>
    <time>2026-06-20T11:24:29Z</time>
   </trkpt>
   <trkpt lat="-3.1679930" lon="37.2832030">
    <ele>1875.1</ele>
    <time>2026-06-20T11:24:30Z</time>
   </trkpt>
   <trkpt lat="-3.1679930" lon="37.2832030">
    <ele>1875.1</ele>
    <time>2026-06-20T11:24:31Z</time>
   </trkpt>
   <trkpt lat="-3.1679930" lon="37.2832030">
    <ele>1875.1</ele>
    <time>2026-06-20T11:24:32Z</time>
   </trkpt>
   <trkpt lat="-3.1679980" lon="37.2832090">
    <ele>1875.2</ele>
    <time>2026-06-20T11:24:33Z</time>
   </trkpt>
   <trkpt lat="-3.1679970" lon="37.2832100">
    <ele>1875.3</ele>
    <time>2026-06-20T11:24:34Z</time>
   </trkpt>
   <trkpt lat="-3.1679970" lon="37.2832100">
    <ele>1875.3</ele>
    <time>2026-06-20T11:24:35Z</time>
   </trkpt>
   <trkpt lat="-3.1679980" lon="37.2832110">
    <ele>1875.3</ele>
    <time>2026-06-20T11:24:36Z</time>
   </trkpt>
   <trkpt lat="-3.1679980" lon="37.2832110">
    <ele>1875.3</ele>
    <time>2026-06-20T11:24:37Z</time>
   </trkpt>
   <trkpt lat="-3.1679960" lon="37.2832120">
    <ele>1875.3</ele>
    <time>2026-06-20T11:24:38Z</time>
   </trkpt>
   <trkpt lat="-3.1679940" lon="37.2832150">
    <ele>1875.4</ele>
    <time>2026-06-20T11:24:39Z</time>
   </trkpt>
   <trkpt lat="-3.1679930" lon="37.2832180">
    <ele>1875.4</ele>
    <time>2026-06-20T11:24:40Z</time>
   </trkpt>
   <trkpt lat="-3.1679920" lon="37.2832150">
    <ele>1875.4</ele>
    <time>2026-06-20T11:24:41Z</time>
   </trkpt>
   <trkpt lat="-3.1679910" lon="37.2832200">
    <ele>1875.5</ele>
    <time>2026-06-20T11:24:42Z</time>
   </trkpt>
   <trkpt lat="-3.1679910" lon="37.2832210">
    <ele>1875.5</ele>
    <time>2026-06-20T11:24:43Z</time>
   </trkpt>
   <trkpt lat="-3.1679910" lon="37.2832210">
    <ele>1875.5</ele>
    <time>2026-06-20T11:24:44Z</time>
   </trkpt>
   <trkpt lat="-3.1679910" lon="37.2832210">
    <ele>1875.5</ele>
    <time>2026-06-20T11:24:45Z</time>
   </trkpt>
   <trkpt lat="-3.1679910" lon="37.2832210">
    <ele>1875.5</ele>
    <time>2026-06-20T11:24:46Z</time>
   </trkpt>
   <trkpt lat="-3.1679910" lon="37.2832210">
    <ele>1875.5</ele>
    <time>2026-06-20T11:24:47Z</time>
   </trkpt>
   <trkpt lat="-3.1679910" lon="37.2832210">
    <ele>1875.5</ele>
    <time>2026-06-20T11:24:48Z</time>
   </trkpt>
   <trkpt lat="-3.1679910" lon="37.2832210">
    <ele>1875.5</ele>
    <time>2026-06-20T11:24:49Z</time>
   </trkpt>
   <trkpt lat="-3.1679910" lon="37.2832210">
    <ele>1875.5</ele>
    <time>2026-06-20T11:24:50Z</time>
   </trkpt>
   <trkpt lat="-3.1679910" lon="37.2832210">
    <ele>1875.5</ele>
    <time>2026-06-20T11:24:51Z</time>
   </trkpt>
   <trkpt lat="-3.1679910" lon="37.2832210">
    <ele>1875.5</ele>
    <time>2026-06-20T11:24:52Z</time>
   </trkpt>
   <trkpt lat="-3.1679910" lon="37.2832210">
    <ele>1875.5</ele>
    <time>2026-06-20T11:24:53Z</time>
   </trkpt>
   <trkpt lat="-3.1679960" lon="37.2832260">
    <ele>1875.6</ele>
    <time>2026-06-20T11:24:54Z</time>
   </trkpt>
   <trkpt lat="-3.1679960" lon="37.2832260">
    <ele>1875.6</ele>
    <time>2026-06-20T11:24:55Z</time>
   </trkpt>
   <trkpt lat="-3.1679960" lon="37.2832280">
    <ele>1875.6</ele>
    <time>2026-06-20T11:24:56Z</time>
   </trkpt>
   <trkpt lat="-3.1679950" lon="37.2832300">
    <ele>1875.7</ele>
    <time>2026-06-20T11:24:57Z</time>
   </trkpt>
   <trkpt lat="-3.1679950" lon="37.2832310">
    <ele>1875.7</ele>
    <time>2026-06-20T11:24:58Z</time>
   </trkpt>
   <trkpt lat="-3.1679950" lon="37.2832310">
    <ele>1875.7</ele>
    <time>2026-06-20T11:24:59Z</time>
   </trkpt>
   <trkpt lat="-3.1679930" lon="37.2832330">
    <ele>1875.7</ele>
    <time>2026-06-20T11:25:00Z</time>
   </trkpt>
   <trkpt lat="-3.1679920" lon="37.2832340">
    <ele>1875.7</ele>
    <time>2026-06-20T11:25:01Z</time>
   </trkpt>
   <trkpt lat="-3.1679910" lon="37.2832350">
    <ele>1875.8</ele>
    <time>2026-06-20T11:25:02Z</time>
   </trkpt>
   <trkpt lat="-3.1679900" lon="37.2832350">
    <ele>1875.8</ele>
    <time>2026-06-20T11:25:03Z</time>
   </trkpt>
   <trkpt lat="-3.1679900" lon="37.2832340">
    <ele>1875.8</ele>
    <time>2026-06-20T11:25:04Z</time>
   </trkpt>
   <trkpt lat="-3.1679930" lon="37.2832330">
    <ele>1875.8</ele>
    <time>2026-06-20T11:25:05Z</time>
   </trkpt>
   <trkpt lat="-3.1679930" lon="37.2832320">
    <ele>1875.8</ele>
    <time>2026-06-20T11:25:06Z</time>
   </trkpt>
   <trkpt lat="-3.1679930" lon="37.2832330">
    <ele>1875.9</ele>
    <time>2026-06-20T11:25:07Z</time>
   </trkpt>
   <trkpt lat="-3.1679970" lon="37.2832370">
    <ele>1875.9</ele>
    <time>2026-06-20T11:25:08Z</time>
   </trkpt>
   <trkpt lat="-3.1679960" lon="37.2832350">
    <ele>1876.0</ele>
    <time>2026-06-20T11:25:09Z</time>
   </trkpt>
   <trkpt lat="-3.1679950" lon="37.2832380">
    <ele>1876.0</ele>
    <time>2026-06-20T11:25:10Z</time>
   </trkpt>
   <trkpt lat="-3.1679950" lon="37.2832390">
    <ele>1876.0</ele>
    <time>2026-06-20T11:25:11Z</time>
   </trkpt>
   <trkpt lat="-3.1679920" lon="37.2832430">
    <ele>1876.1</ele>
    <time>2026-06-20T11:25:12Z</time>
   </trkpt>
   <trkpt lat="-3.1679920" lon="37.2832430">
    <ele>1876.1</ele>
    <time>2026-06-20T11:25:13Z</time>
   </trkpt>
   <trkpt lat="-3.1679920" lon="37.2832430">
    <ele>1876.1</ele>
    <time>2026-06-20T11:25:14Z</time>
   </trkpt>
   <trkpt lat="-3.1679900" lon="37.2832460">
    <ele>1876.1</ele>
    <time>2026-06-20T11:25:15Z</time>
   </trkpt>
   <trkpt lat="-3.1679900" lon="37.2832460">
    <ele>1876.1</ele>
    <time>2026-06-20T11:25:16Z</time>
   </trkpt>
   <trkpt lat="-3.1679900" lon="37.2832460">
    <ele>1876.1</ele>
    <time>2026-06-20T11:25:17Z</time>
   </trkpt>
   <trkpt lat="-3.1679900" lon="37.2832460">
    <ele>1876.1</ele>
    <time>2026-06-20T11:25:18Z</time>
   </trkpt>
   <trkpt lat="-3.1679890" lon="37.2832460">
    <ele>1876.2</ele>
    <time>2026-06-20T11:25:19Z</time>
   </trkpt>
   <trkpt lat="-3.1679870" lon="37.2832430">
    <ele>1876.2</ele>
    <time>2026-06-20T11:25:20Z</time>
   </trkpt>
   <trkpt lat="-3.1679840" lon="37.2832450">
    <ele>1876.3</ele>
    <time>2026-06-20T11:25:21Z</time>
   </trkpt>
   <trkpt lat="-3.1679820" lon="37.2832470">
    <ele>1876.3</ele>
    <time>2026-06-20T11:25:22Z</time>
   </trkpt>
   <trkpt lat="-3.1679800" lon="37.2832470">
    <ele>1876.3</ele>
    <time>2026-06-20T11:25:23Z</time>
   </trkpt>
   <trkpt lat="-3.1679770" lon="37.2832490">
    <ele>1876.4</ele>
    <time>2026-06-20T11:25:24Z</time>
   </trkpt>
   <trkpt lat="-3.1679780" lon="37.2832500">
    <ele>1876.4</ele>
    <time>2026-06-20T11:25:25Z</time>
   </trkpt>
   <trkpt lat="-3.1679720" lon="37.2832520">
    <ele>1876.5</ele>
    <time>2026-06-20T11:25:26Z</time>
   </trkpt>
   <trkpt lat="-3.1679640" lon="37.2832500">
    <ele>1876.6</ele>
    <time>2026-06-20T11:25:27Z</time>
   </trkpt>
   <trkpt lat="-3.1679640" lon="37.2832460">
    <ele>1876.7</ele>
    <time>2026-06-20T11:25:28Z</time>
   </trkpt>
   <trkpt lat="-3.1679610" lon="37.2832340">
    <ele>1876.8</ele>
    <time>2026-06-20T11:25:29Z</time>
   </trkpt>
   <trkpt lat="-3.1679550" lon="37.2832270">
    <ele>1877.0</ele>
    <time>2026-06-20T11:25:30Z</time>
   </trkpt>
   <trkpt lat="-3.1679460" lon="37.2832260">
    <ele>1877.1</ele>
    <time>2026-06-20T11:25:31Z</time>
   </trkpt>
   <trkpt lat="-3.1679430" lon="37.2832160">
    <ele>1877.3</ele>
    <time>2026-06-20T11:25:32Z</time>
   </trkpt>
   <trkpt lat="-3.1679410" lon="37.2832100">
    <ele>1877.4</ele>
    <time>2026-06-20T11:25:33Z</time>
   </trkpt>
   <trkpt lat="-3.1679420" lon="37.2832110">
    <ele>1877.4</ele>
    <time>2026-06-20T11:25:34Z</time>
   </trkpt>
   <trkpt lat="-3.1679420" lon="37.2832110">
    <ele>1877.4</ele>
    <time>2026-06-20T11:25:35Z</time>
   </trkpt>
   <trkpt lat="-3.1679380" lon="37.2831890">
    <ele>1877.7</ele>
    <time>2026-06-20T11:25:36Z</time>
   </trkpt>
   <trkpt lat="-3.1679350" lon="37.2831840">
    <ele>1877.8</ele>
    <time>2026-06-20T11:25:37Z</time>
   </trkpt>
   <trkpt lat="-3.1679270" lon="37.2831800">
    <ele>1878.0</ele>
    <time>2026-06-20T11:25:38Z</time>
   </trkpt>
   <trkpt lat="-3.1679240" lon="37.2831840">
    <ele>1878.1</ele>
    <time>2026-06-20T11:25:39Z</time>
   </trkpt>
   <trkpt lat="-3.1679160" lon="37.2831870">
    <ele>1878.2</ele>
    <time>2026-06-20T11:25:40Z</time>
   </trkpt>
   <trkpt lat="-3.1679110" lon="37.2831920">
    <ele>1878.3</ele>
    <time>2026-06-20T11:25:41Z</time>
   </trkpt>
   <trkpt lat="-3.1679060" lon="37.2831920">
    <ele>1878.4</ele>
    <time>2026-06-20T11:25:42Z</time>
   </trkpt>
   <trkpt lat="-3.1678980" lon="37.2831890">
    <ele>1878.5</ele>
    <time>2026-06-20T11:25:43Z</time>
   </trkpt>
   <trkpt lat="-3.1678930" lon="37.2831880">
    <ele>1878.6</ele>
    <time>2026-06-20T11:25:44Z</time>
   </trkpt>
   <trkpt lat="-3.1678820" lon="37.2831870">
    <ele>1878.8</ele>
    <time>2026-06-20T11:25:45Z</time>
   </trkpt>
   <trkpt lat="-3.1678770" lon="37.2831900">
    <ele>1878.9</ele>
    <time>2026-06-20T11:25:46Z</time>
   </trkpt>
   <trkpt lat="-3.1678730" lon="37.2831960">
    <ele>1879.0</ele>
    <time>2026-06-20T11:25:47Z</time>
   </trkpt>
   <trkpt lat="-3.1678670" lon="37.2832020">
    <ele>1879.1</ele>
    <time>2026-06-20T11:25:48Z</time>
   </trkpt>
   <trkpt lat="-3.1678720" lon="37.2831980">
    <ele>1879.2</ele>
    <time>2026-06-20T11:25:49Z</time>
   </trkpt>
   <trkpt lat="-3.1678710" lon="37.2831900">
    <ele>1879.3</ele>
    <time>2026-06-20T11:25:50Z</time>
   </trkpt>
   <trkpt lat="-3.1678690" lon="37.2831860">
    <ele>1879.4</ele>
    <time>2026-06-20T11:25:51Z</time>
   </trkpt>
   <trkpt lat="-3.1678730" lon="37.2831800">
    <ele>1879.5</ele>
    <time>2026-06-20T11:25:52Z</time>
   </trkpt>
   <trkpt lat="-3.1678730" lon="37.2831790">
    <ele>1879.5</ele>
    <time>2026-06-20T11:25:53Z</time>
   </trkpt>
   <trkpt lat="-3.1678700" lon="37.2831750">
    <ele>1879.6</ele>
    <time>2026-06-20T11:25:54Z</time>
   </trkpt>
   <trkpt lat="-3.1678700" lon="37.2831730">
    <ele>1879.6</ele>
    <time>2026-06-20T11:25:55Z</time>
   </trkpt>
   <trkpt lat="-3.1678690" lon="37.2831720">
    <ele>1879.6</ele>
    <time>2026-06-20T11:25:56Z</time>
   </trkpt>
   <trkpt lat="-3.1678680" lon="37.2831740">
    <ele>1879.7</ele>
    <time>2026-06-20T11:25:57Z</time>
   </trkpt>
   <trkpt lat="-3.1678650" lon="37.2831730">
    <ele>1879.7</ele>
    <time>2026-06-20T11:25:58Z</time>
   </trkpt>
   <trkpt lat="-3.1678630" lon="37.2831760">
    <ele>1879.8</ele>
    <time>2026-06-20T11:25:59Z</time>
   </trkpt>
   <trkpt lat="-3.1678600" lon="37.2831800">
    <ele>1879.8</ele>
    <time>2026-06-20T11:26:00Z</time>
   </trkpt>
   <trkpt lat="-3.1678570" lon="37.2831810">
    <ele>1879.9</ele>
    <time>2026-06-20T11:26:01Z</time>
   </trkpt>
   <trkpt lat="-3.1678560" lon="37.2831830">
    <ele>1879.9</ele>
    <time>2026-06-20T11:26:02Z</time>
   </trkpt>
   <trkpt lat="-3.1678480" lon="37.2831900">
    <ele>1880.1</ele>
    <time>2026-06-20T11:26:03Z</time>
   </trkpt>
   <trkpt lat="-3.1678460" lon="37.2831920">
    <ele>1880.1</ele>
    <time>2026-06-20T11:26:04Z</time>
   </trkpt>
   <trkpt lat="-3.1678430" lon="37.2831920">
    <ele>1880.2</ele>
    <time>2026-06-20T11:26:05Z</time>
   </trkpt>
   <trkpt lat="-3.1678420" lon="37.2831950">
    <ele>1880.2</ele>
    <time>2026-06-20T11:26:06Z</time>
   </trkpt>
   <trkpt lat="-3.1678400" lon="37.2831930">
    <ele>1880.3</ele>
    <time>2026-06-20T11:26:07Z</time>
   </trkpt>
   <trkpt lat="-3.1678330" lon="37.2831980">
    <ele>1880.4</ele>
    <time>2026-06-20T11:26:08Z</time>
   </trkpt>
   <trkpt lat="-3.1678300" lon="37.2832100">
    <ele>1880.6</ele>
    <time>2026-06-20T11:26:09Z</time>
   </trkpt>
   <trkpt lat="-3.1678230" lon="37.2832170">
    <ele>1880.7</ele>
    <time>2026-06-20T11:26:10Z</time>
   </trkpt>
   <trkpt lat="-3.1678170" lon="37.2832190">
    <ele>1880.8</ele>
    <time>2026-06-20T11:26:11Z</time>
   </trkpt>
   <trkpt lat="-3.1678110" lon="37.2832210">
    <ele>1880.9</ele>
    <time>2026-06-20T11:26:12Z</time>
   </trkpt>
   <trkpt lat="-3.1678090" lon="37.2832240">
    <ele>1881.0</ele>
    <time>2026-06-20T11:26:13Z</time>
   </trkpt>
   <trkpt lat="-3.1677990" lon="37.2832260">
    <ele>1881.1</ele>
    <time>2026-06-20T11:26:14Z</time>
   </trkpt>
   <trkpt lat="-3.1677950" lon="37.2832290">
    <ele>1881.2</ele>
    <time>2026-06-20T11:26:15Z</time>
   </trkpt>
   <trkpt lat="-3.1677920" lon="37.2832240">
    <ele>1881.3</ele>
    <time>2026-06-20T11:26:16Z</time>
   </trkpt>
   <trkpt lat="-3.1677840" lon="37.2832270">
    <ele>1881.4</ele>
    <time>2026-06-20T11:26:17Z</time>
   </trkpt>
   <trkpt lat="-3.1677850" lon="37.2832250">
    <ele>1881.4</ele>
    <time>2026-06-20T11:26:18Z</time>
   </trkpt>
   <trkpt lat="-3.1677830" lon="37.2832310">
    <ele>1881.5</ele>
    <time>2026-06-20T11:26:19Z</time>
   </trkpt>
   <trkpt lat="-3.1677750" lon="37.2832350">
    <ele>1881.6</ele>
    <time>2026-06-20T11:26:20Z</time>
   </trkpt>
   <trkpt lat="-3.1677660" lon="37.2832420">
    <ele>1881.8</ele>
    <time>2026-06-20T11:26:21Z</time>
   </trkpt>
   <trkpt lat="-3.1677640" lon="37.2832440">
    <ele>1881.8</ele>
    <time>2026-06-20T11:26:22Z</time>
   </trkpt>
   <trkpt lat="-3.1677590" lon="37.2832540">
    <ele>1882.0</ele>
    <time>2026-06-20T11:26:23Z</time>
   </trkpt>
   <trkpt lat="-3.1677610" lon="37.2832470">
    <ele>1882.1</ele>
    <time>2026-06-20T11:26:24Z</time>
   </trkpt>
   <trkpt lat="-3.1677540" lon="37.2832540">
    <ele>1882.2</ele>
    <time>2026-06-20T11:26:25Z</time>
   </trkpt>
   <trkpt lat="-3.1677490" lon="37.2832580">
    <ele>1882.3</ele>
    <time>2026-06-20T11:26:26Z</time>
   </trkpt>
   <trkpt lat="-3.1677470" lon="37.2832630">
    <ele>1882.4</ele>
    <time>2026-06-20T11:26:27Z</time>
   </trkpt>
   <trkpt lat="-3.1677440" lon="37.2832690">
    <ele>1882.5</ele>
    <time>2026-06-20T11:26:28Z</time>
   </trkpt>
   <trkpt lat="-3.1677360" lon="37.2832710">
    <ele>1882.6</ele>
    <time>2026-06-20T11:26:29Z</time>
   </trkpt>
   <trkpt lat="-3.1677290" lon="37.2832770">
    <ele>1882.7</ele>
    <time>2026-06-20T11:26:30Z</time>
   </trkpt>
   <trkpt lat="-3.1677210" lon="37.2832820">
    <ele>1882.8</ele>
    <time>2026-06-20T11:26:31Z</time>
   </trkpt>
   <trkpt lat="-3.1677120" lon="37.2832860">
    <ele>1883.0</ele>
    <time>2026-06-20T11:26:32Z</time>
   </trkpt>
   <trkpt lat="-3.1677040" lon="37.2832940">
    <ele>1883.1</ele>
    <time>2026-06-20T11:26:33Z</time>
   </trkpt>
   <trkpt lat="-3.1676980" lon="37.2832890">
    <ele>1883.2</ele>
    <time>2026-06-20T11:26:34Z</time>
   </trkpt>
   <trkpt lat="-3.1676890" lon="37.2832940">
    <ele>1883.3</ele>
    <time>2026-06-20T11:26:35Z</time>
   </trkpt>
   <trkpt lat="-3.1676840" lon="37.2832950">
    <ele>1883.4</ele>
    <time>2026-06-20T11:26:36Z</time>
   </trkpt>
   <trkpt lat="-3.1676790" lon="37.2832950">
    <ele>1883.5</ele>
    <time>2026-06-20T11:26:37Z</time>
   </trkpt>
   <trkpt lat="-3.1676760" lon="37.2832930">
    <ele>1883.5</ele>
    <time>2026-06-20T11:26:38Z</time>
   </trkpt>
   <trkpt lat="-3.1676740" lon="37.2832920">
    <ele>1883.6</ele>
    <time>2026-06-20T11:26:39Z</time>
   </trkpt>
   <trkpt lat="-3.1676680" lon="37.2832900">
    <ele>1883.6</ele>
    <time>2026-06-20T11:26:40Z</time>
   </trkpt>
   <trkpt lat="-3.1676660" lon="37.2832930">
    <ele>1883.7</ele>
    <time>2026-06-20T11:26:41Z</time>
   </trkpt>
   <trkpt lat="-3.1676610" lon="37.2832950">
    <ele>1883.7</ele>
    <time>2026-06-20T11:26:42Z</time>
   </trkpt>
   <trkpt lat="-3.1676590" lon="37.2832960">
    <ele>1883.8</ele>
    <time>2026-06-20T11:26:43Z</time>
   </trkpt>
   <trkpt lat="-3.1676500" lon="37.2832930">
    <ele>1883.9</ele>
    <time>2026-06-20T11:26:44Z</time>
   </trkpt>
   <trkpt lat="-3.1676470" lon="37.2832950">
    <ele>1883.9</ele>
    <time>2026-06-20T11:26:45Z</time>
   </trkpt>
   <trkpt lat="-3.1676410" lon="37.2832960">
    <ele>1884.0</ele>
    <time>2026-06-20T11:26:46Z</time>
   </trkpt>
   <trkpt lat="-3.1676370" lon="37.2832960">
    <ele>1884.1</ele>
    <time>2026-06-20T11:26:47Z</time>
   </trkpt>
   <trkpt lat="-3.1676310" lon="37.2832930">
    <ele>1884.1</ele>
    <time>2026-06-20T11:26:48Z</time>
   </trkpt>
   <trkpt lat="-3.1676220" lon="37.2832890">
    <ele>1884.2</ele>
    <time>2026-06-20T11:26:49Z</time>
   </trkpt>
   <trkpt lat="-3.1676190" lon="37.2832860">
    <ele>1884.3</ele>
    <time>2026-06-20T11:26:50Z</time>
   </trkpt>
   <trkpt lat="-3.1676150" lon="37.2832860">
    <ele>1884.3</ele>
    <time>2026-06-20T11:26:51Z</time>
   </trkpt>
   <trkpt lat="-3.1676130" lon="37.2832860">
    <ele>1884.4</ele>
    <time>2026-06-20T11:26:52Z</time>
   </trkpt>
   <trkpt lat="-3.1676140" lon="37.2832910">
    <ele>1884.4</ele>
    <time>2026-06-20T11:26:53Z</time>
   </trkpt>
   <trkpt lat="-3.1676130" lon="37.2832940">
    <ele>1884.5</ele>
    <time>2026-06-20T11:26:54Z</time>
   </trkpt>
   <trkpt lat="-3.1676080" lon="37.2832930">
    <ele>1884.5</ele>
    <time>2026-06-20T11:26:55Z</time>
   </trkpt>
   <trkpt lat="-3.1675990" lon="37.2832910">
    <ele>1884.6</ele>
    <time>2026-06-20T11:26:56Z</time>
   </trkpt>
   <trkpt lat="-3.1675850" lon="37.2833060">
    <ele>1884.9</ele>
    <time>2026-06-20T11:26:57Z</time>
   </trkpt>
   <trkpt lat="-3.1675800" lon="37.2833120">
    <ele>1885.0</ele>
    <time>2026-06-20T11:26:58Z</time>
   </trkpt>
   <trkpt lat="-3.1675680" lon="37.2833190">
    <ele>1885.1</ele>
    <time>2026-06-20T11:26:59Z</time>
   </trkpt>
   <trkpt lat="-3.1675620" lon="37.2833210">
    <ele>1885.2</ele>
    <time>2026-06-20T11:27:00Z</time>
   </trkpt>
   <trkpt lat="-3.1675510" lon="37.2833300">
    <ele>1885.4</ele>
    <time>2026-06-20T11:27:01Z</time>
   </trkpt>
   <trkpt lat="-3.1675450" lon="37.2833340">
    <ele>1885.5</ele>
    <time>2026-06-20T11:27:02Z</time>
   </trkpt>
   <trkpt lat="-3.1675350" lon="37.2833350">
    <ele>1885.6</ele>
    <time>2026-06-20T11:27:03Z</time>
   </trkpt>
   <trkpt lat="-3.1675320" lon="37.2833380">
    <ele>1885.6</ele>
    <time>2026-06-20T11:27:04Z</time>
   </trkpt>
   <trkpt lat="-3.1675250" lon="37.2833440">
    <ele>1885.7</ele>
    <time>2026-06-20T11:27:05Z</time>
   </trkpt>
   <trkpt lat="-3.1675200" lon="37.2833500">
    <ele>1885.8</ele>
    <time>2026-06-20T11:27:06Z</time>
   </trkpt>
   <trkpt lat="-3.1675090" lon="37.2833590">
    <ele>1886.0</ele>
    <time>2026-06-20T11:27:07Z</time>
   </trkpt>
   <trkpt lat="-3.1674980" lon="37.2833660">
    <ele>1886.2</ele>
    <time>2026-06-20T11:27:08Z</time>
   </trkpt>
   <trkpt lat="-3.1674970" lon="37.2833620">
    <ele>1886.2</ele>
    <time>2026-06-20T11:27:09Z</time>
   </trkpt>
   <trkpt lat="-3.1674850" lon="37.2833680">
    <ele>1886.4</ele>
    <time>2026-06-20T11:27:10Z</time>
   </trkpt>
   <trkpt lat="-3.1674820" lon="37.2833700">
    <ele>1886.4</ele>
    <time>2026-06-20T11:27:11Z</time>
   </trkpt>
   <trkpt lat="-3.1674760" lon="37.2833730">
    <ele>1886.5</ele>
    <time>2026-06-20T11:27:12Z</time>
   </trkpt>
   <trkpt lat="-3.1674690" lon="37.2833780">
    <ele>1886.6</ele>
    <time>2026-06-20T11:27:13Z</time>
   </trkpt>
   <trkpt lat="-3.1674620" lon="37.2833840">
    <ele>1886.7</ele>
    <time>2026-06-20T11:27:14Z</time>
   </trkpt>
   <trkpt lat="-3.1674570" lon="37.2833840">
    <ele>1886.8</ele>
    <time>2026-06-20T11:27:15Z</time>
   </trkpt>
   <trkpt lat="-3.1674470" lon="37.2833870">
    <ele>1886.9</ele>
    <time>2026-06-20T11:27:16Z</time>
   </trkpt>
   <trkpt lat="-3.1674390" lon="37.2833870">
    <ele>1887.0</ele>
    <time>2026-06-20T11:27:17Z</time>
   </trkpt>
   <trkpt lat="-3.1674300" lon="37.2833870">
    <ele>1887.2</ele>
    <time>2026-06-20T11:27:18Z</time>
   </trkpt>
   <trkpt lat="-3.1674210" lon="37.2833890">
    <ele>1887.3</ele>
    <time>2026-06-20T11:27:19Z</time>
   </trkpt>
   <trkpt lat="-3.1674160" lon="37.2833850">
    <ele>1887.4</ele>
    <time>2026-06-20T11:27:20Z</time>
   </trkpt>
   <trkpt lat="-3.1674080" lon="37.2833910">
    <ele>1887.5</ele>
    <time>2026-06-20T11:27:21Z</time>
   </trkpt>
   <trkpt lat="-3.1674020" lon="37.2833940">
    <ele>1887.6</ele>
    <time>2026-06-20T11:27:22Z</time>
   </trkpt>
   <trkpt lat="-3.1673920" lon="37.2833930">
    <ele>1887.7</ele>
    <time>2026-06-20T11:27:23Z</time>
   </trkpt>
   <trkpt lat="-3.1673830" lon="37.2833920">
    <ele>1887.8</ele>
    <time>2026-06-20T11:27:24Z</time>
   </trkpt>
   <trkpt lat="-3.1673730" lon="37.2833930">
    <ele>1888.0</ele>
    <time>2026-06-20T11:27:25Z</time>
   </trkpt>
   <trkpt lat="-3.1673610" lon="37.2833990">
    <ele>1888.1</ele>
    <time>2026-06-20T11:27:26Z</time>
   </trkpt>
   <trkpt lat="-3.1673570" lon="37.2833990">
    <ele>1888.2</ele>
    <time>2026-06-20T11:27:27Z</time>
   </trkpt>
   <trkpt lat="-3.1673480" lon="37.2833970">
    <ele>1888.3</ele>
    <time>2026-06-20T11:27:28Z</time>
   </trkpt>
   <trkpt lat="-3.1673450" lon="37.2833980">
    <ele>1888.4</ele>
    <time>2026-06-20T11:27:29Z</time>
   </trkpt>
   <trkpt lat="-3.1673370" lon="37.2834000">
    <ele>1888.5</ele>
    <time>2026-06-20T11:27:30Z</time>
   </trkpt>
   <trkpt lat="-3.1673300" lon="37.2834080">
    <ele>1888.6</ele>
    <time>2026-06-20T11:27:31Z</time>
   </trkpt>
   <trkpt lat="-3.1673250" lon="37.2834150">
    <ele>1888.7</ele>
    <time>2026-06-20T11:27:32Z</time>
   </trkpt>
   <trkpt lat="-3.1673180" lon="37.2834150">
    <ele>1888.8</ele>
    <time>2026-06-20T11:27:33Z</time>
   </trkpt>
   <trkpt lat="-3.1673170" lon="37.2834150">
    <ele>1888.8</ele>
    <time>2026-06-20T11:27:34Z</time>
   </trkpt>
   <trkpt lat="-3.1673060" lon="37.2834140">
    <ele>1889.0</ele>
    <time>2026-06-20T11:27:35Z</time>
   </trkpt>
   <trkpt lat="-3.1672990" lon="37.2834200">
    <ele>1889.1</ele>
    <time>2026-06-20T11:27:36Z</time>
   </trkpt>
   <trkpt lat="-3.1672930" lon="37.2834260">
    <ele>1889.2</ele>
    <time>2026-06-20T11:27:37Z</time>
   </trkpt>
   <trkpt lat="-3.1672870" lon="37.2834280">
    <ele>1889.3</ele>
    <time>2026-06-20T11:27:38Z</time>
   </trkpt>
   <trkpt lat="-3.1672790" lon="37.2834320">
    <ele>1889.4</ele>
    <time>2026-06-20T11:27:39Z</time>
   </trkpt>
   <trkpt lat="-3.1672750" lon="37.2834360">
    <ele>1889.5</ele>
    <time>2026-06-20T11:27:40Z</time>
   </trkpt>
   <trkpt lat="-3.1672660" lon="37.2834410">
    <ele>1889.6</ele>
    <time>2026-06-20T11:27:41Z</time>
   </trkpt>
   <trkpt lat="-3.1672600" lon="37.2834470">
    <ele>1889.7</ele>
    <time>2026-06-20T11:27:42Z</time>
   </trkpt>
   <trkpt lat="-3.1672530" lon="37.2834430">
    <ele>1889.8</ele>
    <time>2026-06-20T11:27:43Z</time>
   </trkpt>
   <trkpt lat="-3.1672480" lon="37.2834440">
    <ele>1889.9</ele>
    <time>2026-06-20T11:27:44Z</time>
   </trkpt>
   <trkpt lat="-3.1672430" lon="37.2834430">
    <ele>1889.9</ele>
    <time>2026-06-20T11:27:45Z</time>
   </trkpt>
   <trkpt lat="-3.1672370" lon="37.2834420">
    <ele>1890.0</ele>
    <time>2026-06-20T11:27:46Z</time>
   </trkpt>
   <trkpt lat="-3.1672360" lon="37.2834450">
    <ele>1890.0</ele>
    <time>2026-06-20T11:27:47Z</time>
   </trkpt>
   <trkpt lat="-3.1672290" lon="37.2834520">
    <ele>1890.2</ele>
    <time>2026-06-20T11:27:48Z</time>
   </trkpt>
   <trkpt lat="-3.1672190" lon="37.2834510">
    <ele>1890.3</ele>
    <time>2026-06-20T11:27:49Z</time>
   </trkpt>
   <trkpt lat="-3.1672120" lon="37.2834500">
    <ele>1890.3</ele>
    <time>2026-06-20T11:27:50Z</time>
   </trkpt>
   <trkpt lat="-3.1672030" lon="37.2834530">
    <ele>1890.4</ele>
    <time>2026-06-20T11:27:51Z</time>
   </trkpt>
   <trkpt lat="-3.1671930" lon="37.2834520">
    <ele>1890.5</ele>
    <time>2026-06-20T11:27:52Z</time>
   </trkpt>
   <trkpt lat="-3.1671830" lon="37.2834500">
    <ele>1890.7</ele>
    <time>2026-06-20T11:27:53Z</time>
   </trkpt>
   <trkpt lat="-3.1671770" lon="37.2834440">
    <ele>1890.7</ele>
    <time>2026-06-20T11:27:54Z</time>
   </trkpt>
   <trkpt lat="-3.1671720" lon="37.2834430">
    <ele>1890.8</ele>
    <time>2026-06-20T11:27:55Z</time>
   </trkpt>
   <trkpt lat="-3.1671640" lon="37.2834400">
    <ele>1890.9</ele>
    <time>2026-06-20T11:27:56Z</time>
   </trkpt>
   <trkpt lat="-3.1671480" lon="37.2834350">
    <ele>1891.0</ele>
    <time>2026-06-20T11:27:57Z</time>
   </trkpt>
   <trkpt lat="-3.1671400" lon="37.2834280">
    <ele>1891.1</ele>
    <time>2026-06-20T11:27:58Z</time>
   </trkpt>
   <trkpt lat="-3.1671250" lon="37.2834200">
    <ele>1891.3</ele>
    <time>2026-06-20T11:27:59Z</time>
   </trkpt>
   <trkpt lat="-3.1671210" lon="37.2834170">
    <ele>1891.3</ele>
    <time>2026-06-20T11:28:00Z</time>
   </trkpt>
   <trkpt lat="-3.1671090" lon="37.2834100">
    <ele>1891.4</ele>
    <time>2026-06-20T11:28:01Z</time>
   </trkpt>
   <trkpt lat="-3.1670990" lon="37.2834110">
    <ele>1891.5</ele>
    <time>2026-06-20T11:28:02Z</time>
   </trkpt>
   <trkpt lat="-3.1670920" lon="37.2834020">
    <ele>1891.6</ele>
    <time>2026-06-20T11:28:03Z</time>
   </trkpt>
   <trkpt lat="-3.1670800" lon="37.2833880">
    <ele>1891.7</ele>
    <time>2026-06-20T11:28:04Z</time>
   </trkpt>
   <trkpt lat="-3.1670690" lon="37.2833820">
    <ele>1891.8</ele>
    <time>2026-06-20T11:28:05Z</time>
   </trkpt>
   <trkpt lat="-3.1670570" lon="37.2833780">
    <ele>1891.9</ele>
    <time>2026-06-20T11:28:06Z</time>
   </trkpt>
   <trkpt lat="-3.1670480" lon="37.2833680">
    <ele>1892.0</ele>
    <time>2026-06-20T11:28:07Z</time>
   </trkpt>
   <trkpt lat="-3.1670390" lon="37.2833680">
    <ele>1892.1</ele>
    <time>2026-06-20T11:28:08Z</time>
   </trkpt>
   <trkpt lat="-3.1670260" lon="37.2833640">
    <ele>1892.2</ele>
    <time>2026-06-20T11:28:09Z</time>
   </trkpt>
   <trkpt lat="-3.1670170" lon="37.2833580">
    <ele>1892.2</ele>
    <time>2026-06-20T11:28:10Z</time>
   </trkpt>
   <trkpt lat="-3.1670050" lon="37.2833550">
    <ele>1892.3</ele>
    <time>2026-06-20T11:28:11Z</time>
   </trkpt>
   <trkpt lat="-3.1669930" lon="37.2833480">
    <ele>1892.4</ele>
    <time>2026-06-20T11:28:12Z</time>
   </trkpt>
   <trkpt lat="-3.1669820" lon="37.2833430">
    <ele>1892.5</ele>
    <time>2026-06-20T11:28:13Z</time>
   </trkpt>
   <trkpt lat="-3.1669720" lon="37.2833440">
    <ele>1892.5</ele>
    <time>2026-06-20T11:28:14Z</time>
   </trkpt>
   <trkpt lat="-3.1669610" lon="37.2833420">
    <ele>1892.6</ele>
    <time>2026-06-20T11:28:15Z</time>
   </trkpt>
   <trkpt lat="-3.1669510" lon="37.2833370">
    <ele>1892.6</ele>
    <time>2026-06-20T11:28:16Z</time>
   </trkpt>
   <trkpt lat="-3.1669400" lon="37.2833370">
    <ele>1892.7</ele>
    <time>2026-06-20T11:28:17Z</time>
   </trkpt>
   <trkpt lat="-3.1669340" lon="37.2833280">
    <ele>1892.7</ele>
    <time>2026-06-20T11:28:18Z</time>
   </trkpt>
   <trkpt lat="-3.1669250" lon="37.2833230">
    <ele>1892.8</ele>
    <time>2026-06-20T11:28:19Z</time>
   </trkpt>
   <trkpt lat="-3.1669140" lon="37.2833190">
    <ele>1892.9</ele>
    <time>2026-06-20T11:28:20Z</time>
   </trkpt>
   <trkpt lat="-3.1669020" lon="37.2833140">
    <ele>1892.9</ele>
    <time>2026-06-20T11:28:21Z</time>
   </trkpt>
   <trkpt lat="-3.1668980" lon="37.2833100">
    <ele>1893.0</ele>
    <time>2026-06-20T11:28:22Z</time>
   </trkpt>
   <trkpt lat="-3.1668990" lon="37.2833110">
    <ele>1893.0</ele>
    <time>2026-06-20T11:28:23Z</time>
   </trkpt>
   <trkpt lat="-3.1668980" lon="37.2833080">
    <ele>1893.0</ele>
    <time>2026-06-20T11:28:24Z</time>
   </trkpt>
   <trkpt lat="-3.1668860" lon="37.2833080">
    <ele>1893.0</ele>
    <time>2026-06-20T11:28:25Z</time>
   </trkpt>
   <trkpt lat="-3.1668750" lon="37.2833080">
    <ele>1893.1</ele>
    <time>2026-06-20T11:28:26Z</time>
   </trkpt>
   <trkpt lat="-3.1668660" lon="37.2833090">
    <ele>1893.1</ele>
    <time>2026-06-20T11:28:27Z</time>
   </trkpt>
   <trkpt lat="-3.1668610" lon="37.2833080">
    <ele>1893.2</ele>
    <time>2026-06-20T11:28:28Z</time>
   </trkpt>
   <trkpt lat="-3.1668620" lon="37.2833080">
    <ele>1893.2</ele>
    <time>2026-06-20T11:28:29Z</time>
   </trkpt>
   <trkpt lat="-3.1668580" lon="37.2833030">
    <ele>1893.2</ele>
    <time>2026-06-20T11:28:30Z</time>
   </trkpt>
   <trkpt lat="-3.1668460" lon="37.2833000">
    <ele>1893.2</ele>
    <time>2026-06-20T11:28:31Z</time>
   </trkpt>
   <trkpt lat="-3.1668460" lon="37.2832960">
    <ele>1893.3</ele>
    <time>2026-06-20T11:28:32Z</time>
   </trkpt>
   <trkpt lat="-3.1668430" lon="37.2832910">
    <ele>1893.3</ele>
    <time>2026-06-20T11:28:33Z</time>
   </trkpt>
   <trkpt lat="-3.1668440" lon="37.2832860">
    <ele>1893.3</ele>
    <time>2026-06-20T11:28:34Z</time>
   </trkpt>
   <trkpt lat="-3.1668450" lon="37.2832840">
    <ele>1893.3</ele>
    <time>2026-06-20T11:28:35Z</time>
   </trkpt>
   <trkpt lat="-3.1668430" lon="37.2832820">
    <ele>1893.3</ele>
    <time>2026-06-20T11:28:36Z</time>
   </trkpt>
   <trkpt lat="-3.1668330" lon="37.2832800">
    <ele>1893.4</ele>
    <time>2026-06-20T11:28:37Z</time>
   </trkpt>
   <trkpt lat="-3.1668280" lon="37.2832840">
    <ele>1893.4</ele>
    <time>2026-06-20T11:28:38Z</time>
   </trkpt>
   <trkpt lat="-3.1668280" lon="37.2832750">
    <ele>1893.4</ele>
    <time>2026-06-20T11:28:39Z</time>
   </trkpt>
   <trkpt lat="-3.1668240" lon="37.2832670">
    <ele>1893.5</ele>
    <time>2026-06-20T11:28:40Z</time>
   </trkpt>
   <trkpt lat="-3.1668170" lon="37.2832720">
    <ele>1893.5</ele>
    <time>2026-06-20T11:28:41Z</time>
   </trkpt>
   <trkpt lat="-3.1668120" lon="37.2832740">
    <ele>1893.5</ele>
    <time>2026-06-20T11:28:42Z</time>
   </trkpt>
   <trkpt lat="-3.1668080" lon="37.2832710">
    <ele>1893.6</ele>
    <time>2026-06-20T11:28:43Z</time>
   </trkpt>
   <trkpt lat="-3.1668000" lon="37.2832710">
    <ele>1893.6</ele>
    <time>2026-06-20T11:28:44Z</time>
   </trkpt>
   <trkpt lat="-3.1667910" lon="37.2832640">
    <ele>1893.7</ele>
    <time>2026-06-20T11:28:45Z</time>
   </trkpt>
   <trkpt lat="-3.1667790" lon="37.2832560">
    <ele>1893.7</ele>
    <time>2026-06-20T11:28:46Z</time>
   </trkpt>
   <trkpt lat="-3.1667730" lon="37.2832500">
    <ele>1893.8</ele>
    <time>2026-06-20T11:28:47Z</time>
   </trkpt>
   <trkpt lat="-3.1667660" lon="37.2832440">
    <ele>1893.8</ele>
    <time>2026-06-20T11:28:48Z</time>
   </trkpt>
   <trkpt lat="-3.1667600" lon="37.2832400">
    <ele>1893.8</ele>
    <time>2026-06-20T11:28:49Z</time>
   </trkpt>
   <trkpt lat="-3.1667550" lon="37.2832350">
    <ele>1893.8</ele>
    <time>2026-06-20T11:28:50Z</time>
   </trkpt>
   <trkpt lat="-3.1667520" lon="37.2832310">
    <ele>1893.9</ele>
    <time>2026-06-20T11:28:51Z</time>
   </trkpt>
   <trkpt lat="-3.1667460" lon="37.2832300">
    <ele>1893.9</ele>
    <time>2026-06-20T11:28:52Z</time>
   </trkpt>
   <trkpt lat="-3.1667390" lon="37.2832210">
    <ele>1893.9</ele>
    <time>2026-06-20T11:28:53Z</time>
   </trkpt>
   <trkpt lat="-3.1667290" lon="37.2832120">
    <ele>1894.0</ele>
    <time>2026-06-20T11:28:54Z</time>
   </trkpt>
   <trkpt lat="-3.1667190" lon="37.2832050">
    <ele>1894.0</ele>
    <time>2026-06-20T11:28:55Z</time>
   </trkpt>
   <trkpt lat="-3.1667130" lon="37.2832030">
    <ele>1894.0</ele>
    <time>2026-06-20T11:28:56Z</time>
   </trkpt>
   <trkpt lat="-3.1667100" lon="37.2831970">
    <ele>1894.1</ele>
    <time>2026-06-20T11:28:57Z</time>
   </trkpt>
   <trkpt lat="-3.1667050" lon="37.2831900">
    <ele>1894.1</ele>
    <time>2026-06-20T11:28:58Z</time>
   </trkpt>
   <trkpt lat="-3.1667000" lon="37.2831850">
    <ele>1894.1</ele>
    <time>2026-06-20T11:28:59Z</time>
   </trkpt>
   <trkpt lat="-3.1666980" lon="37.2831800">
    <ele>1894.1</ele>
    <time>2026-06-20T11:29:00Z</time>
   </trkpt>
   <trkpt lat="-3.1666930" lon="37.2831740">
    <ele>1894.1</ele>
    <time>2026-06-20T11:29:01Z</time>
   </trkpt>
   <trkpt lat="-3.1666810" lon="37.2831660">
    <ele>1894.2</ele>
    <time>2026-06-20T11:29:02Z</time>
   </trkpt>
   <trkpt lat="-3.1666770" lon="37.2831590">
    <ele>1894.2</ele>
    <time>2026-06-20T11:29:03Z</time>
   </trkpt>
   <trkpt lat="-3.1666710" lon="37.2831510">
    <ele>1894.2</ele>
    <time>2026-06-20T11:29:04Z</time>
   </trkpt>
   <trkpt lat="-3.1666660" lon="37.2831410">
    <ele>1894.2</ele>
    <time>2026-06-20T11:29:05Z</time>
   </trkpt>
   <trkpt lat="-3.1666620" lon="37.2831330">
    <ele>1894.3</ele>
    <time>2026-06-20T11:29:06Z</time>
   </trkpt>
   <trkpt lat="-3.1666510" lon="37.2831240">
    <ele>1894.3</ele>
    <time>2026-06-20T11:29:07Z</time>
   </trkpt>
   <trkpt lat="-3.1666510" lon="37.2831090">
    <ele>1894.3</ele>
    <time>2026-06-20T11:29:08Z</time>
   </trkpt>
   <trkpt lat="-3.1666470" lon="37.2831020">
    <ele>1894.3</ele>
    <time>2026-06-20T11:29:09Z</time>
   </trkpt>
   <trkpt lat="-3.1666350" lon="37.2830980">
    <ele>1894.3</ele>
    <time>2026-06-20T11:29:10Z</time>
   </trkpt>
   <trkpt lat="-3.1666270" lon="37.2830920">
    <ele>1894.3</ele>
    <time>2026-06-20T11:29:11Z</time>
   </trkpt>
   <trkpt lat="-3.1666180" lon="37.2830820">
    <ele>1894.3</ele>
    <time>2026-06-20T11:29:12Z</time>
   </trkpt>
   <trkpt lat="-3.1666080" lon="37.2830820">
    <ele>1894.4</ele>
    <time>2026-06-20T11:29:13Z</time>
   </trkpt>
   <trkpt lat="-3.1665950" lon="37.2830690">
    <ele>1894.4</ele>
    <time>2026-06-20T11:29:14Z</time>
   </trkpt>
   <trkpt lat="-3.1665880" lon="37.2830600">
    <ele>1894.4</ele>
    <time>2026-06-20T11:29:15Z</time>
   </trkpt>
   <trkpt lat="-3.1665810" lon="37.2830560">
    <ele>1894.4</ele>
    <time>2026-06-20T11:29:16Z</time>
   </trkpt>
   <trkpt lat="-3.1665700" lon="37.2830510">
    <ele>1894.4</ele>
    <time>2026-06-20T11:29:17Z</time>
   </trkpt>
   <trkpt lat="-3.1665590" lon="37.2830460">
    <ele>1894.4</ele>
    <time>2026-06-20T11:29:18Z</time>
   </trkpt>
   <trkpt lat="-3.1665510" lon="37.2830420">
    <ele>1894.4</ele>
    <time>2026-06-20T11:29:19Z</time>
   </trkpt>
   <trkpt lat="-3.1665450" lon="37.2830410">
    <ele>1894.4</ele>
    <time>2026-06-20T11:29:20Z</time>
   </trkpt>
   <trkpt lat="-3.1665420" lon="37.2830380">
    <ele>1894.4</ele>
    <time>2026-06-20T11:29:21Z</time>
   </trkpt>
   <trkpt lat="-3.1665430" lon="37.2830390">
    <ele>1894.4</ele>
    <time>2026-06-20T11:29:22Z</time>
   </trkpt>
   <trkpt lat="-3.1665390" lon="37.2830400">
    <ele>1894.4</ele>
    <time>2026-06-20T11:29:23Z</time>
   </trkpt>
   <trkpt lat="-3.1665390" lon="37.2830400">
    <ele>1894.4</ele>
    <time>2026-06-20T11:29:24Z</time>
   </trkpt>
   <trkpt lat="-3.1665390" lon="37.2830400">
    <ele>1894.4</ele>
    <time>2026-06-20T11:29:25Z</time>
   </trkpt>
   <trkpt lat="-3.1665330" lon="37.2830440">
    <ele>1894.4</ele>
    <time>2026-06-20T11:29:26Z</time>
   </trkpt>
   <trkpt lat="-3.1665250" lon="37.2830440">
    <ele>1894.5</ele>
    <time>2026-06-20T11:29:27Z</time>
   </trkpt>
   <trkpt lat="-3.1665230" lon="37.2830440">
    <ele>1894.5</ele>
    <time>2026-06-20T11:29:28Z</time>
   </trkpt>
   <trkpt lat="-3.1665210" lon="37.2830450">
    <ele>1894.5</ele>
    <time>2026-06-20T11:29:29Z</time>
   </trkpt>
   <trkpt lat="-3.1665200" lon="37.2830470">
    <ele>1894.5</ele>
    <time>2026-06-20T11:29:30Z</time>
   </trkpt>
   <trkpt lat="-3.1665200" lon="37.2830470">
    <ele>1894.5</ele>
    <time>2026-06-20T11:29:31Z</time>
   </trkpt>
   <trkpt lat="-3.1665130" lon="37.2830530">
    <ele>1894.5</ele>
    <time>2026-06-20T11:29:32Z</time>
   </trkpt>
   <trkpt lat="-3.1665080" lon="37.2830530">
    <ele>1894.5</ele>
    <time>2026-06-20T11:29:33Z</time>
   </trkpt>
   <trkpt lat="-3.1665040" lon="37.2830550">
    <ele>1894.5</ele>
    <time>2026-06-20T11:29:34Z</time>
   </trkpt>
   <trkpt lat="-3.1665020" lon="37.2830550">
    <ele>1894.5</ele>
    <time>2026-06-20T11:29:35Z</time>
   </trkpt>
   <trkpt lat="-3.1664990" lon="37.2830590">
    <ele>1894.5</ele>
    <time>2026-06-20T11:29:36Z</time>
   </trkpt>
   <trkpt lat="-3.1664960" lon="37.2830580">
    <ele>1894.5</ele>
    <time>2026-06-20T11:29:37Z</time>
   </trkpt>
   <trkpt lat="-3.1664920" lon="37.2830600">
    <ele>1894.5</ele>
    <time>2026-06-20T11:29:38Z</time>
   </trkpt>
   <trkpt lat="-3.1664890" lon="37.2830630">
    <ele>1894.5</ele>
    <time>2026-06-20T11:29:39Z</time>
   </trkpt>
   <trkpt lat="-3.1664870" lon="37.2830730">
    <ele>1894.5</ele>
    <time>2026-06-20T11:29:40Z</time>
   </trkpt>
   <trkpt lat="-3.1664850" lon="37.2830750">
    <ele>1894.5</ele>
    <time>2026-06-20T11:29:41Z</time>
   </trkpt>
   <trkpt lat="-3.1664820" lon="37.2830800">
    <ele>1894.5</ele>
    <time>2026-06-20T11:29:42Z</time>
   </trkpt>
   <trkpt lat="-3.1664780" lon="37.2830840">
    <ele>1894.5</ele>
    <time>2026-06-20T11:29:43Z</time>
   </trkpt>
   <trkpt lat="-3.1664690" lon="37.2830830">
    <ele>1894.5</ele>
    <time>2026-06-20T11:29:44Z</time>
   </trkpt>
   <trkpt lat="-3.1664600" lon="37.2830820">
    <ele>1894.5</ele>
    <time>2026-06-20T11:29:45Z</time>
   </trkpt>
   <trkpt lat="-3.1664540" lon="37.2830840">
    <ele>1894.5</ele>
    <time>2026-06-20T11:29:46Z</time>
   </trkpt>
   <trkpt lat="-3.1664350" lon="37.2830780">
    <ele>1894.6</ele>
    <time>2026-06-20T11:29:47Z</time>
   </trkpt>
   <trkpt lat="-3.1664260" lon="37.2830730">
    <ele>1894.6</ele>
    <time>2026-06-20T11:29:48Z</time>
   </trkpt>
   <trkpt lat="-3.1664130" lon="37.2830690">
    <ele>1894.6</ele>
    <time>2026-06-20T11:29:49Z</time>
   </trkpt>
   <trkpt lat="-3.1664040" lon="37.2830680">
    <ele>1894.6</ele>
    <time>2026-06-20T11:29:50Z</time>
   </trkpt>
   <trkpt lat="-3.1663920" lon="37.2830690">
    <ele>1894.6</ele>
    <time>2026-06-20T11:29:51Z</time>
   </trkpt>
   <trkpt lat="-3.1663830" lon="37.2830660">
    <ele>1894.7</ele>
    <time>2026-06-20T11:29:52Z</time>
   </trkpt>
   <trkpt lat="-3.1663790" lon="37.2830640">
    <ele>1894.7</ele>
    <time>2026-06-20T11:29:53Z</time>
   </trkpt>
   <trkpt lat="-3.1663670" lon="37.2830610">
    <ele>1894.7</ele>
    <time>2026-06-20T11:29:54Z</time>
   </trkpt>
   <trkpt lat="-3.1663610" lon="37.2830580">
    <ele>1894.7</ele>
    <time>2026-06-20T11:29:55Z</time>
   </trkpt>
   <trkpt lat="-3.1663480" lon="37.2830590">
    <ele>1894.8</ele>
    <time>2026-06-20T11:29:56Z</time>
   </trkpt>
   <trkpt lat="-3.1663430" lon="37.2830570">
    <ele>1894.8</ele>
    <time>2026-06-20T11:29:57Z</time>
   </trkpt>
   <trkpt lat="-3.1663390" lon="37.2830530">
    <ele>1894.8</ele>
    <time>2026-06-20T11:29:58Z</time>
   </trkpt>
   <trkpt lat="-3.1663310" lon="37.2830440">
    <ele>1894.8</ele>
    <time>2026-06-20T11:29:59Z</time>
   </trkpt>
   <trkpt lat="-3.1663340" lon="37.2830390">
    <ele>1894.8</ele>
    <time>2026-06-20T11:30:00Z</time>
   </trkpt>
   <trkpt lat="-3.1663350" lon="37.2830380">
    <ele>1894.9</ele>
    <time>2026-06-20T11:30:01Z</time>
   </trkpt>
   <trkpt lat="-3.1663310" lon="37.2830370">
    <ele>1894.9</ele>
    <time>2026-06-20T11:30:02Z</time>
   </trkpt>
   <trkpt lat="-3.1663270" lon="37.2830420">
    <ele>1894.9</ele>
    <time>2026-06-20T11:30:03Z</time>
   </trkpt>
   <trkpt lat="-3.1663160" lon="37.2830460">
    <ele>1894.9</ele>
    <time>2026-06-20T11:30:04Z</time>
   </trkpt>
   <trkpt lat="-3.1663130" lon="37.2830560">
    <ele>1895.0</ele>
    <time>2026-06-20T11:30:05Z</time>
   </trkpt>
   <trkpt lat="-3.1663040" lon="37.2830630">
    <ele>1895.0</ele>
    <time>2026-06-20T11:30:06Z</time>
   </trkpt>
   <trkpt lat="-3.1662930" lon="37.2830650">
    <ele>1895.0</ele>
    <time>2026-06-20T11:30:07Z</time>
   </trkpt>
   <trkpt lat="-3.1662830" lon="37.2830640">
    <ele>1895.1</ele>
    <time>2026-06-20T11:30:08Z</time>
   </trkpt>
   <trkpt lat="-3.1662770" lon="37.2830680">
    <ele>1895.1</ele>
    <time>2026-06-20T11:30:09Z</time>
   </trkpt>
   <trkpt lat="-3.1662690" lon="37.2830760">
    <ele>1895.2</ele>
    <time>2026-06-20T11:30:10Z</time>
   </trkpt>
   <trkpt lat="-3.1662590" lon="37.2830750">
    <ele>1895.2</ele>
    <time>2026-06-20T11:30:11Z</time>
   </trkpt>
   <trkpt lat="-3.1662500" lon="37.2830730">
    <ele>1895.2</ele>
    <time>2026-06-20T11:30:12Z</time>
   </trkpt>
   <trkpt lat="-3.1662390" lon="37.2830710">
    <ele>1895.3</ele>
    <time>2026-06-20T11:30:13Z</time>
   </trkpt>
   <trkpt lat="-3.1662320" lon="37.2830710">
    <ele>1895.3</ele>
    <time>2026-06-20T11:30:14Z</time>
   </trkpt>
   <trkpt lat="-3.1662210" lon="37.2830740">
    <ele>1895.4</ele>
    <time>2026-06-20T11:30:15Z</time>
   </trkpt>
   <trkpt lat="-3.1662100" lon="37.2830730">
    <ele>1895.4</ele>
    <time>2026-06-20T11:30:16Z</time>
   </trkpt>
   <trkpt lat="-3.1662000" lon="37.2830760">
    <ele>1895.5</ele>
    <time>2026-06-20T11:30:17Z</time>
   </trkpt>
   <trkpt lat="-3.1661940" lon="37.2830780">
    <ele>1895.5</ele>
    <time>2026-06-20T11:30:18Z</time>
   </trkpt>
   <trkpt lat="-3.1661860" lon="37.2830820">
    <ele>1895.5</ele>
    <time>2026-06-20T11:30:19Z</time>
   </trkpt>
   <trkpt lat="-3.1661770" lon="37.2830880">
    <ele>1895.6</ele>
    <time>2026-06-20T11:30:20Z</time>
   </trkpt>
   <trkpt lat="-3.1661700" lon="37.2830910">
    <ele>1895.6</ele>
    <time>2026-06-20T11:30:21Z</time>
   </trkpt>
   <trkpt lat="-3.1661630" lon="37.2830950">
    <ele>1895.7</ele>
    <time>2026-06-20T11:30:22Z</time>
   </trkpt>
   <trkpt lat="-3.1661540" lon="37.2830990">
    <ele>1895.7</ele>
    <time>2026-06-20T11:30:23Z</time>
   </trkpt>
   <trkpt lat="-3.1661470" lon="37.2831010">
    <ele>1895.8</ele>
    <time>2026-06-20T11:30:24Z</time>
   </trkpt>
   <trkpt lat="-3.1661430" lon="37.2830950">
    <ele>1895.8</ele>
    <time>2026-06-20T11:30:25Z</time>
   </trkpt>
   <trkpt lat="-3.1661340" lon="37.2830950">
    <ele>1895.8</ele>
    <time>2026-06-20T11:30:26Z</time>
   </trkpt>
   <trkpt lat="-3.1661230" lon="37.2830950">
    <ele>1895.9</ele>
    <time>2026-06-20T11:30:27Z</time>
   </trkpt>
   <trkpt lat="-3.1661190" lon="37.2830970">
    <ele>1895.9</ele>
    <time>2026-06-20T11:30:28Z</time>
   </trkpt>
   <trkpt lat="-3.1661160" lon="37.2830930">
    <ele>1895.9</ele>
    <time>2026-06-20T11:30:29Z</time>
   </trkpt>
   <trkpt lat="-3.1661040" lon="37.2830940">
    <ele>1896.0</ele>
    <time>2026-06-20T11:30:30Z</time>
   </trkpt>
   <trkpt lat="-3.1660960" lon="37.2830870">
    <ele>1896.0</ele>
    <time>2026-06-20T11:30:31Z</time>
   </trkpt>
   <trkpt lat="-3.1660910" lon="37.2830890">
    <ele>1896.1</ele>
    <time>2026-06-20T11:30:32Z</time>
   </trkpt>
   <trkpt lat="-3.1660810" lon="37.2830910">
    <ele>1896.1</ele>
    <time>2026-06-20T11:30:33Z</time>
   </trkpt>
   <trkpt lat="-3.1660670" lon="37.2830920">
    <ele>1896.2</ele>
    <time>2026-06-20T11:30:34Z</time>
   </trkpt>
   <trkpt lat="-3.1660610" lon="37.2830940">
    <ele>1896.2</ele>
    <time>2026-06-20T11:30:35Z</time>
   </trkpt>
   <trkpt lat="-3.1660590" lon="37.2831020">
    <ele>1896.2</ele>
    <time>2026-06-20T11:30:36Z</time>
   </trkpt>
   <trkpt lat="-3.1660540" lon="37.2831070">
    <ele>1896.3</ele>
    <time>2026-06-20T11:30:37Z</time>
   </trkpt>
   <trkpt lat="-3.1660400" lon="37.2831130">
    <ele>1896.3</ele>
    <time>2026-06-20T11:30:38Z</time>
   </trkpt>
   <trkpt lat="-3.1660330" lon="37.2831140">
    <ele>1896.4</ele>
    <time>2026-06-20T11:30:39Z</time>
   </trkpt>
   <trkpt lat="-3.1660220" lon="37.2831120">
    <ele>1896.4</ele>
    <time>2026-06-20T11:30:40Z</time>
   </trkpt>
   <trkpt lat="-3.1660100" lon="37.2831110">
    <ele>1896.5</ele>
    <time>2026-06-20T11:30:41Z</time>
   </trkpt>
   <trkpt lat="-3.1660050" lon="37.2831150">
    <ele>1896.5</ele>
    <time>2026-06-20T11:30:42Z</time>
   </trkpt>
   <trkpt lat="-3.1659980" lon="37.2831190">
    <ele>1896.5</ele>
    <time>2026-06-20T11:30:43Z</time>
   </trkpt>
   <trkpt lat="-3.1659850" lon="37.2831240">
    <ele>1896.6</ele>
    <time>2026-06-20T11:30:44Z</time>
   </trkpt>
   <trkpt lat="-3.1659780" lon="37.2831210">
    <ele>1896.6</ele>
    <time>2026-06-20T11:30:45Z</time>
   </trkpt>
   <trkpt lat="-3.1659700" lon="37.2831260">
    <ele>1896.7</ele>
    <time>2026-06-20T11:30:46Z</time>
   </trkpt>
   <trkpt lat="-3.1659630" lon="37.2831280">
    <ele>1896.7</ele>
    <time>2026-06-20T11:30:47Z</time>
   </trkpt>
   <trkpt lat="-3.1659530" lon="37.2831270">
    <ele>1896.8</ele>
    <time>2026-06-20T11:30:48Z</time>
   </trkpt>
   <trkpt lat="-3.1659500" lon="37.2831240">
    <ele>1896.8</ele>
    <time>2026-06-20T11:30:49Z</time>
   </trkpt>
   <trkpt lat="-3.1659410" lon="37.2831190">
    <ele>1896.8</ele>
    <time>2026-06-20T11:30:50Z</time>
   </trkpt>
   <trkpt lat="-3.1659310" lon="37.2831170">
    <ele>1896.9</ele>
    <time>2026-06-20T11:30:51Z</time>
   </trkpt>
   <trkpt lat="-3.1659210" lon="37.2831160">
    <ele>1896.9</ele>
    <time>2026-06-20T11:30:52Z</time>
   </trkpt>
   <trkpt lat="-3.1659110" lon="37.2831160">
    <ele>1897.0</ele>
    <time>2026-06-20T11:30:53Z</time>
   </trkpt>
   <trkpt lat="-3.1659010" lon="37.2831170">
    <ele>1897.0</ele>
    <time>2026-06-20T11:30:54Z</time>
   </trkpt>
   <trkpt lat="-3.1658950" lon="37.2831220">
    <ele>1897.1</ele>
    <time>2026-06-20T11:30:55Z</time>
   </trkpt>
   <trkpt lat="-3.1658870" lon="37.2831240">
    <ele>1897.1</ele>
    <time>2026-06-20T11:30:56Z</time>
   </trkpt>
   <trkpt lat="-3.1658800" lon="37.2831220">
    <ele>1897.1</ele>
    <time>2026-06-20T11:30:57Z</time>
   </trkpt>
   <trkpt lat="-3.1658730" lon="37.2831210">
    <ele>1897.2</ele>
    <time>2026-06-20T11:30:58Z</time>
   </trkpt>
   <trkpt lat="-3.1658680" lon="37.2831240">
    <ele>1897.2</ele>
    <time>2026-06-20T11:30:59Z</time>
   </trkpt>
   <trkpt lat="-3.1658540" lon="37.2831260">
    <ele>1897.2</ele>
    <time>2026-06-20T11:31:00Z</time>
   </trkpt>
   <trkpt lat="-3.1658470" lon="37.2831240">
    <ele>1897.3</ele>
    <time>2026-06-20T11:31:01Z</time>
   </trkpt>
   <trkpt lat="-3.1658390" lon="37.2831240">
    <ele>1897.3</ele>
    <time>2026-06-20T11:31:02Z</time>
   </trkpt>
   <trkpt lat="-3.1658270" lon="37.2831240">
    <ele>1897.4</ele>
    <time>2026-06-20T11:31:03Z</time>
   </trkpt>
   <trkpt lat="-3.1658200" lon="37.2831260">
    <ele>1897.4</ele>
    <time>2026-06-20T11:31:04Z</time>
   </trkpt>
   <trkpt lat="-3.1658170" lon="37.2831240">
    <ele>1897.4</ele>
    <time>2026-06-20T11:31:05Z</time>
   </trkpt>
   <trkpt lat="-3.1658140" lon="37.2831220">
    <ele>1897.4</ele>
    <time>2026-06-20T11:31:06Z</time>
   </trkpt>
   <trkpt lat="-3.1658010" lon="37.2831280">
    <ele>1897.5</ele>
    <time>2026-06-20T11:31:07Z</time>
   </trkpt>
   <trkpt lat="-3.1657950" lon="37.2831250">
    <ele>1897.5</ele>
    <time>2026-06-20T11:31:08Z</time>
   </trkpt>
   <trkpt lat="-3.1657890" lon="37.2831290">
    <ele>1897.6</ele>
    <time>2026-06-20T11:31:09Z</time>
   </trkpt>
   <trkpt lat="-3.1657730" lon="37.2831340">
    <ele>1897.7</ele>
    <time>2026-06-20T11:31:10Z</time>
   </trkpt>
   <trkpt lat="-3.1657690" lon="37.2831340">
    <ele>1897.7</ele>
    <time>2026-06-20T11:31:11Z</time>
   </trkpt>
   <trkpt lat="-3.1657630" lon="37.2831410">
    <ele>1897.7</ele>
    <time>2026-06-20T11:31:12Z</time>
   </trkpt>
   <trkpt lat="-3.1657510" lon="37.2831440">
    <ele>1897.8</ele>
    <time>2026-06-20T11:31:13Z</time>
   </trkpt>
   <trkpt lat="-3.1657430" lon="37.2831450">
    <ele>1897.8</ele>
    <time>2026-06-20T11:31:14Z</time>
   </trkpt>
   <trkpt lat="-3.1657390" lon="37.2831440">
    <ele>1897.8</ele>
    <time>2026-06-20T11:31:15Z</time>
   </trkpt>
   <trkpt lat="-3.1657300" lon="37.2831450">
    <ele>1897.9</ele>
    <time>2026-06-20T11:31:16Z</time>
   </trkpt>
   <trkpt lat="-3.1657170" lon="37.2831440">
    <ele>1897.9</ele>
    <time>2026-06-20T11:31:17Z</time>
   </trkpt>
   <trkpt lat="-3.1657190" lon="37.2831460">
    <ele>1898.0</ele>
    <time>2026-06-20T11:31:18Z</time>
   </trkpt>
   <trkpt lat="-3.1657110" lon="37.2831470">
    <ele>1898.0</ele>
    <time>2026-06-20T11:31:19Z</time>
   </trkpt>
   <trkpt lat="-3.1657040" lon="37.2831460">
    <ele>1898.0</ele>
    <time>2026-06-20T11:31:20Z</time>
   </trkpt>
   <trkpt lat="-3.1656930" lon="37.2831400">
    <ele>1898.1</ele>
    <time>2026-06-20T11:31:21Z</time>
   </trkpt>
   <trkpt lat="-3.1656830" lon="37.2831390">
    <ele>1898.1</ele>
    <time>2026-06-20T11:31:22Z</time>
   </trkpt>
   <trkpt lat="-3.1656760" lon="37.2831390">
    <ele>1898.1</ele>
    <time>2026-06-20T11:31:23Z</time>
   </trkpt>
   <trkpt lat="-3.1656680" lon="37.2831410">
    <ele>1898.1</ele>
    <time>2026-06-20T11:31:24Z</time>
   </trkpt>
   <trkpt lat="-3.1656570" lon="37.2831410">
    <ele>1898.2</ele>
    <time>2026-06-20T11:31:25Z</time>
   </trkpt>
   <trkpt lat="-3.1656470" lon="37.2831400">
    <ele>1898.2</ele>
    <time>2026-06-20T11:31:26Z</time>
   </trkpt>
   <trkpt lat="-3.1656370" lon="37.2831410">
    <ele>1898.3</ele>
    <time>2026-06-20T11:31:27Z</time>
   </trkpt>
   <trkpt lat="-3.1656270" lon="37.2831420">
    <ele>1898.3</ele>
    <time>2026-06-20T11:31:28Z</time>
   </trkpt>
   <trkpt lat="-3.1656210" lon="37.2831400">
    <ele>1898.3</ele>
    <time>2026-06-20T11:31:29Z</time>
   </trkpt>
   <trkpt lat="-3.1656090" lon="37.2831380">
    <ele>1898.4</ele>
    <time>2026-06-20T11:31:30Z</time>
   </trkpt>
   <trkpt lat="-3.1656040" lon="37.2831370">
    <ele>1898.4</ele>
    <time>2026-06-20T11:31:31Z</time>
   </trkpt>
   <trkpt lat="-3.1655940" lon="37.2831370">
    <ele>1898.5</ele>
    <time>2026-06-20T11:31:32Z</time>
   </trkpt>
   <trkpt lat="-3.1655850" lon="37.2831360">
    <ele>1898.5</ele>
    <time>2026-06-20T11:31:33Z</time>
   </trkpt>
   <trkpt lat="-3.1655780" lon="37.2831380">
    <ele>1898.6</ele>
    <time>2026-06-20T11:31:34Z</time>
   </trkpt>
   <trkpt lat="-3.1655740" lon="37.2831390">
    <ele>1898.6</ele>
    <time>2026-06-20T11:31:35Z</time>
   </trkpt>
   <trkpt lat="-3.1655650" lon="37.2831340">
    <ele>1898.7</ele>
    <time>2026-06-20T11:31:36Z</time>
   </trkpt>
   <trkpt lat="-3.1655570" lon="37.2831360">
    <ele>1898.8</ele>
    <time>2026-06-20T11:31:37Z</time>
   </trkpt>
   <trkpt lat="-3.1655540" lon="37.2831330">
    <ele>1898.8</ele>
    <time>2026-06-20T11:31:38Z</time>
   </trkpt>
   <trkpt lat="-3.1655430" lon="37.2831340">
    <ele>1898.9</ele>
    <time>2026-06-20T11:31:39Z</time>
   </trkpt>
   <trkpt lat="-3.1655350" lon="37.2831340">
    <ele>1899.0</ele>
    <time>2026-06-20T11:31:40Z</time>
   </trkpt>
   <trkpt lat="-3.1655290" lon="37.2831330">
    <ele>1899.0</ele>
    <time>2026-06-20T11:31:41Z</time>
   </trkpt>
   <trkpt lat="-3.1655220" lon="37.2831320">
    <ele>1899.1</ele>
    <time>2026-06-20T11:31:42Z</time>
   </trkpt>
   <trkpt lat="-3.1655130" lon="37.2831340">
    <ele>1899.2</ele>
    <time>2026-06-20T11:31:43Z</time>
   </trkpt>
   <trkpt lat="-3.1655040" lon="37.2831350">
    <ele>1899.3</ele>
    <time>2026-06-20T11:31:44Z</time>
   </trkpt>
   <trkpt lat="-3.1654950" lon="37.2831320">
    <ele>1899.4</ele>
    <time>2026-06-20T11:31:45Z</time>
   </trkpt>
   <trkpt lat="-3.1654860" lon="37.2831310">
    <ele>1899.5</ele>
    <time>2026-06-20T11:31:46Z</time>
   </trkpt>
   <trkpt lat="-3.1654780" lon="37.2831350">
    <ele>1899.6</ele>
    <time>2026-06-20T11:31:47Z</time>
   </trkpt>
   <trkpt lat="-3.1654700" lon="37.2831380">
    <ele>1899.7</ele>
    <time>2026-06-20T11:31:48Z</time>
   </trkpt>
   <trkpt lat="-3.1654610" lon="37.2831360">
    <ele>1899.8</ele>
    <time>2026-06-20T11:31:49Z</time>
   </trkpt>
   <trkpt lat="-3.1654560" lon="37.2831370">
    <ele>1899.9</ele>
    <time>2026-06-20T11:31:50Z</time>
   </trkpt>
   <trkpt lat="-3.1654560" lon="37.2831370">
    <ele>1899.9</ele>
    <time>2026-06-20T11:31:51Z</time>
   </trkpt>
   <trkpt lat="-3.1654480" lon="37.2831380">
    <ele>1900.0</ele>
    <time>2026-06-20T11:31:52Z</time>
   </trkpt>
   <trkpt lat="-3.1654420" lon="37.2831380">
    <ele>1900.1</ele>
    <time>2026-06-20T11:31:53Z</time>
   </trkpt>
   <trkpt lat="-3.1654350" lon="37.2831360">
    <ele>1900.2</ele>
    <time>2026-06-20T11:31:54Z</time>
   </trkpt>
   <trkpt lat="-3.1654230" lon="37.2831400">
    <ele>1900.3</ele>
    <time>2026-06-20T11:31:55Z</time>
   </trkpt>
   <trkpt lat="-3.1654150" lon="37.2831390">
    <ele>1900.5</ele>
    <time>2026-06-20T11:31:56Z</time>
   </trkpt>
   <trkpt lat="-3.1654070" lon="37.2831400">
    <ele>1900.6</ele>
    <time>2026-06-20T11:31:57Z</time>
   </trkpt>
   <trkpt lat="-3.1654000" lon="37.2831460">
    <ele>1900.7</ele>
    <time>2026-06-20T11:31:58Z</time>
   </trkpt>
   <trkpt lat="-3.1653970" lon="37.2831480">
    <ele>1900.8</ele>
    <time>2026-06-20T11:31:59Z</time>
   </trkpt>
   <trkpt lat="-3.1653880" lon="37.2831510">
    <ele>1900.9</ele>
    <time>2026-06-20T11:32:00Z</time>
   </trkpt>
   <trkpt lat="-3.1653830" lon="37.2831500">
    <ele>1901.0</ele>
    <time>2026-06-20T11:32:01Z</time>
   </trkpt>
   <trkpt lat="-3.1653790" lon="37.2831460">
    <ele>1901.1</ele>
    <time>2026-06-20T11:32:02Z</time>
   </trkpt>
   <trkpt lat="-3.1653730" lon="37.2831450">
    <ele>1901.2</ele>
    <time>2026-06-20T11:32:03Z</time>
   </trkpt>
   <trkpt lat="-3.1653680" lon="37.2831400">
    <ele>1901.3</ele>
    <time>2026-06-20T11:32:04Z</time>
   </trkpt>
   <trkpt lat="-3.1653680" lon="37.2831380">
    <ele>1901.3</ele>
    <time>2026-06-20T11:32:05Z</time>
   </trkpt>
   <trkpt lat="-3.1653650" lon="37.2831330">
    <ele>1901.4</ele>
    <time>2026-06-20T11:32:06Z</time>
   </trkpt>
   <trkpt lat="-3.1653580" lon="37.2831330">
    <ele>1901.5</ele>
    <time>2026-06-20T11:32:07Z</time>
   </trkpt>
   <trkpt lat="-3.1653520" lon="37.2831360">
    <ele>1901.7</ele>
    <time>2026-06-20T11:32:08Z</time>
   </trkpt>
   <trkpt lat="-3.1653480" lon="37.2831330">
    <ele>1901.7</ele>
    <time>2026-06-20T11:32:09Z</time>
   </trkpt>
   <trkpt lat="-3.1653440" lon="37.2831270">
    <ele>1901.8</ele>
    <time>2026-06-20T11:32:10Z</time>
   </trkpt>
   <trkpt lat="-3.1653380" lon="37.2831340">
    <ele>1902.0</ele>
    <time>2026-06-20T11:32:11Z</time>
   </trkpt>
   <trkpt lat="-3.1653370" lon="37.2831360">
    <ele>1902.0</ele>
    <time>2026-06-20T11:32:12Z</time>
   </trkpt>
   <trkpt lat="-3.1653340" lon="37.2831410">
    <ele>1902.1</ele>
    <time>2026-06-20T11:32:13Z</time>
   </trkpt>
   <trkpt lat="-3.1653290" lon="37.2831470">
    <ele>1902.2</ele>
    <time>2026-06-20T11:32:14Z</time>
   </trkpt>
   <trkpt lat="-3.1653220" lon="37.2831480">
    <ele>1902.4</ele>
    <time>2026-06-20T11:32:15Z</time>
   </trkpt>
   <trkpt lat="-3.1653160" lon="37.2831500">
    <ele>1902.5</ele>
    <time>2026-06-20T11:32:16Z</time>
   </trkpt>
   <trkpt lat="-3.1653110" lon="37.2831470">
    <ele>1902.6</ele>
    <time>2026-06-20T11:32:17Z</time>
   </trkpt>
   <trkpt lat="-3.1653030" lon="37.2831450">
    <ele>1902.7</ele>
    <time>2026-06-20T11:32:18Z</time>
   </trkpt>
   <trkpt lat="-3.1653010" lon="37.2831450">
    <ele>1902.7</ele>
    <time>2026-06-20T11:32:19Z</time>
   </trkpt>
   <trkpt lat="-3.1652910" lon="37.2831470">
    <ele>1902.9</ele>
    <time>2026-06-20T11:32:20Z</time>
   </trkpt>
   <trkpt lat="-3.1652830" lon="37.2831440">
    <ele>1903.0</ele>
    <time>2026-06-20T11:32:21Z</time>
   </trkpt>
   <trkpt lat="-3.1652780" lon="37.2831470">
    <ele>1903.1</ele>
    <time>2026-06-20T11:32:22Z</time>
   </trkpt>
   <trkpt lat="-3.1652660" lon="37.2831470">
    <ele>1903.3</ele>
    <time>2026-06-20T11:32:23Z</time>
   </trkpt>
   <trkpt lat="-3.1652570" lon="37.2831470">
    <ele>1903.4</ele>
    <time>2026-06-20T11:32:24Z</time>
   </trkpt>
   <trkpt lat="-3.1652520" lon="37.2831500">
    <ele>1903.5</ele>
    <time>2026-06-20T11:32:25Z</time>
   </trkpt>
   <trkpt lat="-3.1652460" lon="37.2831460">
    <ele>1903.6</ele>
    <time>2026-06-20T11:32:26Z</time>
   </trkpt>
   <trkpt lat="-3.1652440" lon="37.2831500">
    <ele>1903.7</ele>
    <time>2026-06-20T11:32:27Z</time>
   </trkpt>
   <trkpt lat="-3.1652400" lon="37.2831510">
    <ele>1903.8</ele>
    <time>2026-06-20T11:32:28Z</time>
   </trkpt>
   <trkpt lat="-3.1652340" lon="37.2831520">
    <ele>1903.9</ele>
    <time>2026-06-20T11:32:29Z</time>
   </trkpt>
   <trkpt lat="-3.1652290" lon="37.2831530">
    <ele>1903.9</ele>
    <time>2026-06-20T11:32:30Z</time>
   </trkpt>
   <trkpt lat="-3.1652200" lon="37.2831510">
    <ele>1904.1</ele>
    <time>2026-06-20T11:32:31Z</time>
   </trkpt>
   <trkpt lat="-3.1652130" lon="37.2831510">
    <ele>1904.2</ele>
    <time>2026-06-20T11:32:32Z</time>
   </trkpt>
   <trkpt lat="-3.1652110" lon="37.2831500">
    <ele>1904.2</ele>
    <time>2026-06-20T11:32:33Z</time>
   </trkpt>
   <trkpt lat="-3.1652130" lon="37.2831590">
    <ele>1904.3</ele>
    <time>2026-06-20T11:32:34Z</time>
   </trkpt>
   <trkpt lat="-3.1652100" lon="37.2831650">
    <ele>1904.4</ele>
    <time>2026-06-20T11:32:35Z</time>
   </trkpt>
   <trkpt lat="-3.1652170" lon="37.2831650">
    <ele>1904.5</ele>
    <time>2026-06-20T11:32:36Z</time>
   </trkpt>
   <trkpt lat="-3.1652110" lon="37.2831700">
    <ele>1904.6</ele>
    <time>2026-06-20T11:32:37Z</time>
   </trkpt>
   <trkpt lat="-3.1652070" lon="37.2831750">
    <ele>1904.7</ele>
    <time>2026-06-20T11:32:38Z</time>
   </trkpt>
   <trkpt lat="-3.1652020" lon="37.2831790">
    <ele>1904.8</ele>
    <time>2026-06-20T11:32:39Z</time>
   </trkpt>
   <trkpt lat="-3.1651920" lon="37.2831850">
    <ele>1904.9</ele>
    <time>2026-06-20T11:32:40Z</time>
   </trkpt>
   <trkpt lat="-3.1651890" lon="37.2831900">
    <ele>1905.0</ele>
    <time>2026-06-20T11:32:41Z</time>
   </trkpt>
   <trkpt lat="-3.1651830" lon="37.2831920">
    <ele>1905.0</ele>
    <time>2026-06-20T11:32:42Z</time>
   </trkpt>
   <trkpt lat="-3.1651820" lon="37.2831960">
    <ele>1905.1</ele>
    <time>2026-06-20T11:32:43Z</time>
   </trkpt>
   <trkpt lat="-3.1651760" lon="37.2832000">
    <ele>1905.2</ele>
    <time>2026-06-20T11:32:44Z</time>
   </trkpt>
   <trkpt lat="-3.1651680" lon="37.2832050">
    <ele>1905.3</ele>
    <time>2026-06-20T11:32:45Z</time>
   </trkpt>
   <trkpt lat="-3.1651610" lon="37.2832060">
    <ele>1905.4</ele>
    <time>2026-06-20T11:32:46Z</time>
   </trkpt>
   <trkpt lat="-3.1651450" lon="37.2832090">
    <ele>1905.5</ele>
    <time>2026-06-20T11:32:47Z</time>
   </trkpt>
   <trkpt lat="-3.1651370" lon="37.2832140">
    <ele>1905.6</ele>
    <time>2026-06-20T11:32:48Z</time>
   </trkpt>
   <trkpt lat="-3.1651300" lon="37.2832210">
    <ele>1905.7</ele>
    <time>2026-06-20T11:32:49Z</time>
   </trkpt>
   <trkpt lat="-3.1651210" lon="37.2832280">
    <ele>1905.8</ele>
    <time>2026-06-20T11:32:50Z</time>
   </trkpt>
   <trkpt lat="-3.1651150" lon="37.2832320">
    <ele>1905.9</ele>
    <time>2026-06-20T11:32:51Z</time>
   </trkpt>
   <trkpt lat="-3.1651070" lon="37.2832330">
    <ele>1906.0</ele>
    <time>2026-06-20T11:32:52Z</time>
   </trkpt>
   <trkpt lat="-3.1650970" lon="37.2832410">
    <ele>1906.1</ele>
    <time>2026-06-20T11:32:53Z</time>
   </trkpt>
   <trkpt lat="-3.1650870" lon="37.2832450">
    <ele>1906.2</ele>
    <time>2026-06-20T11:32:54Z</time>
   </trkpt>
   <trkpt lat="-3.1650810" lon="37.2832480">
    <ele>1906.2</ele>
    <time>2026-06-20T11:32:55Z</time>
   </trkpt>
   <trkpt lat="-3.1650750" lon="37.2832520">
    <ele>1906.3</ele>
    <time>2026-06-20T11:32:56Z</time>
   </trkpt>
   <trkpt lat="-3.1650630" lon="37.2832600">
    <ele>1906.4</ele>
    <time>2026-06-20T11:32:57Z</time>
   </trkpt>
   <trkpt lat="-3.1650540" lon="37.2832580">
    <ele>1906.4</ele>
    <time>2026-06-20T11:32:58Z</time>
   </trkpt>
   <trkpt lat="-3.1650460" lon="37.2832620">
    <ele>1906.5</ele>
    <time>2026-06-20T11:32:59Z</time>
   </trkpt>
   <trkpt lat="-3.1650380" lon="37.2832620">
    <ele>1906.6</ele>
    <time>2026-06-20T11:33:00Z</time>
   </trkpt>
   <trkpt lat="-3.1650240" lon="37.2832650">
    <ele>1906.7</ele>
    <time>2026-06-20T11:33:01Z</time>
   </trkpt>
   <trkpt lat="-3.1650150" lon="37.2832680">
    <ele>1906.7</ele>
    <time>2026-06-20T11:33:02Z</time>
   </trkpt>
   <trkpt lat="-3.1650040" lon="37.2832650">
    <ele>1906.8</ele>
    <time>2026-06-20T11:33:03Z</time>
   </trkpt>
   <trkpt lat="-3.1649950" lon="37.2832710">
    <ele>1906.8</ele>
    <time>2026-06-20T11:33:04Z</time>
   </trkpt>
   <trkpt lat="-3.1649890" lon="37.2832680">
    <ele>1906.9</ele>
    <time>2026-06-20T11:33:05Z</time>
   </trkpt>
   <trkpt lat="-3.1649820" lon="37.2832700">
    <ele>1906.9</ele>
    <time>2026-06-20T11:33:06Z</time>
   </trkpt>
   <trkpt lat="-3.1649790" lon="37.2832700">
    <ele>1907.0</ele>
    <time>2026-06-20T11:33:07Z</time>
   </trkpt>
   <trkpt lat="-3.1649740" lon="37.2832690">
    <ele>1907.0</ele>
    <time>2026-06-20T11:33:08Z</time>
   </trkpt>
   <trkpt lat="-3.1649670" lon="37.2832730">
    <ele>1907.0</ele>
    <time>2026-06-20T11:33:09Z</time>
   </trkpt>
   <trkpt lat="-3.1649590" lon="37.2832740">
    <ele>1907.1</ele>
    <time>2026-06-20T11:33:10Z</time>
   </trkpt>
   <trkpt lat="-3.1649570" lon="37.2832750">
    <ele>1907.1</ele>
    <time>2026-06-20T11:33:11Z</time>
   </trkpt>
   <trkpt lat="-3.1649550" lon="37.2832820">
    <ele>1907.1</ele>
    <time>2026-06-20T11:33:12Z</time>
   </trkpt>
   <trkpt lat="-3.1649480" lon="37.2832850">
    <ele>1907.2</ele>
    <time>2026-06-20T11:33:13Z</time>
   </trkpt>
   <trkpt lat="-3.1649390" lon="37.2832850">
    <ele>1907.2</ele>
    <time>2026-06-20T11:33:14Z</time>
   </trkpt>
   <trkpt lat="-3.1649310" lon="37.2832860">
    <ele>1907.3</ele>
    <time>2026-06-20T11:33:15Z</time>
   </trkpt>
   <trkpt lat="-3.1649230" lon="37.2832900">
    <ele>1907.3</ele>
    <time>2026-06-20T11:33:16Z</time>
   </trkpt>
   <trkpt lat="-3.1649110" lon="37.2832940">
    <ele>1907.4</ele>
    <time>2026-06-20T11:33:17Z</time>
   </trkpt>
   <trkpt lat="-3.1649010" lon="37.2832970">
    <ele>1907.5</ele>
    <time>2026-06-20T11:33:18Z</time>
   </trkpt>
   <trkpt lat="-3.1648990" lon="37.2833010">
    <ele>1907.5</ele>
    <time>2026-06-20T11:33:19Z</time>
   </trkpt>
   <trkpt lat="-3.1648910" lon="37.2833050">
    <ele>1907.6</ele>
    <time>2026-06-20T11:33:20Z</time>
   </trkpt>
   <trkpt lat="-3.1648760" lon="37.2832990">
    <ele>1907.7</ele>
    <time>2026-06-20T11:33:21Z</time>
   </trkpt>
   <trkpt lat="-3.1648820" lon="37.2833080">
    <ele>1907.8</ele>
    <time>2026-06-20T11:33:22Z</time>
   </trkpt>
   <trkpt lat="-3.1648730" lon="37.2833080">
    <ele>1907.8</ele>
    <time>2026-06-20T11:33:23Z</time>
   </trkpt>
   <trkpt lat="-3.1648600" lon="37.2833140">
    <ele>1907.9</ele>
    <time>2026-06-20T11:33:24Z</time>
   </trkpt>
   <trkpt lat="-3.1648550" lon="37.2833170">
    <ele>1908.0</ele>
    <time>2026-06-20T11:33:25Z</time>
   </trkpt>
   <trkpt lat="-3.1648490" lon="37.2833170">
    <ele>1908.0</ele>
    <time>2026-06-20T11:33:26Z</time>
   </trkpt>
   <trkpt lat="-3.1648360" lon="37.2833130">
    <ele>1908.2</ele>
    <time>2026-06-20T11:33:27Z</time>
   </trkpt>
   <trkpt lat="-3.1648290" lon="37.2833080">
    <ele>1908.2</ele>
    <time>2026-06-20T11:33:28Z</time>
   </trkpt>
   <trkpt lat="-3.1648200" lon="37.2833070">
    <ele>1908.3</ele>
    <time>2026-06-20T11:33:29Z</time>
   </trkpt>
   <trkpt lat="-3.1648110" lon="37.2833120">
    <ele>1908.4</ele>
    <time>2026-06-20T11:33:30Z</time>
   </trkpt>
   <trkpt lat="-3.1648060" lon="37.2833170">
    <ele>1908.5</ele>
    <time>2026-06-20T11:33:31Z</time>
   </trkpt>
   <trkpt lat="-3.1647980" lon="37.2833200">
    <ele>1908.6</ele>
    <time>2026-06-20T11:33:32Z</time>
   </trkpt>
   <trkpt lat="-3.1647940" lon="37.2833250">
    <ele>1908.6</ele>
    <time>2026-06-20T11:33:33Z</time>
   </trkpt>
   <trkpt lat="-3.1647850" lon="37.2833310">
    <ele>1908.8</ele>
    <time>2026-06-20T11:33:34Z</time>
   </trkpt>
   <trkpt lat="-3.1647850" lon="37.2833330">
    <ele>1908.8</ele>
    <time>2026-06-20T11:33:35Z</time>
   </trkpt>
   <trkpt lat="-3.1647770" lon="37.2833350">
    <ele>1908.9</ele>
    <time>2026-06-20T11:33:36Z</time>
   </trkpt>
   <trkpt lat="-3.1647700" lon="37.2833370">
    <ele>1909.0</ele>
    <time>2026-06-20T11:33:37Z</time>
   </trkpt>
   <trkpt lat="-3.1647720" lon="37.2833410">
    <ele>1909.0</ele>
    <time>2026-06-20T11:33:38Z</time>
   </trkpt>
   <trkpt lat="-3.1647670" lon="37.2833430">
    <ele>1909.1</ele>
    <time>2026-06-20T11:33:39Z</time>
   </trkpt>
   <trkpt lat="-3.1647620" lon="37.2833460">
    <ele>1909.2</ele>
    <time>2026-06-20T11:33:40Z</time>
   </trkpt>
   <trkpt lat="-3.1647540" lon="37.2833470">
    <ele>1909.2</ele>
    <time>2026-06-20T11:33:41Z</time>
   </trkpt>
   <trkpt lat="-3.1647470" lon="37.2833510">
    <ele>1909.3</ele>
    <time>2026-06-20T11:33:42Z</time>
   </trkpt>
   <trkpt lat="-3.1647470" lon="37.2833540">
    <ele>1909.4</ele>
    <time>2026-06-20T11:33:43Z</time>
   </trkpt>
   <trkpt lat="-3.1647450" lon="37.2833590">
    <ele>1909.5</ele>
    <time>2026-06-20T11:33:44Z</time>
   </trkpt>
   <trkpt lat="-3.1647440" lon="37.2833630">
    <ele>1909.5</ele>
    <time>2026-06-20T11:33:45Z</time>
   </trkpt>
   <trkpt lat="-3.1647420" lon="37.2833620">
    <ele>1909.5</ele>
    <time>2026-06-20T11:33:46Z</time>
   </trkpt>
   <trkpt lat="-3.1647390" lon="37.2833620">
    <ele>1909.6</ele>
    <time>2026-06-20T11:33:47Z</time>
   </trkpt>
   <trkpt lat="-3.1647290" lon="37.2833650">
    <ele>1909.7</ele>
    <time>2026-06-20T11:33:48Z</time>
   </trkpt>
   <trkpt lat="-3.1647250" lon="37.2833670">
    <ele>1909.8</ele>
    <time>2026-06-20T11:33:49Z</time>
   </trkpt>
   <trkpt lat="-3.1647200" lon="37.2833690">
    <ele>1909.9</ele>
    <time>2026-06-20T11:33:50Z</time>
   </trkpt>
   <trkpt lat="-3.1647090" lon="37.2833750">
    <ele>1910.0</ele>
    <time>2026-06-20T11:33:51Z</time>
   </trkpt>
   <trkpt lat="-3.1647040" lon="37.2833780">
    <ele>1910.1</ele>
    <time>2026-06-20T11:33:52Z</time>
   </trkpt>
   <trkpt lat="-3.1646970" lon="37.2833820">
    <ele>1910.2</ele>
    <time>2026-06-20T11:33:53Z</time>
   </trkpt>
   <trkpt lat="-3.1646880" lon="37.2833860">
    <ele>1910.4</ele>
    <time>2026-06-20T11:33:54Z</time>
   </trkpt>
   <trkpt lat="-3.1646780" lon="37.2833890">
    <ele>1910.5</ele>
    <time>2026-06-20T11:33:55Z</time>
   </trkpt>
   <trkpt lat="-3.1646700" lon="37.2833920">
    <ele>1910.7</ele>
    <time>2026-06-20T11:33:56Z</time>
   </trkpt>
   <trkpt lat="-3.1646630" lon="37.2833970">
    <ele>1910.8</ele>
    <time>2026-06-20T11:33:57Z</time>
   </trkpt>
   <trkpt lat="-3.1646580" lon="37.2833990">
    <ele>1910.9</ele>
    <time>2026-06-20T11:33:58Z</time>
   </trkpt>
   <trkpt lat="-3.1646500" lon="37.2834050">
    <ele>1911.0</ele>
    <time>2026-06-20T11:33:59Z</time>
   </trkpt>
   <trkpt lat="-3.1646490" lon="37.2834070">
    <ele>1911.1</ele>
    <time>2026-06-20T11:34:00Z</time>
   </trkpt>
   <trkpt lat="-3.1646460" lon="37.2834080">
    <ele>1911.1</ele>
    <time>2026-06-20T11:34:01Z</time>
   </trkpt>
   <trkpt lat="-3.1646390" lon="37.2834130">
    <ele>1911.2</ele>
    <time>2026-06-20T11:34:02Z</time>
   </trkpt>
   <trkpt lat="-3.1646340" lon="37.2834250">
    <ele>1911.4</ele>
    <time>2026-06-20T11:34:03Z</time>
   </trkpt>
   <trkpt lat="-3.1646300" lon="37.2834250">
    <ele>1911.5</ele>
    <time>2026-06-20T11:34:04Z</time>
   </trkpt>
   <trkpt lat="-3.1646310" lon="37.2834250">
    <ele>1911.5</ele>
    <time>2026-06-20T11:34:05Z</time>
   </trkpt>
   <trkpt lat="-3.1646220" lon="37.2834220">
    <ele>1911.7</ele>
    <time>2026-06-20T11:34:06Z</time>
   </trkpt>
   <trkpt lat="-3.1646220" lon="37.2834350">
    <ele>1911.9</ele>
    <time>2026-06-20T11:34:07Z</time>
   </trkpt>
   <trkpt lat="-3.1646140" lon="37.2834430">
    <ele>1912.0</ele>
    <time>2026-06-20T11:34:08Z</time>
   </trkpt>
   <trkpt lat="-3.1646070" lon="37.2834400">
    <ele>1912.1</ele>
    <time>2026-06-20T11:34:09Z</time>
   </trkpt>
   <trkpt lat="-3.1646040" lon="37.2834430">
    <ele>1912.2</ele>
    <time>2026-06-20T11:34:10Z</time>
   </trkpt>
   <trkpt lat="-3.1645970" lon="37.2834410">
    <ele>1912.3</ele>
    <time>2026-06-20T11:34:11Z</time>
   </trkpt>
   <trkpt lat="-3.1645960" lon="37.2834510">
    <ele>1912.5</ele>
    <time>2026-06-20T11:34:12Z</time>
   </trkpt>
   <trkpt lat="-3.1645920" lon="37.2834500">
    <ele>1912.5</ele>
    <time>2026-06-20T11:34:13Z</time>
   </trkpt>
   <trkpt lat="-3.1645860" lon="37.2834490">
    <ele>1912.6</ele>
    <time>2026-06-20T11:34:14Z</time>
   </trkpt>
   <trkpt lat="-3.1645820" lon="37.2834510">
    <ele>1912.7</ele>
    <time>2026-06-20T11:34:15Z</time>
   </trkpt>
   <trkpt lat="-3.1645730" lon="37.2834530">
    <ele>1912.8</ele>
    <time>2026-06-20T11:34:16Z</time>
   </trkpt>
   <trkpt lat="-3.1645680" lon="37.2834550">
    <ele>1912.9</ele>
    <time>2026-06-20T11:34:17Z</time>
   </trkpt>
   <trkpt lat="-3.1645580" lon="37.2834540">
    <ele>1913.1</ele>
    <time>2026-06-20T11:34:18Z</time>
   </trkpt>
   <trkpt lat="-3.1645530" lon="37.2834570">
    <ele>1913.2</ele>
    <time>2026-06-20T11:34:19Z</time>
   </trkpt>
   <trkpt lat="-3.1645450" lon="37.2834630">
    <ele>1913.3</ele>
    <time>2026-06-20T11:34:20Z</time>
   </trkpt>
   <trkpt lat="-3.1645410" lon="37.2834700">
    <ele>1913.5</ele>
    <time>2026-06-20T11:34:21Z</time>
   </trkpt>
   <trkpt lat="-3.1645310" lon="37.2834720">
    <ele>1913.6</ele>
    <time>2026-06-20T11:34:22Z</time>
   </trkpt>
   <trkpt lat="-3.1645290" lon="37.2834740">
    <ele>1913.7</ele>
    <time>2026-06-20T11:34:23Z</time>
   </trkpt>
   <trkpt lat="-3.1645260" lon="37.2834760">
    <ele>1913.7</ele>
    <time>2026-06-20T11:34:24Z</time>
   </trkpt>
   <trkpt lat="-3.1645200" lon="37.2834820">
    <ele>1913.9</ele>
    <time>2026-06-20T11:34:25Z</time>
   </trkpt>
   <trkpt lat="-3.1645150" lon="37.2834860">
    <ele>1914.0</ele>
    <time>2026-06-20T11:34:26Z</time>
   </trkpt>
   <trkpt lat="-3.1645130" lon="37.2834900">
    <ele>1914.0</ele>
    <time>2026-06-20T11:34:27Z</time>
   </trkpt>
   <trkpt lat="-3.1645060" lon="37.2835000">
    <ele>1914.3</ele>
    <time>2026-06-20T11:34:28Z</time>
   </trkpt>
   <trkpt lat="-3.1645070" lon="37.2835030">
    <ele>1914.3</ele>
    <time>2026-06-20T11:34:29Z</time>
   </trkpt>
   <trkpt lat="-3.1645050" lon="37.2835050">
    <ele>1914.3</ele>
    <time>2026-06-20T11:34:30Z</time>
   </trkpt>
   <trkpt lat="-3.1644960" lon="37.2835080">
    <ele>1914.5</ele>
    <time>2026-06-20T11:34:31Z</time>
   </trkpt>
   <trkpt lat="-3.1644890" lon="37.2835090">
    <ele>1914.6</ele>
    <time>2026-06-20T11:34:32Z</time>
   </trkpt>
   <trkpt lat="-3.1644820" lon="37.2835130">
    <ele>1914.8</ele>
    <time>2026-06-20T11:34:33Z</time>
   </trkpt>
   <trkpt lat="-3.1644740" lon="37.2835180">
    <ele>1914.9</ele>
    <time>2026-06-20T11:34:34Z</time>
   </trkpt>
   <trkpt lat="-3.1644710" lon="37.2835240">
    <ele>1915.0</ele>
    <time>2026-06-20T11:34:35Z</time>
   </trkpt>
   <trkpt lat="-3.1644680" lon="37.2835280">
    <ele>1915.1</ele>
    <time>2026-06-20T11:34:36Z</time>
   </trkpt>
   <trkpt lat="-3.1644670" lon="37.2835310">
    <ele>1915.2</ele>
    <time>2026-06-20T11:34:37Z</time>
   </trkpt>
   <trkpt lat="-3.1644580" lon="37.2835370">
    <ele>1915.3</ele>
    <time>2026-06-20T11:34:38Z</time>
   </trkpt>
   <trkpt lat="-3.1644570" lon="37.2835460">
    <ele>1915.5</ele>
    <time>2026-06-20T11:34:39Z</time>
   </trkpt>
   <trkpt lat="-3.1644520" lon="37.2835500">
    <ele>1915.6</ele>
    <time>2026-06-20T11:34:40Z</time>
   </trkpt>
   <trkpt lat="-3.1644490" lon="37.2835520">
    <ele>1915.7</ele>
    <time>2026-06-20T11:34:41Z</time>
   </trkpt>
   <trkpt lat="-3.1644430" lon="37.2835600">
    <ele>1915.8</ele>
    <time>2026-06-20T11:34:42Z</time>
   </trkpt>
   <trkpt lat="-3.1644410" lon="37.2835630">
    <ele>1915.9</ele>
    <time>2026-06-20T11:34:43Z</time>
   </trkpt>
   <trkpt lat="-3.1644330" lon="37.2835710">
    <ele>1916.1</ele>
    <time>2026-06-20T11:34:44Z</time>
   </trkpt>
   <trkpt lat="-3.1644320" lon="37.2835750">
    <ele>1916.1</ele>
    <time>2026-06-20T11:34:45Z</time>
   </trkpt>
   <trkpt lat="-3.1644260" lon="37.2835790">
    <ele>1916.3</ele>
    <time>2026-06-20T11:34:46Z</time>
   </trkpt>
   <trkpt lat="-3.1644210" lon="37.2835800">
    <ele>1916.3</ele>
    <time>2026-06-20T11:34:47Z</time>
   </trkpt>
   <trkpt lat="-3.1644170" lon="37.2835820">
    <ele>1916.4</ele>
    <time>2026-06-20T11:34:48Z</time>
   </trkpt>
   <trkpt lat="-3.1644110" lon="37.2835850">
    <ele>1916.5</ele>
    <time>2026-06-20T11:34:49Z</time>
   </trkpt>
   <trkpt lat="-3.1644050" lon="37.2835880">
    <ele>1916.6</ele>
    <time>2026-06-20T11:34:50Z</time>
   </trkpt>
   <trkpt lat="-3.1643980" lon="37.2835920">
    <ele>1916.8</ele>
    <time>2026-06-20T11:34:51Z</time>
   </trkpt>
   <trkpt lat="-3.1644010" lon="37.2835900">
    <ele>1916.8</ele>
    <time>2026-06-20T11:34:52Z</time>
   </trkpt>
   <trkpt lat="-3.1643990" lon="37.2835920">
    <ele>1916.9</ele>
    <time>2026-06-20T11:34:53Z</time>
   </trkpt>
   <trkpt lat="-3.1643920" lon="37.2835920">
    <ele>1917.0</ele>
    <time>2026-06-20T11:34:54Z</time>
   </trkpt>
   <trkpt lat="-3.1643910" lon="37.2835890">
    <ele>1917.0</ele>
    <time>2026-06-20T11:34:55Z</time>
   </trkpt>
   <trkpt lat="-3.1643830" lon="37.2835930">
    <ele>1917.2</ele>
    <time>2026-06-20T11:34:56Z</time>
   </trkpt>
   <trkpt lat="-3.1643810" lon="37.2835950">
    <ele>1917.2</ele>
    <time>2026-06-20T11:34:57Z</time>
   </trkpt>
   <trkpt lat="-3.1643830" lon="37.2835990">
    <ele>1917.3</ele>
    <time>2026-06-20T11:34:58Z</time>
   </trkpt>
   <trkpt lat="-3.1643780" lon="37.2836040">
    <ele>1917.4</ele>
    <time>2026-06-20T11:34:59Z</time>
   </trkpt>
   <trkpt lat="-3.1643760" lon="37.2836130">
    <ele>1917.5</ele>
    <time>2026-06-20T11:35:00Z</time>
   </trkpt>
   <trkpt lat="-3.1643770" lon="37.2836170">
    <ele>1917.6</ele>
    <time>2026-06-20T11:35:01Z</time>
   </trkpt>
   <trkpt lat="-3.1643770" lon="37.2836190">
    <ele>1917.6</ele>
    <time>2026-06-20T11:35:02Z</time>
   </trkpt>
   <trkpt lat="-3.1643760" lon="37.2836260">
    <ele>1917.8</ele>
    <time>2026-06-20T11:35:03Z</time>
   </trkpt>
   <trkpt lat="-3.1643700" lon="37.2836360">
    <ele>1917.9</ele>
    <time>2026-06-20T11:35:04Z</time>
   </trkpt>
   <trkpt lat="-3.1643720" lon="37.2836410">
    <ele>1918.0</ele>
    <time>2026-06-20T11:35:05Z</time>
   </trkpt>
   <trkpt lat="-3.1643700" lon="37.2836440">
    <ele>1918.1</ele>
    <time>2026-06-20T11:35:06Z</time>
   </trkpt>
   <trkpt lat="-3.1643670" lon="37.2836470">
    <ele>1918.2</ele>
    <time>2026-06-20T11:35:07Z</time>
   </trkpt>
   <trkpt lat="-3.1643690" lon="37.2836480">
    <ele>1918.2</ele>
    <time>2026-06-20T11:35:08Z</time>
   </trkpt>
   <trkpt lat="-3.1643660" lon="37.2836540">
    <ele>1918.3</ele>
    <time>2026-06-20T11:35:09Z</time>
   </trkpt>
   <trkpt lat="-3.1643630" lon="37.2836550">
    <ele>1918.3</ele>
    <time>2026-06-20T11:35:10Z</time>
   </trkpt>
   <trkpt lat="-3.1643630" lon="37.2836560">
    <ele>1918.4</ele>
    <time>2026-06-20T11:35:11Z</time>
   </trkpt>
   <trkpt lat="-3.1643620" lon="37.2836590">
    <ele>1918.4</ele>
    <time>2026-06-20T11:35:12Z</time>
   </trkpt>
   <trkpt lat="-3.1643600" lon="37.2836600">
    <ele>1918.4</ele>
    <time>2026-06-20T11:35:13Z</time>
   </trkpt>
   <trkpt lat="-3.1643560" lon="37.2836690">
    <ele>1918.6</ele>
    <time>2026-06-20T11:35:14Z</time>
   </trkpt>
   <trkpt lat="-3.1643550" lon="37.2836750">
    <ele>1918.7</ele>
    <time>2026-06-20T11:35:15Z</time>
   </trkpt>
   <trkpt lat="-3.1643530" lon="37.2836840">
    <ele>1918.8</ele>
    <time>2026-06-20T11:35:16Z</time>
   </trkpt>
   <trkpt lat="-3.1643530" lon="37.2836930">
    <ele>1919.0</ele>
    <time>2026-06-20T11:35:17Z</time>
   </trkpt>
   <trkpt lat="-3.1643580" lon="37.2836970">
    <ele>1919.1</ele>
    <time>2026-06-20T11:35:18Z</time>
   </trkpt>
   <trkpt lat="-3.1643540" lon="37.2837050">
    <ele>1919.2</ele>
    <time>2026-06-20T11:35:19Z</time>
   </trkpt>
   <trkpt lat="-3.1643540" lon="37.2837130">
    <ele>1919.4</ele>
    <time>2026-06-20T11:35:20Z</time>
   </trkpt>
   <trkpt lat="-3.1643480" lon="37.2837190">
    <ele>1919.5</ele>
    <time>2026-06-20T11:35:21Z</time>
   </trkpt>
   <trkpt lat="-3.1643430" lon="37.2837270">
    <ele>1919.6</ele>
    <time>2026-06-20T11:35:22Z</time>
   </trkpt>
   <trkpt lat="-3.1643410" lon="37.2837310">
    <ele>1919.7</ele>
    <time>2026-06-20T11:35:23Z</time>
   </trkpt>
   <trkpt lat="-3.1643400" lon="37.2837380">
    <ele>1919.8</ele>
    <time>2026-06-20T11:35:24Z</time>
   </trkpt>
   <trkpt lat="-3.1643360" lon="37.2837440">
    <ele>1919.9</ele>
    <time>2026-06-20T11:35:25Z</time>
   </trkpt>
   <trkpt lat="-3.1643330" lon="37.2837490">
    <ele>1920.0</ele>
    <time>2026-06-20T11:35:26Z</time>
   </trkpt>
   <trkpt lat="-3.1643250" lon="37.2837580">
    <ele>1920.2</ele>
    <time>2026-06-20T11:35:27Z</time>
   </trkpt>
   <trkpt lat="-3.1643260" lon="37.2837630">
    <ele>1920.3</ele>
    <time>2026-06-20T11:35:28Z</time>
   </trkpt>
   <trkpt lat="-3.1643170" lon="37.2837680">
    <ele>1920.5</ele>
    <time>2026-06-20T11:35:29Z</time>
   </trkpt>
   <trkpt lat="-3.1643080" lon="37.2837770">
    <ele>1920.7</ele>
    <time>2026-06-20T11:35:30Z</time>
   </trkpt>
   <trkpt lat="-3.1643100" lon="37.2837750">
    <ele>1920.7</ele>
    <time>2026-06-20T11:35:31Z</time>
   </trkpt>
   <trkpt lat="-3.1642950" lon="37.2837790">
    <ele>1921.0</ele>
    <time>2026-06-20T11:35:32Z</time>
   </trkpt>
   <trkpt lat="-3.1642870" lon="37.2837820">
    <ele>1921.1</ele>
    <time>2026-06-20T11:35:33Z</time>
   </trkpt>
   <trkpt lat="-3.1642890" lon="37.2837840">
    <ele>1921.1</ele>
    <time>2026-06-20T11:35:34Z</time>
   </trkpt>
   <trkpt lat="-3.1642830" lon="37.2837860">
    <ele>1921.3</ele>
    <time>2026-06-20T11:35:35Z</time>
   </trkpt>
   <trkpt lat="-3.1642840" lon="37.2837880">
    <ele>1921.3</ele>
    <time>2026-06-20T11:35:36Z</time>
   </trkpt>
   <trkpt lat="-3.1642790" lon="37.2837900">
    <ele>1921.4</ele>
    <time>2026-06-20T11:35:37Z</time>
   </trkpt>
   <trkpt lat="-3.1642730" lon="37.2837960">
    <ele>1921.5</ele>
    <time>2026-06-20T11:35:38Z</time>
   </trkpt>
   <trkpt lat="-3.1642740" lon="37.2838000">
    <ele>1921.6</ele>
    <time>2026-06-20T11:35:39Z</time>
   </trkpt>
   <trkpt lat="-3.1642740" lon="37.2838040">
    <ele>1921.7</ele>
    <time>2026-06-20T11:35:40Z</time>
   </trkpt>
   <trkpt lat="-3.1642720" lon="37.2838060">
    <ele>1921.7</ele>
    <time>2026-06-20T11:35:41Z</time>
   </trkpt>
   <trkpt lat="-3.1642670" lon="37.2838060">
    <ele>1921.8</ele>
    <time>2026-06-20T11:35:42Z</time>
   </trkpt>
   <trkpt lat="-3.1642640" lon="37.2838090">
    <ele>1921.9</ele>
    <time>2026-06-20T11:35:43Z</time>
   </trkpt>
   <trkpt lat="-3.1642580" lon="37.2838150">
    <ele>1922.0</ele>
    <time>2026-06-20T11:35:44Z</time>
   </trkpt>
   <trkpt lat="-3.1642490" lon="37.2838190">
    <ele>1922.2</ele>
    <time>2026-06-20T11:35:45Z</time>
   </trkpt>
   <trkpt lat="-3.1642450" lon="37.2838230">
    <ele>1922.3</ele>
    <time>2026-06-20T11:35:46Z</time>
   </trkpt>
   <trkpt lat="-3.1642390" lon="37.2838280">
    <ele>1922.5</ele>
    <time>2026-06-20T11:35:47Z</time>
   </trkpt>
   <trkpt lat="-3.1642350" lon="37.2838340">
    <ele>1922.6</ele>
    <time>2026-06-20T11:35:48Z</time>
   </trkpt>
   <trkpt lat="-3.1642320" lon="37.2838390">
    <ele>1922.7</ele>
    <time>2026-06-20T11:35:49Z</time>
   </trkpt>
   <trkpt lat="-3.1642320" lon="37.2838480">
    <ele>1922.9</ele>
    <time>2026-06-20T11:35:50Z</time>
   </trkpt>
   <trkpt lat="-3.1642320" lon="37.2838560">
    <ele>1923.0</ele>
    <time>2026-06-20T11:35:51Z</time>
   </trkpt>
   <trkpt lat="-3.1642260" lon="37.2838580">
    <ele>1923.1</ele>
    <time>2026-06-20T11:35:52Z</time>
   </trkpt>
   <trkpt lat="-3.1642210" lon="37.2838580">
    <ele>1923.2</ele>
    <time>2026-06-20T11:35:53Z</time>
   </trkpt>
   <trkpt lat="-3.1642150" lon="37.2838570">
    <ele>1923.4</ele>
    <time>2026-06-20T11:35:54Z</time>
   </trkpt>
   <trkpt lat="-3.1642120" lon="37.2838600">
    <ele>1923.4</ele>
    <time>2026-06-20T11:35:55Z</time>
   </trkpt>
   <trkpt lat="-3.1642040" lon="37.2838630">
    <ele>1923.6</ele>
    <time>2026-06-20T11:35:56Z</time>
   </trkpt>
   <trkpt lat="-3.1641980" lon="37.2838700">
    <ele>1923.8</ele>
    <time>2026-06-20T11:35:57Z</time>
   </trkpt>
   <trkpt lat="-3.1641930" lon="37.2838690">
    <ele>1923.9</ele>
    <time>2026-06-20T11:35:58Z</time>
   </trkpt>
   <trkpt lat="-3.1641840" lon="37.2838700">
    <ele>1924.1</ele>
    <time>2026-06-20T11:35:59Z</time>
   </trkpt>
   <trkpt lat="-3.1641810" lon="37.2838700">
    <ele>1924.1</ele>
    <time>2026-06-20T11:36:00Z</time>
   </trkpt>
   <trkpt lat="-3.1641770" lon="37.2838760">
    <ele>1924.3</ele>
    <time>2026-06-20T11:36:01Z</time>
   </trkpt>
   <trkpt lat="-3.1641700" lon="37.2838810">
    <ele>1924.5</ele>
    <time>2026-06-20T11:36:02Z</time>
   </trkpt>
   <trkpt lat="-3.1641660" lon="37.2838810">
    <ele>1924.6</ele>
    <time>2026-06-20T11:36:03Z</time>
   </trkpt>
   <trkpt lat="-3.1641600" lon="37.2838850">
    <ele>1924.7</ele>
    <time>2026-06-20T11:36:04Z</time>
   </trkpt>
   <trkpt lat="-3.1641540" lon="37.2838870">
    <ele>1924.8</ele>
    <time>2026-06-20T11:36:05Z</time>
   </trkpt>
   <trkpt lat="-3.1641470" lon="37.2838860">
    <ele>1925.0</ele>
    <time>2026-06-20T11:36:06Z</time>
   </trkpt>
   <trkpt lat="-3.1641430" lon="37.2838860">
    <ele>1925.1</ele>
    <time>2026-06-20T11:36:07Z</time>
   </trkpt>
   <trkpt lat="-3.1641380" lon="37.2838850">
    <ele>1925.2</ele>
    <time>2026-06-20T11:36:08Z</time>
   </trkpt>
   <trkpt lat="-3.1641360" lon="37.2838850">
    <ele>1925.2</ele>
    <time>2026-06-20T11:36:09Z</time>
   </trkpt>
   <trkpt lat="-3.1641300" lon="37.2838940">
    <ele>1925.4</ele>
    <time>2026-06-20T11:36:10Z</time>
   </trkpt>
   <trkpt lat="-3.1641270" lon="37.2839020">
    <ele>1925.6</ele>
    <time>2026-06-20T11:36:11Z</time>
   </trkpt>
   <trkpt lat="-3.1641180" lon="37.2838980">
    <ele>1925.8</ele>
    <time>2026-06-20T11:36:12Z</time>
   </trkpt>
   <trkpt lat="-3.1641180" lon="37.2839000">
    <ele>1925.9</ele>
    <time>2026-06-20T11:36:13Z</time>
   </trkpt>
   <trkpt lat="-3.1641120" lon="37.2838990">
    <ele>1926.0</ele>
    <time>2026-06-20T11:36:14Z</time>
   </trkpt>
   <trkpt lat="-3.1641070" lon="37.2838980">
    <ele>1926.1</ele>
    <time>2026-06-20T11:36:15Z</time>
   </trkpt>
   <trkpt lat="-3.1640910" lon="37.2839000">
    <ele>1926.4</ele>
    <time>2026-06-20T11:36:16Z</time>
   </trkpt>
   <trkpt lat="-3.1640850" lon="37.2838970">
    <ele>1926.5</ele>
    <time>2026-06-20T11:36:17Z</time>
   </trkpt>
   <trkpt lat="-3.1640750" lon="37.2838970">
    <ele>1926.7</ele>
    <time>2026-06-20T11:36:18Z</time>
   </trkpt>
   <trkpt lat="-3.1640680" lon="37.2838980">
    <ele>1926.9</ele>
    <time>2026-06-20T11:36:19Z</time>
   </trkpt>
   <trkpt lat="-3.1640560" lon="37.2838980">
    <ele>1927.1</ele>
    <time>2026-06-20T11:36:20Z</time>
   </trkpt>
   <trkpt lat="-3.1640500" lon="37.2838980">
    <ele>1927.2</ele>
    <time>2026-06-20T11:36:21Z</time>
   </trkpt>
   <trkpt lat="-3.1640380" lon="37.2838970">
    <ele>1927.4</ele>
    <time>2026-06-20T11:36:22Z</time>
   </trkpt>
   <trkpt lat="-3.1640330" lon="37.2838970">
    <ele>1927.5</ele>
    <time>2026-06-20T11:36:23Z</time>
   </trkpt>
   <trkpt lat="-3.1640240" lon="37.2839010">
    <ele>1927.7</ele>
    <time>2026-06-20T11:36:24Z</time>
   </trkpt>
   <trkpt lat="-3.1640170" lon="37.2839010">
    <ele>1927.8</ele>
    <time>2026-06-20T11:36:25Z</time>
   </trkpt>
   <trkpt lat="-3.1640130" lon="37.2839000">
    <ele>1927.9</ele>
    <time>2026-06-20T11:36:26Z</time>
   </trkpt>
   <trkpt lat="-3.1640060" lon="37.2838990">
    <ele>1928.0</ele>
    <time>2026-06-20T11:36:27Z</time>
   </trkpt>
   <trkpt lat="-3.1639990" lon="37.2838970">
    <ele>1928.1</ele>
    <time>2026-06-20T11:36:28Z</time>
   </trkpt>
   <trkpt lat="-3.1639930" lon="37.2838910">
    <ele>1928.3</ele>
    <time>2026-06-20T11:36:29Z</time>
   </trkpt>
   <trkpt lat="-3.1639880" lon="37.2838890">
    <ele>1928.4</ele>
    <time>2026-06-20T11:36:30Z</time>
   </trkpt>
   <trkpt lat="-3.1639850" lon="37.2838850">
    <ele>1928.4</ele>
    <time>2026-06-20T11:36:31Z</time>
   </trkpt>
   <trkpt lat="-3.1639820" lon="37.2838820">
    <ele>1928.5</ele>
    <time>2026-06-20T11:36:32Z</time>
   </trkpt>
   <trkpt lat="-3.1639710" lon="37.2838780">
    <ele>1928.7</ele>
    <time>2026-06-20T11:36:33Z</time>
   </trkpt>
   <trkpt lat="-3.1639650" lon="37.2838770">
    <ele>1928.8</ele>
    <time>2026-06-20T11:36:34Z</time>
   </trkpt>
   <trkpt lat="-3.1639630" lon="37.2838720">
    <ele>1928.9</ele>
    <time>2026-06-20T11:36:35Z</time>
   </trkpt>
   <trkpt lat="-3.1639560" lon="37.2838720">
    <ele>1929.0</ele>
    <time>2026-06-20T11:36:36Z</time>
   </trkpt>
   <trkpt lat="-3.1639500" lon="37.2838700">
    <ele>1929.1</ele>
    <time>2026-06-20T11:36:37Z</time>
   </trkpt>
   <trkpt lat="-3.1639490" lon="37.2838710">
    <ele>1929.1</ele>
    <time>2026-06-20T11:36:38Z</time>
   </trkpt>
   <trkpt lat="-3.1639460" lon="37.2838690">
    <ele>1929.2</ele>
    <time>2026-06-20T11:36:39Z</time>
   </trkpt>
   <trkpt lat="-3.1639430" lon="37.2838680">
    <ele>1929.2</ele>
    <time>2026-06-20T11:36:40Z</time>
   </trkpt>
   <trkpt lat="-3.1639370" lon="37.2838660">
    <ele>1929.3</ele>
    <time>2026-06-20T11:36:41Z</time>
   </trkpt>
   <trkpt lat="-3.1639300" lon="37.2838630">
    <ele>1929.4</ele>
    <time>2026-06-20T11:36:42Z</time>
   </trkpt>
   <trkpt lat="-3.1639260" lon="37.2838610">
    <ele>1929.5</ele>
    <time>2026-06-20T11:36:43Z</time>
   </trkpt>
   <trkpt lat="-3.1639180" lon="37.2838620">
    <ele>1929.6</ele>
    <time>2026-06-20T11:36:44Z</time>
   </trkpt>
   <trkpt lat="-3.1639110" lon="37.2838600">
    <ele>1929.8</ele>
    <time>2026-06-20T11:36:45Z</time>
   </trkpt>
   <trkpt lat="-3.1639110" lon="37.2838620">
    <ele>1929.8</ele>
    <time>2026-06-20T11:36:46Z</time>
   </trkpt>
   <trkpt lat="-3.1639020" lon="37.2838580">
    <ele>1930.0</ele>
    <time>2026-06-20T11:36:47Z</time>
   </trkpt>
   <trkpt lat="-3.1638990" lon="37.2838540">
    <ele>1930.0</ele>
    <time>2026-06-20T11:36:48Z</time>
   </trkpt>
   <trkpt lat="-3.1638960" lon="37.2838520">
    <ele>1930.1</ele>
    <time>2026-06-20T11:36:49Z</time>
   </trkpt>
   <trkpt lat="-3.1638930" lon="37.2838470">
    <ele>1930.2</ele>
    <time>2026-06-20T11:36:50Z</time>
   </trkpt>
   <trkpt lat="-3.1638860" lon="37.2838450">
    <ele>1930.3</ele>
    <time>2026-06-20T11:36:51Z</time>
   </trkpt>
   <trkpt lat="-3.1638800" lon="37.2838410">
    <ele>1930.5</ele>
    <time>2026-06-20T11:36:52Z</time>
   </trkpt>
   <trkpt lat="-3.1638730" lon="37.2838360">
    <ele>1930.6</ele>
    <time>2026-06-20T11:36:53Z</time>
   </trkpt>
   <trkpt lat="-3.1638670" lon="37.2838340">
    <ele>1930.7</ele>
    <time>2026-06-20T11:36:54Z</time>
   </trkpt>
   <trkpt lat="-3.1638630" lon="37.2838330">
    <ele>1930.8</ele>
    <time>2026-06-20T11:36:55Z</time>
   </trkpt>
   <trkpt lat="-3.1638590" lon="37.2838340">
    <ele>1930.9</ele>
    <time>2026-06-20T11:36:56Z</time>
   </trkpt>
   <trkpt lat="-3.1638580" lon="37.2838300">
    <ele>1930.9</ele>
    <time>2026-06-20T11:36:57Z</time>
   </trkpt>
   <trkpt lat="-3.1638490" lon="37.2838250">
    <ele>1931.1</ele>
    <time>2026-06-20T11:36:58Z</time>
   </trkpt>
   <trkpt lat="-3.1638410" lon="37.2838210">
    <ele>1931.3</ele>
    <time>2026-06-20T11:36:59Z</time>
   </trkpt>
   <trkpt lat="-3.1638400" lon="37.2838200">
    <ele>1931.3</ele>
    <time>2026-06-20T11:37:00Z</time>
   </trkpt>
   <trkpt lat="-3.1638390" lon="37.2838150">
    <ele>1931.4</ele>
    <time>2026-06-20T11:37:01Z</time>
   </trkpt>
   <trkpt lat="-3.1638310" lon="37.2838080">
    <ele>1931.6</ele>
    <time>2026-06-20T11:37:02Z</time>
   </trkpt>
   <trkpt lat="-3.1638290" lon="37.2838000">
    <ele>1931.8</ele>
    <time>2026-06-20T11:37:03Z</time>
   </trkpt>
   <trkpt lat="-3.1638210" lon="37.2838030">
    <ele>1931.9</ele>
    <time>2026-06-20T11:37:04Z</time>
   </trkpt>
   <trkpt lat="-3.1638160" lon="37.2837980">
    <ele>1932.1</ele>
    <time>2026-06-20T11:37:05Z</time>
   </trkpt>
   <trkpt lat="-3.1638130" lon="37.2837910">
    <ele>1932.2</ele>
    <time>2026-06-20T11:37:06Z</time>
   </trkpt>
   <trkpt lat="-3.1638140" lon="37.2837870">
    <ele>1932.3</ele>
    <time>2026-06-20T11:37:07Z</time>
   </trkpt>
   <trkpt lat="-3.1638070" lon="37.2837760">
    <ele>1932.5</ele>
    <time>2026-06-20T11:37:08Z</time>
   </trkpt>
   <trkpt lat="-3.1638040" lon="37.2837700">
    <ele>1932.6</ele>
    <time>2026-06-20T11:37:09Z</time>
   </trkpt>
   <trkpt lat="-3.1637960" lon="37.2837680">
    <ele>1932.8</ele>
    <time>2026-06-20T11:37:10Z</time>
   </trkpt>
   <trkpt lat="-3.1637870" lon="37.2837650">
    <ele>1933.0</ele>
    <time>2026-06-20T11:37:11Z</time>
   </trkpt>
   <trkpt lat="-3.1637780" lon="37.2837580">
    <ele>1933.2</ele>
    <time>2026-06-20T11:37:12Z</time>
   </trkpt>
   <trkpt lat="-3.1637760" lon="37.2837570">
    <ele>1933.2</ele>
    <time>2026-06-20T11:37:13Z</time>
   </trkpt>
   <trkpt lat="-3.1637680" lon="37.2837520">
    <ele>1933.4</ele>
    <time>2026-06-20T11:37:14Z</time>
   </trkpt>
   <trkpt lat="-3.1637630" lon="37.2837510">
    <ele>1933.5</ele>
    <time>2026-06-20T11:37:15Z</time>
   </trkpt>
   <trkpt lat="-3.1637610" lon="37.2837560">
    <ele>1933.6</ele>
    <time>2026-06-20T11:37:16Z</time>
   </trkpt>
   <trkpt lat="-3.1637480" lon="37.2837500">
    <ele>1933.9</ele>
    <time>2026-06-20T11:37:17Z</time>
   </trkpt>
   <trkpt lat="-3.1637440" lon="37.2837460">
    <ele>1934.0</ele>
    <time>2026-06-20T11:37:18Z</time>
   </trkpt>
   <trkpt lat="-3.1637420" lon="37.2837460">
    <ele>1934.0</ele>
    <time>2026-06-20T11:37:19Z</time>
   </trkpt>
   <trkpt lat="-3.1637340" lon="37.2837430">
    <ele>1934.2</ele>
    <time>2026-06-20T11:37:20Z</time>
   </trkpt>
   <trkpt lat="-3.1637320" lon="37.2837430">
    <ele>1934.2</ele>
    <time>2026-06-20T11:37:21Z</time>
   </trkpt>
   <trkpt lat="-3.1637280" lon="37.2837400">
    <ele>1934.3</ele>
    <time>2026-06-20T11:37:22Z</time>
   </trkpt>
   <trkpt lat="-3.1637230" lon="37.2837410">
    <ele>1934.4</ele>
    <time>2026-06-20T11:37:23Z</time>
   </trkpt>
   <trkpt lat="-3.1637200" lon="37.2837400">
    <ele>1934.5</ele>
    <time>2026-06-20T11:37:24Z</time>
   </trkpt>
   <trkpt lat="-3.1637170" lon="37.2837350">
    <ele>1934.6</ele>
    <time>2026-06-20T11:37:25Z</time>
   </trkpt>
   <trkpt lat="-3.1637130" lon="37.2837320">
    <ele>1934.7</ele>
    <time>2026-06-20T11:37:26Z</time>
   </trkpt>
   <trkpt lat="-3.1637080" lon="37.2837300">
    <ele>1934.8</ele>
    <time>2026-06-20T11:37:27Z</time>
   </trkpt>
   <trkpt lat="-3.1636990" lon="37.2837240">
    <ele>1935.0</ele>
    <time>2026-06-20T11:37:28Z</time>
   </trkpt>
   <trkpt lat="-3.1636940" lon="37.2837240">
    <ele>1935.1</ele>
    <time>2026-06-20T11:37:29Z</time>
   </trkpt>
   <trkpt lat="-3.1636910" lon="37.2837190">
    <ele>1935.2</ele>
    <time>2026-06-20T11:37:30Z</time>
   </trkpt>
   <trkpt lat="-3.1636840" lon="37.2837140">
    <ele>1935.3</ele>
    <time>2026-06-20T11:37:31Z</time>
   </trkpt>
   <trkpt lat="-3.1636810" lon="37.2837120">
    <ele>1935.4</ele>
    <time>2026-06-20T11:37:32Z</time>
   </trkpt>
   <trkpt lat="-3.1636730" lon="37.2837090">
    <ele>1935.5</ele>
    <time>2026-06-20T11:37:33Z</time>
   </trkpt>
   <trkpt lat="-3.1636710" lon="37.2837040">
    <ele>1935.6</ele>
    <time>2026-06-20T11:37:34Z</time>
   </trkpt>
   <trkpt lat="-3.1636690" lon="37.2837040">
    <ele>1935.7</ele>
    <time>2026-06-20T11:37:35Z</time>
   </trkpt>
   <trkpt lat="-3.1636730" lon="37.2837030">
    <ele>1935.8</ele>
    <time>2026-06-20T11:37:36Z</time>
   </trkpt>
   <trkpt lat="-3.1636660" lon="37.2837050">
    <ele>1935.9</ele>
    <time>2026-06-20T11:37:37Z</time>
   </trkpt>
   <trkpt lat="-3.1636680" lon="37.2837050">
    <ele>1935.9</ele>
    <time>2026-06-20T11:37:38Z</time>
   </trkpt>
   <trkpt lat="-3.1636700" lon="37.2837040">
    <ele>1936.0</ele>
    <time>2026-06-20T11:37:39Z</time>
   </trkpt>
   <trkpt lat="-3.1636660" lon="37.2837050">
    <ele>1936.0</ele>
    <time>2026-06-20T11:37:40Z</time>
   </trkpt>
   <trkpt lat="-3.1636650" lon="37.2837040">
    <ele>1936.1</ele>
    <time>2026-06-20T11:37:41Z</time>
   </trkpt>
   <trkpt lat="-3.1636560" lon="37.2837020">
    <ele>1936.2</ele>
    <time>2026-06-20T11:37:42Z</time>
   </trkpt>
   <trkpt lat="-3.1636560" lon="37.2836980">
    <ele>1936.3</ele>
    <time>2026-06-20T11:37:43Z</time>
   </trkpt>
   <trkpt lat="-3.1636500" lon="37.2836940">
    <ele>1936.4</ele>
    <time>2026-06-20T11:37:44Z</time>
   </trkpt>
   <trkpt lat="-3.1636380" lon="37.2836920">
    <ele>1936.6</ele>
    <time>2026-06-20T11:37:45Z</time>
   </trkpt>
   <trkpt lat="-3.1636320" lon="37.2836890">
    <ele>1936.7</ele>
    <time>2026-06-20T11:37:46Z</time>
   </trkpt>
   <trkpt lat="-3.1636240" lon="37.2836860">
    <ele>1936.9</ele>
    <time>2026-06-20T11:37:47Z</time>
   </trkpt>
   <trkpt lat="-3.1636140" lon="37.2836890">
    <ele>1937.0</ele>
    <time>2026-06-20T11:37:48Z</time>
   </trkpt>
   <trkpt lat="-3.1636080" lon="37.2836890">
    <ele>1937.1</ele>
    <time>2026-06-20T11:37:49Z</time>
   </trkpt>
   <trkpt lat="-3.1636030" lon="37.2836870">
    <ele>1937.2</ele>
    <time>2026-06-20T11:37:50Z</time>
   </trkpt>
   <trkpt lat="-3.1635940" lon="37.2836830">
    <ele>1937.3</ele>
    <time>2026-06-20T11:37:51Z</time>
   </trkpt>
   <trkpt lat="-3.1635890" lon="37.2836830">
    <ele>1937.4</ele>
    <time>2026-06-20T11:37:52Z</time>
   </trkpt>
   <trkpt lat="-3.1635870" lon="37.2836820">
    <ele>1937.5</ele>
    <time>2026-06-20T11:37:53Z</time>
   </trkpt>
   <trkpt lat="-3.1635790" lon="37.2836780">
    <ele>1937.6</ele>
    <time>2026-06-20T11:37:54Z</time>
   </trkpt>
   <trkpt lat="-3.1635780" lon="37.2836760">
    <ele>1937.6</ele>
    <time>2026-06-20T11:37:55Z</time>
   </trkpt>
   <trkpt lat="-3.1635680" lon="37.2836750">
    <ele>1937.8</ele>
    <time>2026-06-20T11:37:56Z</time>
   </trkpt>
   <trkpt lat="-3.1635650" lon="37.2836750">
    <ele>1937.8</ele>
    <time>2026-06-20T11:37:57Z</time>
   </trkpt>
   <trkpt lat="-3.1635580" lon="37.2836740">
    <ele>1937.9</ele>
    <time>2026-06-20T11:37:58Z</time>
   </trkpt>
   <trkpt lat="-3.1635490" lon="37.2836780">
    <ele>1938.1</ele>
    <time>2026-06-20T11:37:59Z</time>
   </trkpt>
   <trkpt lat="-3.1635430" lon="37.2836830">
    <ele>1938.2</ele>
    <time>2026-06-20T11:38:00Z</time>
   </trkpt>
   <trkpt lat="-3.1635400" lon="37.2836820">
    <ele>1938.2</ele>
    <time>2026-06-20T11:38:01Z</time>
   </trkpt>
   <trkpt lat="-3.1635350" lon="37.2836830">
    <ele>1938.3</ele>
    <time>2026-06-20T11:38:02Z</time>
   </trkpt>
   <trkpt lat="-3.1635290" lon="37.2836850">
    <ele>1938.4</ele>
    <time>2026-06-20T11:38:03Z</time>
   </trkpt>
   <trkpt lat="-3.1635220" lon="37.2836870">
    <ele>1938.5</ele>
    <time>2026-06-20T11:38:04Z</time>
   </trkpt>
   <trkpt lat="-3.1635140" lon="37.2836880">
    <ele>1938.6</ele>
    <time>2026-06-20T11:38:05Z</time>
   </trkpt>
   <trkpt lat="-3.1635040" lon="37.2836870">
    <ele>1938.8</ele>
    <time>2026-06-20T11:38:06Z</time>
   </trkpt>
   <trkpt lat="-3.1635000" lon="37.2836880">
    <ele>1938.8</ele>
    <time>2026-06-20T11:38:07Z</time>
   </trkpt>
   <trkpt lat="-3.1634960" lon="37.2836860">
    <ele>1938.9</ele>
    <time>2026-06-20T11:38:08Z</time>
   </trkpt>
   <trkpt lat="-3.1634920" lon="37.2836870">
    <ele>1938.9</ele>
    <time>2026-06-20T11:38:09Z</time>
   </trkpt>
   <trkpt lat="-3.1634890" lon="37.2836870">
    <ele>1939.0</ele>
    <time>2026-06-20T11:38:10Z</time>
   </trkpt>
   <trkpt lat="-3.1634840" lon="37.2836880">
    <ele>1939.1</ele>
    <time>2026-06-20T11:38:11Z</time>
   </trkpt>
   <trkpt lat="-3.1634810" lon="37.2836910">
    <ele>1939.1</ele>
    <time>2026-06-20T11:38:12Z</time>
   </trkpt>
   <trkpt lat="-3.1634700" lon="37.2836870">
    <ele>1939.3</ele>
    <time>2026-06-20T11:38:13Z</time>
   </trkpt>
   <trkpt lat="-3.1634730" lon="37.2836760">
    <ele>1939.5</ele>
    <time>2026-06-20T11:38:14Z</time>
   </trkpt>
   <trkpt lat="-3.1634600" lon="37.2836760">
    <ele>1939.7</ele>
    <time>2026-06-20T11:38:15Z</time>
   </trkpt>
   <trkpt lat="-3.1634540" lon="37.2836780">
    <ele>1939.8</ele>
    <time>2026-06-20T11:38:16Z</time>
   </trkpt>
   <trkpt lat="-3.1634520" lon="37.2836750">
    <ele>1939.8</ele>
    <time>2026-06-20T11:38:17Z</time>
   </trkpt>
   <trkpt lat="-3.1634530" lon="37.2836780">
    <ele>1939.9</ele>
    <time>2026-06-20T11:38:18Z</time>
   </trkpt>
   <trkpt lat="-3.1634480" lon="37.2836760">
    <ele>1940.0</ele>
    <time>2026-06-20T11:38:19Z</time>
   </trkpt>
   <trkpt lat="-3.1634500" lon="37.2836760">
    <ele>1940.0</ele>
    <time>2026-06-20T11:38:20Z</time>
   </trkpt>
   <trkpt lat="-3.1634490" lon="37.2836760">
    <ele>1940.0</ele>
    <time>2026-06-20T11:38:21Z</time>
   </trkpt>
   <trkpt lat="-3.1634490" lon="37.2836760">
    <ele>1940.0</ele>
    <time>2026-06-20T11:38:22Z</time>
   </trkpt>
   <trkpt lat="-3.1634430" lon="37.2836690">
    <ele>1940.2</ele>
    <time>2026-06-20T11:38:23Z</time>
   </trkpt>
   <trkpt lat="-3.1634460" lon="37.2836720">
    <ele>1940.3</ele>
    <time>2026-06-20T11:38:24Z</time>
   </trkpt>
   <trkpt lat="-3.1634430" lon="37.2836700">
    <ele>1940.3</ele>
    <time>2026-06-20T11:38:25Z</time>
   </trkpt>
   <trkpt lat="-3.1634370" lon="37.2836680">
    <ele>1940.4</ele>
    <time>2026-06-20T11:38:26Z</time>
   </trkpt>
   <trkpt lat="-3.1634350" lon="37.2836670">
    <ele>1940.5</ele>
    <time>2026-06-20T11:38:27Z</time>
   </trkpt>
   <trkpt lat="-3.1634340" lon="37.2836690">
    <ele>1940.5</ele>
    <time>2026-06-20T11:38:28Z</time>
   </trkpt>
   <trkpt lat="-3.1634310" lon="37.2836680">
    <ele>1940.5</ele>
    <time>2026-06-20T11:38:29Z</time>
   </trkpt>
   <trkpt lat="-3.1634270" lon="37.2836690">
    <ele>1940.6</ele>
    <time>2026-06-20T11:38:30Z</time>
   </trkpt>
   <trkpt lat="-3.1634170" lon="37.2836680">
    <ele>1940.8</ele>
    <time>2026-06-20T11:38:31Z</time>
   </trkpt>
   <trkpt lat="-3.1634110" lon="37.2836720">
    <ele>1940.9</ele>
    <time>2026-06-20T11:38:32Z</time>
   </trkpt>
   <trkpt lat="-3.1634070" lon="37.2836780">
    <ele>1941.0</ele>
    <time>2026-06-20T11:38:33Z</time>
   </trkpt>
   <trkpt lat="-3.1634020" lon="37.2836830">
    <ele>1941.2</ele>
    <time>2026-06-20T11:38:34Z</time>
   </trkpt>
   <trkpt lat="-3.1633960" lon="37.2836860">
    <ele>1941.3</ele>
    <time>2026-06-20T11:38:35Z</time>
   </trkpt>
   <trkpt lat="-3.1633920" lon="37.2836890">
    <ele>1941.4</ele>
    <time>2026-06-20T11:38:36Z</time>
   </trkpt>
   <trkpt lat="-3.1633900" lon="37.2836930">
    <ele>1941.4</ele>
    <time>2026-06-20T11:38:37Z</time>
   </trkpt>
   <trkpt lat="-3.1633860" lon="37.2836940">
    <ele>1941.5</ele>
    <time>2026-06-20T11:38:38Z</time>
   </trkpt>
   <trkpt lat="-3.1633770" lon="37.2836880">
    <ele>1941.7</ele>
    <time>2026-06-20T11:38:39Z</time>
   </trkpt>
   <trkpt lat="-3.1633770" lon="37.2836870">
    <ele>1941.7</ele>
    <time>2026-06-20T11:38:40Z</time>
   </trkpt>
   <trkpt lat="-3.1633700" lon="37.2836870">
    <ele>1941.8</ele>
    <time>2026-06-20T11:38:41Z</time>
   </trkpt>
   <trkpt lat="-3.1633680" lon="37.2836900">
    <ele>1941.9</ele>
    <time>2026-06-20T11:38:42Z</time>
   </trkpt>
   <trkpt lat="-3.1633630" lon="37.2836940">
    <ele>1942.0</ele>
    <time>2026-06-20T11:38:43Z</time>
   </trkpt>
   <trkpt lat="-3.1633610" lon="37.2836970">
    <ele>1942.1</ele>
    <time>2026-06-20T11:38:44Z</time>
   </trkpt>
   <trkpt lat="-3.1633560" lon="37.2836940">
    <ele>1942.2</ele>
    <time>2026-06-20T11:38:45Z</time>
   </trkpt>
   <trkpt lat="-3.1633550" lon="37.2836970">
    <ele>1942.2</ele>
    <time>2026-06-20T11:38:46Z</time>
   </trkpt>
   <trkpt lat="-3.1633470" lon="37.2836960">
    <ele>1942.4</ele>
    <time>2026-06-20T11:38:47Z</time>
   </trkpt>
   <trkpt lat="-3.1633420" lon="37.2836990">
    <ele>1942.5</ele>
    <time>2026-06-20T11:38:48Z</time>
   </trkpt>
   <trkpt lat="-3.1633380" lon="37.2836990">
    <ele>1942.5</ele>
    <time>2026-06-20T11:38:49Z</time>
   </trkpt>
   <trkpt lat="-3.1633370" lon="37.2837010">
    <ele>1942.6</ele>
    <time>2026-06-20T11:38:50Z</time>
   </trkpt>
   <trkpt lat="-3.1633300" lon="37.2837030">
    <ele>1942.7</ele>
    <time>2026-06-20T11:38:51Z</time>
   </trkpt>
   <trkpt lat="-3.1633270" lon="37.2837040">
    <ele>1942.8</ele>
    <time>2026-06-20T11:38:52Z</time>
   </trkpt>
   <trkpt lat="-3.1633200" lon="37.2837050">
    <ele>1942.9</ele>
    <time>2026-06-20T11:38:53Z</time>
   </trkpt>
   <trkpt lat="-3.1633170" lon="37.2837080">
    <ele>1943.0</ele>
    <time>2026-06-20T11:38:54Z</time>
   </trkpt>
   <trkpt lat="-3.1633160" lon="37.2837080">
    <ele>1943.0</ele>
    <time>2026-06-20T11:38:55Z</time>
   </trkpt>
   <trkpt lat="-3.1633100" lon="37.2837090">
    <ele>1943.1</ele>
    <time>2026-06-20T11:38:56Z</time>
   </trkpt>
   <trkpt lat="-3.1633060" lon="37.2837120">
    <ele>1943.2</ele>
    <time>2026-06-20T11:38:57Z</time>
   </trkpt>
   <trkpt lat="-3.1633020" lon="37.2837140">
    <ele>1943.3</ele>
    <time>2026-06-20T11:38:58Z</time>
   </trkpt>
   <trkpt lat="-3.1632960" lon="37.2837120">
    <ele>1943.4</ele>
    <time>2026-06-20T11:38:59Z</time>
   </trkpt>
   <trkpt lat="-3.1632900" lon="37.2837120">
    <ele>1943.5</ele>
    <time>2026-06-20T11:39:00Z</time>
   </trkpt>
   <trkpt lat="-3.1632860" lon="37.2837110">
    <ele>1943.6</ele>
    <time>2026-06-20T11:39:01Z</time>
   </trkpt>
   <trkpt lat="-3.1632800" lon="37.2837160">
    <ele>1943.7</ele>
    <time>2026-06-20T11:39:02Z</time>
   </trkpt>
   <trkpt lat="-3.1632760" lon="37.2837210">
    <ele>1943.8</ele>
    <time>2026-06-20T11:39:03Z</time>
   </trkpt>
   <trkpt lat="-3.1632740" lon="37.2837210">
    <ele>1943.8</ele>
    <time>2026-06-20T11:39:04Z</time>
   </trkpt>
   <trkpt lat="-3.1632710" lon="37.2837210">
    <ele>1943.9</ele>
    <time>2026-06-20T11:39:05Z</time>
   </trkpt>
   <trkpt lat="-3.1632690" lon="37.2837190">
    <ele>1944.0</ele>
    <time>2026-06-20T11:39:06Z</time>
   </trkpt>
   <trkpt lat="-3.1632630" lon="37.2837230">
    <ele>1944.1</ele>
    <time>2026-06-20T11:39:07Z</time>
   </trkpt>
   <trkpt lat="-3.1632620" lon="37.2837200">
    <ele>1944.2</ele>
    <time>2026-06-20T11:39:08Z</time>
   </trkpt>
   <trkpt lat="-3.1632580" lon="37.2837180">
    <ele>1944.2</ele>
    <time>2026-06-20T11:39:09Z</time>
   </trkpt>
   <trkpt lat="-3.1632530" lon="37.2837160">
    <ele>1944.3</ele>
    <time>2026-06-20T11:39:10Z</time>
   </trkpt>
   <trkpt lat="-3.1632510" lon="37.2837170">
    <ele>1944.4</ele>
    <time>2026-06-20T11:39:11Z</time>
   </trkpt>
   <trkpt lat="-3.1632470" lon="37.2837160">
    <ele>1944.5</ele>
    <time>2026-06-20T11:39:12Z</time>
   </trkpt>
   <trkpt lat="-3.1632430" lon="37.2837160">
    <ele>1944.5</ele>
    <time>2026-06-20T11:39:13Z</time>
   </trkpt>
   <trkpt lat="-3.1632400" lon="37.2837160">
    <ele>1944.6</ele>
    <time>2026-06-20T11:39:14Z</time>
   </trkpt>
   <trkpt lat="-3.1632390" lon="37.2837140">
    <ele>1944.6</ele>
    <time>2026-06-20T11:39:15Z</time>
   </trkpt>
   <trkpt lat="-3.1632360" lon="37.2837140">
    <ele>1944.7</ele>
    <time>2026-06-20T11:39:16Z</time>
   </trkpt>
   <trkpt lat="-3.1632390" lon="37.2837160">
    <ele>1944.8</ele>
    <time>2026-06-20T11:39:17Z</time>
   </trkpt>
   <trkpt lat="-3.1632340" lon="37.2837150">
    <ele>1944.9</ele>
    <time>2026-06-20T11:39:18Z</time>
   </trkpt>
   <trkpt lat="-3.1632370" lon="37.2837180">
    <ele>1944.9</ele>
    <time>2026-06-20T11:39:19Z</time>
   </trkpt>
   <trkpt lat="-3.1632340" lon="37.2837120">
    <ele>1945.1</ele>
    <time>2026-06-20T11:39:20Z</time>
   </trkpt>
   <trkpt lat="-3.1632310" lon="37.2837090">
    <ele>1945.2</ele>
    <time>2026-06-20T11:39:21Z</time>
   </trkpt>
   <trkpt lat="-3.1632290" lon="37.2837050">
    <ele>1945.2</ele>
    <time>2026-06-20T11:39:22Z</time>
   </trkpt>
   <trkpt lat="-3.1632280" lon="37.2837070">
    <ele>1945.3</ele>
    <time>2026-06-20T11:39:23Z</time>
   </trkpt>
   <trkpt lat="-3.1632250" lon="37.2837080">
    <ele>1945.4</ele>
    <time>2026-06-20T11:39:24Z</time>
   </trkpt>
   <trkpt lat="-3.1632180" lon="37.2837100">
    <ele>1945.5</ele>
    <time>2026-06-20T11:39:25Z</time>
   </trkpt>
   <trkpt lat="-3.1632090" lon="37.2837100">
    <ele>1945.7</ele>
    <time>2026-06-20T11:39:26Z</time>
   </trkpt>
   <trkpt lat="-3.1632050" lon="37.2837100">
    <ele>1945.8</ele>
    <time>2026-06-20T11:39:27Z</time>
   </trkpt>
   <trkpt lat="-3.1631970" lon="37.2837040">
    <ele>1946.0</ele>
    <time>2026-06-20T11:39:28Z</time>
   </trkpt>
   <trkpt lat="-3.1631960" lon="37.2837020">
    <ele>1946.0</ele>
    <time>2026-06-20T11:39:29Z</time>
   </trkpt>
   <trkpt lat="-3.1631820" lon="37.2837000">
    <ele>1946.3</ele>
    <time>2026-06-20T11:39:30Z</time>
   </trkpt>
   <trkpt lat="-3.1631760" lon="37.2837030">
    <ele>1946.5</ele>
    <time>2026-06-20T11:39:31Z</time>
   </trkpt>
   <trkpt lat="-3.1631710" lon="37.2837030">
    <ele>1946.6</ele>
    <time>2026-06-20T11:39:32Z</time>
   </trkpt>
   <trkpt lat="-3.1631640" lon="37.2837010">
    <ele>1946.7</ele>
    <time>2026-06-20T11:39:33Z</time>
   </trkpt>
   <trkpt lat="-3.1631650" lon="37.2837030">
    <ele>1946.8</ele>
    <time>2026-06-20T11:39:34Z</time>
   </trkpt>
   <trkpt lat="-3.1631540" lon="37.2837030">
    <ele>1947.0</ele>
    <time>2026-06-20T11:39:35Z</time>
   </trkpt>
   <trkpt lat="-3.1631510" lon="37.2837070">
    <ele>1947.1</ele>
    <time>2026-06-20T11:39:36Z</time>
   </trkpt>
   <trkpt lat="-3.1631490" lon="37.2837120">
    <ele>1947.2</ele>
    <time>2026-06-20T11:39:37Z</time>
   </trkpt>
   <trkpt lat="-3.1631420" lon="37.2837140">
    <ele>1947.4</ele>
    <time>2026-06-20T11:39:38Z</time>
   </trkpt>
   <trkpt lat="-3.1631380" lon="37.2837160">
    <ele>1947.4</ele>
    <time>2026-06-20T11:39:39Z</time>
   </trkpt>
   <trkpt lat="-3.1631340" lon="37.2837140">
    <ele>1947.5</ele>
    <time>2026-06-20T11:39:40Z</time>
   </trkpt>
   <trkpt lat="-3.1631290" lon="37.2837120">
    <ele>1947.7</ele>
    <time>2026-06-20T11:39:41Z</time>
   </trkpt>
   <trkpt lat="-3.1631210" lon="37.2837150">
    <ele>1947.8</ele>
    <time>2026-06-20T11:39:42Z</time>
   </trkpt>
   <trkpt lat="-3.1631150" lon="37.2837160">
    <ele>1948.0</ele>
    <time>2026-06-20T11:39:43Z</time>
   </trkpt>
   <trkpt lat="-3.1631110" lon="37.2837080">
    <ele>1948.1</ele>
    <time>2026-06-20T11:39:44Z</time>
   </trkpt>
   <trkpt lat="-3.1631050" lon="37.2837080">
    <ele>1948.3</ele>
    <time>2026-06-20T11:39:45Z</time>
   </trkpt>
   <trkpt lat="-3.1631010" lon="37.2837060">
    <ele>1948.4</ele>
    <time>2026-06-20T11:39:46Z</time>
   </trkpt>
   <trkpt lat="-3.1630990" lon="37.2837050">
    <ele>1948.4</ele>
    <time>2026-06-20T11:39:47Z</time>
   </trkpt>
   <trkpt lat="-3.1630930" lon="37.2837060">
    <ele>1948.5</ele>
    <time>2026-06-20T11:39:48Z</time>
   </trkpt>
   <trkpt lat="-3.1630880" lon="37.2837060">
    <ele>1948.6</ele>
    <time>2026-06-20T11:39:49Z</time>
   </trkpt>
   <trkpt lat="-3.1630820" lon="37.2837070">
    <ele>1948.8</ele>
    <time>2026-06-20T11:39:50Z</time>
   </trkpt>
   <trkpt lat="-3.1630780" lon="37.2837080">
    <ele>1948.9</ele>
    <time>2026-06-20T11:39:51Z</time>
   </trkpt>
   <trkpt lat="-3.1630750" lon="37.2837090">
    <ele>1948.9</ele>
    <time>2026-06-20T11:39:52Z</time>
   </trkpt>
   <trkpt lat="-3.1630690" lon="37.2837080">
    <ele>1949.1</ele>
    <time>2026-06-20T11:39:53Z</time>
   </trkpt>
   <trkpt lat="-3.1630620" lon="37.2837050">
    <ele>1949.2</ele>
    <time>2026-06-20T11:39:54Z</time>
   </trkpt>
   <trkpt lat="-3.1630580" lon="37.2837020">
    <ele>1949.3</ele>
    <time>2026-06-20T11:39:55Z</time>
   </trkpt>
   <trkpt lat="-3.1630540" lon="37.2837010">
    <ele>1949.4</ele>
    <time>2026-06-20T11:39:56Z</time>
   </trkpt>
   <trkpt lat="-3.1630480" lon="37.2837020">
    <ele>1949.5</ele>
    <time>2026-06-20T11:39:57Z</time>
   </trkpt>
   <trkpt lat="-3.1630460" lon="37.2837030">
    <ele>1949.6</ele>
    <time>2026-06-20T11:39:58Z</time>
   </trkpt>
   <trkpt lat="-3.1630420" lon="37.2837110">
    <ele>1949.8</ele>
    <time>2026-06-20T11:39:59Z</time>
   </trkpt>
   <trkpt lat="-3.1630400" lon="37.2837170">
    <ele>1949.9</ele>
    <time>2026-06-20T11:40:00Z</time>
   </trkpt>
   <trkpt lat="-3.1630290" lon="37.2837160">
    <ele>1950.1</ele>
    <time>2026-06-20T11:40:01Z</time>
   </trkpt>
   <trkpt lat="-3.1630260" lon="37.2837150">
    <ele>1950.2</ele>
    <time>2026-06-20T11:40:02Z</time>
   </trkpt>
   <trkpt lat="-3.1630170" lon="37.2837270">
    <ele>1950.5</ele>
    <time>2026-06-20T11:40:03Z</time>
   </trkpt>
   <trkpt lat="-3.1630150" lon="37.2837290">
    <ele>1950.6</ele>
    <time>2026-06-20T11:40:04Z</time>
   </trkpt>
   <trkpt lat="-3.1630110" lon="37.2837370">
    <ele>1950.8</ele>
    <time>2026-06-20T11:40:05Z</time>
   </trkpt>
   <trkpt lat="-3.1630080" lon="37.2837390">
    <ele>1950.8</ele>
    <time>2026-06-20T11:40:06Z</time>
   </trkpt>
   <trkpt lat="-3.1630070" lon="37.2837430">
    <ele>1950.9</ele>
    <time>2026-06-20T11:40:07Z</time>
   </trkpt>
   <trkpt lat="-3.1630040" lon="37.2837450">
    <ele>1951.0</ele>
    <time>2026-06-20T11:40:08Z</time>
   </trkpt>
   <trkpt lat="-3.1630010" lon="37.2837430">
    <ele>1951.1</ele>
    <time>2026-06-20T11:40:09Z</time>
   </trkpt>
   <trkpt lat="-3.1629950" lon="37.2837440">
    <ele>1951.2</ele>
    <time>2026-06-20T11:40:10Z</time>
   </trkpt>
   <trkpt lat="-3.1629910" lon="37.2837430">
    <ele>1951.3</ele>
    <time>2026-06-20T11:40:11Z</time>
   </trkpt>
   <trkpt lat="-3.1629900" lon="37.2837420">
    <ele>1951.3</ele>
    <time>2026-06-20T11:40:12Z</time>
   </trkpt>
   <trkpt lat="-3.1629840" lon="37.2837380">
    <ele>1951.5</ele>
    <time>2026-06-20T11:40:13Z</time>
   </trkpt>
   <trkpt lat="-3.1629820" lon="37.2837320">
    <ele>1951.6</ele>
    <time>2026-06-20T11:40:14Z</time>
   </trkpt>
   <trkpt lat="-3.1629770" lon="37.2837260">
    <ele>1951.8</ele>
    <time>2026-06-20T11:40:15Z</time>
   </trkpt>
   <trkpt lat="-3.1629720" lon="37.2837290">
    <ele>1951.9</ele>
    <time>2026-06-20T11:40:16Z</time>
   </trkpt>
   <trkpt lat="-3.1629680" lon="37.2837340">
    <ele>1952.0</ele>
    <time>2026-06-20T11:40:17Z</time>
   </trkpt>
   <trkpt lat="-3.1629640" lon="37.2837360">
    <ele>1952.1</ele>
    <time>2026-06-20T11:40:18Z</time>
   </trkpt>
   <trkpt lat="-3.1629660" lon="37.2837350">
    <ele>1952.2</ele>
    <time>2026-06-20T11:40:19Z</time>
   </trkpt>
   <trkpt lat="-3.1629570" lon="37.2837430">
    <ele>1952.4</ele>
    <time>2026-06-20T11:40:20Z</time>
   </trkpt>
   <trkpt lat="-3.1629540" lon="37.2837430">
    <ele>1952.5</ele>
    <time>2026-06-20T11:40:21Z</time>
   </trkpt>
   <trkpt lat="-3.1629450" lon="37.2837500">
    <ele>1952.7</ele>
    <time>2026-06-20T11:40:22Z</time>
   </trkpt>
   <trkpt lat="-3.1629380" lon="37.2837460">
    <ele>1952.9</ele>
    <time>2026-06-20T11:40:23Z</time>
   </trkpt>
   <trkpt lat="-3.1629340" lon="37.2837500">
    <ele>1953.0</ele>
    <time>2026-06-20T11:40:24Z</time>
   </trkpt>
   <trkpt lat="-3.1629320" lon="37.2837510">
    <ele>1953.1</ele>
    <time>2026-06-20T11:40:25Z</time>
   </trkpt>
   <trkpt lat="-3.1629280" lon="37.2837500">
    <ele>1953.2</ele>
    <time>2026-06-20T11:40:26Z</time>
   </trkpt>
   <trkpt lat="-3.1629220" lon="37.2837460">
    <ele>1953.3</ele>
    <time>2026-06-20T11:40:27Z</time>
   </trkpt>
   <trkpt lat="-3.1629200" lon="37.2837510">
    <ele>1953.4</ele>
    <time>2026-06-20T11:40:28Z</time>
   </trkpt>
   <trkpt lat="-3.1629130" lon="37.2837520">
    <ele>1953.6</ele>
    <time>2026-06-20T11:40:29Z</time>
   </trkpt>
   <trkpt lat="-3.1629070" lon="37.2837550">
    <ele>1953.7</ele>
    <time>2026-06-20T11:40:30Z</time>
   </trkpt>
   <trkpt lat="-3.1629050" lon="37.2837580">
    <ele>1953.8</ele>
    <time>2026-06-20T11:40:31Z</time>
   </trkpt>
   <trkpt lat="-3.1629050" lon="37.2837640">
    <ele>1953.9</ele>
    <time>2026-06-20T11:40:32Z</time>
   </trkpt>
   <trkpt lat="-3.1628990" lon="37.2837650">
    <ele>1954.1</ele>
    <time>2026-06-20T11:40:33Z</time>
   </trkpt>
   <trkpt lat="-3.1628930" lon="37.2837620">
    <ele>1954.2</ele>
    <time>2026-06-20T11:40:34Z</time>
   </trkpt>
   <trkpt lat="-3.1628890" lon="37.2837650">
    <ele>1954.3</ele>
    <time>2026-06-20T11:40:35Z</time>
   </trkpt>
   <trkpt lat="-3.1628890" lon="37.2837720">
    <ele>1954.5</ele>
    <time>2026-06-20T11:40:36Z</time>
   </trkpt>
   <trkpt lat="-3.1628830" lon="37.2837740">
    <ele>1954.6</ele>
    <time>2026-06-20T11:40:37Z</time>
   </trkpt>
   <trkpt lat="-3.1628790" lon="37.2837760">
    <ele>1954.7</ele>
    <time>2026-06-20T11:40:38Z</time>
   </trkpt>
   <trkpt lat="-3.1628770" lon="37.2837770">
    <ele>1954.7</ele>
    <time>2026-06-20T11:40:39Z</time>
   </trkpt>
   <trkpt lat="-3.1628740" lon="37.2837800">
    <ele>1954.8</ele>
    <time>2026-06-20T11:40:40Z</time>
   </trkpt>
   <trkpt lat="-3.1628710" lon="37.2837810">
    <ele>1954.9</ele>
    <time>2026-06-20T11:40:41Z</time>
   </trkpt>
   <trkpt lat="-3.1628650" lon="37.2837800">
    <ele>1955.0</ele>
    <time>2026-06-20T11:40:42Z</time>
   </trkpt>
   <trkpt lat="-3.1628630" lon="37.2837800">
    <ele>1955.1</ele>
    <time>2026-06-20T11:40:43Z</time>
   </trkpt>
   <trkpt lat="-3.1628600" lon="37.2837790">
    <ele>1955.2</ele>
    <time>2026-06-20T11:40:44Z</time>
   </trkpt>
   <trkpt lat="-3.1628510" lon="37.2837800">
    <ele>1955.3</ele>
    <time>2026-06-20T11:40:45Z</time>
   </trkpt>
   <trkpt lat="-3.1628510" lon="37.2837800">
    <ele>1955.3</ele>
    <time>2026-06-20T11:40:46Z</time>
   </trkpt>
   <trkpt lat="-3.1628490" lon="37.2837790">
    <ele>1955.4</ele>
    <time>2026-06-20T11:40:47Z</time>
   </trkpt>
   <trkpt lat="-3.1628500" lon="37.2837740">
    <ele>1955.5</ele>
    <time>2026-06-20T11:40:48Z</time>
   </trkpt>
   <trkpt lat="-3.1628420" lon="37.2837720">
    <ele>1955.7</ele>
    <time>2026-06-20T11:40:49Z</time>
   </trkpt>
   <trkpt lat="-3.1628350" lon="37.2837740">
    <ele>1955.8</ele>
    <time>2026-06-20T11:40:50Z</time>
   </trkpt>
   <trkpt lat="-3.1628250" lon="37.2837730">
    <ele>1956.1</ele>
    <time>2026-06-20T11:40:51Z</time>
   </trkpt>
   <trkpt lat="-3.1628190" lon="37.2837720">
    <ele>1956.2</ele>
    <time>2026-06-20T11:40:52Z</time>
   </trkpt>
   <trkpt lat="-3.1628180" lon="37.2837700">
    <ele>1956.2</ele>
    <time>2026-06-20T11:40:53Z</time>
   </trkpt>
   <trkpt lat="-3.1628130" lon="37.2837710">
    <ele>1956.4</ele>
    <time>2026-06-20T11:40:54Z</time>
   </trkpt>
   <trkpt lat="-3.1628050" lon="37.2837670">
    <ele>1956.6</ele>
    <time>2026-06-20T11:40:55Z</time>
   </trkpt>
   <trkpt lat="-3.1628050" lon="37.2837640">
    <ele>1956.6</ele>
    <time>2026-06-20T11:40:56Z</time>
   </trkpt>
   <trkpt lat="-3.1628050" lon="37.2837640">
    <ele>1956.6</ele>
    <time>2026-06-20T11:40:57Z</time>
   </trkpt>
   <trkpt lat="-3.1628010" lon="37.2837610">
    <ele>1956.7</ele>
    <time>2026-06-20T11:40:58Z</time>
   </trkpt>
   <trkpt lat="-3.1628000" lon="37.2837610">
    <ele>1956.8</ele>
    <time>2026-06-20T11:40:59Z</time>
   </trkpt>
   <trkpt lat="-3.1628020" lon="37.2837620">
    <ele>1956.8</ele>
    <time>2026-06-20T11:41:00Z</time>
   </trkpt>
   <trkpt lat="-3.1627970" lon="37.2837610">
    <ele>1956.9</ele>
    <time>2026-06-20T11:41:01Z</time>
   </trkpt>
   <trkpt lat="-3.1627950" lon="37.2837600">
    <ele>1957.0</ele>
    <time>2026-06-20T11:41:02Z</time>
   </trkpt>
   <trkpt lat="-3.1627900" lon="37.2837620">
    <ele>1957.1</ele>
    <time>2026-06-20T11:41:03Z</time>
   </trkpt>
   <trkpt lat="-3.1627840" lon="37.2837610">
    <ele>1957.2</ele>
    <time>2026-06-20T11:41:04Z</time>
   </trkpt>
   <trkpt lat="-3.1627810" lon="37.2837560">
    <ele>1957.4</ele>
    <time>2026-06-20T11:41:05Z</time>
   </trkpt>
   <trkpt lat="-3.1627800" lon="37.2837510">
    <ele>1957.5</ele>
    <time>2026-06-20T11:41:06Z</time>
   </trkpt>
   <trkpt lat="-3.1627780" lon="37.2837520">
    <ele>1957.5</ele>
    <time>2026-06-20T11:41:07Z</time>
   </trkpt>
   <trkpt lat="-3.1627730" lon="37.2837540">
    <ele>1957.6</ele>
    <time>2026-06-20T11:41:08Z</time>
   </trkpt>
   <trkpt lat="-3.1627750" lon="37.2837540">
    <ele>1957.7</ele>
    <time>2026-06-20T11:41:09Z</time>
   </trkpt>
   <trkpt lat="-3.1627650" lon="37.2837610">
    <ele>1958.0</ele>
    <time>2026-06-20T11:41:10Z</time>
   </trkpt>
   <trkpt lat="-3.1627640" lon="37.2837700">
    <ele>1958.2</ele>
    <time>2026-06-20T11:41:11Z</time>
   </trkpt>
   <trkpt lat="-3.1627610" lon="37.2837720">
    <ele>1958.2</ele>
    <time>2026-06-20T11:41:12Z</time>
   </trkpt>
   <trkpt lat="-3.1627500" lon="37.2837810">
    <ele>1958.6</ele>
    <time>2026-06-20T11:41:13Z</time>
   </trkpt>
   <trkpt lat="-3.1627420" lon="37.2837880">
    <ele>1958.8</ele>
    <time>2026-06-20T11:41:14Z</time>
   </trkpt>
   <trkpt lat="-3.1627400" lon="37.2837910">
    <ele>1958.9</ele>
    <time>2026-06-20T11:41:15Z</time>
   </trkpt>
   <trkpt lat="-3.1627360" lon="37.2837960">
    <ele>1959.0</ele>
    <time>2026-06-20T11:41:16Z</time>
   </trkpt>
   <trkpt lat="-3.1627310" lon="37.2838000">
    <ele>1959.2</ele>
    <time>2026-06-20T11:41:17Z</time>
   </trkpt>
   <trkpt lat="-3.1627260" lon="37.2838020">
    <ele>1959.3</ele>
    <time>2026-06-20T11:41:18Z</time>
   </trkpt>
   <trkpt lat="-3.1627240" lon="37.2838020">
    <ele>1959.3</ele>
    <time>2026-06-20T11:41:19Z</time>
   </trkpt>
   <trkpt lat="-3.1627150" lon="37.2838100">
    <ele>1959.6</ele>
    <time>2026-06-20T11:41:20Z</time>
   </trkpt>
   <trkpt lat="-3.1627100" lon="37.2838120">
    <ele>1959.7</ele>
    <time>2026-06-20T11:41:21Z</time>
   </trkpt>
   <trkpt lat="-3.1627070" lon="37.2838180">
    <ele>1959.9</ele>
    <time>2026-06-20T11:41:22Z</time>
   </trkpt>
   <trkpt lat="-3.1627000" lon="37.2838180">
    <ele>1960.0</ele>
    <time>2026-06-20T11:41:23Z</time>
   </trkpt>
   <trkpt lat="-3.1626930" lon="37.2838180">
    <ele>1960.2</ele>
    <time>2026-06-20T11:41:24Z</time>
   </trkpt>
   <trkpt lat="-3.1626870" lon="37.2838170">
    <ele>1960.3</ele>
    <time>2026-06-20T11:41:25Z</time>
   </trkpt>
   <trkpt lat="-3.1626800" lon="37.2838120">
    <ele>1960.5</ele>
    <time>2026-06-20T11:41:26Z</time>
   </trkpt>
   <trkpt lat="-3.1626720" lon="37.2838140">
    <ele>1960.7</ele>
    <time>2026-06-20T11:41:27Z</time>
   </trkpt>
   <trkpt lat="-3.1626690" lon="37.2838220">
    <ele>1960.8</ele>
    <time>2026-06-20T11:41:28Z</time>
   </trkpt>
   <trkpt lat="-3.1626590" lon="37.2838290">
    <ele>1961.1</ele>
    <time>2026-06-20T11:41:29Z</time>
   </trkpt>
   <trkpt lat="-3.1626550" lon="37.2838370">
    <ele>1961.3</ele>
    <time>2026-06-20T11:41:30Z</time>
   </trkpt>
   <trkpt lat="-3.1626530" lon="37.2838420">
    <ele>1961.4</ele>
    <time>2026-06-20T11:41:31Z</time>
   </trkpt>
   <trkpt lat="-3.1626480" lon="37.2838510">
    <ele>1961.6</ele>
    <time>2026-06-20T11:41:32Z</time>
   </trkpt>
   <trkpt lat="-3.1626440" lon="37.2838510">
    <ele>1961.7</ele>
    <time>2026-06-20T11:41:33Z</time>
   </trkpt>
   <trkpt lat="-3.1626230" lon="37.2838560">
    <ele>1962.1</ele>
    <time>2026-06-20T11:41:34Z</time>
   </trkpt>
   <trkpt lat="-3.1626260" lon="37.2838630">
    <ele>1962.2</ele>
    <time>2026-06-20T11:41:35Z</time>
   </trkpt>
   <trkpt lat="-3.1626340" lon="37.2838710">
    <ele>1962.4</ele>
    <time>2026-06-20T11:41:36Z</time>
   </trkpt>
   <trkpt lat="-3.1626290" lon="37.2838720">
    <ele>1962.5</ele>
    <time>2026-06-20T11:41:37Z</time>
   </trkpt>
   <trkpt lat="-3.1626240" lon="37.2838770">
    <ele>1962.7</ele>
    <time>2026-06-20T11:41:38Z</time>
   </trkpt>
   <trkpt lat="-3.1626250" lon="37.2838810">
    <ele>1962.8</ele>
    <time>2026-06-20T11:41:39Z</time>
   </trkpt>
   <trkpt lat="-3.1626270" lon="37.2838820">
    <ele>1962.8</ele>
    <time>2026-06-20T11:41:40Z</time>
   </trkpt>
   <trkpt lat="-3.1626220" lon="37.2838850">
    <ele>1962.9</ele>
    <time>2026-06-20T11:41:41Z</time>
   </trkpt>
   <trkpt lat="-3.1626210" lon="37.2838960">
    <ele>1963.1</ele>
    <time>2026-06-20T11:41:42Z</time>
   </trkpt>
   <trkpt lat="-3.1626190" lon="37.2838860">
    <ele>1963.3</ele>
    <time>2026-06-20T11:41:43Z</time>
   </trkpt>
   <trkpt lat="-3.1626190" lon="37.2838840">
    <ele>1963.4</ele>
    <time>2026-06-20T11:41:44Z</time>
   </trkpt>
   <trkpt lat="-3.1626140" lon="37.2838870">
    <ele>1963.5</ele>
    <time>2026-06-20T11:41:45Z</time>
   </trkpt>
   <trkpt lat="-3.1626130" lon="37.2838900">
    <ele>1963.5</ele>
    <time>2026-06-20T11:41:46Z</time>
   </trkpt>
   <trkpt lat="-3.1626100" lon="37.2838900">
    <ele>1963.6</ele>
    <time>2026-06-20T11:41:47Z</time>
   </trkpt>
   <trkpt lat="-3.1626080" lon="37.2838920">
    <ele>1963.6</ele>
    <time>2026-06-20T11:41:48Z</time>
   </trkpt>
   <trkpt lat="-3.1626000" lon="37.2838930">
    <ele>1963.8</ele>
    <time>2026-06-20T11:41:49Z</time>
   </trkpt>
   <trkpt lat="-3.1626020" lon="37.2838930">
    <ele>1963.8</ele>
    <time>2026-06-20T11:41:50Z</time>
   </trkpt>
   <trkpt lat="-3.1626010" lon="37.2839010">
    <ele>1964.0</ele>
    <time>2026-06-20T11:41:51Z</time>
   </trkpt>
   <trkpt lat="-3.1626000" lon="37.2839010">
    <ele>1964.0</ele>
    <time>2026-06-20T11:41:52Z</time>
   </trkpt>
   <trkpt lat="-3.1625990" lon="37.2839010">
    <ele>1964.0</ele>
    <time>2026-06-20T11:41:53Z</time>
   </trkpt>
   <trkpt lat="-3.1625940" lon="37.2839010">
    <ele>1964.1</ele>
    <time>2026-06-20T11:41:54Z</time>
   </trkpt>
   <trkpt lat="-3.1625880" lon="37.2839010">
    <ele>1964.2</ele>
    <time>2026-06-20T11:41:55Z</time>
   </trkpt>
   <trkpt lat="-3.1625840" lon="37.2839020">
    <ele>1964.3</ele>
    <time>2026-06-20T11:41:56Z</time>
   </trkpt>
   <trkpt lat="-3.1625780" lon="37.2839060">
    <ele>1964.5</ele>
    <time>2026-06-20T11:41:57Z</time>
   </trkpt>
   <trkpt lat="-3.1625720" lon="37.2839110">
    <ele>1964.6</ele>
    <time>2026-06-20T11:41:58Z</time>
   </trkpt>
   <trkpt lat="-3.1625650" lon="37.2839140">
    <ele>1964.8</ele>
    <time>2026-06-20T11:41:59Z</time>
   </trkpt>
   <trkpt lat="-3.1625630" lon="37.2839160">
    <ele>1964.8</ele>
    <time>2026-06-20T11:42:00Z</time>
   </trkpt>
   <trkpt lat="-3.1625610" lon="37.2839160">
    <ele>1964.8</ele>
    <time>2026-06-20T11:42:01Z</time>
   </trkpt>
   <trkpt lat="-3.1625570" lon="37.2839180">
    <ele>1964.9</ele>
    <time>2026-06-20T11:42:02Z</time>
   </trkpt>
   <trkpt lat="-3.1625520" lon="37.2839190">
    <ele>1965.0</ele>
    <time>2026-06-20T11:42:03Z</time>
   </trkpt>
   <trkpt lat="-3.1625430" lon="37.2839180">
    <ele>1965.2</ele>
    <time>2026-06-20T11:42:04Z</time>
   </trkpt>
   <trkpt lat="-3.1625390" lon="37.2839200">
    <ele>1965.3</ele>
    <time>2026-06-20T11:42:05Z</time>
   </trkpt>
   <trkpt lat="-3.1625310" lon="37.2839280">
    <ele>1965.5</ele>
    <time>2026-06-20T11:42:06Z</time>
   </trkpt>
   <trkpt lat="-3.1625240" lon="37.2839310">
    <ele>1965.7</ele>
    <time>2026-06-20T11:42:07Z</time>
   </trkpt>
   <trkpt lat="-3.1625180" lon="37.2839350">
    <ele>1965.8</ele>
    <time>2026-06-20T11:42:08Z</time>
   </trkpt>
   <trkpt lat="-3.1625090" lon="37.2839350">
    <ele>1966.0</ele>
    <time>2026-06-20T11:42:09Z</time>
   </trkpt>
   <trkpt lat="-3.1624990" lon="37.2839410">
    <ele>1966.2</ele>
    <time>2026-06-20T11:42:10Z</time>
   </trkpt>
   <trkpt lat="-3.1624900" lon="37.2839430">
    <ele>1966.4</ele>
    <time>2026-06-20T11:42:11Z</time>
   </trkpt>
   <trkpt lat="-3.1624890" lon="37.2839470">
    <ele>1966.4</ele>
    <time>2026-06-20T11:42:12Z</time>
   </trkpt>
   <trkpt lat="-3.1624840" lon="37.2839530">
    <ele>1966.6</ele>
    <time>2026-06-20T11:42:13Z</time>
   </trkpt>
   <trkpt lat="-3.1624800" lon="37.2839590">
    <ele>1966.7</ele>
    <time>2026-06-20T11:42:14Z</time>
   </trkpt>
   <trkpt lat="-3.1624770" lon="37.2839570">
    <ele>1966.8</ele>
    <time>2026-06-20T11:42:15Z</time>
   </trkpt>
   <trkpt lat="-3.1624760" lon="37.2839560">
    <ele>1966.8</ele>
    <time>2026-06-20T11:42:16Z</time>
   </trkpt>
   <trkpt lat="-3.1624710" lon="37.2839620">
    <ele>1967.0</ele>
    <time>2026-06-20T11:42:17Z</time>
   </trkpt>
   <trkpt lat="-3.1624600" lon="37.2839700">
    <ele>1967.3</ele>
    <time>2026-06-20T11:42:18Z</time>
   </trkpt>
   <trkpt lat="-3.1624520" lon="37.2839750">
    <ele>1967.4</ele>
    <time>2026-06-20T11:42:19Z</time>
   </trkpt>
   <trkpt lat="-3.1624510" lon="37.2839790">
    <ele>1967.5</ele>
    <time>2026-06-20T11:42:20Z</time>
   </trkpt>
   <trkpt lat="-3.1624480" lon="37.2839820">
    <ele>1967.6</ele>
    <time>2026-06-20T11:42:21Z</time>
   </trkpt>
   <trkpt lat="-3.1624460" lon="37.2839850">
    <ele>1967.7</ele>
    <time>2026-06-20T11:42:22Z</time>
   </trkpt>
   <trkpt lat="-3.1624410" lon="37.2839890">
    <ele>1967.8</ele>
    <time>2026-06-20T11:42:23Z</time>
   </trkpt>
   <trkpt lat="-3.1624340" lon="37.2839920">
    <ele>1968.0</ele>
    <time>2026-06-20T11:42:24Z</time>
   </trkpt>
   <trkpt lat="-3.1624310" lon="37.2839990">
    <ele>1968.1</ele>
    <time>2026-06-20T11:42:25Z</time>
   </trkpt>
   <trkpt lat="-3.1624300" lon="37.2840070">
    <ele>1968.3</ele>
    <time>2026-06-20T11:42:26Z</time>
   </trkpt>
   <trkpt lat="-3.1624290" lon="37.2840110">
    <ele>1968.4</ele>
    <time>2026-06-20T11:42:27Z</time>
   </trkpt>
   <trkpt lat="-3.1624250" lon="37.2840170">
    <ele>1968.5</ele>
    <time>2026-06-20T11:42:28Z</time>
   </trkpt>
   <trkpt lat="-3.1624190" lon="37.2840170">
    <ele>1968.6</ele>
    <time>2026-06-20T11:42:29Z</time>
   </trkpt>
   <trkpt lat="-3.1624190" lon="37.2840160">
    <ele>1968.7</ele>
    <time>2026-06-20T11:42:30Z</time>
   </trkpt>
   <trkpt lat="-3.1624210" lon="37.2840210">
    <ele>1968.8</ele>
    <time>2026-06-20T11:42:31Z</time>
   </trkpt>
   <trkpt lat="-3.1624170" lon="37.2840240">
    <ele>1968.9</ele>
    <time>2026-06-20T11:42:32Z</time>
   </trkpt>
   <trkpt lat="-3.1624110" lon="37.2840300">
    <ele>1969.0</ele>
    <time>2026-06-20T11:42:33Z</time>
   </trkpt>
   <trkpt lat="-3.1624090" lon="37.2840320">
    <ele>1969.1</ele>
    <time>2026-06-20T11:42:34Z</time>
   </trkpt>
   <trkpt lat="-3.1624100" lon="37.2840370">
    <ele>1969.2</ele>
    <time>2026-06-20T11:42:35Z</time>
   </trkpt>
   <trkpt lat="-3.1624100" lon="37.2840410">
    <ele>1969.3</ele>
    <time>2026-06-20T11:42:36Z</time>
   </trkpt>
   <trkpt lat="-3.1624030" lon="37.2840460">
    <ele>1969.5</ele>
    <time>2026-06-20T11:42:37Z</time>
   </trkpt>
   <trkpt lat="-3.1624030" lon="37.2840460">
    <ele>1969.5</ele>
    <time>2026-06-20T11:42:38Z</time>
   </trkpt>
   <trkpt lat="-3.1624000" lon="37.2840510">
    <ele>1969.6</ele>
    <time>2026-06-20T11:42:39Z</time>
   </trkpt>
   <trkpt lat="-3.1623940" lon="37.2840560">
    <ele>1969.7</ele>
    <time>2026-06-20T11:42:40Z</time>
   </trkpt>
   <trkpt lat="-3.1623910" lon="37.2840580">
    <ele>1969.8</ele>
    <time>2026-06-20T11:42:41Z</time>
   </trkpt>
   <trkpt lat="-3.1623880" lon="37.2840630">
    <ele>1969.9</ele>
    <time>2026-06-20T11:42:42Z</time>
   </trkpt>
   <trkpt lat="-3.1623840" lon="37.2840660">
    <ele>1970.0</ele>
    <time>2026-06-20T11:42:43Z</time>
   </trkpt>
   <trkpt lat="-3.1623870" lon="37.2840640">
    <ele>1970.1</ele>
    <time>2026-06-20T11:42:44Z</time>
   </trkpt>
   <trkpt lat="-3.1623860" lon="37.2840640">
    <ele>1970.1</ele>
    <time>2026-06-20T11:42:45Z</time>
   </trkpt>
   <trkpt lat="-3.1623850" lon="37.2840690">
    <ele>1970.2</ele>
    <time>2026-06-20T11:42:46Z</time>
   </trkpt>
   <trkpt lat="-3.1623830" lon="37.2840690">
    <ele>1970.3</ele>
    <time>2026-06-20T11:42:47Z</time>
   </trkpt>
   <trkpt lat="-3.1623820" lon="37.2840690">
    <ele>1970.3</ele>
    <time>2026-06-20T11:42:48Z</time>
   </trkpt>
   <trkpt lat="-3.1623770" lon="37.2840740">
    <ele>1970.4</ele>
    <time>2026-06-20T11:42:49Z</time>
   </trkpt>
   <trkpt lat="-3.1623720" lon="37.2840760">
    <ele>1970.5</ele>
    <time>2026-06-20T11:42:50Z</time>
   </trkpt>
   <trkpt lat="-3.1623690" lon="37.2840810">
    <ele>1970.6</ele>
    <time>2026-06-20T11:42:51Z</time>
   </trkpt>
   <trkpt lat="-3.1623640" lon="37.2840860">
    <ele>1970.8</ele>
    <time>2026-06-20T11:42:52Z</time>
   </trkpt>
   <trkpt lat="-3.1623590" lon="37.2840890">
    <ele>1970.9</ele>
    <time>2026-06-20T11:42:53Z</time>
   </trkpt>
   <trkpt lat="-3.1623540" lon="37.2840930">
    <ele>1971.0</ele>
    <time>2026-06-20T11:42:54Z</time>
   </trkpt>
   <trkpt lat="-3.1623530" lon="37.2840920">
    <ele>1971.0</ele>
    <time>2026-06-20T11:42:55Z</time>
   </trkpt>
   <trkpt lat="-3.1623510" lon="37.2840970">
    <ele>1971.1</ele>
    <time>2026-06-20T11:42:56Z</time>
   </trkpt>
   <trkpt lat="-3.1623540" lon="37.2841030">
    <ele>1971.3</ele>
    <time>2026-06-20T11:42:57Z</time>
   </trkpt>
   <trkpt lat="-3.1623530" lon="37.2841080">
    <ele>1971.3</ele>
    <time>2026-06-20T11:42:58Z</time>
   </trkpt>
   <trkpt lat="-3.1623520" lon="37.2841130">
    <ele>1971.4</ele>
    <time>2026-06-20T11:42:59Z</time>
   </trkpt>
   <trkpt lat="-3.1623490" lon="37.2841170">
    <ele>1971.5</ele>
    <time>2026-06-20T11:43:00Z</time>
   </trkpt>
   <trkpt lat="-3.1623450" lon="37.2841240">
    <ele>1971.7</ele>
    <time>2026-06-20T11:43:01Z</time>
   </trkpt>
   <trkpt lat="-3.1623390" lon="37.2841250">
    <ele>1971.8</ele>
    <time>2026-06-20T11:43:02Z</time>
   </trkpt>
   <trkpt lat="-3.1623360" lon="37.2841300">
    <ele>1971.9</ele>
    <time>2026-06-20T11:43:03Z</time>
   </trkpt>
   <trkpt lat="-3.1623350" lon="37.2841320">
    <ele>1972.0</ele>
    <time>2026-06-20T11:43:04Z</time>
   </trkpt>
   <trkpt lat="-3.1623280" lon="37.2841350">
    <ele>1972.1</ele>
    <time>2026-06-20T11:43:05Z</time>
   </trkpt>
   <trkpt lat="-3.1623210" lon="37.2841360">
    <ele>1972.2</ele>
    <time>2026-06-20T11:43:06Z</time>
   </trkpt>
   <trkpt lat="-3.1623140" lon="37.2841440">
    <ele>1972.4</ele>
    <time>2026-06-20T11:43:07Z</time>
   </trkpt>
   <trkpt lat="-3.1623120" lon="37.2841480">
    <ele>1972.5</ele>
    <time>2026-06-20T11:43:08Z</time>
   </trkpt>
   <trkpt lat="-3.1623070" lon="37.2841550">
    <ele>1972.7</ele>
    <time>2026-06-20T11:43:09Z</time>
   </trkpt>
   <trkpt lat="-3.1623060" lon="37.2841620">
    <ele>1972.8</ele>
    <time>2026-06-20T11:43:10Z</time>
   </trkpt>
   <trkpt lat="-3.1623040" lon="37.2841700">
    <ele>1973.0</ele>
    <time>2026-06-20T11:43:11Z</time>
   </trkpt>
   <trkpt lat="-3.1623020" lon="37.2841690">
    <ele>1973.0</ele>
    <time>2026-06-20T11:43:12Z</time>
   </trkpt>
   <trkpt lat="-3.1622970" lon="37.2841790">
    <ele>1973.2</ele>
    <time>2026-06-20T11:43:13Z</time>
   </trkpt>
   <trkpt lat="-3.1622930" lon="37.2841800">
    <ele>1973.3</ele>
    <time>2026-06-20T11:43:14Z</time>
   </trkpt>
   <trkpt lat="-3.1622890" lon="37.2841850">
    <ele>1973.4</ele>
    <time>2026-06-20T11:43:15Z</time>
   </trkpt>
   <trkpt lat="-3.1622890" lon="37.2841890">
    <ele>1973.5</ele>
    <time>2026-06-20T11:43:16Z</time>
   </trkpt>
   <trkpt lat="-3.1622830" lon="37.2841930">
    <ele>1973.7</ele>
    <time>2026-06-20T11:43:17Z</time>
   </trkpt>
   <trkpt lat="-3.1622770" lon="37.2841970">
    <ele>1973.8</ele>
    <time>2026-06-20T11:43:18Z</time>
   </trkpt>
   <trkpt lat="-3.1622720" lon="37.2842030">
    <ele>1973.9</ele>
    <time>2026-06-20T11:43:19Z</time>
   </trkpt>
   <trkpt lat="-3.1622710" lon="37.2842020">
    <ele>1974.0</ele>
    <time>2026-06-20T11:43:20Z</time>
   </trkpt>
   <trkpt lat="-3.1622680" lon="37.2842020">
    <ele>1974.0</ele>
    <time>2026-06-20T11:43:21Z</time>
   </trkpt>
   <trkpt lat="-3.1622670" lon="37.2842090">
    <ele>1974.2</ele>
    <time>2026-06-20T11:43:22Z</time>
   </trkpt>
   <trkpt lat="-3.1622610" lon="37.2842130">
    <ele>1974.3</ele>
    <time>2026-06-20T11:43:23Z</time>
   </trkpt>
   <trkpt lat="-3.1622560" lon="37.2842140">
    <ele>1974.4</ele>
    <time>2026-06-20T11:43:24Z</time>
   </trkpt>
   <trkpt lat="-3.1622580" lon="37.2842230">
    <ele>1974.6</ele>
    <time>2026-06-20T11:43:25Z</time>
   </trkpt>
   <trkpt lat="-3.1622570" lon="37.2842280">
    <ele>1974.7</ele>
    <time>2026-06-20T11:43:26Z</time>
   </trkpt>
   <trkpt lat="-3.1622490" lon="37.2842350">
    <ele>1974.9</ele>
    <time>2026-06-20T11:43:27Z</time>
   </trkpt>
   <trkpt lat="-3.1622450" lon="37.2842350">
    <ele>1975.0</ele>
    <time>2026-06-20T11:43:28Z</time>
   </trkpt>
   <trkpt lat="-3.1622370" lon="37.2842420">
    <ele>1975.2</ele>
    <time>2026-06-20T11:43:29Z</time>
   </trkpt>
   <trkpt lat="-3.1622320" lon="37.2842450">
    <ele>1975.3</ele>
    <time>2026-06-20T11:43:30Z</time>
   </trkpt>
   <trkpt lat="-3.1622300" lon="37.2842510">
    <ele>1975.4</ele>
    <time>2026-06-20T11:43:31Z</time>
   </trkpt>
   <trkpt lat="-3.1622280" lon="37.2842590">
    <ele>1975.6</ele>
    <time>2026-06-20T11:43:32Z</time>
   </trkpt>
   <trkpt lat="-3.1622290" lon="37.2842620">
    <ele>1975.7</ele>
    <time>2026-06-20T11:43:33Z</time>
   </trkpt>
   <trkpt lat="-3.1622220" lon="37.2842700">
    <ele>1975.9</ele>
    <time>2026-06-20T11:43:34Z</time>
   </trkpt>
   <trkpt lat="-3.1622120" lon="37.2842740">
    <ele>1976.1</ele>
    <time>2026-06-20T11:43:35Z</time>
   </trkpt>
   <trkpt lat="-3.1622090" lon="37.2842760">
    <ele>1976.2</ele>
    <time>2026-06-20T11:43:36Z</time>
   </trkpt>
   <trkpt lat="-3.1621990" lon="37.2842840">
    <ele>1976.4</ele>
    <time>2026-06-20T11:43:37Z</time>
   </trkpt>
   <trkpt lat="-3.1622000" lon="37.2842930">
    <ele>1976.6</ele>
    <time>2026-06-20T11:43:38Z</time>
   </trkpt>
   <trkpt lat="-3.1621980" lon="37.2842990">
    <ele>1976.7</ele>
    <time>2026-06-20T11:43:39Z</time>
   </trkpt>
   <trkpt lat="-3.1621990" lon="37.2843060">
    <ele>1976.9</ele>
    <time>2026-06-20T11:43:40Z</time>
   </trkpt>
   <trkpt lat="-3.1621960" lon="37.2843180">
    <ele>1977.1</ele>
    <time>2026-06-20T11:43:41Z</time>
   </trkpt>
   <trkpt lat="-3.1621920" lon="37.2843240">
    <ele>1977.3</ele>
    <time>2026-06-20T11:43:42Z</time>
   </trkpt>
   <trkpt lat="-3.1621930" lon="37.2843240">
    <ele>1977.3</ele>
    <time>2026-06-20T11:43:43Z</time>
   </trkpt>
   <trkpt lat="-3.1621930" lon="37.2843290">
    <ele>1977.4</ele>
    <time>2026-06-20T11:43:44Z</time>
   </trkpt>
   <trkpt lat="-3.1621900" lon="37.2843330">
    <ele>1977.5</ele>
    <time>2026-06-20T11:43:45Z</time>
   </trkpt>
   <trkpt lat="-3.1621800" lon="37.2843430">
    <ele>1977.7</ele>
    <time>2026-06-20T11:43:46Z</time>
   </trkpt>
   <trkpt lat="-3.1621860" lon="37.2843500">
    <ele>1977.9</ele>
    <time>2026-06-20T11:43:47Z</time>
   </trkpt>
   <trkpt lat="-3.1621850" lon="37.2843590">
    <ele>1978.1</ele>
    <time>2026-06-20T11:43:48Z</time>
   </trkpt>
   <trkpt lat="-3.1621770" lon="37.2843650">
    <ele>1978.3</ele>
    <time>2026-06-20T11:43:49Z</time>
   </trkpt>
   <trkpt lat="-3.1621720" lon="37.2843700">
    <ele>1978.4</ele>
    <time>2026-06-20T11:43:50Z</time>
   </trkpt>
   <trkpt lat="-3.1621760" lon="37.2843740">
    <ele>1978.5</ele>
    <time>2026-06-20T11:43:51Z</time>
   </trkpt>
   <trkpt lat="-3.1621690" lon="37.2843770">
    <ele>1978.6</ele>
    <time>2026-06-20T11:43:52Z</time>
   </trkpt>
   <trkpt lat="-3.1621670" lon="37.2843820">
    <ele>1978.7</ele>
    <time>2026-06-20T11:43:53Z</time>
   </trkpt>
   <trkpt lat="-3.1621660" lon="37.2843850">
    <ele>1978.8</ele>
    <time>2026-06-20T11:43:54Z</time>
   </trkpt>
   <trkpt lat="-3.1621620" lon="37.2843880">
    <ele>1978.9</ele>
    <time>2026-06-20T11:43:55Z</time>
   </trkpt>
   <trkpt lat="-3.1621570" lon="37.2843870">
    <ele>1979.0</ele>
    <time>2026-06-20T11:43:56Z</time>
   </trkpt>
   <trkpt lat="-3.1621590" lon="37.2843950">
    <ele>1979.1</ele>
    <time>2026-06-20T11:43:57Z</time>
   </trkpt>
   <trkpt lat="-3.1621560" lon="37.2843960">
    <ele>1979.2</ele>
    <time>2026-06-20T11:43:58Z</time>
   </trkpt>
   <trkpt lat="-3.1621610" lon="37.2843990">
    <ele>1979.3</ele>
    <time>2026-06-20T11:43:59Z</time>
   </trkpt>
   <trkpt lat="-3.1621460" lon="37.2844090">
    <ele>1979.6</ele>
    <time>2026-06-20T11:44:00Z</time>
   </trkpt>
   <trkpt lat="-3.1621540" lon="37.2844090">
    <ele>1979.8</ele>
    <time>2026-06-20T11:44:01Z</time>
   </trkpt>
   <trkpt lat="-3.1621530" lon="37.2844140">
    <ele>1979.9</ele>
    <time>2026-06-20T11:44:02Z</time>
   </trkpt>
   <trkpt lat="-3.1621490" lon="37.2844150">
    <ele>1979.9</ele>
    <time>2026-06-20T11:44:03Z</time>
   </trkpt>
   <trkpt lat="-3.1621480" lon="37.2844210">
    <ele>1980.0</ele>
    <time>2026-06-20T11:44:04Z</time>
   </trkpt>
   <trkpt lat="-3.1621450" lon="37.2844270">
    <ele>1980.1</ele>
    <time>2026-06-20T11:44:05Z</time>
   </trkpt>
   <trkpt lat="-3.1621390" lon="37.2844350">
    <ele>1980.3</ele>
    <time>2026-06-20T11:44:06Z</time>
   </trkpt>
   <trkpt lat="-3.1621370" lon="37.2844390">
    <ele>1980.4</ele>
    <time>2026-06-20T11:44:07Z</time>
   </trkpt>
   <trkpt lat="-3.1621390" lon="37.2844420">
    <ele>1980.5</ele>
    <time>2026-06-20T11:44:08Z</time>
   </trkpt>
   <trkpt lat="-3.1621390" lon="37.2844440">
    <ele>1980.5</ele>
    <time>2026-06-20T11:44:09Z</time>
   </trkpt>
   <trkpt lat="-3.1621370" lon="37.2844480">
    <ele>1980.6</ele>
    <time>2026-06-20T11:44:10Z</time>
   </trkpt>
   <trkpt lat="-3.1621390" lon="37.2844550">
    <ele>1980.7</ele>
    <time>2026-06-20T11:44:11Z</time>
   </trkpt>
   <trkpt lat="-3.1621350" lon="37.2844580">
    <ele>1980.8</ele>
    <time>2026-06-20T11:44:12Z</time>
   </trkpt>
   <trkpt lat="-3.1621320" lon="37.2844700">
    <ele>1981.0</ele>
    <time>2026-06-20T11:44:13Z</time>
   </trkpt>
   <trkpt lat="-3.1621290" lon="37.2844780">
    <ele>1981.1</ele>
    <time>2026-06-20T11:44:14Z</time>
   </trkpt>
   <trkpt lat="-3.1621270" lon="37.2844870">
    <ele>1981.3</ele>
    <time>2026-06-20T11:44:15Z</time>
   </trkpt>
   <trkpt lat="-3.1621170" lon="37.2844900">
    <ele>1981.5</ele>
    <time>2026-06-20T11:44:16Z</time>
   </trkpt>
   <trkpt lat="-3.1621100" lon="37.2844920">
    <ele>1981.6</ele>
    <time>2026-06-20T11:44:17Z</time>
   </trkpt>
   <trkpt lat="-3.1621050" lon="37.2844980">
    <ele>1981.7</ele>
    <time>2026-06-20T11:44:18Z</time>
   </trkpt>
   <trkpt lat="-3.1621060" lon="37.2845000">
    <ele>1981.8</ele>
    <time>2026-06-20T11:44:19Z</time>
   </trkpt>
   <trkpt lat="-3.1621050" lon="37.2845100">
    <ele>1982.0</ele>
    <time>2026-06-20T11:44:20Z</time>
   </trkpt>
   <trkpt lat="-3.1621030" lon="37.2845120">
    <ele>1982.0</ele>
    <time>2026-06-20T11:44:21Z</time>
   </trkpt>
   <trkpt lat="-3.1621040" lon="37.2845200">
    <ele>1982.1</ele>
    <time>2026-06-20T11:44:22Z</time>
   </trkpt>
   <trkpt lat="-3.1621010" lon="37.2845250">
    <ele>1982.2</ele>
    <time>2026-06-20T11:44:23Z</time>
   </trkpt>
   <trkpt lat="-3.1620990" lon="37.2845340">
    <ele>1982.4</ele>
    <time>2026-06-20T11:44:24Z</time>
   </trkpt>
   <trkpt lat="-3.1620940" lon="37.2845410">
    <ele>1982.5</ele>
    <time>2026-06-20T11:44:25Z</time>
   </trkpt>
   <trkpt lat="-3.1620930" lon="37.2845450">
    <ele>1982.6</ele>
    <time>2026-06-20T11:44:26Z</time>
   </trkpt>
   <trkpt lat="-3.1620870" lon="37.2845490">
    <ele>1982.7</ele>
    <time>2026-06-20T11:44:27Z</time>
   </trkpt>
   <trkpt lat="-3.1620850" lon="37.2845520">
    <ele>1982.8</ele>
    <time>2026-06-20T11:44:28Z</time>
   </trkpt>
   <trkpt lat="-3.1620770" lon="37.2845580">
    <ele>1982.9</ele>
    <time>2026-06-20T11:44:29Z</time>
   </trkpt>
   <trkpt lat="-3.1620780" lon="37.2845640">
    <ele>1983.0</ele>
    <time>2026-06-20T11:44:30Z</time>
   </trkpt>
   <trkpt lat="-3.1620800" lon="37.2845660">
    <ele>1983.1</ele>
    <time>2026-06-20T11:44:31Z</time>
   </trkpt>
   <trkpt lat="-3.1620810" lon="37.2845720">
    <ele>1983.2</ele>
    <time>2026-06-20T11:44:32Z</time>
   </trkpt>
   <trkpt lat="-3.1620740" lon="37.2845800">
    <ele>1983.3</ele>
    <time>2026-06-20T11:44:33Z</time>
   </trkpt>
   <trkpt lat="-3.1620750" lon="37.2845820">
    <ele>1983.4</ele>
    <time>2026-06-20T11:44:34Z</time>
   </trkpt>
   <trkpt lat="-3.1620790" lon="37.2845900">
    <ele>1983.5</ele>
    <time>2026-06-20T11:44:35Z</time>
   </trkpt>
   <trkpt lat="-3.1620790" lon="37.2845960">
    <ele>1983.6</ele>
    <time>2026-06-20T11:44:36Z</time>
   </trkpt>
   <trkpt lat="-3.1620700" lon="37.2845990">
    <ele>1983.8</ele>
    <time>2026-06-20T11:44:37Z</time>
   </trkpt>
   <trkpt lat="-3.1620710" lon="37.2846070">
    <ele>1983.9</ele>
    <time>2026-06-20T11:44:38Z</time>
   </trkpt>
   <trkpt lat="-3.1620640" lon="37.2846060">
    <ele>1984.0</ele>
    <time>2026-06-20T11:44:39Z</time>
   </trkpt>
   <trkpt lat="-3.1620610" lon="37.2846160">
    <ele>1984.2</ele>
    <time>2026-06-20T11:44:40Z</time>
   </trkpt>
   <trkpt lat="-3.1620610" lon="37.2846240">
    <ele>1984.3</ele>
    <time>2026-06-20T11:44:41Z</time>
   </trkpt>
   <trkpt lat="-3.1620650" lon="37.2846320">
    <ele>1984.4</ele>
    <time>2026-06-20T11:44:42Z</time>
   </trkpt>
   <trkpt lat="-3.1620570" lon="37.2846350">
    <ele>1984.6</ele>
    <time>2026-06-20T11:44:43Z</time>
   </trkpt>
   <trkpt lat="-3.1620570" lon="37.2846370">
    <ele>1984.6</ele>
    <time>2026-06-20T11:44:44Z</time>
   </trkpt>
   <trkpt lat="-3.1620550" lon="37.2846390">
    <ele>1984.6</ele>
    <time>2026-06-20T11:44:45Z</time>
   </trkpt>
   <trkpt lat="-3.1620520" lon="37.2846420">
    <ele>1984.7</ele>
    <time>2026-06-20T11:44:46Z</time>
   </trkpt>
   <trkpt lat="-3.1620510" lon="37.2846470">
    <ele>1984.8</ele>
    <time>2026-06-20T11:44:47Z</time>
   </trkpt>
   <trkpt lat="-3.1620460" lon="37.2846520">
    <ele>1984.9</ele>
    <time>2026-06-20T11:44:48Z</time>
   </trkpt>
   <trkpt lat="-3.1620440" lon="37.2846560">
    <ele>1985.0</ele>
    <time>2026-06-20T11:44:49Z</time>
   </trkpt>
   <trkpt lat="-3.1620430" lon="37.2846630">
    <ele>1985.1</ele>
    <time>2026-06-20T11:44:50Z</time>
   </trkpt>
   <trkpt lat="-3.1620440" lon="37.2846640">
    <ele>1985.1</ele>
    <time>2026-06-20T11:44:51Z</time>
   </trkpt>
   <trkpt lat="-3.1620450" lon="37.2846670">
    <ele>1985.2</ele>
    <time>2026-06-20T11:44:52Z</time>
   </trkpt>
   <trkpt lat="-3.1620440" lon="37.2846710">
    <ele>1985.2</ele>
    <time>2026-06-20T11:44:53Z</time>
   </trkpt>
   <trkpt lat="-3.1620430" lon="37.2846750">
    <ele>1985.3</ele>
    <time>2026-06-20T11:44:54Z</time>
   </trkpt>
   <trkpt lat="-3.1620360" lon="37.2846810">
    <ele>1985.4</ele>
    <time>2026-06-20T11:44:55Z</time>
   </trkpt>
   <trkpt lat="-3.1620380" lon="37.2846820">
    <ele>1985.5</ele>
    <time>2026-06-20T11:44:56Z</time>
   </trkpt>
   <trkpt lat="-3.1620260" lon="37.2846920">
    <ele>1985.7</ele>
    <time>2026-06-20T11:44:57Z</time>
   </trkpt>
   <trkpt lat="-3.1620270" lon="37.2846970">
    <ele>1985.8</ele>
    <time>2026-06-20T11:44:58Z</time>
   </trkpt>
   <trkpt lat="-3.1620190" lon="37.2847110">
    <ele>1986.1</ele>
    <time>2026-06-20T11:44:59Z</time>
   </trkpt>
   <trkpt lat="-3.1620160" lon="37.2847180">
    <ele>1986.2</ele>
    <time>2026-06-20T11:45:00Z</time>
   </trkpt>
   <trkpt lat="-3.1620120" lon="37.2847220">
    <ele>1986.3</ele>
    <time>2026-06-20T11:45:01Z</time>
   </trkpt>
   <trkpt lat="-3.1620090" lon="37.2847310">
    <ele>1986.4</ele>
    <time>2026-06-20T11:45:02Z</time>
   </trkpt>
   <trkpt lat="-3.1620120" lon="37.2847340">
    <ele>1986.5</ele>
    <time>2026-06-20T11:45:03Z</time>
   </trkpt>
   <trkpt lat="-3.1620080" lon="37.2847450">
    <ele>1986.7</ele>
    <time>2026-06-20T11:45:04Z</time>
   </trkpt>
   <trkpt lat="-3.1620080" lon="37.2847460">
    <ele>1986.7</ele>
    <time>2026-06-20T11:45:05Z</time>
   </trkpt>
   <trkpt lat="-3.1620080" lon="37.2847480">
    <ele>1986.7</ele>
    <time>2026-06-20T11:45:06Z</time>
   </trkpt>
   <trkpt lat="-3.1620060" lon="37.2847490">
    <ele>1986.8</ele>
    <time>2026-06-20T11:45:07Z</time>
   </trkpt>
   <trkpt lat="-3.1620060" lon="37.2847520">
    <ele>1986.8</ele>
    <time>2026-06-20T11:45:08Z</time>
   </trkpt>
   <trkpt lat="-3.1620000" lon="37.2847550">
    <ele>1986.9</ele>
    <time>2026-06-20T11:45:09Z</time>
   </trkpt>
   <trkpt lat="-3.1619970" lon="37.2847520">
    <ele>1987.0</ele>
    <time>2026-06-20T11:45:10Z</time>
   </trkpt>
   <trkpt lat="-3.1619980" lon="37.2847520">
    <ele>1987.0</ele>
    <time>2026-06-20T11:45:11Z</time>
   </trkpt>
   <trkpt lat="-3.1619990" lon="37.2847590">
    <ele>1987.1</ele>
    <time>2026-06-20T11:45:12Z</time>
   </trkpt>
   <trkpt lat="-3.1619980" lon="37.2847630">
    <ele>1987.2</ele>
    <time>2026-06-20T11:45:13Z</time>
   </trkpt>
   <trkpt lat="-3.1619990" lon="37.2847600">
    <ele>1987.2</ele>
    <time>2026-06-20T11:45:14Z</time>
   </trkpt>
   <trkpt lat="-3.1619980" lon="37.2847610">
    <ele>1987.2</ele>
    <time>2026-06-20T11:45:15Z</time>
   </trkpt>
   <trkpt lat="-3.1619930" lon="37.2847670">
    <ele>1987.4</ele>
    <time>2026-06-20T11:45:16Z</time>
   </trkpt>
   <trkpt lat="-3.1619950" lon="37.2847720">
    <ele>1987.5</ele>
    <time>2026-06-20T11:45:17Z</time>
   </trkpt>
   <trkpt lat="-3.1619950" lon="37.2847780">
    <ele>1987.5</ele>
    <time>2026-06-20T11:45:18Z</time>
   </trkpt>
   <trkpt lat="-3.1619960" lon="37.2847820">
    <ele>1987.6</ele>
    <time>2026-06-20T11:45:19Z</time>
   </trkpt>
   <trkpt lat="-3.1619950" lon="37.2847900">
    <ele>1987.7</ele>
    <time>2026-06-20T11:45:20Z</time>
   </trkpt>
   <trkpt lat="-3.1619960" lon="37.2847910">
    <ele>1987.7</ele>
    <time>2026-06-20T11:45:21Z</time>
   </trkpt>
   <trkpt lat="-3.1619980" lon="37.2847930">
    <ele>1987.8</ele>
    <time>2026-06-20T11:45:22Z</time>
   </trkpt>
   <trkpt lat="-3.1619980" lon="37.2847930">
    <ele>1987.8</ele>
    <time>2026-06-20T11:45:23Z</time>
   </trkpt>
   <trkpt lat="-3.1619980" lon="37.2847930">
    <ele>1987.8</ele>
    <time>2026-06-20T11:45:24Z</time>
   </trkpt>
   <trkpt lat="-3.1619960" lon="37.2847960">
    <ele>1987.8</ele>
    <time>2026-06-20T11:45:25Z</time>
   </trkpt>
   <trkpt lat="-3.1619950" lon="37.2847960">
    <ele>1987.9</ele>
    <time>2026-06-20T11:45:26Z</time>
   </trkpt>
   <trkpt lat="-3.1619940" lon="37.2847950">
    <ele>1987.9</ele>
    <time>2026-06-20T11:45:27Z</time>
   </trkpt>
   <trkpt lat="-3.1619930" lon="37.2847970">
    <ele>1987.9</ele>
    <time>2026-06-20T11:45:28Z</time>
   </trkpt>
   <trkpt lat="-3.1619930" lon="37.2847960">
    <ele>1987.9</ele>
    <time>2026-06-20T11:45:29Z</time>
   </trkpt>
   <trkpt lat="-3.1619900" lon="37.2847980">
    <ele>1988.0</ele>
    <time>2026-06-20T11:45:30Z</time>
   </trkpt>
   <trkpt lat="-3.1619890" lon="37.2847990">
    <ele>1988.0</ele>
    <time>2026-06-20T11:45:31Z</time>
   </trkpt>
   <trkpt lat="-3.1619880" lon="37.2847990">
    <ele>1988.0</ele>
    <time>2026-06-20T11:45:32Z</time>
   </trkpt>
   <trkpt lat="-3.1619870" lon="37.2847990">
    <ele>1988.0</ele>
    <time>2026-06-20T11:45:33Z</time>
   </trkpt>
   <trkpt lat="-3.1619860" lon="37.2847980">
    <ele>1988.1</ele>
    <time>2026-06-20T11:45:34Z</time>
   </trkpt>
   <trkpt lat="-3.1619840" lon="37.2848000">
    <ele>1988.1</ele>
    <time>2026-06-20T11:45:35Z</time>
   </trkpt>
   <trkpt lat="-3.1619800" lon="37.2848040">
    <ele>1988.2</ele>
    <time>2026-06-20T11:45:36Z</time>
   </trkpt>
   <trkpt lat="-3.1619800" lon="37.2848060">
    <ele>1988.2</ele>
    <time>2026-06-20T11:45:37Z</time>
   </trkpt>
   <trkpt lat="-3.1619790" lon="37.2848120">
    <ele>1988.3</ele>
    <time>2026-06-20T11:45:38Z</time>
   </trkpt>
   <trkpt lat="-3.1619770" lon="37.2848160">
    <ele>1988.4</ele>
    <time>2026-06-20T11:45:39Z</time>
   </trkpt>
   <trkpt lat="-3.1619790" lon="37.2848220">
    <ele>1988.5</ele>
    <time>2026-06-20T11:45:40Z</time>
   </trkpt>
   <trkpt lat="-3.1619790" lon="37.2848300">
    <ele>1988.6</ele>
    <time>2026-06-20T11:45:41Z</time>
   </trkpt>
   <trkpt lat="-3.1619760" lon="37.2848350">
    <ele>1988.7</ele>
    <time>2026-06-20T11:45:42Z</time>
   </trkpt>
   <trkpt lat="-3.1619730" lon="37.2848430">
    <ele>1988.8</ele>
    <time>2026-06-20T11:45:43Z</time>
   </trkpt>
   <trkpt lat="-3.1619740" lon="37.2848500">
    <ele>1988.9</ele>
    <time>2026-06-20T11:45:44Z</time>
   </trkpt>
   <trkpt lat="-3.1619700" lon="37.2848500">
    <ele>1989.0</ele>
    <time>2026-06-20T11:45:45Z</time>
   </trkpt>
   <trkpt lat="-3.1619720" lon="37.2848530">
    <ele>1989.0</ele>
    <time>2026-06-20T11:45:46Z</time>
   </trkpt>
   <trkpt lat="-3.1619720" lon="37.2848610">
    <ele>1989.1</ele>
    <time>2026-06-20T11:45:47Z</time>
   </trkpt>
   <trkpt lat="-3.1619700" lon="37.2848670">
    <ele>1989.2</ele>
    <time>2026-06-20T11:45:48Z</time>
   </trkpt>
   <trkpt lat="-3.1619690" lon="37.2848750">
    <ele>1989.4</ele>
    <time>2026-06-20T11:45:49Z</time>
   </trkpt>
   <trkpt lat="-3.1619700" lon="37.2848820">
    <ele>1989.5</ele>
    <time>2026-06-20T11:45:50Z</time>
   </trkpt>
   <trkpt lat="-3.1619710" lon="37.2848880">
    <ele>1989.6</ele>
    <time>2026-06-20T11:45:51Z</time>
   </trkpt>
   <trkpt lat="-3.1619670" lon="37.2848910">
    <ele>1989.6</ele>
    <time>2026-06-20T11:45:52Z</time>
   </trkpt>
   <trkpt lat="-3.1619640" lon="37.2848980">
    <ele>1989.7</ele>
    <time>2026-06-20T11:45:53Z</time>
   </trkpt>
   <trkpt lat="-3.1619620" lon="37.2849030">
    <ele>1989.8</ele>
    <time>2026-06-20T11:45:54Z</time>
   </trkpt>
   <trkpt lat="-3.1619690" lon="37.2849050">
    <ele>1989.9</ele>
    <time>2026-06-20T11:45:55Z</time>
   </trkpt>
   <trkpt lat="-3.1619750" lon="37.2849060">
    <ele>1990.0</ele>
    <time>2026-06-20T11:45:56Z</time>
   </trkpt>
   <trkpt lat="-3.1619750" lon="37.2849170">
    <ele>1990.2</ele>
    <time>2026-06-20T11:45:57Z</time>
   </trkpt>
   <trkpt lat="-3.1619770" lon="37.2849220">
    <ele>1990.2</ele>
    <time>2026-06-20T11:45:58Z</time>
   </trkpt>
   <trkpt lat="-3.1619780" lon="37.2849310">
    <ele>1990.4</ele>
    <time>2026-06-20T11:45:59Z</time>
   </trkpt>
   <trkpt lat="-3.1619770" lon="37.2849370">
    <ele>1990.5</ele>
    <time>2026-06-20T11:46:00Z</time>
   </trkpt>
   <trkpt lat="-3.1619780" lon="37.2849450">
    <ele>1990.6</ele>
    <time>2026-06-20T11:46:01Z</time>
   </trkpt>
   <trkpt lat="-3.1619770" lon="37.2849450">
    <ele>1990.6</ele>
    <time>2026-06-20T11:46:02Z</time>
   </trkpt>
   <trkpt lat="-3.1619810" lon="37.2849550">
    <ele>1990.7</ele>
    <time>2026-06-20T11:46:03Z</time>
   </trkpt>
   <trkpt lat="-3.1619820" lon="37.2849580">
    <ele>1990.8</ele>
    <time>2026-06-20T11:46:04Z</time>
   </trkpt>
   <trkpt lat="-3.1619800" lon="37.2849690">
    <ele>1990.9</ele>
    <time>2026-06-20T11:46:05Z</time>
   </trkpt>
   <trkpt lat="-3.1619790" lon="37.2849750">
    <ele>1991.0</ele>
    <time>2026-06-20T11:46:06Z</time>
   </trkpt>
   <trkpt lat="-3.1619740" lon="37.2849870">
    <ele>1991.2</ele>
    <time>2026-06-20T11:46:07Z</time>
   </trkpt>
   <trkpt lat="-3.1619740" lon="37.2849950">
    <ele>1991.3</ele>
    <time>2026-06-20T11:46:08Z</time>
   </trkpt>
   <trkpt lat="-3.1619760" lon="37.2849990">
    <ele>1991.4</ele>
    <time>2026-06-20T11:46:09Z</time>
   </trkpt>
   <trkpt lat="-3.1619800" lon="37.2850040">
    <ele>1991.5</ele>
    <time>2026-06-20T11:46:10Z</time>
   </trkpt>
   <trkpt lat="-3.1619830" lon="37.2850080">
    <ele>1991.5</ele>
    <time>2026-06-20T11:46:11Z</time>
   </trkpt>
   <trkpt lat="-3.1619810" lon="37.2850100">
    <ele>1991.6</ele>
    <time>2026-06-20T11:46:12Z</time>
   </trkpt>
   <trkpt lat="-3.1619860" lon="37.2850100">
    <ele>1991.6</ele>
    <time>2026-06-20T11:46:13Z</time>
   </trkpt>
   <trkpt lat="-3.1619900" lon="37.2850130">
    <ele>1991.7</ele>
    <time>2026-06-20T11:46:14Z</time>
   </trkpt>
   <trkpt lat="-3.1619900" lon="37.2850160">
    <ele>1991.7</ele>
    <time>2026-06-20T11:46:15Z</time>
   </trkpt>
   <trkpt lat="-3.1619920" lon="37.2850190">
    <ele>1991.8</ele>
    <time>2026-06-20T11:46:16Z</time>
   </trkpt>
   <trkpt lat="-3.1619970" lon="37.2850290">
    <ele>1991.9</ele>
    <time>2026-06-20T11:46:17Z</time>
   </trkpt>
   <trkpt lat="-3.1620000" lon="37.2850400">
    <ele>1992.1</ele>
    <time>2026-06-20T11:46:18Z</time>
   </trkpt>
   <trkpt lat="-3.1619960" lon="37.2850400">
    <ele>1992.1</ele>
    <time>2026-06-20T11:46:19Z</time>
   </trkpt>
   <trkpt lat="-3.1619900" lon="37.2850480">
    <ele>1992.3</ele>
    <time>2026-06-20T11:46:20Z</time>
   </trkpt>
   <trkpt lat="-3.1619870" lon="37.2850520">
    <ele>1992.3</ele>
    <time>2026-06-20T11:46:21Z</time>
   </trkpt>
   <trkpt lat="-3.1619870" lon="37.2850620">
    <ele>1992.5</ele>
    <time>2026-06-20T11:46:22Z</time>
   </trkpt>
   <trkpt lat="-3.1619900" lon="37.2850750">
    <ele>1992.6</ele>
    <time>2026-06-20T11:46:23Z</time>
   </trkpt>
   <trkpt lat="-3.1619890" lon="37.2850760">
    <ele>1992.7</ele>
    <time>2026-06-20T11:46:24Z</time>
   </trkpt>
   <trkpt lat="-3.1619930" lon="37.2850770">
    <ele>1992.7</ele>
    <time>2026-06-20T11:46:25Z</time>
   </trkpt>
   <trkpt lat="-3.1619960" lon="37.2850760">
    <ele>1992.7</ele>
    <time>2026-06-20T11:46:26Z</time>
   </trkpt>
   <trkpt lat="-3.1619950" lon="37.2850790">
    <ele>1992.8</ele>
    <time>2026-06-20T11:46:27Z</time>
   </trkpt>
   <trkpt lat="-3.1619850" lon="37.2850790">
    <ele>1992.9</ele>
    <time>2026-06-20T11:46:28Z</time>
   </trkpt>
   <trkpt lat="-3.1619810" lon="37.2850840">
    <ele>1993.0</ele>
    <time>2026-06-20T11:46:29Z</time>
   </trkpt>
   <trkpt lat="-3.1619800" lon="37.2850810">
    <ele>1993.0</ele>
    <time>2026-06-20T11:46:30Z</time>
   </trkpt>
   <trkpt lat="-3.1619790" lon="37.2850830">
    <ele>1993.1</ele>
    <time>2026-06-20T11:46:31Z</time>
   </trkpt>
   <trkpt lat="-3.1619770" lon="37.2850880">
    <ele>1993.1</ele>
    <time>2026-06-20T11:46:32Z</time>
   </trkpt>
   <trkpt lat="-3.1619790" lon="37.2850980">
    <ele>1993.3</ele>
    <time>2026-06-20T11:46:33Z</time>
   </trkpt>
   <trkpt lat="-3.1619770" lon="37.2851060">
    <ele>1993.4</ele>
    <time>2026-06-20T11:46:34Z</time>
   </trkpt>
   <trkpt lat="-3.1619760" lon="37.2851120">
    <ele>1993.4</ele>
    <time>2026-06-20T11:46:35Z</time>
   </trkpt>
   <trkpt lat="-3.1619760" lon="37.2851220">
    <ele>1993.6</ele>
    <time>2026-06-20T11:46:36Z</time>
   </trkpt>
   <trkpt lat="-3.1619830" lon="37.2851330">
    <ele>1993.7</ele>
    <time>2026-06-20T11:46:37Z</time>
   </trkpt>
   <trkpt lat="-3.1619830" lon="37.2851360">
    <ele>1993.7</ele>
    <time>2026-06-20T11:46:38Z</time>
   </trkpt>
   <trkpt lat="-3.1619840" lon="37.2851390">
    <ele>1993.8</ele>
    <time>2026-06-20T11:46:39Z</time>
   </trkpt>
   <trkpt lat="-3.1619900" lon="37.2851460">
    <ele>1993.9</ele>
    <time>2026-06-20T11:46:40Z</time>
   </trkpt>
   <trkpt lat="-3.1619960" lon="37.2851500">
    <ele>1994.0</ele>
    <time>2026-06-20T11:46:41Z</time>
   </trkpt>
   <trkpt lat="-3.1619990" lon="37.2851540">
    <ele>1994.0</ele>
    <time>2026-06-20T11:46:42Z</time>
   </trkpt>
   <trkpt lat="-3.1620000" lon="37.2851590">
    <ele>1994.1</ele>
    <time>2026-06-20T11:46:43Z</time>
   </trkpt>
   <trkpt lat="-3.1620040" lon="37.2851680">
    <ele>1994.2</ele>
    <time>2026-06-20T11:46:44Z</time>
   </trkpt>
   <trkpt lat="-3.1620120" lon="37.2851750">
    <ele>1994.3</ele>
    <time>2026-06-20T11:46:45Z</time>
   </trkpt>
   <trkpt lat="-3.1620160" lon="37.2851790">
    <ele>1994.4</ele>
    <time>2026-06-20T11:46:46Z</time>
   </trkpt>
   <trkpt lat="-3.1620160" lon="37.2851830">
    <ele>1994.5</ele>
    <time>2026-06-20T11:46:47Z</time>
   </trkpt>
   <trkpt lat="-3.1620190" lon="37.2851920">
    <ele>1994.6</ele>
    <time>2026-06-20T11:46:48Z</time>
   </trkpt>
   <trkpt lat="-3.1620260" lon="37.2851940">
    <ele>1994.7</ele>
    <time>2026-06-20T11:46:49Z</time>
   </trkpt>
   <trkpt lat="-3.1620290" lon="37.2852040">
    <ele>1994.8</ele>
    <time>2026-06-20T11:46:50Z</time>
   </trkpt>
   <trkpt lat="-3.1620310" lon="37.2852090">
    <ele>1994.8</ele>
    <time>2026-06-20T11:46:51Z</time>
   </trkpt>
   <trkpt lat="-3.1620330" lon="37.2852240">
    <ele>1995.0</ele>
    <time>2026-06-20T11:46:52Z</time>
   </trkpt>
   <trkpt lat="-3.1620340" lon="37.2852210">
    <ele>1995.0</ele>
    <time>2026-06-20T11:46:53Z</time>
   </trkpt>
   <trkpt lat="-3.1620360" lon="37.2852250">
    <ele>1995.1</ele>
    <time>2026-06-20T11:46:54Z</time>
   </trkpt>
   <trkpt lat="-3.1620390" lon="37.2852260">
    <ele>1995.1</ele>
    <time>2026-06-20T11:46:55Z</time>
   </trkpt>
   <trkpt lat="-3.1620400" lon="37.2852250">
    <ele>1995.1</ele>
    <time>2026-06-20T11:46:56Z</time>
   </trkpt>
   <trkpt lat="-3.1620470" lon="37.2852250">
    <ele>1995.2</ele>
    <time>2026-06-20T11:46:57Z</time>
   </trkpt>
   <trkpt lat="-3.1620510" lon="37.2852230">
    <ele>1995.3</ele>
    <time>2026-06-20T11:46:58Z</time>
   </trkpt>
   <trkpt lat="-3.1620530" lon="37.2852220">
    <ele>1995.3</ele>
    <time>2026-06-20T11:46:59Z</time>
   </trkpt>
   <trkpt lat="-3.1620530" lon="37.2852220">
    <ele>1995.3</ele>
    <time>2026-06-20T11:47:00Z</time>
   </trkpt>
   <trkpt lat="-3.1620530" lon="37.2852230">
    <ele>1995.3</ele>
    <time>2026-06-20T11:47:01Z</time>
   </trkpt>
   <trkpt lat="-3.1620520" lon="37.2852300">
    <ele>1995.4</ele>
    <time>2026-06-20T11:47:02Z</time>
   </trkpt>
   <trkpt lat="-3.1620510" lon="37.2852360">
    <ele>1995.4</ele>
    <time>2026-06-20T11:47:03Z</time>
   </trkpt>
   <trkpt lat="-3.1620500" lon="37.2852430">
    <ele>1995.5</ele>
    <time>2026-06-20T11:47:04Z</time>
   </trkpt>
   <trkpt lat="-3.1620520" lon="37.2852440">
    <ele>1995.5</ele>
    <time>2026-06-20T11:47:05Z</time>
   </trkpt>
   <trkpt lat="-3.1620560" lon="37.2852440">
    <ele>1995.6</ele>
    <time>2026-06-20T11:47:06Z</time>
   </trkpt>
   <trkpt lat="-3.1620560" lon="37.2852440">
    <ele>1995.6</ele>
    <time>2026-06-20T11:47:07Z</time>
   </trkpt>
   <trkpt lat="-3.1620560" lon="37.2852460">
    <ele>1995.6</ele>
    <time>2026-06-20T11:47:08Z</time>
   </trkpt>
   <trkpt lat="-3.1620530" lon="37.2852460">
    <ele>1995.6</ele>
    <time>2026-06-20T11:47:09Z</time>
   </trkpt>
   <trkpt lat="-3.1620520" lon="37.2852450">
    <ele>1995.7</ele>
    <time>2026-06-20T11:47:10Z</time>
   </trkpt>
   <trkpt lat="-3.1620590" lon="37.2852450">
    <ele>1995.7</ele>
    <time>2026-06-20T11:47:11Z</time>
   </trkpt>
   <trkpt lat="-3.1620620" lon="37.2852420">
    <ele>1995.8</ele>
    <time>2026-06-20T11:47:12Z</time>
   </trkpt>
   <trkpt lat="-3.1620610" lon="37.2852420">
    <ele>1995.8</ele>
    <time>2026-06-20T11:47:13Z</time>
   </trkpt>
   <trkpt lat="-3.1620620" lon="37.2852410">
    <ele>1995.8</ele>
    <time>2026-06-20T11:47:14Z</time>
   </trkpt>
   <trkpt lat="-3.1620640" lon="37.2852380">
    <ele>1995.8</ele>
    <time>2026-06-20T11:47:15Z</time>
   </trkpt>
   <trkpt lat="-3.1620640" lon="37.2852370">
    <ele>1995.9</ele>
    <time>2026-06-20T11:47:16Z</time>
   </trkpt>
   <trkpt lat="-3.1620640" lon="37.2852370">
    <ele>1995.9</ele>
    <time>2026-06-20T11:47:17Z</time>
   </trkpt>
   <trkpt lat="-3.1620660" lon="37.2852370">
    <ele>1995.9</ele>
    <time>2026-06-20T11:47:18Z</time>
   </trkpt>
   <trkpt lat="-3.1620690" lon="37.2852340">
    <ele>1995.9</ele>
    <time>2026-06-20T11:47:19Z</time>
   </trkpt>
   <trkpt lat="-3.1620680" lon="37.2852320">
    <ele>1995.9</ele>
    <time>2026-06-20T11:47:20Z</time>
   </trkpt>
   <trkpt lat="-3.1620690" lon="37.2852290">
    <ele>1996.0</ele>
    <time>2026-06-20T11:47:21Z</time>
   </trkpt>
   <trkpt lat="-3.1620670" lon="37.2852270">
    <ele>1996.0</ele>
    <time>2026-06-20T11:47:22Z</time>
   </trkpt>
   <trkpt lat="-3.1620670" lon="37.2852270">
    <ele>1996.0</ele>
    <time>2026-06-20T11:47:23Z</time>
   </trkpt>
   <trkpt lat="-3.1620660" lon="37.2852230">
    <ele>1996.0</ele>
    <time>2026-06-20T11:47:24Z</time>
   </trkpt>
   <trkpt lat="-3.1620660" lon="37.2852230">
    <ele>1996.0</ele>
    <time>2026-06-20T11:47:25Z</time>
   </trkpt>
   <trkpt lat="-3.1620650" lon="37.2852210">
    <ele>1996.1</ele>
    <time>2026-06-20T11:47:26Z</time>
   </trkpt>
   <trkpt lat="-3.1620660" lon="37.2852190">
    <ele>1996.1</ele>
    <time>2026-06-20T11:47:27Z</time>
   </trkpt>
   <trkpt lat="-3.1620670" lon="37.2852190">
    <ele>1996.1</ele>
    <time>2026-06-20T11:47:28Z</time>
   </trkpt>
   <trkpt lat="-3.1620670" lon="37.2852190">
    <ele>1996.1</ele>
    <time>2026-06-20T11:47:29Z</time>
   </trkpt>
   <trkpt lat="-3.1620700" lon="37.2852170">
    <ele>1996.1</ele>
    <time>2026-06-20T11:47:30Z</time>
   </trkpt>
   <trkpt lat="-3.1620680" lon="37.2852170">
    <ele>1996.2</ele>
    <time>2026-06-20T11:47:31Z</time>
   </trkpt>
   <trkpt lat="-3.1620680" lon="37.2852170">
    <ele>1996.2</ele>
    <time>2026-06-20T11:47:32Z</time>
   </trkpt>
   <trkpt lat="-3.1620680" lon="37.2852170">
    <ele>1996.2</ele>
    <time>2026-06-20T11:47:33Z</time>
   </trkpt>
   <trkpt lat="-3.1620680" lon="37.2852170">
    <ele>1996.2</ele>
    <time>2026-06-20T11:47:34Z</time>
   </trkpt>
   <trkpt lat="-3.1620630" lon="37.2852170">
    <ele>1996.2</ele>
    <time>2026-06-20T11:47:35Z</time>
   </trkpt>
   <trkpt lat="-3.1620630" lon="37.2852170">
    <ele>1996.2</ele>
    <time>2026-06-20T11:47:36Z</time>
   </trkpt>
   <trkpt lat="-3.1620690" lon="37.2852190">
    <ele>1996.3</ele>
    <time>2026-06-20T11:47:37Z</time>
   </trkpt>
   <trkpt lat="-3.1620650" lon="37.2852250">
    <ele>1996.4</ele>
    <time>2026-06-20T11:47:38Z</time>
   </trkpt>
   <trkpt lat="-3.1620650" lon="37.2852330">
    <ele>1996.4</ele>
    <time>2026-06-20T11:47:39Z</time>
   </trkpt>
   <trkpt lat="-3.1620670" lon="37.2852380">
    <ele>1996.5</ele>
    <time>2026-06-20T11:47:40Z</time>
   </trkpt>
   <trkpt lat="-3.1620680" lon="37.2852440">
    <ele>1996.6</ele>
    <time>2026-06-20T11:47:41Z</time>
   </trkpt>
   <trkpt lat="-3.1620680" lon="37.2852490">
    <ele>1996.6</ele>
    <time>2026-06-20T11:47:42Z</time>
   </trkpt>
   <trkpt lat="-3.1620710" lon="37.2852540">
    <ele>1996.7</ele>
    <time>2026-06-20T11:47:43Z</time>
   </trkpt>
   <trkpt lat="-3.1620690" lon="37.2852620">
    <ele>1996.8</ele>
    <time>2026-06-20T11:47:44Z</time>
   </trkpt>
   <trkpt lat="-3.1620650" lon="37.2852780">
    <ele>1996.9</ele>
    <time>2026-06-20T11:47:45Z</time>
   </trkpt>
   <trkpt lat="-3.1620620" lon="37.2852850">
    <ele>1997.0</ele>
    <time>2026-06-20T11:47:46Z</time>
   </trkpt>
   <trkpt lat="-3.1620660" lon="37.2852910">
    <ele>1997.1</ele>
    <time>2026-06-20T11:47:47Z</time>
   </trkpt>
   <trkpt lat="-3.1620620" lon="37.2852980">
    <ele>1997.2</ele>
    <time>2026-06-20T11:47:48Z</time>
   </trkpt>
   <trkpt lat="-3.1620630" lon="37.2853050">
    <ele>1997.3</ele>
    <time>2026-06-20T11:47:49Z</time>
   </trkpt>
   <trkpt lat="-3.1620610" lon="37.2853140">
    <ele>1997.4</ele>
    <time>2026-06-20T11:47:50Z</time>
   </trkpt>
   <trkpt lat="-3.1620600" lon="37.2853270">
    <ele>1997.5</ele>
    <time>2026-06-20T11:47:51Z</time>
   </trkpt>
   <trkpt lat="-3.1620550" lon="37.2853320">
    <ele>1997.6</ele>
    <time>2026-06-20T11:47:52Z</time>
   </trkpt>
   <trkpt lat="-3.1620510" lon="37.2853360">
    <ele>1997.6</ele>
    <time>2026-06-20T11:47:53Z</time>
   </trkpt>
   <trkpt lat="-3.1620470" lon="37.2853440">
    <ele>1997.7</ele>
    <time>2026-06-20T11:47:54Z</time>
   </trkpt>
   <trkpt lat="-3.1620480" lon="37.2853480">
    <ele>1997.8</ele>
    <time>2026-06-20T11:47:55Z</time>
   </trkpt>
   <trkpt lat="-3.1620480" lon="37.2853520">
    <ele>1997.8</ele>
    <time>2026-06-20T11:47:56Z</time>
   </trkpt>
   <trkpt lat="-3.1620480" lon="37.2853550">
    <ele>1997.8</ele>
    <time>2026-06-20T11:47:57Z</time>
   </trkpt>
   <trkpt lat="-3.1620500" lon="37.2853650">
    <ele>1998.0</ele>
    <time>2026-06-20T11:47:58Z</time>
   </trkpt>
   <trkpt lat="-3.1620530" lon="37.2853670">
    <ele>1998.0</ele>
    <time>2026-06-20T11:47:59Z</time>
   </trkpt>
   <trkpt lat="-3.1620600" lon="37.2853680">
    <ele>1998.1</ele>
    <time>2026-06-20T11:48:00Z</time>
   </trkpt>
   <trkpt lat="-3.1620690" lon="37.2853680">
    <ele>1998.2</ele>
    <time>2026-06-20T11:48:01Z</time>
   </trkpt>
   <trkpt lat="-3.1620690" lon="37.2853750">
    <ele>1998.2</ele>
    <time>2026-06-20T11:48:02Z</time>
   </trkpt>
   <trkpt lat="-3.1620680" lon="37.2853870">
    <ele>1998.4</ele>
    <time>2026-06-20T11:48:03Z</time>
   </trkpt>
   <trkpt lat="-3.1620710" lon="37.2853890">
    <ele>1998.4</ele>
    <time>2026-06-20T11:48:04Z</time>
   </trkpt>
   <trkpt lat="-3.1620740" lon="37.2853960">
    <ele>1998.5</ele>
    <time>2026-06-20T11:48:05Z</time>
   </trkpt>
   <trkpt lat="-3.1620770" lon="37.2854020">
    <ele>1998.6</ele>
    <time>2026-06-20T11:48:06Z</time>
   </trkpt>
   <trkpt lat="-3.1620810" lon="37.2854090">
    <ele>1998.7</ele>
    <time>2026-06-20T11:48:07Z</time>
   </trkpt>
   <trkpt lat="-3.1620820" lon="37.2854100">
    <ele>1998.7</ele>
    <time>2026-06-20T11:48:08Z</time>
   </trkpt>
   <trkpt lat="-3.1620860" lon="37.2854210">
    <ele>1998.8</ele>
    <time>2026-06-20T11:48:09Z</time>
   </trkpt>
   <trkpt lat="-3.1620870" lon="37.2854250">
    <ele>1998.9</ele>
    <time>2026-06-20T11:48:10Z</time>
   </trkpt>
   <trkpt lat="-3.1620840" lon="37.2854280">
    <ele>1998.9</ele>
    <time>2026-06-20T11:48:11Z</time>
   </trkpt>
   <trkpt lat="-3.1620870" lon="37.2854320">
    <ele>1999.0</ele>
    <time>2026-06-20T11:48:12Z</time>
   </trkpt>
   <trkpt lat="-3.1620860" lon="37.2854310">
    <ele>1999.0</ele>
    <time>2026-06-20T11:48:13Z</time>
   </trkpt>
   <trkpt lat="-3.1620840" lon="37.2854380">
    <ele>1999.1</ele>
    <time>2026-06-20T11:48:14Z</time>
   </trkpt>
   <trkpt lat="-3.1620780" lon="37.2854380">
    <ele>1999.2</ele>
    <time>2026-06-20T11:48:15Z</time>
   </trkpt>
   <trkpt lat="-3.1620780" lon="37.2854380">
    <ele>1999.2</ele>
    <time>2026-06-20T11:48:16Z</time>
   </trkpt>
   <trkpt lat="-3.1620780" lon="37.2854380">
    <ele>1999.2</ele>
    <time>2026-06-20T11:48:17Z</time>
   </trkpt>
   <trkpt lat="-3.1620780" lon="37.2854390">
    <ele>1999.2</ele>
    <time>2026-06-20T11:48:18Z</time>
   </trkpt>
   <trkpt lat="-3.1620780" lon="37.2854390">
    <ele>1999.2</ele>
    <time>2026-06-20T11:48:19Z</time>
   </trkpt>
   <trkpt lat="-3.1620750" lon="37.2854460">
    <ele>1999.3</ele>
    <time>2026-06-20T11:48:20Z</time>
   </trkpt>
   <trkpt lat="-3.1620730" lon="37.2854500">
    <ele>1999.3</ele>
    <time>2026-06-20T11:48:21Z</time>
   </trkpt>
   <trkpt lat="-3.1620660" lon="37.2854520">
    <ele>1999.4</ele>
    <time>2026-06-20T11:48:22Z</time>
   </trkpt>
   <trkpt lat="-3.1620680" lon="37.2854550">
    <ele>1999.5</ele>
    <time>2026-06-20T11:48:23Z</time>
   </trkpt>
   <trkpt lat="-3.1620690" lon="37.2854660">
    <ele>1999.6</ele>
    <time>2026-06-20T11:48:24Z</time>
   </trkpt>
   <trkpt lat="-3.1620750" lon="37.2854730">
    <ele>1999.8</ele>
    <time>2026-06-20T11:48:25Z</time>
   </trkpt>
   <trkpt lat="-3.1620760" lon="37.2854740">
    <ele>1999.8</ele>
    <time>2026-06-20T11:48:26Z</time>
   </trkpt>
   <trkpt lat="-3.1620800" lon="37.2854810">
    <ele>1999.9</ele>
    <time>2026-06-20T11:48:27Z</time>
   </trkpt>
   <trkpt lat="-3.1620860" lon="37.2854940">
    <ele>2000.1</ele>
    <time>2026-06-20T11:48:28Z</time>
   </trkpt>
   <trkpt lat="-3.1620950" lon="37.2855020">
    <ele>2000.2</ele>
    <time>2026-06-20T11:48:29Z</time>
   </trkpt>
   <trkpt lat="-3.1621020" lon="37.2855230">
    <ele>2000.6</ele>
    <time>2026-06-20T11:48:30Z</time>
   </trkpt>
   <trkpt lat="-3.1621030" lon="37.2855210">
    <ele>2000.6</ele>
    <time>2026-06-20T11:48:31Z</time>
   </trkpt>
   <trkpt lat="-3.1621090" lon="37.2855300">
    <ele>2000.8</ele>
    <time>2026-06-20T11:48:32Z</time>
   </trkpt>
   <trkpt lat="-3.1621130" lon="37.2855370">
    <ele>2000.9</ele>
    <time>2026-06-20T11:48:33Z</time>
   </trkpt>
   <trkpt lat="-3.1621200" lon="37.2855530">
    <ele>2001.1</ele>
    <time>2026-06-20T11:48:34Z</time>
   </trkpt>
   <trkpt lat="-3.1621190" lon="37.2855620">
    <ele>2001.3</ele>
    <time>2026-06-20T11:48:35Z</time>
   </trkpt>
   <trkpt lat="-3.1621250" lon="37.2855690">
    <ele>2001.4</ele>
    <time>2026-06-20T11:48:36Z</time>
   </trkpt>
   <trkpt lat="-3.1621210" lon="37.2855770">
    <ele>2001.6</ele>
    <time>2026-06-20T11:48:37Z</time>
   </trkpt>
   <trkpt lat="-3.1621160" lon="37.2855810">
    <ele>2001.7</ele>
    <time>2026-06-20T11:48:38Z</time>
   </trkpt>
   <trkpt lat="-3.1621090" lon="37.2855920">
    <ele>2001.9</ele>
    <time>2026-06-20T11:48:39Z</time>
   </trkpt>
   <trkpt lat="-3.1621030" lon="37.2856010">
    <ele>2002.1</ele>
    <time>2026-06-20T11:48:40Z</time>
   </trkpt>
   <trkpt lat="-3.1620960" lon="37.2856070">
    <ele>2002.2</ele>
    <time>2026-06-20T11:48:41Z</time>
   </trkpt>
   <trkpt lat="-3.1620990" lon="37.2856100">
    <ele>2002.3</ele>
    <time>2026-06-20T11:48:42Z</time>
   </trkpt>
   <trkpt lat="-3.1621010" lon="37.2856120">
    <ele>2002.4</ele>
    <time>2026-06-20T11:48:43Z</time>
   </trkpt>
   <trkpt lat="-3.1620990" lon="37.2856190">
    <ele>2002.5</ele>
    <time>2026-06-20T11:48:44Z</time>
   </trkpt>
   <trkpt lat="-3.1621090" lon="37.2856200">
    <ele>2002.7</ele>
    <time>2026-06-20T11:48:45Z</time>
   </trkpt>
   <trkpt lat="-3.1621080" lon="37.2856270">
    <ele>2002.8</ele>
    <time>2026-06-20T11:48:46Z</time>
   </trkpt>
   <trkpt lat="-3.1621140" lon="37.2856390">
    <ele>2003.0</ele>
    <time>2026-06-20T11:48:47Z</time>
   </trkpt>
   <trkpt lat="-3.1621220" lon="37.2856420">
    <ele>2003.2</ele>
    <time>2026-06-20T11:48:48Z</time>
   </trkpt>
   <trkpt lat="-3.1621220" lon="37.2856450">
    <ele>2003.2</ele>
    <time>2026-06-20T11:48:49Z</time>
   </trkpt>
   <trkpt lat="-3.1621230" lon="37.2856550">
    <ele>2003.4</ele>
    <time>2026-06-20T11:48:50Z</time>
   </trkpt>
   <trkpt lat="-3.1621320" lon="37.2856590">
    <ele>2003.6</ele>
    <time>2026-06-20T11:48:51Z</time>
   </trkpt>
   <trkpt lat="-3.1621170" lon="37.2856730">
    <ele>2003.9</ele>
    <time>2026-06-20T11:48:52Z</time>
   </trkpt>
   <trkpt lat="-3.1621180" lon="37.2856840">
    <ele>2004.1</ele>
    <time>2026-06-20T11:48:53Z</time>
   </trkpt>
   <trkpt lat="-3.1621190" lon="37.2856890">
    <ele>2004.2</ele>
    <time>2026-06-20T11:48:54Z</time>
   </trkpt>
   <trkpt lat="-3.1621190" lon="37.2856950">
    <ele>2004.3</ele>
    <time>2026-06-20T11:48:55Z</time>
   </trkpt>
   <trkpt lat="-3.1621180" lon="37.2857030">
    <ele>2004.4</ele>
    <time>2026-06-20T11:48:56Z</time>
   </trkpt>
   <trkpt lat="-3.1621150" lon="37.2857110">
    <ele>2004.6</ele>
    <time>2026-06-20T11:48:57Z</time>
   </trkpt>
   <trkpt lat="-3.1621200" lon="37.2857160">
    <ele>2004.7</ele>
    <time>2026-06-20T11:48:58Z</time>
   </trkpt>
   <trkpt lat="-3.1621160" lon="37.2857260">
    <ele>2004.9</ele>
    <time>2026-06-20T11:48:59Z</time>
   </trkpt>
   <trkpt lat="-3.1621190" lon="37.2857320">
    <ele>2005.0</ele>
    <time>2026-06-20T11:49:00Z</time>
   </trkpt>
   <trkpt lat="-3.1621200" lon="37.2857360">
    <ele>2005.1</ele>
    <time>2026-06-20T11:49:01Z</time>
   </trkpt>
   <trkpt lat="-3.1621180" lon="37.2857400">
    <ele>2005.2</ele>
    <time>2026-06-20T11:49:02Z</time>
   </trkpt>
   <trkpt lat="-3.1621190" lon="37.2857480">
    <ele>2005.3</ele>
    <time>2026-06-20T11:49:03Z</time>
   </trkpt>
   <trkpt lat="-3.1621210" lon="37.2857550">
    <ele>2005.4</ele>
    <time>2026-06-20T11:49:04Z</time>
   </trkpt>
   <trkpt lat="-3.1621310" lon="37.2857570">
    <ele>2005.6</ele>
    <time>2026-06-20T11:49:05Z</time>
   </trkpt>
   <trkpt lat="-3.1621390" lon="37.2857590">
    <ele>2005.7</ele>
    <time>2026-06-20T11:49:06Z</time>
   </trkpt>
   <trkpt lat="-3.1621360" lon="37.2857650">
    <ele>2005.8</ele>
    <time>2026-06-20T11:49:08Z</time>
   </trkpt>
   <trkpt lat="-3.1621410" lon="37.2857750">
    <ele>2006.0</ele>
    <time>2026-06-20T11:49:09Z</time>
   </trkpt>
   <trkpt lat="-3.1621400" lon="37.2857770">
    <ele>2006.0</ele>
    <time>2026-06-20T11:49:10Z</time>
   </trkpt>
   <trkpt lat="-3.1621400" lon="37.2857880">
    <ele>2006.2</ele>
    <time>2026-06-20T11:49:11Z</time>
   </trkpt>
   <trkpt lat="-3.1621410" lon="37.2857990">
    <ele>2006.4</ele>
    <time>2026-06-20T11:49:12Z</time>
   </trkpt>
   <trkpt lat="-3.1621420" lon="37.2858100">
    <ele>2006.6</ele>
    <time>2026-06-20T11:49:13Z</time>
   </trkpt>
   <trkpt lat="-3.1621470" lon="37.2858160">
    <ele>2006.7</ele>
    <time>2026-06-20T11:49:14Z</time>
   </trkpt>
   <trkpt lat="-3.1621460" lon="37.2858220">
    <ele>2006.8</ele>
    <time>2026-06-20T11:49:15Z</time>
   </trkpt>
   <trkpt lat="-3.1621470" lon="37.2858300">
    <ele>2006.9</ele>
    <time>2026-06-20T11:49:16Z</time>
   </trkpt>
   <trkpt lat="-3.1621530" lon="37.2858390">
    <ele>2007.1</ele>
    <time>2026-06-20T11:49:17Z</time>
   </trkpt>
   <trkpt lat="-3.1621580" lon="37.2858470">
    <ele>2007.2</ele>
    <time>2026-06-20T11:49:18Z</time>
   </trkpt>
   <trkpt lat="-3.1621540" lon="37.2858590">
    <ele>2007.4</ele>
    <time>2026-06-20T11:49:19Z</time>
   </trkpt>
   <trkpt lat="-3.1621530" lon="37.2858660">
    <ele>2007.5</ele>
    <time>2026-06-20T11:49:20Z</time>
   </trkpt>
   <trkpt lat="-3.1621560" lon="37.2858720">
    <ele>2007.6</ele>
    <time>2026-06-20T11:49:21Z</time>
   </trkpt>
   <trkpt lat="-3.1621570" lon="37.2858720">
    <ele>2007.6</ele>
    <time>2026-06-20T11:49:22Z</time>
   </trkpt>
   <trkpt lat="-3.1621580" lon="37.2858810">
    <ele>2007.7</ele>
    <time>2026-06-20T11:49:23Z</time>
   </trkpt>
   <trkpt lat="-3.1621540" lon="37.2858930">
    <ele>2007.9</ele>
    <time>2026-06-20T11:49:24Z</time>
   </trkpt>
   <trkpt lat="-3.1621510" lon="37.2859000">
    <ele>2008.0</ele>
    <time>2026-06-20T11:49:25Z</time>
   </trkpt>
   <trkpt lat="-3.1621600" lon="37.2859090">
    <ele>2008.2</ele>
    <time>2026-06-20T11:49:26Z</time>
   </trkpt>
   <trkpt lat="-3.1621600" lon="37.2859150">
    <ele>2008.3</ele>
    <time>2026-06-20T11:49:27Z</time>
   </trkpt>
   <trkpt lat="-3.1621540" lon="37.2859190">
    <ele>2008.4</ele>
    <time>2026-06-20T11:49:28Z</time>
   </trkpt>
   <trkpt lat="-3.1621480" lon="37.2859250">
    <ele>2008.5</ele>
    <time>2026-06-20T11:49:29Z</time>
   </trkpt>
   <trkpt lat="-3.1621490" lon="37.2859320">
    <ele>2008.6</ele>
    <time>2026-06-20T11:49:30Z</time>
   </trkpt>
   <trkpt lat="-3.1621460" lon="37.2859430">
    <ele>2008.7</ele>
    <time>2026-06-20T11:49:31Z</time>
   </trkpt>
   <trkpt lat="-3.1621440" lon="37.2859540">
    <ele>2008.8</ele>
    <time>2026-06-20T11:49:32Z</time>
   </trkpt>
   <trkpt lat="-3.1621480" lon="37.2859650">
    <ele>2009.0</ele>
    <time>2026-06-20T11:49:33Z</time>
   </trkpt>
   <trkpt lat="-3.1621500" lon="37.2859670">
    <ele>2009.0</ele>
    <time>2026-06-20T11:49:34Z</time>
   </trkpt>
   <trkpt lat="-3.1621530" lon="37.2859750">
    <ele>2009.1</ele>
    <time>2026-06-20T11:49:35Z</time>
   </trkpt>
   <trkpt lat="-3.1621520" lon="37.2859860">
    <ele>2009.3</ele>
    <time>2026-06-20T11:49:36Z</time>
   </trkpt>
   <trkpt lat="-3.1621390" lon="37.2859940">
    <ele>2009.4</ele>
    <time>2026-06-20T11:49:37Z</time>
   </trkpt>
   <trkpt lat="-3.1621390" lon="37.2860010">
    <ele>2009.5</ele>
    <time>2026-06-20T11:49:38Z</time>
   </trkpt>
   <trkpt lat="-3.1621390" lon="37.2860060">
    <ele>2009.6</ele>
    <time>2026-06-20T11:49:39Z</time>
   </trkpt>
   <trkpt lat="-3.1621400" lon="37.2860160">
    <ele>2009.7</ele>
    <time>2026-06-20T11:49:40Z</time>
   </trkpt>
   <trkpt lat="-3.1621450" lon="37.2860240">
    <ele>2009.8</ele>
    <time>2026-06-20T11:49:41Z</time>
   </trkpt>
   <trkpt lat="-3.1621450" lon="37.2860270">
    <ele>2009.8</ele>
    <time>2026-06-20T11:49:42Z</time>
   </trkpt>
   <trkpt lat="-3.1621430" lon="37.2860370">
    <ele>2009.9</ele>
    <time>2026-06-20T11:49:43Z</time>
   </trkpt>
   <trkpt lat="-3.1621390" lon="37.2860440">
    <ele>2010.0</ele>
    <time>2026-06-20T11:49:44Z</time>
   </trkpt>
   <trkpt lat="-3.1621410" lon="37.2860470">
    <ele>2010.0</ele>
    <time>2026-06-20T11:49:45Z</time>
   </trkpt>
   <trkpt lat="-3.1621420" lon="37.2860520">
    <ele>2010.1</ele>
    <time>2026-06-20T11:49:46Z</time>
   </trkpt>
   <trkpt lat="-3.1621390" lon="37.2860640">
    <ele>2010.2</ele>
    <time>2026-06-20T11:49:47Z</time>
   </trkpt>
   <trkpt lat="-3.1621380" lon="37.2860690">
    <ele>2010.3</ele>
    <time>2026-06-20T11:49:48Z</time>
   </trkpt>
   <trkpt lat="-3.1621380" lon="37.2860780">
    <ele>2010.4</ele>
    <time>2026-06-20T11:49:49Z</time>
   </trkpt>
   <trkpt lat="-3.1621420" lon="37.2860880">
    <ele>2010.5</ele>
    <time>2026-06-20T11:49:50Z</time>
   </trkpt>
   <trkpt lat="-3.1621390" lon="37.2860990">
    <ele>2010.6</ele>
    <time>2026-06-20T11:49:51Z</time>
   </trkpt>
   <trkpt lat="-3.1621340" lon="37.2861000">
    <ele>2010.7</ele>
    <time>2026-06-20T11:49:52Z</time>
   </trkpt>
   <trkpt lat="-3.1621310" lon="37.2861100">
    <ele>2010.8</ele>
    <time>2026-06-20T11:49:53Z</time>
   </trkpt>
   <trkpt lat="-3.1621280" lon="37.2861210">
    <ele>2010.9</ele>
    <time>2026-06-20T11:49:54Z</time>
   </trkpt>
   <trkpt lat="-3.1621300" lon="37.2861270">
    <ele>2011.0</ele>
    <time>2026-06-20T11:49:55Z</time>
   </trkpt>
   <trkpt lat="-3.1621290" lon="37.2861340">
    <ele>2011.1</ele>
    <time>2026-06-20T11:49:56Z</time>
   </trkpt>
   <trkpt lat="-3.1621240" lon="37.2861480">
    <ele>2011.2</ele>
    <time>2026-06-20T11:49:57Z</time>
   </trkpt>
   <trkpt lat="-3.1621220" lon="37.2861480">
    <ele>2011.3</ele>
    <time>2026-06-20T11:49:58Z</time>
   </trkpt>
   <trkpt lat="-3.1621180" lon="37.2861550">
    <ele>2011.4</ele>
    <time>2026-06-20T11:49:59Z</time>
   </trkpt>
   <trkpt lat="-3.1621180" lon="37.2861590">
    <ele>2011.4</ele>
    <time>2026-06-20T11:50:00Z</time>
   </trkpt>
   <trkpt lat="-3.1621100" lon="37.2861680">
    <ele>2011.5</ele>
    <time>2026-06-20T11:50:01Z</time>
   </trkpt>
   <trkpt lat="-3.1621050" lon="37.2861730">
    <ele>2011.6</ele>
    <time>2026-06-20T11:50:02Z</time>
   </trkpt>
   <trkpt lat="-3.1621070" lon="37.2861740">
    <ele>2011.7</ele>
    <time>2026-06-20T11:50:03Z</time>
   </trkpt>
   <trkpt lat="-3.1621010" lon="37.2861800">
    <ele>2011.8</ele>
    <time>2026-06-20T11:50:04Z</time>
   </trkpt>
   <trkpt lat="-3.1621030" lon="37.2861840">
    <ele>2011.8</ele>
    <time>2026-06-20T11:50:05Z</time>
   </trkpt>
   <trkpt lat="-3.1621010" lon="37.2862000">
    <ele>2012.0</ele>
    <time>2026-06-20T11:50:06Z</time>
   </trkpt>
   <trkpt lat="-3.1621010" lon="37.2862060">
    <ele>2012.1</ele>
    <time>2026-06-20T11:50:07Z</time>
   </trkpt>
   <trkpt lat="-3.1621000" lon="37.2862120">
    <ele>2012.2</ele>
    <time>2026-06-20T11:50:08Z</time>
   </trkpt>
   <trkpt lat="-3.1621010" lon="37.2862110">
    <ele>2012.2</ele>
    <time>2026-06-20T11:50:09Z</time>
   </trkpt>
   <trkpt lat="-3.1621050" lon="37.2862150">
    <ele>2012.3</ele>
    <time>2026-06-20T11:50:10Z</time>
   </trkpt>
   <trkpt lat="-3.1621010" lon="37.2862200">
    <ele>2012.3</ele>
    <time>2026-06-20T11:50:11Z</time>
   </trkpt>
   <trkpt lat="-3.1620910" lon="37.2862240">
    <ele>2012.5</ele>
    <time>2026-06-20T11:50:12Z</time>
   </trkpt>
   <trkpt lat="-3.1620880" lon="37.2862310">
    <ele>2012.6</ele>
    <time>2026-06-20T11:50:13Z</time>
   </trkpt>
   <trkpt lat="-3.1620830" lon="37.2862380">
    <ele>2012.7</ele>
    <time>2026-06-20T11:50:14Z</time>
   </trkpt>
   <trkpt lat="-3.1620890" lon="37.2862450">
    <ele>2012.9</ele>
    <time>2026-06-20T11:50:15Z</time>
   </trkpt>
   <trkpt lat="-3.1620860" lon="37.2862460">
    <ele>2012.9</ele>
    <time>2026-06-20T11:50:16Z</time>
   </trkpt>
   <trkpt lat="-3.1620810" lon="37.2862510">
    <ele>2013.0</ele>
    <time>2026-06-20T11:50:17Z</time>
   </trkpt>
   <trkpt lat="-3.1620790" lon="37.2862600">
    <ele>2013.1</ele>
    <time>2026-06-20T11:50:18Z</time>
   </trkpt>
   <trkpt lat="-3.1620750" lon="37.2862670">
    <ele>2013.3</ele>
    <time>2026-06-20T11:50:19Z</time>
   </trkpt>
   <trkpt lat="-3.1620680" lon="37.2862510">
    <ele>2013.5</ele>
    <time>2026-06-20T11:50:20Z</time>
   </trkpt>
   <trkpt lat="-3.1620640" lon="37.2862670">
    <ele>2013.8</ele>
    <time>2026-06-20T11:50:21Z</time>
   </trkpt>
   <trkpt lat="-3.1620600" lon="37.2862810">
    <ele>2014.1</ele>
    <time>2026-06-20T11:50:22Z</time>
   </trkpt>
   <trkpt lat="-3.1620530" lon="37.2862820">
    <ele>2014.2</ele>
    <time>2026-06-20T11:50:23Z</time>
   </trkpt>
   <trkpt lat="-3.1620470" lon="37.2862970">
    <ele>2014.5</ele>
    <time>2026-06-20T11:50:24Z</time>
   </trkpt>
   <trkpt lat="-3.1620460" lon="37.2862990">
    <ele>2014.5</ele>
    <time>2026-06-20T11:50:25Z</time>
   </trkpt>
   <trkpt lat="-3.1620440" lon="37.2863040">
    <ele>2014.6</ele>
    <time>2026-06-20T11:50:26Z</time>
   </trkpt>
   <trkpt lat="-3.1620380" lon="37.2863130">
    <ele>2014.8</ele>
    <time>2026-06-20T11:50:27Z</time>
   </trkpt>
   <trkpt lat="-3.1620380" lon="37.2863160">
    <ele>2014.8</ele>
    <time>2026-06-20T11:50:28Z</time>
   </trkpt>
   <trkpt lat="-3.1620380" lon="37.2863200">
    <ele>2014.9</ele>
    <time>2026-06-20T11:50:29Z</time>
   </trkpt>
   <trkpt lat="-3.1620330" lon="37.2863250">
    <ele>2015.1</ele>
    <time>2026-06-20T11:50:30Z</time>
   </trkpt>
   <trkpt lat="-3.1620310" lon="37.2863280">
    <ele>2015.1</ele>
    <time>2026-06-20T11:50:31Z</time>
   </trkpt>
   <trkpt lat="-3.1620200" lon="37.2863380">
    <ele>2015.4</ele>
    <time>2026-06-20T11:50:32Z</time>
   </trkpt>
   <trkpt lat="-3.1620160" lon="37.2863430">
    <ele>2015.5</ele>
    <time>2026-06-20T11:50:33Z</time>
   </trkpt>
   <trkpt lat="-3.1620130" lon="37.2863490">
    <ele>2015.7</ele>
    <time>2026-06-20T11:50:34Z</time>
   </trkpt>
   <trkpt lat="-3.1620100" lon="37.2863500">
    <ele>2015.7</ele>
    <time>2026-06-20T11:50:35Z</time>
   </trkpt>
   <trkpt lat="-3.1620040" lon="37.2863570">
    <ele>2015.9</ele>
    <time>2026-06-20T11:50:36Z</time>
   </trkpt>
   <trkpt lat="-3.1620060" lon="37.2863630">
    <ele>2016.0</ele>
    <time>2026-06-20T11:50:37Z</time>
   </trkpt>
   <trkpt lat="-3.1620000" lon="37.2863670">
    <ele>2016.2</ele>
    <time>2026-06-20T11:50:38Z</time>
   </trkpt>
   <trkpt lat="-3.1619970" lon="37.2863720">
    <ele>2016.3</ele>
    <time>2026-06-20T11:50:39Z</time>
   </trkpt>
   <trkpt lat="-3.1619910" lon="37.2863780">
    <ele>2016.5</ele>
    <time>2026-06-20T11:50:40Z</time>
   </trkpt>
   <trkpt lat="-3.1619890" lon="37.2863840">
    <ele>2016.6</ele>
    <time>2026-06-20T11:50:41Z</time>
   </trkpt>
   <trkpt lat="-3.1619840" lon="37.2863880">
    <ele>2016.8</ele>
    <time>2026-06-20T11:50:42Z</time>
   </trkpt>
   <trkpt lat="-3.1619800" lon="37.2863950">
    <ele>2016.9</ele>
    <time>2026-06-20T11:50:43Z</time>
   </trkpt>
   <trkpt lat="-3.1619760" lon="37.2863990">
    <ele>2017.1</ele>
    <time>2026-06-20T11:50:44Z</time>
   </trkpt>
   <trkpt lat="-3.1619760" lon="37.2864010">
    <ele>2017.1</ele>
    <time>2026-06-20T11:50:45Z</time>
   </trkpt>
   <trkpt lat="-3.1619690" lon="37.2864110">
    <ele>2017.4</ele>
    <time>2026-06-20T11:50:46Z</time>
   </trkpt>
   <trkpt lat="-3.1619630" lon="37.2864160">
    <ele>2017.5</ele>
    <time>2026-06-20T11:50:47Z</time>
   </trkpt>
   <trkpt lat="-3.1619550" lon="37.2864150">
    <ele>2017.7</ele>
    <time>2026-06-20T11:50:48Z</time>
   </trkpt>
   <trkpt lat="-3.1619470" lon="37.2864150">
    <ele>2017.9</ele>
    <time>2026-06-20T11:50:49Z</time>
   </trkpt>
   <trkpt lat="-3.1619410" lon="37.2864190">
    <ele>2018.0</ele>
    <time>2026-06-20T11:50:50Z</time>
   </trkpt>
   <trkpt lat="-3.1619320" lon="37.2864250">
    <ele>2018.2</ele>
    <time>2026-06-20T11:50:51Z</time>
   </trkpt>
   <trkpt lat="-3.1619220" lon="37.2864340">
    <ele>2018.5</ele>
    <time>2026-06-20T11:50:52Z</time>
   </trkpt>
   <trkpt lat="-3.1619190" lon="37.2864340">
    <ele>2018.6</ele>
    <time>2026-06-20T11:50:53Z</time>
   </trkpt>
   <trkpt lat="-3.1619130" lon="37.2864360">
    <ele>2018.7</ele>
    <time>2026-06-20T11:50:54Z</time>
   </trkpt>
   <trkpt lat="-3.1619060" lon="37.2864350">
    <ele>2018.9</ele>
    <time>2026-06-20T11:50:55Z</time>
   </trkpt>
   <trkpt lat="-3.1619070" lon="37.2864330">
    <ele>2018.9</ele>
    <time>2026-06-20T11:50:56Z</time>
   </trkpt>
   <trkpt lat="-3.1618950" lon="37.2864350">
    <ele>2019.2</ele>
    <time>2026-06-20T11:50:57Z</time>
   </trkpt>
   <trkpt lat="-3.1618900" lon="37.2864380">
    <ele>2019.3</ele>
    <time>2026-06-20T11:50:58Z</time>
   </trkpt>
   <trkpt lat="-3.1618840" lon="37.2864390">
    <ele>2019.4</ele>
    <time>2026-06-20T11:50:59Z</time>
   </trkpt>
   <trkpt lat="-3.1618810" lon="37.2864320">
    <ele>2019.6</ele>
    <time>2026-06-20T11:51:00Z</time>
   </trkpt>
   <trkpt lat="-3.1618820" lon="37.2864320">
    <ele>2019.6</ele>
    <time>2026-06-20T11:51:01Z</time>
   </trkpt>
   <trkpt lat="-3.1618800" lon="37.2864370">
    <ele>2019.7</ele>
    <time>2026-06-20T11:51:02Z</time>
   </trkpt>
   <trkpt lat="-3.1618790" lon="37.2864350">
    <ele>2019.8</ele>
    <time>2026-06-20T11:51:03Z</time>
   </trkpt>
   <trkpt lat="-3.1618730" lon="37.2864410">
    <ele>2019.9</ele>
    <time>2026-06-20T11:51:04Z</time>
   </trkpt>
   <trkpt lat="-3.1618740" lon="37.2864430">
    <ele>2020.0</ele>
    <time>2026-06-20T11:51:05Z</time>
   </trkpt>
   <trkpt lat="-3.1618700" lon="37.2864410">
    <ele>2020.1</ele>
    <time>2026-06-20T11:51:06Z</time>
   </trkpt>
   <trkpt lat="-3.1618690" lon="37.2864380">
    <ele>2020.1</ele>
    <time>2026-06-20T11:51:07Z</time>
   </trkpt>
   <trkpt lat="-3.1618590" lon="37.2864430">
    <ele>2020.4</ele>
    <time>2026-06-20T11:51:08Z</time>
   </trkpt>
   <trkpt lat="-3.1618550" lon="37.2864450">
    <ele>2020.5</ele>
    <time>2026-06-20T11:51:09Z</time>
   </trkpt>
   <trkpt lat="-3.1618510" lon="37.2864430">
    <ele>2020.6</ele>
    <time>2026-06-20T11:51:10Z</time>
   </trkpt>
   <trkpt lat="-3.1618470" lon="37.2864430">
    <ele>2020.6</ele>
    <time>2026-06-20T11:51:11Z</time>
   </trkpt>
   <trkpt lat="-3.1618420" lon="37.2864430">
    <ele>2020.7</ele>
    <time>2026-06-20T11:51:12Z</time>
   </trkpt>
   <trkpt lat="-3.1618360" lon="37.2864450">
    <ele>2020.9</ele>
    <time>2026-06-20T11:51:14Z</time>
   </trkpt>
   <trkpt lat="-3.1618310" lon="37.2864460">
    <ele>2021.0</ele>
    <time>2026-06-20T11:51:15Z</time>
   </trkpt>
   <trkpt lat="-3.1618240" lon="37.2864460">
    <ele>2021.1</ele>
    <time>2026-06-20T11:51:16Z</time>
   </trkpt>
   <trkpt lat="-3.1618180" lon="37.2864450">
    <ele>2021.2</ele>
    <time>2026-06-20T11:51:17Z</time>
   </trkpt>
   <trkpt lat="-3.1618130" lon="37.2864460">
    <ele>2021.3</ele>
    <time>2026-06-20T11:51:18Z</time>
   </trkpt>
   <trkpt lat="-3.1618030" lon="37.2864420">
    <ele>2021.6</ele>
    <time>2026-06-20T11:51:19Z</time>
   </trkpt>
   <trkpt lat="-3.1618010" lon="37.2864410">
    <ele>2021.6</ele>
    <time>2026-06-20T11:51:20Z</time>
   </trkpt>
   <trkpt lat="-3.1617930" lon="37.2864440">
    <ele>2021.8</ele>
    <time>2026-06-20T11:51:21Z</time>
   </trkpt>
   <trkpt lat="-3.1617860" lon="37.2864430">
    <ele>2021.9</ele>
    <time>2026-06-20T11:51:22Z</time>
   </trkpt>
   <trkpt lat="-3.1617780" lon="37.2864400">
    <ele>2022.0</ele>
    <time>2026-06-20T11:51:23Z</time>
   </trkpt>
   <trkpt lat="-3.1617750" lon="37.2864360">
    <ele>2022.1</ele>
    <time>2026-06-20T11:51:24Z</time>
   </trkpt>
   <trkpt lat="-3.1617680" lon="37.2864360">
    <ele>2022.3</ele>
    <time>2026-06-20T11:51:25Z</time>
   </trkpt>
   <trkpt lat="-3.1617630" lon="37.2864350">
    <ele>2022.4</ele>
    <time>2026-06-20T11:51:26Z</time>
   </trkpt>
   <trkpt lat="-3.1617600" lon="37.2864380">
    <ele>2022.5</ele>
    <time>2026-06-20T11:51:27Z</time>
   </trkpt>
   <trkpt lat="-3.1617540" lon="37.2864340">
    <ele>2022.6</ele>
    <time>2026-06-20T11:51:28Z</time>
   </trkpt>
   <trkpt lat="-3.1617520" lon="37.2864320">
    <ele>2022.6</ele>
    <time>2026-06-20T11:51:29Z</time>
   </trkpt>
   <trkpt lat="-3.1617480" lon="37.2864280">
    <ele>2022.7</ele>
    <time>2026-06-20T11:51:30Z</time>
   </trkpt>
   <trkpt lat="-3.1617450" lon="37.2864240">
    <ele>2022.8</ele>
    <time>2026-06-20T11:51:31Z</time>
   </trkpt>
   <trkpt lat="-3.1617410" lon="37.2864240">
    <ele>2022.9</ele>
    <time>2026-06-20T11:51:32Z</time>
   </trkpt>
   <trkpt lat="-3.1617360" lon="37.2864180">
    <ele>2023.0</ele>
    <time>2026-06-20T11:51:33Z</time>
   </trkpt>
   <trkpt lat="-3.1617280" lon="37.2864210">
    <ele>2023.2</ele>
    <time>2026-06-20T11:51:34Z</time>
   </trkpt>
   <trkpt lat="-3.1617210" lon="37.2864210">
    <ele>2023.3</ele>
    <time>2026-06-20T11:51:35Z</time>
   </trkpt>
   <trkpt lat="-3.1617170" lon="37.2864160">
    <ele>2023.4</ele>
    <time>2026-06-20T11:51:36Z</time>
   </trkpt>
   <trkpt lat="-3.1617130" lon="37.2864180">
    <ele>2023.5</ele>
    <time>2026-06-20T11:51:37Z</time>
   </trkpt>
   <trkpt lat="-3.1617120" lon="37.2864150">
    <ele>2023.5</ele>
    <time>2026-06-20T11:51:38Z</time>
   </trkpt>
   <trkpt lat="-3.1617050" lon="37.2864090">
    <ele>2023.6</ele>
    <time>2026-06-20T11:51:39Z</time>
   </trkpt>
   <trkpt lat="-3.1617040" lon="37.2864060">
    <ele>2023.7</ele>
    <time>2026-06-20T11:51:40Z</time>
   </trkpt>
   <trkpt lat="-3.1617050" lon="37.2864020">
    <ele>2023.7</ele>
    <time>2026-06-20T11:51:41Z</time>
   </trkpt>
   <trkpt lat="-3.1617010" lon="37.2863940">
    <ele>2023.9</ele>
    <time>2026-06-20T11:51:42Z</time>
   </trkpt>
   <trkpt lat="-3.1616970" lon="37.2863840">
    <ele>2024.0</ele>
    <time>2026-06-20T11:51:43Z</time>
   </trkpt>
   <trkpt lat="-3.1616940" lon="37.2863730">
    <ele>2024.2</ele>
    <time>2026-06-20T11:51:44Z</time>
   </trkpt>
   <trkpt lat="-3.1616890" lon="37.2863660">
    <ele>2024.3</ele>
    <time>2026-06-20T11:51:45Z</time>
   </trkpt>
   <trkpt lat="-3.1616800" lon="37.2863610">
    <ele>2024.5</ele>
    <time>2026-06-20T11:51:46Z</time>
   </trkpt>
   <trkpt lat="-3.1616760" lon="37.2863480">
    <ele>2024.6</ele>
    <time>2026-06-20T11:51:47Z</time>
   </trkpt>
   <trkpt lat="-3.1616740" lon="37.2863430">
    <ele>2024.7</ele>
    <time>2026-06-20T11:51:48Z</time>
   </trkpt>
   <trkpt lat="-3.1616640" lon="37.2863380">
    <ele>2024.8</ele>
    <time>2026-06-20T11:51:49Z</time>
   </trkpt>
   <trkpt lat="-3.1616580" lon="37.2863330">
    <ele>2024.9</ele>
    <time>2026-06-20T11:51:50Z</time>
   </trkpt>
   <trkpt lat="-3.1616520" lon="37.2863260">
    <ele>2025.0</ele>
    <time>2026-06-20T11:51:51Z</time>
   </trkpt>
   <trkpt lat="-3.1616460" lon="37.2863160">
    <ele>2025.2</ele>
    <time>2026-06-20T11:51:52Z</time>
   </trkpt>
   <trkpt lat="-3.1616420" lon="37.2863120">
    <ele>2025.2</ele>
    <time>2026-06-20T11:51:53Z</time>
   </trkpt>
   <trkpt lat="-3.1616380" lon="37.2863100">
    <ele>2025.3</ele>
    <time>2026-06-20T11:51:54Z</time>
   </trkpt>
   <trkpt lat="-3.1616350" lon="37.2863000">
    <ele>2025.4</ele>
    <time>2026-06-20T11:51:55Z</time>
   </trkpt>
   <trkpt lat="-3.1616330" lon="37.2862960">
    <ele>2025.4</ele>
    <time>2026-06-20T11:51:56Z</time>
   </trkpt>
   <trkpt lat="-3.1616300" lon="37.2862890">
    <ele>2025.5</ele>
    <time>2026-06-20T11:51:57Z</time>
   </trkpt>
   <trkpt lat="-3.1616290" lon="37.2862820">
    <ele>2025.6</ele>
    <time>2026-06-20T11:51:58Z</time>
   </trkpt>
   <trkpt lat="-3.1616300" lon="37.2862790">
    <ele>2025.6</ele>
    <time>2026-06-20T11:51:59Z</time>
   </trkpt>
   <trkpt lat="-3.1616270" lon="37.2862760">
    <ele>2025.6</ele>
    <time>2026-06-20T11:52:00Z</time>
   </trkpt>
   <trkpt lat="-3.1616260" lon="37.2862710">
    <ele>2025.7</ele>
    <time>2026-06-20T11:52:01Z</time>
   </trkpt>
   <trkpt lat="-3.1616190" lon="37.2862620">
    <ele>2025.8</ele>
    <time>2026-06-20T11:52:02Z</time>
   </trkpt>
   <trkpt lat="-3.1616130" lon="37.2862590">
    <ele>2025.8</ele>
    <time>2026-06-20T11:52:03Z</time>
   </trkpt>
   <trkpt lat="-3.1616120" lon="37.2862530">
    <ele>2025.9</ele>
    <time>2026-06-20T11:52:04Z</time>
   </trkpt>
   <trkpt lat="-3.1616070" lon="37.2862440">
    <ele>2026.0</ele>
    <time>2026-06-20T11:52:05Z</time>
   </trkpt>
   <trkpt lat="-3.1616060" lon="37.2862410">
    <ele>2026.0</ele>
    <time>2026-06-20T11:52:06Z</time>
   </trkpt>
   <trkpt lat="-3.1616100" lon="37.2862410">
    <ele>2026.0</ele>
    <time>2026-06-20T11:52:07Z</time>
   </trkpt>
   <trkpt lat="-3.1616010" lon="37.2862270">
    <ele>2026.1</ele>
    <time>2026-06-20T11:52:08Z</time>
   </trkpt>
   <trkpt lat="-3.1616010" lon="37.2862200">
    <ele>2026.1</ele>
    <time>2026-06-20T11:52:09Z</time>
   </trkpt>
   <trkpt lat="-3.1615980" lon="37.2862140">
    <ele>2026.2</ele>
    <time>2026-06-20T11:52:10Z</time>
   </trkpt>
   <trkpt lat="-3.1615910" lon="37.2862050">
    <ele>2026.3</ele>
    <time>2026-06-20T11:52:11Z</time>
   </trkpt>
   <trkpt lat="-3.1615850" lon="37.2861990">
    <ele>2026.3</ele>
    <time>2026-06-20T11:52:12Z</time>
   </trkpt>
   <trkpt lat="-3.1615810" lon="37.2861940">
    <ele>2026.3</ele>
    <time>2026-06-20T11:52:13Z</time>
   </trkpt>
   <trkpt lat="-3.1615720" lon="37.2861870">
    <ele>2026.4</ele>
    <time>2026-06-20T11:52:14Z</time>
   </trkpt>
   <trkpt lat="-3.1615640" lon="37.2861780">
    <ele>2026.4</ele>
    <time>2026-06-20T11:52:15Z</time>
   </trkpt>
   <trkpt lat="-3.1615600" lon="37.2861690">
    <ele>2026.4</ele>
    <time>2026-06-20T11:52:16Z</time>
   </trkpt>
   <trkpt lat="-3.1615520" lon="37.2861590">
    <ele>2026.5</ele>
    <time>2026-06-20T11:52:17Z</time>
   </trkpt>
   <trkpt lat="-3.1615460" lon="37.2861510">
    <ele>2026.5</ele>
    <time>2026-06-20T11:52:18Z</time>
   </trkpt>
   <trkpt lat="-3.1615360" lon="37.2861430">
    <ele>2026.5</ele>
    <time>2026-06-20T11:52:19Z</time>
   </trkpt>
   <trkpt lat="-3.1615290" lon="37.2861380">
    <ele>2026.5</ele>
    <time>2026-06-20T11:52:20Z</time>
   </trkpt>
   <trkpt lat="-3.1615220" lon="37.2861270">
    <ele>2026.6</ele>
    <time>2026-06-20T11:52:21Z</time>
   </trkpt>
   <trkpt lat="-3.1615210" lon="37.2861150">
    <ele>2026.6</ele>
    <time>2026-06-20T11:52:22Z</time>
   </trkpt>
   <trkpt lat="-3.1615140" lon="37.2861040">
    <ele>2026.6</ele>
    <time>2026-06-20T11:52:23Z</time>
   </trkpt>
   <trkpt lat="-3.1615100" lon="37.2860940">
    <ele>2026.6</ele>
    <time>2026-06-20T11:52:24Z</time>
   </trkpt>
   <trkpt lat="-3.1615040" lon="37.2860790">
    <ele>2026.6</ele>
    <time>2026-06-20T11:52:25Z</time>
   </trkpt>
   <trkpt lat="-3.1614950" lon="37.2860680">
    <ele>2026.7</ele>
    <time>2026-06-20T11:52:26Z</time>
   </trkpt>
   <trkpt lat="-3.1614910" lon="37.2860510">
    <ele>2026.7</ele>
    <time>2026-06-20T11:52:27Z</time>
   </trkpt>
   <trkpt lat="-3.1614870" lon="37.2860380">
    <ele>2026.7</ele>
    <time>2026-06-20T11:52:28Z</time>
   </trkpt>
   <trkpt lat="-3.1614830" lon="37.2860280">
    <ele>2026.7</ele>
    <time>2026-06-20T11:52:29Z</time>
   </trkpt>
   <trkpt lat="-3.1614770" lon="37.2860160">
    <ele>2026.7</ele>
    <time>2026-06-20T11:52:30Z</time>
   </trkpt>
   <trkpt lat="-3.1614660" lon="37.2860090">
    <ele>2026.7</ele>
    <time>2026-06-20T11:52:31Z</time>
   </trkpt>
   <trkpt lat="-3.1614590" lon="37.2859940">
    <ele>2026.8</ele>
    <time>2026-06-20T11:52:32Z</time>
   </trkpt>
   <trkpt lat="-3.1614500" lon="37.2859800">
    <ele>2026.8</ele>
    <time>2026-06-20T11:52:33Z</time>
   </trkpt>
   <trkpt lat="-3.1614420" lon="37.2859730">
    <ele>2026.8</ele>
    <time>2026-06-20T11:52:34Z</time>
   </trkpt>
   <trkpt lat="-3.1614370" lon="37.2859700">
    <ele>2026.8</ele>
    <time>2026-06-20T11:52:35Z</time>
   </trkpt>
   <trkpt lat="-3.1614330" lon="37.2859600">
    <ele>2026.8</ele>
    <time>2026-06-20T11:52:36Z</time>
   </trkpt>
   <trkpt lat="-3.1614320" lon="37.2859560">
    <ele>2026.8</ele>
    <time>2026-06-20T11:52:37Z</time>
   </trkpt>
   <trkpt lat="-3.1614240" lon="37.2859560">
    <ele>2026.8</ele>
    <time>2026-06-20T11:52:38Z</time>
   </trkpt>
   <trkpt lat="-3.1614180" lon="37.2859510">
    <ele>2026.9</ele>
    <time>2026-06-20T11:52:39Z</time>
   </trkpt>
   <trkpt lat="-3.1614180" lon="37.2859470">
    <ele>2026.9</ele>
    <time>2026-06-20T11:52:40Z</time>
   </trkpt>
   <trkpt lat="-3.1614140" lon="37.2859390">
    <ele>2026.9</ele>
    <time>2026-06-20T11:52:41Z</time>
   </trkpt>
   <trkpt lat="-3.1614080" lon="37.2859330">
    <ele>2026.9</ele>
    <time>2026-06-20T11:52:42Z</time>
   </trkpt>
   <trkpt lat="-3.1614030" lon="37.2859270">
    <ele>2026.9</ele>
    <time>2026-06-20T11:52:43Z</time>
   </trkpt>
   <trkpt lat="-3.1613940" lon="37.2859220">
    <ele>2026.9</ele>
    <time>2026-06-20T11:52:44Z</time>
   </trkpt>
   <trkpt lat="-3.1613860" lon="37.2859150">
    <ele>2027.0</ele>
    <time>2026-06-20T11:52:45Z</time>
   </trkpt>
   <trkpt lat="-3.1613770" lon="37.2859050">
    <ele>2027.0</ele>
    <time>2026-06-20T11:52:46Z</time>
   </trkpt>
   <trkpt lat="-3.1613680" lon="37.2859000">
    <ele>2027.0</ele>
    <time>2026-06-20T11:52:47Z</time>
   </trkpt>
   <trkpt lat="-3.1613670" lon="37.2859010">
    <ele>2027.0</ele>
    <time>2026-06-20T11:52:48Z</time>
   </trkpt>
   <trkpt lat="-3.1613670" lon="37.2858980">
    <ele>2027.0</ele>
    <time>2026-06-20T11:52:49Z</time>
   </trkpt>
   <trkpt lat="-3.1613600" lon="37.2858860">
    <ele>2027.1</ele>
    <time>2026-06-20T11:52:50Z</time>
   </trkpt>
   <trkpt lat="-3.1613550" lon="37.2858810">
    <ele>2027.1</ele>
    <time>2026-06-20T11:52:51Z</time>
   </trkpt>
   <trkpt lat="-3.1613520" lon="37.2858740">
    <ele>2027.1</ele>
    <time>2026-06-20T11:52:52Z</time>
   </trkpt>
   <trkpt lat="-3.1613490" lon="37.2858670">
    <ele>2027.1</ele>
    <time>2026-06-20T11:52:53Z</time>
   </trkpt>
   <trkpt lat="-3.1613450" lon="37.2858610">
    <ele>2027.1</ele>
    <time>2026-06-20T11:52:54Z</time>
   </trkpt>
   <trkpt lat="-3.1613400" lon="37.2858520">
    <ele>2027.2</ele>
    <time>2026-06-20T11:52:55Z</time>
   </trkpt>
   <trkpt lat="-3.1613380" lon="37.2858450">
    <ele>2027.2</ele>
    <time>2026-06-20T11:52:56Z</time>
   </trkpt>
   <trkpt lat="-3.1613340" lon="37.2858370">
    <ele>2027.2</ele>
    <time>2026-06-20T11:52:57Z</time>
   </trkpt>
   <trkpt lat="-3.1613300" lon="37.2858430">
    <ele>2027.2</ele>
    <time>2026-06-20T11:52:58Z</time>
   </trkpt>
   <trkpt lat="-3.1613210" lon="37.2858390">
    <ele>2027.3</ele>
    <time>2026-06-20T11:52:59Z</time>
   </trkpt>
   <trkpt lat="-3.1613170" lon="37.2858370">
    <ele>2027.3</ele>
    <time>2026-06-20T11:53:00Z</time>
   </trkpt>
   <trkpt lat="-3.1613090" lon="37.2858260">
    <ele>2027.3</ele>
    <time>2026-06-20T11:53:01Z</time>
   </trkpt>
   <trkpt lat="-3.1613050" lon="37.2858190">
    <ele>2027.3</ele>
    <time>2026-06-20T11:53:02Z</time>
   </trkpt>
   <trkpt lat="-3.1613050" lon="37.2858170">
    <ele>2027.3</ele>
    <time>2026-06-20T11:53:03Z</time>
   </trkpt>
   <trkpt lat="-3.1613030" lon="37.2858160">
    <ele>2027.3</ele>
    <time>2026-06-20T11:53:04Z</time>
   </trkpt>
   <trkpt lat="-3.1612910" lon="37.2858170">
    <ele>2027.4</ele>
    <time>2026-06-20T11:53:05Z</time>
   </trkpt>
   <trkpt lat="-3.1612890" lon="37.2858200">
    <ele>2027.4</ele>
    <time>2026-06-20T11:53:06Z</time>
   </trkpt>
   <trkpt lat="-3.1612740" lon="37.2858120">
    <ele>2027.4</ele>
    <time>2026-06-20T11:53:07Z</time>
   </trkpt>
   <trkpt lat="-3.1612730" lon="37.2858060">
    <ele>2027.4</ele>
    <time>2026-06-20T11:53:08Z</time>
   </trkpt>
   <trkpt lat="-3.1612680" lon="37.2858040">
    <ele>2027.5</ele>
    <time>2026-06-20T11:53:09Z</time>
   </trkpt>
   <trkpt lat="-3.1612640" lon="37.2858050">
    <ele>2027.5</ele>
    <time>2026-06-20T11:53:10Z</time>
   </trkpt>
   <trkpt lat="-3.1612650" lon="37.2858010">
    <ele>2027.5</ele>
    <time>2026-06-20T11:53:11Z</time>
   </trkpt>
   <trkpt lat="-3.1612640" lon="37.2857990">
    <ele>2027.5</ele>
    <time>2026-06-20T11:53:12Z</time>
   </trkpt>
   <trkpt lat="-3.1612580" lon="37.2857940">
    <ele>2027.5</ele>
    <time>2026-06-20T11:53:13Z</time>
   </trkpt>
   <trkpt lat="-3.1612530" lon="37.2857910">
    <ele>2027.5</ele>
    <time>2026-06-20T11:53:14Z</time>
   </trkpt>
   <trkpt lat="-3.1612480" lon="37.2857830">
    <ele>2027.5</ele>
    <time>2026-06-20T11:53:15Z</time>
   </trkpt>
   <trkpt lat="-3.1612440" lon="37.2857720">
    <ele>2027.6</ele>
    <time>2026-06-20T11:53:16Z</time>
   </trkpt>
   <trkpt lat="-3.1612380" lon="37.2857670">
    <ele>2027.6</ele>
    <time>2026-06-20T11:53:17Z</time>
   </trkpt>
   <trkpt lat="-3.1612270" lon="37.2857610">
    <ele>2027.6</ele>
    <time>2026-06-20T11:53:18Z</time>
   </trkpt>
   <trkpt lat="-3.1612190" lon="37.2857550">
    <ele>2027.7</ele>
    <time>2026-06-20T11:53:20Z</time>
   </trkpt>
   <trkpt lat="-3.1612130" lon="37.2857480">
    <ele>2027.7</ele>
    <time>2026-06-20T11:53:21Z</time>
   </trkpt>
   <trkpt lat="-3.1612070" lon="37.2857410">
    <ele>2027.7</ele>
    <time>2026-06-20T11:53:22Z</time>
   </trkpt>
   <trkpt lat="-3.1611970" lon="37.2857380">
    <ele>2027.8</ele>
    <time>2026-06-20T11:53:23Z</time>
   </trkpt>
   <trkpt lat="-3.1611920" lon="37.2857340">
    <ele>2027.8</ele>
    <time>2026-06-20T11:53:24Z</time>
   </trkpt>
   <trkpt lat="-3.1611870" lon="37.2857270">
    <ele>2027.8</ele>
    <time>2026-06-20T11:53:25Z</time>
   </trkpt>
   <trkpt lat="-3.1611840" lon="37.2857190">
    <ele>2027.8</ele>
    <time>2026-06-20T11:53:26Z</time>
   </trkpt>
   <trkpt lat="-3.1611790" lon="37.2857140">
    <ele>2027.9</ele>
    <time>2026-06-20T11:53:27Z</time>
   </trkpt>
   <trkpt lat="-3.1611660" lon="37.2857060">
    <ele>2027.9</ele>
    <time>2026-06-20T11:53:28Z</time>
   </trkpt>
   <trkpt lat="-3.1611600" lon="37.2857030">
    <ele>2028.0</ele>
    <time>2026-06-20T11:53:29Z</time>
   </trkpt>
   <trkpt lat="-3.1611510" lon="37.2856970">
    <ele>2028.0</ele>
    <time>2026-06-20T11:53:30Z</time>
   </trkpt>
   <trkpt lat="-3.1611410" lon="37.2856930">
    <ele>2028.0</ele>
    <time>2026-06-20T11:53:31Z</time>
   </trkpt>
   <trkpt lat="-3.1611290" lon="37.2856900">
    <ele>2028.1</ele>
    <time>2026-06-20T11:53:32Z</time>
   </trkpt>
   <trkpt lat="-3.1611220" lon="37.2856910">
    <ele>2028.1</ele>
    <time>2026-06-20T11:53:33Z</time>
   </trkpt>
   <trkpt lat="-3.1611120" lon="37.2856860">
    <ele>2028.2</ele>
    <time>2026-06-20T11:53:34Z</time>
   </trkpt>
   <trkpt lat="-3.1611010" lon="37.2856810">
    <ele>2028.3</ele>
    <time>2026-06-20T11:53:35Z</time>
   </trkpt>
   <trkpt lat="-3.1610920" lon="37.2856730">
    <ele>2028.4</ele>
    <time>2026-06-20T11:53:36Z</time>
   </trkpt>
   <trkpt lat="-3.1610850" lon="37.2856680">
    <ele>2028.4</ele>
    <time>2026-06-20T11:53:37Z</time>
   </trkpt>
   <trkpt lat="-3.1610780" lon="37.2856640">
    <ele>2028.5</ele>
    <time>2026-06-20T11:53:38Z</time>
   </trkpt>
   <trkpt lat="-3.1610700" lon="37.2856610">
    <ele>2028.5</ele>
    <time>2026-06-20T11:53:39Z</time>
   </trkpt>
   <trkpt lat="-3.1610630" lon="37.2856600">
    <ele>2028.6</ele>
    <time>2026-06-20T11:53:40Z</time>
   </trkpt>
   <trkpt lat="-3.1610590" lon="37.2856570">
    <ele>2028.6</ele>
    <time>2026-06-20T11:53:41Z</time>
   </trkpt>
   <trkpt lat="-3.1610470" lon="37.2856580">
    <ele>2028.7</ele>
    <time>2026-06-20T11:53:42Z</time>
   </trkpt>
   <trkpt lat="-3.1610380" lon="37.2856580">
    <ele>2028.8</ele>
    <time>2026-06-20T11:53:43Z</time>
   </trkpt>
   <trkpt lat="-3.1610280" lon="37.2856530">
    <ele>2028.9</ele>
    <time>2026-06-20T11:53:44Z</time>
   </trkpt>
   <trkpt lat="-3.1610180" lon="37.2856490">
    <ele>2029.0</ele>
    <time>2026-06-20T11:53:45Z</time>
   </trkpt>
   <trkpt lat="-3.1610090" lon="37.2856470">
    <ele>2029.1</ele>
    <time>2026-06-20T11:53:46Z</time>
   </trkpt>
   <trkpt lat="-3.1610010" lon="37.2856430">
    <ele>2029.2</ele>
    <time>2026-06-20T11:53:47Z</time>
   </trkpt>
   <trkpt lat="-3.1609900" lon="37.2856380">
    <ele>2029.3</ele>
    <time>2026-06-20T11:53:48Z</time>
   </trkpt>
   <trkpt lat="-3.1609800" lon="37.2856370">
    <ele>2029.4</ele>
    <time>2026-06-20T11:53:49Z</time>
   </trkpt>
   <trkpt lat="-3.1609710" lon="37.2856380">
    <ele>2029.5</ele>
    <time>2026-06-20T11:53:50Z</time>
   </trkpt>
   <trkpt lat="-3.1609660" lon="37.2856400">
    <ele>2029.6</ele>
    <time>2026-06-20T11:53:51Z</time>
   </trkpt>
   <trkpt lat="-3.1609610" lon="37.2856410">
    <ele>2029.6</ele>
    <time>2026-06-20T11:53:52Z</time>
   </trkpt>
   <trkpt lat="-3.1609590" lon="37.2856420">
    <ele>2029.7</ele>
    <time>2026-06-20T11:53:53Z</time>
   </trkpt>
   <trkpt lat="-3.1609540" lon="37.2856420">
    <ele>2029.7</ele>
    <time>2026-06-20T11:53:54Z</time>
   </trkpt>
   <trkpt lat="-3.1609460" lon="37.2856470">
    <ele>2029.8</ele>
    <time>2026-06-20T11:53:55Z</time>
   </trkpt>
   <trkpt lat="-3.1609420" lon="37.2856400">
    <ele>2029.9</ele>
    <time>2026-06-20T11:53:56Z</time>
   </trkpt>
   <trkpt lat="-3.1609370" lon="37.2856410">
    <ele>2030.0</ele>
    <time>2026-06-20T11:53:57Z</time>
   </trkpt>
   <trkpt lat="-3.1609320" lon="37.2856400">
    <ele>2030.0</ele>
    <time>2026-06-20T11:53:58Z</time>
   </trkpt>
   <trkpt lat="-3.1609290" lon="37.2856400">
    <ele>2030.1</ele>
    <time>2026-06-20T11:53:59Z</time>
   </trkpt>
   <trkpt lat="-3.1609190" lon="37.2856420">
    <ele>2030.2</ele>
    <time>2026-06-20T11:54:00Z</time>
   </trkpt>
   <trkpt lat="-3.1609120" lon="37.2856510">
    <ele>2030.3</ele>
    <time>2026-06-20T11:54:01Z</time>
   </trkpt>
   <trkpt lat="-3.1609090" lon="37.2856540">
    <ele>2030.4</ele>
    <time>2026-06-20T11:54:02Z</time>
   </trkpt>
   <trkpt lat="-3.1609050" lon="37.2856610">
    <ele>2030.5</ele>
    <time>2026-06-20T11:54:03Z</time>
   </trkpt>
   <trkpt lat="-3.1608970" lon="37.2856640">
    <ele>2030.6</ele>
    <time>2026-06-20T11:54:04Z</time>
   </trkpt>
   <trkpt lat="-3.1608960" lon="37.2856680">
    <ele>2030.6</ele>
    <time>2026-06-20T11:54:05Z</time>
   </trkpt>
   <trkpt lat="-3.1608810" lon="37.2856700">
    <ele>2030.8</ele>
    <time>2026-06-20T11:54:06Z</time>
   </trkpt>
   <trkpt lat="-3.1608690" lon="37.2856670">
    <ele>2030.9</ele>
    <time>2026-06-20T11:54:07Z</time>
   </trkpt>
   <trkpt lat="-3.1608640" lon="37.2856650">
    <ele>2031.0</ele>
    <time>2026-06-20T11:54:08Z</time>
   </trkpt>
   <trkpt lat="-3.1608610" lon="37.2856740">
    <ele>2031.1</ele>
    <time>2026-06-20T11:54:09Z</time>
   </trkpt>
   <trkpt lat="-3.1608580" lon="37.2856830">
    <ele>2031.2</ele>
    <time>2026-06-20T11:54:10Z</time>
   </trkpt>
   <trkpt lat="-3.1608580" lon="37.2856910">
    <ele>2031.2</ele>
    <time>2026-06-20T11:54:11Z</time>
   </trkpt>
   <trkpt lat="-3.1608560" lon="37.2856970">
    <ele>2031.3</ele>
    <time>2026-06-20T11:54:12Z</time>
   </trkpt>
   <trkpt lat="-3.1608520" lon="37.2857030">
    <ele>2031.4</ele>
    <time>2026-06-20T11:54:13Z</time>
   </trkpt>
   <trkpt lat="-3.1608430" lon="37.2857110">
    <ele>2031.5</ele>
    <time>2026-06-20T11:54:14Z</time>
   </trkpt>
   <trkpt lat="-3.1608360" lon="37.2857100">
    <ele>2031.6</ele>
    <time>2026-06-20T11:54:15Z</time>
   </trkpt>
   <trkpt lat="-3.1608170" lon="37.2856980">
    <ele>2031.8</ele>
    <time>2026-06-20T11:54:16Z</time>
   </trkpt>
   <trkpt lat="-3.1608050" lon="37.2856950">
    <ele>2032.0</ele>
    <time>2026-06-20T11:54:17Z</time>
   </trkpt>
   <trkpt lat="-3.1607940" lon="37.2856930">
    <ele>2032.1</ele>
    <time>2026-06-20T11:54:18Z</time>
   </trkpt>
   <trkpt lat="-3.1607860" lon="37.2856960">
    <ele>2032.2</ele>
    <time>2026-06-20T11:54:19Z</time>
   </trkpt>
   <trkpt lat="-3.1607750" lon="37.2856950">
    <ele>2032.3</ele>
    <time>2026-06-20T11:54:20Z</time>
   </trkpt>
   <trkpt lat="-3.1607690" lon="37.2856970">
    <ele>2032.3</ele>
    <time>2026-06-20T11:54:21Z</time>
   </trkpt>
   <trkpt lat="-3.1607640" lon="37.2856990">
    <ele>2032.4</ele>
    <time>2026-06-20T11:54:22Z</time>
   </trkpt>
   <trkpt lat="-3.1607640" lon="37.2856980">
    <ele>2032.4</ele>
    <time>2026-06-20T11:54:23Z</time>
   </trkpt>
   <trkpt lat="-3.1607660" lon="37.2857070">
    <ele>2032.5</ele>
    <time>2026-06-20T11:54:24Z</time>
   </trkpt>
   <trkpt lat="-3.1607610" lon="37.2857130">
    <ele>2032.6</ele>
    <time>2026-06-20T11:54:25Z</time>
   </trkpt>
   <trkpt lat="-3.1607520" lon="37.2857190">
    <ele>2032.7</ele>
    <time>2026-06-20T11:54:26Z</time>
   </trkpt>
   <trkpt lat="-3.1607460" lon="37.2857200">
    <ele>2032.8</ele>
    <time>2026-06-20T11:54:27Z</time>
   </trkpt>
   <trkpt lat="-3.1607410" lon="37.2857190">
    <ele>2032.8</ele>
    <time>2026-06-20T11:54:28Z</time>
   </trkpt>
   <trkpt lat="-3.1607320" lon="37.2857260">
    <ele>2032.9</ele>
    <time>2026-06-20T11:54:29Z</time>
   </trkpt>
   <trkpt lat="-3.1607260" lon="37.2857290">
    <ele>2033.0</ele>
    <time>2026-06-20T11:54:30Z</time>
   </trkpt>
   <trkpt lat="-3.1607160" lon="37.2857270">
    <ele>2033.1</ele>
    <time>2026-06-20T11:54:31Z</time>
   </trkpt>
   <trkpt lat="-3.1607190" lon="37.2857250">
    <ele>2033.1</ele>
    <time>2026-06-20T11:54:32Z</time>
   </trkpt>
   <trkpt lat="-3.1607100" lon="37.2857350">
    <ele>2033.3</ele>
    <time>2026-06-20T11:54:33Z</time>
   </trkpt>
   <trkpt lat="-3.1606980" lon="37.2857390">
    <ele>2033.4</ele>
    <time>2026-06-20T11:54:34Z</time>
   </trkpt>
   <trkpt lat="-3.1606860" lon="37.2857420">
    <ele>2033.5</ele>
    <time>2026-06-20T11:54:35Z</time>
   </trkpt>
   <trkpt lat="-3.1606760" lon="37.2857430">
    <ele>2033.6</ele>
    <time>2026-06-20T11:54:36Z</time>
   </trkpt>
   <trkpt lat="-3.1606720" lon="37.2857600">
    <ele>2033.8</ele>
    <time>2026-06-20T11:54:37Z</time>
   </trkpt>
   <trkpt lat="-3.1606630" lon="37.2857630">
    <ele>2033.9</ele>
    <time>2026-06-20T11:54:38Z</time>
   </trkpt>
   <trkpt lat="-3.1606570" lon="37.2857620">
    <ele>2034.0</ele>
    <time>2026-06-20T11:54:39Z</time>
   </trkpt>
   <trkpt lat="-3.1606490" lon="37.2857670">
    <ele>2034.0</ele>
    <time>2026-06-20T11:54:40Z</time>
   </trkpt>
   <trkpt lat="-3.1606400" lon="37.2857670">
    <ele>2034.1</ele>
    <time>2026-06-20T11:54:41Z</time>
   </trkpt>
   <trkpt lat="-3.1606380" lon="37.2857780">
    <ele>2034.2</ele>
    <time>2026-06-20T11:54:42Z</time>
   </trkpt>
   <trkpt lat="-3.1606350" lon="37.2857870">
    <ele>2034.3</ele>
    <time>2026-06-20T11:54:43Z</time>
   </trkpt>
   <trkpt lat="-3.1606300" lon="37.2857890">
    <ele>2034.4</ele>
    <time>2026-06-20T11:54:44Z</time>
   </trkpt>
   <trkpt lat="-3.1606230" lon="37.2857980">
    <ele>2034.5</ele>
    <time>2026-06-20T11:54:45Z</time>
   </trkpt>
   <trkpt lat="-3.1606180" lon="37.2858080">
    <ele>2034.6</ele>
    <time>2026-06-20T11:54:46Z</time>
   </trkpt>
   <trkpt lat="-3.1606170" lon="37.2858090">
    <ele>2034.6</ele>
    <time>2026-06-20T11:54:47Z</time>
   </trkpt>
   <trkpt lat="-3.1606090" lon="37.2858120">
    <ele>2034.7</ele>
    <time>2026-06-20T11:54:48Z</time>
   </trkpt>
   <trkpt lat="-3.1606060" lon="37.2858170">
    <ele>2034.8</ele>
    <time>2026-06-20T11:54:49Z</time>
   </trkpt>
   <trkpt lat="-3.1606010" lon="37.2858240">
    <ele>2034.9</ele>
    <time>2026-06-20T11:54:50Z</time>
   </trkpt>
   <trkpt lat="-3.1605930" lon="37.2858280">
    <ele>2035.0</ele>
    <time>2026-06-20T11:54:51Z</time>
   </trkpt>
   <trkpt lat="-3.1605820" lon="37.2858300">
    <ele>2035.1</ele>
    <time>2026-06-20T11:54:52Z</time>
   </trkpt>
   <trkpt lat="-3.1605690" lon="37.2858360">
    <ele>2035.3</ele>
    <time>2026-06-20T11:54:53Z</time>
   </trkpt>
   <trkpt lat="-3.1605610" lon="37.2858360">
    <ele>2035.4</ele>
    <time>2026-06-20T11:54:54Z</time>
   </trkpt>
   <trkpt lat="-3.1605570" lon="37.2858370">
    <ele>2035.4</ele>
    <time>2026-06-20T11:54:55Z</time>
   </trkpt>
   <trkpt lat="-3.1605520" lon="37.2858420">
    <ele>2035.5</ele>
    <time>2026-06-20T11:54:56Z</time>
   </trkpt>
   <trkpt lat="-3.1605430" lon="37.2858450">
    <ele>2035.6</ele>
    <time>2026-06-20T11:54:57Z</time>
   </trkpt>
   <trkpt lat="-3.1605390" lon="37.2858470">
    <ele>2035.6</ele>
    <time>2026-06-20T11:54:58Z</time>
   </trkpt>
   <trkpt lat="-3.1605320" lon="37.2858480">
    <ele>2035.7</ele>
    <time>2026-06-20T11:54:59Z</time>
   </trkpt>
   <trkpt lat="-3.1605270" lon="37.2858490">
    <ele>2035.8</ele>
    <time>2026-06-20T11:55:00Z</time>
   </trkpt>
   <trkpt lat="-3.1605240" lon="37.2858540">
    <ele>2035.9</ele>
    <time>2026-06-20T11:55:01Z</time>
   </trkpt>
   <trkpt lat="-3.1605160" lon="37.2858600">
    <ele>2036.0</ele>
    <time>2026-06-20T11:55:02Z</time>
   </trkpt>
   <trkpt lat="-3.1605100" lon="37.2858640">
    <ele>2036.1</ele>
    <time>2026-06-20T11:55:03Z</time>
   </trkpt>
   <trkpt lat="-3.1605030" lon="37.2858620">
    <ele>2036.2</ele>
    <time>2026-06-20T11:55:04Z</time>
   </trkpt>
   <trkpt lat="-3.1604960" lon="37.2858660">
    <ele>2036.3</ele>
    <time>2026-06-20T11:55:05Z</time>
   </trkpt>
   <trkpt lat="-3.1604940" lon="37.2858690">
    <ele>2036.4</ele>
    <time>2026-06-20T11:55:06Z</time>
   </trkpt>
   <trkpt lat="-3.1604860" lon="37.2858710">
    <ele>2036.5</ele>
    <time>2026-06-20T11:55:07Z</time>
   </trkpt>
   <trkpt lat="-3.1604810" lon="37.2858750">
    <ele>2036.6</ele>
    <time>2026-06-20T11:55:08Z</time>
   </trkpt>
   <trkpt lat="-3.1604780" lon="37.2858790">
    <ele>2036.6</ele>
    <time>2026-06-20T11:55:09Z</time>
   </trkpt>
   <trkpt lat="-3.1604750" lon="37.2858860">
    <ele>2036.7</ele>
    <time>2026-06-20T11:55:10Z</time>
   </trkpt>
   <trkpt lat="-3.1604710" lon="37.2858920">
    <ele>2036.8</ele>
    <time>2026-06-20T11:55:11Z</time>
   </trkpt>
   <trkpt lat="-3.1604690" lon="37.2858950">
    <ele>2036.9</ele>
    <time>2026-06-20T11:55:12Z</time>
   </trkpt>
   <trkpt lat="-3.1604670" lon="37.2858960">
    <ele>2036.9</ele>
    <time>2026-06-20T11:55:13Z</time>
   </trkpt>
   <trkpt lat="-3.1604570" lon="37.2859070">
    <ele>2037.1</ele>
    <time>2026-06-20T11:55:14Z</time>
   </trkpt>
   <trkpt lat="-3.1604530" lon="37.2859100">
    <ele>2037.2</ele>
    <time>2026-06-20T11:55:15Z</time>
   </trkpt>
   <trkpt lat="-3.1604470" lon="37.2859150">
    <ele>2037.3</ele>
    <time>2026-06-20T11:55:16Z</time>
   </trkpt>
   <trkpt lat="-3.1604370" lon="37.2859160">
    <ele>2037.5</ele>
    <time>2026-06-20T11:55:17Z</time>
   </trkpt>
   <trkpt lat="-3.1604260" lon="37.2859180">
    <ele>2037.7</ele>
    <time>2026-06-20T11:55:18Z</time>
   </trkpt>
   <trkpt lat="-3.1604190" lon="37.2859200">
    <ele>2037.8</ele>
    <time>2026-06-20T11:55:19Z</time>
   </trkpt>
   <trkpt lat="-3.1604130" lon="37.2859240">
    <ele>2037.9</ele>
    <time>2026-06-20T11:55:20Z</time>
   </trkpt>
   <trkpt lat="-3.1604080" lon="37.2859260">
    <ele>2038.0</ele>
    <time>2026-06-20T11:55:21Z</time>
   </trkpt>
   <trkpt lat="-3.1604030" lon="37.2859280">
    <ele>2038.1</ele>
    <time>2026-06-20T11:55:22Z</time>
   </trkpt>
   <trkpt lat="-3.1604000" lon="37.2859330">
    <ele>2038.2</ele>
    <time>2026-06-20T11:55:23Z</time>
   </trkpt>
   <trkpt lat="-3.1603960" lon="37.2859390">
    <ele>2038.3</ele>
    <time>2026-06-20T11:55:25Z</time>
   </trkpt>
   <trkpt lat="-3.1603890" lon="37.2859430">
    <ele>2038.4</ele>
    <time>2026-06-20T11:55:26Z</time>
   </trkpt>
   <trkpt lat="-3.1603830" lon="37.2859500">
    <ele>2038.6</ele>
    <time>2026-06-20T11:55:27Z</time>
   </trkpt>
   <trkpt lat="-3.1603820" lon="37.2859560">
    <ele>2038.7</ele>
    <time>2026-06-20T11:55:28Z</time>
   </trkpt>
   <trkpt lat="-3.1603790" lon="37.2859600">
    <ele>2038.8</ele>
    <time>2026-06-20T11:55:29Z</time>
   </trkpt>
   <trkpt lat="-3.1603780" lon="37.2859650">
    <ele>2038.9</ele>
    <time>2026-06-20T11:55:30Z</time>
   </trkpt>
   <trkpt lat="-3.1603730" lon="37.2859690">
    <ele>2039.0</ele>
    <time>2026-06-20T11:55:31Z</time>
   </trkpt>
   <trkpt lat="-3.1603680" lon="37.2859720">
    <ele>2039.1</ele>
    <time>2026-06-20T11:55:32Z</time>
   </trkpt>
   <trkpt lat="-3.1603630" lon="37.2859730">
    <ele>2039.2</ele>
    <time>2026-06-20T11:55:33Z</time>
   </trkpt>
   <trkpt lat="-3.1603580" lon="37.2859740">
    <ele>2039.3</ele>
    <time>2026-06-20T11:55:34Z</time>
   </trkpt>
   <trkpt lat="-3.1603500" lon="37.2859800">
    <ele>2039.5</ele>
    <time>2026-06-20T11:55:35Z</time>
   </trkpt>
   <trkpt lat="-3.1603450" lon="37.2859810">
    <ele>2039.6</ele>
    <time>2026-06-20T11:55:36Z</time>
   </trkpt>
   <trkpt lat="-3.1603450" lon="37.2859840">
    <ele>2039.7</ele>
    <time>2026-06-20T11:55:37Z</time>
   </trkpt>
   <trkpt lat="-3.1603470" lon="37.2859880">
    <ele>2039.7</ele>
    <time>2026-06-20T11:55:38Z</time>
   </trkpt>
   <trkpt lat="-3.1603390" lon="37.2859900">
    <ele>2039.9</ele>
    <time>2026-06-20T11:55:39Z</time>
   </trkpt>
   <trkpt lat="-3.1603360" lon="37.2859890">
    <ele>2040.0</ele>
    <time>2026-06-20T11:55:40Z</time>
   </trkpt>
   <trkpt lat="-3.1603310" lon="37.2859920">
    <ele>2040.1</ele>
    <time>2026-06-20T11:55:41Z</time>
   </trkpt>
   <trkpt lat="-3.1603300" lon="37.2859940">
    <ele>2040.1</ele>
    <time>2026-06-20T11:55:42Z</time>
   </trkpt>
   <trkpt lat="-3.1603220" lon="37.2859980">
    <ele>2040.3</ele>
    <time>2026-06-20T11:55:43Z</time>
   </trkpt>
   <trkpt lat="-3.1603190" lon="37.2859990">
    <ele>2040.4</ele>
    <time>2026-06-20T11:55:44Z</time>
   </trkpt>
   <trkpt lat="-3.1603120" lon="37.2860080">
    <ele>2040.6</ele>
    <time>2026-06-20T11:55:45Z</time>
   </trkpt>
   <trkpt lat="-3.1603070" lon="37.2860110">
    <ele>2040.7</ele>
    <time>2026-06-20T11:55:46Z</time>
   </trkpt>
   <trkpt lat="-3.1603100" lon="37.2860200">
    <ele>2040.9</ele>
    <time>2026-06-20T11:55:47Z</time>
   </trkpt>
   <trkpt lat="-3.1603130" lon="37.2860200">
    <ele>2040.9</ele>
    <time>2026-06-20T11:55:48Z</time>
   </trkpt>
   <trkpt lat="-3.1603120" lon="37.2860220">
    <ele>2041.0</ele>
    <time>2026-06-20T11:55:49Z</time>
   </trkpt>
   <trkpt lat="-3.1603110" lon="37.2860230">
    <ele>2041.0</ele>
    <time>2026-06-20T11:55:50Z</time>
   </trkpt>
   <trkpt lat="-3.1603070" lon="37.2860210">
    <ele>2041.1</ele>
    <time>2026-06-20T11:55:51Z</time>
   </trkpt>
   <trkpt lat="-3.1603000" lon="37.2860240">
    <ele>2041.2</ele>
    <time>2026-06-20T11:55:52Z</time>
   </trkpt>
   <trkpt lat="-3.1602940" lon="37.2860260">
    <ele>2041.4</ele>
    <time>2026-06-20T11:55:53Z</time>
   </trkpt>
   <trkpt lat="-3.1602900" lon="37.2860300">
    <ele>2041.5</ele>
    <time>2026-06-20T11:55:54Z</time>
   </trkpt>
   <trkpt lat="-3.1602820" lon="37.2860350">
    <ele>2041.6</ele>
    <time>2026-06-20T11:55:55Z</time>
   </trkpt>
   <trkpt lat="-3.1602750" lon="37.2860380">
    <ele>2041.8</ele>
    <time>2026-06-20T11:55:56Z</time>
   </trkpt>
   <trkpt lat="-3.1602730" lon="37.2860390">
    <ele>2041.8</ele>
    <time>2026-06-20T11:55:57Z</time>
   </trkpt>
   <trkpt lat="-3.1602740" lon="37.2860450">
    <ele>2042.0</ele>
    <time>2026-06-20T11:55:58Z</time>
   </trkpt>
   <trkpt lat="-3.1602730" lon="37.2860520">
    <ele>2042.1</ele>
    <time>2026-06-20T11:55:59Z</time>
   </trkpt>
   <trkpt lat="-3.1602690" lon="37.2860560">
    <ele>2042.2</ele>
    <time>2026-06-20T11:56:00Z</time>
   </trkpt>
   <trkpt lat="-3.1602690" lon="37.2860620">
    <ele>2042.3</ele>
    <time>2026-06-20T11:56:01Z</time>
   </trkpt>
   <trkpt lat="-3.1602660" lon="37.2860640">
    <ele>2042.4</ele>
    <time>2026-06-20T11:56:02Z</time>
   </trkpt>
   <trkpt lat="-3.1602580" lon="37.2860690">
    <ele>2042.5</ele>
    <time>2026-06-20T11:56:03Z</time>
   </trkpt>
   <trkpt lat="-3.1602600" lon="37.2860730">
    <ele>2042.6</ele>
    <time>2026-06-20T11:56:04Z</time>
   </trkpt>
   <trkpt lat="-3.1602610" lon="37.2860740">
    <ele>2042.6</ele>
    <time>2026-06-20T11:56:05Z</time>
   </trkpt>
   <trkpt lat="-3.1602450" lon="37.2860600">
    <ele>2043.0</ele>
    <time>2026-06-20T11:56:06Z</time>
   </trkpt>
   <trkpt lat="-3.1602440" lon="37.2860720">
    <ele>2043.2</ele>
    <time>2026-06-20T11:56:07Z</time>
   </trkpt>
   <trkpt lat="-3.1602410" lon="37.2860740">
    <ele>2043.2</ele>
    <time>2026-06-20T11:56:08Z</time>
   </trkpt>
   <trkpt lat="-3.1602390" lon="37.2860730">
    <ele>2043.3</ele>
    <time>2026-06-20T11:56:09Z</time>
   </trkpt>
   <trkpt lat="-3.1602360" lon="37.2860770">
    <ele>2043.4</ele>
    <time>2026-06-20T11:56:10Z</time>
   </trkpt>
   <trkpt lat="-3.1602340" lon="37.2860810">
    <ele>2043.4</ele>
    <time>2026-06-20T11:56:11Z</time>
   </trkpt>
   <trkpt lat="-3.1602210" lon="37.2860880">
    <ele>2043.7</ele>
    <time>2026-06-20T11:56:12Z</time>
   </trkpt>
   <trkpt lat="-3.1602180" lon="37.2860940">
    <ele>2043.8</ele>
    <time>2026-06-20T11:56:13Z</time>
   </trkpt>
   <trkpt lat="-3.1602140" lon="37.2861000">
    <ele>2043.9</ele>
    <time>2026-06-20T11:56:14Z</time>
   </trkpt>
   <trkpt lat="-3.1602080" lon="37.2861100">
    <ele>2044.0</ele>
    <time>2026-06-20T11:56:15Z</time>
   </trkpt>
   <trkpt lat="-3.1602040" lon="37.2861140">
    <ele>2044.1</ele>
    <time>2026-06-20T11:56:16Z</time>
   </trkpt>
   <trkpt lat="-3.1601970" lon="37.2861170">
    <ele>2044.2</ele>
    <time>2026-06-20T11:56:17Z</time>
   </trkpt>
   <trkpt lat="-3.1601920" lon="37.2861200">
    <ele>2044.3</ele>
    <time>2026-06-20T11:56:18Z</time>
   </trkpt>
   <trkpt lat="-3.1601860" lon="37.2861270">
    <ele>2044.4</ele>
    <time>2026-06-20T11:56:19Z</time>
   </trkpt>
   <trkpt lat="-3.1601860" lon="37.2861430">
    <ele>2044.6</ele>
    <time>2026-06-20T11:56:20Z</time>
   </trkpt>
   <trkpt lat="-3.1601830" lon="37.2861500">
    <ele>2044.7</ele>
    <time>2026-06-20T11:56:21Z</time>
   </trkpt>
   <trkpt lat="-3.1601820" lon="37.2861510">
    <ele>2044.7</ele>
    <time>2026-06-20T11:56:22Z</time>
   </trkpt>
   <trkpt lat="-3.1601810" lon="37.2861630">
    <ele>2044.9</ele>
    <time>2026-06-20T11:56:23Z</time>
   </trkpt>
   <trkpt lat="-3.1601760" lon="37.2861730">
    <ele>2045.0</ele>
    <time>2026-06-20T11:56:24Z</time>
   </trkpt>
   <trkpt lat="-3.1601690" lon="37.2861780">
    <ele>2045.1</ele>
    <time>2026-06-20T11:56:25Z</time>
   </trkpt>
   <trkpt lat="-3.1601680" lon="37.2861850">
    <ele>2045.2</ele>
    <time>2026-06-20T11:56:26Z</time>
   </trkpt>
   <trkpt lat="-3.1601670" lon="37.2861910">
    <ele>2045.3</ele>
    <time>2026-06-20T11:56:27Z</time>
   </trkpt>
   <trkpt lat="-3.1601660" lon="37.2861920">
    <ele>2045.3</ele>
    <time>2026-06-20T11:56:28Z</time>
   </trkpt>
   <trkpt lat="-3.1601600" lon="37.2862090">
    <ele>2045.4</ele>
    <time>2026-06-20T11:56:29Z</time>
   </trkpt>
   <trkpt lat="-3.1601590" lon="37.2862170">
    <ele>2045.5</ele>
    <time>2026-06-20T11:56:30Z</time>
   </trkpt>
   <trkpt lat="-3.1601600" lon="37.2862200">
    <ele>2045.6</ele>
    <time>2026-06-20T11:56:31Z</time>
   </trkpt>
   <trkpt lat="-3.1601590" lon="37.2862240">
    <ele>2045.6</ele>
    <time>2026-06-20T11:56:32Z</time>
   </trkpt>
   <trkpt lat="-3.1601550" lon="37.2862290">
    <ele>2045.7</ele>
    <time>2026-06-20T11:56:33Z</time>
   </trkpt>
   <trkpt lat="-3.1601520" lon="37.2862310">
    <ele>2045.7</ele>
    <time>2026-06-20T11:56:34Z</time>
   </trkpt>
   <trkpt lat="-3.1601480" lon="37.2862350">
    <ele>2045.7</ele>
    <time>2026-06-20T11:56:35Z</time>
   </trkpt>
   <trkpt lat="-3.1601450" lon="37.2862390">
    <ele>2045.8</ele>
    <time>2026-06-20T11:56:36Z</time>
   </trkpt>
   <trkpt lat="-3.1601450" lon="37.2862440">
    <ele>2045.8</ele>
    <time>2026-06-20T11:56:37Z</time>
   </trkpt>
   <trkpt lat="-3.1601450" lon="37.2862500">
    <ele>2045.9</ele>
    <time>2026-06-20T11:56:38Z</time>
   </trkpt>
   <trkpt lat="-3.1601410" lon="37.2862630">
    <ele>2046.0</ele>
    <time>2026-06-20T11:56:39Z</time>
   </trkpt>
   <trkpt lat="-3.1601430" lon="37.2862610">
    <ele>2046.0</ele>
    <time>2026-06-20T11:56:40Z</time>
   </trkpt>
   <trkpt lat="-3.1601430" lon="37.2862740">
    <ele>2046.1</ele>
    <time>2026-06-20T11:56:41Z</time>
   </trkpt>
   <trkpt lat="-3.1601390" lon="37.2862730">
    <ele>2046.2</ele>
    <time>2026-06-20T11:56:42Z</time>
   </trkpt>
   <trkpt lat="-3.1601410" lon="37.2862800">
    <ele>2046.2</ele>
    <time>2026-06-20T11:56:43Z</time>
   </trkpt>
   <trkpt lat="-3.1601380" lon="37.2862840">
    <ele>2046.2</ele>
    <time>2026-06-20T11:56:44Z</time>
   </trkpt>
   <trkpt lat="-3.1601380" lon="37.2862880">
    <ele>2046.3</ele>
    <time>2026-06-20T11:56:45Z</time>
   </trkpt>
   <trkpt lat="-3.1601370" lon="37.2862990">
    <ele>2046.4</ele>
    <time>2026-06-20T11:56:46Z</time>
   </trkpt>
   <trkpt lat="-3.1601370" lon="37.2863120">
    <ele>2046.5</ele>
    <time>2026-06-20T11:56:47Z</time>
   </trkpt>
   <trkpt lat="-3.1601330" lon="37.2863150">
    <ele>2046.5</ele>
    <time>2026-06-20T11:56:48Z</time>
   </trkpt>
   <trkpt lat="-3.1601320" lon="37.2863190">
    <ele>2046.5</ele>
    <time>2026-06-20T11:56:49Z</time>
   </trkpt>
   <trkpt lat="-3.1601290" lon="37.2863300">
    <ele>2046.6</ele>
    <time>2026-06-20T11:56:50Z</time>
   </trkpt>
   <trkpt lat="-3.1601220" lon="37.2863390">
    <ele>2046.7</ele>
    <time>2026-06-20T11:56:51Z</time>
   </trkpt>
   <trkpt lat="-3.1601130" lon="37.2863480">
    <ele>2046.8</ele>
    <time>2026-06-20T11:56:52Z</time>
   </trkpt>
   <trkpt lat="-3.1601040" lon="37.2863510">
    <ele>2046.9</ele>
    <time>2026-06-20T11:56:53Z</time>
   </trkpt>
   <trkpt lat="-3.1600930" lon="37.2863610">
    <ele>2047.0</ele>
    <time>2026-06-20T11:56:54Z</time>
   </trkpt>
   <trkpt lat="-3.1600910" lon="37.2863690">
    <ele>2047.1</ele>
    <time>2026-06-20T11:56:55Z</time>
   </trkpt>
   <trkpt lat="-3.1600840" lon="37.2863810">
    <ele>2047.2</ele>
    <time>2026-06-20T11:56:56Z</time>
   </trkpt>
   <trkpt lat="-3.1600830" lon="37.2863920">
    <ele>2047.3</ele>
    <time>2026-06-20T11:56:57Z</time>
   </trkpt>
   <trkpt lat="-3.1600870" lon="37.2863940">
    <ele>2047.4</ele>
    <time>2026-06-20T11:56:58Z</time>
   </trkpt>
   <trkpt lat="-3.1600870" lon="37.2863980">
    <ele>2047.4</ele>
    <time>2026-06-20T11:56:59Z</time>
   </trkpt>
   <trkpt lat="-3.1600870" lon="37.2864100">
    <ele>2047.5</ele>
    <time>2026-06-20T11:57:00Z</time>
   </trkpt>
   <trkpt lat="-3.1600830" lon="37.2864160">
    <ele>2047.6</ele>
    <time>2026-06-20T11:57:01Z</time>
   </trkpt>
   <trkpt lat="-3.1600780" lon="37.2864240">
    <ele>2047.7</ele>
    <time>2026-06-20T11:57:02Z</time>
   </trkpt>
   <trkpt lat="-3.1600830" lon="37.2864290">
    <ele>2047.7</ele>
    <time>2026-06-20T11:57:03Z</time>
   </trkpt>
   <trkpt lat="-3.1600770" lon="37.2864370">
    <ele>2047.8</ele>
    <time>2026-06-20T11:57:04Z</time>
   </trkpt>
   <trkpt lat="-3.1600730" lon="37.2864470">
    <ele>2048.0</ele>
    <time>2026-06-20T11:57:05Z</time>
   </trkpt>
   <trkpt lat="-3.1600680" lon="37.2864560">
    <ele>2048.1</ele>
    <time>2026-06-20T11:57:06Z</time>
   </trkpt>
   <trkpt lat="-3.1600690" lon="37.2864560">
    <ele>2048.1</ele>
    <time>2026-06-20T11:57:07Z</time>
   </trkpt>
   <trkpt lat="-3.1600680" lon="37.2864650">
    <ele>2048.2</ele>
    <time>2026-06-20T11:57:08Z</time>
   </trkpt>
   <trkpt lat="-3.1600670" lon="37.2864660">
    <ele>2048.2</ele>
    <time>2026-06-20T11:57:09Z</time>
   </trkpt>
   <trkpt lat="-3.1600680" lon="37.2864680">
    <ele>2048.3</ele>
    <time>2026-06-20T11:57:10Z</time>
   </trkpt>
   <trkpt lat="-3.1600660" lon="37.2864760">
    <ele>2048.4</ele>
    <time>2026-06-20T11:57:11Z</time>
   </trkpt>
   <trkpt lat="-3.1600680" lon="37.2864770">
    <ele>2048.4</ele>
    <time>2026-06-20T11:57:12Z</time>
   </trkpt>
   <trkpt lat="-3.1600700" lon="37.2864840">
    <ele>2048.5</ele>
    <time>2026-06-20T11:57:13Z</time>
   </trkpt>
   <trkpt lat="-3.1600710" lon="37.2864940">
    <ele>2048.6</ele>
    <time>2026-06-20T11:57:14Z</time>
   </trkpt>
   <trkpt lat="-3.1600710" lon="37.2865000">
    <ele>2048.7</ele>
    <time>2026-06-20T11:57:15Z</time>
   </trkpt>
   <trkpt lat="-3.1600720" lon="37.2865090">
    <ele>2048.8</ele>
    <time>2026-06-20T11:57:16Z</time>
   </trkpt>
   <trkpt lat="-3.1600700" lon="37.2865150">
    <ele>2048.9</ele>
    <time>2026-06-20T11:57:17Z</time>
   </trkpt>
   <trkpt lat="-3.1600680" lon="37.2865190">
    <ele>2049.0</ele>
    <time>2026-06-20T11:57:18Z</time>
   </trkpt>
   <trkpt lat="-3.1600700" lon="37.2865270">
    <ele>2049.1</ele>
    <time>2026-06-20T11:57:19Z</time>
   </trkpt>
   <trkpt lat="-3.1600670" lon="37.2865350">
    <ele>2049.2</ele>
    <time>2026-06-20T11:57:20Z</time>
   </trkpt>
   <trkpt lat="-3.1600610" lon="37.2865440">
    <ele>2049.4</ele>
    <time>2026-06-20T11:57:21Z</time>
   </trkpt>
   <trkpt lat="-3.1600590" lon="37.2865430">
    <ele>2049.4</ele>
    <time>2026-06-20T11:57:22Z</time>
   </trkpt>
   <trkpt lat="-3.1600570" lon="37.2865420">
    <ele>2049.4</ele>
    <time>2026-06-20T11:57:23Z</time>
   </trkpt>
   <trkpt lat="-3.1600530" lon="37.2865430">
    <ele>2049.5</ele>
    <time>2026-06-20T11:57:24Z</time>
   </trkpt>
   <trkpt lat="-3.1600490" lon="37.2865440">
    <ele>2049.5</ele>
    <time>2026-06-20T11:57:25Z</time>
   </trkpt>
   <trkpt lat="-3.1600470" lon="37.2865540">
    <ele>2049.7</ele>
    <time>2026-06-20T11:57:26Z</time>
   </trkpt>
   <trkpt lat="-3.1600480" lon="37.2865590">
    <ele>2049.7</ele>
    <time>2026-06-20T11:57:27Z</time>
   </trkpt>
   <trkpt lat="-3.1600430" lon="37.2865700">
    <ele>2049.9</ele>
    <time>2026-06-20T11:57:28Z</time>
   </trkpt>
   <trkpt lat="-3.1600410" lon="37.2865760">
    <ele>2050.0</ele>
    <time>2026-06-20T11:57:29Z</time>
   </trkpt>
   <trkpt lat="-3.1600370" lon="37.2865800">
    <ele>2050.1</ele>
    <time>2026-06-20T11:57:31Z</time>
   </trkpt>
   <trkpt lat="-3.1600330" lon="37.2865910">
    <ele>2050.2</ele>
    <time>2026-06-20T11:57:32Z</time>
   </trkpt>
   <trkpt lat="-3.1600310" lon="37.2865990">
    <ele>2050.3</ele>
    <time>2026-06-20T11:57:33Z</time>
   </trkpt>
   <trkpt lat="-3.1600280" lon="37.2866040">
    <ele>2050.4</ele>
    <time>2026-06-20T11:57:34Z</time>
   </trkpt>
   <trkpt lat="-3.1600270" lon="37.2866160">
    <ele>2050.6</ele>
    <time>2026-06-20T11:57:35Z</time>
   </trkpt>
   <trkpt lat="-3.1600290" lon="37.2866200">
    <ele>2050.6</ele>
    <time>2026-06-20T11:57:36Z</time>
   </trkpt>
   <trkpt lat="-3.1600280" lon="37.2866270">
    <ele>2050.7</ele>
    <time>2026-06-20T11:57:37Z</time>
   </trkpt>
   <trkpt lat="-3.1600260" lon="37.2866370">
    <ele>2050.8</ele>
    <time>2026-06-20T11:57:38Z</time>
   </trkpt>
   <trkpt lat="-3.1600200" lon="37.2866440">
    <ele>2051.0</ele>
    <time>2026-06-20T11:57:39Z</time>
   </trkpt>
   <trkpt lat="-3.1600140" lon="37.2866510">
    <ele>2051.1</ele>
    <time>2026-06-20T11:57:40Z</time>
   </trkpt>
   <trkpt lat="-3.1600100" lon="37.2866540">
    <ele>2051.1</ele>
    <time>2026-06-20T11:57:41Z</time>
   </trkpt>
   <trkpt lat="-3.1600100" lon="37.2866600">
    <ele>2051.2</ele>
    <time>2026-06-20T11:57:42Z</time>
   </trkpt>
   <trkpt lat="-3.1600090" lon="37.2866690">
    <ele>2051.3</ele>
    <time>2026-06-20T11:57:43Z</time>
   </trkpt>
   <trkpt lat="-3.1600050" lon="37.2866780">
    <ele>2051.4</ele>
    <time>2026-06-20T11:57:44Z</time>
   </trkpt>
   <trkpt lat="-3.1600030" lon="37.2866880">
    <ele>2051.6</ele>
    <time>2026-06-20T11:57:45Z</time>
   </trkpt>
   <trkpt lat="-3.1600000" lon="37.2866950">
    <ele>2051.7</ele>
    <time>2026-06-20T11:57:46Z</time>
   </trkpt>
   <trkpt lat="-3.1600000" lon="37.2867050">
    <ele>2051.8</ele>
    <time>2026-06-20T11:57:47Z</time>
   </trkpt>
   <trkpt lat="-3.1599980" lon="37.2867090">
    <ele>2051.8</ele>
    <time>2026-06-20T11:57:48Z</time>
   </trkpt>
   <trkpt lat="-3.1599980" lon="37.2867180">
    <ele>2052.0</ele>
    <time>2026-06-20T11:57:49Z</time>
   </trkpt>
   <trkpt lat="-3.1599920" lon="37.2867260">
    <ele>2052.1</ele>
    <time>2026-06-20T11:57:50Z</time>
   </trkpt>
   <trkpt lat="-3.1599940" lon="37.2867290">
    <ele>2052.1</ele>
    <time>2026-06-20T11:57:51Z</time>
   </trkpt>
   <trkpt lat="-3.1599940" lon="37.2867340">
    <ele>2052.2</ele>
    <time>2026-06-20T11:57:52Z</time>
   </trkpt>
   <trkpt lat="-3.1599930" lon="37.2867450">
    <ele>2052.3</ele>
    <time>2026-06-20T11:57:53Z</time>
   </trkpt>
   <trkpt lat="-3.1599830" lon="37.2867550">
    <ele>2052.5</ele>
    <time>2026-06-20T11:57:54Z</time>
   </trkpt>
   <trkpt lat="-3.1599800" lon="37.2867610">
    <ele>2052.6</ele>
    <time>2026-06-20T11:57:55Z</time>
   </trkpt>
   <trkpt lat="-3.1599780" lon="37.2867680">
    <ele>2052.6</ele>
    <time>2026-06-20T11:57:56Z</time>
   </trkpt>
   <trkpt lat="-3.1599790" lon="37.2867720">
    <ele>2052.7</ele>
    <time>2026-06-20T11:57:57Z</time>
   </trkpt>
   <trkpt lat="-3.1599820" lon="37.2867760">
    <ele>2052.8</ele>
    <time>2026-06-20T11:57:58Z</time>
   </trkpt>
   <trkpt lat="-3.1599720" lon="37.2867840">
    <ele>2052.9</ele>
    <time>2026-06-20T11:57:59Z</time>
   </trkpt>
   <trkpt lat="-3.1599720" lon="37.2867850">
    <ele>2052.9</ele>
    <time>2026-06-20T11:58:00Z</time>
   </trkpt>
   <trkpt lat="-3.1599740" lon="37.2867850">
    <ele>2052.9</ele>
    <time>2026-06-20T11:58:01Z</time>
   </trkpt>
   <trkpt lat="-3.1599670" lon="37.2867930">
    <ele>2053.1</ele>
    <time>2026-06-20T11:58:02Z</time>
   </trkpt>
   <trkpt lat="-3.1599660" lon="37.2868000">
    <ele>2053.1</ele>
    <time>2026-06-20T11:58:03Z</time>
   </trkpt>
   <trkpt lat="-3.1599670" lon="37.2868100">
    <ele>2053.3</ele>
    <time>2026-06-20T11:58:04Z</time>
   </trkpt>
   <trkpt lat="-3.1599670" lon="37.2868190">
    <ele>2053.4</ele>
    <time>2026-06-20T11:58:05Z</time>
   </trkpt>
   <trkpt lat="-3.1599710" lon="37.2868320">
    <ele>2053.5</ele>
    <time>2026-06-20T11:58:06Z</time>
   </trkpt>
   <trkpt lat="-3.1599700" lon="37.2868450">
    <ele>2053.7</ele>
    <time>2026-06-20T11:58:07Z</time>
   </trkpt>
   <trkpt lat="-3.1599640" lon="37.2868560">
    <ele>2053.8</ele>
    <time>2026-06-20T11:58:08Z</time>
   </trkpt>
   <trkpt lat="-3.1599670" lon="37.2868630">
    <ele>2053.9</ele>
    <time>2026-06-20T11:58:09Z</time>
   </trkpt>
   <trkpt lat="-3.1599680" lon="37.2868700">
    <ele>2053.9</ele>
    <time>2026-06-20T11:58:10Z</time>
   </trkpt>
   <trkpt lat="-3.1599610" lon="37.2868760">
    <ele>2054.0</ele>
    <time>2026-06-20T11:58:11Z</time>
   </trkpt>
   <trkpt lat="-3.1599450" lon="37.2868910">
    <ele>2054.3</ele>
    <time>2026-06-20T11:58:12Z</time>
   </trkpt>
   <trkpt lat="-3.1599430" lon="37.2868980">
    <ele>2054.3</ele>
    <time>2026-06-20T11:58:13Z</time>
   </trkpt>
   <trkpt lat="-3.1599370" lon="37.2868990">
    <ele>2054.4</ele>
    <time>2026-06-20T11:58:14Z</time>
   </trkpt>
   <trkpt lat="-3.1599230" lon="37.2869010">
    <ele>2054.5</ele>
    <time>2026-06-20T11:58:15Z</time>
   </trkpt>
   <trkpt lat="-3.1599130" lon="37.2869020">
    <ele>2054.6</ele>
    <time>2026-06-20T11:58:16Z</time>
   </trkpt>
   <trkpt lat="-3.1599070" lon="37.2869080">
    <ele>2054.7</ele>
    <time>2026-06-20T11:58:17Z</time>
   </trkpt>
   <trkpt lat="-3.1599080" lon="37.2869170">
    <ele>2054.8</ele>
    <time>2026-06-20T11:58:18Z</time>
   </trkpt>
   <trkpt lat="-3.1599090" lon="37.2869240">
    <ele>2054.9</ele>
    <time>2026-06-20T11:58:19Z</time>
   </trkpt>
   <trkpt lat="-3.1599020" lon="37.2869330">
    <ele>2055.0</ele>
    <time>2026-06-20T11:58:20Z</time>
   </trkpt>
   <trkpt lat="-3.1598990" lon="37.2869370">
    <ele>2055.0</ele>
    <time>2026-06-20T11:58:21Z</time>
   </trkpt>
   <trkpt lat="-3.1599000" lon="37.2869400">
    <ele>2055.1</ele>
    <time>2026-06-20T11:58:22Z</time>
   </trkpt>
   <trkpt lat="-3.1599000" lon="37.2869400">
    <ele>2055.1</ele>
    <time>2026-06-20T11:58:23Z</time>
   </trkpt>
   <trkpt lat="-3.1598980" lon="37.2869460">
    <ele>2055.1</ele>
    <time>2026-06-20T11:58:24Z</time>
   </trkpt>
   <trkpt lat="-3.1598940" lon="37.2869580">
    <ele>2055.3</ele>
    <time>2026-06-20T11:58:25Z</time>
   </trkpt>
   <trkpt lat="-3.1598870" lon="37.2869680">
    <ele>2055.4</ele>
    <time>2026-06-20T11:58:26Z</time>
   </trkpt>
   <trkpt lat="-3.1598830" lon="37.2869720">
    <ele>2055.5</ele>
    <time>2026-06-20T11:58:27Z</time>
   </trkpt>
   <trkpt lat="-3.1598770" lon="37.2869680">
    <ele>2055.5</ele>
    <time>2026-06-20T11:58:28Z</time>
   </trkpt>
   <trkpt lat="-3.1598760" lon="37.2869690">
    <ele>2055.5</ele>
    <time>2026-06-20T11:58:29Z</time>
   </trkpt>
   <trkpt lat="-3.1598630" lon="37.2869730">
    <ele>2055.7</ele>
    <time>2026-06-20T11:58:30Z</time>
   </trkpt>
   <trkpt lat="-3.1598610" lon="37.2869690">
    <ele>2055.7</ele>
    <time>2026-06-20T11:58:31Z</time>
   </trkpt>
   <trkpt lat="-3.1598540" lon="37.2869680">
    <ele>2055.8</ele>
    <time>2026-06-20T11:58:32Z</time>
   </trkpt>
   <trkpt lat="-3.1598430" lon="37.2869720">
    <ele>2056.0</ele>
    <time>2026-06-20T11:58:33Z</time>
   </trkpt>
   <trkpt lat="-3.1598320" lon="37.2869760">
    <ele>2056.1</ele>
    <time>2026-06-20T11:58:34Z</time>
   </trkpt>
   <trkpt lat="-3.1598250" lon="37.2869840">
    <ele>2056.2</ele>
    <time>2026-06-20T11:58:35Z</time>
   </trkpt>
   <trkpt lat="-3.1598170" lon="37.2869870">
    <ele>2056.3</ele>
    <time>2026-06-20T11:58:36Z</time>
   </trkpt>
   <trkpt lat="-3.1598120" lon="37.2869910">
    <ele>2056.4</ele>
    <time>2026-06-20T11:58:37Z</time>
   </trkpt>
   <trkpt lat="-3.1598070" lon="37.2869920">
    <ele>2056.5</ele>
    <time>2026-06-20T11:58:38Z</time>
   </trkpt>
   <trkpt lat="-3.1598000" lon="37.2869930">
    <ele>2056.6</ele>
    <time>2026-06-20T11:58:39Z</time>
   </trkpt>
   <trkpt lat="-3.1597900" lon="37.2869910">
    <ele>2056.7</ele>
    <time>2026-06-20T11:58:40Z</time>
   </trkpt>
   <trkpt lat="-3.1597900" lon="37.2869880">
    <ele>2056.7</ele>
    <time>2026-06-20T11:58:41Z</time>
   </trkpt>
   <trkpt lat="-3.1597790" lon="37.2869940">
    <ele>2056.9</ele>
    <time>2026-06-20T11:58:42Z</time>
   </trkpt>
   <trkpt lat="-3.1597780" lon="37.2869930">
    <ele>2056.9</ele>
    <time>2026-06-20T11:58:43Z</time>
   </trkpt>
   <trkpt lat="-3.1597760" lon="37.2869910">
    <ele>2056.9</ele>
    <time>2026-06-20T11:58:44Z</time>
   </trkpt>
   <trkpt lat="-3.1597750" lon="37.2869890">
    <ele>2057.0</ele>
    <time>2026-06-20T11:58:45Z</time>
   </trkpt>
   <trkpt lat="-3.1597810" lon="37.2869890">
    <ele>2057.1</ele>
    <time>2026-06-20T11:58:46Z</time>
   </trkpt>
   <trkpt lat="-3.1597850" lon="37.2869960">
    <ele>2057.2</ele>
    <time>2026-06-20T11:58:47Z</time>
   </trkpt>
   <trkpt lat="-3.1597830" lon="37.2870000">
    <ele>2057.2</ele>
    <time>2026-06-20T11:58:48Z</time>
   </trkpt>
   <trkpt lat="-3.1597730" lon="37.2870020">
    <ele>2057.4</ele>
    <time>2026-06-20T11:58:49Z</time>
   </trkpt>
   <trkpt lat="-3.1597620" lon="37.2870030">
    <ele>2057.5</ele>
    <time>2026-06-20T11:58:50Z</time>
   </trkpt>
   <trkpt lat="-3.1597500" lon="37.2870060">
    <ele>2057.7</ele>
    <time>2026-06-20T11:58:51Z</time>
   </trkpt>
   <trkpt lat="-3.1597380" lon="37.2870100">
    <ele>2057.9</ele>
    <time>2026-06-20T11:58:52Z</time>
   </trkpt>
   <trkpt lat="-3.1597270" lon="37.2870110">
    <ele>2058.0</ele>
    <time>2026-06-20T11:58:53Z</time>
   </trkpt>
   <trkpt lat="-3.1597130" lon="37.2870120">
    <ele>2058.2</ele>
    <time>2026-06-20T11:58:54Z</time>
   </trkpt>
   <trkpt lat="-3.1597010" lon="37.2870210">
    <ele>2058.4</ele>
    <time>2026-06-20T11:58:55Z</time>
   </trkpt>
   <trkpt lat="-3.1596980" lon="37.2870230">
    <ele>2058.5</ele>
    <time>2026-06-20T11:58:56Z</time>
   </trkpt>
   <trkpt lat="-3.1596930" lon="37.2870250">
    <ele>2058.5</ele>
    <time>2026-06-20T11:58:57Z</time>
   </trkpt>
   <trkpt lat="-3.1596890" lon="37.2870260">
    <ele>2058.6</ele>
    <time>2026-06-20T11:58:58Z</time>
   </trkpt>
   <trkpt lat="-3.1596840" lon="37.2870360">
    <ele>2058.7</ele>
    <time>2026-06-20T11:58:59Z</time>
   </trkpt>
   <trkpt lat="-3.1596780" lon="37.2870360">
    <ele>2058.8</ele>
    <time>2026-06-20T11:59:00Z</time>
   </trkpt>
   <trkpt lat="-3.1596730" lon="37.2870370">
    <ele>2058.9</ele>
    <time>2026-06-20T11:59:01Z</time>
   </trkpt>
   <trkpt lat="-3.1596650" lon="37.2870360">
    <ele>2059.0</ele>
    <time>2026-06-20T11:59:02Z</time>
   </trkpt>
   <trkpt lat="-3.1596550" lon="37.2870370">
    <ele>2059.1</ele>
    <time>2026-06-20T11:59:03Z</time>
   </trkpt>
   <trkpt lat="-3.1596500" lon="37.2870400">
    <ele>2059.2</ele>
    <time>2026-06-20T11:59:04Z</time>
   </trkpt>
   <trkpt lat="-3.1596420" lon="37.2870400">
    <ele>2059.3</ele>
    <time>2026-06-20T11:59:05Z</time>
   </trkpt>
   <trkpt lat="-3.1596350" lon="37.2870430">
    <ele>2059.4</ele>
    <time>2026-06-20T11:59:06Z</time>
   </trkpt>
   <trkpt lat="-3.1596250" lon="37.2870470">
    <ele>2059.5</ele>
    <time>2026-06-20T11:59:07Z</time>
   </trkpt>
   <trkpt lat="-3.1596220" lon="37.2870450">
    <ele>2059.5</ele>
    <time>2026-06-20T11:59:08Z</time>
   </trkpt>
   <trkpt lat="-3.1596110" lon="37.2870520">
    <ele>2059.7</ele>
    <time>2026-06-20T11:59:09Z</time>
   </trkpt>
   <trkpt lat="-3.1596040" lon="37.2870540">
    <ele>2059.8</ele>
    <time>2026-06-20T11:59:10Z</time>
   </trkpt>
   <trkpt lat="-3.1595920" lon="37.2870580">
    <ele>2059.9</ele>
    <time>2026-06-20T11:59:11Z</time>
   </trkpt>
   <trkpt lat="-3.1595850" lon="37.2870630">
    <ele>2060.0</ele>
    <time>2026-06-20T11:59:12Z</time>
   </trkpt>
   <trkpt lat="-3.1595810" lon="37.2870640">
    <ele>2060.0</ele>
    <time>2026-06-20T11:59:13Z</time>
   </trkpt>
   <trkpt lat="-3.1595740" lon="37.2870600">
    <ele>2060.1</ele>
    <time>2026-06-20T11:59:14Z</time>
   </trkpt>
   <trkpt lat="-3.1595660" lon="37.2870630">
    <ele>2060.2</ele>
    <time>2026-06-20T11:59:15Z</time>
   </trkpt>
   <trkpt lat="-3.1595550" lon="37.2870690">
    <ele>2060.3</ele>
    <time>2026-06-20T11:59:16Z</time>
   </trkpt>
   <trkpt lat="-3.1595540" lon="37.2870750">
    <ele>2060.4</ele>
    <time>2026-06-20T11:59:17Z</time>
   </trkpt>
   <trkpt lat="-3.1595420" lon="37.2870770">
    <ele>2060.5</ele>
    <time>2026-06-20T11:59:18Z</time>
   </trkpt>
   <trkpt lat="-3.1595320" lon="37.2870760">
    <ele>2060.6</ele>
    <time>2026-06-20T11:59:19Z</time>
   </trkpt>
   <trkpt lat="-3.1595290" lon="37.2870750">
    <ele>2060.6</ele>
    <time>2026-06-20T11:59:20Z</time>
   </trkpt>
   <trkpt lat="-3.1595190" lon="37.2870750">
    <ele>2060.7</ele>
    <time>2026-06-20T11:59:21Z</time>
   </trkpt>
   <trkpt lat="-3.1595170" lon="37.2870710">
    <ele>2060.7</ele>
    <time>2026-06-20T11:59:22Z</time>
   </trkpt>
   <trkpt lat="-3.1595080" lon="37.2870720">
    <ele>2060.8</ele>
    <time>2026-06-20T11:59:23Z</time>
   </trkpt>
   <trkpt lat="-3.1594960" lon="37.2870700">
    <ele>2060.9</ele>
    <time>2026-06-20T11:59:24Z</time>
   </trkpt>
   <trkpt lat="-3.1594800" lon="37.2870670">
    <ele>2061.1</ele>
    <time>2026-06-20T11:59:25Z</time>
   </trkpt>
   <trkpt lat="-3.1594730" lon="37.2870680">
    <ele>2061.1</ele>
    <time>2026-06-20T11:59:26Z</time>
   </trkpt>
   <trkpt lat="-3.1594640" lon="37.2870650">
    <ele>2061.2</ele>
    <time>2026-06-20T11:59:27Z</time>
   </trkpt>
   <trkpt lat="-3.1594590" lon="37.2870670">
    <ele>2061.2</ele>
    <time>2026-06-20T11:59:28Z</time>
   </trkpt>
   <trkpt lat="-3.1594550" lon="37.2870640">
    <ele>2061.3</ele>
    <time>2026-06-20T11:59:29Z</time>
   </trkpt>
   <trkpt lat="-3.1594490" lon="37.2870610">
    <ele>2061.3</ele>
    <time>2026-06-20T11:59:30Z</time>
   </trkpt>
   <trkpt lat="-3.1594420" lon="37.2870650">
    <ele>2061.4</ele>
    <time>2026-06-20T11:59:31Z</time>
   </trkpt>
   <trkpt lat="-3.1594350" lon="37.2870700">
    <ele>2061.5</ele>
    <time>2026-06-20T11:59:32Z</time>
   </trkpt>
   <trkpt lat="-3.1594320" lon="37.2870760">
    <ele>2061.5</ele>
    <time>2026-06-20T11:59:33Z</time>
   </trkpt>
   <trkpt lat="-3.1594250" lon="37.2870870">
    <ele>2061.6</ele>
    <time>2026-06-20T11:59:34Z</time>
   </trkpt>
   <trkpt lat="-3.1594150" lon="37.2870930">
    <ele>2061.7</ele>
    <time>2026-06-20T11:59:36Z</time>
   </trkpt>
   <trkpt lat="-3.1594040" lon="37.2871030">
    <ele>2061.9</ele>
    <time>2026-06-20T11:59:37Z</time>
   </trkpt>
   <trkpt lat="-3.1593940" lon="37.2871120">
    <ele>2062.0</ele>
    <time>2026-06-20T11:59:38Z</time>
   </trkpt>
   <trkpt lat="-3.1593860" lon="37.2871190">
    <ele>2062.1</ele>
    <time>2026-06-20T11:59:39Z</time>
   </trkpt>
   <trkpt lat="-3.1593750" lon="37.2871310">
    <ele>2062.2</ele>
    <time>2026-06-20T11:59:40Z</time>
   </trkpt>
   <trkpt lat="-3.1593650" lon="37.2871450">
    <ele>2062.4</ele>
    <time>2026-06-20T11:59:41Z</time>
   </trkpt>
   <trkpt lat="-3.1593620" lon="37.2871500">
    <ele>2062.5</ele>
    <time>2026-06-20T11:59:42Z</time>
   </trkpt>
   <trkpt lat="-3.1593570" lon="37.2871560">
    <ele>2062.6</ele>
    <time>2026-06-20T11:59:43Z</time>
   </trkpt>
   <trkpt lat="-3.1593520" lon="37.2871620">
    <ele>2062.7</ele>
    <time>2026-06-20T11:59:44Z</time>
   </trkpt>
   <trkpt lat="-3.1593540" lon="37.2871660">
    <ele>2062.7</ele>
    <time>2026-06-20T11:59:45Z</time>
   </trkpt>
   <trkpt lat="-3.1593550" lon="37.2871770">
    <ele>2062.8</ele>
    <time>2026-06-20T11:59:46Z</time>
   </trkpt>
   <trkpt lat="-3.1593540" lon="37.2871860">
    <ele>2062.9</ele>
    <time>2026-06-20T11:59:47Z</time>
   </trkpt>
   <trkpt lat="-3.1593510" lon="37.2871930">
    <ele>2063.0</ele>
    <time>2026-06-20T11:59:48Z</time>
   </trkpt>
   <trkpt lat="-3.1593460" lon="37.2872010">
    <ele>2063.1</ele>
    <time>2026-06-20T11:59:49Z</time>
   </trkpt>
   <trkpt lat="-3.1593430" lon="37.2872040">
    <ele>2063.2</ele>
    <time>2026-06-20T11:59:50Z</time>
   </trkpt>
   <trkpt lat="-3.1593390" lon="37.2872070">
    <ele>2063.3</ele>
    <time>2026-06-20T11:59:51Z</time>
   </trkpt>
   <trkpt lat="-3.1593400" lon="37.2872120">
    <ele>2063.3</ele>
    <time>2026-06-20T11:59:52Z</time>
   </trkpt>
   <trkpt lat="-3.1593350" lon="37.2872170">
    <ele>2063.4</ele>
    <time>2026-06-20T11:59:53Z</time>
   </trkpt>
   <trkpt lat="-3.1593360" lon="37.2872240">
    <ele>2063.5</ele>
    <time>2026-06-20T11:59:54Z</time>
   </trkpt>
   <trkpt lat="-3.1593350" lon="37.2872220">
    <ele>2063.5</ele>
    <time>2026-06-20T11:59:55Z</time>
   </trkpt>
   <trkpt lat="-3.1593280" lon="37.2872270">
    <ele>2063.6</ele>
    <time>2026-06-20T11:59:56Z</time>
   </trkpt>
   <trkpt lat="-3.1593220" lon="37.2872330">
    <ele>2063.8</ele>
    <time>2026-06-20T11:59:57Z</time>
   </trkpt>
   <trkpt lat="-3.1593160" lon="37.2872400">
    <ele>2063.9</ele>
    <time>2026-06-20T11:59:58Z</time>
   </trkpt>
   <trkpt lat="-3.1593140" lon="37.2872400">
    <ele>2063.9</ele>
    <time>2026-06-20T11:59:59Z</time>
   </trkpt>
   <trkpt lat="-3.1593090" lon="37.2872440">
    <ele>2064.0</ele>
    <time>2026-06-20T12:00:00Z</time>
   </trkpt>
   <trkpt lat="-3.1593070" lon="37.2872470">
    <ele>2064.0</ele>
    <time>2026-06-20T12:00:01Z</time>
   </trkpt>
   <trkpt lat="-3.1593050" lon="37.2872520">
    <ele>2064.1</ele>
    <time>2026-06-20T12:00:02Z</time>
   </trkpt>
   <trkpt lat="-3.1593000" lon="37.2872520">
    <ele>2064.2</ele>
    <time>2026-06-20T12:00:03Z</time>
   </trkpt>
   <trkpt lat="-3.1593010" lon="37.2872550">
    <ele>2064.2</ele>
    <time>2026-06-20T12:00:04Z</time>
   </trkpt>
   <trkpt lat="-3.1592990" lon="37.2872580">
    <ele>2064.3</ele>
    <time>2026-06-20T12:00:05Z</time>
   </trkpt>
   <trkpt lat="-3.1592940" lon="37.2872620">
    <ele>2064.4</ele>
    <time>2026-06-20T12:00:06Z</time>
   </trkpt>
   <trkpt lat="-3.1592870" lon="37.2872650">
    <ele>2064.5</ele>
    <time>2026-06-20T12:00:07Z</time>
   </trkpt>
   <trkpt lat="-3.1592840" lon="37.2872700">
    <ele>2064.6</ele>
    <time>2026-06-20T12:00:08Z</time>
   </trkpt>
   <trkpt lat="-3.1592730" lon="37.2872720">
    <ele>2064.7</ele>
    <time>2026-06-20T12:00:09Z</time>
   </trkpt>
   <trkpt lat="-3.1592640" lon="37.2872760">
    <ele>2064.9</ele>
    <time>2026-06-20T12:00:10Z</time>
   </trkpt>
   <trkpt lat="-3.1592570" lon="37.2872850">
    <ele>2065.0</ele>
    <time>2026-06-20T12:00:11Z</time>
   </trkpt>
   <trkpt lat="-3.1592520" lon="37.2872910">
    <ele>2065.1</ele>
    <time>2026-06-20T12:00:12Z</time>
   </trkpt>
   <trkpt lat="-3.1592490" lon="37.2872950">
    <ele>2065.2</ele>
    <time>2026-06-20T12:00:13Z</time>
   </trkpt>
   <trkpt lat="-3.1592420" lon="37.2872990">
    <ele>2065.3</ele>
    <time>2026-06-20T12:00:14Z</time>
   </trkpt>
   <trkpt lat="-3.1592390" lon="37.2873060">
    <ele>2065.4</ele>
    <time>2026-06-20T12:00:15Z</time>
   </trkpt>
   <trkpt lat="-3.1592270" lon="37.2873110">
    <ele>2065.6</ele>
    <time>2026-06-20T12:00:16Z</time>
   </trkpt>
   <trkpt lat="-3.1592230" lon="37.2873150">
    <ele>2065.7</ele>
    <time>2026-06-20T12:00:17Z</time>
   </trkpt>
   <trkpt lat="-3.1592170" lon="37.2873150">
    <ele>2065.8</ele>
    <time>2026-06-20T12:00:18Z</time>
   </trkpt>
   <trkpt lat="-3.1592120" lon="37.2873140">
    <ele>2065.8</ele>
    <time>2026-06-20T12:00:19Z</time>
   </trkpt>
   <trkpt lat="-3.1592020" lon="37.2873200">
    <ele>2066.0</ele>
    <time>2026-06-20T12:00:20Z</time>
   </trkpt>
   <trkpt lat="-3.1592000" lon="37.2873250">
    <ele>2066.1</ele>
    <time>2026-06-20T12:00:21Z</time>
   </trkpt>
   <trkpt lat="-3.1591990" lon="37.2873320">
    <ele>2066.2</ele>
    <time>2026-06-20T12:00:22Z</time>
   </trkpt>
   <trkpt lat="-3.1591980" lon="37.2873360">
    <ele>2066.2</ele>
    <time>2026-06-20T12:00:23Z</time>
   </trkpt>
   <trkpt lat="-3.1591960" lon="37.2873390">
    <ele>2066.3</ele>
    <time>2026-06-20T12:00:24Z</time>
   </trkpt>
   <trkpt lat="-3.1591870" lon="37.2873490">
    <ele>2066.5</ele>
    <time>2026-06-20T12:00:25Z</time>
   </trkpt>
   <trkpt lat="-3.1591850" lon="37.2873540">
    <ele>2066.5</ele>
    <time>2026-06-20T12:00:26Z</time>
   </trkpt>
   <trkpt lat="-3.1591800" lon="37.2873610">
    <ele>2066.7</ele>
    <time>2026-06-20T12:00:27Z</time>
   </trkpt>
   <trkpt lat="-3.1591760" lon="37.2873690">
    <ele>2066.8</ele>
    <time>2026-06-20T12:00:28Z</time>
   </trkpt>
   <trkpt lat="-3.1591700" lon="37.2873730">
    <ele>2066.9</ele>
    <time>2026-06-20T12:00:29Z</time>
   </trkpt>
   <trkpt lat="-3.1591680" lon="37.2873790">
    <ele>2067.0</ele>
    <time>2026-06-20T12:00:30Z</time>
   </trkpt>
   <trkpt lat="-3.1591680" lon="37.2873790">
    <ele>2067.0</ele>
    <time>2026-06-20T12:00:31Z</time>
   </trkpt>
   <trkpt lat="-3.1591660" lon="37.2873820">
    <ele>2067.0</ele>
    <time>2026-06-20T12:00:32Z</time>
   </trkpt>
   <trkpt lat="-3.1591560" lon="37.2873970">
    <ele>2067.3</ele>
    <time>2026-06-20T12:00:33Z</time>
   </trkpt>
   <trkpt lat="-3.1591550" lon="37.2874010">
    <ele>2067.3</ele>
    <time>2026-06-20T12:00:34Z</time>
   </trkpt>
   <trkpt lat="-3.1591510" lon="37.2874090">
    <ele>2067.4</ele>
    <time>2026-06-20T12:00:35Z</time>
   </trkpt>
   <trkpt lat="-3.1591460" lon="37.2874150">
    <ele>2067.5</ele>
    <time>2026-06-20T12:00:36Z</time>
   </trkpt>
   <trkpt lat="-3.1591430" lon="37.2874220">
    <ele>2067.6</ele>
    <time>2026-06-20T12:00:37Z</time>
   </trkpt>
   <trkpt lat="-3.1591420" lon="37.2874260">
    <ele>2067.7</ele>
    <time>2026-06-20T12:00:38Z</time>
   </trkpt>
   <trkpt lat="-3.1591430" lon="37.2874300">
    <ele>2067.7</ele>
    <time>2026-06-20T12:00:39Z</time>
   </trkpt>
   <trkpt lat="-3.1591370" lon="37.2874380">
    <ele>2067.9</ele>
    <time>2026-06-20T12:00:40Z</time>
   </trkpt>
   <trkpt lat="-3.1591370" lon="37.2874420">
    <ele>2067.9</ele>
    <time>2026-06-20T12:00:41Z</time>
   </trkpt>
   <trkpt lat="-3.1591350" lon="37.2874540">
    <ele>2068.0</ele>
    <time>2026-06-20T12:00:42Z</time>
   </trkpt>
   <trkpt lat="-3.1591320" lon="37.2874600">
    <ele>2068.1</ele>
    <time>2026-06-20T12:00:43Z</time>
   </trkpt>
   <trkpt lat="-3.1591300" lon="37.2874670">
    <ele>2068.2</ele>
    <time>2026-06-20T12:00:44Z</time>
   </trkpt>
   <trkpt lat="-3.1591290" lon="37.2874760">
    <ele>2068.3</ele>
    <time>2026-06-20T12:00:45Z</time>
   </trkpt>
   <trkpt lat="-3.1591290" lon="37.2874860">
    <ele>2068.4</ele>
    <time>2026-06-20T12:00:46Z</time>
   </trkpt>
   <trkpt lat="-3.1591260" lon="37.2874920">
    <ele>2068.5</ele>
    <time>2026-06-20T12:00:47Z</time>
   </trkpt>
   <trkpt lat="-3.1591230" lon="37.2874970">
    <ele>2068.5</ele>
    <time>2026-06-20T12:00:48Z</time>
   </trkpt>
   <trkpt lat="-3.1591190" lon="37.2875100">
    <ele>2068.6</ele>
    <time>2026-06-20T12:00:49Z</time>
   </trkpt>
   <trkpt lat="-3.1591150" lon="37.2875100">
    <ele>2068.7</ele>
    <time>2026-06-20T12:00:50Z</time>
   </trkpt>
   <trkpt lat="-3.1591110" lon="37.2875130">
    <ele>2068.7</ele>
    <time>2026-06-20T12:00:51Z</time>
   </trkpt>
   <trkpt lat="-3.1591060" lon="37.2875190">
    <ele>2068.8</ele>
    <time>2026-06-20T12:00:52Z</time>
   </trkpt>
   <trkpt lat="-3.1591050" lon="37.2875250">
    <ele>2068.8</ele>
    <time>2026-06-20T12:00:53Z</time>
   </trkpt>
   <trkpt lat="-3.1591020" lon="37.2875310">
    <ele>2068.9</ele>
    <time>2026-06-20T12:00:54Z</time>
   </trkpt>
   <trkpt lat="-3.1590970" lon="37.2875370">
    <ele>2069.0</ele>
    <time>2026-06-20T12:00:55Z</time>
   </trkpt>
   <trkpt lat="-3.1590940" lon="37.2875490">
    <ele>2069.0</ele>
    <time>2026-06-20T12:00:56Z</time>
   </trkpt>
   <trkpt lat="-3.1590900" lon="37.2875510">
    <ele>2069.1</ele>
    <time>2026-06-20T12:00:57Z</time>
   </trkpt>
   <trkpt lat="-3.1590900" lon="37.2875590">
    <ele>2069.1</ele>
    <time>2026-06-20T12:00:58Z</time>
   </trkpt>
   <trkpt lat="-3.1590890" lon="37.2875570">
    <ele>2069.1</ele>
    <time>2026-06-20T12:00:59Z</time>
   </trkpt>
   <trkpt lat="-3.1590940" lon="37.2875660">
    <ele>2069.2</ele>
    <time>2026-06-20T12:01:00Z</time>
   </trkpt>
   <trkpt lat="-3.1590960" lon="37.2875730">
    <ele>2069.2</ele>
    <time>2026-06-20T12:01:01Z</time>
   </trkpt>
   <trkpt lat="-3.1590970" lon="37.2875780">
    <ele>2069.3</ele>
    <time>2026-06-20T12:01:02Z</time>
   </trkpt>
   <trkpt lat="-3.1590960" lon="37.2875910">
    <ele>2069.3</ele>
    <time>2026-06-20T12:01:03Z</time>
   </trkpt>
   <trkpt lat="-3.1590940" lon="37.2876000">
    <ele>2069.4</ele>
    <time>2026-06-20T12:01:04Z</time>
   </trkpt>
   <trkpt lat="-3.1590940" lon="37.2876060">
    <ele>2069.4</ele>
    <time>2026-06-20T12:01:05Z</time>
   </trkpt>
   <trkpt lat="-3.1590950" lon="37.2876130">
    <ele>2069.4</ele>
    <time>2026-06-20T12:01:06Z</time>
   </trkpt>
   <trkpt lat="-3.1590960" lon="37.2876180">
    <ele>2069.4</ele>
    <time>2026-06-20T12:01:07Z</time>
   </trkpt>
   <trkpt lat="-3.1590930" lon="37.2876190">
    <ele>2069.4</ele>
    <time>2026-06-20T12:01:08Z</time>
   </trkpt>
   <trkpt lat="-3.1590940" lon="37.2876170">
    <ele>2069.4</ele>
    <time>2026-06-20T12:01:09Z</time>
   </trkpt>
   <trkpt lat="-3.1590940" lon="37.2876170">
    <ele>2069.4</ele>
    <time>2026-06-20T12:01:10Z</time>
   </trkpt>
   <trkpt lat="-3.1590950" lon="37.2876240">
    <ele>2069.5</ele>
    <time>2026-06-20T12:01:11Z</time>
   </trkpt>
   <trkpt lat="-3.1590880" lon="37.2876340">
    <ele>2069.5</ele>
    <time>2026-06-20T12:01:12Z</time>
   </trkpt>
   <trkpt lat="-3.1590970" lon="37.2876320">
    <ele>2069.5</ele>
    <time>2026-06-20T12:01:13Z</time>
   </trkpt>
   <trkpt lat="-3.1590980" lon="37.2876260">
    <ele>2069.5</ele>
    <time>2026-06-20T12:01:14Z</time>
   </trkpt>
   <trkpt lat="-3.1591000" lon="37.2876300">
    <ele>2069.6</ele>
    <time>2026-06-20T12:01:15Z</time>
   </trkpt>
   <trkpt lat="-3.1591000" lon="37.2876340">
    <ele>2069.6</ele>
    <time>2026-06-20T12:01:16Z</time>
   </trkpt>
   <trkpt lat="-3.1591020" lon="37.2876440">
    <ele>2069.6</ele>
    <time>2026-06-20T12:01:17Z</time>
   </trkpt>
   <trkpt lat="-3.1591030" lon="37.2876420">
    <ele>2069.6</ele>
    <time>2026-06-20T12:01:18Z</time>
   </trkpt>
   <trkpt lat="-3.1591060" lon="37.2876410">
    <ele>2069.6</ele>
    <time>2026-06-20T12:01:19Z</time>
   </trkpt>
   <trkpt lat="-3.1591110" lon="37.2876470">
    <ele>2069.6</ele>
    <time>2026-06-20T12:01:20Z</time>
   </trkpt>
   <trkpt lat="-3.1591120" lon="37.2876440">
    <ele>2069.6</ele>
    <time>2026-06-20T12:01:21Z</time>
   </trkpt>
   <trkpt lat="-3.1591150" lon="37.2876470">
    <ele>2069.6</ele>
    <time>2026-06-20T12:01:22Z</time>
   </trkpt>
   <trkpt lat="-3.1591150" lon="37.2876460">
    <ele>2069.6</ele>
    <time>2026-06-20T12:01:23Z</time>
   </trkpt>
   <trkpt lat="-3.1591150" lon="37.2876460">
    <ele>2069.6</ele>
    <time>2026-06-20T12:01:24Z</time>
   </trkpt>
   <trkpt lat="-3.1591220" lon="37.2876470">
    <ele>2069.6</ele>
    <time>2026-06-20T12:01:25Z</time>
   </trkpt>
   <trkpt lat="-3.1591220" lon="37.2876460">
    <ele>2069.6</ele>
    <time>2026-06-20T12:01:26Z</time>
   </trkpt>
   <trkpt lat="-3.1591220" lon="37.2876460">
    <ele>2069.6</ele>
    <time>2026-06-20T12:01:27Z</time>
   </trkpt>
   <trkpt lat="-3.1591200" lon="37.2876560">
    <ele>2069.7</ele>
    <time>2026-06-20T12:01:28Z</time>
   </trkpt>
   <trkpt lat="-3.1591280" lon="37.2876610">
    <ele>2069.7</ele>
    <time>2026-06-20T12:01:29Z</time>
   </trkpt>
   <trkpt lat="-3.1591330" lon="37.2876680">
    <ele>2069.7</ele>
    <time>2026-06-20T12:01:30Z</time>
   </trkpt>
   <trkpt lat="-3.1591360" lon="37.2876770">
    <ele>2069.7</ele>
    <time>2026-06-20T12:01:31Z</time>
   </trkpt>
   <trkpt lat="-3.1591450" lon="37.2876900">
    <ele>2069.7</ele>
    <time>2026-06-20T12:01:32Z</time>
   </trkpt>
   <trkpt lat="-3.1591460" lon="37.2876900">
    <ele>2069.7</ele>
    <time>2026-06-20T12:01:33Z</time>
   </trkpt>
   <trkpt lat="-3.1591420" lon="37.2876960">
    <ele>2069.7</ele>
    <time>2026-06-20T12:01:34Z</time>
   </trkpt>
   <trkpt lat="-3.1591460" lon="37.2877080">
    <ele>2069.8</ele>
    <time>2026-06-20T12:01:35Z</time>
   </trkpt>
   <trkpt lat="-3.1591550" lon="37.2877140">
    <ele>2069.8</ele>
    <time>2026-06-20T12:01:36Z</time>
   </trkpt>
   <trkpt lat="-3.1591560" lon="37.2877240">
    <ele>2069.8</ele>
    <time>2026-06-20T12:01:37Z</time>
   </trkpt>
   <trkpt lat="-3.1591550" lon="37.2877360">
    <ele>2069.8</ele>
    <time>2026-06-20T12:01:38Z</time>
   </trkpt>
   <trkpt lat="-3.1591550" lon="37.2877420">
    <ele>2069.8</ele>
    <time>2026-06-20T12:01:39Z</time>
   </trkpt>
   <trkpt lat="-3.1591580" lon="37.2877480">
    <ele>2069.9</ele>
    <time>2026-06-20T12:01:40Z</time>
   </trkpt>
   <trkpt lat="-3.1591590" lon="37.2877550">
    <ele>2069.9</ele>
    <time>2026-06-20T12:01:42Z</time>
   </trkpt>
   <trkpt lat="-3.1591570" lon="37.2877700">
    <ele>2069.9</ele>
    <time>2026-06-20T12:01:43Z</time>
   </trkpt>
   <trkpt lat="-3.1591580" lon="37.2877770">
    <ele>2070.0</ele>
    <time>2026-06-20T12:01:44Z</time>
   </trkpt>
   <trkpt lat="-3.1591640" lon="37.2877740">
    <ele>2070.0</ele>
    <time>2026-06-20T12:01:45Z</time>
   </trkpt>
   <trkpt lat="-3.1591640" lon="37.2877820">
    <ele>2070.0</ele>
    <time>2026-06-20T12:01:46Z</time>
   </trkpt>
   <trkpt lat="-3.1591630" lon="37.2877830">
    <ele>2070.0</ele>
    <time>2026-06-20T12:01:47Z</time>
   </trkpt>
   <trkpt lat="-3.1591620" lon="37.2877910">
    <ele>2070.1</ele>
    <time>2026-06-20T12:01:48Z</time>
   </trkpt>
   <trkpt lat="-3.1591630" lon="37.2877970">
    <ele>2070.1</ele>
    <time>2026-06-20T12:01:49Z</time>
   </trkpt>
   <trkpt lat="-3.1591650" lon="37.2877920">
    <ele>2070.1</ele>
    <time>2026-06-20T12:01:50Z</time>
   </trkpt>
   <trkpt lat="-3.1591600" lon="37.2878010">
    <ele>2070.2</ele>
    <time>2026-06-20T12:01:51Z</time>
   </trkpt>
   <trkpt lat="-3.1591590" lon="37.2878050">
    <ele>2070.2</ele>
    <time>2026-06-20T12:01:52Z</time>
   </trkpt>
   <trkpt lat="-3.1591580" lon="37.2878100">
    <ele>2070.2</ele>
    <time>2026-06-20T12:01:53Z</time>
   </trkpt>
   <trkpt lat="-3.1591570" lon="37.2878180">
    <ele>2070.3</ele>
    <time>2026-06-20T12:01:54Z</time>
   </trkpt>
   <trkpt lat="-3.1591600" lon="37.2878310">
    <ele>2070.4</ele>
    <time>2026-06-20T12:01:55Z</time>
   </trkpt>
   <trkpt lat="-3.1591570" lon="37.2878420">
    <ele>2070.4</ele>
    <time>2026-06-20T12:01:56Z</time>
   </trkpt>
   <trkpt lat="-3.1591540" lon="37.2878510">
    <ele>2070.5</ele>
    <time>2026-06-20T12:01:57Z</time>
   </trkpt>
   <trkpt lat="-3.1591570" lon="37.2878560">
    <ele>2070.5</ele>
    <time>2026-06-20T12:01:58Z</time>
   </trkpt>
   <trkpt lat="-3.1591590" lon="37.2878650">
    <ele>2070.6</ele>
    <time>2026-06-20T12:01:59Z</time>
   </trkpt>
   <trkpt lat="-3.1591540" lon="37.2878700">
    <ele>2070.7</ele>
    <time>2026-06-20T12:02:00Z</time>
   </trkpt>
   <trkpt lat="-3.1591500" lon="37.2878780">
    <ele>2070.8</ele>
    <time>2026-06-20T12:02:01Z</time>
   </trkpt>
   <trkpt lat="-3.1591520" lon="37.2878770">
    <ele>2070.8</ele>
    <time>2026-06-20T12:02:02Z</time>
   </trkpt>
   <trkpt lat="-3.1591510" lon="37.2878850">
    <ele>2070.9</ele>
    <time>2026-06-20T12:02:03Z</time>
   </trkpt>
   <trkpt lat="-3.1591530" lon="37.2878840">
    <ele>2070.9</ele>
    <time>2026-06-20T12:02:04Z</time>
   </trkpt>
   <trkpt lat="-3.1591510" lon="37.2878900">
    <ele>2071.0</ele>
    <time>2026-06-20T12:02:05Z</time>
   </trkpt>
   <trkpt lat="-3.1591560" lon="37.2878960">
    <ele>2071.0</ele>
    <time>2026-06-20T12:02:06Z</time>
   </trkpt>
   <trkpt lat="-3.1591560" lon="37.2879010">
    <ele>2071.1</ele>
    <time>2026-06-20T12:02:07Z</time>
   </trkpt>
   <trkpt lat="-3.1591600" lon="37.2879040">
    <ele>2071.1</ele>
    <time>2026-06-20T12:02:08Z</time>
   </trkpt>
   <trkpt lat="-3.1591640" lon="37.2879070">
    <ele>2071.2</ele>
    <time>2026-06-20T12:02:09Z</time>
   </trkpt>
   <trkpt lat="-3.1591660" lon="37.2879130">
    <ele>2071.3</ele>
    <time>2026-06-20T12:02:10Z</time>
   </trkpt>
   <trkpt lat="-3.1591680" lon="37.2879170">
    <ele>2071.3</ele>
    <time>2026-06-20T12:02:11Z</time>
   </trkpt>
   <trkpt lat="-3.1591660" lon="37.2879210">
    <ele>2071.4</ele>
    <time>2026-06-20T12:02:12Z</time>
   </trkpt>
   <trkpt lat="-3.1591690" lon="37.2879300">
    <ele>2071.5</ele>
    <time>2026-06-20T12:02:13Z</time>
   </trkpt>
   <trkpt lat="-3.1591710" lon="37.2879360">
    <ele>2071.6</ele>
    <time>2026-06-20T12:02:14Z</time>
   </trkpt>
   <trkpt lat="-3.1591740" lon="37.2879370">
    <ele>2071.6</ele>
    <time>2026-06-20T12:02:15Z</time>
   </trkpt>
   <trkpt lat="-3.1591740" lon="37.2879380">
    <ele>2071.6</ele>
    <time>2026-06-20T12:02:16Z</time>
   </trkpt>
   <trkpt lat="-3.1591770" lon="37.2879460">
    <ele>2071.7</ele>
    <time>2026-06-20T12:02:17Z</time>
   </trkpt>
   <trkpt lat="-3.1591800" lon="37.2879560">
    <ele>2071.9</ele>
    <time>2026-06-20T12:02:18Z</time>
   </trkpt>
   <trkpt lat="-3.1591810" lon="37.2879620">
    <ele>2072.0</ele>
    <time>2026-06-20T12:02:19Z</time>
   </trkpt>
   <trkpt lat="-3.1591860" lon="37.2879730">
    <ele>2072.1</ele>
    <time>2026-06-20T12:02:20Z</time>
   </trkpt>
   <trkpt lat="-3.1591890" lon="37.2879760">
    <ele>2072.2</ele>
    <time>2026-06-20T12:02:21Z</time>
   </trkpt>
   <trkpt lat="-3.1591880" lon="37.2879780">
    <ele>2072.2</ele>
    <time>2026-06-20T12:02:22Z</time>
   </trkpt>
   <trkpt lat="-3.1591930" lon="37.2879890">
    <ele>2072.4</ele>
    <time>2026-06-20T12:02:23Z</time>
   </trkpt>
   <trkpt lat="-3.1591940" lon="37.2879930">
    <ele>2072.5</ele>
    <time>2026-06-20T12:02:24Z</time>
   </trkpt>
   <trkpt lat="-3.1591910" lon="37.2879990">
    <ele>2072.6</ele>
    <time>2026-06-20T12:02:25Z</time>
   </trkpt>
   <trkpt lat="-3.1591870" lon="37.2880060">
    <ele>2072.7</ele>
    <time>2026-06-20T12:02:26Z</time>
   </trkpt>
   <trkpt lat="-3.1591910" lon="37.2880150">
    <ele>2072.8</ele>
    <time>2026-06-20T12:02:27Z</time>
   </trkpt>
   <trkpt lat="-3.1591900" lon="37.2880350">
    <ele>2073.1</ele>
    <time>2026-06-20T12:02:28Z</time>
   </trkpt>
   <trkpt lat="-3.1591880" lon="37.2880380">
    <ele>2073.2</ele>
    <time>2026-06-20T12:02:29Z</time>
   </trkpt>
   <trkpt lat="-3.1591840" lon="37.2880430">
    <ele>2073.3</ele>
    <time>2026-06-20T12:02:30Z</time>
   </trkpt>
   <trkpt lat="-3.1591830" lon="37.2880450">
    <ele>2073.3</ele>
    <time>2026-06-20T12:02:31Z</time>
   </trkpt>
   <trkpt lat="-3.1591860" lon="37.2880400">
    <ele>2073.4</ele>
    <time>2026-06-20T12:02:32Z</time>
   </trkpt>
   <trkpt lat="-3.1591890" lon="37.2880500">
    <ele>2073.6</ele>
    <time>2026-06-20T12:02:33Z</time>
   </trkpt>
   <trkpt lat="-3.1591910" lon="37.2880520">
    <ele>2073.6</ele>
    <time>2026-06-20T12:02:34Z</time>
   </trkpt>
   <trkpt lat="-3.1591950" lon="37.2880560">
    <ele>2073.7</ele>
    <time>2026-06-20T12:02:35Z</time>
   </trkpt>
   <trkpt lat="-3.1591990" lon="37.2880620">
    <ele>2073.8</ele>
    <time>2026-06-20T12:02:36Z</time>
   </trkpt>
   <trkpt lat="-3.1591960" lon="37.2880660">
    <ele>2073.9</ele>
    <time>2026-06-20T12:02:37Z</time>
   </trkpt>
   <trkpt lat="-3.1591980" lon="37.2880680">
    <ele>2073.9</ele>
    <time>2026-06-20T12:02:38Z</time>
   </trkpt>
   <trkpt lat="-3.1592000" lon="37.2880740">
    <ele>2074.0</ele>
    <time>2026-06-20T12:02:39Z</time>
   </trkpt>
   <trkpt lat="-3.1592050" lon="37.2880760">
    <ele>2074.1</ele>
    <time>2026-06-20T12:02:40Z</time>
   </trkpt>
   <trkpt lat="-3.1592110" lon="37.2880810">
    <ele>2074.2</ele>
    <time>2026-06-20T12:02:41Z</time>
   </trkpt>
   <trkpt lat="-3.1592100" lon="37.2880890">
    <ele>2074.4</ele>
    <time>2026-06-20T12:02:42Z</time>
   </trkpt>
   <trkpt lat="-3.1592100" lon="37.2880960">
    <ele>2074.5</ele>
    <time>2026-06-20T12:02:43Z</time>
   </trkpt>
   <trkpt lat="-3.1592080" lon="37.2881030">
    <ele>2074.6</ele>
    <time>2026-06-20T12:02:44Z</time>
   </trkpt>
   <trkpt lat="-3.1592080" lon="37.2881090">
    <ele>2074.7</ele>
    <time>2026-06-20T12:02:45Z</time>
   </trkpt>
   <trkpt lat="-3.1592020" lon="37.2881120">
    <ele>2074.8</ele>
    <time>2026-06-20T12:02:46Z</time>
   </trkpt>
   <trkpt lat="-3.1591960" lon="37.2881140">
    <ele>2074.9</ele>
    <time>2026-06-20T12:02:47Z</time>
   </trkpt>
   <trkpt lat="-3.1591950" lon="37.2881310">
    <ele>2075.1</ele>
    <time>2026-06-20T12:02:48Z</time>
   </trkpt>
   <trkpt lat="-3.1591970" lon="37.2881410">
    <ele>2075.3</ele>
    <time>2026-06-20T12:02:49Z</time>
   </trkpt>
   <trkpt lat="-3.1591980" lon="37.2881480">
    <ele>2075.4</ele>
    <time>2026-06-20T12:02:50Z</time>
   </trkpt>
   <trkpt lat="-3.1591960" lon="37.2881530">
    <ele>2075.5</ele>
    <time>2026-06-20T12:02:51Z</time>
   </trkpt>
   <trkpt lat="-3.1591910" lon="37.2881610">
    <ele>2075.6</ele>
    <time>2026-06-20T12:02:52Z</time>
   </trkpt>
   <trkpt lat="-3.1591870" lon="37.2881660">
    <ele>2075.7</ele>
    <time>2026-06-20T12:02:53Z</time>
   </trkpt>
   <trkpt lat="-3.1591840" lon="37.2881680">
    <ele>2075.7</ele>
    <time>2026-06-20T12:02:54Z</time>
   </trkpt>
   <trkpt lat="-3.1591810" lon="37.2881740">
    <ele>2075.8</ele>
    <time>2026-06-20T12:02:55Z</time>
   </trkpt>
   <trkpt lat="-3.1591790" lon="37.2881850">
    <ele>2076.0</ele>
    <time>2026-06-20T12:02:56Z</time>
   </trkpt>
   <trkpt lat="-3.1591730" lon="37.2881920">
    <ele>2076.1</ele>
    <time>2026-06-20T12:02:57Z</time>
   </trkpt>
   <trkpt lat="-3.1591740" lon="37.2882000">
    <ele>2076.2</ele>
    <time>2026-06-20T12:02:58Z</time>
   </trkpt>
   <trkpt lat="-3.1591770" lon="37.2882050">
    <ele>2076.2</ele>
    <time>2026-06-20T12:02:59Z</time>
   </trkpt>
   <trkpt lat="-3.1591760" lon="37.2882100">
    <ele>2076.3</ele>
    <time>2026-06-20T12:03:00Z</time>
   </trkpt>
   <trkpt lat="-3.1591740" lon="37.2882190">
    <ele>2076.4</ele>
    <time>2026-06-20T12:03:01Z</time>
   </trkpt>
   <trkpt lat="-3.1591700" lon="37.2882240">
    <ele>2076.5</ele>
    <time>2026-06-20T12:03:02Z</time>
   </trkpt>
   <trkpt lat="-3.1591660" lon="37.2882310">
    <ele>2076.6</ele>
    <time>2026-06-20T12:03:03Z</time>
   </trkpt>
   <trkpt lat="-3.1591560" lon="37.2882390">
    <ele>2076.7</ele>
    <time>2026-06-20T12:03:04Z</time>
   </trkpt>
   <trkpt lat="-3.1591530" lon="37.2882430">
    <ele>2076.8</ele>
    <time>2026-06-20T12:03:05Z</time>
   </trkpt>
   <trkpt lat="-3.1591500" lon="37.2882450">
    <ele>2076.8</ele>
    <time>2026-06-20T12:03:06Z</time>
   </trkpt>
   <trkpt lat="-3.1591480" lon="37.2882540">
    <ele>2077.0</ele>
    <time>2026-06-20T12:03:07Z</time>
   </trkpt>
   <trkpt lat="-3.1591420" lon="37.2882610">
    <ele>2077.1</ele>
    <time>2026-06-20T12:03:08Z</time>
   </trkpt>
   <trkpt lat="-3.1591370" lon="37.2882710">
    <ele>2077.2</ele>
    <time>2026-06-20T12:03:09Z</time>
   </trkpt>
   <trkpt lat="-3.1591360" lon="37.2882860">
    <ele>2077.4</ele>
    <time>2026-06-20T12:03:10Z</time>
   </trkpt>
   <trkpt lat="-3.1591390" lon="37.2882810">
    <ele>2077.4</ele>
    <time>2026-06-20T12:03:11Z</time>
   </trkpt>
   <trkpt lat="-3.1591390" lon="37.2882860">
    <ele>2077.5</ele>
    <time>2026-06-20T12:03:12Z</time>
   </trkpt>
   <trkpt lat="-3.1591330" lon="37.2882910">
    <ele>2077.6</ele>
    <time>2026-06-20T12:03:13Z</time>
   </trkpt>
   <trkpt lat="-3.1591300" lon="37.2882980">
    <ele>2077.7</ele>
    <time>2026-06-20T12:03:14Z</time>
   </trkpt>
   <trkpt lat="-3.1591280" lon="37.2882990">
    <ele>2077.7</ele>
    <time>2026-06-20T12:03:15Z</time>
   </trkpt>
   <trkpt lat="-3.1591270" lon="37.2882990">
    <ele>2077.7</ele>
    <time>2026-06-20T12:03:16Z</time>
   </trkpt>
   <trkpt lat="-3.1591250" lon="37.2883080">
    <ele>2077.8</ele>
    <time>2026-06-20T12:03:17Z</time>
   </trkpt>
   <trkpt lat="-3.1591170" lon="37.2883140">
    <ele>2078.0</ele>
    <time>2026-06-20T12:03:18Z</time>
   </trkpt>
   <trkpt lat="-3.1591190" lon="37.2883210">
    <ele>2078.0</ele>
    <time>2026-06-20T12:03:19Z</time>
   </trkpt>
   <trkpt lat="-3.1591210" lon="37.2883230">
    <ele>2078.1</ele>
    <time>2026-06-20T12:03:20Z</time>
   </trkpt>
   <trkpt lat="-3.1591210" lon="37.2883330">
    <ele>2078.2</ele>
    <time>2026-06-20T12:03:21Z</time>
   </trkpt>
   <trkpt lat="-3.1591190" lon="37.2883390">
    <ele>2078.3</ele>
    <time>2026-06-20T12:03:22Z</time>
   </trkpt>
   <trkpt lat="-3.1591130" lon="37.2883450">
    <ele>2078.4</ele>
    <time>2026-06-20T12:03:23Z</time>
   </trkpt>
   <trkpt lat="-3.1591120" lon="37.2883480">
    <ele>2078.4</ele>
    <time>2026-06-20T12:03:24Z</time>
   </trkpt>
   <trkpt lat="-3.1591100" lon="37.2883510">
    <ele>2078.5</ele>
    <time>2026-06-20T12:03:25Z</time>
   </trkpt>
   <trkpt lat="-3.1591090" lon="37.2883540">
    <ele>2078.5</ele>
    <time>2026-06-20T12:03:26Z</time>
   </trkpt>
   <trkpt lat="-3.1591080" lon="37.2883560">
    <ele>2078.6</ele>
    <time>2026-06-20T12:03:27Z</time>
   </trkpt>
   <trkpt lat="-3.1591040" lon="37.2883610">
    <ele>2078.6</ele>
    <time>2026-06-20T12:03:28Z</time>
   </trkpt>
   <trkpt lat="-3.1591010" lon="37.2883730">
    <ele>2078.8</ele>
    <time>2026-06-20T12:03:29Z</time>
   </trkpt>
   <trkpt lat="-3.1590960" lon="37.2883800">
    <ele>2078.9</ele>
    <time>2026-06-20T12:03:30Z</time>
   </trkpt>
   <trkpt lat="-3.1590960" lon="37.2883770">
    <ele>2079.0</ele>
    <time>2026-06-20T12:03:31Z</time>
   </trkpt>
   <trkpt lat="-3.1590960" lon="37.2883820">
    <ele>2079.0</ele>
    <time>2026-06-20T12:03:32Z</time>
   </trkpt>
   <trkpt lat="-3.1590960" lon="37.2883860">
    <ele>2079.1</ele>
    <time>2026-06-20T12:03:33Z</time>
   </trkpt>
   <trkpt lat="-3.1590930" lon="37.2883950">
    <ele>2079.2</ele>
    <time>2026-06-20T12:03:34Z</time>
   </trkpt>
   <trkpt lat="-3.1590920" lon="37.2883950">
    <ele>2079.2</ele>
    <time>2026-06-20T12:03:35Z</time>
   </trkpt>
   <trkpt lat="-3.1590920" lon="37.2883960">
    <ele>2079.2</ele>
    <time>2026-06-20T12:03:36Z</time>
   </trkpt>
   <trkpt lat="-3.1590980" lon="37.2884000">
    <ele>2079.3</ele>
    <time>2026-06-20T12:03:37Z</time>
   </trkpt>
   <trkpt lat="-3.1590990" lon="37.2884030">
    <ele>2079.4</ele>
    <time>2026-06-20T12:03:38Z</time>
   </trkpt>
   <trkpt lat="-3.1590970" lon="37.2884060">
    <ele>2079.4</ele>
    <time>2026-06-20T12:03:39Z</time>
   </trkpt>
   <trkpt lat="-3.1590960" lon="37.2884030">
    <ele>2079.5</ele>
    <time>2026-06-20T12:03:40Z</time>
   </trkpt>
   <trkpt lat="-3.1590910" lon="37.2884100">
    <ele>2079.6</ele>
    <time>2026-06-20T12:03:41Z</time>
   </trkpt>
   <trkpt lat="-3.1590820" lon="37.2884240">
    <ele>2079.8</ele>
    <time>2026-06-20T12:03:42Z</time>
   </trkpt>
   <trkpt lat="-3.1590840" lon="37.2884300">
    <ele>2079.9</ele>
    <time>2026-06-20T12:03:43Z</time>
   </trkpt>
   <trkpt lat="-3.1590810" lon="37.2884370">
    <ele>2080.1</ele>
    <time>2026-06-20T12:03:44Z</time>
   </trkpt>
   <trkpt lat="-3.1590760" lon="37.2884470">
    <ele>2080.2</ele>
    <time>2026-06-20T12:03:45Z</time>
   </trkpt>
   <trkpt lat="-3.1590750" lon="37.2884560">
    <ele>2080.4</ele>
    <time>2026-06-20T12:03:47Z</time>
   </trkpt>
   <trkpt lat="-3.1590780" lon="37.2884560">
    <ele>2080.4</ele>
    <time>2026-06-20T12:03:48Z</time>
   </trkpt>
   <trkpt lat="-3.1590750" lon="37.2884630">
    <ele>2080.5</ele>
    <time>2026-06-20T12:03:49Z</time>
   </trkpt>
   <trkpt lat="-3.1590710" lon="37.2884760">
    <ele>2080.8</ele>
    <time>2026-06-20T12:03:50Z</time>
   </trkpt>
   <trkpt lat="-3.1590690" lon="37.2884760">
    <ele>2080.8</ele>
    <time>2026-06-20T12:03:51Z</time>
   </trkpt>
   <trkpt lat="-3.1590700" lon="37.2884810">
    <ele>2080.9</ele>
    <time>2026-06-20T12:03:52Z</time>
   </trkpt>
   <trkpt lat="-3.1590710" lon="37.2884870">
    <ele>2081.0</ele>
    <time>2026-06-20T12:03:53Z</time>
   </trkpt>
   <trkpt lat="-3.1590720" lon="37.2884900">
    <ele>2081.0</ele>
    <time>2026-06-20T12:03:54Z</time>
   </trkpt>
   <trkpt lat="-3.1590770" lon="37.2884930">
    <ele>2081.1</ele>
    <time>2026-06-20T12:03:55Z</time>
   </trkpt>
   <trkpt lat="-3.1590810" lon="37.2884960">
    <ele>2081.2</ele>
    <time>2026-06-20T12:03:56Z</time>
   </trkpt>
   <trkpt lat="-3.1590800" lon="37.2884990">
    <ele>2081.3</ele>
    <time>2026-06-20T12:03:57Z</time>
   </trkpt>
   <trkpt lat="-3.1590730" lon="37.2885120">
    <ele>2081.5</ele>
    <time>2026-06-20T12:03:58Z</time>
   </trkpt>
   <trkpt lat="-3.1590780" lon="37.2885120">
    <ele>2081.6</ele>
    <time>2026-06-20T12:03:59Z</time>
   </trkpt>
   <trkpt lat="-3.1590770" lon="37.2885190">
    <ele>2081.7</ele>
    <time>2026-06-20T12:04:00Z</time>
   </trkpt>
   <trkpt lat="-3.1590750" lon="37.2885250">
    <ele>2081.8</ele>
    <time>2026-06-20T12:04:01Z</time>
   </trkpt>
   <trkpt lat="-3.1590770" lon="37.2885300">
    <ele>2081.9</ele>
    <time>2026-06-20T12:04:02Z</time>
   </trkpt>
   <trkpt lat="-3.1590810" lon="37.2885290">
    <ele>2082.0</ele>
    <time>2026-06-20T12:04:03Z</time>
   </trkpt>
   <trkpt lat="-3.1590820" lon="37.2885350">
    <ele>2082.1</ele>
    <time>2026-06-20T12:04:04Z</time>
   </trkpt>
   <trkpt lat="-3.1590800" lon="37.2885460">
    <ele>2082.3</ele>
    <time>2026-06-20T12:04:05Z</time>
   </trkpt>
   <trkpt lat="-3.1590760" lon="37.2885420">
    <ele>2082.4</ele>
    <time>2026-06-20T12:04:06Z</time>
   </trkpt>
   <trkpt lat="-3.1590750" lon="37.2885470">
    <ele>2082.5</ele>
    <time>2026-06-20T12:04:07Z</time>
   </trkpt>
   <trkpt lat="-3.1590750" lon="37.2885540">
    <ele>2082.6</ele>
    <time>2026-06-20T12:04:08Z</time>
   </trkpt>
   <trkpt lat="-3.1590720" lon="37.2885560">
    <ele>2082.7</ele>
    <time>2026-06-20T12:04:09Z</time>
   </trkpt>
   <trkpt lat="-3.1590680" lon="37.2885550">
    <ele>2082.8</ele>
    <time>2026-06-20T12:04:10Z</time>
   </trkpt>
   <trkpt lat="-3.1590650" lon="37.2885600">
    <ele>2082.9</ele>
    <time>2026-06-20T12:04:11Z</time>
   </trkpt>
   <trkpt lat="-3.1590590" lon="37.2885680">
    <ele>2083.0</ele>
    <time>2026-06-20T12:04:12Z</time>
   </trkpt>
   <trkpt lat="-3.1590570" lon="37.2885730">
    <ele>2083.1</ele>
    <time>2026-06-20T12:04:13Z</time>
   </trkpt>
   <trkpt lat="-3.1590510" lon="37.2885790">
    <ele>2083.3</ele>
    <time>2026-06-20T12:04:14Z</time>
   </trkpt>
   <trkpt lat="-3.1590470" lon="37.2885850">
    <ele>2083.4</ele>
    <time>2026-06-20T12:04:15Z</time>
   </trkpt>
   <trkpt lat="-3.1590440" lon="37.2885950">
    <ele>2083.6</ele>
    <time>2026-06-20T12:04:16Z</time>
   </trkpt>
   <trkpt lat="-3.1590450" lon="37.2885970">
    <ele>2083.7</ele>
    <time>2026-06-20T12:04:17Z</time>
   </trkpt>
   <trkpt lat="-3.1590440" lon="37.2886020">
    <ele>2083.8</ele>
    <time>2026-06-20T12:04:18Z</time>
   </trkpt>
   <trkpt lat="-3.1590450" lon="37.2886060">
    <ele>2083.8</ele>
    <time>2026-06-20T12:04:19Z</time>
   </trkpt>
   <trkpt lat="-3.1590450" lon="37.2886100">
    <ele>2083.9</ele>
    <time>2026-06-20T12:04:20Z</time>
   </trkpt>
   <trkpt lat="-3.1590440" lon="37.2886130">
    <ele>2084.0</ele>
    <time>2026-06-20T12:04:21Z</time>
   </trkpt>
   <trkpt lat="-3.1590440" lon="37.2886210">
    <ele>2084.1</ele>
    <time>2026-06-20T12:04:22Z</time>
   </trkpt>
   <trkpt lat="-3.1590460" lon="37.2886280">
    <ele>2084.3</ele>
    <time>2026-06-20T12:04:23Z</time>
   </trkpt>
   <trkpt lat="-3.1590500" lon="37.2886300">
    <ele>2084.3</ele>
    <time>2026-06-20T12:04:24Z</time>
   </trkpt>
   <trkpt lat="-3.1590580" lon="37.2886340">
    <ele>2084.5</ele>
    <time>2026-06-20T12:04:25Z</time>
   </trkpt>
   <trkpt lat="-3.1590600" lon="37.2886360">
    <ele>2084.6</ele>
    <time>2026-06-20T12:04:26Z</time>
   </trkpt>
   <trkpt lat="-3.1590610" lon="37.2886390">
    <ele>2084.6</ele>
    <time>2026-06-20T12:04:27Z</time>
   </trkpt>
   <trkpt lat="-3.1590680" lon="37.2886400">
    <ele>2084.8</ele>
    <time>2026-06-20T12:04:28Z</time>
   </trkpt>
   <trkpt lat="-3.1590700" lon="37.2886440">
    <ele>2084.8</ele>
    <time>2026-06-20T12:04:29Z</time>
   </trkpt>
   <trkpt lat="-3.1590710" lon="37.2886400">
    <ele>2084.9</ele>
    <time>2026-06-20T12:04:30Z</time>
   </trkpt>
   <trkpt lat="-3.1590680" lon="37.2886500">
    <ele>2085.1</ele>
    <time>2026-06-20T12:04:31Z</time>
   </trkpt>
   <trkpt lat="-3.1590730" lon="37.2886540">
    <ele>2085.2</ele>
    <time>2026-06-20T12:04:32Z</time>
   </trkpt>
   <trkpt lat="-3.1590700" lon="37.2886610">
    <ele>2085.4</ele>
    <time>2026-06-20T12:04:33Z</time>
   </trkpt>
   <trkpt lat="-3.1590700" lon="37.2886600">
    <ele>2085.4</ele>
    <time>2026-06-20T12:04:34Z</time>
   </trkpt>
   <trkpt lat="-3.1590720" lon="37.2886650">
    <ele>2085.5</ele>
    <time>2026-06-20T12:04:35Z</time>
   </trkpt>
   <trkpt lat="-3.1590780" lon="37.2886710">
    <ele>2085.7</ele>
    <time>2026-06-20T12:04:36Z</time>
   </trkpt>
   <trkpt lat="-3.1590800" lon="37.2886770">
    <ele>2085.8</ele>
    <time>2026-06-20T12:04:37Z</time>
   </trkpt>
   <trkpt lat="-3.1590780" lon="37.2886810">
    <ele>2085.9</ele>
    <time>2026-06-20T12:04:38Z</time>
   </trkpt>
   <trkpt lat="-3.1590810" lon="37.2886800">
    <ele>2085.9</ele>
    <time>2026-06-20T12:04:39Z</time>
   </trkpt>
   <trkpt lat="-3.1590870" lon="37.2886830">
    <ele>2086.1</ele>
    <time>2026-06-20T12:04:40Z</time>
   </trkpt>
   <trkpt lat="-3.1590840" lon="37.2886890">
    <ele>2086.2</ele>
    <time>2026-06-20T12:04:41Z</time>
   </trkpt>
   <trkpt lat="-3.1590840" lon="37.2886910">
    <ele>2086.2</ele>
    <time>2026-06-20T12:04:42Z</time>
   </trkpt>
   <trkpt lat="-3.1590860" lon="37.2886970">
    <ele>2086.4</ele>
    <time>2026-06-20T12:04:43Z</time>
   </trkpt>
   <trkpt lat="-3.1590840" lon="37.2887050">
    <ele>2086.5</ele>
    <time>2026-06-20T12:04:44Z</time>
   </trkpt>
   <trkpt lat="-3.1590790" lon="37.2887150">
    <ele>2086.7</ele>
    <time>2026-06-20T12:04:45Z</time>
   </trkpt>
   <trkpt lat="-3.1590800" lon="37.2887170">
    <ele>2086.8</ele>
    <time>2026-06-20T12:04:46Z</time>
   </trkpt>
   <trkpt lat="-3.1590750" lon="37.2887240">
    <ele>2086.9</ele>
    <time>2026-06-20T12:04:47Z</time>
   </trkpt>
   <trkpt lat="-3.1590750" lon="37.2887240">
    <ele>2086.9</ele>
    <time>2026-06-20T12:04:48Z</time>
   </trkpt>
   <trkpt lat="-3.1590670" lon="37.2887280">
    <ele>2087.1</ele>
    <time>2026-06-20T12:04:49Z</time>
   </trkpt>
   <trkpt lat="-3.1590630" lon="37.2887300">
    <ele>2087.2</ele>
    <time>2026-06-20T12:04:50Z</time>
   </trkpt>
   <trkpt lat="-3.1590580" lon="37.2887400">
    <ele>2087.4</ele>
    <time>2026-06-20T12:04:51Z</time>
   </trkpt>
   <trkpt lat="-3.1590510" lon="37.2887460">
    <ele>2087.6</ele>
    <time>2026-06-20T12:04:52Z</time>
   </trkpt>
   <trkpt lat="-3.1590470" lon="37.2887470">
    <ele>2087.7</ele>
    <time>2026-06-20T12:04:53Z</time>
   </trkpt>
   <trkpt lat="-3.1590420" lon="37.2887530">
    <ele>2087.8</ele>
    <time>2026-06-20T12:04:54Z</time>
   </trkpt>
   <trkpt lat="-3.1590360" lon="37.2887560">
    <ele>2087.9</ele>
    <time>2026-06-20T12:04:55Z</time>
   </trkpt>
   <trkpt lat="-3.1590330" lon="37.2887590">
    <ele>2088.0</ele>
    <time>2026-06-20T12:04:56Z</time>
   </trkpt>
   <trkpt lat="-3.1590290" lon="37.2887600">
    <ele>2088.1</ele>
    <time>2026-06-20T12:04:57Z</time>
   </trkpt>
   <trkpt lat="-3.1590210" lon="37.2887690">
    <ele>2088.3</ele>
    <time>2026-06-20T12:04:58Z</time>
   </trkpt>
   <trkpt lat="-3.1590190" lon="37.2887740">
    <ele>2088.4</ele>
    <time>2026-06-20T12:04:59Z</time>
   </trkpt>
   <trkpt lat="-3.1590180" lon="37.2887730">
    <ele>2088.5</ele>
    <time>2026-06-20T12:05:00Z</time>
   </trkpt>
   <trkpt lat="-3.1590170" lon="37.2887780">
    <ele>2088.6</ele>
    <time>2026-06-20T12:05:01Z</time>
   </trkpt>
   <trkpt lat="-3.1590150" lon="37.2887880">
    <ele>2088.7</ele>
    <time>2026-06-20T12:05:02Z</time>
   </trkpt>
   <trkpt lat="-3.1590140" lon="37.2887970">
    <ele>2088.9</ele>
    <time>2026-06-20T12:05:03Z</time>
   </trkpt>
   <trkpt lat="-3.1590140" lon="37.2888000">
    <ele>2089.0</ele>
    <time>2026-06-20T12:05:04Z</time>
   </trkpt>
   <trkpt lat="-3.1590110" lon="37.2888070">
    <ele>2089.1</ele>
    <time>2026-06-20T12:05:05Z</time>
   </trkpt>
   <trkpt lat="-3.1590080" lon="37.2888160">
    <ele>2089.3</ele>
    <time>2026-06-20T12:05:06Z</time>
   </trkpt>
   <trkpt lat="-3.1590030" lon="37.2888180">
    <ele>2089.3</ele>
    <time>2026-06-20T12:05:07Z</time>
   </trkpt>
   <trkpt lat="-3.1590010" lon="37.2888210">
    <ele>2089.4</ele>
    <time>2026-06-20T12:05:08Z</time>
   </trkpt>
   <trkpt lat="-3.1590000" lon="37.2888240">
    <ele>2089.5</ele>
    <time>2026-06-20T12:05:09Z</time>
   </trkpt>
   <trkpt lat="-3.1589910" lon="37.2888340">
    <ele>2089.7</ele>
    <time>2026-06-20T12:05:10Z</time>
   </trkpt>
   <trkpt lat="-3.1589880" lon="37.2888360">
    <ele>2089.8</ele>
    <time>2026-06-20T12:05:11Z</time>
   </trkpt>
   <trkpt lat="-3.1589880" lon="37.2888420">
    <ele>2089.9</ele>
    <time>2026-06-20T12:05:12Z</time>
   </trkpt>
   <trkpt lat="-3.1589870" lon="37.2888460">
    <ele>2089.9</ele>
    <time>2026-06-20T12:05:13Z</time>
   </trkpt>
   <trkpt lat="-3.1589820" lon="37.2888570">
    <ele>2090.1</ele>
    <time>2026-06-20T12:05:14Z</time>
   </trkpt>
   <trkpt lat="-3.1589710" lon="37.2888670">
    <ele>2090.4</ele>
    <time>2026-06-20T12:05:15Z</time>
   </trkpt>
   <trkpt lat="-3.1589680" lon="37.2888700">
    <ele>2090.5</ele>
    <time>2026-06-20T12:05:16Z</time>
   </trkpt>
   <trkpt lat="-3.1589670" lon="37.2888710">
    <ele>2090.5</ele>
    <time>2026-06-20T12:05:17Z</time>
   </trkpt>
   <trkpt lat="-3.1589650" lon="37.2888750">
    <ele>2090.6</ele>
    <time>2026-06-20T12:05:18Z</time>
   </trkpt>
   <trkpt lat="-3.1589600" lon="37.2888820">
    <ele>2090.7</ele>
    <time>2026-06-20T12:05:19Z</time>
   </trkpt>
   <trkpt lat="-3.1589600" lon="37.2888850">
    <ele>2090.8</ele>
    <time>2026-06-20T12:05:20Z</time>
   </trkpt>
   <trkpt lat="-3.1589540" lon="37.2888880">
    <ele>2090.9</ele>
    <time>2026-06-20T12:05:21Z</time>
   </trkpt>
   <trkpt lat="-3.1589510" lon="37.2888900">
    <ele>2090.9</ele>
    <time>2026-06-20T12:05:22Z</time>
   </trkpt>
   <trkpt lat="-3.1589420" lon="37.2888900">
    <ele>2091.1</ele>
    <time>2026-06-20T12:05:23Z</time>
   </trkpt>
   <trkpt lat="-3.1589290" lon="37.2888940">
    <ele>2091.3</ele>
    <time>2026-06-20T12:05:24Z</time>
   </trkpt>
   <trkpt lat="-3.1589230" lon="37.2888970">
    <ele>2091.4</ele>
    <time>2026-06-20T12:05:25Z</time>
   </trkpt>
   <trkpt lat="-3.1589210" lon="37.2888980">
    <ele>2091.5</ele>
    <time>2026-06-20T12:05:26Z</time>
   </trkpt>
   <trkpt lat="-3.1589140" lon="37.2889030">
    <ele>2091.6</ele>
    <time>2026-06-20T12:05:27Z</time>
   </trkpt>
   <trkpt lat="-3.1589110" lon="37.2889040">
    <ele>2091.6</ele>
    <time>2026-06-20T12:05:28Z</time>
   </trkpt>
   <trkpt lat="-3.1589160" lon="37.2889040">
    <ele>2091.7</ele>
    <time>2026-06-20T12:05:29Z</time>
   </trkpt>
   <trkpt lat="-3.1589080" lon="37.2889090">
    <ele>2091.9</ele>
    <time>2026-06-20T12:05:30Z</time>
   </trkpt>
   <trkpt lat="-3.1589070" lon="37.2889110">
    <ele>2091.9</ele>
    <time>2026-06-20T12:05:31Z</time>
   </trkpt>
   <trkpt lat="-3.1589000" lon="37.2889210">
    <ele>2092.1</ele>
    <time>2026-06-20T12:05:32Z</time>
   </trkpt>
   <trkpt lat="-3.1588940" lon="37.2889230">
    <ele>2092.2</ele>
    <time>2026-06-20T12:05:33Z</time>
   </trkpt>
   <trkpt lat="-3.1588970" lon="37.2889270">
    <ele>2092.3</ele>
    <time>2026-06-20T12:05:34Z</time>
   </trkpt>
   <trkpt lat="-3.1588910" lon="37.2889330">
    <ele>2092.4</ele>
    <time>2026-06-20T12:05:35Z</time>
   </trkpt>
   <trkpt lat="-3.1588870" lon="37.2889390">
    <ele>2092.6</ele>
    <time>2026-06-20T12:05:36Z</time>
   </trkpt>
   <trkpt lat="-3.1588790" lon="37.2889430">
    <ele>2092.7</ele>
    <time>2026-06-20T12:05:37Z</time>
   </trkpt>
   <trkpt lat="-3.1588740" lon="37.2889410">
    <ele>2092.8</ele>
    <time>2026-06-20T12:05:38Z</time>
   </trkpt>
   <trkpt lat="-3.1588710" lon="37.2889370">
    <ele>2092.9</ele>
    <time>2026-06-20T12:05:39Z</time>
   </trkpt>
   <trkpt lat="-3.1588610" lon="37.2889420">
    <ele>2093.1</ele>
    <time>2026-06-20T12:05:40Z</time>
   </trkpt>
   <trkpt lat="-3.1588580" lon="37.2889460">
    <ele>2093.1</ele>
    <time>2026-06-20T12:05:41Z</time>
   </trkpt>
   <trkpt lat="-3.1588470" lon="37.2889520">
    <ele>2093.3</ele>
    <time>2026-06-20T12:05:42Z</time>
   </trkpt>
   <trkpt lat="-3.1588430" lon="37.2889550">
    <ele>2093.4</ele>
    <time>2026-06-20T12:05:43Z</time>
   </trkpt>
   <trkpt lat="-3.1588410" lon="37.2889550">
    <ele>2093.4</ele>
    <time>2026-06-20T12:05:44Z</time>
   </trkpt>
   <trkpt lat="-3.1588380" lon="37.2889590">
    <ele>2093.5</ele>
    <time>2026-06-20T12:05:45Z</time>
   </trkpt>
   <trkpt lat="-3.1588350" lon="37.2889620">
    <ele>2093.6</ele>
    <time>2026-06-20T12:05:46Z</time>
   </trkpt>
   <trkpt lat="-3.1588340" lon="37.2889610">
    <ele>2093.6</ele>
    <time>2026-06-20T12:05:47Z</time>
   </trkpt>
   <trkpt lat="-3.1588360" lon="37.2889570">
    <ele>2093.7</ele>
    <time>2026-06-20T12:05:48Z</time>
   </trkpt>
   <trkpt lat="-3.1588320" lon="37.2889560">
    <ele>2093.7</ele>
    <time>2026-06-20T12:05:49Z</time>
   </trkpt>
   <trkpt lat="-3.1588270" lon="37.2889520">
    <ele>2093.8</ele>
    <time>2026-06-20T12:05:50Z</time>
   </trkpt>
   <trkpt lat="-3.1588250" lon="37.2889490">
    <ele>2093.9</ele>
    <time>2026-06-20T12:05:51Z</time>
   </trkpt>
   <trkpt lat="-3.1588220" lon="37.2889440">
    <ele>2094.0</ele>
    <time>2026-06-20T12:05:53Z</time>
   </trkpt>
   <trkpt lat="-3.1588130" lon="37.2889460">
    <ele>2094.1</ele>
    <time>2026-06-20T12:05:54Z</time>
   </trkpt>
   <trkpt lat="-3.1588070" lon="37.2889470">
    <ele>2094.2</ele>
    <time>2026-06-20T12:05:55Z</time>
   </trkpt>
   <trkpt lat="-3.1587880" lon="37.2889520">
    <ele>2094.5</ele>
    <time>2026-06-20T12:05:56Z</time>
   </trkpt>
   <trkpt lat="-3.1587840" lon="37.2889570">
    <ele>2094.6</ele>
    <time>2026-06-20T12:05:57Z</time>
   </trkpt>
   <trkpt lat="-3.1587820" lon="37.2889620">
    <ele>2094.7</ele>
    <time>2026-06-20T12:05:58Z</time>
   </trkpt>
   <trkpt lat="-3.1587800" lon="37.2889670">
    <ele>2094.8</ele>
    <time>2026-06-20T12:05:59Z</time>
   </trkpt>
   <trkpt lat="-3.1587760" lon="37.2889680">
    <ele>2094.9</ele>
    <time>2026-06-20T12:06:00Z</time>
   </trkpt>
   <trkpt lat="-3.1587700" lon="37.2889730">
    <ele>2095.0</ele>
    <time>2026-06-20T12:06:01Z</time>
   </trkpt>
   <trkpt lat="-3.1587700" lon="37.2889730">
    <ele>2095.0</ele>
    <time>2026-06-20T12:06:02Z</time>
   </trkpt>
   <trkpt lat="-3.1587680" lon="37.2889790">
    <ele>2095.1</ele>
    <time>2026-06-20T12:06:03Z</time>
   </trkpt>
   <trkpt lat="-3.1587660" lon="37.2889820">
    <ele>2095.1</ele>
    <time>2026-06-20T12:06:04Z</time>
   </trkpt>
   <trkpt lat="-3.1587610" lon="37.2889820">
    <ele>2095.2</ele>
    <time>2026-06-20T12:06:05Z</time>
   </trkpt>
   <trkpt lat="-3.1587610" lon="37.2889780">
    <ele>2095.2</ele>
    <time>2026-06-20T12:06:06Z</time>
   </trkpt>
   <trkpt lat="-3.1587530" lon="37.2889770">
    <ele>2095.4</ele>
    <time>2026-06-20T12:06:07Z</time>
   </trkpt>
   <trkpt lat="-3.1587460" lon="37.2889770">
    <ele>2095.5</ele>
    <time>2026-06-20T12:06:08Z</time>
   </trkpt>
   <trkpt lat="-3.1587440" lon="37.2889770">
    <ele>2095.5</ele>
    <time>2026-06-20T12:06:09Z</time>
   </trkpt>
   <trkpt lat="-3.1587380" lon="37.2889760">
    <ele>2095.6</ele>
    <time>2026-06-20T12:06:10Z</time>
   </trkpt>
   <trkpt lat="-3.1587360" lon="37.2889750">
    <ele>2095.6</ele>
    <time>2026-06-20T12:06:11Z</time>
   </trkpt>
   <trkpt lat="-3.1587300" lon="37.2889750">
    <ele>2095.7</ele>
    <time>2026-06-20T12:06:12Z</time>
   </trkpt>
   <trkpt lat="-3.1587260" lon="37.2889760">
    <ele>2095.7</ele>
    <time>2026-06-20T12:06:13Z</time>
   </trkpt>
   <trkpt lat="-3.1587210" lon="37.2889770">
    <ele>2095.8</ele>
    <time>2026-06-20T12:06:14Z</time>
   </trkpt>
   <trkpt lat="-3.1587180" lon="37.2889770">
    <ele>2095.8</ele>
    <time>2026-06-20T12:06:15Z</time>
   </trkpt>
   <trkpt lat="-3.1587070" lon="37.2889810">
    <ele>2096.0</ele>
    <time>2026-06-20T12:06:16Z</time>
   </trkpt>
   <trkpt lat="-3.1587010" lon="37.2889780">
    <ele>2096.1</ele>
    <time>2026-06-20T12:06:17Z</time>
   </trkpt>
   <trkpt lat="-3.1586950" lon="37.2889800">
    <ele>2096.1</ele>
    <time>2026-06-20T12:06:18Z</time>
   </trkpt>
   <trkpt lat="-3.1586850" lon="37.2889880">
    <ele>2096.3</ele>
    <time>2026-06-20T12:06:19Z</time>
   </trkpt>
   <trkpt lat="-3.1586850" lon="37.2889930">
    <ele>2096.4</ele>
    <time>2026-06-20T12:06:20Z</time>
   </trkpt>
   <trkpt lat="-3.1586800" lon="37.2889960">
    <ele>2096.4</ele>
    <time>2026-06-20T12:06:21Z</time>
   </trkpt>
   <trkpt lat="-3.1586740" lon="37.2889930">
    <ele>2096.5</ele>
    <time>2026-06-20T12:06:22Z</time>
   </trkpt>
   <trkpt lat="-3.1586690" lon="37.2889990">
    <ele>2096.6</ele>
    <time>2026-06-20T12:06:23Z</time>
   </trkpt>
   <trkpt lat="-3.1586620" lon="37.2890040">
    <ele>2096.7</ele>
    <time>2026-06-20T12:06:24Z</time>
   </trkpt>
   <trkpt lat="-3.1586600" lon="37.2890030">
    <ele>2096.7</ele>
    <time>2026-06-20T12:06:25Z</time>
   </trkpt>
   <trkpt lat="-3.1586550" lon="37.2890020">
    <ele>2096.7</ele>
    <time>2026-06-20T12:06:26Z</time>
   </trkpt>
   <trkpt lat="-3.1586490" lon="37.2890030">
    <ele>2096.8</ele>
    <time>2026-06-20T12:06:27Z</time>
   </trkpt>
   <trkpt lat="-3.1586450" lon="37.2890020">
    <ele>2096.9</ele>
    <time>2026-06-20T12:06:28Z</time>
   </trkpt>
   <trkpt lat="-3.1586360" lon="37.2890040">
    <ele>2096.9</ele>
    <time>2026-06-20T12:06:29Z</time>
   </trkpt>
   <trkpt lat="-3.1586300" lon="37.2890060">
    <ele>2097.0</ele>
    <time>2026-06-20T12:06:30Z</time>
   </trkpt>
   <trkpt lat="-3.1586220" lon="37.2890060">
    <ele>2097.1</ele>
    <time>2026-06-20T12:06:31Z</time>
   </trkpt>
   <trkpt lat="-3.1586180" lon="37.2890010">
    <ele>2097.1</ele>
    <time>2026-06-20T12:06:32Z</time>
   </trkpt>
   <trkpt lat="-3.1586100" lon="37.2890000">
    <ele>2097.2</ele>
    <time>2026-06-20T12:06:33Z</time>
   </trkpt>
   <trkpt lat="-3.1586020" lon="37.2890010">
    <ele>2097.3</ele>
    <time>2026-06-20T12:06:34Z</time>
   </trkpt>
   <trkpt lat="-3.1585860" lon="37.2890040">
    <ele>2097.4</ele>
    <time>2026-06-20T12:06:35Z</time>
   </trkpt>
   <trkpt lat="-3.1585760" lon="37.2890060">
    <ele>2097.5</ele>
    <time>2026-06-20T12:06:36Z</time>
   </trkpt>
   <trkpt lat="-3.1585710" lon="37.2890090">
    <ele>2097.5</ele>
    <time>2026-06-20T12:06:37Z</time>
   </trkpt>
   <trkpt lat="-3.1585650" lon="37.2890070">
    <ele>2097.5</ele>
    <time>2026-06-20T12:06:38Z</time>
   </trkpt>
   <trkpt lat="-3.1585580" lon="37.2890080">
    <ele>2097.6</ele>
    <time>2026-06-20T12:06:39Z</time>
   </trkpt>
   <trkpt lat="-3.1585520" lon="37.2890120">
    <ele>2097.6</ele>
    <time>2026-06-20T12:06:40Z</time>
   </trkpt>
   <trkpt lat="-3.1585450" lon="37.2890140">
    <ele>2097.7</ele>
    <time>2026-06-20T12:06:41Z</time>
   </trkpt>
   <trkpt lat="-3.1585410" lon="37.2890150">
    <ele>2097.7</ele>
    <time>2026-06-20T12:06:42Z</time>
   </trkpt>
   <trkpt lat="-3.1585360" lon="37.2890150">
    <ele>2097.7</ele>
    <time>2026-06-20T12:06:43Z</time>
   </trkpt>
   <trkpt lat="-3.1585320" lon="37.2890160">
    <ele>2097.8</ele>
    <time>2026-06-20T12:06:44Z</time>
   </trkpt>
   <trkpt lat="-3.1585280" lon="37.2890140">
    <ele>2097.8</ele>
    <time>2026-06-20T12:06:45Z</time>
   </trkpt>
   <trkpt lat="-3.1585240" lon="37.2890150">
    <ele>2097.8</ele>
    <time>2026-06-20T12:06:46Z</time>
   </trkpt>
   <trkpt lat="-3.1585160" lon="37.2890160">
    <ele>2097.9</ele>
    <time>2026-06-20T12:06:47Z</time>
   </trkpt>
   <trkpt lat="-3.1585140" lon="37.2890150">
    <ele>2097.9</ele>
    <time>2026-06-20T12:06:48Z</time>
   </trkpt>
   <trkpt lat="-3.1585100" lon="37.2890180">
    <ele>2097.9</ele>
    <time>2026-06-20T12:06:49Z</time>
   </trkpt>
   <trkpt lat="-3.1585090" lon="37.2890160">
    <ele>2097.9</ele>
    <time>2026-06-20T12:06:50Z</time>
   </trkpt>
   <trkpt lat="-3.1585040" lon="37.2890190">
    <ele>2097.9</ele>
    <time>2026-06-20T12:06:51Z</time>
   </trkpt>
   <trkpt lat="-3.1584980" lon="37.2890200">
    <ele>2098.0</ele>
    <time>2026-06-20T12:06:52Z</time>
   </trkpt>
   <trkpt lat="-3.1584920" lon="37.2890190">
    <ele>2098.0</ele>
    <time>2026-06-20T12:06:53Z</time>
   </trkpt>
   <trkpt lat="-3.1584910" lon="37.2890160">
    <ele>2098.0</ele>
    <time>2026-06-20T12:06:54Z</time>
   </trkpt>
   <trkpt lat="-3.1584850" lon="37.2890210">
    <ele>2098.1</ele>
    <time>2026-06-20T12:06:55Z</time>
   </trkpt>
   <trkpt lat="-3.1584810" lon="37.2890200">
    <ele>2098.1</ele>
    <time>2026-06-20T12:06:56Z</time>
   </trkpt>
   <trkpt lat="-3.1584740" lon="37.2890210">
    <ele>2098.1</ele>
    <time>2026-06-20T12:06:57Z</time>
   </trkpt>
   <trkpt lat="-3.1584650" lon="37.2890230">
    <ele>2098.2</ele>
    <time>2026-06-20T12:06:58Z</time>
   </trkpt>
   <trkpt lat="-3.1584540" lon="37.2890260">
    <ele>2098.3</ele>
    <time>2026-06-20T12:06:59Z</time>
   </trkpt>
   <trkpt lat="-3.1584490" lon="37.2890240">
    <ele>2098.3</ele>
    <time>2026-06-20T12:07:00Z</time>
   </trkpt>
   <trkpt lat="-3.1584430" lon="37.2890260">
    <ele>2098.3</ele>
    <time>2026-06-20T12:07:01Z</time>
   </trkpt>
   <trkpt lat="-3.1584360" lon="37.2890310">
    <ele>2098.4</ele>
    <time>2026-06-20T12:07:02Z</time>
   </trkpt>
   <trkpt lat="-3.1584330" lon="37.2890330">
    <ele>2098.4</ele>
    <time>2026-06-20T12:07:03Z</time>
   </trkpt>
   <trkpt lat="-3.1584260" lon="37.2890340">
    <ele>2098.4</ele>
    <time>2026-06-20T12:07:04Z</time>
   </trkpt>
   <trkpt lat="-3.1584190" lon="37.2890370">
    <ele>2098.5</ele>
    <time>2026-06-20T12:07:05Z</time>
   </trkpt>
   <trkpt lat="-3.1584120" lon="37.2890390">
    <ele>2098.5</ele>
    <time>2026-06-20T12:07:06Z</time>
   </trkpt>
   <trkpt lat="-3.1584080" lon="37.2890410">
    <ele>2098.6</ele>
    <time>2026-06-20T12:07:07Z</time>
   </trkpt>
   <trkpt lat="-3.1583930" lon="37.2890470">
    <ele>2098.7</ele>
    <time>2026-06-20T12:07:08Z</time>
   </trkpt>
   <trkpt lat="-3.1583810" lon="37.2890510">
    <ele>2098.8</ele>
    <time>2026-06-20T12:07:09Z</time>
   </trkpt>
   <trkpt lat="-3.1583740" lon="37.2890550">
    <ele>2098.8</ele>
    <time>2026-06-20T12:07:10Z</time>
   </trkpt>
   <trkpt lat="-3.1583710" lon="37.2890590">
    <ele>2098.9</ele>
    <time>2026-06-20T12:07:11Z</time>
   </trkpt>
   <trkpt lat="-3.1583620" lon="37.2890620">
    <ele>2098.9</ele>
    <time>2026-06-20T12:07:12Z</time>
   </trkpt>
   <trkpt lat="-3.1583560" lon="37.2890670">
    <ele>2099.0</ele>
    <time>2026-06-20T12:07:13Z</time>
   </trkpt>
   <trkpt lat="-3.1583490" lon="37.2890710">
    <ele>2099.0</ele>
    <time>2026-06-20T12:07:14Z</time>
   </trkpt>
   <trkpt lat="-3.1583380" lon="37.2890790">
    <ele>2099.2</ele>
    <time>2026-06-20T12:07:15Z</time>
   </trkpt>
   <trkpt lat="-3.1583350" lon="37.2890840">
    <ele>2099.2</ele>
    <time>2026-06-20T12:07:16Z</time>
   </trkpt>
   <trkpt lat="-3.1583280" lon="37.2890910">
    <ele>2099.3</ele>
    <time>2026-06-20T12:07:17Z</time>
   </trkpt>
   <trkpt lat="-3.1583240" lon="37.2890950">
    <ele>2099.4</ele>
    <time>2026-06-20T12:07:18Z</time>
   </trkpt>
   <trkpt lat="-3.1583210" lon="37.2890950">
    <ele>2099.4</ele>
    <time>2026-06-20T12:07:19Z</time>
   </trkpt>
   <trkpt lat="-3.1583170" lon="37.2890890">
    <ele>2099.4</ele>
    <time>2026-06-20T12:07:20Z</time>
   </trkpt>
   <trkpt lat="-3.1583130" lon="37.2890910">
    <ele>2099.5</ele>
    <time>2026-06-20T12:07:21Z</time>
   </trkpt>
   <trkpt lat="-3.1583090" lon="37.2890910">
    <ele>2099.5</ele>
    <time>2026-06-20T12:07:22Z</time>
   </trkpt>
   <trkpt lat="-3.1583020" lon="37.2890950">
    <ele>2099.6</ele>
    <time>2026-06-20T12:07:23Z</time>
   </trkpt>
   <trkpt lat="-3.1582980" lon="37.2890990">
    <ele>2099.7</ele>
    <time>2026-06-20T12:07:24Z</time>
   </trkpt>
   <trkpt lat="-3.1582940" lon="37.2891040">
    <ele>2099.7</ele>
    <time>2026-06-20T12:07:25Z</time>
   </trkpt>
   <trkpt lat="-3.1582880" lon="37.2891080">
    <ele>2099.8</ele>
    <time>2026-06-20T12:07:26Z</time>
   </trkpt>
   <trkpt lat="-3.1582920" lon="37.2891030">
    <ele>2099.9</ele>
    <time>2026-06-20T12:07:27Z</time>
   </trkpt>
   <trkpt lat="-3.1582870" lon="37.2891000">
    <ele>2099.9</ele>
    <time>2026-06-20T12:07:28Z</time>
   </trkpt>
   <trkpt lat="-3.1582810" lon="37.2891020">
    <ele>2100.0</ele>
    <time>2026-06-20T12:07:29Z</time>
   </trkpt>
   <trkpt lat="-3.1582780" lon="37.2891060">
    <ele>2100.0</ele>
    <time>2026-06-20T12:07:30Z</time>
   </trkpt>
   <trkpt lat="-3.1582730" lon="37.2891110">
    <ele>2100.1</ele>
    <time>2026-06-20T12:07:31Z</time>
   </trkpt>
   <trkpt lat="-3.1582680" lon="37.2891040">
    <ele>2100.2</ele>
    <time>2026-06-20T12:07:32Z</time>
   </trkpt>
   <trkpt lat="-3.1582620" lon="37.2891070">
    <ele>2100.3</ele>
    <time>2026-06-20T12:07:33Z</time>
   </trkpt>
   <trkpt lat="-3.1582510" lon="37.2891150">
    <ele>2100.5</ele>
    <time>2026-06-20T12:07:34Z</time>
   </trkpt>
   <trkpt lat="-3.1582510" lon="37.2891110">
    <ele>2100.5</ele>
    <time>2026-06-20T12:07:35Z</time>
   </trkpt>
   <trkpt lat="-3.1582410" lon="37.2891130">
    <ele>2100.6</ele>
    <time>2026-06-20T12:07:36Z</time>
   </trkpt>
   <trkpt lat="-3.1582400" lon="37.2891270">
    <ele>2100.8</ele>
    <time>2026-06-20T12:07:37Z</time>
   </trkpt>
   <trkpt lat="-3.1582290" lon="37.2891280">
    <ele>2100.9</ele>
    <time>2026-06-20T12:07:38Z</time>
   </trkpt>
   <trkpt lat="-3.1582220" lon="37.2891320">
    <ele>2101.0</ele>
    <time>2026-06-20T12:07:39Z</time>
   </trkpt>
   <trkpt lat="-3.1582120" lon="37.2891400">
    <ele>2101.2</ele>
    <time>2026-06-20T12:07:40Z</time>
   </trkpt>
   <trkpt lat="-3.1582140" lon="37.2891380">
    <ele>2101.2</ele>
    <time>2026-06-20T12:07:41Z</time>
   </trkpt>
   <trkpt lat="-3.1582120" lon="37.2891400">
    <ele>2101.3</ele>
    <time>2026-06-20T12:07:42Z</time>
   </trkpt>
   <trkpt lat="-3.1582050" lon="37.2891460">
    <ele>2101.4</ele>
    <time>2026-06-20T12:07:43Z</time>
   </trkpt>
   <trkpt lat="-3.1582030" lon="37.2891460">
    <ele>2101.4</ele>
    <time>2026-06-20T12:07:44Z</time>
   </trkpt>
   <trkpt lat="-3.1581980" lon="37.2891480">
    <ele>2101.5</ele>
    <time>2026-06-20T12:07:45Z</time>
   </trkpt>
   <trkpt lat="-3.1581920" lon="37.2891540">
    <ele>2101.6</ele>
    <time>2026-06-20T12:07:46Z</time>
   </trkpt>
   <trkpt lat="-3.1581900" lon="37.2891580">
    <ele>2101.7</ele>
    <time>2026-06-20T12:07:47Z</time>
   </trkpt>
   <trkpt lat="-3.1581850" lon="37.2891610">
    <ele>2101.7</ele>
    <time>2026-06-20T12:07:48Z</time>
   </trkpt>
   <trkpt lat="-3.1581810" lon="37.2891690">
    <ele>2101.9</ele>
    <time>2026-06-20T12:07:49Z</time>
   </trkpt>
   <trkpt lat="-3.1581750" lon="37.2891750">
    <ele>2102.0</ele>
    <time>2026-06-20T12:07:50Z</time>
   </trkpt>
   <trkpt lat="-3.1581680" lon="37.2891790">
    <ele>2102.1</ele>
    <time>2026-06-20T12:07:51Z</time>
   </trkpt>
   <trkpt lat="-3.1581690" lon="37.2891830">
    <ele>2102.1</ele>
    <time>2026-06-20T12:07:52Z</time>
   </trkpt>
   <trkpt lat="-3.1581630" lon="37.2891870">
    <ele>2102.2</ele>
    <time>2026-06-20T12:07:53Z</time>
   </trkpt>
   <trkpt lat="-3.1581600" lon="37.2891870">
    <ele>2102.2</ele>
    <time>2026-06-20T12:07:54Z</time>
   </trkpt>
   <trkpt lat="-3.1581600" lon="37.2891870">
    <ele>2102.2</ele>
    <time>2026-06-20T12:07:55Z</time>
   </trkpt>
   <trkpt lat="-3.1581560" lon="37.2891900">
    <ele>2102.3</ele>
    <time>2026-06-20T12:07:56Z</time>
   </trkpt>
   <trkpt lat="-3.1581520" lon="37.2891900">
    <ele>2102.4</ele>
    <time>2026-06-20T12:07:57Z</time>
   </trkpt>
   <trkpt lat="-3.1581500" lon="37.2891890">
    <ele>2102.4</ele>
    <time>2026-06-20T12:07:59Z</time>
   </trkpt>
   <trkpt lat="-3.1581420" lon="37.2891910">
    <ele>2102.5</ele>
    <time>2026-06-20T12:08:00Z</time>
   </trkpt>
   <trkpt lat="-3.1581360" lon="37.2891940">
    <ele>2102.6</ele>
    <time>2026-06-20T12:08:01Z</time>
   </trkpt>
   <trkpt lat="-3.1581290" lon="37.2892000">
    <ele>2102.7</ele>
    <time>2026-06-20T12:08:02Z</time>
   </trkpt>
   <trkpt lat="-3.1581270" lon="37.2892030">
    <ele>2102.7</ele>
    <time>2026-06-20T12:08:03Z</time>
   </trkpt>
   <trkpt lat="-3.1581200" lon="37.2892070">
    <ele>2102.8</ele>
    <time>2026-06-20T12:08:04Z</time>
   </trkpt>
   <trkpt lat="-3.1581170" lon="37.2892060">
    <ele>2102.9</ele>
    <time>2026-06-20T12:08:05Z</time>
   </trkpt>
   <trkpt lat="-3.1581120" lon="37.2892070">
    <ele>2102.9</ele>
    <time>2026-06-20T12:08:06Z</time>
   </trkpt>
   <trkpt lat="-3.1581090" lon="37.2892130">
    <ele>2103.0</ele>
    <time>2026-06-20T12:08:07Z</time>
   </trkpt>
   <trkpt lat="-3.1581060" lon="37.2892160">
    <ele>2103.0</ele>
    <time>2026-06-20T12:08:08Z</time>
   </trkpt>
   <trkpt lat="-3.1580930" lon="37.2892180">
    <ele>2103.2</ele>
    <time>2026-06-20T12:08:09Z</time>
   </trkpt>
   <trkpt lat="-3.1580910" lon="37.2892190">
    <ele>2103.2</ele>
    <time>2026-06-20T12:08:10Z</time>
   </trkpt>
   <trkpt lat="-3.1580840" lon="37.2892250">
    <ele>2103.3</ele>
    <time>2026-06-20T12:08:11Z</time>
   </trkpt>
   <trkpt lat="-3.1580690" lon="37.2892280">
    <ele>2103.5</ele>
    <time>2026-06-20T12:08:12Z</time>
   </trkpt>
   <trkpt lat="-3.1580620" lon="37.2892310">
    <ele>2103.5</ele>
    <time>2026-06-20T12:08:13Z</time>
   </trkpt>
   <trkpt lat="-3.1580630" lon="37.2892380">
    <ele>2103.6</ele>
    <time>2026-06-20T12:08:14Z</time>
   </trkpt>
   <trkpt lat="-3.1580510" lon="37.2892540">
    <ele>2103.8</ele>
    <time>2026-06-20T12:08:15Z</time>
   </trkpt>
   <trkpt lat="-3.1580460" lon="37.2892510">
    <ele>2103.9</ele>
    <time>2026-06-20T12:08:16Z</time>
   </trkpt>
   <trkpt lat="-3.1580420" lon="37.2892530">
    <ele>2103.9</ele>
    <time>2026-06-20T12:08:17Z</time>
   </trkpt>
   <trkpt lat="-3.1580420" lon="37.2892540">
    <ele>2103.9</ele>
    <time>2026-06-20T12:08:18Z</time>
   </trkpt>
   <trkpt lat="-3.1580390" lon="37.2892560">
    <ele>2104.0</ele>
    <time>2026-06-20T12:08:19Z</time>
   </trkpt>
   <trkpt lat="-3.1580320" lon="37.2892580">
    <ele>2104.0</ele>
    <time>2026-06-20T12:08:20Z</time>
   </trkpt>
   <trkpt lat="-3.1580270" lon="37.2892620">
    <ele>2104.1</ele>
    <time>2026-06-20T12:08:21Z</time>
   </trkpt>
   <trkpt lat="-3.1580240" lon="37.2892630">
    <ele>2104.1</ele>
    <time>2026-06-20T12:08:22Z</time>
   </trkpt>
   <trkpt lat="-3.1580200" lon="37.2892650">
    <ele>2104.2</ele>
    <time>2026-06-20T12:08:23Z</time>
   </trkpt>
   <trkpt lat="-3.1580170" lon="37.2892690">
    <ele>2104.2</ele>
    <time>2026-06-20T12:08:24Z</time>
   </trkpt>
   <trkpt lat="-3.1580120" lon="37.2892730">
    <ele>2104.3</ele>
    <time>2026-06-20T12:08:25Z</time>
   </trkpt>
   <trkpt lat="-3.1580130" lon="37.2892730">
    <ele>2104.3</ele>
    <time>2026-06-20T12:08:26Z</time>
   </trkpt>
   <trkpt lat="-3.1580070" lon="37.2892790">
    <ele>2104.4</ele>
    <time>2026-06-20T12:08:27Z</time>
   </trkpt>
   <trkpt lat="-3.1580060" lon="37.2892820">
    <ele>2104.4</ele>
    <time>2026-06-20T12:08:28Z</time>
   </trkpt>
   <trkpt lat="-3.1579980" lon="37.2892850">
    <ele>2104.5</ele>
    <time>2026-06-20T12:08:29Z</time>
   </trkpt>
   <trkpt lat="-3.1579900" lon="37.2892870">
    <ele>2104.6</ele>
    <time>2026-06-20T12:08:30Z</time>
   </trkpt>
   <trkpt lat="-3.1579920" lon="37.2892860">
    <ele>2104.6</ele>
    <time>2026-06-20T12:08:31Z</time>
   </trkpt>
   <trkpt lat="-3.1579890" lon="37.2892880">
    <ele>2104.6</ele>
    <time>2026-06-20T12:08:32Z</time>
   </trkpt>
   <trkpt lat="-3.1579850" lon="37.2892920">
    <ele>2104.7</ele>
    <time>2026-06-20T12:08:33Z</time>
   </trkpt>
   <trkpt lat="-3.1579810" lon="37.2892980">
    <ele>2104.8</ele>
    <time>2026-06-20T12:08:34Z</time>
   </trkpt>
   <trkpt lat="-3.1579760" lon="37.2893090">
    <ele>2104.9</ele>
    <time>2026-06-20T12:08:35Z</time>
   </trkpt>
   <trkpt lat="-3.1579720" lon="37.2893160">
    <ele>2105.0</ele>
    <time>2026-06-20T12:08:36Z</time>
   </trkpt>
   <trkpt lat="-3.1579690" lon="37.2893190">
    <ele>2105.0</ele>
    <time>2026-06-20T12:08:37Z</time>
   </trkpt>
   <trkpt lat="-3.1579600" lon="37.2893230">
    <ele>2105.1</ele>
    <time>2026-06-20T12:08:38Z</time>
   </trkpt>
   <trkpt lat="-3.1579570" lon="37.2893250">
    <ele>2105.2</ele>
    <time>2026-06-20T12:08:39Z</time>
   </trkpt>
   <trkpt lat="-3.1579550" lon="37.2893350">
    <ele>2105.3</ele>
    <time>2026-06-20T12:08:40Z</time>
   </trkpt>
   <trkpt lat="-3.1579500" lon="37.2893420">
    <ele>2105.3</ele>
    <time>2026-06-20T12:08:41Z</time>
   </trkpt>
   <trkpt lat="-3.1579380" lon="37.2893510">
    <ele>2105.5</ele>
    <time>2026-06-20T12:08:42Z</time>
   </trkpt>
   <trkpt lat="-3.1579340" lon="37.2893550">
    <ele>2105.6</ele>
    <time>2026-06-20T12:08:43Z</time>
   </trkpt>
   <trkpt lat="-3.1579250" lon="37.2893620">
    <ele>2105.7</ele>
    <time>2026-06-20T12:08:44Z</time>
   </trkpt>
   <trkpt lat="-3.1579190" lon="37.2893630">
    <ele>2105.8</ele>
    <time>2026-06-20T12:08:45Z</time>
   </trkpt>
   <trkpt lat="-3.1579120" lon="37.2893660">
    <ele>2105.8</ele>
    <time>2026-06-20T12:08:46Z</time>
   </trkpt>
   <trkpt lat="-3.1579060" lon="37.2893680">
    <ele>2105.9</ele>
    <time>2026-06-20T12:08:47Z</time>
   </trkpt>
   <trkpt lat="-3.1579000" lon="37.2893710">
    <ele>2106.0</ele>
    <time>2026-06-20T12:08:48Z</time>
   </trkpt>
   <trkpt lat="-3.1578940" lon="37.2893740">
    <ele>2106.1</ele>
    <time>2026-06-20T12:08:49Z</time>
   </trkpt>
   <trkpt lat="-3.1578860" lon="37.2893790">
    <ele>2106.2</ele>
    <time>2026-06-20T12:08:50Z</time>
   </trkpt>
   <trkpt lat="-3.1578810" lon="37.2893820">
    <ele>2106.3</ele>
    <time>2026-06-20T12:08:51Z</time>
   </trkpt>
   <trkpt lat="-3.1578780" lon="37.2893850">
    <ele>2106.3</ele>
    <time>2026-06-20T12:08:52Z</time>
   </trkpt>
   <trkpt lat="-3.1578690" lon="37.2893900">
    <ele>2106.4</ele>
    <time>2026-06-20T12:08:53Z</time>
   </trkpt>
   <trkpt lat="-3.1578640" lon="37.2893960">
    <ele>2106.5</ele>
    <time>2026-06-20T12:08:54Z</time>
   </trkpt>
   <trkpt lat="-3.1578630" lon="37.2893950">
    <ele>2106.6</ele>
    <time>2026-06-20T12:08:55Z</time>
   </trkpt>
   <trkpt lat="-3.1578570" lon="37.2893980">
    <ele>2106.6</ele>
    <time>2026-06-20T12:08:56Z</time>
   </trkpt>
   <trkpt lat="-3.1578550" lon="37.2893990">
    <ele>2106.7</ele>
    <time>2026-06-20T12:08:57Z</time>
   </trkpt>
   <trkpt lat="-3.1578520" lon="37.2894050">
    <ele>2106.8</ele>
    <time>2026-06-20T12:08:58Z</time>
   </trkpt>
   <trkpt lat="-3.1578460" lon="37.2894020">
    <ele>2106.9</ele>
    <time>2026-06-20T12:08:59Z</time>
   </trkpt>
   <trkpt lat="-3.1578390" lon="37.2894030">
    <ele>2106.9</ele>
    <time>2026-06-20T12:09:00Z</time>
   </trkpt>
   <trkpt lat="-3.1578320" lon="37.2894120">
    <ele>2107.1</ele>
    <time>2026-06-20T12:09:01Z</time>
   </trkpt>
   <trkpt lat="-3.1578230" lon="37.2894200">
    <ele>2107.3</ele>
    <time>2026-06-20T12:09:02Z</time>
   </trkpt>
   <trkpt lat="-3.1578220" lon="37.2894140">
    <ele>2107.4</ele>
    <time>2026-06-20T12:09:03Z</time>
   </trkpt>
   <trkpt lat="-3.1578170" lon="37.2894190">
    <ele>2107.5</ele>
    <time>2026-06-20T12:09:04Z</time>
   </trkpt>
   <trkpt lat="-3.1578100" lon="37.2894230">
    <ele>2107.6</ele>
    <time>2026-06-20T12:09:05Z</time>
   </trkpt>
   <trkpt lat="-3.1578030" lon="37.2894300">
    <ele>2107.7</ele>
    <time>2026-06-20T12:09:06Z</time>
   </trkpt>
   <trkpt lat="-3.1577980" lon="37.2894360">
    <ele>2107.8</ele>
    <time>2026-06-20T12:09:07Z</time>
   </trkpt>
   <trkpt lat="-3.1577970" lon="37.2894370">
    <ele>2107.9</ele>
    <time>2026-06-20T12:09:08Z</time>
   </trkpt>
   <trkpt lat="-3.1577950" lon="37.2894390">
    <ele>2107.9</ele>
    <time>2026-06-20T12:09:09Z</time>
   </trkpt>
   <trkpt lat="-3.1577920" lon="37.2894440">
    <ele>2108.0</ele>
    <time>2026-06-20T12:09:10Z</time>
   </trkpt>
   <trkpt lat="-3.1577870" lon="37.2894460">
    <ele>2108.1</ele>
    <time>2026-06-20T12:09:11Z</time>
   </trkpt>
   <trkpt lat="-3.1577800" lon="37.2894500">
    <ele>2108.2</ele>
    <time>2026-06-20T12:09:12Z</time>
   </trkpt>
   <trkpt lat="-3.1577770" lon="37.2894540">
    <ele>2108.3</ele>
    <time>2026-06-20T12:09:13Z</time>
   </trkpt>
   <trkpt lat="-3.1577740" lon="37.2894520">
    <ele>2108.3</ele>
    <time>2026-06-20T12:09:14Z</time>
   </trkpt>
   <trkpt lat="-3.1577670" lon="37.2894530">
    <ele>2108.4</ele>
    <time>2026-06-20T12:09:15Z</time>
   </trkpt>
   <trkpt lat="-3.1577620" lon="37.2894600">
    <ele>2108.6</ele>
    <time>2026-06-20T12:09:16Z</time>
   </trkpt>
   <trkpt lat="-3.1577590" lon="37.2894610">
    <ele>2108.6</ele>
    <time>2026-06-20T12:09:17Z</time>
   </trkpt>
   <trkpt lat="-3.1577570" lon="37.2894660">
    <ele>2108.7</ele>
    <time>2026-06-20T12:09:18Z</time>
   </trkpt>
   <trkpt lat="-3.1577520" lon="37.2894680">
    <ele>2108.8</ele>
    <time>2026-06-20T12:09:19Z</time>
   </trkpt>
   <trkpt lat="-3.1577480" lon="37.2894670">
    <ele>2108.8</ele>
    <time>2026-06-20T12:09:20Z</time>
   </trkpt>
   <trkpt lat="-3.1577380" lon="37.2894710">
    <ele>2109.0</ele>
    <time>2026-06-20T12:09:21Z</time>
   </trkpt>
   <trkpt lat="-3.1577300" lon="37.2894710">
    <ele>2109.1</ele>
    <time>2026-06-20T12:09:22Z</time>
   </trkpt>
   <trkpt lat="-3.1577230" lon="37.2894720">
    <ele>2109.2</ele>
    <time>2026-06-20T12:09:23Z</time>
   </trkpt>
   <trkpt lat="-3.1577180" lon="37.2894700">
    <ele>2109.3</ele>
    <time>2026-06-20T12:09:24Z</time>
   </trkpt>
   <trkpt lat="-3.1577070" lon="37.2894680">
    <ele>2109.5</ele>
    <time>2026-06-20T12:09:25Z</time>
   </trkpt>
   <trkpt lat="-3.1576960" lon="37.2894650">
    <ele>2109.7</ele>
    <time>2026-06-20T12:09:26Z</time>
   </trkpt>
   <trkpt lat="-3.1576920" lon="37.2894660">
    <ele>2109.7</ele>
    <time>2026-06-20T12:09:27Z</time>
   </trkpt>
   <trkpt lat="-3.1576790" lon="37.2894680">
    <ele>2109.9</ele>
    <time>2026-06-20T12:09:28Z</time>
   </trkpt>
   <trkpt lat="-3.1576670" lon="37.2894710">
    <ele>2110.1</ele>
    <time>2026-06-20T12:09:29Z</time>
   </trkpt>
   <trkpt lat="-3.1576600" lon="37.2894740">
    <ele>2110.2</ele>
    <time>2026-06-20T12:09:30Z</time>
   </trkpt>
   <trkpt lat="-3.1576560" lon="37.2894760">
    <ele>2110.3</ele>
    <time>2026-06-20T12:09:31Z</time>
   </trkpt>
   <trkpt lat="-3.1576530" lon="37.2894810">
    <ele>2110.4</ele>
    <time>2026-06-20T12:09:32Z</time>
   </trkpt>
   <trkpt lat="-3.1576490" lon="37.2894830">
    <ele>2110.4</ele>
    <time>2026-06-20T12:09:33Z</time>
   </trkpt>
   <trkpt lat="-3.1576500" lon="37.2894870">
    <ele>2110.5</ele>
    <time>2026-06-20T12:09:34Z</time>
   </trkpt>
   <trkpt lat="-3.1576500" lon="37.2894940">
    <ele>2110.6</ele>
    <time>2026-06-20T12:09:35Z</time>
   </trkpt>
   <trkpt lat="-3.1576440" lon="37.2894960">
    <ele>2110.7</ele>
    <time>2026-06-20T12:09:36Z</time>
   </trkpt>
   <trkpt lat="-3.1576410" lon="37.2894970">
    <ele>2110.7</ele>
    <time>2026-06-20T12:09:37Z</time>
   </trkpt>
   <trkpt lat="-3.1576340" lon="37.2894980">
    <ele>2110.8</ele>
    <time>2026-06-20T12:09:38Z</time>
   </trkpt>
   <trkpt lat="-3.1576290" lon="37.2894930">
    <ele>2110.9</ele>
    <time>2026-06-20T12:09:39Z</time>
   </trkpt>
   <trkpt lat="-3.1576310" lon="37.2894850">
    <ele>2111.0</ele>
    <time>2026-06-20T12:09:40Z</time>
   </trkpt>
   <trkpt lat="-3.1576230" lon="37.2894880">
    <ele>2111.1</ele>
    <time>2026-06-20T12:09:41Z</time>
   </trkpt>
   <trkpt lat="-3.1576190" lon="37.2894880">
    <ele>2111.2</ele>
    <time>2026-06-20T12:09:42Z</time>
   </trkpt>
   <trkpt lat="-3.1576160" lon="37.2894840">
    <ele>2111.3</ele>
    <time>2026-06-20T12:09:43Z</time>
   </trkpt>
   <trkpt lat="-3.1576110" lon="37.2894800">
    <ele>2111.3</ele>
    <time>2026-06-20T12:09:44Z</time>
   </trkpt>
   <trkpt lat="-3.1576100" lon="37.2894780">
    <ele>2111.4</ele>
    <time>2026-06-20T12:09:45Z</time>
   </trkpt>
   <trkpt lat="-3.1576050" lon="37.2894850">
    <ele>2111.5</ele>
    <time>2026-06-20T12:09:46Z</time>
   </trkpt>
   <trkpt lat="-3.1576000" lon="37.2894870">
    <ele>2111.6</ele>
    <time>2026-06-20T12:09:47Z</time>
   </trkpt>
   <trkpt lat="-3.1576010" lon="37.2894860">
    <ele>2111.6</ele>
    <time>2026-06-20T12:09:48Z</time>
   </trkpt>
   <trkpt lat="-3.1575930" lon="37.2894900">
    <ele>2111.7</ele>
    <time>2026-06-20T12:09:49Z</time>
   </trkpt>
   <trkpt lat="-3.1575810" lon="37.2894970">
    <ele>2111.9</ele>
    <time>2026-06-20T12:09:50Z</time>
   </trkpt>
   <trkpt lat="-3.1575750" lon="37.2894990">
    <ele>2112.0</ele>
    <time>2026-06-20T12:09:51Z</time>
   </trkpt>
   <trkpt lat="-3.1575660" lon="37.2895050">
    <ele>2112.1</ele>
    <time>2026-06-20T12:09:52Z</time>
   </trkpt>
   <trkpt lat="-3.1575570" lon="37.2895070">
    <ele>2112.2</ele>
    <time>2026-06-20T12:09:53Z</time>
   </trkpt>
   <trkpt lat="-3.1575490" lon="37.2895080">
    <ele>2112.3</ele>
    <time>2026-06-20T12:09:54Z</time>
   </trkpt>
   <trkpt lat="-3.1575460" lon="37.2895110">
    <ele>2112.4</ele>
    <time>2026-06-20T12:09:55Z</time>
   </trkpt>
   <trkpt lat="-3.1575380" lon="37.2895120">
    <ele>2112.5</ele>
    <time>2026-06-20T12:09:56Z</time>
   </trkpt>
   <trkpt lat="-3.1575320" lon="37.2895120">
    <ele>2112.6</ele>
    <time>2026-06-20T12:09:57Z</time>
   </trkpt>
   <trkpt lat="-3.1575260" lon="37.2895160">
    <ele>2112.7</ele>
    <time>2026-06-20T12:09:58Z</time>
   </trkpt>
   <trkpt lat="-3.1575210" lon="37.2895160">
    <ele>2112.7</ele>
    <time>2026-06-20T12:09:59Z</time>
   </trkpt>
   <trkpt lat="-3.1575160" lon="37.2895170">
    <ele>2112.8</ele>
    <time>2026-06-20T12:10:00Z</time>
   </trkpt>
   <trkpt lat="-3.1575060" lon="37.2895180">
    <ele>2112.9</ele>
    <time>2026-06-20T12:10:01Z</time>
   </trkpt>
   <trkpt lat="-3.1575000" lon="37.2895190">
    <ele>2113.0</ele>
    <time>2026-06-20T12:10:02Z</time>
   </trkpt>
   <trkpt lat="-3.1574950" lon="37.2895250">
    <ele>2113.1</ele>
    <time>2026-06-20T12:10:03Z</time>
   </trkpt>
   <trkpt lat="-3.1574900" lon="37.2895230">
    <ele>2113.2</ele>
    <time>2026-06-20T12:10:05Z</time>
   </trkpt>
   <trkpt lat="-3.1574810" lon="37.2895210">
    <ele>2113.3</ele>
    <time>2026-06-20T12:10:06Z</time>
   </trkpt>
   <trkpt lat="-3.1574730" lon="37.2895250">
    <ele>2113.4</ele>
    <time>2026-06-20T12:10:07Z</time>
   </trkpt>
   <trkpt lat="-3.1574690" lon="37.2895250">
    <ele>2113.5</ele>
    <time>2026-06-20T12:10:08Z</time>
   </trkpt>
   <trkpt lat="-3.1574600" lon="37.2895260">
    <ele>2113.6</ele>
    <time>2026-06-20T12:10:09Z</time>
   </trkpt>
   <trkpt lat="-3.1574600" lon="37.2895260">
    <ele>2113.6</ele>
    <time>2026-06-20T12:10:10Z</time>
   </trkpt>
   <trkpt lat="-3.1574510" lon="37.2895280">
    <ele>2113.7</ele>
    <time>2026-06-20T12:10:11Z</time>
   </trkpt>
   <trkpt lat="-3.1574430" lon="37.2895250">
    <ele>2113.8</ele>
    <time>2026-06-20T12:10:12Z</time>
   </trkpt>
   <trkpt lat="-3.1574390" lon="37.2895270">
    <ele>2113.9</ele>
    <time>2026-06-20T12:10:13Z</time>
   </trkpt>
   <trkpt lat="-3.1574360" lon="37.2895270">
    <ele>2113.9</ele>
    <time>2026-06-20T12:10:14Z</time>
   </trkpt>
   <trkpt lat="-3.1574290" lon="37.2895310">
    <ele>2114.0</ele>
    <time>2026-06-20T12:10:15Z</time>
   </trkpt>
   <trkpt lat="-3.1574240" lon="37.2895350">
    <ele>2114.1</ele>
    <time>2026-06-20T12:10:16Z</time>
   </trkpt>
   <trkpt lat="-3.1574180" lon="37.2895340">
    <ele>2114.1</ele>
    <time>2026-06-20T12:10:17Z</time>
   </trkpt>
   <trkpt lat="-3.1574100" lon="37.2895370">
    <ele>2114.3</ele>
    <time>2026-06-20T12:10:18Z</time>
   </trkpt>
   <trkpt lat="-3.1574020" lon="37.2895350">
    <ele>2114.4</ele>
    <time>2026-06-20T12:10:19Z</time>
   </trkpt>
   <trkpt lat="-3.1573950" lon="37.2895380">
    <ele>2114.5</ele>
    <time>2026-06-20T12:10:20Z</time>
   </trkpt>
   <trkpt lat="-3.1573920" lon="37.2895420">
    <ele>2114.5</ele>
    <time>2026-06-20T12:10:21Z</time>
   </trkpt>
   <trkpt lat="-3.1573850" lon="37.2895440">
    <ele>2114.6</ele>
    <time>2026-06-20T12:10:22Z</time>
   </trkpt>
   <trkpt lat="-3.1573770" lon="37.2895470">
    <ele>2114.7</ele>
    <time>2026-06-20T12:10:23Z</time>
   </trkpt>
   <trkpt lat="-3.1573730" lon="37.2895500">
    <ele>2114.8</ele>
    <time>2026-06-20T12:10:24Z</time>
   </trkpt>
   <trkpt lat="-3.1573720" lon="37.2895520">
    <ele>2114.8</ele>
    <time>2026-06-20T12:10:25Z</time>
   </trkpt>
   <trkpt lat="-3.1573680" lon="37.2895560">
    <ele>2114.9</ele>
    <time>2026-06-20T12:10:26Z</time>
   </trkpt>
   <trkpt lat="-3.1573610" lon="37.2895610">
    <ele>2115.0</ele>
    <time>2026-06-20T12:10:27Z</time>
   </trkpt>
   <trkpt lat="-3.1573540" lon="37.2895650">
    <ele>2115.1</ele>
    <time>2026-06-20T12:10:28Z</time>
   </trkpt>
   <trkpt lat="-3.1573500" lon="37.2895720">
    <ele>2115.2</ele>
    <time>2026-06-20T12:10:29Z</time>
   </trkpt>
   <trkpt lat="-3.1573480" lon="37.2895790">
    <ele>2115.3</ele>
    <time>2026-06-20T12:10:30Z</time>
   </trkpt>
   <trkpt lat="-3.1573450" lon="37.2895830">
    <ele>2115.3</ele>
    <time>2026-06-20T12:10:31Z</time>
   </trkpt>
   <trkpt lat="-3.1573410" lon="37.2895880">
    <ele>2115.4</ele>
    <time>2026-06-20T12:10:32Z</time>
   </trkpt>
   <trkpt lat="-3.1573390" lon="37.2895960">
    <ele>2115.5</ele>
    <time>2026-06-20T12:10:33Z</time>
   </trkpt>
   <trkpt lat="-3.1573440" lon="37.2896000">
    <ele>2115.6</ele>
    <time>2026-06-20T12:10:34Z</time>
   </trkpt>
   <trkpt lat="-3.1573510" lon="37.2896010">
    <ele>2115.7</ele>
    <time>2026-06-20T12:10:35Z</time>
   </trkpt>
   <trkpt lat="-3.1573530" lon="37.2896050">
    <ele>2115.7</ele>
    <time>2026-06-20T12:10:36Z</time>
   </trkpt>
   <trkpt lat="-3.1573540" lon="37.2896120">
    <ele>2115.8</ele>
    <time>2026-06-20T12:10:37Z</time>
   </trkpt>
   <trkpt lat="-3.1573550" lon="37.2896200">
    <ele>2115.9</ele>
    <time>2026-06-20T12:10:38Z</time>
   </trkpt>
   <trkpt lat="-3.1573530" lon="37.2896240">
    <ele>2116.0</ele>
    <time>2026-06-20T12:10:39Z</time>
   </trkpt>
   <trkpt lat="-3.1573490" lon="37.2896290">
    <ele>2116.0</ele>
    <time>2026-06-20T12:10:40Z</time>
   </trkpt>
   <trkpt lat="-3.1573390" lon="37.2896350">
    <ele>2116.2</ele>
    <time>2026-06-20T12:10:41Z</time>
   </trkpt>
   <trkpt lat="-3.1573350" lon="37.2896410">
    <ele>2116.2</ele>
    <time>2026-06-20T12:10:42Z</time>
   </trkpt>
   <trkpt lat="-3.1573300" lon="37.2896470">
    <ele>2116.3</ele>
    <time>2026-06-20T12:10:43Z</time>
   </trkpt>
   <trkpt lat="-3.1573250" lon="37.2896480">
    <ele>2116.4</ele>
    <time>2026-06-20T12:10:44Z</time>
   </trkpt>
   <trkpt lat="-3.1573220" lon="37.2896530">
    <ele>2116.4</ele>
    <time>2026-06-20T12:10:45Z</time>
   </trkpt>
   <trkpt lat="-3.1573160" lon="37.2896610">
    <ele>2116.6</ele>
    <time>2026-06-20T12:10:46Z</time>
   </trkpt>
   <trkpt lat="-3.1573100" lon="37.2896680">
    <ele>2116.6</ele>
    <time>2026-06-20T12:10:47Z</time>
   </trkpt>
   <trkpt lat="-3.1573070" lon="37.2896750">
    <ele>2116.7</ele>
    <time>2026-06-20T12:10:48Z</time>
   </trkpt>
   <trkpt lat="-3.1573120" lon="37.2896830">
    <ele>2116.8</ele>
    <time>2026-06-20T12:10:49Z</time>
   </trkpt>
   <trkpt lat="-3.1573110" lon="37.2896880">
    <ele>2116.9</ele>
    <time>2026-06-20T12:10:50Z</time>
   </trkpt>
   <trkpt lat="-3.1573070" lon="37.2896940">
    <ele>2117.0</ele>
    <time>2026-06-20T12:10:51Z</time>
   </trkpt>
   <trkpt lat="-3.1573070" lon="37.2897020">
    <ele>2117.0</ele>
    <time>2026-06-20T12:10:52Z</time>
   </trkpt>
   <trkpt lat="-3.1573030" lon="37.2897120">
    <ele>2117.1</ele>
    <time>2026-06-20T12:10:53Z</time>
   </trkpt>
   <trkpt lat="-3.1573020" lon="37.2897180">
    <ele>2117.2</ele>
    <time>2026-06-20T12:10:54Z</time>
   </trkpt>
   <trkpt lat="-3.1573000" lon="37.2897240">
    <ele>2117.2</ele>
    <time>2026-06-20T12:10:55Z</time>
   </trkpt>
   <trkpt lat="-3.1573000" lon="37.2897300">
    <ele>2117.3</ele>
    <time>2026-06-20T12:10:56Z</time>
   </trkpt>
   <trkpt lat="-3.1572970" lon="37.2897390">
    <ele>2117.4</ele>
    <time>2026-06-20T12:10:57Z</time>
   </trkpt>
   <trkpt lat="-3.1572930" lon="37.2897450">
    <ele>2117.4</ele>
    <time>2026-06-20T12:10:58Z</time>
   </trkpt>
   <trkpt lat="-3.1572850" lon="37.2897520">
    <ele>2117.5</ele>
    <time>2026-06-20T12:10:59Z</time>
   </trkpt>
   <trkpt lat="-3.1572800" lon="37.2897630">
    <ele>2117.6</ele>
    <time>2026-06-20T12:11:00Z</time>
   </trkpt>
   <trkpt lat="-3.1572790" lon="37.2897720">
    <ele>2117.7</ele>
    <time>2026-06-20T12:11:01Z</time>
   </trkpt>
   <trkpt lat="-3.1572810" lon="37.2897820">
    <ele>2117.8</ele>
    <time>2026-06-20T12:11:02Z</time>
   </trkpt>
   <trkpt lat="-3.1572820" lon="37.2897860">
    <ele>2117.9</ele>
    <time>2026-06-20T12:11:03Z</time>
   </trkpt>
   <trkpt lat="-3.1572820" lon="37.2897910">
    <ele>2117.9</ele>
    <time>2026-06-20T12:11:04Z</time>
   </trkpt>
   <trkpt lat="-3.1572790" lon="37.2897960">
    <ele>2118.0</ele>
    <time>2026-06-20T12:11:05Z</time>
   </trkpt>
   <trkpt lat="-3.1572720" lon="37.2898120">
    <ele>2118.1</ele>
    <time>2026-06-20T12:11:06Z</time>
   </trkpt>
   <trkpt lat="-3.1572720" lon="37.2898160">
    <ele>2118.1</ele>
    <time>2026-06-20T12:11:07Z</time>
   </trkpt>
   <trkpt lat="-3.1572720" lon="37.2898230">
    <ele>2118.2</ele>
    <time>2026-06-20T12:11:08Z</time>
   </trkpt>
   <trkpt lat="-3.1572760" lon="37.2898250">
    <ele>2118.3</ele>
    <time>2026-06-20T12:11:09Z</time>
   </trkpt>
   <trkpt lat="-3.1572760" lon="37.2898210">
    <ele>2118.3</ele>
    <time>2026-06-20T12:11:10Z</time>
   </trkpt>
   <trkpt lat="-3.1572760" lon="37.2898170">
    <ele>2118.3</ele>
    <time>2026-06-20T12:11:11Z</time>
   </trkpt>
   <trkpt lat="-3.1572720" lon="37.2898270">
    <ele>2118.4</ele>
    <time>2026-06-20T12:11:12Z</time>
   </trkpt>
   <trkpt lat="-3.1572680" lon="37.2898310">
    <ele>2118.5</ele>
    <time>2026-06-20T12:11:13Z</time>
   </trkpt>
   <trkpt lat="-3.1572660" lon="37.2898340">
    <ele>2118.5</ele>
    <time>2026-06-20T12:11:14Z</time>
   </trkpt>
   <trkpt lat="-3.1572720" lon="37.2898380">
    <ele>2118.6</ele>
    <time>2026-06-20T12:11:15Z</time>
   </trkpt>
   <trkpt lat="-3.1572830" lon="37.2898480">
    <ele>2118.8</ele>
    <time>2026-06-20T12:11:16Z</time>
   </trkpt>
   <trkpt lat="-3.1572840" lon="37.2898610">
    <ele>2118.9</ele>
    <time>2026-06-20T12:11:17Z</time>
   </trkpt>
   <trkpt lat="-3.1572790" lon="37.2898560">
    <ele>2119.0</ele>
    <time>2026-06-20T12:11:18Z</time>
   </trkpt>
   <trkpt lat="-3.1572660" lon="37.2898580">
    <ele>2119.1</ele>
    <time>2026-06-20T12:11:19Z</time>
   </trkpt>
   <trkpt lat="-3.1572640" lon="37.2898620">
    <ele>2119.2</ele>
    <time>2026-06-20T12:11:20Z</time>
   </trkpt>
   <trkpt lat="-3.1572590" lon="37.2898680">
    <ele>2119.3</ele>
    <time>2026-06-20T12:11:21Z</time>
   </trkpt>
   <trkpt lat="-3.1572590" lon="37.2898730">
    <ele>2119.3</ele>
    <time>2026-06-20T12:11:22Z</time>
   </trkpt>
   <trkpt lat="-3.1572570" lon="37.2898800">
    <ele>2119.4</ele>
    <time>2026-06-20T12:11:23Z</time>
   </trkpt>
   <trkpt lat="-3.1572600" lon="37.2898860">
    <ele>2119.5</ele>
    <time>2026-06-20T12:11:24Z</time>
   </trkpt>
   <trkpt lat="-3.1572640" lon="37.2898870">
    <ele>2119.6</ele>
    <time>2026-06-20T12:11:25Z</time>
   </trkpt>
   <trkpt lat="-3.1572660" lon="37.2898900">
    <ele>2119.6</ele>
    <time>2026-06-20T12:11:26Z</time>
   </trkpt>
   <trkpt lat="-3.1572680" lon="37.2898960">
    <ele>2119.7</ele>
    <time>2026-06-20T12:11:27Z</time>
   </trkpt>
   <trkpt lat="-3.1572710" lon="37.2898980">
    <ele>2119.7</ele>
    <time>2026-06-20T12:11:28Z</time>
   </trkpt>
   <trkpt lat="-3.1572750" lon="37.2899050">
    <ele>2119.8</ele>
    <time>2026-06-20T12:11:29Z</time>
   </trkpt>
   <trkpt lat="-3.1572800" lon="37.2899080">
    <ele>2119.9</ele>
    <time>2026-06-20T12:11:30Z</time>
   </trkpt>
   <trkpt lat="-3.1572820" lon="37.2899140">
    <ele>2120.0</ele>
    <time>2026-06-20T12:11:31Z</time>
   </trkpt>
   <trkpt lat="-3.1572870" lon="37.2899180">
    <ele>2120.1</ele>
    <time>2026-06-20T12:11:32Z</time>
   </trkpt>
   <trkpt lat="-3.1572880" lon="37.2899260">
    <ele>2120.2</ele>
    <time>2026-06-20T12:11:33Z</time>
   </trkpt>
   <trkpt lat="-3.1572880" lon="37.2899310">
    <ele>2120.3</ele>
    <time>2026-06-20T12:11:34Z</time>
   </trkpt>
   <trkpt lat="-3.1572880" lon="37.2899360">
    <ele>2120.4</ele>
    <time>2026-06-20T12:11:35Z</time>
   </trkpt>
   <trkpt lat="-3.1572940" lon="37.2899420">
    <ele>2120.5</ele>
    <time>2026-06-20T12:11:36Z</time>
   </trkpt>
   <trkpt lat="-3.1572990" lon="37.2899470">
    <ele>2120.6</ele>
    <time>2026-06-20T12:11:37Z</time>
   </trkpt>
   <trkpt lat="-3.1572960" lon="37.2899540">
    <ele>2120.8</ele>
    <time>2026-06-20T12:11:38Z</time>
   </trkpt>
   <trkpt lat="-3.1573030" lon="37.2899580">
    <ele>2120.9</ele>
    <time>2026-06-20T12:11:39Z</time>
   </trkpt>
   <trkpt lat="-3.1573000" lon="37.2899640">
    <ele>2121.0</ele>
    <time>2026-06-20T12:11:40Z</time>
   </trkpt>
   <trkpt lat="-3.1573050" lon="37.2899670">
    <ele>2121.1</ele>
    <time>2026-06-20T12:11:41Z</time>
   </trkpt>
   <trkpt lat="-3.1573110" lon="37.2899720">
    <ele>2121.2</ele>
    <time>2026-06-20T12:11:42Z</time>
   </trkpt>
   <trkpt lat="-3.1573110" lon="37.2899780">
    <ele>2121.3</ele>
    <time>2026-06-20T12:11:43Z</time>
   </trkpt>
   <trkpt lat="-3.1573150" lon="37.2899810">
    <ele>2121.4</ele>
    <time>2026-06-20T12:11:44Z</time>
   </trkpt>
   <trkpt lat="-3.1573140" lon="37.2899870">
    <ele>2121.6</ele>
    <time>2026-06-20T12:11:45Z</time>
   </trkpt>
   <trkpt lat="-3.1573160" lon="37.2899900">
    <ele>2121.6</ele>
    <time>2026-06-20T12:11:46Z</time>
   </trkpt>
   <trkpt lat="-3.1573190" lon="37.2899910">
    <ele>2121.7</ele>
    <time>2026-06-20T12:11:47Z</time>
   </trkpt>
   <trkpt lat="-3.1573200" lon="37.2899920">
    <ele>2121.7</ele>
    <time>2026-06-20T12:11:48Z</time>
   </trkpt>
   <trkpt lat="-3.1573240" lon="37.2899950">
    <ele>2121.8</ele>
    <time>2026-06-20T12:11:49Z</time>
   </trkpt>
   <trkpt lat="-3.1573230" lon="37.2899930">
    <ele>2121.8</ele>
    <time>2026-06-20T12:11:50Z</time>
   </trkpt>
   <trkpt lat="-3.1573240" lon="37.2899930">
    <ele>2121.9</ele>
    <time>2026-06-20T12:11:51Z</time>
   </trkpt>
   <trkpt lat="-3.1573210" lon="37.2899980">
    <ele>2122.0</ele>
    <time>2026-06-20T12:11:52Z</time>
   </trkpt>
   <trkpt lat="-3.1573150" lon="37.2900060">
    <ele>2122.2</ele>
    <time>2026-06-20T12:11:53Z</time>
   </trkpt>
   <trkpt lat="-3.1573130" lon="37.2900080">
    <ele>2122.2</ele>
    <time>2026-06-20T12:11:54Z</time>
   </trkpt>
   <trkpt lat="-3.1573090" lon="37.2900080">
    <ele>2122.3</ele>
    <time>2026-06-20T12:11:55Z</time>
   </trkpt>
   <trkpt lat="-3.1573080" lon="37.2900200">
    <ele>2122.5</ele>
    <time>2026-06-20T12:11:56Z</time>
   </trkpt>
   <trkpt lat="-3.1573090" lon="37.2900150">
    <ele>2122.6</ele>
    <time>2026-06-20T12:11:57Z</time>
   </trkpt>
   <trkpt lat="-3.1573050" lon="37.2900170">
    <ele>2122.7</ele>
    <time>2026-06-20T12:11:58Z</time>
   </trkpt>
   <trkpt lat="-3.1573080" lon="37.2900160">
    <ele>2122.8</ele>
    <time>2026-06-20T12:11:59Z</time>
   </trkpt>
   <trkpt lat="-3.1573140" lon="37.2900180">
    <ele>2122.9</ele>
    <time>2026-06-20T12:12:00Z</time>
   </trkpt>
   <trkpt lat="-3.1573120" lon="37.2900270">
    <ele>2123.1</ele>
    <time>2026-06-20T12:12:01Z</time>
   </trkpt>
   <trkpt lat="-3.1573100" lon="37.2900350">
    <ele>2123.3</ele>
    <time>2026-06-20T12:12:02Z</time>
   </trkpt>
   <trkpt lat="-3.1573130" lon="37.2900340">
    <ele>2123.4</ele>
    <time>2026-06-20T12:12:03Z</time>
   </trkpt>
   <trkpt lat="-3.1573170" lon="37.2900340">
    <ele>2123.4</ele>
    <time>2026-06-20T12:12:04Z</time>
   </trkpt>
   <trkpt lat="-3.1573170" lon="37.2900340">
    <ele>2123.4</ele>
    <time>2026-06-20T12:12:05Z</time>
   </trkpt>
   <trkpt lat="-3.1573220" lon="37.2900340">
    <ele>2123.6</ele>
    <time>2026-06-20T12:12:06Z</time>
   </trkpt>
   <trkpt lat="-3.1573210" lon="37.2900390">
    <ele>2123.7</ele>
    <time>2026-06-20T12:12:07Z</time>
   </trkpt>
   <trkpt lat="-3.1573210" lon="37.2900410">
    <ele>2123.7</ele>
    <time>2026-06-20T12:12:08Z</time>
   </trkpt>
   <trkpt lat="-3.1573230" lon="37.2900420">
    <ele>2123.8</ele>
    <time>2026-06-20T12:12:09Z</time>
   </trkpt>
   <trkpt lat="-3.1573210" lon="37.2900420">
    <ele>2123.8</ele>
    <time>2026-06-20T12:12:11Z</time>
   </trkpt>
   <trkpt lat="-3.1573200" lon="37.2900390">
    <ele>2123.9</ele>
    <time>2026-06-20T12:12:12Z</time>
   </trkpt>
   <trkpt lat="-3.1573190" lon="37.2900490">
    <ele>2124.1</ele>
    <time>2026-06-20T12:12:13Z</time>
   </trkpt>
   <trkpt lat="-3.1573190" lon="37.2900510">
    <ele>2124.1</ele>
    <time>2026-06-20T12:12:14Z</time>
   </trkpt>
   <trkpt lat="-3.1573220" lon="37.2900600">
    <ele>2124.3</ele>
    <time>2026-06-20T12:12:15Z</time>
   </trkpt>
   <trkpt lat="-3.1573220" lon="37.2900680">
    <ele>2124.5</ele>
    <time>2026-06-20T12:12:16Z</time>
   </trkpt>
   <trkpt lat="-3.1573240" lon="37.2900640">
    <ele>2124.6</ele>
    <time>2026-06-20T12:12:17Z</time>
   </trkpt>
   <trkpt lat="-3.1573160" lon="37.2900690">
    <ele>2124.8</ele>
    <time>2026-06-20T12:12:18Z</time>
   </trkpt>
   <trkpt lat="-3.1573150" lon="37.2900720">
    <ele>2124.9</ele>
    <time>2026-06-20T12:12:19Z</time>
   </trkpt>
   <trkpt lat="-3.1573130" lon="37.2900770">
    <ele>2125.0</ele>
    <time>2026-06-20T12:12:20Z</time>
   </trkpt>
   <trkpt lat="-3.1573080" lon="37.2900830">
    <ele>2125.2</ele>
    <time>2026-06-20T12:12:21Z</time>
   </trkpt>
   <trkpt lat="-3.1573060" lon="37.2900870">
    <ele>2125.3</ele>
    <time>2026-06-20T12:12:22Z</time>
   </trkpt>
   <trkpt lat="-3.1572970" lon="37.2900890">
    <ele>2125.5</ele>
    <time>2026-06-20T12:12:23Z</time>
   </trkpt>
   <trkpt lat="-3.1572980" lon="37.2900930">
    <ele>2125.6</ele>
    <time>2026-06-20T12:12:24Z</time>
   </trkpt>
   <trkpt lat="-3.1572910" lon="37.2901000">
    <ele>2125.9</ele>
    <time>2026-06-20T12:12:25Z</time>
   </trkpt>
   <trkpt lat="-3.1572840" lon="37.2901030">
    <ele>2126.0</ele>
    <time>2026-06-20T12:12:26Z</time>
   </trkpt>
   <trkpt lat="-3.1572770" lon="37.2901100">
    <ele>2126.3</ele>
    <time>2026-06-20T12:12:27Z</time>
   </trkpt>
   <trkpt lat="-3.1572700" lon="37.2901180">
    <ele>2126.5</ele>
    <time>2026-06-20T12:12:28Z</time>
   </trkpt>
   <trkpt lat="-3.1572650" lon="37.2901220">
    <ele>2126.7</ele>
    <time>2026-06-20T12:12:29Z</time>
   </trkpt>
   <trkpt lat="-3.1572590" lon="37.2901180">
    <ele>2126.9</ele>
    <time>2026-06-20T12:12:30Z</time>
   </trkpt>
   <trkpt lat="-3.1572530" lon="37.2901190">
    <ele>2127.0</ele>
    <time>2026-06-20T12:12:31Z</time>
   </trkpt>
   <trkpt lat="-3.1572470" lon="37.2901160">
    <ele>2127.2</ele>
    <time>2026-06-20T12:12:32Z</time>
   </trkpt>
   <trkpt lat="-3.1572440" lon="37.2901190">
    <ele>2127.3</ele>
    <time>2026-06-20T12:12:33Z</time>
   </trkpt>
   <trkpt lat="-3.1572400" lon="37.2901200">
    <ele>2127.4</ele>
    <time>2026-06-20T12:12:34Z</time>
   </trkpt>
   <trkpt lat="-3.1572360" lon="37.2901220">
    <ele>2127.5</ele>
    <time>2026-06-20T12:12:35Z</time>
   </trkpt>
   <trkpt lat="-3.1572320" lon="37.2901300">
    <ele>2127.7</ele>
    <time>2026-06-20T12:12:36Z</time>
   </trkpt>
   <trkpt lat="-3.1572260" lon="37.2901290">
    <ele>2127.8</ele>
    <time>2026-06-20T12:12:37Z</time>
   </trkpt>
   <trkpt lat="-3.1572250" lon="37.2901320">
    <ele>2127.9</ele>
    <time>2026-06-20T12:12:38Z</time>
   </trkpt>
   <trkpt lat="-3.1572210" lon="37.2901310">
    <ele>2128.0</ele>
    <time>2026-06-20T12:12:39Z</time>
   </trkpt>
   <trkpt lat="-3.1572040" lon="37.2901460">
    <ele>2128.5</ele>
    <time>2026-06-20T12:12:40Z</time>
   </trkpt>
   <trkpt lat="-3.1572010" lon="37.2901450">
    <ele>2128.6</ele>
    <time>2026-06-20T12:12:41Z</time>
   </trkpt>
   <trkpt lat="-3.1571990" lon="37.2901420">
    <ele>2128.7</ele>
    <time>2026-06-20T12:12:42Z</time>
   </trkpt>
   <trkpt lat="-3.1571980" lon="37.2901420">
    <ele>2128.7</ele>
    <time>2026-06-20T12:12:43Z</time>
   </trkpt>
   <trkpt lat="-3.1571970" lon="37.2901450">
    <ele>2128.8</ele>
    <time>2026-06-20T12:12:44Z</time>
   </trkpt>
   <trkpt lat="-3.1571980" lon="37.2901440">
    <ele>2128.8</ele>
    <time>2026-06-20T12:12:45Z</time>
   </trkpt>
   <trkpt lat="-3.1571980" lon="37.2901420">
    <ele>2128.9</ele>
    <time>2026-06-20T12:12:46Z</time>
   </trkpt>
   <trkpt lat="-3.1571930" lon="37.2901470">
    <ele>2129.1</ele>
    <time>2026-06-20T12:12:47Z</time>
   </trkpt>
   <trkpt lat="-3.1571930" lon="37.2901500">
    <ele>2129.1</ele>
    <time>2026-06-20T12:12:48Z</time>
   </trkpt>
   <trkpt lat="-3.1571870" lon="37.2901520">
    <ele>2129.3</ele>
    <time>2026-06-20T12:12:49Z</time>
   </trkpt>
   <trkpt lat="-3.1571820" lon="37.2901550">
    <ele>2129.4</ele>
    <time>2026-06-20T12:12:50Z</time>
   </trkpt>
   <trkpt lat="-3.1571800" lon="37.2901610">
    <ele>2129.6</ele>
    <time>2026-06-20T12:12:51Z</time>
   </trkpt>
   <trkpt lat="-3.1571690" lon="37.2901650">
    <ele>2129.8</ele>
    <time>2026-06-20T12:12:52Z</time>
   </trkpt>
   <trkpt lat="-3.1571670" lon="37.2901660">
    <ele>2129.9</ele>
    <time>2026-06-20T12:12:53Z</time>
   </trkpt>
   <trkpt lat="-3.1571620" lon="37.2901700">
    <ele>2130.0</ele>
    <time>2026-06-20T12:12:54Z</time>
   </trkpt>
   <trkpt lat="-3.1571590" lon="37.2901730">
    <ele>2130.1</ele>
    <time>2026-06-20T12:12:55Z</time>
   </trkpt>
   <trkpt lat="-3.1571560" lon="37.2901780">
    <ele>2130.3</ele>
    <time>2026-06-20T12:12:56Z</time>
   </trkpt>
   <trkpt lat="-3.1571520" lon="37.2901820">
    <ele>2130.4</ele>
    <time>2026-06-20T12:12:57Z</time>
   </trkpt>
   <trkpt lat="-3.1571490" lon="37.2901850">
    <ele>2130.5</ele>
    <time>2026-06-20T12:12:58Z</time>
   </trkpt>
   <trkpt lat="-3.1571530" lon="37.2901740">
    <ele>2130.7</ele>
    <time>2026-06-20T12:12:59Z</time>
   </trkpt>
   <trkpt lat="-3.1571480" lon="37.2901790">
    <ele>2130.9</ele>
    <time>2026-06-20T12:13:00Z</time>
   </trkpt>
   <trkpt lat="-3.1571430" lon="37.2901840">
    <ele>2131.0</ele>
    <time>2026-06-20T12:13:01Z</time>
   </trkpt>
   <trkpt lat="-3.1571370" lon="37.2901850">
    <ele>2131.2</ele>
    <time>2026-06-20T12:13:02Z</time>
   </trkpt>
   <trkpt lat="-3.1571340" lon="37.2901840">
    <ele>2131.2</ele>
    <time>2026-06-20T12:13:03Z</time>
   </trkpt>
   <trkpt lat="-3.1571290" lon="37.2901790">
    <ele>2131.4</ele>
    <time>2026-06-20T12:13:04Z</time>
   </trkpt>
   <trkpt lat="-3.1571250" lon="37.2901800">
    <ele>2131.5</ele>
    <time>2026-06-20T12:13:05Z</time>
   </trkpt>
   <trkpt lat="-3.1571200" lon="37.2901780">
    <ele>2131.6</ele>
    <time>2026-06-20T12:13:06Z</time>
   </trkpt>
   <trkpt lat="-3.1571180" lon="37.2901830">
    <ele>2131.7</ele>
    <time>2026-06-20T12:13:07Z</time>
   </trkpt>
   <trkpt lat="-3.1571120" lon="37.2901820">
    <ele>2131.8</ele>
    <time>2026-06-20T12:13:08Z</time>
   </trkpt>
   <trkpt lat="-3.1571090" lon="37.2901840">
    <ele>2131.9</ele>
    <time>2026-06-20T12:13:09Z</time>
   </trkpt>
   <trkpt lat="-3.1571040" lon="37.2901860">
    <ele>2132.0</ele>
    <time>2026-06-20T12:13:10Z</time>
   </trkpt>
   <trkpt lat="-3.1570970" lon="37.2901880">
    <ele>2132.1</ele>
    <time>2026-06-20T12:13:11Z</time>
   </trkpt>
   <trkpt lat="-3.1570940" lon="37.2901910">
    <ele>2132.2</ele>
    <time>2026-06-20T12:13:12Z</time>
   </trkpt>
   <trkpt lat="-3.1570920" lon="37.2901910">
    <ele>2132.2</ele>
    <time>2026-06-20T12:13:13Z</time>
   </trkpt>
   <trkpt lat="-3.1570850" lon="37.2901920">
    <ele>2132.4</ele>
    <time>2026-06-20T12:13:14Z</time>
   </trkpt>
   <trkpt lat="-3.1570820" lon="37.2901890">
    <ele>2132.5</ele>
    <time>2026-06-20T12:13:15Z</time>
   </trkpt>
   <trkpt lat="-3.1570800" lon="37.2901870">
    <ele>2132.5</ele>
    <time>2026-06-20T12:13:16Z</time>
   </trkpt>
   <trkpt lat="-3.1570750" lon="37.2901790">
    <ele>2132.7</ele>
    <time>2026-06-20T12:13:17Z</time>
   </trkpt>
   <trkpt lat="-3.1570680" lon="37.2901780">
    <ele>2132.8</ele>
    <time>2026-06-20T12:13:18Z</time>
   </trkpt>
   <trkpt lat="-3.1570660" lon="37.2901770">
    <ele>2132.9</ele>
    <time>2026-06-20T12:13:19Z</time>
   </trkpt>
   <trkpt lat="-3.1570600" lon="37.2901790">
    <ele>2133.0</ele>
    <time>2026-06-20T12:13:20Z</time>
   </trkpt>
   <trkpt lat="-3.1570530" lon="37.2901810">
    <ele>2133.1</ele>
    <time>2026-06-20T12:13:21Z</time>
   </trkpt>
   <trkpt lat="-3.1570470" lon="37.2901810">
    <ele>2133.2</ele>
    <time>2026-06-20T12:13:22Z</time>
   </trkpt>
   <trkpt lat="-3.1570460" lon="37.2901820">
    <ele>2133.3</ele>
    <time>2026-06-20T12:13:23Z</time>
   </trkpt>
   <trkpt lat="-3.1570490" lon="37.2901800">
    <ele>2133.3</ele>
    <time>2026-06-20T12:13:24Z</time>
   </trkpt>
   <trkpt lat="-3.1570420" lon="37.2901790">
    <ele>2133.5</ele>
    <time>2026-06-20T12:13:25Z</time>
   </trkpt>
   <trkpt lat="-3.1570390" lon="37.2901820">
    <ele>2133.5</ele>
    <time>2026-06-20T12:13:26Z</time>
   </trkpt>
   <trkpt lat="-3.1570400" lon="37.2901860">
    <ele>2133.6</ele>
    <time>2026-06-20T12:13:27Z</time>
   </trkpt>
   <trkpt lat="-3.1570300" lon="37.2901750">
    <ele>2133.9</ele>
    <time>2026-06-20T12:13:28Z</time>
   </trkpt>
   <trkpt lat="-3.1570290" lon="37.2901840">
    <ele>2134.0</ele>
    <time>2026-06-20T12:13:29Z</time>
   </trkpt>
   <trkpt lat="-3.1570210" lon="37.2901860">
    <ele>2134.2</ele>
    <time>2026-06-20T12:13:30Z</time>
   </trkpt>
   <trkpt lat="-3.1570150" lon="37.2901850">
    <ele>2134.3</ele>
    <time>2026-06-20T12:13:31Z</time>
   </trkpt>
   <trkpt lat="-3.1570090" lon="37.2901890">
    <ele>2134.4</ele>
    <time>2026-06-20T12:13:32Z</time>
   </trkpt>
   <trkpt lat="-3.1570060" lon="37.2901910">
    <ele>2134.5</ele>
    <time>2026-06-20T12:13:33Z</time>
   </trkpt>
   <trkpt lat="-3.1569980" lon="37.2901960">
    <ele>2134.6</ele>
    <time>2026-06-20T12:13:34Z</time>
   </trkpt>
   <trkpt lat="-3.1569910" lon="37.2901970">
    <ele>2134.7</ele>
    <time>2026-06-20T12:13:35Z</time>
   </trkpt>
   <trkpt lat="-3.1569830" lon="37.2901980">
    <ele>2134.9</ele>
    <time>2026-06-20T12:13:36Z</time>
   </trkpt>
   <trkpt lat="-3.1569750" lon="37.2901980">
    <ele>2135.0</ele>
    <time>2026-06-20T12:13:37Z</time>
   </trkpt>
   <trkpt lat="-3.1569660" lon="37.2902000">
    <ele>2135.1</ele>
    <time>2026-06-20T12:13:38Z</time>
   </trkpt>
   <trkpt lat="-3.1569630" lon="37.2902060">
    <ele>2135.2</ele>
    <time>2026-06-20T12:13:39Z</time>
   </trkpt>
   <trkpt lat="-3.1569520" lon="37.2902050">
    <ele>2135.4</ele>
    <time>2026-06-20T12:13:40Z</time>
   </trkpt>
   <trkpt lat="-3.1569470" lon="37.2902080">
    <ele>2135.5</ele>
    <time>2026-06-20T12:13:41Z</time>
   </trkpt>
   <trkpt lat="-3.1569440" lon="37.2902080">
    <ele>2135.5</ele>
    <time>2026-06-20T12:13:42Z</time>
   </trkpt>
   <trkpt lat="-3.1569390" lon="37.2902200">
    <ele>2135.8</ele>
    <time>2026-06-20T12:13:43Z</time>
   </trkpt>
   <trkpt lat="-3.1569320" lon="37.2902210">
    <ele>2135.9</ele>
    <time>2026-06-20T12:13:44Z</time>
   </trkpt>
   <trkpt lat="-3.1569270" lon="37.2902270">
    <ele>2136.0</ele>
    <time>2026-06-20T12:13:45Z</time>
   </trkpt>
   <trkpt lat="-3.1569230" lon="37.2902270">
    <ele>2136.0</ele>
    <time>2026-06-20T12:13:46Z</time>
   </trkpt>
   <trkpt lat="-3.1569210" lon="37.2902320">
    <ele>2136.1</ele>
    <time>2026-06-20T12:13:47Z</time>
   </trkpt>
   <trkpt lat="-3.1569120" lon="37.2902360">
    <ele>2136.2</ele>
    <time>2026-06-20T12:13:48Z</time>
   </trkpt>
   <trkpt lat="-3.1569090" lon="37.2902370">
    <ele>2136.3</ele>
    <time>2026-06-20T12:13:49Z</time>
   </trkpt>
   <trkpt lat="-3.1569060" lon="37.2902350">
    <ele>2136.3</ele>
    <time>2026-06-20T12:13:50Z</time>
   </trkpt>
   <trkpt lat="-3.1569020" lon="37.2902400">
    <ele>2136.4</ele>
    <time>2026-06-20T12:13:51Z</time>
   </trkpt>
   <trkpt lat="-3.1568980" lon="37.2902400">
    <ele>2136.5</ele>
    <time>2026-06-20T12:13:52Z</time>
   </trkpt>
   <trkpt lat="-3.1568940" lon="37.2902360">
    <ele>2136.5</ele>
    <time>2026-06-20T12:13:53Z</time>
   </trkpt>
   <trkpt lat="-3.1568900" lon="37.2902340">
    <ele>2136.6</ele>
    <time>2026-06-20T12:13:54Z</time>
   </trkpt>
   <trkpt lat="-3.1568820" lon="37.2902340">
    <ele>2136.7</ele>
    <time>2026-06-20T12:13:55Z</time>
   </trkpt>
   <trkpt lat="-3.1568800" lon="37.2902350">
    <ele>2136.7</ele>
    <time>2026-06-20T12:13:56Z</time>
   </trkpt>
   <trkpt lat="-3.1568760" lon="37.2902370">
    <ele>2136.8</ele>
    <time>2026-06-20T12:13:57Z</time>
   </trkpt>
   <trkpt lat="-3.1568700" lon="37.2902380">
    <ele>2136.9</ele>
    <time>2026-06-20T12:13:58Z</time>
   </trkpt>
   <trkpt lat="-3.1568660" lon="37.2902350">
    <ele>2136.9</ele>
    <time>2026-06-20T12:13:59Z</time>
   </trkpt>
   <trkpt lat="-3.1568630" lon="37.2902310">
    <ele>2137.0</ele>
    <time>2026-06-20T12:14:00Z</time>
   </trkpt>
   <trkpt lat="-3.1568570" lon="37.2902270">
    <ele>2137.1</ele>
    <time>2026-06-20T12:14:01Z</time>
   </trkpt>
   <trkpt lat="-3.1568490" lon="37.2902260">
    <ele>2137.2</ele>
    <time>2026-06-20T12:14:02Z</time>
   </trkpt>
   <trkpt lat="-3.1568460" lon="37.2902270">
    <ele>2137.3</ele>
    <time>2026-06-20T12:14:03Z</time>
   </trkpt>
   <trkpt lat="-3.1568410" lon="37.2902210">
    <ele>2137.4</ele>
    <time>2026-06-20T12:14:04Z</time>
   </trkpt>
   <trkpt lat="-3.1568360" lon="37.2902200">
    <ele>2137.4</ele>
    <time>2026-06-20T12:14:05Z</time>
   </trkpt>
   <trkpt lat="-3.1568300" lon="37.2902220">
    <ele>2137.5</ele>
    <time>2026-06-20T12:14:06Z</time>
   </trkpt>
   <trkpt lat="-3.1568260" lon="37.2902230">
    <ele>2137.5</ele>
    <time>2026-06-20T12:14:07Z</time>
   </trkpt>
   <trkpt lat="-3.1568230" lon="37.2902260">
    <ele>2137.6</ele>
    <time>2026-06-20T12:14:08Z</time>
   </trkpt>
   <trkpt lat="-3.1568140" lon="37.2902230">
    <ele>2137.7</ele>
    <time>2026-06-20T12:14:09Z</time>
   </trkpt>
   <trkpt lat="-3.1568120" lon="37.2902220">
    <ele>2137.7</ele>
    <time>2026-06-20T12:14:10Z</time>
   </trkpt>
   <trkpt lat="-3.1567990" lon="37.2902250">
    <ele>2137.9</ele>
    <time>2026-06-20T12:14:11Z</time>
   </trkpt>
   <trkpt lat="-3.1567990" lon="37.2902220">
    <ele>2138.0</ele>
    <time>2026-06-20T12:14:12Z</time>
   </trkpt>
   <trkpt lat="-3.1567920" lon="37.2902220">
    <ele>2138.0</ele>
    <time>2026-06-20T12:14:13Z</time>
   </trkpt>
   <trkpt lat="-3.1567870" lon="37.2902220">
    <ele>2138.1</ele>
    <time>2026-06-20T12:14:14Z</time>
   </trkpt>
   <trkpt lat="-3.1567780" lon="37.2902180">
    <ele>2138.2</ele>
    <time>2026-06-20T12:14:16Z</time>
   </trkpt>
   <trkpt lat="-3.1567740" lon="37.2902200">
    <ele>2138.3</ele>
    <time>2026-06-20T12:14:17Z</time>
   </trkpt>
   <trkpt lat="-3.1567740" lon="37.2902160">
    <ele>2138.3</ele>
    <time>2026-06-20T12:14:18Z</time>
   </trkpt>
   <trkpt lat="-3.1567670" lon="37.2902150">
    <ele>2138.4</ele>
    <time>2026-06-20T12:14:19Z</time>
   </trkpt>
   <trkpt lat="-3.1567550" lon="37.2902100">
    <ele>2138.6</ele>
    <time>2026-06-20T12:14:20Z</time>
   </trkpt>
   <trkpt lat="-3.1567510" lon="37.2902100">
    <ele>2138.6</ele>
    <time>2026-06-20T12:14:21Z</time>
   </trkpt>
   <trkpt lat="-3.1567510" lon="37.2902110">
    <ele>2138.7</ele>
    <time>2026-06-20T12:14:22Z</time>
   </trkpt>
   <trkpt lat="-3.1567480" lon="37.2902090">
    <ele>2138.7</ele>
    <time>2026-06-20T12:14:23Z</time>
   </trkpt>
   <trkpt lat="-3.1567480" lon="37.2902110">
    <ele>2138.7</ele>
    <time>2026-06-20T12:14:24Z</time>
   </trkpt>
   <trkpt lat="-3.1567450" lon="37.2902120">
    <ele>2138.8</ele>
    <time>2026-06-20T12:14:25Z</time>
   </trkpt>
   <trkpt lat="-3.1567430" lon="37.2902120">
    <ele>2138.8</ele>
    <time>2026-06-20T12:14:26Z</time>
   </trkpt>
   <trkpt lat="-3.1567410" lon="37.2902120">
    <ele>2138.8</ele>
    <time>2026-06-20T12:14:27Z</time>
   </trkpt>
   <trkpt lat="-3.1567370" lon="37.2902150">
    <ele>2138.9</ele>
    <time>2026-06-20T12:14:28Z</time>
   </trkpt>
   <trkpt lat="-3.1567360" lon="37.2902160">
    <ele>2138.9</ele>
    <time>2026-06-20T12:14:29Z</time>
   </trkpt>
   <trkpt lat="-3.1567280" lon="37.2902100">
    <ele>2139.0</ele>
    <time>2026-06-20T12:14:30Z</time>
   </trkpt>
   <trkpt lat="-3.1567170" lon="37.2902090">
    <ele>2139.2</ele>
    <time>2026-06-20T12:14:31Z</time>
   </trkpt>
   <trkpt lat="-3.1567120" lon="37.2902120">
    <ele>2139.2</ele>
    <time>2026-06-20T12:14:32Z</time>
   </trkpt>
   <trkpt lat="-3.1567080" lon="37.2902130">
    <ele>2139.3</ele>
    <time>2026-06-20T12:14:33Z</time>
   </trkpt>
   <trkpt lat="-3.1567040" lon="37.2902130">
    <ele>2139.3</ele>
    <time>2026-06-20T12:14:34Z</time>
   </trkpt>
   <trkpt lat="-3.1566950" lon="37.2902120">
    <ele>2139.5</ele>
    <time>2026-06-20T12:14:35Z</time>
   </trkpt>
   <trkpt lat="-3.1566890" lon="37.2902130">
    <ele>2139.5</ele>
    <time>2026-06-20T12:14:36Z</time>
   </trkpt>
   <trkpt lat="-3.1566840" lon="37.2902180">
    <ele>2139.6</ele>
    <time>2026-06-20T12:14:37Z</time>
   </trkpt>
   <trkpt lat="-3.1566770" lon="37.2902190">
    <ele>2139.7</ele>
    <time>2026-06-20T12:14:38Z</time>
   </trkpt>
   <trkpt lat="-3.1566760" lon="37.2902150">
    <ele>2139.8</ele>
    <time>2026-06-20T12:14:39Z</time>
   </trkpt>
   <trkpt lat="-3.1566800" lon="37.2902170">
    <ele>2139.8</ele>
    <time>2026-06-20T12:14:40Z</time>
   </trkpt>
   <trkpt lat="-3.1566770" lon="37.2902160">
    <ele>2139.9</ele>
    <time>2026-06-20T12:14:41Z</time>
   </trkpt>
   <trkpt lat="-3.1566670" lon="37.2902170">
    <ele>2140.0</ele>
    <time>2026-06-20T12:14:42Z</time>
   </trkpt>
   <trkpt lat="-3.1566630" lon="37.2902160">
    <ele>2140.1</ele>
    <time>2026-06-20T12:14:43Z</time>
   </trkpt>
   <trkpt lat="-3.1566550" lon="37.2902190">
    <ele>2140.2</ele>
    <time>2026-06-20T12:14:44Z</time>
   </trkpt>
   <trkpt lat="-3.1566450" lon="37.2902200">
    <ele>2140.3</ele>
    <time>2026-06-20T12:14:45Z</time>
   </trkpt>
   <trkpt lat="-3.1566300" lon="37.2902200">
    <ele>2140.5</ele>
    <time>2026-06-20T12:14:46Z</time>
   </trkpt>
   <trkpt lat="-3.1566210" lon="37.2902160">
    <ele>2140.6</ele>
    <time>2026-06-20T12:14:47Z</time>
   </trkpt>
   <trkpt lat="-3.1566110" lon="37.2902110">
    <ele>2140.8</ele>
    <time>2026-06-20T12:14:48Z</time>
   </trkpt>
   <trkpt lat="-3.1566060" lon="37.2902060">
    <ele>2140.8</ele>
    <time>2026-06-20T12:14:49Z</time>
   </trkpt>
   <trkpt lat="-3.1565970" lon="37.2902030">
    <ele>2141.0</ele>
    <time>2026-06-20T12:14:50Z</time>
   </trkpt>
   <trkpt lat="-3.1565850" lon="37.2902020">
    <ele>2141.1</ele>
    <time>2026-06-20T12:14:51Z</time>
   </trkpt>
   <trkpt lat="-3.1565790" lon="37.2902000">
    <ele>2141.2</ele>
    <time>2026-06-20T12:14:52Z</time>
   </trkpt>
   <trkpt lat="-3.1565680" lon="37.2901980">
    <ele>2141.3</ele>
    <time>2026-06-20T12:14:53Z</time>
   </trkpt>
   <trkpt lat="-3.1565650" lon="37.2901960">
    <ele>2141.4</ele>
    <time>2026-06-20T12:14:54Z</time>
   </trkpt>
   <trkpt lat="-3.1565550" lon="37.2901970">
    <ele>2141.5</ele>
    <time>2026-06-20T12:14:55Z</time>
   </trkpt>
   <trkpt lat="-3.1565470" lon="37.2902020">
    <ele>2141.6</ele>
    <time>2026-06-20T12:14:56Z</time>
   </trkpt>
   <trkpt lat="-3.1565400" lon="37.2902040">
    <ele>2141.7</ele>
    <time>2026-06-20T12:14:57Z</time>
   </trkpt>
   <trkpt lat="-3.1565320" lon="37.2902040">
    <ele>2141.8</ele>
    <time>2026-06-20T12:14:58Z</time>
   </trkpt>
   <trkpt lat="-3.1565240" lon="37.2902030">
    <ele>2141.9</ele>
    <time>2026-06-20T12:14:59Z</time>
   </trkpt>
   <trkpt lat="-3.1565210" lon="37.2901990">
    <ele>2142.0</ele>
    <time>2026-06-20T12:15:00Z</time>
   </trkpt>
   <trkpt lat="-3.1565120" lon="37.2901990">
    <ele>2142.1</ele>
    <time>2026-06-20T12:15:01Z</time>
   </trkpt>
   <trkpt lat="-3.1565110" lon="37.2901970">
    <ele>2142.2</ele>
    <time>2026-06-20T12:15:02Z</time>
   </trkpt>
   <trkpt lat="-3.1565040" lon="37.2901940">
    <ele>2142.3</ele>
    <time>2026-06-20T12:15:03Z</time>
   </trkpt>
   <trkpt lat="-3.1565000" lon="37.2901920">
    <ele>2142.3</ele>
    <time>2026-06-20T12:15:04Z</time>
   </trkpt>
   <trkpt lat="-3.1564930" lon="37.2901910">
    <ele>2142.4</ele>
    <time>2026-06-20T12:15:05Z</time>
   </trkpt>
   <trkpt lat="-3.1564880" lon="37.2901900">
    <ele>2142.5</ele>
    <time>2026-06-20T12:15:06Z</time>
   </trkpt>
   <trkpt lat="-3.1564810" lon="37.2901900">
    <ele>2142.6</ele>
    <time>2026-06-20T12:15:07Z</time>
   </trkpt>
   <trkpt lat="-3.1564730" lon="37.2901910">
    <ele>2142.7</ele>
    <time>2026-06-20T12:15:08Z</time>
   </trkpt>
   <trkpt lat="-3.1564670" lon="37.2901920">
    <ele>2142.8</ele>
    <time>2026-06-20T12:15:09Z</time>
   </trkpt>
   <trkpt lat="-3.1564620" lon="37.2901890">
    <ele>2142.9</ele>
    <time>2026-06-20T12:15:10Z</time>
   </trkpt>
   <trkpt lat="-3.1564560" lon="37.2901880">
    <ele>2142.9</ele>
    <time>2026-06-20T12:15:11Z</time>
   </trkpt>
   <trkpt lat="-3.1564550" lon="37.2901890">
    <ele>2143.0</ele>
    <time>2026-06-20T12:15:12Z</time>
   </trkpt>
   <trkpt lat="-3.1564580" lon="37.2901830">
    <ele>2143.0</ele>
    <time>2026-06-20T12:15:13Z</time>
   </trkpt>
   <trkpt lat="-3.1564520" lon="37.2901810">
    <ele>2143.1</ele>
    <time>2026-06-20T12:15:14Z</time>
   </trkpt>
   <trkpt lat="-3.1564520" lon="37.2901780">
    <ele>2143.2</ele>
    <time>2026-06-20T12:15:15Z</time>
   </trkpt>
   <trkpt lat="-3.1564440" lon="37.2901800">
    <ele>2143.3</ele>
    <time>2026-06-20T12:15:16Z</time>
   </trkpt>
   <trkpt lat="-3.1564400" lon="37.2901750">
    <ele>2143.4</ele>
    <time>2026-06-20T12:15:17Z</time>
   </trkpt>
   <trkpt lat="-3.1564400" lon="37.2901710">
    <ele>2143.4</ele>
    <time>2026-06-20T12:15:18Z</time>
   </trkpt>
   <trkpt lat="-3.1564310" lon="37.2901720">
    <ele>2143.6</ele>
    <time>2026-06-20T12:15:19Z</time>
   </trkpt>
   <trkpt lat="-3.1564270" lon="37.2901710">
    <ele>2143.6</ele>
    <time>2026-06-20T12:15:20Z</time>
   </trkpt>
   <trkpt lat="-3.1564180" lon="37.2901720">
    <ele>2143.7</ele>
    <time>2026-06-20T12:15:21Z</time>
   </trkpt>
   <trkpt lat="-3.1564140" lon="37.2901760">
    <ele>2143.8</ele>
    <time>2026-06-20T12:15:22Z</time>
   </trkpt>
   <trkpt lat="-3.1564110" lon="37.2901730">
    <ele>2143.9</ele>
    <time>2026-06-20T12:15:23Z</time>
   </trkpt>
   <trkpt lat="-3.1564030" lon="37.2901740">
    <ele>2144.0</ele>
    <time>2026-06-20T12:15:24Z</time>
   </trkpt>
   <trkpt lat="-3.1563950" lon="37.2901740">
    <ele>2144.1</ele>
    <time>2026-06-20T12:15:25Z</time>
   </trkpt>
   <trkpt lat="-3.1563890" lon="37.2901720">
    <ele>2144.2</ele>
    <time>2026-06-20T12:15:26Z</time>
   </trkpt>
   <trkpt lat="-3.1563840" lon="37.2901730">
    <ele>2144.2</ele>
    <time>2026-06-20T12:15:27Z</time>
   </trkpt>
   <trkpt lat="-3.1563790" lon="37.2901720">
    <ele>2144.3</ele>
    <time>2026-06-20T12:15:28Z</time>
   </trkpt>
   <trkpt lat="-3.1563740" lon="37.2901710">
    <ele>2144.4</ele>
    <time>2026-06-20T12:15:29Z</time>
   </trkpt>
   <trkpt lat="-3.1563710" lon="37.2901670">
    <ele>2144.4</ele>
    <time>2026-06-20T12:15:30Z</time>
   </trkpt>
   <trkpt lat="-3.1563600" lon="37.2901660">
    <ele>2144.6</ele>
    <time>2026-06-20T12:15:31Z</time>
   </trkpt>
   <trkpt lat="-3.1563650" lon="37.2901640">
    <ele>2144.7</ele>
    <time>2026-06-20T12:15:32Z</time>
   </trkpt>
   <trkpt lat="-3.1563660" lon="37.2901680">
    <ele>2144.7</ele>
    <time>2026-06-20T12:15:33Z</time>
   </trkpt>
   <trkpt lat="-3.1563570" lon="37.2901660">
    <ele>2144.9</ele>
    <time>2026-06-20T12:15:34Z</time>
   </trkpt>
   <trkpt lat="-3.1563570" lon="37.2901650">
    <ele>2144.9</ele>
    <time>2026-06-20T12:15:35Z</time>
   </trkpt>
   <trkpt lat="-3.1563540" lon="37.2901640">
    <ele>2144.9</ele>
    <time>2026-06-20T12:15:36Z</time>
   </trkpt>
   <trkpt lat="-3.1563500" lon="37.2901630">
    <ele>2145.0</ele>
    <time>2026-06-20T12:15:37Z</time>
   </trkpt>
   <trkpt lat="-3.1563430" lon="37.2901600">
    <ele>2145.1</ele>
    <time>2026-06-20T12:15:38Z</time>
   </trkpt>
   <trkpt lat="-3.1563380" lon="37.2901580">
    <ele>2145.1</ele>
    <time>2026-06-20T12:15:39Z</time>
   </trkpt>
   <trkpt lat="-3.1563340" lon="37.2901600">
    <ele>2145.2</ele>
    <time>2026-06-20T12:15:40Z</time>
   </trkpt>
   <trkpt lat="-3.1563330" lon="37.2901610">
    <ele>2145.2</ele>
    <time>2026-06-20T12:15:41Z</time>
   </trkpt>
   <trkpt lat="-3.1563270" lon="37.2901590">
    <ele>2145.3</ele>
    <time>2026-06-20T12:15:42Z</time>
   </trkpt>
   <trkpt lat="-3.1563200" lon="37.2901570">
    <ele>2145.4</ele>
    <time>2026-06-20T12:15:43Z</time>
   </trkpt>
   <trkpt lat="-3.1563130" lon="37.2901550">
    <ele>2145.5</ele>
    <time>2026-06-20T12:15:44Z</time>
   </trkpt>
   <trkpt lat="-3.1563050" lon="37.2901520">
    <ele>2145.6</ele>
    <time>2026-06-20T12:15:45Z</time>
   </trkpt>
   <trkpt lat="-3.1562980" lon="37.2901560">
    <ele>2145.7</ele>
    <time>2026-06-20T12:15:46Z</time>
   </trkpt>
   <trkpt lat="-3.1562930" lon="37.2901610">
    <ele>2145.8</ele>
    <time>2026-06-20T12:15:47Z</time>
   </trkpt>
   <trkpt lat="-3.1562870" lon="37.2901620">
    <ele>2145.9</ele>
    <time>2026-06-20T12:15:48Z</time>
   </trkpt>
   <trkpt lat="-3.1562780" lon="37.2901600">
    <ele>2146.0</ele>
    <time>2026-06-20T12:15:49Z</time>
   </trkpt>
   <trkpt lat="-3.1562760" lon="37.2901590">
    <ele>2146.0</ele>
    <time>2026-06-20T12:15:50Z</time>
   </trkpt>
   <trkpt lat="-3.1562720" lon="37.2901510">
    <ele>2146.1</ele>
    <time>2026-06-20T12:15:51Z</time>
   </trkpt>
   <trkpt lat="-3.1562610" lon="37.2901510">
    <ele>2146.3</ele>
    <time>2026-06-20T12:15:52Z</time>
   </trkpt>
   <trkpt lat="-3.1562590" lon="37.2901530">
    <ele>2146.3</ele>
    <time>2026-06-20T12:15:53Z</time>
   </trkpt>
   <trkpt lat="-3.1562580" lon="37.2901550">
    <ele>2146.3</ele>
    <time>2026-06-20T12:15:54Z</time>
   </trkpt>
   <trkpt lat="-3.1562570" lon="37.2901550">
    <ele>2146.4</ele>
    <time>2026-06-20T12:15:55Z</time>
   </trkpt>
   <trkpt lat="-3.1562540" lon="37.2901530">
    <ele>2146.4</ele>
    <time>2026-06-20T12:15:56Z</time>
   </trkpt>
   <trkpt lat="-3.1562510" lon="37.2901520">
    <ele>2146.4</ele>
    <time>2026-06-20T12:15:57Z</time>
   </trkpt>
   <trkpt lat="-3.1562480" lon="37.2901520">
    <ele>2146.5</ele>
    <time>2026-06-20T12:15:58Z</time>
   </trkpt>
   <trkpt lat="-3.1562420" lon="37.2901540">
    <ele>2146.5</ele>
    <time>2026-06-20T12:15:59Z</time>
   </trkpt>
   <trkpt lat="-3.1562390" lon="37.2901540">
    <ele>2146.6</ele>
    <time>2026-06-20T12:16:00Z</time>
   </trkpt>
   <trkpt lat="-3.1562320" lon="37.2901540">
    <ele>2146.7</ele>
    <time>2026-06-20T12:16:01Z</time>
   </trkpt>
   <trkpt lat="-3.1562270" lon="37.2901550">
    <ele>2146.7</ele>
    <time>2026-06-20T12:16:02Z</time>
   </trkpt>
   <trkpt lat="-3.1562220" lon="37.2901520">
    <ele>2146.8</ele>
    <time>2026-06-20T12:16:03Z</time>
   </trkpt>
   <trkpt lat="-3.1562210" lon="37.2901490">
    <ele>2146.8</ele>
    <time>2026-06-20T12:16:04Z</time>
   </trkpt>
   <trkpt lat="-3.1562150" lon="37.2901490">
    <ele>2146.9</ele>
    <time>2026-06-20T12:16:05Z</time>
   </trkpt>
   <trkpt lat="-3.1562160" lon="37.2901420">
    <ele>2147.0</ele>
    <time>2026-06-20T12:16:06Z</time>
   </trkpt>
   <trkpt lat="-3.1562090" lon="37.2901440">
    <ele>2147.1</ele>
    <time>2026-06-20T12:16:07Z</time>
   </trkpt>
   <trkpt lat="-3.1562020" lon="37.2901430">
    <ele>2147.1</ele>
    <time>2026-06-20T12:16:08Z</time>
   </trkpt>
   <trkpt lat="-3.1561930" lon="37.2901400">
    <ele>2147.2</ele>
    <time>2026-06-20T12:16:09Z</time>
   </trkpt>
   <trkpt lat="-3.1561890" lon="37.2901390">
    <ele>2147.3</ele>
    <time>2026-06-20T12:16:10Z</time>
   </trkpt>
   <trkpt lat="-3.1561800" lon="37.2901370">
    <ele>2147.4</ele>
    <time>2026-06-20T12:16:11Z</time>
   </trkpt>
   <trkpt lat="-3.1561780" lon="37.2901370">
    <ele>2147.4</ele>
    <time>2026-06-20T12:16:12Z</time>
   </trkpt>
   <trkpt lat="-3.1561740" lon="37.2901340">
    <ele>2147.4</ele>
    <time>2026-06-20T12:16:13Z</time>
   </trkpt>
   <trkpt lat="-3.1561700" lon="37.2901340">
    <ele>2147.5</ele>
    <time>2026-06-20T12:16:14Z</time>
   </trkpt>
   <trkpt lat="-3.1561660" lon="37.2901300">
    <ele>2147.5</ele>
    <time>2026-06-20T12:16:15Z</time>
   </trkpt>
   <trkpt lat="-3.1561480" lon="37.2901430">
    <ele>2147.8</ele>
    <time>2026-06-20T12:16:16Z</time>
   </trkpt>
   <trkpt lat="-3.1561490" lon="37.2901420">
    <ele>2147.8</ele>
    <time>2026-06-20T12:16:17Z</time>
   </trkpt>
   <trkpt lat="-3.1561420" lon="37.2901430">
    <ele>2147.8</ele>
    <time>2026-06-20T12:16:18Z</time>
   </trkpt>
   <trkpt lat="-3.1561310" lon="37.2901480">
    <ele>2147.9</ele>
    <time>2026-06-20T12:16:19Z</time>
   </trkpt>
   <trkpt lat="-3.1561240" lon="37.2901470">
    <ele>2148.0</ele>
    <time>2026-06-20T12:16:20Z</time>
   </trkpt>
   <trkpt lat="-3.1561130" lon="37.2901490">
    <ele>2148.1</ele>
    <time>2026-06-20T12:16:22Z</time>
   </trkpt>
   <trkpt lat="-3.1561000" lon="37.2901530">
    <ele>2148.3</ele>
    <time>2026-06-20T12:16:23Z</time>
   </trkpt>
   <trkpt lat="-3.1560910" lon="37.2901530">
    <ele>2148.3</ele>
    <time>2026-06-20T12:16:24Z</time>
   </trkpt>
   <trkpt lat="-3.1560840" lon="37.2901520">
    <ele>2148.4</ele>
    <time>2026-06-20T12:16:25Z</time>
   </trkpt>
   <trkpt lat="-3.1560810" lon="37.2901510">
    <ele>2148.4</ele>
    <time>2026-06-20T12:16:26Z</time>
   </trkpt>
   <trkpt lat="-3.1560670" lon="37.2901470">
    <ele>2148.6</ele>
    <time>2026-06-20T12:16:27Z</time>
   </trkpt>
   <trkpt lat="-3.1560560" lon="37.2901460">
    <ele>2148.7</ele>
    <time>2026-06-20T12:16:28Z</time>
   </trkpt>
   <trkpt lat="-3.1560490" lon="37.2901470">
    <ele>2148.8</ele>
    <time>2026-06-20T12:16:29Z</time>
   </trkpt>
   <trkpt lat="-3.1560450" lon="37.2901490">
    <ele>2148.8</ele>
    <time>2026-06-20T12:16:30Z</time>
   </trkpt>
   <trkpt lat="-3.1560350" lon="37.2901490">
    <ele>2148.9</ele>
    <time>2026-06-20T12:16:31Z</time>
   </trkpt>
   <trkpt lat="-3.1560240" lon="37.2901490">
    <ele>2149.0</ele>
    <time>2026-06-20T12:16:32Z</time>
   </trkpt>
   <trkpt lat="-3.1560200" lon="37.2901470">
    <ele>2149.0</ele>
    <time>2026-06-20T12:16:33Z</time>
   </trkpt>
   <trkpt lat="-3.1560110" lon="37.2901480">
    <ele>2149.1</ele>
    <time>2026-06-20T12:16:34Z</time>
   </trkpt>
   <trkpt lat="-3.1560050" lon="37.2901450">
    <ele>2149.2</ele>
    <time>2026-06-20T12:16:35Z</time>
   </trkpt>
   <trkpt lat="-3.1560000" lon="37.2901420">
    <ele>2149.3</ele>
    <time>2026-06-20T12:16:36Z</time>
   </trkpt>
   <trkpt lat="-3.1559920" lon="37.2901390">
    <ele>2149.3</ele>
    <time>2026-06-20T12:16:37Z</time>
   </trkpt>
   <trkpt lat="-3.1559880" lon="37.2901360">
    <ele>2149.4</ele>
    <time>2026-06-20T12:16:38Z</time>
   </trkpt>
   <trkpt lat="-3.1559830" lon="37.2901320">
    <ele>2149.5</ele>
    <time>2026-06-20T12:16:39Z</time>
   </trkpt>
   <trkpt lat="-3.1559770" lon="37.2901290">
    <ele>2149.5</ele>
    <time>2026-06-20T12:16:40Z</time>
   </trkpt>
   <trkpt lat="-3.1559690" lon="37.2901290">
    <ele>2149.6</ele>
    <time>2026-06-20T12:16:41Z</time>
   </trkpt>
   <trkpt lat="-3.1559630" lon="37.2901260">
    <ele>2149.7</ele>
    <time>2026-06-20T12:16:42Z</time>
   </trkpt>
   <trkpt lat="-3.1559600" lon="37.2901260">
    <ele>2149.7</ele>
    <time>2026-06-20T12:16:43Z</time>
   </trkpt>
   <trkpt lat="-3.1559520" lon="37.2901230">
    <ele>2149.8</ele>
    <time>2026-06-20T12:16:44Z</time>
   </trkpt>
   <trkpt lat="-3.1559420" lon="37.2901210">
    <ele>2149.9</ele>
    <time>2026-06-20T12:16:45Z</time>
   </trkpt>
   <trkpt lat="-3.1559350" lon="37.2901160">
    <ele>2150.0</ele>
    <time>2026-06-20T12:16:46Z</time>
   </trkpt>
   <trkpt lat="-3.1559310" lon="37.2901140">
    <ele>2150.0</ele>
    <time>2026-06-20T12:16:47Z</time>
   </trkpt>
   <trkpt lat="-3.1559210" lon="37.2901110">
    <ele>2150.2</ele>
    <time>2026-06-20T12:16:48Z</time>
   </trkpt>
   <trkpt lat="-3.1559140" lon="37.2901100">
    <ele>2150.2</ele>
    <time>2026-06-20T12:16:49Z</time>
   </trkpt>
   <trkpt lat="-3.1559050" lon="37.2901090">
    <ele>2150.3</ele>
    <time>2026-06-20T12:16:50Z</time>
   </trkpt>
   <trkpt lat="-3.1558970" lon="37.2901070">
    <ele>2150.4</ele>
    <time>2026-06-20T12:16:51Z</time>
   </trkpt>
   <trkpt lat="-3.1558950" lon="37.2901010">
    <ele>2150.5</ele>
    <time>2026-06-20T12:16:52Z</time>
   </trkpt>
   <trkpt lat="-3.1558910" lon="37.2900940">
    <ele>2150.6</ele>
    <time>2026-06-20T12:16:53Z</time>
   </trkpt>
   <trkpt lat="-3.1558830" lon="37.2900910">
    <ele>2150.7</ele>
    <time>2026-06-20T12:16:54Z</time>
   </trkpt>
   <trkpt lat="-3.1558730" lon="37.2900920">
    <ele>2150.8</ele>
    <time>2026-06-20T12:16:55Z</time>
   </trkpt>
   <trkpt lat="-3.1558660" lon="37.2900920">
    <ele>2150.9</ele>
    <time>2026-06-20T12:16:56Z</time>
   </trkpt>
   <trkpt lat="-3.1558540" lon="37.2900880">
    <ele>2151.0</ele>
    <time>2026-06-20T12:16:57Z</time>
   </trkpt>
   <trkpt lat="-3.1558490" lon="37.2900840">
    <ele>2151.1</ele>
    <time>2026-06-20T12:16:58Z</time>
   </trkpt>
   <trkpt lat="-3.1558470" lon="37.2900810">
    <ele>2151.1</ele>
    <time>2026-06-20T12:16:59Z</time>
   </trkpt>
   <trkpt lat="-3.1558370" lon="37.2900800">
    <ele>2151.2</ele>
    <time>2026-06-20T12:17:00Z</time>
   </trkpt>
   <trkpt lat="-3.1558310" lon="37.2900740">
    <ele>2151.3</ele>
    <time>2026-06-20T12:17:01Z</time>
   </trkpt>
   <trkpt lat="-3.1558270" lon="37.2900690">
    <ele>2151.4</ele>
    <time>2026-06-20T12:17:02Z</time>
   </trkpt>
   <trkpt lat="-3.1558190" lon="37.2900690">
    <ele>2151.5</ele>
    <time>2026-06-20T12:17:03Z</time>
   </trkpt>
   <trkpt lat="-3.1558120" lon="37.2900730">
    <ele>2151.6</ele>
    <time>2026-06-20T12:17:04Z</time>
   </trkpt>
   <trkpt lat="-3.1558060" lon="37.2900680">
    <ele>2151.7</ele>
    <time>2026-06-20T12:17:05Z</time>
   </trkpt>
   <trkpt lat="-3.1558020" lon="37.2900670">
    <ele>2151.7</ele>
    <time>2026-06-20T12:17:06Z</time>
   </trkpt>
   <trkpt lat="-3.1557990" lon="37.2900670">
    <ele>2151.8</ele>
    <time>2026-06-20T12:17:07Z</time>
   </trkpt>
   <trkpt lat="-3.1557930" lon="37.2900670">
    <ele>2151.8</ele>
    <time>2026-06-20T12:17:08Z</time>
   </trkpt>
   <trkpt lat="-3.1557860" lon="37.2900580">
    <ele>2152.0</ele>
    <time>2026-06-20T12:17:09Z</time>
   </trkpt>
   <trkpt lat="-3.1557780" lon="37.2900560">
    <ele>2152.1</ele>
    <time>2026-06-20T12:17:10Z</time>
   </trkpt>
   <trkpt lat="-3.1557710" lon="37.2900520">
    <ele>2152.2</ele>
    <time>2026-06-20T12:17:11Z</time>
   </trkpt>
   <trkpt lat="-3.1557610" lon="37.2900470">
    <ele>2152.3</ele>
    <time>2026-06-20T12:17:12Z</time>
   </trkpt>
   <trkpt lat="-3.1557480" lon="37.2900420">
    <ele>2152.5</ele>
    <time>2026-06-20T12:17:13Z</time>
   </trkpt>
   <trkpt lat="-3.1557360" lon="37.2900420">
    <ele>2152.6</ele>
    <time>2026-06-20T12:17:14Z</time>
   </trkpt>
   <trkpt lat="-3.1557240" lon="37.2900340">
    <ele>2152.8</ele>
    <time>2026-06-20T12:17:15Z</time>
   </trkpt>
   <trkpt lat="-3.1557240" lon="37.2900340">
    <ele>2152.8</ele>
    <time>2026-06-20T12:17:16Z</time>
   </trkpt>
   <trkpt lat="-3.1557220" lon="37.2900350">
    <ele>2152.8</ele>
    <time>2026-06-20T12:17:17Z</time>
   </trkpt>
   <trkpt lat="-3.1557210" lon="37.2900360">
    <ele>2152.8</ele>
    <time>2026-06-20T12:17:18Z</time>
   </trkpt>
   <trkpt lat="-3.1557130" lon="37.2900330">
    <ele>2152.9</ele>
    <time>2026-06-20T12:17:19Z</time>
   </trkpt>
   <trkpt lat="-3.1557080" lon="37.2900330">
    <ele>2153.0</ele>
    <time>2026-06-20T12:17:20Z</time>
   </trkpt>
   <trkpt lat="-3.1557040" lon="37.2900360">
    <ele>2153.0</ele>
    <time>2026-06-20T12:17:21Z</time>
   </trkpt>
   <trkpt lat="-3.1556970" lon="37.2900400">
    <ele>2153.1</ele>
    <time>2026-06-20T12:17:22Z</time>
   </trkpt>
   <trkpt lat="-3.1556950" lon="37.2900450">
    <ele>2153.2</ele>
    <time>2026-06-20T12:17:23Z</time>
   </trkpt>
   <trkpt lat="-3.1556890" lon="37.2900470">
    <ele>2153.3</ele>
    <time>2026-06-20T12:17:24Z</time>
   </trkpt>
   <trkpt lat="-3.1556840" lon="37.2900470">
    <ele>2153.3</ele>
    <time>2026-06-20T12:17:25Z</time>
   </trkpt>
   <trkpt lat="-3.1556800" lon="37.2900450">
    <ele>2153.4</ele>
    <time>2026-06-20T12:17:26Z</time>
   </trkpt>
   <trkpt lat="-3.1556740" lon="37.2900450">
    <ele>2153.4</ele>
    <time>2026-06-20T12:17:27Z</time>
   </trkpt>
   <trkpt lat="-3.1556710" lon="37.2900470">
    <ele>2153.5</ele>
    <time>2026-06-20T12:17:28Z</time>
   </trkpt>
   <trkpt lat="-3.1556600" lon="37.2900450">
    <ele>2153.6</ele>
    <time>2026-06-20T12:17:29Z</time>
   </trkpt>
   <trkpt lat="-3.1556510" lon="37.2900500">
    <ele>2153.7</ele>
    <time>2026-06-20T12:17:30Z</time>
   </trkpt>
   <trkpt lat="-3.1556470" lon="37.2900420">
    <ele>2153.9</ele>
    <time>2026-06-20T12:17:31Z</time>
   </trkpt>
   <trkpt lat="-3.1556390" lon="37.2900420">
    <ele>2153.9</ele>
    <time>2026-06-20T12:17:32Z</time>
   </trkpt>
   <trkpt lat="-3.1556400" lon="37.2900440">
    <ele>2154.0</ele>
    <time>2026-06-20T12:17:33Z</time>
   </trkpt>
   <trkpt lat="-3.1556350" lon="37.2900450">
    <ele>2154.0</ele>
    <time>2026-06-20T12:17:34Z</time>
   </trkpt>
   <trkpt lat="-3.1556270" lon="37.2900440">
    <ele>2154.1</ele>
    <time>2026-06-20T12:17:35Z</time>
   </trkpt>
   <trkpt lat="-3.1556180" lon="37.2900390">
    <ele>2154.3</ele>
    <time>2026-06-20T12:17:36Z</time>
   </trkpt>
   <trkpt lat="-3.1556120" lon="37.2900390">
    <ele>2154.3</ele>
    <time>2026-06-20T12:17:37Z</time>
   </trkpt>
   <trkpt lat="-3.1556020" lon="37.2900400">
    <ele>2154.5</ele>
    <time>2026-06-20T12:17:38Z</time>
   </trkpt>
   <trkpt lat="-3.1555980" lon="37.2900370">
    <ele>2154.5</ele>
    <time>2026-06-20T12:17:39Z</time>
   </trkpt>
   <trkpt lat="-3.1555940" lon="37.2900390">
    <ele>2154.6</ele>
    <time>2026-06-20T12:17:40Z</time>
   </trkpt>
   <trkpt lat="-3.1555850" lon="37.2900430">
    <ele>2154.7</ele>
    <time>2026-06-20T12:17:41Z</time>
   </trkpt>
   <trkpt lat="-3.1555800" lon="37.2900400">
    <ele>2154.8</ele>
    <time>2026-06-20T12:17:42Z</time>
   </trkpt>
   <trkpt lat="-3.1555750" lon="37.2900390">
    <ele>2154.8</ele>
    <time>2026-06-20T12:17:43Z</time>
   </trkpt>
   <trkpt lat="-3.1555700" lon="37.2900370">
    <ele>2154.9</ele>
    <time>2026-06-20T12:17:44Z</time>
   </trkpt>
   <trkpt lat="-3.1555620" lon="37.2900370">
    <ele>2155.0</ele>
    <time>2026-06-20T12:17:45Z</time>
   </trkpt>
   <trkpt lat="-3.1555580" lon="37.2900340">
    <ele>2155.1</ele>
    <time>2026-06-20T12:17:46Z</time>
   </trkpt>
   <trkpt lat="-3.1555490" lon="37.2900310">
    <ele>2155.2</ele>
    <time>2026-06-20T12:17:47Z</time>
   </trkpt>
   <trkpt lat="-3.1555400" lon="37.2900340">
    <ele>2155.3</ele>
    <time>2026-06-20T12:17:48Z</time>
   </trkpt>
   <trkpt lat="-3.1555370" lon="37.2900340">
    <ele>2155.4</ele>
    <time>2026-06-20T12:17:49Z</time>
   </trkpt>
   <trkpt lat="-3.1555320" lon="37.2900350">
    <ele>2155.4</ele>
    <time>2026-06-20T12:17:50Z</time>
   </trkpt>
   <trkpt lat="-3.1555290" lon="37.2900350">
    <ele>2155.5</ele>
    <time>2026-06-20T12:17:51Z</time>
   </trkpt>
   <trkpt lat="-3.1555250" lon="37.2900360">
    <ele>2155.5</ele>
    <time>2026-06-20T12:17:52Z</time>
   </trkpt>
   <trkpt lat="-3.1555200" lon="37.2900350">
    <ele>2155.6</ele>
    <time>2026-06-20T12:17:53Z</time>
   </trkpt>
   <trkpt lat="-3.1555160" lon="37.2900370">
    <ele>2155.7</ele>
    <time>2026-06-20T12:17:54Z</time>
   </trkpt>
   <trkpt lat="-3.1555130" lon="37.2900330">
    <ele>2155.7</ele>
    <time>2026-06-20T12:17:55Z</time>
   </trkpt>
   <trkpt lat="-3.1555100" lon="37.2900340">
    <ele>2155.8</ele>
    <time>2026-06-20T12:17:56Z</time>
   </trkpt>
   <trkpt lat="-3.1555120" lon="37.2900330">
    <ele>2155.8</ele>
    <time>2026-06-20T12:17:57Z</time>
   </trkpt>
   <trkpt lat="-3.1555060" lon="37.2900360">
    <ele>2155.9</ele>
    <time>2026-06-20T12:17:58Z</time>
   </trkpt>
   <trkpt lat="-3.1555020" lon="37.2900380">
    <ele>2155.9</ele>
    <time>2026-06-20T12:17:59Z</time>
   </trkpt>
   <trkpt lat="-3.1554970" lon="37.2900340">
    <ele>2156.0</ele>
    <time>2026-06-20T12:18:00Z</time>
   </trkpt>
   <trkpt lat="-3.1554880" lon="37.2900340">
    <ele>2156.1</ele>
    <time>2026-06-20T12:18:01Z</time>
   </trkpt>
   <trkpt lat="-3.1554800" lon="37.2900300">
    <ele>2156.3</ele>
    <time>2026-06-20T12:18:02Z</time>
   </trkpt>
   <trkpt lat="-3.1554710" lon="37.2900260">
    <ele>2156.4</ele>
    <time>2026-06-20T12:18:03Z</time>
   </trkpt>
   <trkpt lat="-3.1554650" lon="37.2900260">
    <ele>2156.5</ele>
    <time>2026-06-20T12:18:04Z</time>
   </trkpt>
   <trkpt lat="-3.1554600" lon="37.2900260">
    <ele>2156.6</ele>
    <time>2026-06-20T12:18:05Z</time>
   </trkpt>
   <trkpt lat="-3.1554550" lon="37.2900260">
    <ele>2156.6</ele>
    <time>2026-06-20T12:18:06Z</time>
   </trkpt>
   <trkpt lat="-3.1554510" lon="37.2900210">
    <ele>2156.7</ele>
    <time>2026-06-20T12:18:07Z</time>
   </trkpt>
   <trkpt lat="-3.1554370" lon="37.2900200">
    <ele>2156.9</ele>
    <time>2026-06-20T12:18:08Z</time>
   </trkpt>
   <trkpt lat="-3.1554380" lon="37.2900120">
    <ele>2157.0</ele>
    <time>2026-06-20T12:18:09Z</time>
   </trkpt>
   <trkpt lat="-3.1554320" lon="37.2900150">
    <ele>2157.1</ele>
    <time>2026-06-20T12:18:10Z</time>
   </trkpt>
   <trkpt lat="-3.1554300" lon="37.2900170">
    <ele>2157.2</ele>
    <time>2026-06-20T12:18:11Z</time>
   </trkpt>
   <trkpt lat="-3.1554250" lon="37.2900150">
    <ele>2157.2</ele>
    <time>2026-06-20T12:18:12Z</time>
   </trkpt>
   <trkpt lat="-3.1554190" lon="37.2900130">
    <ele>2157.3</ele>
    <time>2026-06-20T12:18:13Z</time>
   </trkpt>
   <trkpt lat="-3.1554070" lon="37.2900140">
    <ele>2157.5</ele>
    <time>2026-06-20T12:18:14Z</time>
   </trkpt>
   <trkpt lat="-3.1553960" lon="37.2900090">
    <ele>2157.7</ele>
    <time>2026-06-20T12:18:15Z</time>
   </trkpt>
   <trkpt lat="-3.1553870" lon="37.2900080">
    <ele>2157.8</ele>
    <time>2026-06-20T12:18:16Z</time>
   </trkpt>
   <trkpt lat="-3.1553800" lon="37.2900080">
    <ele>2157.9</ele>
    <time>2026-06-20T12:18:17Z</time>
   </trkpt>
   <trkpt lat="-3.1553710" lon="37.2900040">
    <ele>2158.0</ele>
    <time>2026-06-20T12:18:18Z</time>
   </trkpt>
   <trkpt lat="-3.1553650" lon="37.2900020">
    <ele>2158.1</ele>
    <time>2026-06-20T12:18:19Z</time>
   </trkpt>
   <trkpt lat="-3.1553620" lon="37.2900020">
    <ele>2158.2</ele>
    <time>2026-06-20T12:18:20Z</time>
   </trkpt>
   <trkpt lat="-3.1553610" lon="37.2900000">
    <ele>2158.2</ele>
    <time>2026-06-20T12:18:21Z</time>
   </trkpt>
   <trkpt lat="-3.1553580" lon="37.2899970">
    <ele>2158.3</ele>
    <time>2026-06-20T12:18:22Z</time>
   </trkpt>
   <trkpt lat="-3.1553580" lon="37.2899940">
    <ele>2158.3</ele>
    <time>2026-06-20T12:18:23Z</time>
   </trkpt>
   <trkpt lat="-3.1553550" lon="37.2899940">
    <ele>2158.4</ele>
    <time>2026-06-20T12:18:24Z</time>
   </trkpt>
   <trkpt lat="-3.1553520" lon="37.2899900">
    <ele>2158.4</ele>
    <time>2026-06-20T12:18:25Z</time>
   </trkpt>
   <trkpt lat="-3.1553450" lon="37.2899930">
    <ele>2158.6</ele>
    <time>2026-06-20T12:18:26Z</time>
   </trkpt>
   <trkpt lat="-3.1553390" lon="37.2899940">
    <ele>2158.6</ele>
    <time>2026-06-20T12:18:27Z</time>
   </trkpt>
   <trkpt lat="-3.1553310" lon="37.2899960">
    <ele>2158.8</ele>
    <time>2026-06-20T12:18:28Z</time>
   </trkpt>
   <trkpt lat="-3.1553250" lon="37.2899920">
    <ele>2158.9</ele>
    <time>2026-06-20T12:18:29Z</time>
   </trkpt>
   <trkpt lat="-3.1553240" lon="37.2899910">
    <ele>2158.9</ele>
    <time>2026-06-20T12:18:30Z</time>
   </trkpt>
   <trkpt lat="-3.1553240" lon="37.2899920">
    <ele>2158.9</ele>
    <time>2026-06-20T12:18:31Z</time>
   </trkpt>
   <trkpt lat="-3.1553180" lon="37.2899910">
    <ele>2159.0</ele>
    <time>2026-06-20T12:18:32Z</time>
   </trkpt>
   <trkpt lat="-3.1553170" lon="37.2899890">
    <ele>2159.0</ele>
    <time>2026-06-20T12:18:33Z</time>
   </trkpt>
   <trkpt lat="-3.1553130" lon="37.2899900">
    <ele>2159.1</ele>
    <time>2026-06-20T12:18:34Z</time>
   </trkpt>
   <trkpt lat="-3.1553120" lon="37.2899880">
    <ele>2159.1</ele>
    <time>2026-06-20T12:18:35Z</time>
   </trkpt>
   <trkpt lat="-3.1553050" lon="37.2899880">
    <ele>2159.3</ele>
    <time>2026-06-20T12:18:36Z</time>
   </trkpt>
   <trkpt lat="-3.1553060" lon="37.2899900">
    <ele>2159.3</ele>
    <time>2026-06-20T12:18:37Z</time>
   </trkpt>
   <trkpt lat="-3.1553000" lon="37.2899890">
    <ele>2159.4</ele>
    <time>2026-06-20T12:18:38Z</time>
   </trkpt>
   <trkpt lat="-3.1552930" lon="37.2899880">
    <ele>2159.5</ele>
    <time>2026-06-20T12:18:39Z</time>
   </trkpt>
   <trkpt lat="-3.1552880" lon="37.2899880">
    <ele>2159.6</ele>
    <time>2026-06-20T12:18:40Z</time>
   </trkpt>
   <trkpt lat="-3.1552850" lon="37.2899810">
    <ele>2159.7</ele>
    <time>2026-06-20T12:18:41Z</time>
   </trkpt>
   <trkpt lat="-3.1552790" lon="37.2899780">
    <ele>2159.8</ele>
    <time>2026-06-20T12:18:42Z</time>
   </trkpt>
   <trkpt lat="-3.1552740" lon="37.2899790">
    <ele>2159.9</ele>
    <time>2026-06-20T12:18:43Z</time>
   </trkpt>
   <trkpt lat="-3.1552630" lon="37.2899860">
    <ele>2160.1</ele>
    <time>2026-06-20T12:18:44Z</time>
   </trkpt>
   <trkpt lat="-3.1552680" lon="37.2899910">
    <ele>2160.2</ele>
    <time>2026-06-20T12:18:45Z</time>
   </trkpt>
   <trkpt lat="-3.1552670" lon="37.2899920">
    <ele>2160.2</ele>
    <time>2026-06-20T12:18:46Z</time>
   </trkpt>
   <trkpt lat="-3.1552670" lon="37.2899940">
    <ele>2160.2</ele>
    <time>2026-06-20T12:18:47Z</time>
   </trkpt>
   <trkpt lat="-3.1552630" lon="37.2899970">
    <ele>2160.3</ele>
    <time>2026-06-20T12:18:48Z</time>
   </trkpt>
   <trkpt lat="-3.1552530" lon="37.2899960">
    <ele>2160.4</ele>
    <time>2026-06-20T12:18:49Z</time>
   </trkpt>
   <trkpt lat="-3.1552540" lon="37.2900000">
    <ele>2160.5</ele>
    <time>2026-06-20T12:18:50Z</time>
   </trkpt>
   <trkpt lat="-3.1552480" lon="37.2900040">
    <ele>2160.6</ele>
    <time>2026-06-20T12:18:51Z</time>
   </trkpt>
   <trkpt lat="-3.1552440" lon="37.2900070">
    <ele>2160.6</ele>
    <time>2026-06-20T12:18:52Z</time>
   </trkpt>
   <trkpt lat="-3.1552430" lon="37.2900110">
    <ele>2160.7</ele>
    <time>2026-06-20T12:18:53Z</time>
   </trkpt>
   <trkpt lat="-3.1552470" lon="37.2900130">
    <ele>2160.8</ele>
    <time>2026-06-20T12:18:54Z</time>
   </trkpt>
   <trkpt lat="-3.1552410" lon="37.2900140">
    <ele>2160.8</ele>
    <time>2026-06-20T12:18:55Z</time>
   </trkpt>
   <trkpt lat="-3.1552360" lon="37.2900200">
    <ele>2160.9</ele>
    <time>2026-06-20T12:18:56Z</time>
   </trkpt>
   <trkpt lat="-3.1552270" lon="37.2900170">
    <ele>2161.0</ele>
    <time>2026-06-20T12:18:57Z</time>
   </trkpt>
   <trkpt lat="-3.1552270" lon="37.2900070">
    <ele>2161.2</ele>
    <time>2026-06-20T12:18:58Z</time>
   </trkpt>
   <trkpt lat="-3.1552220" lon="37.2900100">
    <ele>2161.2</ele>
    <time>2026-06-20T12:18:59Z</time>
   </trkpt>
   <trkpt lat="-3.1552200" lon="37.2900100">
    <ele>2161.3</ele>
    <time>2026-06-20T12:19:00Z</time>
   </trkpt>
   <trkpt lat="-3.1552150" lon="37.2900090">
    <ele>2161.3</ele>
    <time>2026-06-20T12:19:01Z</time>
   </trkpt>
   <trkpt lat="-3.1552070" lon="37.2900140">
    <ele>2161.4</ele>
    <time>2026-06-20T12:19:02Z</time>
   </trkpt>
   <trkpt lat="-3.1552030" lon="37.2900120">
    <ele>2161.5</ele>
    <time>2026-06-20T12:19:03Z</time>
   </trkpt>
   <trkpt lat="-3.1551920" lon="37.2900130">
    <ele>2161.6</ele>
    <time>2026-06-20T12:19:04Z</time>
   </trkpt>
   <trkpt lat="-3.1551830" lon="37.2900130">
    <ele>2161.7</ele>
    <time>2026-06-20T12:19:05Z</time>
   </trkpt>
   <trkpt lat="-3.1551730" lon="37.2900160">
    <ele>2161.8</ele>
    <time>2026-06-20T12:19:06Z</time>
   </trkpt>
   <trkpt lat="-3.1551650" lon="37.2900160">
    <ele>2161.8</ele>
    <time>2026-06-20T12:19:07Z</time>
   </trkpt>
   <trkpt lat="-3.1551510" lon="37.2900150">
    <ele>2162.0</ele>
    <time>2026-06-20T12:19:08Z</time>
   </trkpt>
   <trkpt lat="-3.1551410" lon="37.2900240">
    <ele>2162.1</ele>
    <time>2026-06-20T12:19:09Z</time>
   </trkpt>
   <trkpt lat="-3.1551300" lon="37.2900250">
    <ele>2162.2</ele>
    <time>2026-06-20T12:19:10Z</time>
   </trkpt>
   <trkpt lat="-3.1551190" lon="37.2900290">
    <ele>2162.2</ele>
    <time>2026-06-20T12:19:11Z</time>
   </trkpt>
   <trkpt lat="-3.1551060" lon="37.2900340">
    <ele>2162.4</ele>
    <time>2026-06-20T12:19:12Z</time>
   </trkpt>
   <trkpt lat="-3.1550990" lon="37.2900390">
    <ele>2162.4</ele>
    <time>2026-06-20T12:19:13Z</time>
   </trkpt>
   <trkpt lat="-3.1550930" lon="37.2900420">
    <ele>2162.5</ele>
    <time>2026-06-20T12:19:14Z</time>
   </trkpt>
   <trkpt lat="-3.1550840" lon="37.2900480">
    <ele>2162.5</ele>
    <time>2026-06-20T12:19:15Z</time>
   </trkpt>
   <trkpt lat="-3.1550690" lon="37.2900540">
    <ele>2162.7</ele>
    <time>2026-06-20T12:19:16Z</time>
   </trkpt>
   <trkpt lat="-3.1550630" lon="37.2900560">
    <ele>2162.7</ele>
    <time>2026-06-20T12:19:17Z</time>
   </trkpt>
   <trkpt lat="-3.1550590" lon="37.2900500">
    <ele>2162.8</ele>
    <time>2026-06-20T12:19:18Z</time>
   </trkpt>
   <trkpt lat="-3.1550530" lon="37.2900460">
    <ele>2162.8</ele>
    <time>2026-06-20T12:19:19Z</time>
   </trkpt>
   <trkpt lat="-3.1550500" lon="37.2900480">
    <ele>2162.8</ele>
    <time>2026-06-20T12:19:20Z</time>
   </trkpt>
   <trkpt lat="-3.1550330" lon="37.2900470">
    <ele>2163.0</ele>
    <time>2026-06-20T12:19:21Z</time>
   </trkpt>
   <trkpt lat="-3.1550290" lon="37.2900480">
    <ele>2163.0</ele>
    <time>2026-06-20T12:19:22Z</time>
   </trkpt>
   <trkpt lat="-3.1550240" lon="37.2900490">
    <ele>2163.0</ele>
    <time>2026-06-20T12:19:23Z</time>
   </trkpt>
   <trkpt lat="-3.1550190" lon="37.2900490">
    <ele>2163.1</ele>
    <time>2026-06-20T12:19:24Z</time>
   </trkpt>
   <trkpt lat="-3.1550090" lon="37.2900460">
    <ele>2163.1</ele>
    <time>2026-06-20T12:19:25Z</time>
   </trkpt>
   <trkpt lat="-3.1550000" lon="37.2900460">
    <ele>2163.2</ele>
    <time>2026-06-20T12:19:26Z</time>
   </trkpt>
   <trkpt lat="-3.1549950" lon="37.2900420">
    <ele>2163.3</ele>
    <time>2026-06-20T12:19:27Z</time>
   </trkpt>
   <trkpt lat="-3.1549860" lon="37.2900400">
    <ele>2163.4</ele>
    <time>2026-06-20T12:19:28Z</time>
   </trkpt>
   <trkpt lat="-3.1549820" lon="37.2900350">
    <ele>2163.4</ele>
    <time>2026-06-20T12:19:29Z</time>
   </trkpt>
   <trkpt lat="-3.1549730" lon="37.2900350">
    <ele>2163.5</ele>
    <time>2026-06-20T12:19:30Z</time>
   </trkpt>
   <trkpt lat="-3.1549680" lon="37.2900330">
    <ele>2163.5</ele>
    <time>2026-06-20T12:19:31Z</time>
   </trkpt>
   <trkpt lat="-3.1549610" lon="37.2900310">
    <ele>2163.6</ele>
    <time>2026-06-20T12:19:32Z</time>
   </trkpt>
   <trkpt lat="-3.1549550" lon="37.2900300">
    <ele>2163.6</ele>
    <time>2026-06-20T12:19:33Z</time>
   </trkpt>
   <trkpt lat="-3.1549420" lon="37.2900260">
    <ele>2163.8</ele>
    <time>2026-06-20T12:19:34Z</time>
   </trkpt>
   <trkpt lat="-3.1549330" lon="37.2900250">
    <ele>2163.9</ele>
    <time>2026-06-20T12:19:35Z</time>
   </trkpt>
   <trkpt lat="-3.1549270" lon="37.2900210">
    <ele>2163.9</ele>
    <time>2026-06-20T12:19:36Z</time>
   </trkpt>
   <trkpt lat="-3.1549240" lon="37.2900170">
    <ele>2164.0</ele>
    <time>2026-06-20T12:19:37Z</time>
   </trkpt>
   <trkpt lat="-3.1549180" lon="37.2900150">
    <ele>2164.0</ele>
    <time>2026-06-20T12:19:38Z</time>
   </trkpt>
   <trkpt lat="-3.1549130" lon="37.2900110">
    <ele>2164.1</ele>
    <time>2026-06-20T12:19:39Z</time>
   </trkpt>
   <trkpt lat="-3.1549090" lon="37.2900090">
    <ele>2164.1</ele>
    <time>2026-06-20T12:19:40Z</time>
   </trkpt>
   <trkpt lat="-3.1549050" lon="37.2900020">
    <ele>2164.2</ele>
    <time>2026-06-20T12:19:41Z</time>
   </trkpt>
   <trkpt lat="-3.1549030" lon="37.2899820">
    <ele>2164.4</ele>
    <time>2026-06-20T12:19:42Z</time>
   </trkpt>
   <trkpt lat="-3.1548930" lon="37.2899880">
    <ele>2164.5</ele>
    <time>2026-06-20T12:19:43Z</time>
   </trkpt>
   <trkpt lat="-3.1548970" lon="37.2899910">
    <ele>2164.5</ele>
    <time>2026-06-20T12:19:44Z</time>
   </trkpt>
   <trkpt lat="-3.1548930" lon="37.2899870">
    <ele>2164.6</ele>
    <time>2026-06-20T12:19:45Z</time>
   </trkpt>
   <trkpt lat="-3.1548890" lon="37.2899850">
    <ele>2164.6</ele>
    <time>2026-06-20T12:19:46Z</time>
   </trkpt>
   <trkpt lat="-3.1548850" lon="37.2899820">
    <ele>2164.7</ele>
    <time>2026-06-20T12:19:47Z</time>
   </trkpt>
   <trkpt lat="-3.1548760" lon="37.2899810">
    <ele>2164.8</ele>
    <time>2026-06-20T12:19:48Z</time>
   </trkpt>
   <trkpt lat="-3.1548700" lon="37.2899810">
    <ele>2164.8</ele>
    <time>2026-06-20T12:19:49Z</time>
   </trkpt>
   <trkpt lat="-3.1548690" lon="37.2899800">
    <ele>2164.8</ele>
    <time>2026-06-20T12:19:50Z</time>
   </trkpt>
   <trkpt lat="-3.1548590" lon="37.2899790">
    <ele>2164.9</ele>
    <time>2026-06-20T12:19:51Z</time>
   </trkpt>
   <trkpt lat="-3.1548530" lon="37.2899840">
    <ele>2165.0</ele>
    <time>2026-06-20T12:19:52Z</time>
   </trkpt>
   <trkpt lat="-3.1548480" lon="37.2899830">
    <ele>2165.0</ele>
    <time>2026-06-20T12:19:53Z</time>
   </trkpt>
   <trkpt lat="-3.1548370" lon="37.2899860">
    <ele>2165.1</ele>
    <time>2026-06-20T12:19:54Z</time>
   </trkpt>
   <trkpt lat="-3.1548310" lon="37.2899870">
    <ele>2165.2</ele>
    <time>2026-06-20T12:19:55Z</time>
   </trkpt>
   <trkpt lat="-3.1548280" lon="37.2899790">
    <ele>2165.3</ele>
    <time>2026-06-20T12:19:56Z</time>
   </trkpt>
   <trkpt lat="-3.1548210" lon="37.2899750">
    <ele>2165.3</ele>
    <time>2026-06-20T12:19:57Z</time>
   </trkpt>
   <trkpt lat="-3.1548150" lon="37.2899690">
    <ele>2165.4</ele>
    <time>2026-06-20T12:19:58Z</time>
   </trkpt>
   <trkpt lat="-3.1548100" lon="37.2899650">
    <ele>2165.5</ele>
    <time>2026-06-20T12:19:59Z</time>
   </trkpt>
   <trkpt lat="-3.1548020" lon="37.2899640">
    <ele>2165.5</ele>
    <time>2026-06-20T12:20:00Z</time>
   </trkpt>
   <trkpt lat="-3.1547970" lon="37.2899630">
    <ele>2165.6</ele>
    <time>2026-06-20T12:20:01Z</time>
   </trkpt>
   <trkpt lat="-3.1547900" lon="37.2899600">
    <ele>2165.6</ele>
    <time>2026-06-20T12:20:02Z</time>
   </trkpt>
   <trkpt lat="-3.1547880" lon="37.2899580">
    <ele>2165.7</ele>
    <time>2026-06-20T12:20:03Z</time>
   </trkpt>
   <trkpt lat="-3.1547870" lon="37.2899540">
    <ele>2165.7</ele>
    <time>2026-06-20T12:20:04Z</time>
   </trkpt>
   <trkpt lat="-3.1547850" lon="37.2899530">
    <ele>2165.7</ele>
    <time>2026-06-20T12:20:05Z</time>
   </trkpt>
   <trkpt lat="-3.1547830" lon="37.2899470">
    <ele>2165.8</ele>
    <time>2026-06-20T12:20:06Z</time>
   </trkpt>
   <trkpt lat="-3.1547810" lon="37.2899440">
    <ele>2165.8</ele>
    <time>2026-06-20T12:20:07Z</time>
   </trkpt>
   <trkpt lat="-3.1547780" lon="37.2899430">
    <ele>2165.8</ele>
    <time>2026-06-20T12:20:08Z</time>
   </trkpt>
   <trkpt lat="-3.1547780" lon="37.2899380">
    <ele>2165.9</ele>
    <time>2026-06-20T12:20:09Z</time>
   </trkpt>
   <trkpt lat="-3.1547780" lon="37.2899300">
    <ele>2165.9</ele>
    <time>2026-06-20T12:20:10Z</time>
   </trkpt>
   <trkpt lat="-3.1547710" lon="37.2899260">
    <ele>2166.0</ele>
    <time>2026-06-20T12:20:11Z</time>
   </trkpt>
   <trkpt lat="-3.1547630" lon="37.2899220">
    <ele>2166.1</ele>
    <time>2026-06-20T12:20:12Z</time>
   </trkpt>
   <trkpt lat="-3.1547450" lon="37.2899230">
    <ele>2166.3</ele>
    <time>2026-06-20T12:20:13Z</time>
   </trkpt>
   <trkpt lat="-3.1547420" lon="37.2899180">
    <ele>2166.3</ele>
    <time>2026-06-20T12:20:14Z</time>
   </trkpt>
   <trkpt lat="-3.1547380" lon="37.2899140">
    <ele>2166.4</ele>
    <time>2026-06-20T12:20:15Z</time>
   </trkpt>
   <trkpt lat="-3.1547290" lon="37.2899110">
    <ele>2166.5</ele>
    <time>2026-06-20T12:20:16Z</time>
   </trkpt>
   <trkpt lat="-3.1547200" lon="37.2899100">
    <ele>2166.6</ele>
    <time>2026-06-20T12:20:17Z</time>
   </trkpt>
   <trkpt lat="-3.1547150" lon="37.2899050">
    <ele>2166.6</ele>
    <time>2026-06-20T12:20:18Z</time>
   </trkpt>
   <trkpt lat="-3.1547140" lon="37.2899020">
    <ele>2166.7</ele>
    <time>2026-06-20T12:20:19Z</time>
   </trkpt>
   <trkpt lat="-3.1547100" lon="37.2898990">
    <ele>2166.7</ele>
    <time>2026-06-20T12:20:20Z</time>
   </trkpt>
   <trkpt lat="-3.1547030" lon="37.2898940">
    <ele>2166.8</ele>
    <time>2026-06-20T12:20:21Z</time>
   </trkpt>
   <trkpt lat="-3.1546970" lon="37.2898910">
    <ele>2166.9</ele>
    <time>2026-06-20T12:20:22Z</time>
   </trkpt>
   <trkpt lat="-3.1546870" lon="37.2898890">
    <ele>2167.0</ele>
    <time>2026-06-20T12:20:23Z</time>
   </trkpt>
   <trkpt lat="-3.1546790" lon="37.2898890">
    <ele>2167.1</ele>
    <time>2026-06-20T12:20:24Z</time>
   </trkpt>
   <trkpt lat="-3.1546730" lon="37.2898860">
    <ele>2167.1</ele>
    <time>2026-06-20T12:20:25Z</time>
   </trkpt>
   <trkpt lat="-3.1546720" lon="37.2898830">
    <ele>2167.2</ele>
    <time>2026-06-20T12:20:26Z</time>
   </trkpt>
   <trkpt lat="-3.1546680" lon="37.2898800">
    <ele>2167.2</ele>
    <time>2026-06-20T12:20:27Z</time>
   </trkpt>
   <trkpt lat="-3.1546640" lon="37.2898770">
    <ele>2167.3</ele>
    <time>2026-06-20T12:20:28Z</time>
   </trkpt>
   <trkpt lat="-3.1546570" lon="37.2898790">
    <ele>2167.4</ele>
    <time>2026-06-20T12:20:29Z</time>
   </trkpt>
   <trkpt lat="-3.1546490" lon="37.2898750">
    <ele>2167.4</ele>
    <time>2026-06-20T12:20:30Z</time>
   </trkpt>
   <trkpt lat="-3.1546440" lon="37.2898710">
    <ele>2167.5</ele>
    <time>2026-06-20T12:20:31Z</time>
   </trkpt>
   <trkpt lat="-3.1546380" lon="37.2898690">
    <ele>2167.6</ele>
    <time>2026-06-20T12:20:32Z</time>
   </trkpt>
   <trkpt lat="-3.1546330" lon="37.2898650">
    <ele>2167.6</ele>
    <time>2026-06-20T12:20:33Z</time>
   </trkpt>
   <trkpt lat="-3.1546280" lon="37.2898630">
    <ele>2167.7</ele>
    <time>2026-06-20T12:20:34Z</time>
   </trkpt>
   <trkpt lat="-3.1546210" lon="37.2898610">
    <ele>2167.8</ele>
    <time>2026-06-20T12:20:35Z</time>
   </trkpt>
   <trkpt lat="-3.1546210" lon="37.2898590">
    <ele>2167.8</ele>
    <time>2026-06-20T12:20:36Z</time>
   </trkpt>
   <trkpt lat="-3.1546150" lon="37.2898560">
    <ele>2167.8</ele>
    <time>2026-06-20T12:20:37Z</time>
   </trkpt>
   <trkpt lat="-3.1546100" lon="37.2898500">
    <ele>2167.9</ele>
    <time>2026-06-20T12:20:38Z</time>
   </trkpt>
   <trkpt lat="-3.1546040" lon="37.2898460">
    <ele>2168.0</ele>
    <time>2026-06-20T12:20:39Z</time>
   </trkpt>
   <trkpt lat="-3.1545960" lon="37.2898400">
    <ele>2168.1</ele>
    <time>2026-06-20T12:20:40Z</time>
   </trkpt>
   <trkpt lat="-3.1545870" lon="37.2898320">
    <ele>2168.2</ele>
    <time>2026-06-20T12:20:41Z</time>
   </trkpt>
   <trkpt lat="-3.1545820" lon="37.2898330">
    <ele>2168.2</ele>
    <time>2026-06-20T12:20:42Z</time>
   </trkpt>
   <trkpt lat="-3.1545710" lon="37.2898370">
    <ele>2168.4</ele>
    <time>2026-06-20T12:20:43Z</time>
   </trkpt>
   <trkpt lat="-3.1545650" lon="37.2898410">
    <ele>2168.4</ele>
    <time>2026-06-20T12:20:44Z</time>
   </trkpt>
   <trkpt lat="-3.1545590" lon="37.2898400">
    <ele>2168.5</ele>
    <time>2026-06-20T12:20:45Z</time>
   </trkpt>
   <trkpt lat="-3.1545520" lon="37.2898370">
    <ele>2168.6</ele>
    <time>2026-06-20T12:20:46Z</time>
   </trkpt>
   <trkpt lat="-3.1545460" lon="37.2898350">
    <ele>2168.6</ele>
    <time>2026-06-20T12:20:47Z</time>
   </trkpt>
   <trkpt lat="-3.1545400" lon="37.2898390">
    <ele>2168.7</ele>
    <time>2026-06-20T12:20:48Z</time>
   </trkpt>
   <trkpt lat="-3.1545260" lon="37.2898450">
    <ele>2168.8</ele>
    <time>2026-06-20T12:20:49Z</time>
   </trkpt>
   <trkpt lat="-3.1545210" lon="37.2898450">
    <ele>2168.9</ele>
    <time>2026-06-20T12:20:50Z</time>
   </trkpt>
   <trkpt lat="-3.1545160" lon="37.2898430">
    <ele>2168.9</ele>
    <time>2026-06-20T12:20:51Z</time>
   </trkpt>
   <trkpt lat="-3.1545100" lon="37.2898420">
    <ele>2169.0</ele>
    <time>2026-06-20T12:20:52Z</time>
   </trkpt>
   <trkpt lat="-3.1545050" lon="37.2898390">
    <ele>2169.0</ele>
    <time>2026-06-20T12:20:53Z</time>
   </trkpt>
   <trkpt lat="-3.1544910" lon="37.2898400">
    <ele>2169.2</ele>
    <time>2026-06-20T12:20:54Z</time>
   </trkpt>
   <trkpt lat="-3.1544790" lon="37.2898380">
    <ele>2169.3</ele>
    <time>2026-06-20T12:20:55Z</time>
   </trkpt>
   <trkpt lat="-3.1544760" lon="37.2898290">
    <ele>2169.4</ele>
    <time>2026-06-20T12:20:56Z</time>
   </trkpt>
   <trkpt lat="-3.1544690" lon="37.2898300">
    <ele>2169.5</ele>
    <time>2026-06-20T12:20:57Z</time>
   </trkpt>
   <trkpt lat="-3.1544650" lon="37.2898300">
    <ele>2169.5</ele>
    <time>2026-06-20T12:20:58Z</time>
   </trkpt>
   <trkpt lat="-3.1544590" lon="37.2898320">
    <ele>2169.6</ele>
    <time>2026-06-20T12:20:59Z</time>
   </trkpt>
   <trkpt lat="-3.1544520" lon="37.2898330">
    <ele>2169.6</ele>
    <time>2026-06-20T12:21:00Z</time>
   </trkpt>
   <trkpt lat="-3.1544490" lon="37.2898340">
    <ele>2169.7</ele>
    <time>2026-06-20T12:21:01Z</time>
   </trkpt>
   <trkpt lat="-3.1544410" lon="37.2898340">
    <ele>2169.8</ele>
    <time>2026-06-20T12:21:02Z</time>
   </trkpt>
   <trkpt lat="-3.1544380" lon="37.2898380">
    <ele>2169.8</ele>
    <time>2026-06-20T12:21:03Z</time>
   </trkpt>
   <trkpt lat="-3.1544340" lon="37.2898380">
    <ele>2169.9</ele>
    <time>2026-06-20T12:21:04Z</time>
   </trkpt>
   <trkpt lat="-3.1544300" lon="37.2898380">
    <ele>2169.9</ele>
    <time>2026-06-20T12:21:05Z</time>
   </trkpt>
   <trkpt lat="-3.1544290" lon="37.2898330">
    <ele>2170.0</ele>
    <time>2026-06-20T12:21:06Z</time>
   </trkpt>
   <trkpt lat="-3.1544280" lon="37.2898350">
    <ele>2170.0</ele>
    <time>2026-06-20T12:21:07Z</time>
   </trkpt>
   <trkpt lat="-3.1544280" lon="37.2898340">
    <ele>2170.0</ele>
    <time>2026-06-20T12:21:08Z</time>
   </trkpt>
   <trkpt lat="-3.1544250" lon="37.2898360">
    <ele>2170.1</ele>
    <time>2026-06-20T12:21:09Z</time>
   </trkpt>
   <trkpt lat="-3.1544210" lon="37.2898390">
    <ele>2170.1</ele>
    <time>2026-06-20T12:21:10Z</time>
   </trkpt>
   <trkpt lat="-3.1544150" lon="37.2898390">
    <ele>2170.2</ele>
    <time>2026-06-20T12:21:11Z</time>
   </trkpt>
   <trkpt lat="-3.1544100" lon="37.2898410">
    <ele>2170.3</ele>
    <time>2026-06-20T12:21:12Z</time>
   </trkpt>
   <trkpt lat="-3.1544040" lon="37.2898400">
    <ele>2170.3</ele>
    <time>2026-06-20T12:21:13Z</time>
   </trkpt>
   <trkpt lat="-3.1543990" lon="37.2898420">
    <ele>2170.4</ele>
    <time>2026-06-20T12:21:14Z</time>
   </trkpt>
   <trkpt lat="-3.1543970" lon="37.2898390">
    <ele>2170.5</ele>
    <time>2026-06-20T12:21:15Z</time>
   </trkpt>
   <trkpt lat="-3.1543920" lon="37.2898370">
    <ele>2170.5</ele>
    <time>2026-06-20T12:21:16Z</time>
   </trkpt>
   <trkpt lat="-3.1543890" lon="37.2898360">
    <ele>2170.6</ele>
    <time>2026-06-20T12:21:17Z</time>
   </trkpt>
   <trkpt lat="-3.1543870" lon="37.2898370">
    <ele>2170.6</ele>
    <time>2026-06-20T12:21:18Z</time>
   </trkpt>
   <trkpt lat="-3.1543820" lon="37.2898330">
    <ele>2170.7</ele>
    <time>2026-06-20T12:21:19Z</time>
   </trkpt>
   <trkpt lat="-3.1543810" lon="37.2898290">
    <ele>2170.8</ele>
    <time>2026-06-20T12:21:20Z</time>
   </trkpt>
   <trkpt lat="-3.1543740" lon="37.2898300">
    <ele>2170.9</ele>
    <time>2026-06-20T12:21:21Z</time>
   </trkpt>
   <trkpt lat="-3.1543650" lon="37.2898310">
    <ele>2171.0</ele>
    <time>2026-06-20T12:21:22Z</time>
   </trkpt>
   <trkpt lat="-3.1543560" lon="37.2898310">
    <ele>2171.1</ele>
    <time>2026-06-20T12:21:23Z</time>
   </trkpt>
   <trkpt lat="-3.1543540" lon="37.2898280">
    <ele>2171.2</ele>
    <time>2026-06-20T12:21:24Z</time>
   </trkpt>
   <trkpt lat="-3.1543440" lon="37.2898280">
    <ele>2171.4</ele>
    <time>2026-06-20T12:21:25Z</time>
   </trkpt>
   <trkpt lat="-3.1543400" lon="37.2898270">
    <ele>2171.4</ele>
    <time>2026-06-20T12:21:26Z</time>
   </trkpt>
   <trkpt lat="-3.1543310" lon="37.2898250">
    <ele>2171.6</ele>
    <time>2026-06-20T12:21:27Z</time>
   </trkpt>
   <trkpt lat="-3.1543250" lon="37.2898210">
    <ele>2171.7</ele>
    <time>2026-06-20T12:21:28Z</time>
   </trkpt>
   <trkpt lat="-3.1543140" lon="37.2898180">
    <ele>2171.9</ele>
    <time>2026-06-20T12:21:29Z</time>
   </trkpt>
   <trkpt lat="-3.1543090" lon="37.2898180">
    <ele>2172.0</ele>
    <time>2026-06-20T12:21:30Z</time>
   </trkpt>
   <trkpt lat="-3.1543060" lon="37.2898150">
    <ele>2172.1</ele>
    <time>2026-06-20T12:21:31Z</time>
   </trkpt>
   <trkpt lat="-3.1542970" lon="37.2898180">
    <ele>2172.2</ele>
    <time>2026-06-20T12:21:32Z</time>
   </trkpt>
   <trkpt lat="-3.1542890" lon="37.2898160">
    <ele>2172.4</ele>
    <time>2026-06-20T12:21:33Z</time>
   </trkpt>
   <trkpt lat="-3.1542890" lon="37.2898140">
    <ele>2172.4</ele>
    <time>2026-06-20T12:21:34Z</time>
   </trkpt>
   <trkpt lat="-3.1542850" lon="37.2898140">
    <ele>2172.5</ele>
    <time>2026-06-20T12:21:35Z</time>
   </trkpt>
   <trkpt lat="-3.1542820" lon="37.2898130">
    <ele>2172.6</ele>
    <time>2026-06-20T12:21:36Z</time>
   </trkpt>
   <trkpt lat="-3.1542820" lon="37.2898110">
    <ele>2172.6</ele>
    <time>2026-06-20T12:21:37Z</time>
   </trkpt>
   <trkpt lat="-3.1542770" lon="37.2898100">
    <ele>2172.7</ele>
    <time>2026-06-20T12:21:38Z</time>
   </trkpt>
   <trkpt lat="-3.1542750" lon="37.2898080">
    <ele>2172.8</ele>
    <time>2026-06-20T12:21:39Z</time>
   </trkpt>
   <trkpt lat="-3.1542680" lon="37.2898050">
    <ele>2172.9</ele>
    <time>2026-06-20T12:21:40Z</time>
   </trkpt>
   <trkpt lat="-3.1542650" lon="37.2898010">
    <ele>2173.0</ele>
    <time>2026-06-20T12:21:41Z</time>
   </trkpt>
   <trkpt lat="-3.1542550" lon="37.2897980">
    <ele>2173.2</ele>
    <time>2026-06-20T12:21:42Z</time>
   </trkpt>
   <trkpt lat="-3.1542540" lon="37.2897940">
    <ele>2173.3</ele>
    <time>2026-06-20T12:21:43Z</time>
   </trkpt>
   <trkpt lat="-3.1542480" lon="37.2897960">
    <ele>2173.4</ele>
    <time>2026-06-20T12:21:44Z</time>
   </trkpt>
   <trkpt lat="-3.1542460" lon="37.2897960">
    <ele>2173.5</ele>
    <time>2026-06-20T12:21:45Z</time>
   </trkpt>
   <trkpt lat="-3.1542380" lon="37.2897930">
    <ele>2173.6</ele>
    <time>2026-06-20T12:21:46Z</time>
   </trkpt>
   <trkpt lat="-3.1542390" lon="37.2897960">
    <ele>2173.7</ele>
    <time>2026-06-20T12:21:47Z</time>
   </trkpt>
   <trkpt lat="-3.1542340" lon="37.2897950">
    <ele>2173.8</ele>
    <time>2026-06-20T12:21:48Z</time>
   </trkpt>
   <trkpt lat="-3.1542330" lon="37.2897950">
    <ele>2173.8</ele>
    <time>2026-06-20T12:21:49Z</time>
   </trkpt>
   <trkpt lat="-3.1542380" lon="37.2897920">
    <ele>2173.9</ele>
    <time>2026-06-20T12:21:50Z</time>
   </trkpt>
   <trkpt lat="-3.1542340" lon="37.2897910">
    <ele>2174.0</ele>
    <time>2026-06-20T12:21:51Z</time>
   </trkpt>
   <trkpt lat="-3.1542280" lon="37.2897890">
    <ele>2174.1</ele>
    <time>2026-06-20T12:21:52Z</time>
   </trkpt>
   <trkpt lat="-3.1542220" lon="37.2897940">
    <ele>2174.3</ele>
    <time>2026-06-20T12:21:53Z</time>
   </trkpt>
   <trkpt lat="-3.1542180" lon="37.2897890">
    <ele>2174.4</ele>
    <time>2026-06-20T12:21:54Z</time>
   </trkpt>
   <trkpt lat="-3.1542220" lon="37.2897870">
    <ele>2174.5</ele>
    <time>2026-06-20T12:21:55Z</time>
   </trkpt>
   <trkpt lat="-3.1542210" lon="37.2897880">
    <ele>2174.5</ele>
    <time>2026-06-20T12:21:56Z</time>
   </trkpt>
   <trkpt lat="-3.1542190" lon="37.2897910">
    <ele>2174.5</ele>
    <time>2026-06-20T12:21:57Z</time>
   </trkpt>
   <trkpt lat="-3.1542160" lon="37.2897850">
    <ele>2174.7</ele>
    <time>2026-06-20T12:21:58Z</time>
   </trkpt>
   <trkpt lat="-3.1542170" lon="37.2897870">
    <ele>2174.7</ele>
    <time>2026-06-20T12:21:59Z</time>
   </trkpt>
   <trkpt lat="-3.1542140" lon="37.2897880">
    <ele>2174.8</ele>
    <time>2026-06-20T12:22:00Z</time>
   </trkpt>
   <trkpt lat="-3.1542060" lon="37.2897860">
    <ele>2174.9</ele>
    <time>2026-06-20T12:22:01Z</time>
   </trkpt>
   <trkpt lat="-3.1542050" lon="37.2897840">
    <ele>2175.0</ele>
    <time>2026-06-20T12:22:02Z</time>
   </trkpt>
   <trkpt lat="-3.1542010" lon="37.2897880">
    <ele>2175.1</ele>
    <time>2026-06-20T12:22:03Z</time>
   </trkpt>
   <trkpt lat="-3.1541940" lon="37.2897880">
    <ele>2175.2</ele>
    <time>2026-06-20T12:22:04Z</time>
   </trkpt>
   <trkpt lat="-3.1541900" lon="37.2897890">
    <ele>2175.3</ele>
    <time>2026-06-20T12:22:05Z</time>
   </trkpt>
   <trkpt lat="-3.1541920" lon="37.2897910">
    <ele>2175.3</ele>
    <time>2026-06-20T12:22:06Z</time>
   </trkpt>
   <trkpt lat="-3.1541930" lon="37.2897910">
    <ele>2175.3</ele>
    <time>2026-06-20T12:22:07Z</time>
   </trkpt>
   <trkpt lat="-3.1541910" lon="37.2897900">
    <ele>2175.4</ele>
    <time>2026-06-20T12:22:08Z</time>
   </trkpt>
   <trkpt lat="-3.1541870" lon="37.2897880">
    <ele>2175.4</ele>
    <time>2026-06-20T12:22:09Z</time>
   </trkpt>
   <trkpt lat="-3.1541790" lon="37.2897850">
    <ele>2175.6</ele>
    <time>2026-06-20T12:22:10Z</time>
   </trkpt>
   <trkpt lat="-3.1541750" lon="37.2897820">
    <ele>2175.7</ele>
    <time>2026-06-20T12:22:11Z</time>
   </trkpt>
   <trkpt lat="-3.1541700" lon="37.2897820">
    <ele>2175.7</ele>
    <time>2026-06-20T12:22:12Z</time>
   </trkpt>
   <trkpt lat="-3.1541690" lon="37.2897790">
    <ele>2175.8</ele>
    <time>2026-06-20T12:22:13Z</time>
   </trkpt>
   <trkpt lat="-3.1541630" lon="37.2897790">
    <ele>2175.9</ele>
    <time>2026-06-20T12:22:14Z</time>
   </trkpt>
   <trkpt lat="-3.1541580" lon="37.2897790">
    <ele>2176.0</ele>
    <time>2026-06-20T12:22:15Z</time>
   </trkpt>
   <trkpt lat="-3.1541530" lon="37.2897770">
    <ele>2176.1</ele>
    <time>2026-06-20T12:22:16Z</time>
   </trkpt>
   <trkpt lat="-3.1541500" lon="37.2897800">
    <ele>2176.1</ele>
    <time>2026-06-20T12:22:17Z</time>
   </trkpt>
   <trkpt lat="-3.1541430" lon="37.2897810">
    <ele>2176.2</ele>
    <time>2026-06-20T12:22:18Z</time>
   </trkpt>
   <trkpt lat="-3.1541320" lon="37.2897790">
    <ele>2176.4</ele>
    <time>2026-06-20T12:22:19Z</time>
   </trkpt>
   <trkpt lat="-3.1541260" lon="37.2897790">
    <ele>2176.5</ele>
    <time>2026-06-20T12:22:20Z</time>
   </trkpt>
   <trkpt lat="-3.1541190" lon="37.2897790">
    <ele>2176.6</ele>
    <time>2026-06-20T12:22:21Z</time>
   </trkpt>
   <trkpt lat="-3.1541130" lon="37.2897720">
    <ele>2176.7</ele>
    <time>2026-06-20T12:22:22Z</time>
   </trkpt>
   <trkpt lat="-3.1541090" lon="37.2897670">
    <ele>2176.8</ele>
    <time>2026-06-20T12:22:23Z</time>
   </trkpt>
   <trkpt lat="-3.1541040" lon="37.2897640">
    <ele>2176.9</ele>
    <time>2026-06-20T12:22:24Z</time>
   </trkpt>
   <trkpt lat="-3.1540970" lon="37.2897600">
    <ele>2177.0</ele>
    <time>2026-06-20T12:22:25Z</time>
   </trkpt>
   <trkpt lat="-3.1540940" lon="37.2897590">
    <ele>2177.1</ele>
    <time>2026-06-20T12:22:26Z</time>
   </trkpt>
   <trkpt lat="-3.1540900" lon="37.2897600">
    <ele>2177.1</ele>
    <time>2026-06-20T12:22:27Z</time>
   </trkpt>
   <trkpt lat="-3.1540830" lon="37.2897570">
    <ele>2177.2</ele>
    <time>2026-06-20T12:22:28Z</time>
   </trkpt>
   <trkpt lat="-3.1540800" lon="37.2897520">
    <ele>2177.3</ele>
    <time>2026-06-20T12:22:29Z</time>
   </trkpt>
   <trkpt lat="-3.1540760" lon="37.2897470">
    <ele>2177.4</ele>
    <time>2026-06-20T12:22:30Z</time>
   </trkpt>
   <trkpt lat="-3.1540710" lon="37.2897430">
    <ele>2177.4</ele>
    <time>2026-06-20T12:22:31Z</time>
   </trkpt>
   <trkpt lat="-3.1540650" lon="37.2897440">
    <ele>2177.5</ele>
    <time>2026-06-20T12:22:32Z</time>
   </trkpt>
   <trkpt lat="-3.1540560" lon="37.2897430">
    <ele>2177.6</ele>
    <time>2026-06-20T12:22:33Z</time>
   </trkpt>
   <trkpt lat="-3.1540530" lon="37.2897400">
    <ele>2177.7</ele>
    <time>2026-06-20T12:22:34Z</time>
   </trkpt>
   <trkpt lat="-3.1540450" lon="37.2897370">
    <ele>2177.8</ele>
    <time>2026-06-20T12:22:35Z</time>
   </trkpt>
   <trkpt lat="-3.1540360" lon="37.2897340">
    <ele>2177.9</ele>
    <time>2026-06-20T12:22:36Z</time>
   </trkpt>
   <trkpt lat="-3.1540270" lon="37.2897340">
    <ele>2178.0</ele>
    <time>2026-06-20T12:22:37Z</time>
   </trkpt>
   <trkpt lat="-3.1540170" lon="37.2897350">
    <ele>2178.2</ele>
    <time>2026-06-20T12:22:38Z</time>
   </trkpt>
   <trkpt lat="-3.1540170" lon="37.2897320">
    <ele>2178.2</ele>
    <time>2026-06-20T12:22:39Z</time>
   </trkpt>
   <trkpt lat="-3.1540080" lon="37.2897320">
    <ele>2178.3</ele>
    <time>2026-06-20T12:22:40Z</time>
   </trkpt>
   <trkpt lat="-3.1540030" lon="37.2897280">
    <ele>2178.4</ele>
    <time>2026-06-20T12:22:41Z</time>
   </trkpt>
   <trkpt lat="-3.1539990" lon="37.2897250">
    <ele>2178.5</ele>
    <time>2026-06-20T12:22:42Z</time>
   </trkpt>
   <trkpt lat="-3.1539910" lon="37.2897250">
    <ele>2178.6</ele>
    <time>2026-06-20T12:22:43Z</time>
   </trkpt>
   <trkpt lat="-3.1539890" lon="37.2897260">
    <ele>2178.6</ele>
    <time>2026-06-20T12:22:44Z</time>
   </trkpt>
   <trkpt lat="-3.1539900" lon="37.2897230">
    <ele>2178.6</ele>
    <time>2026-06-20T12:22:45Z</time>
   </trkpt>
   <trkpt lat="-3.1539830" lon="37.2897210">
    <ele>2178.7</ele>
    <time>2026-06-20T12:22:46Z</time>
   </trkpt>
   <trkpt lat="-3.1539780" lon="37.2897230">
    <ele>2178.8</ele>
    <time>2026-06-20T12:22:47Z</time>
   </trkpt>
   <trkpt lat="-3.1539750" lon="37.2897220">
    <ele>2178.8</ele>
    <time>2026-06-20T12:22:48Z</time>
   </trkpt>
   <trkpt lat="-3.1539680" lon="37.2897220">
    <ele>2178.9</ele>
    <time>2026-06-20T12:22:49Z</time>
   </trkpt>
   <trkpt lat="-3.1539670" lon="37.2897230">
    <ele>2179.0</ele>
    <time>2026-06-20T12:22:50Z</time>
   </trkpt>
   <trkpt lat="-3.1539630" lon="37.2897200">
    <ele>2179.0</ele>
    <time>2026-06-20T12:22:51Z</time>
   </trkpt>
   <trkpt lat="-3.1539580" lon="37.2897210">
    <ele>2179.1</ele>
    <time>2026-06-20T12:22:52Z</time>
   </trkpt>
   <trkpt lat="-3.1539510" lon="37.2897190">
    <ele>2179.2</ele>
    <time>2026-06-20T12:22:53Z</time>
   </trkpt>
   <trkpt lat="-3.1539450" lon="37.2897150">
    <ele>2179.3</ele>
    <time>2026-06-20T12:22:54Z</time>
   </trkpt>
   <trkpt lat="-3.1539440" lon="37.2897130">
    <ele>2179.3</ele>
    <time>2026-06-20T12:22:55Z</time>
   </trkpt>
   <trkpt lat="-3.1539410" lon="37.2897090">
    <ele>2179.4</ele>
    <time>2026-06-20T12:22:56Z</time>
   </trkpt>
   <trkpt lat="-3.1539340" lon="37.2897080">
    <ele>2179.5</ele>
    <time>2026-06-20T12:22:57Z</time>
   </trkpt>
   <trkpt lat="-3.1539250" lon="37.2897030">
    <ele>2179.6</ele>
    <time>2026-06-20T12:22:58Z</time>
   </trkpt>
   <trkpt lat="-3.1539250" lon="37.2897050">
    <ele>2179.7</ele>
    <time>2026-06-20T12:22:59Z</time>
   </trkpt>
   <trkpt lat="-3.1539230" lon="37.2897060">
    <ele>2179.7</ele>
    <time>2026-06-20T12:23:00Z</time>
   </trkpt>
   <trkpt lat="-3.1539220" lon="37.2897090">
    <ele>2179.7</ele>
    <time>2026-06-20T12:23:01Z</time>
   </trkpt>
   <trkpt lat="-3.1539190" lon="37.2897070">
    <ele>2179.8</ele>
    <time>2026-06-20T12:23:02Z</time>
   </trkpt>
   <trkpt lat="-3.1539120" lon="37.2897100">
    <ele>2179.9</ele>
    <time>2026-06-20T12:23:03Z</time>
   </trkpt>
   <trkpt lat="-3.1539050" lon="37.2897120">
    <ele>2180.0</ele>
    <time>2026-06-20T12:23:04Z</time>
   </trkpt>
   <trkpt lat="-3.1539070" lon="37.2897100">
    <ele>2180.0</ele>
    <time>2026-06-20T12:23:05Z</time>
   </trkpt>
   <trkpt lat="-3.1539000" lon="37.2897090">
    <ele>2180.1</ele>
    <time>2026-06-20T12:23:06Z</time>
   </trkpt>
   <trkpt lat="-3.1538930" lon="37.2897150">
    <ele>2180.2</ele>
    <time>2026-06-20T12:23:07Z</time>
   </trkpt>
   <trkpt lat="-3.1538870" lon="37.2897210">
    <ele>2180.4</ele>
    <time>2026-06-20T12:23:08Z</time>
   </trkpt>
   <trkpt lat="-3.1538780" lon="37.2897250">
    <ele>2180.5</ele>
    <time>2026-06-20T12:23:09Z</time>
   </trkpt>
   <trkpt lat="-3.1538740" lon="37.2897320">
    <ele>2180.6</ele>
    <time>2026-06-20T12:23:10Z</time>
   </trkpt>
   <trkpt lat="-3.1538680" lon="37.2897300">
    <ele>2180.7</ele>
    <time>2026-06-20T12:23:11Z</time>
   </trkpt>
   <trkpt lat="-3.1538580" lon="37.2897380">
    <ele>2180.9</ele>
    <time>2026-06-20T12:23:12Z</time>
   </trkpt>
   <trkpt lat="-3.1538560" lon="37.2897390">
    <ele>2180.9</ele>
    <time>2026-06-20T12:23:13Z</time>
   </trkpt>
   <trkpt lat="-3.1538540" lon="37.2897440">
    <ele>2181.0</ele>
    <time>2026-06-20T12:23:14Z</time>
   </trkpt>
   <trkpt lat="-3.1538490" lon="37.2897470">
    <ele>2181.1</ele>
    <time>2026-06-20T12:23:15Z</time>
   </trkpt>
   <trkpt lat="-3.1538460" lon="37.2897510">
    <ele>2181.1</ele>
    <time>2026-06-20T12:23:16Z</time>
   </trkpt>
   <trkpt lat="-3.1538390" lon="37.2897520">
    <ele>2181.2</ele>
    <time>2026-06-20T12:23:17Z</time>
   </trkpt>
   <trkpt lat="-3.1538320" lon="37.2897550">
    <ele>2181.3</ele>
    <time>2026-06-20T12:23:18Z</time>
   </trkpt>
   <trkpt lat="-3.1538270" lon="37.2897580">
    <ele>2181.4</ele>
    <time>2026-06-20T12:23:19Z</time>
   </trkpt>
   <trkpt lat="-3.1538270" lon="37.2897570">
    <ele>2181.4</ele>
    <time>2026-06-20T12:23:20Z</time>
   </trkpt>
   <trkpt lat="-3.1538200" lon="37.2897540">
    <ele>2181.5</ele>
    <time>2026-06-20T12:23:21Z</time>
   </trkpt>
   <trkpt lat="-3.1538100" lon="37.2897530">
    <ele>2181.7</ele>
    <time>2026-06-20T12:23:22Z</time>
   </trkpt>
   <trkpt lat="-3.1538040" lon="37.2897550">
    <ele>2181.7</ele>
    <time>2026-06-20T12:23:23Z</time>
   </trkpt>
   <trkpt lat="-3.1537990" lon="37.2897560">
    <ele>2181.8</ele>
    <time>2026-06-20T12:23:24Z</time>
   </trkpt>
   <trkpt lat="-3.1537930" lon="37.2897580">
    <ele>2181.9</ele>
    <time>2026-06-20T12:23:25Z</time>
   </trkpt>
   <trkpt lat="-3.1537850" lon="37.2897620">
    <ele>2182.0</ele>
    <time>2026-06-20T12:23:26Z</time>
   </trkpt>
   <trkpt lat="-3.1537820" lon="37.2897610">
    <ele>2182.1</ele>
    <time>2026-06-20T12:23:27Z</time>
   </trkpt>
   <trkpt lat="-3.1537830" lon="37.2897580">
    <ele>2182.1</ele>
    <time>2026-06-20T12:23:28Z</time>
   </trkpt>
   <trkpt lat="-3.1537780" lon="37.2897590">
    <ele>2182.2</ele>
    <time>2026-06-20T12:23:29Z</time>
   </trkpt>
   <trkpt lat="-3.1537720" lon="37.2897550">
    <ele>2182.3</ele>
    <time>2026-06-20T12:23:30Z</time>
   </trkpt>
   <trkpt lat="-3.1537880" lon="37.2897470">
    <ele>2182.5</ele>
    <time>2026-06-20T12:23:31Z</time>
   </trkpt>
   <trkpt lat="-3.1537690" lon="37.2897560">
    <ele>2182.8</ele>
    <time>2026-06-20T12:23:32Z</time>
   </trkpt>
   <trkpt lat="-3.1537620" lon="37.2897630">
    <ele>2182.9</ele>
    <time>2026-06-20T12:23:33Z</time>
   </trkpt>
   <trkpt lat="-3.1537560" lon="37.2897700">
    <ele>2183.0</ele>
    <time>2026-06-20T12:23:34Z</time>
   </trkpt>
   <trkpt lat="-3.1537460" lon="37.2897740">
    <ele>2183.2</ele>
    <time>2026-06-20T12:23:35Z</time>
   </trkpt>
   <trkpt lat="-3.1537400" lon="37.2897760">
    <ele>2183.2</ele>
    <time>2026-06-20T12:23:36Z</time>
   </trkpt>
   <trkpt lat="-3.1537330" lon="37.2897820">
    <ele>2183.4</ele>
    <time>2026-06-20T12:23:37Z</time>
   </trkpt>
   <trkpt lat="-3.1537300" lon="37.2897850">
    <ele>2183.4</ele>
    <time>2026-06-20T12:23:38Z</time>
   </trkpt>
   <trkpt lat="-3.1537230" lon="37.2897900">
    <ele>2183.5</ele>
    <time>2026-06-20T12:23:39Z</time>
   </trkpt>
   <trkpt lat="-3.1537130" lon="37.2897880">
    <ele>2183.7</ele>
    <time>2026-06-20T12:23:40Z</time>
   </trkpt>
   <trkpt lat="-3.1537060" lon="37.2897870">
    <ele>2183.7</ele>
    <time>2026-06-20T12:23:41Z</time>
   </trkpt>
   <trkpt lat="-3.1537000" lon="37.2897870">
    <ele>2183.8</ele>
    <time>2026-06-20T12:23:42Z</time>
   </trkpt>
   <trkpt lat="-3.1536900" lon="37.2897880">
    <ele>2184.0</ele>
    <time>2026-06-20T12:23:43Z</time>
   </trkpt>
   <trkpt lat="-3.1536800" lon="37.2897870">
    <ele>2184.1</ele>
    <time>2026-06-20T12:23:44Z</time>
   </trkpt>
   <trkpt lat="-3.1536780" lon="37.2897910">
    <ele>2184.1</ele>
    <time>2026-06-20T12:23:45Z</time>
   </trkpt>
   <trkpt lat="-3.1536740" lon="37.2897950">
    <ele>2184.2</ele>
    <time>2026-06-20T12:23:46Z</time>
   </trkpt>
   <trkpt lat="-3.1536740" lon="37.2897960">
    <ele>2184.2</ele>
    <time>2026-06-20T12:23:47Z</time>
   </trkpt>
   <trkpt lat="-3.1536690" lon="37.2897960">
    <ele>2184.2</ele>
    <time>2026-06-20T12:23:48Z</time>
   </trkpt>
   <trkpt lat="-3.1536640" lon="37.2897980">
    <ele>2184.3</ele>
    <time>2026-06-20T12:23:49Z</time>
   </trkpt>
   <trkpt lat="-3.1536520" lon="37.2898020">
    <ele>2184.4</ele>
    <time>2026-06-20T12:23:50Z</time>
   </trkpt>
   <trkpt lat="-3.1536510" lon="37.2898060">
    <ele>2184.4</ele>
    <time>2026-06-20T12:23:51Z</time>
   </trkpt>
   <trkpt lat="-3.1536430" lon="37.2898030">
    <ele>2184.5</ele>
    <time>2026-06-20T12:23:52Z</time>
   </trkpt>
   <trkpt lat="-3.1536370" lon="37.2898040">
    <ele>2184.6</ele>
    <time>2026-06-20T12:23:53Z</time>
   </trkpt>
   <trkpt lat="-3.1536340" lon="37.2898050">
    <ele>2184.6</ele>
    <time>2026-06-20T12:23:54Z</time>
   </trkpt>
   <trkpt lat="-3.1536290" lon="37.2898030">
    <ele>2184.6</ele>
    <time>2026-06-20T12:23:55Z</time>
   </trkpt>
   <trkpt lat="-3.1536290" lon="37.2898040">
    <ele>2184.7</ele>
    <time>2026-06-20T12:23:56Z</time>
   </trkpt>
   <trkpt lat="-3.1536210" lon="37.2898020">
    <ele>2184.7</ele>
    <time>2026-06-20T12:23:57Z</time>
   </trkpt>
   <trkpt lat="-3.1536140" lon="37.2898010">
    <ele>2184.8</ele>
    <time>2026-06-20T12:23:58Z</time>
   </trkpt>
   <trkpt lat="-3.1536180" lon="37.2897960">
    <ele>2184.9</ele>
    <time>2026-06-20T12:23:59Z</time>
   </trkpt>
   <trkpt lat="-3.1536090" lon="37.2897940">
    <ele>2185.0</ele>
    <time>2026-06-20T12:24:00Z</time>
   </trkpt>
   <trkpt lat="-3.1535980" lon="37.2897960">
    <ele>2185.1</ele>
    <time>2026-06-20T12:24:01Z</time>
   </trkpt>
   <trkpt lat="-3.1535760" lon="37.2897980">
    <ele>2185.3</ele>
    <time>2026-06-20T12:24:02Z</time>
   </trkpt>
   <trkpt lat="-3.1535730" lon="37.2897930">
    <ele>2185.4</ele>
    <time>2026-06-20T12:24:03Z</time>
   </trkpt>
   <trkpt lat="-3.1535660" lon="37.2897920">
    <ele>2185.4</ele>
    <time>2026-06-20T12:24:04Z</time>
   </trkpt>
   <trkpt lat="-3.1535590" lon="37.2897920">
    <ele>2185.5</ele>
    <time>2026-06-20T12:24:05Z</time>
   </trkpt>
   <trkpt lat="-3.1535580" lon="37.2897950">
    <ele>2185.6</ele>
    <time>2026-06-20T12:24:06Z</time>
   </trkpt>
   <trkpt lat="-3.1535540" lon="37.2897930">
    <ele>2185.6</ele>
    <time>2026-06-20T12:24:07Z</time>
   </trkpt>
   <trkpt lat="-3.1535550" lon="37.2897950">
    <ele>2185.6</ele>
    <time>2026-06-20T12:24:08Z</time>
   </trkpt>
   <trkpt lat="-3.1535550" lon="37.2897970">
    <ele>2185.7</ele>
    <time>2026-06-20T12:24:09Z</time>
   </trkpt>
   <trkpt lat="-3.1535400" lon="37.2898000">
    <ele>2185.8</ele>
    <time>2026-06-20T12:24:10Z</time>
   </trkpt>
   <trkpt lat="-3.1535390" lon="37.2898020">
    <ele>2185.9</ele>
    <time>2026-06-20T12:24:11Z</time>
   </trkpt>
   <trkpt lat="-3.1535310" lon="37.2898020">
    <ele>2185.9</ele>
    <time>2026-06-20T12:24:12Z</time>
   </trkpt>
   <trkpt lat="-3.1535250" lon="37.2898080">
    <ele>2186.0</ele>
    <time>2026-06-20T12:24:13Z</time>
   </trkpt>
   <trkpt lat="-3.1535280" lon="37.2898080">
    <ele>2186.1</ele>
    <time>2026-06-20T12:24:14Z</time>
   </trkpt>
   <trkpt lat="-3.1535240" lon="37.2898110">
    <ele>2186.1</ele>
    <time>2026-06-20T12:24:15Z</time>
   </trkpt>
   <trkpt lat="-3.1535130" lon="37.2898150">
    <ele>2186.3</ele>
    <time>2026-06-20T12:24:16Z</time>
   </trkpt>
   <trkpt lat="-3.1535040" lon="37.2898150">
    <ele>2186.4</ele>
    <time>2026-06-20T12:24:17Z</time>
   </trkpt>
   <trkpt lat="-3.1534990" lon="37.2898160">
    <ele>2186.5</ele>
    <time>2026-06-20T12:24:18Z</time>
   </trkpt>
   <trkpt lat="-3.1534900" lon="37.2898170">
    <ele>2186.6</ele>
    <time>2026-06-20T12:24:19Z</time>
   </trkpt>
   <trkpt lat="-3.1534820" lon="37.2898150">
    <ele>2186.7</ele>
    <time>2026-06-20T12:24:20Z</time>
   </trkpt>
   <trkpt lat="-3.1534750" lon="37.2898170">
    <ele>2186.8</ele>
    <time>2026-06-20T12:24:21Z</time>
   </trkpt>
   <trkpt lat="-3.1534670" lon="37.2898110">
    <ele>2186.9</ele>
    <time>2026-06-20T12:24:22Z</time>
   </trkpt>
   <trkpt lat="-3.1534700" lon="37.2898040">
    <ele>2187.0</ele>
    <time>2026-06-20T12:24:23Z</time>
   </trkpt>
   <trkpt lat="-3.1534680" lon="37.2898030">
    <ele>2187.0</ele>
    <time>2026-06-20T12:24:24Z</time>
   </trkpt>
   <trkpt lat="-3.1534650" lon="37.2897990">
    <ele>2187.1</ele>
    <time>2026-06-20T12:24:25Z</time>
   </trkpt>
   <trkpt lat="-3.1534590" lon="37.2897970">
    <ele>2187.2</ele>
    <time>2026-06-20T12:24:26Z</time>
   </trkpt>
   <trkpt lat="-3.1534530" lon="37.2897930">
    <ele>2187.3</ele>
    <time>2026-06-20T12:24:27Z</time>
   </trkpt>
   <trkpt lat="-3.1534570" lon="37.2897920">
    <ele>2187.4</ele>
    <time>2026-06-20T12:24:28Z</time>
   </trkpt>
   <trkpt lat="-3.1534540" lon="37.2897880">
    <ele>2187.4</ele>
    <time>2026-06-20T12:24:29Z</time>
   </trkpt>
   <trkpt lat="-3.1534580" lon="37.2897860">
    <ele>2187.5</ele>
    <time>2026-06-20T12:24:30Z</time>
   </trkpt>
   <trkpt lat="-3.1534520" lon="37.2897840">
    <ele>2187.6</ele>
    <time>2026-06-20T12:24:31Z</time>
   </trkpt>
   <trkpt lat="-3.1534520" lon="37.2897820">
    <ele>2187.6</ele>
    <time>2026-06-20T12:24:32Z</time>
   </trkpt>
   <trkpt lat="-3.1534510" lon="37.2897830">
    <ele>2187.6</ele>
    <time>2026-06-20T12:24:33Z</time>
   </trkpt>
   <trkpt lat="-3.1534480" lon="37.2897820">
    <ele>2187.7</ele>
    <time>2026-06-20T12:24:34Z</time>
   </trkpt>
   <trkpt lat="-3.1534400" lon="37.2897780">
    <ele>2187.8</ele>
    <time>2026-06-20T12:24:35Z</time>
   </trkpt>
   <trkpt lat="-3.1534360" lon="37.2897770">
    <ele>2187.8</ele>
    <time>2026-06-20T12:24:36Z</time>
   </trkpt>
   <trkpt lat="-3.1534310" lon="37.2897780">
    <ele>2187.9</ele>
    <time>2026-06-20T12:24:37Z</time>
   </trkpt>
   <trkpt lat="-3.1534290" lon="37.2897790">
    <ele>2187.9</ele>
    <time>2026-06-20T12:24:38Z</time>
   </trkpt>
   <trkpt lat="-3.1534240" lon="37.2897780">
    <ele>2188.0</ele>
    <time>2026-06-20T12:24:39Z</time>
   </trkpt>
   <trkpt lat="-3.1534130" lon="37.2897790">
    <ele>2188.2</ele>
    <time>2026-06-20T12:24:40Z</time>
   </trkpt>
   <trkpt lat="-3.1534160" lon="37.2897770">
    <ele>2188.2</ele>
    <time>2026-06-20T12:24:41Z</time>
   </trkpt>
   <trkpt lat="-3.1534150" lon="37.2897700">
    <ele>2188.3</ele>
    <time>2026-06-20T12:24:42Z</time>
   </trkpt>
   <trkpt lat="-3.1534120" lon="37.2897640">
    <ele>2188.4</ele>
    <time>2026-06-20T12:24:43Z</time>
   </trkpt>
   <trkpt lat="-3.1534070" lon="37.2897670">
    <ele>2188.5</ele>
    <time>2026-06-20T12:24:44Z</time>
   </trkpt>
   <trkpt lat="-3.1534050" lon="37.2897670">
    <ele>2188.5</ele>
    <time>2026-06-20T12:24:45Z</time>
   </trkpt>
   <trkpt lat="-3.1534090" lon="37.2897650">
    <ele>2188.6</ele>
    <time>2026-06-20T12:24:46Z</time>
   </trkpt>
   <trkpt lat="-3.1533990" lon="37.2897570">
    <ele>2188.8</ele>
    <time>2026-06-20T12:24:47Z</time>
   </trkpt>
   <trkpt lat="-3.1533930" lon="37.2897560">
    <ele>2188.8</ele>
    <time>2026-06-20T12:24:48Z</time>
   </trkpt>
   <trkpt lat="-3.1533890" lon="37.2897600">
    <ele>2188.9</ele>
    <time>2026-06-20T12:24:49Z</time>
   </trkpt>
   <trkpt lat="-3.1533870" lon="37.2897590">
    <ele>2189.0</ele>
    <time>2026-06-20T12:24:50Z</time>
   </trkpt>
   <trkpt lat="-3.1533840" lon="37.2897590">
    <ele>2189.0</ele>
    <time>2026-06-20T12:24:51Z</time>
   </trkpt>
   <trkpt lat="-3.1533820" lon="37.2897600">
    <ele>2189.0</ele>
    <time>2026-06-20T12:24:52Z</time>
   </trkpt>
   <trkpt lat="-3.1533830" lon="37.2897600">
    <ele>2189.1</ele>
    <time>2026-06-20T12:24:53Z</time>
   </trkpt>
   <trkpt lat="-3.1533810" lon="37.2897620">
    <ele>2189.1</ele>
    <time>2026-06-20T12:24:54Z</time>
   </trkpt>
   <trkpt lat="-3.1533770" lon="37.2897600">
    <ele>2189.2</ele>
    <time>2026-06-20T12:24:55Z</time>
   </trkpt>
   <trkpt lat="-3.1533710" lon="37.2897590">
    <ele>2189.3</ele>
    <time>2026-06-20T12:24:56Z</time>
   </trkpt>
   <trkpt lat="-3.1533600" lon="37.2897520">
    <ele>2189.5</ele>
    <time>2026-06-20T12:24:57Z</time>
   </trkpt>
   <trkpt lat="-3.1533530" lon="37.2897520">
    <ele>2189.6</ele>
    <time>2026-06-20T12:24:58Z</time>
   </trkpt>
   <trkpt lat="-3.1533430" lon="37.2897500">
    <ele>2189.7</ele>
    <time>2026-06-20T12:24:59Z</time>
   </trkpt>
   <trkpt lat="-3.1533340" lon="37.2897510">
    <ele>2189.8</ele>
    <time>2026-06-20T12:25:00Z</time>
   </trkpt>
   <trkpt lat="-3.1533270" lon="37.2897480">
    <ele>2190.0</ele>
    <time>2026-06-20T12:25:01Z</time>
   </trkpt>
   <trkpt lat="-3.1533250" lon="37.2897500">
    <ele>2190.0</ele>
    <time>2026-06-20T12:25:02Z</time>
   </trkpt>
   <trkpt lat="-3.1533240" lon="37.2897490">
    <ele>2190.0</ele>
    <time>2026-06-20T12:25:03Z</time>
   </trkpt>
   <trkpt lat="-3.1533190" lon="37.2897510">
    <ele>2190.1</ele>
    <time>2026-06-20T12:25:04Z</time>
   </trkpt>
   <trkpt lat="-3.1533160" lon="37.2897450">
    <ele>2190.2</ele>
    <time>2026-06-20T12:25:05Z</time>
   </trkpt>
   <trkpt lat="-3.1533110" lon="37.2897430">
    <ele>2190.3</ele>
    <time>2026-06-20T12:25:06Z</time>
   </trkpt>
   <trkpt lat="-3.1533080" lon="37.2897410">
    <ele>2190.3</ele>
    <time>2026-06-20T12:25:07Z</time>
   </trkpt>
   <trkpt lat="-3.1533000" lon="37.2897400">
    <ele>2190.5</ele>
    <time>2026-06-20T12:25:08Z</time>
   </trkpt>
   <trkpt lat="-3.1532970" lon="37.2897390">
    <ele>2190.5</ele>
    <time>2026-06-20T12:25:09Z</time>
   </trkpt>
   <trkpt lat="-3.1532960" lon="37.2897400">
    <ele>2190.5</ele>
    <time>2026-06-20T12:25:10Z</time>
   </trkpt>
   <trkpt lat="-3.1532990" lon="37.2897370">
    <ele>2190.6</ele>
    <time>2026-06-20T12:25:11Z</time>
   </trkpt>
   <trkpt lat="-3.1532980" lon="37.2897380">
    <ele>2190.6</ele>
    <time>2026-06-20T12:25:12Z</time>
   </trkpt>
   <trkpt lat="-3.1532980" lon="37.2897370">
    <ele>2190.6</ele>
    <time>2026-06-20T12:25:13Z</time>
   </trkpt>
   <trkpt lat="-3.1533000" lon="37.2897360">
    <ele>2190.7</ele>
    <time>2026-06-20T12:25:14Z</time>
   </trkpt>
   <trkpt lat="-3.1533010" lon="37.2897330">
    <ele>2190.7</ele>
    <time>2026-06-20T12:25:15Z</time>
   </trkpt>
   <trkpt lat="-3.1533030" lon="37.2897300">
    <ele>2190.8</ele>
    <time>2026-06-20T12:25:16Z</time>
   </trkpt>
   <trkpt lat="-3.1533060" lon="37.2897290">
    <ele>2190.8</ele>
    <time>2026-06-20T12:25:17Z</time>
   </trkpt>
   <trkpt lat="-3.1533030" lon="37.2897270">
    <ele>2190.9</ele>
    <time>2026-06-20T12:25:18Z</time>
   </trkpt>
   <trkpt lat="-3.1532980" lon="37.2897300">
    <ele>2191.0</ele>
    <time>2026-06-20T12:25:19Z</time>
   </trkpt>
   <trkpt lat="-3.1532920" lon="37.2897330">
    <ele>2191.1</ele>
    <time>2026-06-20T12:25:20Z</time>
   </trkpt>
   <trkpt lat="-3.1532880" lon="37.2897370">
    <ele>2191.2</ele>
    <time>2026-06-20T12:25:21Z</time>
   </trkpt>
   <trkpt lat="-3.1532830" lon="37.2897320">
    <ele>2191.3</ele>
    <time>2026-06-20T12:25:22Z</time>
   </trkpt>
   <trkpt lat="-3.1532730" lon="37.2897330">
    <ele>2191.4</ele>
    <time>2026-06-20T12:25:23Z</time>
   </trkpt>
   <trkpt lat="-3.1532800" lon="37.2897320">
    <ele>2191.5</ele>
    <time>2026-06-20T12:25:24Z</time>
   </trkpt>
   <trkpt lat="-3.1532810" lon="37.2897330">
    <ele>2191.6</ele>
    <time>2026-06-20T12:25:25Z</time>
   </trkpt>
   <trkpt lat="-3.1532830" lon="37.2897370">
    <ele>2191.6</ele>
    <time>2026-06-20T12:25:26Z</time>
   </trkpt>
   <trkpt lat="-3.1532840" lon="37.2897380">
    <ele>2191.7</ele>
    <time>2026-06-20T12:25:27Z</time>
   </trkpt>
   <trkpt lat="-3.1532910" lon="37.2897380">
    <ele>2191.8</ele>
    <time>2026-06-20T12:25:28Z</time>
   </trkpt>
   <trkpt lat="-3.1532910" lon="37.2897380">
    <ele>2191.8</ele>
    <time>2026-06-20T12:25:29Z</time>
   </trkpt>
   <trkpt lat="-3.1532850" lon="37.2897360">
    <ele>2191.9</ele>
    <time>2026-06-20T12:25:30Z</time>
   </trkpt>
   <trkpt lat="-3.1532800" lon="37.2897350">
    <ele>2192.0</ele>
    <time>2026-06-20T12:25:31Z</time>
   </trkpt>
   <trkpt lat="-3.1532800" lon="37.2897350">
    <ele>2192.0</ele>
    <time>2026-06-20T12:25:32Z</time>
   </trkpt>
   <trkpt lat="-3.1532800" lon="37.2897350">
    <ele>2192.0</ele>
    <time>2026-06-20T12:25:33Z</time>
   </trkpt>
   <trkpt lat="-3.1532800" lon="37.2897350">
    <ele>2192.0</ele>
    <time>2026-06-20T12:25:34Z</time>
   </trkpt>
   <trkpt lat="-3.1532800" lon="37.2897350">
    <ele>2192.0</ele>
    <time>2026-06-20T12:25:35Z</time>
   </trkpt>
   <trkpt lat="-3.1532800" lon="37.2897350">
    <ele>2192.0</ele>
    <time>2026-06-20T12:25:36Z</time>
   </trkpt>
   <trkpt lat="-3.1532800" lon="37.2897350">
    <ele>2192.0</ele>
    <time>2026-06-20T12:25:37Z</time>
   </trkpt>
   <trkpt lat="-3.1532730" lon="37.2897380">
    <ele>2192.1</ele>
    <time>2026-06-20T12:25:38Z</time>
   </trkpt>
   <trkpt lat="-3.1532720" lon="37.2897380">
    <ele>2192.1</ele>
    <time>2026-06-20T12:25:39Z</time>
   </trkpt>
   <trkpt lat="-3.1532720" lon="37.2897380">
    <ele>2192.1</ele>
    <time>2026-06-20T12:25:40Z</time>
   </trkpt>
   <trkpt lat="-3.1532720" lon="37.2897380">
    <ele>2192.1</ele>
    <time>2026-06-20T12:25:41Z</time>
   </trkpt>
   <trkpt lat="-3.1532720" lon="37.2897380">
    <ele>2192.1</ele>
    <time>2026-06-20T12:25:42Z</time>
   </trkpt>
   <trkpt lat="-3.1532720" lon="37.2897380">
    <ele>2192.1</ele>
    <time>2026-06-20T12:25:43Z</time>
   </trkpt>
   <trkpt lat="-3.1532720" lon="37.2897380">
    <ele>2192.1</ele>
    <time>2026-06-20T12:25:44Z</time>
   </trkpt>
   <trkpt lat="-3.1532720" lon="37.2897380">
    <ele>2192.1</ele>
    <time>2026-06-20T12:25:45Z</time>
   </trkpt>
   <trkpt lat="-3.1532720" lon="37.2897380">
    <ele>2192.1</ele>
    <time>2026-06-20T12:25:46Z</time>
   </trkpt>
   <trkpt lat="-3.1532720" lon="37.2897380">
    <ele>2192.1</ele>
    <time>2026-06-20T12:25:47Z</time>
   </trkpt>
   <trkpt lat="-3.1532720" lon="37.2897380">
    <ele>2192.1</ele>
    <time>2026-06-20T12:25:48Z</time>
   </trkpt>
   <trkpt lat="-3.1532720" lon="37.2897380">
    <ele>2192.1</ele>
    <time>2026-06-20T12:25:49Z</time>
   </trkpt>
   <trkpt lat="-3.1532720" lon="37.2897380">
    <ele>2192.1</ele>
    <time>2026-06-20T12:25:50Z</time>
   </trkpt>
   <trkpt lat="-3.1532720" lon="37.2897380">
    <ele>2192.1</ele>
    <time>2026-06-20T12:25:51Z</time>
   </trkpt>
   <trkpt lat="-3.1532720" lon="37.2897380">
    <ele>2192.1</ele>
    <time>2026-06-20T12:25:52Z</time>
   </trkpt>
   <trkpt lat="-3.1532720" lon="37.2897380">
    <ele>2192.1</ele>
    <time>2026-06-20T12:25:53Z</time>
   </trkpt>
   <trkpt lat="-3.1532720" lon="37.2897380">
    <ele>2192.1</ele>
    <time>2026-06-20T12:25:54Z</time>
   </trkpt>
   <trkpt lat="-3.1532720" lon="37.2897380">
    <ele>2192.1</ele>
    <time>2026-06-20T12:25:55Z</time>
   </trkpt>
   <trkpt lat="-3.1532720" lon="37.2897380">
    <ele>2192.1</ele>
    <time>2026-06-20T12:25:56Z</time>
   </trkpt>
   <trkpt lat="-3.1532720" lon="37.2897380">
    <ele>2192.1</ele>
    <time>2026-06-20T12:25:57Z</time>
   </trkpt>
   <trkpt lat="-3.1532750" lon="37.2897360">
    <ele>2192.2</ele>
    <time>2026-06-20T12:25:58Z</time>
   </trkpt>
   <trkpt lat="-3.1532780" lon="37.2897360">
    <ele>2192.2</ele>
    <time>2026-06-20T12:25:59Z</time>
   </trkpt>
   <trkpt lat="-3.1532790" lon="37.2897360">
    <ele>2192.2</ele>
    <time>2026-06-20T12:26:00Z</time>
   </trkpt>
   <trkpt lat="-3.1532790" lon="37.2897330">
    <ele>2192.3</ele>
    <time>2026-06-20T12:26:01Z</time>
   </trkpt>
   <trkpt lat="-3.1532800" lon="37.2897300">
    <ele>2192.3</ele>
    <time>2026-06-20T12:26:02Z</time>
   </trkpt>
   <trkpt lat="-3.1532800" lon="37.2897300">
    <ele>2192.3</ele>
    <time>2026-06-20T12:26:03Z</time>
   </trkpt>
   <trkpt lat="-3.1532820" lon="37.2897280">
    <ele>2192.4</ele>
    <time>2026-06-20T12:26:04Z</time>
   </trkpt>
   <trkpt lat="-3.1532840" lon="37.2897260">
    <ele>2192.4</ele>
    <time>2026-06-20T12:26:05Z</time>
   </trkpt>
   <trkpt lat="-3.1532840" lon="37.2897250">
    <ele>2192.4</ele>
    <time>2026-06-20T12:26:06Z</time>
   </trkpt>
   <trkpt lat="-3.1532840" lon="37.2897240">
    <ele>2192.4</ele>
    <time>2026-06-20T12:26:07Z</time>
   </trkpt>
   <trkpt lat="-3.1532840" lon="37.2897220">
    <ele>2192.5</ele>
    <time>2026-06-20T12:26:08Z</time>
   </trkpt>
   <trkpt lat="-3.1532850" lon="37.2897220">
    <ele>2192.5</ele>
    <time>2026-06-20T12:26:09Z</time>
   </trkpt>
   <trkpt lat="-3.1532850" lon="37.2897220">
    <ele>2192.5</ele>
    <time>2026-06-20T12:26:10Z</time>
   </trkpt>
   <trkpt lat="-3.1532840" lon="37.2897210">
    <ele>2192.5</ele>
    <time>2026-06-20T12:26:11Z</time>
   </trkpt>
   <trkpt lat="-3.1532840" lon="37.2897210">
    <ele>2192.5</ele>
    <time>2026-06-20T12:26:12Z</time>
   </trkpt>
   <trkpt lat="-3.1532860" lon="37.2897170">
    <ele>2192.6</ele>
    <time>2026-06-20T12:26:13Z</time>
   </trkpt>
   <trkpt lat="-3.1532870" lon="37.2897160">
    <ele>2192.6</ele>
    <time>2026-06-20T12:26:14Z</time>
   </trkpt>
   <trkpt lat="-3.1532870" lon="37.2897150">
    <ele>2192.6</ele>
    <time>2026-06-20T12:26:15Z</time>
   </trkpt>
   <trkpt lat="-3.1532880" lon="37.2897150">
    <ele>2192.7</ele>
    <time>2026-06-20T12:26:16Z</time>
   </trkpt>
   <trkpt lat="-3.1532880" lon="37.2897150">
    <ele>2192.7</ele>
    <time>2026-06-20T12:26:17Z</time>
   </trkpt>
   <trkpt lat="-3.1532890" lon="37.2897150">
    <ele>2192.7</ele>
    <time>2026-06-20T12:26:18Z</time>
   </trkpt>
   <trkpt lat="-3.1532910" lon="37.2897150">
    <ele>2192.7</ele>
    <time>2026-06-20T12:26:19Z</time>
   </trkpt>
   <trkpt lat="-3.1532920" lon="37.2897150">
    <ele>2192.7</ele>
    <time>2026-06-20T12:26:20Z</time>
   </trkpt>
   <trkpt lat="-3.1532900" lon="37.2897130">
    <ele>2192.8</ele>
    <time>2026-06-20T12:26:21Z</time>
   </trkpt>
   <trkpt lat="-3.1532920" lon="37.2897150">
    <ele>2192.8</ele>
    <time>2026-06-20T12:26:22Z</time>
   </trkpt>
   <trkpt lat="-3.1532910" lon="37.2897140">
    <ele>2192.8</ele>
    <time>2026-06-20T12:26:23Z</time>
   </trkpt>
   <trkpt lat="-3.1532920" lon="37.2897180">
    <ele>2192.9</ele>
    <time>2026-06-20T12:26:24Z</time>
   </trkpt>
   <trkpt lat="-3.1532870" lon="37.2897170">
    <ele>2193.0</ele>
    <time>2026-06-20T12:26:25Z</time>
   </trkpt>
   <trkpt lat="-3.1532880" lon="37.2897160">
    <ele>2193.0</ele>
    <time>2026-06-20T12:26:26Z</time>
   </trkpt>
   <trkpt lat="-3.1532910" lon="37.2897170">
    <ele>2193.1</ele>
    <time>2026-06-20T12:26:27Z</time>
   </trkpt>
   <trkpt lat="-3.1532900" lon="37.2897160">
    <ele>2193.1</ele>
    <time>2026-06-20T12:26:28Z</time>
   </trkpt>
   <trkpt lat="-3.1532860" lon="37.2897140">
    <ele>2193.2</ele>
    <time>2026-06-20T12:26:29Z</time>
   </trkpt>
   <trkpt lat="-3.1532840" lon="37.2897070">
    <ele>2193.3</ele>
    <time>2026-06-20T12:26:30Z</time>
   </trkpt>
   <trkpt lat="-3.1532830" lon="37.2897040">
    <ele>2193.3</ele>
    <time>2026-06-20T12:26:31Z</time>
   </trkpt>
   <trkpt lat="-3.1532830" lon="37.2897020">
    <ele>2193.4</ele>
    <time>2026-06-20T12:26:32Z</time>
   </trkpt>
   <trkpt lat="-3.1532830" lon="37.2897010">
    <ele>2193.4</ele>
    <time>2026-06-20T12:26:33Z</time>
   </trkpt>
   <trkpt lat="-3.1532880" lon="37.2897010">
    <ele>2193.5</ele>
    <time>2026-06-20T12:26:34Z</time>
   </trkpt>
   <trkpt lat="-3.1532860" lon="37.2896960">
    <ele>2193.6</ele>
    <time>2026-06-20T12:26:35Z</time>
   </trkpt>
   <trkpt lat="-3.1532860" lon="37.2896960">
    <ele>2193.6</ele>
    <time>2026-06-20T12:26:36Z</time>
   </trkpt>
   <trkpt lat="-3.1532860" lon="37.2896960">
    <ele>2193.6</ele>
    <time>2026-06-20T12:26:37Z</time>
   </trkpt>
   <trkpt lat="-3.1532860" lon="37.2896960">
    <ele>2193.6</ele>
    <time>2026-06-20T12:26:38Z</time>
   </trkpt>
   <trkpt lat="-3.1532860" lon="37.2896960">
    <ele>2193.6</ele>
    <time>2026-06-20T12:26:39Z</time>
   </trkpt>
   <trkpt lat="-3.1532860" lon="37.2896960">
    <ele>2193.6</ele>
    <time>2026-06-20T12:26:40Z</time>
   </trkpt>
   <trkpt lat="-3.1532860" lon="37.2896960">
    <ele>2193.6</ele>
    <time>2026-06-20T12:26:41Z</time>
   </trkpt>
   <trkpt lat="-3.1532860" lon="37.2896960">
    <ele>2193.6</ele>
    <time>2026-06-20T12:26:42Z</time>
   </trkpt>
   <trkpt lat="-3.1532860" lon="37.2896960">
    <ele>2193.6</ele>
    <time>2026-06-20T12:26:43Z</time>
   </trkpt>
   <trkpt lat="-3.1532860" lon="37.2896960">
    <ele>2193.6</ele>
    <time>2026-06-20T12:26:44Z</time>
   </trkpt>
   <trkpt lat="-3.1532870" lon="37.2897010">
    <ele>2193.7</ele>
    <time>2026-06-20T12:26:45Z</time>
   </trkpt>
   <trkpt lat="-3.1532870" lon="37.2897010">
    <ele>2193.7</ele>
    <time>2026-06-20T12:26:46Z</time>
   </trkpt>
   <trkpt lat="-3.1532900" lon="37.2897040">
    <ele>2193.7</ele>
    <time>2026-06-20T12:26:47Z</time>
   </trkpt>
   <trkpt lat="-3.1532900" lon="37.2897040">
    <ele>2193.7</ele>
    <time>2026-06-20T12:26:48Z</time>
   </trkpt>
   <trkpt lat="-3.1532910" lon="37.2897020">
    <ele>2193.8</ele>
    <time>2026-06-20T12:26:49Z</time>
   </trkpt>
   <trkpt lat="-3.1532890" lon="37.2897030">
    <ele>2193.8</ele>
    <time>2026-06-20T12:26:50Z</time>
   </trkpt>
   <trkpt lat="-3.1532870" lon="37.2897030">
    <ele>2193.8</ele>
    <time>2026-06-20T12:26:51Z</time>
   </trkpt>
   <trkpt lat="-3.1532910" lon="37.2897040">
    <ele>2193.9</ele>
    <time>2026-06-20T12:26:52Z</time>
   </trkpt>
   <trkpt lat="-3.1532880" lon="37.2897050">
    <ele>2194.0</ele>
    <time>2026-06-20T12:26:53Z</time>
   </trkpt>
   <trkpt lat="-3.1532860" lon="37.2897050">
    <ele>2194.0</ele>
    <time>2026-06-20T12:26:54Z</time>
   </trkpt>
   <trkpt lat="-3.1532830" lon="37.2897070">
    <ele>2194.0</ele>
    <time>2026-06-20T12:26:55Z</time>
   </trkpt>
   <trkpt lat="-3.1532810" lon="37.2897030">
    <ele>2194.1</ele>
    <time>2026-06-20T12:26:56Z</time>
   </trkpt>
   <trkpt lat="-3.1532850" lon="37.2897000">
    <ele>2194.2</ele>
    <time>2026-06-20T12:26:57Z</time>
   </trkpt>
   <trkpt lat="-3.1532880" lon="37.2896980">
    <ele>2194.3</ele>
    <time>2026-06-20T12:26:58Z</time>
   </trkpt>
   <trkpt lat="-3.1532940" lon="37.2897000">
    <ele>2194.4</ele>
    <time>2026-06-20T12:26:59Z</time>
   </trkpt>
   <trkpt lat="-3.1532960" lon="37.2896980">
    <ele>2194.4</ele>
    <time>2026-06-20T12:27:00Z</time>
   </trkpt>
   <trkpt lat="-3.1532970" lon="37.2896970">
    <ele>2194.4</ele>
    <time>2026-06-20T12:27:01Z</time>
   </trkpt>
   <trkpt lat="-3.1532950" lon="37.2896990">
    <ele>2194.5</ele>
    <time>2026-06-20T12:27:02Z</time>
   </trkpt>
   <trkpt lat="-3.1532960" lon="37.2896960">
    <ele>2194.5</ele>
    <time>2026-06-20T12:27:03Z</time>
   </trkpt>
   <trkpt lat="-3.1532950" lon="37.2896950">
    <ele>2194.6</ele>
    <time>2026-06-20T12:27:04Z</time>
   </trkpt>
   <trkpt lat="-3.1532950" lon="37.2896950">
    <ele>2194.6</ele>
    <time>2026-06-20T12:27:05Z</time>
   </trkpt>
   <trkpt lat="-3.1532890" lon="37.2896960">
    <ele>2194.7</ele>
    <time>2026-06-20T12:27:06Z</time>
   </trkpt>
   <trkpt lat="-3.1532860" lon="37.2896950">
    <ele>2194.7</ele>
    <time>2026-06-20T12:27:07Z</time>
   </trkpt>
   <trkpt lat="-3.1532720" lon="37.2896950">
    <ele>2195.0</ele>
    <time>2026-06-20T12:27:08Z</time>
   </trkpt>
   <trkpt lat="-3.1532760" lon="37.2896930">
    <ele>2195.0</ele>
    <time>2026-06-20T12:27:09Z</time>
   </trkpt>
   <trkpt lat="-3.1532820" lon="37.2896970">
    <ele>2195.2</ele>
    <time>2026-06-20T12:27:10Z</time>
   </trkpt>
   <trkpt lat="-3.1532830" lon="37.2896970">
    <ele>2195.2</ele>
    <time>2026-06-20T12:27:11Z</time>
   </trkpt>
   <trkpt lat="-3.1532830" lon="37.2896970">
    <ele>2195.2</ele>
    <time>2026-06-20T12:27:12Z</time>
   </trkpt>
   <trkpt lat="-3.1532830" lon="37.2896970">
    <ele>2195.2</ele>
    <time>2026-06-20T12:27:13Z</time>
   </trkpt>
   <trkpt lat="-3.1532830" lon="37.2896970">
    <ele>2195.2</ele>
    <time>2026-06-20T12:27:14Z</time>
   </trkpt>
   <trkpt lat="-3.1532830" lon="37.2896970">
    <ele>2195.2</ele>
    <time>2026-06-20T12:27:15Z</time>
   </trkpt>
   <trkpt lat="-3.1532830" lon="37.2896970">
    <ele>2195.2</ele>
    <time>2026-06-20T12:27:16Z</time>
   </trkpt>
   <trkpt lat="-3.1532830" lon="37.2896970">
    <ele>2195.2</ele>
    <time>2026-06-20T12:27:17Z</time>
   </trkpt>
   <trkpt lat="-3.1532830" lon="37.2896970">
    <ele>2195.2</ele>
    <time>2026-06-20T12:27:18Z</time>
   </trkpt>
   <trkpt lat="-3.1532830" lon="37.2896970">
    <ele>2195.2</ele>
    <time>2026-06-20T12:27:19Z</time>
   </trkpt>
   <trkpt lat="-3.1532830" lon="37.2896970">
    <ele>2195.2</ele>
    <time>2026-06-20T12:27:20Z</time>
   </trkpt>
   <trkpt lat="-3.1532830" lon="37.2896970">
    <ele>2195.2</ele>
    <time>2026-06-20T12:27:21Z</time>
   </trkpt>
   <trkpt lat="-3.1532830" lon="37.2896970">
    <ele>2195.2</ele>
    <time>2026-06-20T12:27:22Z</time>
   </trkpt>
   <trkpt lat="-3.1532830" lon="37.2896970">
    <ele>2195.2</ele>
    <time>2026-06-20T12:27:23Z</time>
   </trkpt>
   <trkpt lat="-3.1532830" lon="37.2896970">
    <ele>2195.2</ele>
    <time>2026-06-20T12:27:24Z</time>
   </trkpt>
   <trkpt lat="-3.1532830" lon="37.2896970">
    <ele>2195.2</ele>
    <time>2026-06-20T12:27:25Z</time>
   </trkpt>
   <trkpt lat="-3.1532830" lon="37.2896970">
    <ele>2195.2</ele>
    <time>2026-06-20T12:27:26Z</time>
   </trkpt>
   <trkpt lat="-3.1532830" lon="37.2896970">
    <ele>2195.2</ele>
    <time>2026-06-20T12:27:27Z</time>
   </trkpt>
   <trkpt lat="-3.1532830" lon="37.2896970">
    <ele>2195.2</ele>
    <time>2026-06-20T12:27:28Z</time>
   </trkpt>
   <trkpt lat="-3.1532830" lon="37.2896970">
    <ele>2195.2</ele>
    <time>2026-06-20T12:27:29Z</time>
   </trkpt>
   <trkpt lat="-3.1532930" lon="37.2897170">
    <ele>2195.6</ele>
    <time>2026-06-20T12:27:30Z</time>
   </trkpt>
   <trkpt lat="-3.1532930" lon="37.2897170">
    <ele>2195.6</ele>
    <time>2026-06-20T12:27:31Z</time>
   </trkpt>
   <trkpt lat="-3.1532930" lon="37.2897170">
    <ele>2195.6</ele>
    <time>2026-06-20T12:27:32Z</time>
   </trkpt>
   <trkpt lat="-3.1532930" lon="37.2897170">
    <ele>2195.6</ele>
    <time>2026-06-20T12:27:33Z</time>
   </trkpt>
   <trkpt lat="-3.1532930" lon="37.2897170">
    <ele>2195.6</ele>
    <time>2026-06-20T12:27:34Z</time>
   </trkpt>
   <trkpt lat="-3.1532930" lon="37.2897170">
    <ele>2195.6</ele>
    <time>2026-06-20T12:27:35Z</time>
   </trkpt>
   <trkpt lat="-3.1533040" lon="37.2897180">
    <ele>2195.8</ele>
    <time>2026-06-20T12:27:36Z</time>
   </trkpt>
   <trkpt lat="-3.1533040" lon="37.2897180">
    <ele>2195.8</ele>
    <time>2026-06-20T12:27:37Z</time>
   </trkpt>
   <trkpt lat="-3.1533010" lon="37.2897170">
    <ele>2195.8</ele>
    <time>2026-06-20T12:27:38Z</time>
   </trkpt>
   <trkpt lat="-3.1533010" lon="37.2897170">
    <ele>2195.8</ele>
    <time>2026-06-20T12:27:39Z</time>
   </trkpt>
   <trkpt lat="-3.1533010" lon="37.2897170">
    <ele>2195.8</ele>
    <time>2026-06-20T12:27:40Z</time>
   </trkpt>
   <trkpt lat="-3.1533010" lon="37.2897170">
    <ele>2195.8</ele>
    <time>2026-06-20T12:27:41Z</time>
   </trkpt>
   <trkpt lat="-3.1532940" lon="37.2897240">
    <ele>2196.0</ele>
    <time>2026-06-20T12:27:42Z</time>
   </trkpt>
   <trkpt lat="-3.1532970" lon="37.2897230">
    <ele>2196.1</ele>
    <time>2026-06-20T12:27:43Z</time>
   </trkpt>
   <trkpt lat="-3.1532970" lon="37.2897240">
    <ele>2196.1</ele>
    <time>2026-06-20T12:27:44Z</time>
   </trkpt>
   <trkpt lat="-3.1532970" lon="37.2897240">
    <ele>2196.1</ele>
    <time>2026-06-20T12:27:45Z</time>
   </trkpt>
   <trkpt lat="-3.1532970" lon="37.2897240">
    <ele>2196.1</ele>
    <time>2026-06-20T12:27:46Z</time>
   </trkpt>
   <trkpt lat="-3.1532970" lon="37.2897240">
    <ele>2196.1</ele>
    <time>2026-06-20T12:27:47Z</time>
   </trkpt>
   <trkpt lat="-3.1532850" lon="37.2897250">
    <ele>2196.3</ele>
    <time>2026-06-20T12:27:48Z</time>
   </trkpt>
   <trkpt lat="-3.1532830" lon="37.2897250">
    <ele>2196.3</ele>
    <time>2026-06-20T12:27:49Z</time>
   </trkpt>
   <trkpt lat="-3.1532800" lon="37.2897210">
    <ele>2196.4</ele>
    <time>2026-06-20T12:27:50Z</time>
   </trkpt>
   <trkpt lat="-3.1532800" lon="37.2897210">
    <ele>2196.4</ele>
    <time>2026-06-20T12:27:51Z</time>
   </trkpt>
   <trkpt lat="-3.1532800" lon="37.2897210">
    <ele>2196.4</ele>
    <time>2026-06-20T12:27:52Z</time>
   </trkpt>
   <trkpt lat="-3.1532800" lon="37.2897210">
    <ele>2196.4</ele>
    <time>2026-06-20T12:27:53Z</time>
   </trkpt>
   <trkpt lat="-3.1532730" lon="37.2897260">
    <ele>2196.6</ele>
    <time>2026-06-20T12:27:54Z</time>
   </trkpt>
   <trkpt lat="-3.1532750" lon="37.2897270">
    <ele>2196.6</ele>
    <time>2026-06-20T12:27:55Z</time>
   </trkpt>
   <trkpt lat="-3.1532750" lon="37.2897280">
    <ele>2196.6</ele>
    <time>2026-06-20T12:27:56Z</time>
   </trkpt>
   <trkpt lat="-3.1532770" lon="37.2897260">
    <ele>2196.7</ele>
    <time>2026-06-20T12:27:57Z</time>
   </trkpt>
   <trkpt lat="-3.1532770" lon="37.2897260">
    <ele>2196.7</ele>
    <time>2026-06-20T12:27:58Z</time>
   </trkpt>
   <trkpt lat="-3.1532770" lon="37.2897260">
    <ele>2196.7</ele>
    <time>2026-06-20T12:27:59Z</time>
   </trkpt>
   <trkpt lat="-3.1532770" lon="37.2897260">
    <ele>2196.7</ele>
    <time>2026-06-20T12:28:00Z</time>
   </trkpt>
   <trkpt lat="-3.1532770" lon="37.2897260">
    <ele>2196.7</ele>
    <time>2026-06-20T12:28:01Z</time>
   </trkpt>
   <trkpt lat="-3.1532770" lon="37.2897260">
    <ele>2196.7</ele>
    <time>2026-06-20T12:28:02Z</time>
   </trkpt>
   <trkpt lat="-3.1532770" lon="37.2897260">
    <ele>2196.7</ele>
    <time>2026-06-20T12:28:03Z</time>
   </trkpt>
   <trkpt lat="-3.1532770" lon="37.2897260">
    <ele>2196.7</ele>
    <time>2026-06-20T12:28:04Z</time>
   </trkpt>
   <trkpt lat="-3.1532770" lon="37.2897260">
    <ele>2196.7</ele>
    <time>2026-06-20T12:28:05Z</time>
   </trkpt>
   <trkpt lat="-3.1532770" lon="37.2897260">
    <ele>2196.7</ele>
    <time>2026-06-20T12:28:06Z</time>
   </trkpt>
   <trkpt lat="-3.1532770" lon="37.2897260">
    <ele>2196.7</ele>
    <time>2026-06-20T12:28:07Z</time>
   </trkpt>
   <trkpt lat="-3.1532770" lon="37.2897260">
    <ele>2196.7</ele>
    <time>2026-06-20T12:28:08Z</time>
   </trkpt>
   <trkpt lat="-3.1532770" lon="37.2897260">
    <ele>2196.7</ele>
    <time>2026-06-20T12:28:09Z</time>
   </trkpt>
   <trkpt lat="-3.1532770" lon="37.2897260">
    <ele>2196.7</ele>
    <time>2026-06-20T12:28:10Z</time>
   </trkpt>
   <trkpt lat="-3.1532770" lon="37.2897260">
    <ele>2196.7</ele>
    <time>2026-06-20T12:28:11Z</time>
   </trkpt>
   <trkpt lat="-3.1532770" lon="37.2897260">
    <ele>2196.7</ele>
    <time>2026-06-20T12:28:12Z</time>
   </trkpt>
   <trkpt lat="-3.1532770" lon="37.2897260">
    <ele>2196.7</ele>
    <time>2026-06-20T12:28:13Z</time>
   </trkpt>
   <trkpt lat="-3.1532770" lon="37.2897260">
    <ele>2196.7</ele>
    <time>2026-06-20T12:28:14Z</time>
   </trkpt>
   <trkpt lat="-3.1532770" lon="37.2897260">
    <ele>2196.7</ele>
    <time>2026-06-20T12:28:15Z</time>
   </trkpt>
   <trkpt lat="-3.1532770" lon="37.2897260">
    <ele>2196.7</ele>
    <time>2026-06-20T12:28:16Z</time>
   </trkpt>
   <trkpt lat="-3.1532770" lon="37.2897260">
    <ele>2196.7</ele>
    <time>2026-06-20T12:28:17Z</time>
   </trkpt>
   <trkpt lat="-3.1532770" lon="37.2897260">
    <ele>2196.7</ele>
    <time>2026-06-20T12:28:18Z</time>
   </trkpt>
   <trkpt lat="-3.1532770" lon="37.2897260">
    <ele>2196.7</ele>
    <time>2026-06-20T12:28:19Z</time>
   </trkpt>
   <trkpt lat="-3.1532760" lon="37.2896980">
    <ele>2197.2</ele>
    <time>2026-06-20T12:28:20Z</time>
   </trkpt>
   <trkpt lat="-3.1532770" lon="37.2896980">
    <ele>2197.2</ele>
    <time>2026-06-20T12:28:21Z</time>
   </trkpt>
   <trkpt lat="-3.1532770" lon="37.2896940">
    <ele>2197.3</ele>
    <time>2026-06-20T12:28:22Z</time>
   </trkpt>
   <trkpt lat="-3.1532780" lon="37.2896890">
    <ele>2197.3</ele>
    <time>2026-06-20T12:28:23Z</time>
   </trkpt>
   <trkpt lat="-3.1532780" lon="37.2896850">
    <ele>2197.4</ele>
    <time>2026-06-20T12:28:24Z</time>
   </trkpt>
   <trkpt lat="-3.1532750" lon="37.2896890">
    <ele>2197.5</ele>
    <time>2026-06-20T12:28:25Z</time>
   </trkpt>
   <trkpt lat="-3.1532780" lon="37.2896880">
    <ele>2197.6</ele>
    <time>2026-06-20T12:28:26Z</time>
   </trkpt>
   <trkpt lat="-3.1532790" lon="37.2896850">
    <ele>2197.6</ele>
    <time>2026-06-20T12:28:27Z</time>
   </trkpt>
   <trkpt lat="-3.1532790" lon="37.2896850">
    <ele>2197.6</ele>
    <time>2026-06-20T12:28:28Z</time>
   </trkpt>
   <trkpt lat="-3.1532790" lon="37.2896850">
    <ele>2197.6</ele>
    <time>2026-06-20T12:28:29Z</time>
   </trkpt>
   <trkpt lat="-3.1532790" lon="37.2896850">
    <ele>2197.6</ele>
    <time>2026-06-20T12:28:30Z</time>
   </trkpt>
   <trkpt lat="-3.1532790" lon="37.2896850">
    <ele>2197.6</ele>
    <time>2026-06-20T12:28:31Z</time>
   </trkpt>
   <trkpt lat="-3.1532790" lon="37.2896850">
    <ele>2197.6</ele>
    <time>2026-06-20T12:28:32Z</time>
   </trkpt>
   <trkpt lat="-3.1532790" lon="37.2896850">
    <ele>2197.6</ele>
    <time>2026-06-20T12:28:33Z</time>
   </trkpt>
   <trkpt lat="-3.1532790" lon="37.2896850">
    <ele>2197.6</ele>
    <time>2026-06-20T12:28:34Z</time>
   </trkpt>
   <trkpt lat="-3.1532790" lon="37.2896850">
    <ele>2197.6</ele>
    <time>2026-06-20T12:28:35Z</time>
   </trkpt>
   <trkpt lat="-3.1532790" lon="37.2896850">
    <ele>2197.6</ele>
    <time>2026-06-20T12:28:36Z</time>
   </trkpt>
   <trkpt lat="-3.1532790" lon="37.2896850">
    <ele>2197.6</ele>
    <time>2026-06-20T12:28:37Z</time>
   </trkpt>
   <trkpt lat="-3.1532790" lon="37.2896850">
    <ele>2197.6</ele>
    <time>2026-06-20T12:28:38Z</time>
   </trkpt>
   <trkpt lat="-3.1532790" lon="37.2896850">
    <ele>2197.6</ele>
    <time>2026-06-20T12:28:39Z</time>
   </trkpt>
   <trkpt lat="-3.1532790" lon="37.2896850">
    <ele>2197.6</ele>
    <time>2026-06-20T12:28:40Z</time>
   </trkpt>
   <trkpt lat="-3.1532790" lon="37.2896850">
    <ele>2197.6</ele>
    <time>2026-06-20T12:28:41Z</time>
   </trkpt>
   <trkpt lat="-3.1532730" lon="37.2896980">
    <ele>2197.9</ele>
    <time>2026-06-20T12:28:42Z</time>
   </trkpt>
   <trkpt lat="-3.1532730" lon="37.2896980">
    <ele>2197.9</ele>
    <time>2026-06-20T12:28:43Z</time>
   </trkpt>
   <trkpt lat="-3.1532730" lon="37.2896980">
    <ele>2197.9</ele>
    <time>2026-06-20T12:28:44Z</time>
   </trkpt>
   <trkpt lat="-3.1532740" lon="37.2896960">
    <ele>2197.9</ele>
    <time>2026-06-20T12:28:45Z</time>
   </trkpt>
   <trkpt lat="-3.1532750" lon="37.2896960">
    <ele>2197.9</ele>
    <time>2026-06-20T12:28:46Z</time>
   </trkpt>
   <trkpt lat="-3.1532760" lon="37.2896960">
    <ele>2197.9</ele>
    <time>2026-06-20T12:28:47Z</time>
   </trkpt>
   <trkpt lat="-3.1532770" lon="37.2896950">
    <ele>2198.0</ele>
    <time>2026-06-20T12:28:48Z</time>
   </trkpt>
   <trkpt lat="-3.1532770" lon="37.2896940">
    <ele>2198.0</ele>
    <time>2026-06-20T12:28:49Z</time>
   </trkpt>
   <trkpt lat="-3.1532780" lon="37.2896920">
    <ele>2198.0</ele>
    <time>2026-06-20T12:28:50Z</time>
   </trkpt>
   <trkpt lat="-3.1532800" lon="37.2896920">
    <ele>2198.1</ele>
    <time>2026-06-20T12:28:51Z</time>
   </trkpt>
   <trkpt lat="-3.1532790" lon="37.2896850">
    <ele>2198.2</ele>
    <time>2026-06-20T12:28:52Z</time>
   </trkpt>
   <trkpt lat="-3.1532800" lon="37.2896820">
    <ele>2198.2</ele>
    <time>2026-06-20T12:28:53Z</time>
   </trkpt>
   <trkpt lat="-3.1532800" lon="37.2896810">
    <ele>2198.2</ele>
    <time>2026-06-20T12:28:54Z</time>
   </trkpt>
   <trkpt lat="-3.1532810" lon="37.2896750">
    <ele>2198.4</ele>
    <time>2026-06-20T12:28:55Z</time>
   </trkpt>
   <trkpt lat="-3.1532830" lon="37.2896710">
    <ele>2198.4</ele>
    <time>2026-06-20T12:28:57Z</time>
   </trkpt>
   <trkpt lat="-3.1532940" lon="37.2896750">
    <ele>2198.6</ele>
    <time>2026-06-20T12:28:58Z</time>
   </trkpt>
   <trkpt lat="-3.1533000" lon="37.2896720">
    <ele>2198.8</ele>
    <time>2026-06-20T12:28:59Z</time>
   </trkpt>
   <trkpt lat="-3.1533010" lon="37.2896720">
    <ele>2198.8</ele>
    <time>2026-06-20T12:29:00Z</time>
   </trkpt>
   <trkpt lat="-3.1533010" lon="37.2896640">
    <ele>2198.9</ele>
    <time>2026-06-20T12:29:01Z</time>
   </trkpt>
   <trkpt lat="-3.1533000" lon="37.2896640">
    <ele>2198.9</ele>
    <time>2026-06-20T12:29:02Z</time>
   </trkpt>
   <trkpt lat="-3.1532930" lon="37.2896600">
    <ele>2199.1</ele>
    <time>2026-06-20T12:29:03Z</time>
   </trkpt>
   <trkpt lat="-3.1532930" lon="37.2896600">
    <ele>2199.1</ele>
    <time>2026-06-20T12:29:04Z</time>
   </trkpt>
   <trkpt lat="-3.1532930" lon="37.2896600">
    <ele>2199.1</ele>
    <time>2026-06-20T12:29:05Z</time>
   </trkpt>
   <trkpt lat="-3.1532930" lon="37.2896600">
    <ele>2199.1</ele>
    <time>2026-06-20T12:29:06Z</time>
   </trkpt>
   <trkpt lat="-3.1532850" lon="37.2896560">
    <ele>2199.2</ele>
    <time>2026-06-20T12:29:07Z</time>
   </trkpt>
   <trkpt lat="-3.1532860" lon="37.2896560">
    <ele>2199.2</ele>
    <time>2026-06-20T12:29:08Z</time>
   </trkpt>
   <trkpt lat="-3.1532860" lon="37.2896560">
    <ele>2199.2</ele>
    <time>2026-06-20T12:29:09Z</time>
   </trkpt>
   <trkpt lat="-3.1532860" lon="37.2896560">
    <ele>2199.2</ele>
    <time>2026-06-20T12:29:10Z</time>
   </trkpt>
   <trkpt lat="-3.1532860" lon="37.2896560">
    <ele>2199.2</ele>
    <time>2026-06-20T12:29:11Z</time>
   </trkpt>
   <trkpt lat="-3.1532860" lon="37.2896560">
    <ele>2199.2</ele>
    <time>2026-06-20T12:29:12Z</time>
   </trkpt>
   <trkpt lat="-3.1532840" lon="37.2896550">
    <ele>2199.3</ele>
    <time>2026-06-20T12:29:13Z</time>
   </trkpt>
   <trkpt lat="-3.1532890" lon="37.2896540">
    <ele>2199.4</ele>
    <time>2026-06-20T12:29:14Z</time>
   </trkpt>
   <trkpt lat="-3.1532890" lon="37.2896530">
    <ele>2199.4</ele>
    <time>2026-06-20T12:29:15Z</time>
   </trkpt>
   <trkpt lat="-3.1532930" lon="37.2896500">
    <ele>2199.5</ele>
    <time>2026-06-20T12:29:16Z</time>
   </trkpt>
   <trkpt lat="-3.1532940" lon="37.2896450">
    <ele>2199.6</ele>
    <time>2026-06-20T12:29:17Z</time>
   </trkpt>
   <trkpt lat="-3.1532970" lon="37.2896440">
    <ele>2199.6</ele>
    <time>2026-06-20T12:29:18Z</time>
   </trkpt>
   <trkpt lat="-3.1532890" lon="37.2896400">
    <ele>2199.8</ele>
    <time>2026-06-20T12:29:19Z</time>
   </trkpt>
   <trkpt lat="-3.1532860" lon="37.2896450">
    <ele>2199.9</ele>
    <time>2026-06-20T12:29:20Z</time>
   </trkpt>
   <trkpt lat="-3.1532760" lon="37.2896570">
    <ele>2200.2</ele>
    <time>2026-06-20T12:29:21Z</time>
   </trkpt>
   <trkpt lat="-3.1532620" lon="37.2896670">
    <ele>2200.4</ele>
    <time>2026-06-20T12:29:22Z</time>
   </trkpt>
   <trkpt lat="-3.1532560" lon="37.2896780">
    <ele>2200.7</ele>
    <time>2026-06-20T12:29:23Z</time>
   </trkpt>
   <trkpt lat="-3.1532580" lon="37.2896780">
    <ele>2200.7</ele>
    <time>2026-06-20T12:29:24Z</time>
   </trkpt>
   <trkpt lat="-3.1532520" lon="37.2896760">
    <ele>2200.8</ele>
    <time>2026-06-20T12:29:25Z</time>
   </trkpt>
   <trkpt lat="-3.1532470" lon="37.2896720">
    <ele>2200.9</ele>
    <time>2026-06-20T12:29:26Z</time>
   </trkpt>
   <trkpt lat="-3.1532400" lon="37.2896680">
    <ele>2201.1</ele>
    <time>2026-06-20T12:29:27Z</time>
   </trkpt>
   <trkpt lat="-3.1532350" lon="37.2896700">
    <ele>2201.2</ele>
    <time>2026-06-20T12:29:28Z</time>
   </trkpt>
   <trkpt lat="-3.1532260" lon="37.2896690">
    <ele>2201.3</ele>
    <time>2026-06-20T12:29:29Z</time>
   </trkpt>
   <trkpt lat="-3.1532200" lon="37.2896660">
    <ele>2201.4</ele>
    <time>2026-06-20T12:29:30Z</time>
   </trkpt>
   <trkpt lat="-3.1532130" lon="37.2896670">
    <ele>2201.6</ele>
    <time>2026-06-20T12:29:31Z</time>
   </trkpt>
   <trkpt lat="-3.1532130" lon="37.2896670">
    <ele>2201.6</ele>
    <time>2026-06-20T12:29:32Z</time>
   </trkpt>
   <trkpt lat="-3.1532120" lon="37.2896640">
    <ele>2201.6</ele>
    <time>2026-06-20T12:29:33Z</time>
   </trkpt>
   <trkpt lat="-3.1532100" lon="37.2896640">
    <ele>2201.6</ele>
    <time>2026-06-20T12:29:34Z</time>
   </trkpt>
   <trkpt lat="-3.1532040" lon="37.2896610">
    <ele>2201.8</ele>
    <time>2026-06-20T12:29:35Z</time>
   </trkpt>
   <trkpt lat="-3.1532010" lon="37.2896570">
    <ele>2201.8</ele>
    <time>2026-06-20T12:29:36Z</time>
   </trkpt>
   <trkpt lat="-3.1531990" lon="37.2896540">
    <ele>2201.9</ele>
    <time>2026-06-20T12:29:37Z</time>
   </trkpt>
   <trkpt lat="-3.1532000" lon="37.2896530">
    <ele>2201.9</ele>
    <time>2026-06-20T12:29:38Z</time>
   </trkpt>
   <trkpt lat="-3.1531940" lon="37.2896520">
    <ele>2202.0</ele>
    <time>2026-06-20T12:29:39Z</time>
   </trkpt>
   <trkpt lat="-3.1531820" lon="37.2896500">
    <ele>2202.2</ele>
    <time>2026-06-20T12:29:40Z</time>
   </trkpt>
   <trkpt lat="-3.1531710" lon="37.2896500">
    <ele>2202.4</ele>
    <time>2026-06-20T12:29:41Z</time>
   </trkpt>
   <trkpt lat="-3.1531630" lon="37.2896490">
    <ele>2202.6</ele>
    <time>2026-06-20T12:29:42Z</time>
   </trkpt>
   <trkpt lat="-3.1531590" lon="37.2896470">
    <ele>2202.7</ele>
    <time>2026-06-20T12:29:43Z</time>
   </trkpt>
   <trkpt lat="-3.1531520" lon="37.2896490">
    <ele>2202.8</ele>
    <time>2026-06-20T12:29:44Z</time>
   </trkpt>
   <trkpt lat="-3.1531490" lon="37.2896470">
    <ele>2202.8</ele>
    <time>2026-06-20T12:29:45Z</time>
   </trkpt>
   <trkpt lat="-3.1531410" lon="37.2896470">
    <ele>2203.0</ele>
    <time>2026-06-20T12:29:46Z</time>
   </trkpt>
   <trkpt lat="-3.1531310" lon="37.2896440">
    <ele>2203.2</ele>
    <time>2026-06-20T12:29:47Z</time>
   </trkpt>
   <trkpt lat="-3.1531190" lon="37.2896430">
    <ele>2203.4</ele>
    <time>2026-06-20T12:29:48Z</time>
   </trkpt>
   <trkpt lat="-3.1531160" lon="37.2896420">
    <ele>2203.4</ele>
    <time>2026-06-20T12:29:49Z</time>
   </trkpt>
   <trkpt lat="-3.1531100" lon="37.2896470">
    <ele>2203.6</ele>
    <time>2026-06-20T12:29:50Z</time>
   </trkpt>
   <trkpt lat="-3.1531020" lon="37.2896550">
    <ele>2203.8</ele>
    <time>2026-06-20T12:29:51Z</time>
   </trkpt>
   <trkpt lat="-3.1531010" lon="37.2896540">
    <ele>2203.8</ele>
    <time>2026-06-20T12:29:52Z</time>
   </trkpt>
   <trkpt lat="-3.1531040" lon="37.2896500">
    <ele>2203.9</ele>
    <time>2026-06-20T12:29:53Z</time>
   </trkpt>
   <trkpt lat="-3.1531020" lon="37.2896490">
    <ele>2203.9</ele>
    <time>2026-06-20T12:29:54Z</time>
   </trkpt>
   <trkpt lat="-3.1530980" lon="37.2896470">
    <ele>2204.0</ele>
    <time>2026-06-20T12:29:55Z</time>
   </trkpt>
   <trkpt lat="-3.1530980" lon="37.2896440">
    <ele>2204.0</ele>
    <time>2026-06-20T12:29:56Z</time>
   </trkpt>
   <trkpt lat="-3.1530960" lon="37.2896440">
    <ele>2204.1</ele>
    <time>2026-06-20T12:29:57Z</time>
   </trkpt>
   <trkpt lat="-3.1530870" lon="37.2896450">
    <ele>2204.2</ele>
    <time>2026-06-20T12:29:58Z</time>
   </trkpt>
   <trkpt lat="-3.1530850" lon="37.2896470">
    <ele>2204.3</ele>
    <time>2026-06-20T12:29:59Z</time>
   </trkpt>
   <trkpt lat="-3.1530730" lon="37.2896480">
    <ele>2204.5</ele>
    <time>2026-06-20T12:30:00Z</time>
   </trkpt>
   <trkpt lat="-3.1530660" lon="37.2896450">
    <ele>2204.6</ele>
    <time>2026-06-20T12:30:01Z</time>
   </trkpt>
   <trkpt lat="-3.1530560" lon="37.2896430">
    <ele>2204.8</ele>
    <time>2026-06-20T12:30:02Z</time>
   </trkpt>
   <trkpt lat="-3.1530470" lon="37.2896450">
    <ele>2205.0</ele>
    <time>2026-06-20T12:30:03Z</time>
   </trkpt>
   <trkpt lat="-3.1530390" lon="37.2896450">
    <ele>2205.1</ele>
    <time>2026-06-20T12:30:04Z</time>
   </trkpt>
   <trkpt lat="-3.1530340" lon="37.2896460">
    <ele>2205.2</ele>
    <time>2026-06-20T12:30:05Z</time>
   </trkpt>
   <trkpt lat="-3.1530270" lon="37.2896430">
    <ele>2205.3</ele>
    <time>2026-06-20T12:30:06Z</time>
   </trkpt>
   <trkpt lat="-3.1530220" lon="37.2896410">
    <ele>2205.4</ele>
    <time>2026-06-20T12:30:07Z</time>
   </trkpt>
   <trkpt lat="-3.1530130" lon="37.2896410">
    <ele>2205.6</ele>
    <time>2026-06-20T12:30:08Z</time>
   </trkpt>
   <trkpt lat="-3.1530110" lon="37.2896390">
    <ele>2205.6</ele>
    <time>2026-06-20T12:30:09Z</time>
   </trkpt>
   <trkpt lat="-3.1530130" lon="37.2896360">
    <ele>2205.7</ele>
    <time>2026-06-20T12:30:10Z</time>
   </trkpt>
   <trkpt lat="-3.1530140" lon="37.2896340">
    <ele>2205.7</ele>
    <time>2026-06-20T12:30:11Z</time>
   </trkpt>
   <trkpt lat="-3.1530060" lon="37.2896330">
    <ele>2205.9</ele>
    <time>2026-06-20T12:30:12Z</time>
   </trkpt>
   <trkpt lat="-3.1530060" lon="37.2896330">
    <ele>2205.9</ele>
    <time>2026-06-20T12:30:13Z</time>
   </trkpt>
   <trkpt lat="-3.1529970" lon="37.2896290">
    <ele>2206.0</ele>
    <time>2026-06-20T12:30:14Z</time>
   </trkpt>
   <trkpt lat="-3.1529980" lon="37.2896270">
    <ele>2206.1</ele>
    <time>2026-06-20T12:30:15Z</time>
   </trkpt>
   <trkpt lat="-3.1530000" lon="37.2896190">
    <ele>2206.2</ele>
    <time>2026-06-20T12:30:16Z</time>
   </trkpt>
   <trkpt lat="-3.1529950" lon="37.2896150">
    <ele>2206.3</ele>
    <time>2026-06-20T12:30:17Z</time>
   </trkpt>
   <trkpt lat="-3.1529930" lon="37.2896140">
    <ele>2206.4</ele>
    <time>2026-06-20T12:30:18Z</time>
   </trkpt>
   <trkpt lat="-3.1529900" lon="37.2896090">
    <ele>2206.5</ele>
    <time>2026-06-20T12:30:19Z</time>
   </trkpt>
   <trkpt lat="-3.1529880" lon="37.2896050">
    <ele>2206.5</ele>
    <time>2026-06-20T12:30:20Z</time>
   </trkpt>
   <trkpt lat="-3.1529870" lon="37.2896050">
    <ele>2206.6</ele>
    <time>2026-06-20T12:30:21Z</time>
   </trkpt>
   <trkpt lat="-3.1529850" lon="37.2896050">
    <ele>2206.6</ele>
    <time>2026-06-20T12:30:22Z</time>
   </trkpt>
   <trkpt lat="-3.1529770" lon="37.2896050">
    <ele>2206.7</ele>
    <time>2026-06-20T12:30:23Z</time>
   </trkpt>
   <trkpt lat="-3.1529720" lon="37.2896060">
    <ele>2206.8</ele>
    <time>2026-06-20T12:30:24Z</time>
   </trkpt>
   <trkpt lat="-3.1529660" lon="37.2896120">
    <ele>2207.0</ele>
    <time>2026-06-20T12:30:25Z</time>
   </trkpt>
   <trkpt lat="-3.1529600" lon="37.2896110">
    <ele>2207.1</ele>
    <time>2026-06-20T12:30:26Z</time>
   </trkpt>
   <trkpt lat="-3.1529580" lon="37.2896060">
    <ele>2207.2</ele>
    <time>2026-06-20T12:30:27Z</time>
   </trkpt>
   <trkpt lat="-3.1529550" lon="37.2896080">
    <ele>2207.2</ele>
    <time>2026-06-20T12:30:28Z</time>
   </trkpt>
   <trkpt lat="-3.1529490" lon="37.2896070">
    <ele>2207.3</ele>
    <time>2026-06-20T12:30:29Z</time>
   </trkpt>
   <trkpt lat="-3.1529450" lon="37.2896050">
    <ele>2207.4</ele>
    <time>2026-06-20T12:30:30Z</time>
   </trkpt>
   <trkpt lat="-3.1529390" lon="37.2896050">
    <ele>2207.5</ele>
    <time>2026-06-20T12:30:31Z</time>
   </trkpt>
   <trkpt lat="-3.1529310" lon="37.2896050">
    <ele>2207.6</ele>
    <time>2026-06-20T12:30:32Z</time>
   </trkpt>
   <trkpt lat="-3.1529210" lon="37.2896090">
    <ele>2207.8</ele>
    <time>2026-06-20T12:30:33Z</time>
   </trkpt>
   <trkpt lat="-3.1529140" lon="37.2896080">
    <ele>2208.0</ele>
    <time>2026-06-20T12:30:34Z</time>
   </trkpt>
   <trkpt lat="-3.1529170" lon="37.2896100">
    <ele>2208.0</ele>
    <time>2026-06-20T12:30:35Z</time>
   </trkpt>
   <trkpt lat="-3.1529150" lon="37.2896090">
    <ele>2208.1</ele>
    <time>2026-06-20T12:30:36Z</time>
   </trkpt>
   <trkpt lat="-3.1529070" lon="37.2896050">
    <ele>2208.2</ele>
    <time>2026-06-20T12:30:37Z</time>
   </trkpt>
   <trkpt lat="-3.1529000" lon="37.2896020">
    <ele>2208.3</ele>
    <time>2026-06-20T12:30:38Z</time>
   </trkpt>
   <trkpt lat="-3.1528960" lon="37.2895980">
    <ele>2208.4</ele>
    <time>2026-06-20T12:30:39Z</time>
   </trkpt>
   <trkpt lat="-3.1528900" lon="37.2895950">
    <ele>2208.6</ele>
    <time>2026-06-20T12:30:40Z</time>
   </trkpt>
   <trkpt lat="-3.1528870" lon="37.2895940">
    <ele>2208.6</ele>
    <time>2026-06-20T12:30:41Z</time>
   </trkpt>
   <trkpt lat="-3.1528850" lon="37.2895910">
    <ele>2208.7</ele>
    <time>2026-06-20T12:30:42Z</time>
   </trkpt>
   <trkpt lat="-3.1528820" lon="37.2895930">
    <ele>2208.7</ele>
    <time>2026-06-20T12:30:43Z</time>
   </trkpt>
   <trkpt lat="-3.1528740" lon="37.2895940">
    <ele>2208.9</ele>
    <time>2026-06-20T12:30:44Z</time>
   </trkpt>
   <trkpt lat="-3.1528750" lon="37.2895860">
    <ele>2209.0</ele>
    <time>2026-06-20T12:30:45Z</time>
   </trkpt>
   <trkpt lat="-3.1528700" lon="37.2895800">
    <ele>2209.1</ele>
    <time>2026-06-20T12:30:46Z</time>
   </trkpt>
   <trkpt lat="-3.1528670" lon="37.2895750">
    <ele>2209.2</ele>
    <time>2026-06-20T12:30:47Z</time>
   </trkpt>
   <trkpt lat="-3.1528600" lon="37.2895750">
    <ele>2209.4</ele>
    <time>2026-06-20T12:30:48Z</time>
   </trkpt>
   <trkpt lat="-3.1528540" lon="37.2895770">
    <ele>2209.5</ele>
    <time>2026-06-20T12:30:49Z</time>
   </trkpt>
   <trkpt lat="-3.1528510" lon="37.2895760">
    <ele>2209.5</ele>
    <time>2026-06-20T12:30:50Z</time>
   </trkpt>
   <trkpt lat="-3.1528500" lon="37.2895780">
    <ele>2209.6</ele>
    <time>2026-06-20T12:30:51Z</time>
   </trkpt>
   <trkpt lat="-3.1528510" lon="37.2895780">
    <ele>2209.6</ele>
    <time>2026-06-20T12:30:52Z</time>
   </trkpt>
   <trkpt lat="-3.1528510" lon="37.2895800">
    <ele>2209.6</ele>
    <time>2026-06-20T12:30:53Z</time>
   </trkpt>
   <trkpt lat="-3.1528430" lon="37.2895790">
    <ele>2209.7</ele>
    <time>2026-06-20T12:30:54Z</time>
   </trkpt>
   <trkpt lat="-3.1528370" lon="37.2895710">
    <ele>2209.9</ele>
    <time>2026-06-20T12:30:55Z</time>
   </trkpt>
   <trkpt lat="-3.1528290" lon="37.2895630">
    <ele>2210.1</ele>
    <time>2026-06-20T12:30:56Z</time>
   </trkpt>
   <trkpt lat="-3.1528220" lon="37.2895600">
    <ele>2210.2</ele>
    <time>2026-06-20T12:30:57Z</time>
   </trkpt>
   <trkpt lat="-3.1528110" lon="37.2895580">
    <ele>2210.4</ele>
    <time>2026-06-20T12:30:58Z</time>
   </trkpt>
   <trkpt lat="-3.1528090" lon="37.2895590">
    <ele>2210.5</ele>
    <time>2026-06-20T12:30:59Z</time>
   </trkpt>
   <trkpt lat="-3.1527990" lon="37.2895540">
    <ele>2210.6</ele>
    <time>2026-06-20T12:31:00Z</time>
   </trkpt>
   <trkpt lat="-3.1528000" lon="37.2895540">
    <ele>2210.6</ele>
    <time>2026-06-20T12:31:01Z</time>
   </trkpt>
   <trkpt lat="-3.1527930" lon="37.2895530">
    <ele>2210.8</ele>
    <time>2026-06-20T12:31:03Z</time>
   </trkpt>
   <trkpt lat="-3.1527790" lon="37.2895520">
    <ele>2211.0</ele>
    <time>2026-06-20T12:31:04Z</time>
   </trkpt>
   <trkpt lat="-3.1527660" lon="37.2895510">
    <ele>2211.2</ele>
    <time>2026-06-20T12:31:05Z</time>
   </trkpt>
   <trkpt lat="-3.1527600" lon="37.2895450">
    <ele>2211.3</ele>
    <time>2026-06-20T12:31:06Z</time>
   </trkpt>
   <trkpt lat="-3.1527620" lon="37.2895460">
    <ele>2211.4</ele>
    <time>2026-06-20T12:31:07Z</time>
   </trkpt>
   <trkpt lat="-3.1527550" lon="37.2895450">
    <ele>2211.5</ele>
    <time>2026-06-20T12:31:08Z</time>
   </trkpt>
   <trkpt lat="-3.1527480" lon="37.2895470">
    <ele>2211.6</ele>
    <time>2026-06-20T12:31:09Z</time>
   </trkpt>
   <trkpt lat="-3.1527420" lon="37.2895470">
    <ele>2211.7</ele>
    <time>2026-06-20T12:31:10Z</time>
   </trkpt>
   <trkpt lat="-3.1527390" lon="37.2895550">
    <ele>2211.8</ele>
    <time>2026-06-20T12:31:11Z</time>
   </trkpt>
   <trkpt lat="-3.1527380" lon="37.2895610">
    <ele>2211.9</ele>
    <time>2026-06-20T12:31:12Z</time>
   </trkpt>
   <trkpt lat="-3.1527400" lon="37.2895650">
    <ele>2212.0</ele>
    <time>2026-06-20T12:31:13Z</time>
   </trkpt>
   <trkpt lat="-3.1527350" lon="37.2895670">
    <ele>2212.1</ele>
    <time>2026-06-20T12:31:14Z</time>
   </trkpt>
   <trkpt lat="-3.1527370" lon="37.2895710">
    <ele>2212.1</ele>
    <time>2026-06-20T12:31:15Z</time>
   </trkpt>
   <trkpt lat="-3.1527290" lon="37.2895730">
    <ele>2212.2</ele>
    <time>2026-06-20T12:31:16Z</time>
   </trkpt>
   <trkpt lat="-3.1527260" lon="37.2895710">
    <ele>2212.3</ele>
    <time>2026-06-20T12:31:17Z</time>
   </trkpt>
   <trkpt lat="-3.1527290" lon="37.2895730">
    <ele>2212.4</ele>
    <time>2026-06-20T12:31:18Z</time>
   </trkpt>
   <trkpt lat="-3.1527270" lon="37.2895720">
    <ele>2212.4</ele>
    <time>2026-06-20T12:31:19Z</time>
   </trkpt>
   <trkpt lat="-3.1527190" lon="37.2895730">
    <ele>2212.5</ele>
    <time>2026-06-20T12:31:20Z</time>
   </trkpt>
   <trkpt lat="-3.1527090" lon="37.2895740">
    <ele>2212.7</ele>
    <time>2026-06-20T12:31:21Z</time>
   </trkpt>
   <trkpt lat="-3.1527010" lon="37.2895700">
    <ele>2212.8</ele>
    <time>2026-06-20T12:31:22Z</time>
   </trkpt>
   <trkpt lat="-3.1526960" lon="37.2895690">
    <ele>2212.9</ele>
    <time>2026-06-20T12:31:23Z</time>
   </trkpt>
   <trkpt lat="-3.1526980" lon="37.2895680">
    <ele>2212.9</ele>
    <time>2026-06-20T12:31:24Z</time>
   </trkpt>
   <trkpt lat="-3.1526940" lon="37.2895690">
    <ele>2212.9</ele>
    <time>2026-06-20T12:31:25Z</time>
   </trkpt>
   <trkpt lat="-3.1526870" lon="37.2895660">
    <ele>2213.1</ele>
    <time>2026-06-20T12:31:26Z</time>
   </trkpt>
   <trkpt lat="-3.1526780" lon="37.2895680">
    <ele>2213.2</ele>
    <time>2026-06-20T12:31:27Z</time>
   </trkpt>
   <trkpt lat="-3.1526660" lon="37.2895580">
    <ele>2213.4</ele>
    <time>2026-06-20T12:31:28Z</time>
   </trkpt>
   <trkpt lat="-3.1526570" lon="37.2895530">
    <ele>2213.5</ele>
    <time>2026-06-20T12:31:29Z</time>
   </trkpt>
   <trkpt lat="-3.1526460" lon="37.2895550">
    <ele>2213.7</ele>
    <time>2026-06-20T12:31:30Z</time>
   </trkpt>
   <trkpt lat="-3.1526360" lon="37.2895590">
    <ele>2213.8</ele>
    <time>2026-06-20T12:31:31Z</time>
   </trkpt>
   <trkpt lat="-3.1526260" lon="37.2895620">
    <ele>2213.9</ele>
    <time>2026-06-20T12:31:32Z</time>
   </trkpt>
   <trkpt lat="-3.1526080" lon="37.2895680">
    <ele>2214.2</ele>
    <time>2026-06-20T12:31:33Z</time>
   </trkpt>
   <trkpt lat="-3.1526020" lon="37.2895710">
    <ele>2214.3</ele>
    <time>2026-06-20T12:31:34Z</time>
   </trkpt>
   <trkpt lat="-3.1525980" lon="37.2895740">
    <ele>2214.3</ele>
    <time>2026-06-20T12:31:35Z</time>
   </trkpt>
   <trkpt lat="-3.1525920" lon="37.2895770">
    <ele>2214.4</ele>
    <time>2026-06-20T12:31:36Z</time>
   </trkpt>
   <trkpt lat="-3.1525880" lon="37.2895810">
    <ele>2214.5</ele>
    <time>2026-06-20T12:31:37Z</time>
   </trkpt>
   <trkpt lat="-3.1525900" lon="37.2895850">
    <ele>2214.6</ele>
    <time>2026-06-20T12:31:38Z</time>
   </trkpt>
   <trkpt lat="-3.1525870" lon="37.2895900">
    <ele>2214.6</ele>
    <time>2026-06-20T12:31:39Z</time>
   </trkpt>
   <trkpt lat="-3.1525850" lon="37.2895860">
    <ele>2214.7</ele>
    <time>2026-06-20T12:31:40Z</time>
   </trkpt>
   <trkpt lat="-3.1525810" lon="37.2895790">
    <ele>2214.8</ele>
    <time>2026-06-20T12:31:41Z</time>
   </trkpt>
   <trkpt lat="-3.1525730" lon="37.2895770">
    <ele>2214.9</ele>
    <time>2026-06-20T12:31:42Z</time>
   </trkpt>
   <trkpt lat="-3.1525720" lon="37.2895780">
    <ele>2214.9</ele>
    <time>2026-06-20T12:31:43Z</time>
   </trkpt>
   <trkpt lat="-3.1525680" lon="37.2895790">
    <ele>2215.0</ele>
    <time>2026-06-20T12:31:44Z</time>
   </trkpt>
   <trkpt lat="-3.1525650" lon="37.2895750">
    <ele>2215.0</ele>
    <time>2026-06-20T12:31:45Z</time>
   </trkpt>
   <trkpt lat="-3.1525580" lon="37.2895780">
    <ele>2215.1</ele>
    <time>2026-06-20T12:31:46Z</time>
   </trkpt>
   <trkpt lat="-3.1525580" lon="37.2895770">
    <ele>2215.1</ele>
    <time>2026-06-20T12:31:47Z</time>
   </trkpt>
   <trkpt lat="-3.1525560" lon="37.2895790">
    <ele>2215.2</ele>
    <time>2026-06-20T12:31:48Z</time>
   </trkpt>
   <trkpt lat="-3.1525540" lon="37.2895810">
    <ele>2215.2</ele>
    <time>2026-06-20T12:31:49Z</time>
   </trkpt>
   <trkpt lat="-3.1525530" lon="37.2895790">
    <ele>2215.2</ele>
    <time>2026-06-20T12:31:50Z</time>
   </trkpt>
   <trkpt lat="-3.1525450" lon="37.2895790">
    <ele>2215.3</ele>
    <time>2026-06-20T12:31:51Z</time>
   </trkpt>
   <trkpt lat="-3.1525400" lon="37.2895820">
    <ele>2215.4</ele>
    <time>2026-06-20T12:31:52Z</time>
   </trkpt>
   <trkpt lat="-3.1525380" lon="37.2895830">
    <ele>2215.4</ele>
    <time>2026-06-20T12:31:53Z</time>
   </trkpt>
   <trkpt lat="-3.1525350" lon="37.2895900">
    <ele>2215.5</ele>
    <time>2026-06-20T12:31:54Z</time>
   </trkpt>
   <trkpt lat="-3.1525240" lon="37.2895930">
    <ele>2215.6</ele>
    <time>2026-06-20T12:31:55Z</time>
   </trkpt>
   <trkpt lat="-3.1525150" lon="37.2895950">
    <ele>2215.8</ele>
    <time>2026-06-20T12:31:56Z</time>
   </trkpt>
   <trkpt lat="-3.1525110" lon="37.2895940">
    <ele>2215.8</ele>
    <time>2026-06-20T12:31:57Z</time>
   </trkpt>
   <trkpt lat="-3.1525090" lon="37.2895880">
    <ele>2215.9</ele>
    <time>2026-06-20T12:31:58Z</time>
   </trkpt>
   <trkpt lat="-3.1524980" lon="37.2895890">
    <ele>2216.0</ele>
    <time>2026-06-20T12:31:59Z</time>
   </trkpt>
   <trkpt lat="-3.1524900" lon="37.2895860">
    <ele>2216.1</ele>
    <time>2026-06-20T12:32:00Z</time>
   </trkpt>
   <trkpt lat="-3.1524840" lon="37.2895770">
    <ele>2216.2</ele>
    <time>2026-06-20T12:32:01Z</time>
   </trkpt>
   <trkpt lat="-3.1524770" lon="37.2895710">
    <ele>2216.3</ele>
    <time>2026-06-20T12:32:02Z</time>
   </trkpt>
   <trkpt lat="-3.1524740" lon="37.2895700">
    <ele>2216.4</ele>
    <time>2026-06-20T12:32:03Z</time>
   </trkpt>
   <trkpt lat="-3.1524700" lon="37.2895730">
    <ele>2216.4</ele>
    <time>2026-06-20T12:32:04Z</time>
   </trkpt>
   <trkpt lat="-3.1524700" lon="37.2895690">
    <ele>2216.5</ele>
    <time>2026-06-20T12:32:05Z</time>
   </trkpt>
   <trkpt lat="-3.1524670" lon="37.2895710">
    <ele>2216.5</ele>
    <time>2026-06-20T12:32:06Z</time>
   </trkpt>
   <trkpt lat="-3.1524670" lon="37.2895760">
    <ele>2216.6</ele>
    <time>2026-06-20T12:32:07Z</time>
   </trkpt>
   <trkpt lat="-3.1524690" lon="37.2895790">
    <ele>2216.6</ele>
    <time>2026-06-20T12:32:08Z</time>
   </trkpt>
   <trkpt lat="-3.1524660" lon="37.2895820">
    <ele>2216.7</ele>
    <time>2026-06-20T12:32:09Z</time>
   </trkpt>
   <trkpt lat="-3.1524530" lon="37.2895830">
    <ele>2216.8</ele>
    <time>2026-06-20T12:32:10Z</time>
   </trkpt>
   <trkpt lat="-3.1524480" lon="37.2895820">
    <ele>2216.9</ele>
    <time>2026-06-20T12:32:11Z</time>
   </trkpt>
   <trkpt lat="-3.1524450" lon="37.2895860">
    <ele>2217.0</ele>
    <time>2026-06-20T12:32:12Z</time>
   </trkpt>
   <trkpt lat="-3.1524340" lon="37.2895860">
    <ele>2217.1</ele>
    <time>2026-06-20T12:32:13Z</time>
   </trkpt>
   <trkpt lat="-3.1524280" lon="37.2895890">
    <ele>2217.2</ele>
    <time>2026-06-20T12:32:14Z</time>
   </trkpt>
   <trkpt lat="-3.1524230" lon="37.2895940">
    <ele>2217.3</ele>
    <time>2026-06-20T12:32:15Z</time>
   </trkpt>
   <trkpt lat="-3.1524200" lon="37.2895990">
    <ele>2217.3</ele>
    <time>2026-06-20T12:32:16Z</time>
   </trkpt>
   <trkpt lat="-3.1524140" lon="37.2895990">
    <ele>2217.4</ele>
    <time>2026-06-20T12:32:17Z</time>
   </trkpt>
   <trkpt lat="-3.1524060" lon="37.2896010">
    <ele>2217.5</ele>
    <time>2026-06-20T12:32:18Z</time>
   </trkpt>
   <trkpt lat="-3.1524070" lon="37.2896060">
    <ele>2217.6</ele>
    <time>2026-06-20T12:32:19Z</time>
   </trkpt>
   <trkpt lat="-3.1524020" lon="37.2896100">
    <ele>2217.6</ele>
    <time>2026-06-20T12:32:20Z</time>
   </trkpt>
   <trkpt lat="-3.1523950" lon="37.2896070">
    <ele>2217.7</ele>
    <time>2026-06-20T12:32:21Z</time>
   </trkpt>
   <trkpt lat="-3.1523940" lon="37.2896050">
    <ele>2217.8</ele>
    <time>2026-06-20T12:32:22Z</time>
   </trkpt>
   <trkpt lat="-3.1523870" lon="37.2896000">
    <ele>2217.9</ele>
    <time>2026-06-20T12:32:23Z</time>
   </trkpt>
   <trkpt lat="-3.1523740" lon="37.2896040">
    <ele>2218.0</ele>
    <time>2026-06-20T12:32:24Z</time>
   </trkpt>
   <trkpt lat="-3.1523670" lon="37.2896000">
    <ele>2218.1</ele>
    <time>2026-06-20T12:32:25Z</time>
   </trkpt>
   <trkpt lat="-3.1523590" lon="37.2895930">
    <ele>2218.3</ele>
    <time>2026-06-20T12:32:26Z</time>
   </trkpt>
   <trkpt lat="-3.1523470" lon="37.2895950">
    <ele>2218.4</ele>
    <time>2026-06-20T12:32:27Z</time>
   </trkpt>
   <trkpt lat="-3.1523370" lon="37.2895970">
    <ele>2218.5</ele>
    <time>2026-06-20T12:32:28Z</time>
   </trkpt>
   <trkpt lat="-3.1523320" lon="37.2895970">
    <ele>2218.6</ele>
    <time>2026-06-20T12:32:29Z</time>
   </trkpt>
   <trkpt lat="-3.1523370" lon="37.2895930">
    <ele>2218.7</ele>
    <time>2026-06-20T12:32:30Z</time>
   </trkpt>
   <trkpt lat="-3.1523390" lon="37.2895900">
    <ele>2218.7</ele>
    <time>2026-06-20T12:32:31Z</time>
   </trkpt>
   <trkpt lat="-3.1523350" lon="37.2895930">
    <ele>2218.8</ele>
    <time>2026-06-20T12:32:32Z</time>
   </trkpt>
   <trkpt lat="-3.1523200" lon="37.2895970">
    <ele>2219.0</ele>
    <time>2026-06-20T12:32:33Z</time>
   </trkpt>
   <trkpt lat="-3.1523090" lon="37.2895980">
    <ele>2219.1</ele>
    <time>2026-06-20T12:32:34Z</time>
   </trkpt>
   <trkpt lat="-3.1523030" lon="37.2895960">
    <ele>2219.2</ele>
    <time>2026-06-20T12:32:35Z</time>
   </trkpt>
   <trkpt lat="-3.1523010" lon="37.2895970">
    <ele>2219.2</ele>
    <time>2026-06-20T12:32:36Z</time>
   </trkpt>
   <trkpt lat="-3.1522960" lon="37.2895930">
    <ele>2219.3</ele>
    <time>2026-06-20T12:32:37Z</time>
   </trkpt>
   <trkpt lat="-3.1522960" lon="37.2895900">
    <ele>2219.3</ele>
    <time>2026-06-20T12:32:38Z</time>
   </trkpt>
   <trkpt lat="-3.1522840" lon="37.2895890">
    <ele>2219.5</ele>
    <time>2026-06-20T12:32:39Z</time>
   </trkpt>
   <trkpt lat="-3.1522830" lon="37.2895760">
    <ele>2219.6</ele>
    <time>2026-06-20T12:32:40Z</time>
   </trkpt>
   <trkpt lat="-3.1522790" lon="37.2895710">
    <ele>2219.7</ele>
    <time>2026-06-20T12:32:41Z</time>
   </trkpt>
   <trkpt lat="-3.1522760" lon="37.2895640">
    <ele>2219.8</ele>
    <time>2026-06-20T12:32:42Z</time>
   </trkpt>
   <trkpt lat="-3.1522740" lon="37.2895610">
    <ele>2219.8</ele>
    <time>2026-06-20T12:32:43Z</time>
   </trkpt>
   <trkpt lat="-3.1522650" lon="37.2895570">
    <ele>2219.9</ele>
    <time>2026-06-20T12:32:44Z</time>
   </trkpt>
   <trkpt lat="-3.1522650" lon="37.2895500">
    <ele>2220.0</ele>
    <time>2026-06-20T12:32:45Z</time>
   </trkpt>
   <trkpt lat="-3.1522550" lon="37.2895540">
    <ele>2220.1</ele>
    <time>2026-06-20T12:32:46Z</time>
   </trkpt>
   <trkpt lat="-3.1522340" lon="37.2895640">
    <ele>2220.4</ele>
    <time>2026-06-20T12:32:47Z</time>
   </trkpt>
   <trkpt lat="-3.1522180" lon="37.2895660">
    <ele>2220.6</ele>
    <time>2026-06-20T12:32:48Z</time>
   </trkpt>
   <trkpt lat="-3.1522110" lon="37.2895740">
    <ele>2220.7</ele>
    <time>2026-06-20T12:32:49Z</time>
   </trkpt>
   <trkpt lat="-3.1522130" lon="37.2895680">
    <ele>2220.7</ele>
    <time>2026-06-20T12:32:50Z</time>
   </trkpt>
   <trkpt lat="-3.1522100" lon="37.2895770">
    <ele>2220.8</ele>
    <time>2026-06-20T12:32:51Z</time>
   </trkpt>
   <trkpt lat="-3.1522040" lon="37.2895840">
    <ele>2220.9</ele>
    <time>2026-06-20T12:32:52Z</time>
   </trkpt>
   <trkpt lat="-3.1522050" lon="37.2895820">
    <ele>2220.9</ele>
    <time>2026-06-20T12:32:53Z</time>
   </trkpt>
   <trkpt lat="-3.1521990" lon="37.2895830">
    <ele>2221.0</ele>
    <time>2026-06-20T12:32:54Z</time>
   </trkpt>
   <trkpt lat="-3.1521890" lon="37.2895790">
    <ele>2221.1</ele>
    <time>2026-06-20T12:32:55Z</time>
   </trkpt>
   <trkpt lat="-3.1521820" lon="37.2895730">
    <ele>2221.2</ele>
    <time>2026-06-20T12:32:56Z</time>
   </trkpt>
   <trkpt lat="-3.1521710" lon="37.2895740">
    <ele>2221.3</ele>
    <time>2026-06-20T12:32:57Z</time>
   </trkpt>
   <trkpt lat="-3.1521640" lon="37.2895790">
    <ele>2221.4</ele>
    <time>2026-06-20T12:32:58Z</time>
   </trkpt>
   <trkpt lat="-3.1521580" lon="37.2895790">
    <ele>2221.4</ele>
    <time>2026-06-20T12:32:59Z</time>
   </trkpt>
   <trkpt lat="-3.1521450" lon="37.2895820">
    <ele>2221.6</ele>
    <time>2026-06-20T12:33:00Z</time>
   </trkpt>
   <trkpt lat="-3.1521320" lon="37.2895810">
    <ele>2221.7</ele>
    <time>2026-06-20T12:33:01Z</time>
   </trkpt>
   <trkpt lat="-3.1521230" lon="37.2895880">
    <ele>2221.8</ele>
    <time>2026-06-20T12:33:02Z</time>
   </trkpt>
   <trkpt lat="-3.1521160" lon="37.2896000">
    <ele>2221.9</ele>
    <time>2026-06-20T12:33:03Z</time>
   </trkpt>
   <trkpt lat="-3.1521040" lon="37.2896040">
    <ele>2222.0</ele>
    <time>2026-06-20T12:33:04Z</time>
   </trkpt>
   <trkpt lat="-3.1520940" lon="37.2896000">
    <ele>2222.1</ele>
    <time>2026-06-20T12:33:05Z</time>
   </trkpt>
   <trkpt lat="-3.1520920" lon="37.2895880">
    <ele>2222.2</ele>
    <time>2026-06-20T12:33:06Z</time>
   </trkpt>
   <trkpt lat="-3.1520920" lon="37.2895880">
    <ele>2222.2</ele>
    <time>2026-06-20T12:33:07Z</time>
   </trkpt>
   <trkpt lat="-3.1520860" lon="37.2895790">
    <ele>2222.3</ele>
    <time>2026-06-20T12:33:09Z</time>
   </trkpt>
   <trkpt lat="-3.1520790" lon="37.2895780">
    <ele>2222.3</ele>
    <time>2026-06-20T12:33:10Z</time>
   </trkpt>
   <trkpt lat="-3.1520740" lon="37.2895760">
    <ele>2222.4</ele>
    <time>2026-06-20T12:33:11Z</time>
   </trkpt>
   <trkpt lat="-3.1520570" lon="37.2895590">
    <ele>2222.5</ele>
    <time>2026-06-20T12:33:12Z</time>
   </trkpt>
   <trkpt lat="-3.1520500" lon="37.2895590">
    <ele>2222.6</ele>
    <time>2026-06-20T12:33:13Z</time>
   </trkpt>
   <trkpt lat="-3.1520480" lon="37.2895590">
    <ele>2222.6</ele>
    <time>2026-06-20T12:33:14Z</time>
   </trkpt>
   <trkpt lat="-3.1520450" lon="37.2895580">
    <ele>2222.6</ele>
    <time>2026-06-20T12:33:15Z</time>
   </trkpt>
   <trkpt lat="-3.1520380" lon="37.2895560">
    <ele>2222.7</ele>
    <time>2026-06-20T12:33:16Z</time>
   </trkpt>
   <trkpt lat="-3.1520360" lon="37.2895550">
    <ele>2222.7</ele>
    <time>2026-06-20T12:33:17Z</time>
   </trkpt>
   <trkpt lat="-3.1520300" lon="37.2895630">
    <ele>2222.8</ele>
    <time>2026-06-20T12:33:18Z</time>
   </trkpt>
   <trkpt lat="-3.1520310" lon="37.2895660">
    <ele>2222.8</ele>
    <time>2026-06-20T12:33:19Z</time>
   </trkpt>
   <trkpt lat="-3.1520290" lon="37.2895630">
    <ele>2222.8</ele>
    <time>2026-06-20T12:33:20Z</time>
   </trkpt>
   <trkpt lat="-3.1520150" lon="37.2895600">
    <ele>2222.9</ele>
    <time>2026-06-20T12:33:21Z</time>
   </trkpt>
   <trkpt lat="-3.1520140" lon="37.2895600">
    <ele>2222.9</ele>
    <time>2026-06-20T12:33:22Z</time>
   </trkpt>
   <trkpt lat="-3.1520220" lon="37.2895600">
    <ele>2223.0</ele>
    <time>2026-06-20T12:33:23Z</time>
   </trkpt>
   <trkpt lat="-3.1520220" lon="37.2895570">
    <ele>2223.0</ele>
    <time>2026-06-20T12:33:24Z</time>
   </trkpt>
   <trkpt lat="-3.1520120" lon="37.2895620">
    <ele>2223.1</ele>
    <time>2026-06-20T12:33:25Z</time>
   </trkpt>
   <trkpt lat="-3.1520180" lon="37.2895650">
    <ele>2223.2</ele>
    <time>2026-06-20T12:33:26Z</time>
   </trkpt>
   <trkpt lat="-3.1520130" lon="37.2895760">
    <ele>2223.2</ele>
    <time>2026-06-20T12:33:27Z</time>
   </trkpt>
   <trkpt lat="-3.1520210" lon="37.2895880">
    <ele>2223.4</ele>
    <time>2026-06-20T12:33:28Z</time>
   </trkpt>
   <trkpt lat="-3.1520290" lon="37.2895890">
    <ele>2223.4</ele>
    <time>2026-06-20T12:33:29Z</time>
   </trkpt>
   <trkpt lat="-3.1520270" lon="37.2895970">
    <ele>2223.5</ele>
    <time>2026-06-20T12:33:30Z</time>
   </trkpt>
   <trkpt lat="-3.1520090" lon="37.2895970">
    <ele>2223.6</ele>
    <time>2026-06-20T12:33:31Z</time>
   </trkpt>
   <trkpt lat="-3.1519960" lon="37.2896210">
    <ele>2223.8</ele>
    <time>2026-06-20T12:33:32Z</time>
   </trkpt>
   <trkpt lat="-3.1520050" lon="37.2896320">
    <ele>2223.9</ele>
    <time>2026-06-20T12:33:33Z</time>
   </trkpt>
   <trkpt lat="-3.1520050" lon="37.2896220">
    <ele>2224.0</ele>
    <time>2026-06-20T12:33:34Z</time>
   </trkpt>
   <trkpt lat="-3.1519960" lon="37.2896190">
    <ele>2224.1</ele>
    <time>2026-06-20T12:33:35Z</time>
   </trkpt>
   <trkpt lat="-3.1519980" lon="37.2896150">
    <ele>2224.1</ele>
    <time>2026-06-20T12:33:36Z</time>
   </trkpt>
   <trkpt lat="-3.1519970" lon="37.2896170">
    <ele>2224.1</ele>
    <time>2026-06-20T12:33:37Z</time>
   </trkpt>
   <trkpt lat="-3.1520040" lon="37.2896220">
    <ele>2224.2</ele>
    <time>2026-06-20T12:33:38Z</time>
   </trkpt>
   <trkpt lat="-3.1520040" lon="37.2896200">
    <ele>2224.2</ele>
    <time>2026-06-20T12:33:39Z</time>
   </trkpt>
   <trkpt lat="-3.1519990" lon="37.2896320">
    <ele>2224.3</ele>
    <time>2026-06-20T12:33:40Z</time>
   </trkpt>
   <trkpt lat="-3.1520080" lon="37.2896490">
    <ele>2224.4</ele>
    <time>2026-06-20T12:33:41Z</time>
   </trkpt>
   <trkpt lat="-3.1519950" lon="37.2896580">
    <ele>2224.6</ele>
    <time>2026-06-20T12:33:42Z</time>
   </trkpt>
   <trkpt lat="-3.1519900" lon="37.2896570">
    <ele>2224.6</ele>
    <time>2026-06-20T12:33:43Z</time>
   </trkpt>
   <trkpt lat="-3.1519920" lon="37.2896680">
    <ele>2224.7</ele>
    <time>2026-06-20T12:33:44Z</time>
   </trkpt>
   <trkpt lat="-3.1519860" lon="37.2896610">
    <ele>2224.8</ele>
    <time>2026-06-20T12:33:45Z</time>
   </trkpt>
   <trkpt lat="-3.1519720" lon="37.2896610">
    <ele>2224.9</ele>
    <time>2026-06-20T12:33:46Z</time>
   </trkpt>
   <trkpt lat="-3.1519590" lon="37.2896600">
    <ele>2225.0</ele>
    <time>2026-06-20T12:33:47Z</time>
   </trkpt>
   <trkpt lat="-3.1519550" lon="37.2896580">
    <ele>2225.0</ele>
    <time>2026-06-20T12:33:48Z</time>
   </trkpt>
   <trkpt lat="-3.1519560" lon="37.2896530">
    <ele>2225.1</ele>
    <time>2026-06-20T12:33:49Z</time>
   </trkpt>
   <trkpt lat="-3.1519550" lon="37.2896440">
    <ele>2225.1</ele>
    <time>2026-06-20T12:33:50Z</time>
   </trkpt>
   <trkpt lat="-3.1519390" lon="37.2896350">
    <ele>2225.3</ele>
    <time>2026-06-20T12:33:51Z</time>
   </trkpt>
   <trkpt lat="-3.1519290" lon="37.2896260">
    <ele>2225.4</ele>
    <time>2026-06-20T12:33:52Z</time>
   </trkpt>
   <trkpt lat="-3.1519210" lon="37.2896210">
    <ele>2225.5</ele>
    <time>2026-06-20T12:33:53Z</time>
   </trkpt>
   <trkpt lat="-3.1519140" lon="37.2896210">
    <ele>2225.6</ele>
    <time>2026-06-20T12:33:54Z</time>
   </trkpt>
   <trkpt lat="-3.1519070" lon="37.2896160">
    <ele>2225.6</ele>
    <time>2026-06-20T12:33:55Z</time>
   </trkpt>
   <trkpt lat="-3.1519010" lon="37.2896130">
    <ele>2225.7</ele>
    <time>2026-06-20T12:33:56Z</time>
   </trkpt>
   <trkpt lat="-3.1518920" lon="37.2896080">
    <ele>2225.8</ele>
    <time>2026-06-20T12:33:57Z</time>
   </trkpt>
   <trkpt lat="-3.1518850" lon="37.2896020">
    <ele>2225.9</ele>
    <time>2026-06-20T12:33:58Z</time>
   </trkpt>
   <trkpt lat="-3.1518730" lon="37.2896010">
    <ele>2226.0</ele>
    <time>2026-06-20T12:33:59Z</time>
   </trkpt>
   <trkpt lat="-3.1518590" lon="37.2896090">
    <ele>2226.1</ele>
    <time>2026-06-20T12:34:00Z</time>
   </trkpt>
   <trkpt lat="-3.1518540" lon="37.2896000">
    <ele>2226.2</ele>
    <time>2026-06-20T12:34:01Z</time>
   </trkpt>
   <trkpt lat="-3.1518420" lon="37.2896020">
    <ele>2226.3</ele>
    <time>2026-06-20T12:34:02Z</time>
   </trkpt>
   <trkpt lat="-3.1518300" lon="37.2896040">
    <ele>2226.4</ele>
    <time>2026-06-20T12:34:03Z</time>
   </trkpt>
   <trkpt lat="-3.1518210" lon="37.2896030">
    <ele>2226.5</ele>
    <time>2026-06-20T12:34:04Z</time>
   </trkpt>
   <trkpt lat="-3.1518160" lon="37.2896030">
    <ele>2226.6</ele>
    <time>2026-06-20T12:34:05Z</time>
   </trkpt>
   <trkpt lat="-3.1518080" lon="37.2895990">
    <ele>2226.6</ele>
    <time>2026-06-20T12:34:06Z</time>
   </trkpt>
   <trkpt lat="-3.1517990" lon="37.2895970">
    <ele>2226.7</ele>
    <time>2026-06-20T12:34:07Z</time>
   </trkpt>
   <trkpt lat="-3.1517930" lon="37.2895930">
    <ele>2226.8</ele>
    <time>2026-06-20T12:34:08Z</time>
   </trkpt>
   <trkpt lat="-3.1517870" lon="37.2895890">
    <ele>2226.9</ele>
    <time>2026-06-20T12:34:09Z</time>
   </trkpt>
   <trkpt lat="-3.1517800" lon="37.2895910">
    <ele>2226.9</ele>
    <time>2026-06-20T12:34:10Z</time>
   </trkpt>
   <trkpt lat="-3.1517670" lon="37.2895910">
    <ele>2227.1</ele>
    <time>2026-06-20T12:34:11Z</time>
   </trkpt>
   <trkpt lat="-3.1517530" lon="37.2895920">
    <ele>2227.2</ele>
    <time>2026-06-20T12:34:12Z</time>
   </trkpt>
   <trkpt lat="-3.1517450" lon="37.2895930">
    <ele>2227.3</ele>
    <time>2026-06-20T12:34:13Z</time>
   </trkpt>
   <trkpt lat="-3.1517370" lon="37.2895960">
    <ele>2227.4</ele>
    <time>2026-06-20T12:34:14Z</time>
   </trkpt>
   <trkpt lat="-3.1517260" lon="37.2895920">
    <ele>2227.5</ele>
    <time>2026-06-20T12:34:15Z</time>
   </trkpt>
   <trkpt lat="-3.1517140" lon="37.2895910">
    <ele>2227.6</ele>
    <time>2026-06-20T12:34:16Z</time>
   </trkpt>
   <trkpt lat="-3.1517070" lon="37.2895940">
    <ele>2227.7</ele>
    <time>2026-06-20T12:34:17Z</time>
   </trkpt>
   <trkpt lat="-3.1517000" lon="37.2895930">
    <ele>2227.7</ele>
    <time>2026-06-20T12:34:18Z</time>
   </trkpt>
   <trkpt lat="-3.1517000" lon="37.2895790">
    <ele>2227.9</ele>
    <time>2026-06-20T12:34:19Z</time>
   </trkpt>
   <trkpt lat="-3.1516940" lon="37.2895730">
    <ele>2228.0</ele>
    <time>2026-06-20T12:34:20Z</time>
   </trkpt>
   <trkpt lat="-3.1516820" lon="37.2895710">
    <ele>2228.1</ele>
    <time>2026-06-20T12:34:21Z</time>
   </trkpt>
   <trkpt lat="-3.1516670" lon="37.2895710">
    <ele>2228.2</ele>
    <time>2026-06-20T12:34:22Z</time>
   </trkpt>
   <trkpt lat="-3.1516610" lon="37.2895690">
    <ele>2228.3</ele>
    <time>2026-06-20T12:34:23Z</time>
   </trkpt>
   <trkpt lat="-3.1516480" lon="37.2895690">
    <ele>2228.4</ele>
    <time>2026-06-20T12:34:24Z</time>
   </trkpt>
   <trkpt lat="-3.1516450" lon="37.2895660">
    <ele>2228.5</ele>
    <time>2026-06-20T12:34:25Z</time>
   </trkpt>
   <trkpt lat="-3.1516420" lon="37.2895630">
    <ele>2228.5</ele>
    <time>2026-06-20T12:34:26Z</time>
   </trkpt>
   <trkpt lat="-3.1516360" lon="37.2895660">
    <ele>2228.6</ele>
    <time>2026-06-20T12:34:27Z</time>
   </trkpt>
   <trkpt lat="-3.1516320" lon="37.2895690">
    <ele>2228.6</ele>
    <time>2026-06-20T12:34:28Z</time>
   </trkpt>
   <trkpt lat="-3.1516280" lon="37.2895680">
    <ele>2228.7</ele>
    <time>2026-06-20T12:34:29Z</time>
   </trkpt>
   <trkpt lat="-3.1516130" lon="37.2895710">
    <ele>2228.8</ele>
    <time>2026-06-20T12:34:30Z</time>
   </trkpt>
   <trkpt lat="-3.1516050" lon="37.2895730">
    <ele>2228.9</ele>
    <time>2026-06-20T12:34:31Z</time>
   </trkpt>
   <trkpt lat="-3.1516000" lon="37.2895780">
    <ele>2229.0</ele>
    <time>2026-06-20T12:34:32Z</time>
   </trkpt>
   <trkpt lat="-3.1516000" lon="37.2895780">
    <ele>2229.0</ele>
    <time>2026-06-20T12:34:33Z</time>
   </trkpt>
   <trkpt lat="-3.1515950" lon="37.2895790">
    <ele>2229.0</ele>
    <time>2026-06-20T12:34:34Z</time>
   </trkpt>
   <trkpt lat="-3.1515890" lon="37.2895760">
    <ele>2229.1</ele>
    <time>2026-06-20T12:34:35Z</time>
   </trkpt>
   <trkpt lat="-3.1515770" lon="37.2895810">
    <ele>2229.2</ele>
    <time>2026-06-20T12:34:36Z</time>
   </trkpt>
   <trkpt lat="-3.1515720" lon="37.2895770">
    <ele>2229.3</ele>
    <time>2026-06-20T12:34:37Z</time>
   </trkpt>
   <trkpt lat="-3.1515620" lon="37.2895700">
    <ele>2229.4</ele>
    <time>2026-06-20T12:34:38Z</time>
   </trkpt>
   <trkpt lat="-3.1515580" lon="37.2895720">
    <ele>2229.4</ele>
    <time>2026-06-20T12:34:39Z</time>
   </trkpt>
   <trkpt lat="-3.1515540" lon="37.2895760">
    <ele>2229.5</ele>
    <time>2026-06-20T12:34:40Z</time>
   </trkpt>
   <trkpt lat="-3.1515520" lon="37.2895680">
    <ele>2229.6</ele>
    <time>2026-06-20T12:34:41Z</time>
   </trkpt>
   <trkpt lat="-3.1515440" lon="37.2895720">
    <ele>2229.6</ele>
    <time>2026-06-20T12:34:42Z</time>
   </trkpt>
   <trkpt lat="-3.1515400" lon="37.2895730">
    <ele>2229.7</ele>
    <time>2026-06-20T12:34:43Z</time>
   </trkpt>
   <trkpt lat="-3.1515400" lon="37.2895730">
    <ele>2229.7</ele>
    <time>2026-06-20T12:34:44Z</time>
   </trkpt>
   <trkpt lat="-3.1515430" lon="37.2895720">
    <ele>2229.7</ele>
    <time>2026-06-20T12:34:45Z</time>
   </trkpt>
   <trkpt lat="-3.1515400" lon="37.2895740">
    <ele>2229.8</ele>
    <time>2026-06-20T12:34:46Z</time>
   </trkpt>
   <trkpt lat="-3.1515390" lon="37.2895710">
    <ele>2229.8</ele>
    <time>2026-06-20T12:34:47Z</time>
   </trkpt>
   <trkpt lat="-3.1515330" lon="37.2895630">
    <ele>2229.9</ele>
    <time>2026-06-20T12:34:48Z</time>
   </trkpt>
   <trkpt lat="-3.1515330" lon="37.2895580">
    <ele>2229.9</ele>
    <time>2026-06-20T12:34:49Z</time>
   </trkpt>
   <trkpt lat="-3.1515300" lon="37.2895590">
    <ele>2230.0</ele>
    <time>2026-06-20T12:34:50Z</time>
   </trkpt>
   <trkpt lat="-3.1515230" lon="37.2895570">
    <ele>2230.0</ele>
    <time>2026-06-20T12:34:51Z</time>
   </trkpt>
   <trkpt lat="-3.1515170" lon="37.2895540">
    <ele>2230.1</ele>
    <time>2026-06-20T12:34:52Z</time>
   </trkpt>
   <trkpt lat="-3.1515110" lon="37.2895570">
    <ele>2230.2</ele>
    <time>2026-06-20T12:34:53Z</time>
   </trkpt>
   <trkpt lat="-3.1515010" lon="37.2895660">
    <ele>2230.3</ele>
    <time>2026-06-20T12:34:54Z</time>
   </trkpt>
   <trkpt lat="-3.1514940" lon="37.2895620">
    <ele>2230.4</ele>
    <time>2026-06-20T12:34:55Z</time>
   </trkpt>
   <trkpt lat="-3.1514850" lon="37.2895610">
    <ele>2230.4</ele>
    <time>2026-06-20T12:34:56Z</time>
   </trkpt>
   <trkpt lat="-3.1514790" lon="37.2895670">
    <ele>2230.5</ele>
    <time>2026-06-20T12:34:57Z</time>
   </trkpt>
   <trkpt lat="-3.1514720" lon="37.2895700">
    <ele>2230.6</ele>
    <time>2026-06-20T12:34:58Z</time>
   </trkpt>
   <trkpt lat="-3.1514650" lon="37.2895640">
    <ele>2230.7</ele>
    <time>2026-06-20T12:34:59Z</time>
   </trkpt>
   <trkpt lat="-3.1514660" lon="37.2895570">
    <ele>2230.7</ele>
    <time>2026-06-20T12:35:00Z</time>
   </trkpt>
   <trkpt lat="-3.1514590" lon="37.2895600">
    <ele>2230.8</ele>
    <time>2026-06-20T12:35:01Z</time>
   </trkpt>
   <trkpt lat="-3.1514530" lon="37.2895550">
    <ele>2230.9</ele>
    <time>2026-06-20T12:35:02Z</time>
   </trkpt>
   <trkpt lat="-3.1514480" lon="37.2895480">
    <ele>2230.9</ele>
    <time>2026-06-20T12:35:03Z</time>
   </trkpt>
   <trkpt lat="-3.1514430" lon="37.2895370">
    <ele>2231.1</ele>
    <time>2026-06-20T12:35:04Z</time>
   </trkpt>
   <trkpt lat="-3.1514360" lon="37.2895340">
    <ele>2231.1</ele>
    <time>2026-06-20T12:35:05Z</time>
   </trkpt>
   <trkpt lat="-3.1514220" lon="37.2895420">
    <ele>2231.3</ele>
    <time>2026-06-20T12:35:06Z</time>
   </trkpt>
   <trkpt lat="-3.1514040" lon="37.2895490">
    <ele>2231.4</ele>
    <time>2026-06-20T12:35:07Z</time>
   </trkpt>
   <trkpt lat="-3.1513950" lon="37.2895520">
    <ele>2231.5</ele>
    <time>2026-06-20T12:35:08Z</time>
   </trkpt>
   <trkpt lat="-3.1513890" lon="37.2895500">
    <ele>2231.6</ele>
    <time>2026-06-20T12:35:09Z</time>
   </trkpt>
   <trkpt lat="-3.1513800" lon="37.2895530">
    <ele>2231.7</ele>
    <time>2026-06-20T12:35:10Z</time>
   </trkpt>
   <trkpt lat="-3.1513700" lon="37.2895510">
    <ele>2231.7</ele>
    <time>2026-06-20T12:35:11Z</time>
   </trkpt>
   <trkpt lat="-3.1513660" lon="37.2895500">
    <ele>2231.8</ele>
    <time>2026-06-20T12:35:12Z</time>
   </trkpt>
   <trkpt lat="-3.1513560" lon="37.2895440">
    <ele>2231.9</ele>
    <time>2026-06-20T12:35:13Z</time>
   </trkpt>
   <trkpt lat="-3.1513510" lon="37.2895390">
    <ele>2231.9</ele>
    <time>2026-06-20T12:35:14Z</time>
   </trkpt>
   <trkpt lat="-3.1513320" lon="37.2895430">
    <ele>2232.1</ele>
    <time>2026-06-20T12:35:15Z</time>
   </trkpt>
   <trkpt lat="-3.1513250" lon="37.2895460">
    <ele>2232.2</ele>
    <time>2026-06-20T12:35:16Z</time>
   </trkpt>
   <trkpt lat="-3.1513250" lon="37.2895540">
    <ele>2232.2</ele>
    <time>2026-06-20T12:35:17Z</time>
   </trkpt>
   <trkpt lat="-3.1513260" lon="37.2895440">
    <ele>2232.3</ele>
    <time>2026-06-20T12:35:18Z</time>
   </trkpt>
   <trkpt lat="-3.1513250" lon="37.2895400">
    <ele>2232.4</ele>
    <time>2026-06-20T12:35:19Z</time>
   </trkpt>
   <trkpt lat="-3.1513220" lon="37.2895450">
    <ele>2232.4</ele>
    <time>2026-06-20T12:35:20Z</time>
   </trkpt>
   <trkpt lat="-3.1513200" lon="37.2895380">
    <ele>2232.5</ele>
    <time>2026-06-20T12:35:21Z</time>
   </trkpt>
   <trkpt lat="-3.1512980" lon="37.2895320">
    <ele>2232.7</ele>
    <time>2026-06-20T12:35:22Z</time>
   </trkpt>
   <trkpt lat="-3.1512940" lon="37.2895250">
    <ele>2232.7</ele>
    <time>2026-06-20T12:35:23Z</time>
   </trkpt>
   <trkpt lat="-3.1512870" lon="37.2895260">
    <ele>2232.8</ele>
    <time>2026-06-20T12:35:24Z</time>
   </trkpt>
   <trkpt lat="-3.1512870" lon="37.2895180">
    <ele>2232.9</ele>
    <time>2026-06-20T12:35:25Z</time>
   </trkpt>
   <trkpt lat="-3.1512870" lon="37.2895110">
    <ele>2232.9</ele>
    <time>2026-06-20T12:35:26Z</time>
   </trkpt>
   <trkpt lat="-3.1512840" lon="37.2895100">
    <ele>2232.9</ele>
    <time>2026-06-20T12:35:27Z</time>
   </trkpt>
   <trkpt lat="-3.1512840" lon="37.2895100">
    <ele>2232.9</ele>
    <time>2026-06-20T12:35:28Z</time>
   </trkpt>
   <trkpt lat="-3.1512850" lon="37.2895090">
    <ele>2233.0</ele>
    <time>2026-06-20T12:35:29Z</time>
   </trkpt>
   <trkpt lat="-3.1512840" lon="37.2894960">
    <ele>2233.1</ele>
    <time>2026-06-20T12:35:30Z</time>
   </trkpt>
   <trkpt lat="-3.1512700" lon="37.2894930">
    <ele>2233.2</ele>
    <time>2026-06-20T12:35:31Z</time>
   </trkpt>
   <trkpt lat="-3.1512550" lon="37.2894790">
    <ele>2233.4</ele>
    <time>2026-06-20T12:35:32Z</time>
   </trkpt>
   <trkpt lat="-3.1512420" lon="37.2894760">
    <ele>2233.5</ele>
    <time>2026-06-20T12:35:33Z</time>
   </trkpt>
   <trkpt lat="-3.1512370" lon="37.2894680">
    <ele>2233.5</ele>
    <time>2026-06-20T12:35:34Z</time>
   </trkpt>
   <trkpt lat="-3.1512260" lon="37.2894590">
    <ele>2233.6</ele>
    <time>2026-06-20T12:35:35Z</time>
   </trkpt>
   <trkpt lat="-3.1512160" lon="37.2894450">
    <ele>2233.8</ele>
    <time>2026-06-20T12:35:36Z</time>
   </trkpt>
   <trkpt lat="-3.1511960" lon="37.2894410">
    <ele>2233.9</ele>
    <time>2026-06-20T12:35:37Z</time>
   </trkpt>
   <trkpt lat="-3.1511830" lon="37.2894430">
    <ele>2234.0</ele>
    <time>2026-06-20T12:35:38Z</time>
   </trkpt>
   <trkpt lat="-3.1511750" lon="37.2894370">
    <ele>2234.1</ele>
    <time>2026-06-20T12:35:39Z</time>
   </trkpt>
   <trkpt lat="-3.1511740" lon="37.2894350">
    <ele>2234.1</ele>
    <time>2026-06-20T12:35:40Z</time>
   </trkpt>
   <trkpt lat="-3.1511710" lon="37.2894320">
    <ele>2234.1</ele>
    <time>2026-06-20T12:35:41Z</time>
   </trkpt>
   <trkpt lat="-3.1511680" lon="37.2894310">
    <ele>2234.2</ele>
    <time>2026-06-20T12:35:42Z</time>
   </trkpt>
   <trkpt lat="-3.1511630" lon="37.2894270">
    <ele>2234.2</ele>
    <time>2026-06-20T12:35:43Z</time>
   </trkpt>
   <trkpt lat="-3.1511560" lon="37.2894240">
    <ele>2234.2</ele>
    <time>2026-06-20T12:35:44Z</time>
   </trkpt>
   <trkpt lat="-3.1511500" lon="37.2894220">
    <ele>2234.3</ele>
    <time>2026-06-20T12:35:45Z</time>
   </trkpt>
   <trkpt lat="-3.1511470" lon="37.2894120">
    <ele>2234.4</ele>
    <time>2026-06-20T12:35:46Z</time>
   </trkpt>
   <trkpt lat="-3.1511410" lon="37.2894050">
    <ele>2234.4</ele>
    <time>2026-06-20T12:35:47Z</time>
   </trkpt>
   <trkpt lat="-3.1511400" lon="37.2894010">
    <ele>2234.4</ele>
    <time>2026-06-20T12:35:48Z</time>
   </trkpt>
   <trkpt lat="-3.1511400" lon="37.2893970">
    <ele>2234.5</ele>
    <time>2026-06-20T12:35:49Z</time>
   </trkpt>
   <trkpt lat="-3.1511420" lon="37.2893930">
    <ele>2234.5</ele>
    <time>2026-06-20T12:35:50Z</time>
   </trkpt>
   <trkpt lat="-3.1511350" lon="37.2893970">
    <ele>2234.5</ele>
    <time>2026-06-20T12:35:51Z</time>
   </trkpt>
   <trkpt lat="-3.1511290" lon="37.2894000">
    <ele>2234.6</ele>
    <time>2026-06-20T12:35:52Z</time>
   </trkpt>
   <trkpt lat="-3.1511250" lon="37.2893970">
    <ele>2234.6</ele>
    <time>2026-06-20T12:35:53Z</time>
   </trkpt>
   <trkpt lat="-3.1511150" lon="37.2893990">
    <ele>2234.7</ele>
    <time>2026-06-20T12:35:54Z</time>
   </trkpt>
   <trkpt lat="-3.1511030" lon="37.2893920">
    <ele>2234.7</ele>
    <time>2026-06-20T12:35:55Z</time>
   </trkpt>
   <trkpt lat="-3.1510960" lon="37.2893870">
    <ele>2234.8</ele>
    <time>2026-06-20T12:35:56Z</time>
   </trkpt>
   <trkpt lat="-3.1510910" lon="37.2893870">
    <ele>2234.8</ele>
    <time>2026-06-20T12:35:57Z</time>
   </trkpt>
   <trkpt lat="-3.1510880" lon="37.2893850">
    <ele>2234.8</ele>
    <time>2026-06-20T12:35:58Z</time>
   </trkpt>
   <trkpt lat="-3.1510830" lon="37.2893960">
    <ele>2234.9</ele>
    <time>2026-06-20T12:35:59Z</time>
   </trkpt>
   <trkpt lat="-3.1510730" lon="37.2894000">
    <ele>2234.9</ele>
    <time>2026-06-20T12:36:00Z</time>
   </trkpt>
   <trkpt lat="-3.1510670" lon="37.2893970">
    <ele>2235.0</ele>
    <time>2026-06-20T12:36:01Z</time>
   </trkpt>
   <trkpt lat="-3.1510610" lon="37.2893980">
    <ele>2235.0</ele>
    <time>2026-06-20T12:36:02Z</time>
   </trkpt>
   <trkpt lat="-3.1510550" lon="37.2893990">
    <ele>2235.0</ele>
    <time>2026-06-20T12:36:03Z</time>
   </trkpt>
   <trkpt lat="-3.1510450" lon="37.2894010">
    <ele>2235.1</ele>
    <time>2026-06-20T12:36:04Z</time>
   </trkpt>
   <trkpt lat="-3.1510450" lon="37.2894010">
    <ele>2235.1</ele>
    <time>2026-06-20T12:36:05Z</time>
   </trkpt>
   <trkpt lat="-3.1510380" lon="37.2893980">
    <ele>2235.1</ele>
    <time>2026-06-20T12:36:06Z</time>
   </trkpt>
   <trkpt lat="-3.1510300" lon="37.2894080">
    <ele>2235.1</ele>
    <time>2026-06-20T12:36:07Z</time>
   </trkpt>
   <trkpt lat="-3.1510170" lon="37.2894090">
    <ele>2235.2</ele>
    <time>2026-06-20T12:36:08Z</time>
   </trkpt>
   <trkpt lat="-3.1510070" lon="37.2894070">
    <ele>2235.2</ele>
    <time>2026-06-20T12:36:09Z</time>
   </trkpt>
   <trkpt lat="-3.1509990" lon="37.2894030">
    <ele>2235.2</ele>
    <time>2026-06-20T12:36:10Z</time>
   </trkpt>
   <trkpt lat="-3.1509960" lon="37.2894010">
    <ele>2235.2</ele>
    <time>2026-06-20T12:36:11Z</time>
   </trkpt>
   <trkpt lat="-3.1509940" lon="37.2893960">
    <ele>2235.2</ele>
    <time>2026-06-20T12:36:12Z</time>
   </trkpt>
   <trkpt lat="-3.1509840" lon="37.2893940">
    <ele>2235.3</ele>
    <time>2026-06-20T12:36:13Z</time>
   </trkpt>
   <trkpt lat="-3.1509750" lon="37.2893910">
    <ele>2235.3</ele>
    <time>2026-06-20T12:36:14Z</time>
   </trkpt>
   <trkpt lat="-3.1509680" lon="37.2893900">
    <ele>2235.3</ele>
    <time>2026-06-20T12:36:15Z</time>
   </trkpt>
   <trkpt lat="-3.1509660" lon="37.2893830">
    <ele>2235.3</ele>
    <time>2026-06-20T12:36:16Z</time>
   </trkpt>
   <trkpt lat="-3.1509590" lon="37.2893830">
    <ele>2235.3</ele>
    <time>2026-06-20T12:36:17Z</time>
   </trkpt>
   <trkpt lat="-3.1509470" lon="37.2893770">
    <ele>2235.3</ele>
    <time>2026-06-20T12:36:18Z</time>
   </trkpt>
   <trkpt lat="-3.1509530" lon="37.2893670">
    <ele>2235.3</ele>
    <time>2026-06-20T12:36:19Z</time>
   </trkpt>
   <trkpt lat="-3.1509490" lon="37.2893680">
    <ele>2235.3</ele>
    <time>2026-06-20T12:36:20Z</time>
   </trkpt>
   <trkpt lat="-3.1509430" lon="37.2893640">
    <ele>2235.3</ele>
    <time>2026-06-20T12:36:21Z</time>
   </trkpt>
   <trkpt lat="-3.1509390" lon="37.2893650">
    <ele>2235.3</ele>
    <time>2026-06-20T12:36:22Z</time>
   </trkpt>
   <trkpt lat="-3.1509320" lon="37.2893650">
    <ele>2235.3</ele>
    <time>2026-06-20T12:36:23Z</time>
   </trkpt>
   <trkpt lat="-3.1509230" lon="37.2893720">
    <ele>2235.3</ele>
    <time>2026-06-20T12:36:24Z</time>
   </trkpt>
   <trkpt lat="-3.1509120" lon="37.2893750">
    <ele>2235.3</ele>
    <time>2026-06-20T12:36:25Z</time>
   </trkpt>
   <trkpt lat="-3.1508980" lon="37.2893830">
    <ele>2235.3</ele>
    <time>2026-06-20T12:36:26Z</time>
   </trkpt>
   <trkpt lat="-3.1508860" lon="37.2893720">
    <ele>2235.3</ele>
    <time>2026-06-20T12:36:27Z</time>
   </trkpt>
   <trkpt lat="-3.1508740" lon="37.2893710">
    <ele>2235.3</ele>
    <time>2026-06-20T12:36:28Z</time>
   </trkpt>
   <trkpt lat="-3.1508570" lon="37.2893780">
    <ele>2235.3</ele>
    <time>2026-06-20T12:36:29Z</time>
   </trkpt>
   <trkpt lat="-3.1508430" lon="37.2893750">
    <ele>2235.3</ele>
    <time>2026-06-20T12:36:30Z</time>
   </trkpt>
   <trkpt lat="-3.1508300" lon="37.2893730">
    <ele>2235.2</ele>
    <time>2026-06-20T12:36:31Z</time>
   </trkpt>
   <trkpt lat="-3.1508130" lon="37.2893790">
    <ele>2235.2</ele>
    <time>2026-06-20T12:36:32Z</time>
   </trkpt>
   <trkpt lat="-3.1507950" lon="37.2893950">
    <ele>2235.2</ele>
    <time>2026-06-20T12:36:33Z</time>
   </trkpt>
   <trkpt lat="-3.1507910" lon="37.2893990">
    <ele>2235.2</ele>
    <time>2026-06-20T12:36:34Z</time>
   </trkpt>
   <trkpt lat="-3.1507900" lon="37.2893970">
    <ele>2235.2</ele>
    <time>2026-06-20T12:36:35Z</time>
   </trkpt>
   <trkpt lat="-3.1507900" lon="37.2893910">
    <ele>2235.2</ele>
    <time>2026-06-20T12:36:36Z</time>
   </trkpt>
   <trkpt lat="-3.1507880" lon="37.2893910">
    <ele>2235.2</ele>
    <time>2026-06-20T12:36:37Z</time>
   </trkpt>
   <trkpt lat="-3.1507820" lon="37.2893950">
    <ele>2235.2</ele>
    <time>2026-06-20T12:36:38Z</time>
   </trkpt>
   <trkpt lat="-3.1507840" lon="37.2893880">
    <ele>2235.2</ele>
    <time>2026-06-20T12:36:39Z</time>
   </trkpt>
   <trkpt lat="-3.1507880" lon="37.2893870">
    <ele>2235.2</ele>
    <time>2026-06-20T12:36:40Z</time>
   </trkpt>
   <trkpt lat="-3.1507810" lon="37.2893830">
    <ele>2235.1</ele>
    <time>2026-06-20T12:36:41Z</time>
   </trkpt>
   <trkpt lat="-3.1507720" lon="37.2893880">
    <ele>2235.1</ele>
    <time>2026-06-20T12:36:42Z</time>
   </trkpt>
   <trkpt lat="-3.1507680" lon="37.2894020">
    <ele>2235.1</ele>
    <time>2026-06-20T12:36:43Z</time>
   </trkpt>
   <trkpt lat="-3.1507570" lon="37.2894100">
    <ele>2235.1</ele>
    <time>2026-06-20T12:36:44Z</time>
   </trkpt>
   <trkpt lat="-3.1507490" lon="37.2894230">
    <ele>2235.1</ele>
    <time>2026-06-20T12:36:45Z</time>
   </trkpt>
   <trkpt lat="-3.1507360" lon="37.2894360">
    <ele>2235.1</ele>
    <time>2026-06-20T12:36:46Z</time>
   </trkpt>
   <trkpt lat="-3.1507250" lon="37.2894490">
    <ele>2235.1</ele>
    <time>2026-06-20T12:36:47Z</time>
   </trkpt>
   <trkpt lat="-3.1507100" lon="37.2894590">
    <ele>2235.1</ele>
    <time>2026-06-20T12:36:48Z</time>
   </trkpt>
   <trkpt lat="-3.1506990" lon="37.2894640">
    <ele>2235.1</ele>
    <time>2026-06-20T12:36:49Z</time>
   </trkpt>
   <trkpt lat="-3.1506880" lon="37.2894710">
    <ele>2235.1</ele>
    <time>2026-06-20T12:36:50Z</time>
   </trkpt>
   <trkpt lat="-3.1506750" lon="37.2894830">
    <ele>2235.1</ele>
    <time>2026-06-20T12:36:51Z</time>
   </trkpt>
   <trkpt lat="-3.1506620" lon="37.2894980">
    <ele>2235.1</ele>
    <time>2026-06-20T12:36:52Z</time>
   </trkpt>
   <trkpt lat="-3.1506480" lon="37.2895140">
    <ele>2235.1</ele>
    <time>2026-06-20T12:36:53Z</time>
   </trkpt>
   <trkpt lat="-3.1506430" lon="37.2895170">
    <ele>2235.1</ele>
    <time>2026-06-20T12:36:54Z</time>
   </trkpt>
   <trkpt lat="-3.1506420" lon="37.2895130">
    <ele>2235.1</ele>
    <time>2026-06-20T12:36:55Z</time>
   </trkpt>
   <trkpt lat="-3.1506280" lon="37.2895180">
    <ele>2235.1</ele>
    <time>2026-06-20T12:36:56Z</time>
   </trkpt>
   <trkpt lat="-3.1506170" lon="37.2895250">
    <ele>2235.1</ele>
    <time>2026-06-20T12:36:57Z</time>
   </trkpt>
   <trkpt lat="-3.1506050" lon="37.2895280">
    <ele>2235.2</ele>
    <time>2026-06-20T12:36:58Z</time>
   </trkpt>
   <trkpt lat="-3.1505990" lon="37.2895300">
    <ele>2235.2</ele>
    <time>2026-06-20T12:36:59Z</time>
   </trkpt>
   <trkpt lat="-3.1506060" lon="37.2895150">
    <ele>2235.2</ele>
    <time>2026-06-20T12:37:00Z</time>
   </trkpt>
   <trkpt lat="-3.1506150" lon="37.2895060">
    <ele>2235.2</ele>
    <time>2026-06-20T12:37:01Z</time>
   </trkpt>
   <trkpt lat="-3.1506030" lon="37.2895090">
    <ele>2235.3</ele>
    <time>2026-06-20T12:37:02Z</time>
   </trkpt>
   <trkpt lat="-3.1506010" lon="37.2895090">
    <ele>2235.3</ele>
    <time>2026-06-20T12:37:03Z</time>
   </trkpt>
   <trkpt lat="-3.1505950" lon="37.2895110">
    <ele>2235.3</ele>
    <time>2026-06-20T12:37:04Z</time>
   </trkpt>
   <trkpt lat="-3.1505830" lon="37.2895130">
    <ele>2235.3</ele>
    <time>2026-06-20T12:37:05Z</time>
   </trkpt>
   <trkpt lat="-3.1505660" lon="37.2895170">
    <ele>2235.4</ele>
    <time>2026-06-20T12:37:06Z</time>
   </trkpt>
   <trkpt lat="-3.1505330" lon="37.2895280">
    <ele>2235.6</ele>
    <time>2026-06-20T12:37:07Z</time>
   </trkpt>
   <trkpt lat="-3.1505070" lon="37.2895320">
    <ele>2235.7</ele>
    <time>2026-06-20T12:37:08Z</time>
   </trkpt>
   <trkpt lat="-3.1504940" lon="37.2895200">
    <ele>2235.8</ele>
    <time>2026-06-20T12:37:09Z</time>
   </trkpt>
   <trkpt lat="-3.1504730" lon="37.2895210">
    <ele>2235.9</ele>
    <time>2026-06-20T12:37:10Z</time>
   </trkpt>
   <trkpt lat="-3.1504660" lon="37.2895330">
    <ele>2236.0</ele>
    <time>2026-06-20T12:37:11Z</time>
   </trkpt>
   <trkpt lat="-3.1504660" lon="37.2895310">
    <ele>2236.0</ele>
    <time>2026-06-20T12:37:12Z</time>
   </trkpt>
   <trkpt lat="-3.1504620" lon="37.2895320">
    <ele>2236.1</ele>
    <time>2026-06-20T12:37:13Z</time>
   </trkpt>
   <trkpt lat="-3.1504510" lon="37.2895280">
    <ele>2236.1</ele>
    <time>2026-06-20T12:37:14Z</time>
   </trkpt>
   <trkpt lat="-3.1504460" lon="37.2895170">
    <ele>2236.2</ele>
    <time>2026-06-20T12:37:15Z</time>
   </trkpt>
   <trkpt lat="-3.1504350" lon="37.2895140">
    <ele>2236.3</ele>
    <time>2026-06-20T12:37:16Z</time>
   </trkpt>
   <trkpt lat="-3.1504300" lon="37.2895150">
    <ele>2236.3</ele>
    <time>2026-06-20T12:37:17Z</time>
   </trkpt>
   <trkpt lat="-3.1504210" lon="37.2895190">
    <ele>2236.4</ele>
    <time>2026-06-20T12:37:18Z</time>
   </trkpt>
   <trkpt lat="-3.1504190" lon="37.2895150">
    <ele>2236.4</ele>
    <time>2026-06-20T12:37:19Z</time>
   </trkpt>
   <trkpt lat="-3.1504170" lon="37.2895160">
    <ele>2236.4</ele>
    <time>2026-06-20T12:37:20Z</time>
   </trkpt>
   <trkpt lat="-3.1504170" lon="37.2895160">
    <ele>2236.4</ele>
    <time>2026-06-20T12:37:21Z</time>
   </trkpt>
   <trkpt lat="-3.1504270" lon="37.2895150">
    <ele>2236.5</ele>
    <time>2026-06-20T12:37:22Z</time>
   </trkpt>
   <trkpt lat="-3.1504270" lon="37.2895180">
    <ele>2236.5</ele>
    <time>2026-06-20T12:37:23Z</time>
   </trkpt>
   <trkpt lat="-3.1504310" lon="37.2895200">
    <ele>2236.6</ele>
    <time>2026-06-20T12:37:24Z</time>
   </trkpt>
   <trkpt lat="-3.1504310" lon="37.2895200">
    <ele>2236.6</ele>
    <time>2026-06-20T12:37:25Z</time>
   </trkpt>
   <trkpt lat="-3.1504390" lon="37.2895170">
    <ele>2236.6</ele>
    <time>2026-06-20T12:37:26Z</time>
   </trkpt>
   <trkpt lat="-3.1504390" lon="37.2895140">
    <ele>2236.6</ele>
    <time>2026-06-20T12:37:27Z</time>
   </trkpt>
   <trkpt lat="-3.1504340" lon="37.2895190">
    <ele>2236.7</ele>
    <time>2026-06-20T12:37:28Z</time>
   </trkpt>
   <trkpt lat="-3.1504440" lon="37.2895130">
    <ele>2236.8</ele>
    <time>2026-06-20T12:37:29Z</time>
   </trkpt>
   <trkpt lat="-3.1504490" lon="37.2895070">
    <ele>2236.8</ele>
    <time>2026-06-20T12:37:30Z</time>
   </trkpt>
   <trkpt lat="-3.1504420" lon="37.2895060">
    <ele>2236.9</ele>
    <time>2026-06-20T12:37:31Z</time>
   </trkpt>
   <trkpt lat="-3.1504340" lon="37.2895020">
    <ele>2236.9</ele>
    <time>2026-06-20T12:37:32Z</time>
   </trkpt>
   <trkpt lat="-3.1504310" lon="37.2895160">
    <ele>2237.0</ele>
    <time>2026-06-20T12:37:33Z</time>
   </trkpt>
   <trkpt lat="-3.1504120" lon="37.2895230">
    <ele>2237.1</ele>
    <time>2026-06-20T12:37:34Z</time>
   </trkpt>
   <trkpt lat="-3.1503970" lon="37.2895290">
    <ele>2237.3</ele>
    <time>2026-06-20T12:37:35Z</time>
   </trkpt>
   <trkpt lat="-3.1503730" lon="37.2895420">
    <ele>2237.4</ele>
    <time>2026-06-20T12:37:36Z</time>
   </trkpt>
   <trkpt lat="-3.1503560" lon="37.2895450">
    <ele>2237.5</ele>
    <time>2026-06-20T12:37:37Z</time>
   </trkpt>
   <trkpt lat="-3.1503490" lon="37.2895480">
    <ele>2237.6</ele>
    <time>2026-06-20T12:37:38Z</time>
   </trkpt>
   <trkpt lat="-3.1503460" lon="37.2895460">
    <ele>2237.6</ele>
    <time>2026-06-20T12:37:39Z</time>
   </trkpt>
   <trkpt lat="-3.1503460" lon="37.2895400">
    <ele>2237.7</ele>
    <time>2026-06-20T12:37:40Z</time>
   </trkpt>
   <trkpt lat="-3.1503420" lon="37.2895400">
    <ele>2237.7</ele>
    <time>2026-06-20T12:37:41Z</time>
   </trkpt>
   <trkpt lat="-3.1503360" lon="37.2895400">
    <ele>2237.7</ele>
    <time>2026-06-20T12:37:42Z</time>
   </trkpt>
   <trkpt lat="-3.1503370" lon="37.2895310">
    <ele>2237.8</ele>
    <time>2026-06-20T12:37:43Z</time>
   </trkpt>
   <trkpt lat="-3.1503350" lon="37.2895280">
    <ele>2237.8</ele>
    <time>2026-06-20T12:37:44Z</time>
   </trkpt>
   <trkpt lat="-3.1503330" lon="37.2895280">
    <ele>2237.8</ele>
    <time>2026-06-20T12:37:45Z</time>
   </trkpt>
   <trkpt lat="-3.1503260" lon="37.2895320">
    <ele>2237.9</ele>
    <time>2026-06-20T12:37:46Z</time>
   </trkpt>
   <trkpt lat="-3.1503210" lon="37.2895350">
    <ele>2237.9</ele>
    <time>2026-06-20T12:37:47Z</time>
   </trkpt>
   <trkpt lat="-3.1503210" lon="37.2895340">
    <ele>2237.9</ele>
    <time>2026-06-20T12:37:48Z</time>
   </trkpt>
   <trkpt lat="-3.1503210" lon="37.2895340">
    <ele>2237.9</ele>
    <time>2026-06-20T12:37:49Z</time>
   </trkpt>
   <trkpt lat="-3.1503320" lon="37.2895460">
    <ele>2238.0</ele>
    <time>2026-06-20T12:37:50Z</time>
   </trkpt>
   <trkpt lat="-3.1503320" lon="37.2895460">
    <ele>2238.0</ele>
    <time>2026-06-20T12:37:51Z</time>
   </trkpt>
   <trkpt lat="-3.1503320" lon="37.2895460">
    <ele>2238.0</ele>
    <time>2026-06-20T12:37:52Z</time>
   </trkpt>
   <trkpt lat="-3.1503320" lon="37.2895460">
    <ele>2238.0</ele>
    <time>2026-06-20T12:37:53Z</time>
   </trkpt>
   <trkpt lat="-3.1503320" lon="37.2895460">
    <ele>2238.0</ele>
    <time>2026-06-20T12:37:54Z</time>
   </trkpt>
   <trkpt lat="-3.1503510" lon="37.2895380">
    <ele>2238.1</ele>
    <time>2026-06-20T12:37:55Z</time>
   </trkpt>
   <trkpt lat="-3.1503490" lon="37.2895440">
    <ele>2238.1</ele>
    <time>2026-06-20T12:37:56Z</time>
   </trkpt>
   <trkpt lat="-3.1503600" lon="37.2895470">
    <ele>2238.2</ele>
    <time>2026-06-20T12:37:57Z</time>
   </trkpt>
   <trkpt lat="-3.1503510" lon="37.2895590">
    <ele>2238.3</ele>
    <time>2026-06-20T12:37:58Z</time>
   </trkpt>
   <trkpt lat="-3.1503500" lon="37.2895710">
    <ele>2238.3</ele>
    <time>2026-06-20T12:37:59Z</time>
   </trkpt>
   <trkpt lat="-3.1503500" lon="37.2895810">
    <ele>2238.4</ele>
    <time>2026-06-20T12:38:00Z</time>
   </trkpt>
   <trkpt lat="-3.1503510" lon="37.2895910">
    <ele>2238.4</ele>
    <time>2026-06-20T12:38:01Z</time>
   </trkpt>
   <trkpt lat="-3.1503470" lon="37.2896030">
    <ele>2238.5</ele>
    <time>2026-06-20T12:38:02Z</time>
   </trkpt>
   <trkpt lat="-3.1503430" lon="37.2896020">
    <ele>2238.5</ele>
    <time>2026-06-20T12:38:03Z</time>
   </trkpt>
   <trkpt lat="-3.1503330" lon="37.2896030">
    <ele>2238.6</ele>
    <time>2026-06-20T12:38:04Z</time>
   </trkpt>
   <trkpt lat="-3.1503260" lon="37.2896100">
    <ele>2238.6</ele>
    <time>2026-06-20T12:38:05Z</time>
   </trkpt>
   <trkpt lat="-3.1503160" lon="37.2896140">
    <ele>2238.7</ele>
    <time>2026-06-20T12:38:06Z</time>
   </trkpt>
   <trkpt lat="-3.1503070" lon="37.2896220">
    <ele>2238.7</ele>
    <time>2026-06-20T12:38:07Z</time>
   </trkpt>
   <trkpt lat="-3.1503050" lon="37.2896260">
    <ele>2238.8</ele>
    <time>2026-06-20T12:38:08Z</time>
   </trkpt>
   <trkpt lat="-3.1503090" lon="37.2896310">
    <ele>2238.8</ele>
    <time>2026-06-20T12:38:09Z</time>
   </trkpt>
   <trkpt lat="-3.1503020" lon="37.2896360">
    <ele>2238.8</ele>
    <time>2026-06-20T12:38:10Z</time>
   </trkpt>
   <trkpt lat="-3.1503040" lon="37.2896310">
    <ele>2238.9</ele>
    <time>2026-06-20T12:38:11Z</time>
   </trkpt>
   <trkpt lat="-3.1503030" lon="37.2896350">
    <ele>2238.9</ele>
    <time>2026-06-20T12:38:12Z</time>
   </trkpt>
   <trkpt lat="-3.1502990" lon="37.2896420">
    <ele>2238.9</ele>
    <time>2026-06-20T12:38:13Z</time>
   </trkpt>
   <trkpt lat="-3.1503020" lon="37.2896550">
    <ele>2239.0</ele>
    <time>2026-06-20T12:38:14Z</time>
   </trkpt>
   <trkpt lat="-3.1503000" lon="37.2896560">
    <ele>2239.0</ele>
    <time>2026-06-20T12:38:15Z</time>
   </trkpt>
   <trkpt lat="-3.1502990" lon="37.2896630">
    <ele>2239.0</ele>
    <time>2026-06-20T12:38:16Z</time>
   </trkpt>
   <trkpt lat="-3.1502920" lon="37.2896640">
    <ele>2239.1</ele>
    <time>2026-06-20T12:38:17Z</time>
   </trkpt>
   <trkpt lat="-3.1502790" lon="37.2896690">
    <ele>2239.1</ele>
    <time>2026-06-20T12:38:18Z</time>
   </trkpt>
   <trkpt lat="-3.1502750" lon="37.2896730">
    <ele>2239.1</ele>
    <time>2026-06-20T12:38:19Z</time>
   </trkpt>
   <trkpt lat="-3.1502650" lon="37.2896720">
    <ele>2239.2</ele>
    <time>2026-06-20T12:38:20Z</time>
   </trkpt>
   <trkpt lat="-3.1502560" lon="37.2896720">
    <ele>2239.2</ele>
    <time>2026-06-20T12:38:21Z</time>
   </trkpt>
   <trkpt lat="-3.1502460" lon="37.2896690">
    <ele>2239.3</ele>
    <time>2026-06-20T12:38:22Z</time>
   </trkpt>
   <trkpt lat="-3.1502360" lon="37.2896640">
    <ele>2239.3</ele>
    <time>2026-06-20T12:38:23Z</time>
   </trkpt>
   <trkpt lat="-3.1502240" lon="37.2896680">
    <ele>2239.4</ele>
    <time>2026-06-20T12:38:24Z</time>
   </trkpt>
   <trkpt lat="-3.1502190" lon="37.2896610">
    <ele>2239.4</ele>
    <time>2026-06-20T12:38:25Z</time>
   </trkpt>
   <trkpt lat="-3.1502140" lon="37.2896610">
    <ele>2239.5</ele>
    <time>2026-06-20T12:38:26Z</time>
   </trkpt>
   <trkpt lat="-3.1501920" lon="37.2896660">
    <ele>2239.6</ele>
    <time>2026-06-20T12:38:27Z</time>
   </trkpt>
   <trkpt lat="-3.1501910" lon="37.2896650">
    <ele>2239.6</ele>
    <time>2026-06-20T12:38:28Z</time>
   </trkpt>
   <trkpt lat="-3.1501820" lon="37.2896700">
    <ele>2239.6</ele>
    <time>2026-06-20T12:38:29Z</time>
   </trkpt>
   <trkpt lat="-3.1501770" lon="37.2896710">
    <ele>2239.6</ele>
    <time>2026-06-20T12:38:30Z</time>
   </trkpt>
   <trkpt lat="-3.1501830" lon="37.2896740">
    <ele>2239.7</ele>
    <time>2026-06-20T12:38:31Z</time>
   </trkpt>
   <trkpt lat="-3.1501800" lon="37.2896750">
    <ele>2239.7</ele>
    <time>2026-06-20T12:38:32Z</time>
   </trkpt>
   <trkpt lat="-3.1501770" lon="37.2896750">
    <ele>2239.7</ele>
    <time>2026-06-20T12:38:33Z</time>
   </trkpt>
   <trkpt lat="-3.1501690" lon="37.2896790">
    <ele>2239.8</ele>
    <time>2026-06-20T12:38:34Z</time>
   </trkpt>
   <trkpt lat="-3.1501720" lon="37.2896850">
    <ele>2239.8</ele>
    <time>2026-06-20T12:38:35Z</time>
   </trkpt>
   <trkpt lat="-3.1501720" lon="37.2897000">
    <ele>2239.9</ele>
    <time>2026-06-20T12:38:36Z</time>
   </trkpt>
   <trkpt lat="-3.1501660" lon="37.2897070">
    <ele>2239.9</ele>
    <time>2026-06-20T12:38:37Z</time>
   </trkpt>
   <trkpt lat="-3.1501580" lon="37.2897140">
    <ele>2240.0</ele>
    <time>2026-06-20T12:38:38Z</time>
   </trkpt>
   <trkpt lat="-3.1501640" lon="37.2897120">
    <ele>2240.0</ele>
    <time>2026-06-20T12:38:39Z</time>
   </trkpt>
   <trkpt lat="-3.1501510" lon="37.2897180">
    <ele>2240.1</ele>
    <time>2026-06-20T12:38:40Z</time>
   </trkpt>
   <trkpt lat="-3.1501470" lon="37.2897210">
    <ele>2240.1</ele>
    <time>2026-06-20T12:38:41Z</time>
   </trkpt>
   <trkpt lat="-3.1501390" lon="37.2897200">
    <ele>2240.1</ele>
    <time>2026-06-20T12:38:42Z</time>
   </trkpt>
   <trkpt lat="-3.1501370" lon="37.2897190">
    <ele>2240.1</ele>
    <time>2026-06-20T12:38:43Z</time>
   </trkpt>
   <trkpt lat="-3.1501350" lon="37.2897150">
    <ele>2240.2</ele>
    <time>2026-06-20T12:38:44Z</time>
   </trkpt>
   <trkpt lat="-3.1501080" lon="37.2897310">
    <ele>2240.3</ele>
    <time>2026-06-20T12:38:45Z</time>
   </trkpt>
   <trkpt lat="-3.1500930" lon="37.2897230">
    <ele>2240.5</ele>
    <time>2026-06-20T12:38:46Z</time>
   </trkpt>
   <trkpt lat="-3.1500710" lon="37.2897300">
    <ele>2240.6</ele>
    <time>2026-06-20T12:38:47Z</time>
   </trkpt>
   <trkpt lat="-3.1500610" lon="37.2897300">
    <ele>2240.7</ele>
    <time>2026-06-20T12:38:48Z</time>
   </trkpt>
   <trkpt lat="-3.1500590" lon="37.2897270">
    <ele>2240.7</ele>
    <time>2026-06-20T12:38:49Z</time>
   </trkpt>
   <trkpt lat="-3.1500540" lon="37.2897230">
    <ele>2240.7</ele>
    <time>2026-06-20T12:38:50Z</time>
   </trkpt>
   <trkpt lat="-3.1500490" lon="37.2897210">
    <ele>2240.8</ele>
    <time>2026-06-20T12:38:51Z</time>
   </trkpt>
   <trkpt lat="-3.1500410" lon="37.2897150">
    <ele>2240.8</ele>
    <time>2026-06-20T12:38:52Z</time>
   </trkpt>
   <trkpt lat="-3.1500330" lon="37.2897100">
    <ele>2240.9</ele>
    <time>2026-06-20T12:38:53Z</time>
   </trkpt>
   <trkpt lat="-3.1500220" lon="37.2897080">
    <ele>2241.0</ele>
    <time>2026-06-20T12:38:54Z</time>
   </trkpt>
   <trkpt lat="-3.1500110" lon="37.2897040">
    <ele>2241.1</ele>
    <time>2026-06-20T12:38:55Z</time>
   </trkpt>
   <trkpt lat="-3.1500100" lon="37.2897020">
    <ele>2241.1</ele>
    <time>2026-06-20T12:38:56Z</time>
   </trkpt>
   <trkpt lat="-3.1500010" lon="37.2896990">
    <ele>2241.1</ele>
    <time>2026-06-20T12:38:57Z</time>
   </trkpt>
   <trkpt lat="-3.1499870" lon="37.2896970">
    <ele>2241.2</ele>
    <time>2026-06-20T12:38:58Z</time>
   </trkpt>
   <trkpt lat="-3.1499770" lon="37.2896940">
    <ele>2241.3</ele>
    <time>2026-06-20T12:38:59Z</time>
   </trkpt>
   <trkpt lat="-3.1499710" lon="37.2896920">
    <ele>2241.4</ele>
    <time>2026-06-20T12:39:00Z</time>
   </trkpt>
   <trkpt lat="-3.1499700" lon="37.2896920">
    <ele>2241.4</ele>
    <time>2026-06-20T12:39:01Z</time>
   </trkpt>
   <trkpt lat="-3.1499720" lon="37.2896920">
    <ele>2241.4</ele>
    <time>2026-06-20T12:39:02Z</time>
   </trkpt>
   <trkpt lat="-3.1499720" lon="37.2896880">
    <ele>2241.4</ele>
    <time>2026-06-20T12:39:03Z</time>
   </trkpt>
   <trkpt lat="-3.1499740" lon="37.2896760">
    <ele>2241.5</ele>
    <time>2026-06-20T12:39:04Z</time>
   </trkpt>
   <trkpt lat="-3.1499720" lon="37.2896730">
    <ele>2241.5</ele>
    <time>2026-06-20T12:39:05Z</time>
   </trkpt>
   <trkpt lat="-3.1499760" lon="37.2896650">
    <ele>2241.6</ele>
    <time>2026-06-20T12:39:06Z</time>
   </trkpt>
   <trkpt lat="-3.1499720" lon="37.2896650">
    <ele>2241.6</ele>
    <time>2026-06-20T12:39:07Z</time>
   </trkpt>
   <trkpt lat="-3.1499450" lon="37.2896660">
    <ele>2241.8</ele>
    <time>2026-06-20T12:39:08Z</time>
   </trkpt>
   <trkpt lat="-3.1499180" lon="37.2896710">
    <ele>2242.0</ele>
    <time>2026-06-20T12:39:09Z</time>
   </trkpt>
   <trkpt lat="-3.1499040" lon="37.2896800">
    <ele>2242.1</ele>
    <time>2026-06-20T12:39:10Z</time>
   </trkpt>
   <trkpt lat="-3.1498970" lon="37.2896830">
    <ele>2242.2</ele>
    <time>2026-06-20T12:39:11Z</time>
   </trkpt>
   <trkpt lat="-3.1499020" lon="37.2896840">
    <ele>2242.2</ele>
    <time>2026-06-20T12:39:12Z</time>
   </trkpt>
   <trkpt lat="-3.1498980" lon="37.2896930">
    <ele>2242.3</ele>
    <time>2026-06-20T12:39:13Z</time>
   </trkpt>
   <trkpt lat="-3.1498940" lon="37.2896990">
    <ele>2242.3</ele>
    <time>2026-06-20T12:39:14Z</time>
   </trkpt>
   <trkpt lat="-3.1498870" lon="37.2897080">
    <ele>2242.4</ele>
    <time>2026-06-20T12:39:15Z</time>
   </trkpt>
   <trkpt lat="-3.1498740" lon="37.2897220">
    <ele>2242.5</ele>
    <time>2026-06-20T12:39:16Z</time>
   </trkpt>
   <trkpt lat="-3.1498740" lon="37.2897220">
    <ele>2242.5</ele>
    <time>2026-06-20T12:39:17Z</time>
   </trkpt>
   <trkpt lat="-3.1498740" lon="37.2897220">
    <ele>2242.5</ele>
    <time>2026-06-20T12:39:18Z</time>
   </trkpt>
   <trkpt lat="-3.1498420" lon="37.2897350">
    <ele>2242.7</ele>
    <time>2026-06-20T12:39:19Z</time>
   </trkpt>
   <trkpt lat="-3.1498250" lon="37.2897380">
    <ele>2242.8</ele>
    <time>2026-06-20T12:39:20Z</time>
   </trkpt>
   <trkpt lat="-3.1498070" lon="37.2897530">
    <ele>2243.0</ele>
    <time>2026-06-20T12:39:21Z</time>
   </trkpt>
   <trkpt lat="-3.1497980" lon="37.2897540">
    <ele>2243.0</ele>
    <time>2026-06-20T12:39:22Z</time>
   </trkpt>
   <trkpt lat="-3.1497890" lon="37.2897560">
    <ele>2243.1</ele>
    <time>2026-06-20T12:39:23Z</time>
   </trkpt>
   <trkpt lat="-3.1497900" lon="37.2897560">
    <ele>2243.1</ele>
    <time>2026-06-20T12:39:24Z</time>
   </trkpt>
   <trkpt lat="-3.1497710" lon="37.2897590">
    <ele>2243.2</ele>
    <time>2026-06-20T12:39:25Z</time>
   </trkpt>
   <trkpt lat="-3.1497660" lon="37.2897570">
    <ele>2243.2</ele>
    <time>2026-06-20T12:39:26Z</time>
   </trkpt>
   <trkpt lat="-3.1497700" lon="37.2897530">
    <ele>2243.2</ele>
    <time>2026-06-20T12:39:27Z</time>
   </trkpt>
   <trkpt lat="-3.1497600" lon="37.2897550">
    <ele>2243.3</ele>
    <time>2026-06-20T12:39:28Z</time>
   </trkpt>
   <trkpt lat="-3.1497580" lon="37.2897560">
    <ele>2243.3</ele>
    <time>2026-06-20T12:39:29Z</time>
   </trkpt>
   <trkpt lat="-3.1497580" lon="37.2897500">
    <ele>2243.3</ele>
    <time>2026-06-20T12:39:30Z</time>
   </trkpt>
   <trkpt lat="-3.1497560" lon="37.2897410">
    <ele>2243.4</ele>
    <time>2026-06-20T12:39:31Z</time>
   </trkpt>
   <trkpt lat="-3.1497520" lon="37.2897450">
    <ele>2243.4</ele>
    <time>2026-06-20T12:39:32Z</time>
   </trkpt>
   <trkpt lat="-3.1497530" lon="37.2897470">
    <ele>2243.4</ele>
    <time>2026-06-20T12:39:33Z</time>
   </trkpt>
   <trkpt lat="-3.1497530" lon="37.2897450">
    <ele>2243.4</ele>
    <time>2026-06-20T12:39:34Z</time>
   </trkpt>
   <trkpt lat="-3.1497600" lon="37.2897480">
    <ele>2243.4</ele>
    <time>2026-06-20T12:39:35Z</time>
   </trkpt>
   <trkpt lat="-3.1497610" lon="37.2897500">
    <ele>2243.5</ele>
    <time>2026-06-20T12:39:36Z</time>
   </trkpt>
   <trkpt lat="-3.1497600" lon="37.2897550">
    <ele>2243.5</ele>
    <time>2026-06-20T12:39:37Z</time>
   </trkpt>
   <trkpt lat="-3.1497580" lon="37.2897620">
    <ele>2243.5</ele>
    <time>2026-06-20T12:39:38Z</time>
   </trkpt>
   <trkpt lat="-3.1497610" lon="37.2897650">
    <ele>2243.5</ele>
    <time>2026-06-20T12:39:39Z</time>
   </trkpt>
   <trkpt lat="-3.1497560" lon="37.2897730">
    <ele>2243.6</ele>
    <time>2026-06-20T12:39:40Z</time>
   </trkpt>
   <trkpt lat="-3.1497500" lon="37.2897930">
    <ele>2243.6</ele>
    <time>2026-06-20T12:39:41Z</time>
   </trkpt>
   <trkpt lat="-3.1497360" lon="37.2898100">
    <ele>2243.7</ele>
    <time>2026-06-20T12:39:42Z</time>
   </trkpt>
   <trkpt lat="-3.1497300" lon="37.2898220">
    <ele>2243.8</ele>
    <time>2026-06-20T12:39:43Z</time>
   </trkpt>
   <trkpt lat="-3.1497270" lon="37.2898290">
    <ele>2243.8</ele>
    <time>2026-06-20T12:39:44Z</time>
   </trkpt>
   <trkpt lat="-3.1497250" lon="37.2898440">
    <ele>2243.9</ele>
    <time>2026-06-20T12:39:45Z</time>
   </trkpt>
   <trkpt lat="-3.1497360" lon="37.2898480">
    <ele>2243.9</ele>
    <time>2026-06-20T12:39:46Z</time>
   </trkpt>
   <trkpt lat="-3.1497220" lon="37.2898590">
    <ele>2244.0</ele>
    <time>2026-06-20T12:39:47Z</time>
   </trkpt>
   <trkpt lat="-3.1497150" lon="37.2898630">
    <ele>2244.0</ele>
    <time>2026-06-20T12:39:48Z</time>
   </trkpt>
   <trkpt lat="-3.1497080" lon="37.2898630">
    <ele>2244.0</ele>
    <time>2026-06-20T12:39:49Z</time>
   </trkpt>
   <trkpt lat="-3.1497010" lon="37.2898690">
    <ele>2244.0</ele>
    <time>2026-06-20T12:39:50Z</time>
   </trkpt>
   <trkpt lat="-3.1497020" lon="37.2898620">
    <ele>2244.1</ele>
    <time>2026-06-20T12:39:51Z</time>
   </trkpt>
   <trkpt lat="-3.1496840" lon="37.2898690">
    <ele>2244.1</ele>
    <time>2026-06-20T12:39:52Z</time>
   </trkpt>
   <trkpt lat="-3.1496780" lon="37.2898670">
    <ele>2244.2</ele>
    <time>2026-06-20T12:39:53Z</time>
   </trkpt>
   <trkpt lat="-3.1496790" lon="37.2898640">
    <ele>2244.2</ele>
    <time>2026-06-20T12:39:54Z</time>
   </trkpt>
   <trkpt lat="-3.1496750" lon="37.2898680">
    <ele>2244.2</ele>
    <time>2026-06-20T12:39:55Z</time>
   </trkpt>
   <trkpt lat="-3.1496690" lon="37.2898660">
    <ele>2244.2</ele>
    <time>2026-06-20T12:39:56Z</time>
   </trkpt>
   <trkpt lat="-3.1496620" lon="37.2898650">
    <ele>2244.2</ele>
    <time>2026-06-20T12:39:57Z</time>
   </trkpt>
   <trkpt lat="-3.1496550" lon="37.2898660">
    <ele>2244.3</ele>
    <time>2026-06-20T12:39:58Z</time>
   </trkpt>
   <trkpt lat="-3.1496500" lon="37.2898690">
    <ele>2244.3</ele>
    <time>2026-06-20T12:39:59Z</time>
   </trkpt>
   <trkpt lat="-3.1496500" lon="37.2898640">
    <ele>2244.3</ele>
    <time>2026-06-20T12:40:00Z</time>
   </trkpt>
   <trkpt lat="-3.1496420" lon="37.2898720">
    <ele>2244.4</ele>
    <time>2026-06-20T12:40:01Z</time>
   </trkpt>
   <trkpt lat="-3.1496380" lon="37.2898800">
    <ele>2244.4</ele>
    <time>2026-06-20T12:40:02Z</time>
   </trkpt>
   <trkpt lat="-3.1496290" lon="37.2898860">
    <ele>2244.5</ele>
    <time>2026-06-20T12:40:03Z</time>
   </trkpt>
   <trkpt lat="-3.1496210" lon="37.2898880">
    <ele>2244.5</ele>
    <time>2026-06-20T12:40:04Z</time>
   </trkpt>
   <trkpt lat="-3.1496090" lon="37.2898900">
    <ele>2244.5</ele>
    <time>2026-06-20T12:40:05Z</time>
   </trkpt>
   <trkpt lat="-3.1495970" lon="37.2898950">
    <ele>2244.6</ele>
    <time>2026-06-20T12:40:06Z</time>
   </trkpt>
   <trkpt lat="-3.1495880" lon="37.2898930">
    <ele>2244.7</ele>
    <time>2026-06-20T12:40:07Z</time>
   </trkpt>
   <trkpt lat="-3.1495860" lon="37.2898930">
    <ele>2244.7</ele>
    <time>2026-06-20T12:40:08Z</time>
   </trkpt>
   <trkpt lat="-3.1495840" lon="37.2898940">
    <ele>2244.7</ele>
    <time>2026-06-20T12:40:09Z</time>
   </trkpt>
   <trkpt lat="-3.1495750" lon="37.2898980">
    <ele>2244.7</ele>
    <time>2026-06-20T12:40:10Z</time>
   </trkpt>
   <trkpt lat="-3.1495670" lon="37.2899050">
    <ele>2244.8</ele>
    <time>2026-06-20T12:40:11Z</time>
   </trkpt>
   <trkpt lat="-3.1495680" lon="37.2899100">
    <ele>2244.8</ele>
    <time>2026-06-20T12:40:12Z</time>
   </trkpt>
   <trkpt lat="-3.1495650" lon="37.2899100">
    <ele>2244.8</ele>
    <time>2026-06-20T12:40:13Z</time>
   </trkpt>
   <trkpt lat="-3.1495550" lon="37.2899130">
    <ele>2244.9</ele>
    <time>2026-06-20T12:40:14Z</time>
   </trkpt>
   <trkpt lat="-3.1495460" lon="37.2899120">
    <ele>2244.9</ele>
    <time>2026-06-20T12:40:15Z</time>
   </trkpt>
   <trkpt lat="-3.1495460" lon="37.2899100">
    <ele>2244.9</ele>
    <time>2026-06-20T12:40:16Z</time>
   </trkpt>
   <trkpt lat="-3.1495390" lon="37.2899100">
    <ele>2245.0</ele>
    <time>2026-06-20T12:40:17Z</time>
   </trkpt>
   <trkpt lat="-3.1495300" lon="37.2899130">
    <ele>2245.0</ele>
    <time>2026-06-20T12:40:18Z</time>
   </trkpt>
   <trkpt lat="-3.1495280" lon="37.2899160">
    <ele>2245.1</ele>
    <time>2026-06-20T12:40:19Z</time>
   </trkpt>
   <trkpt lat="-3.1495180" lon="37.2899180">
    <ele>2245.1</ele>
    <time>2026-06-20T12:40:20Z</time>
   </trkpt>
   <trkpt lat="-3.1495120" lon="37.2899210">
    <ele>2245.2</ele>
    <time>2026-06-20T12:40:21Z</time>
   </trkpt>
   <trkpt lat="-3.1495010" lon="37.2899290">
    <ele>2245.3</ele>
    <time>2026-06-20T12:40:22Z</time>
   </trkpt>
   <trkpt lat="-3.1494940" lon="37.2899300">
    <ele>2245.3</ele>
    <time>2026-06-20T12:40:23Z</time>
   </trkpt>
   <trkpt lat="-3.1494960" lon="37.2899280">
    <ele>2245.3</ele>
    <time>2026-06-20T12:40:24Z</time>
   </trkpt>
   <trkpt lat="-3.1494920" lon="37.2899320">
    <ele>2245.4</ele>
    <time>2026-06-20T12:40:25Z</time>
   </trkpt>
   <trkpt lat="-3.1494890" lon="37.2899340">
    <ele>2245.4</ele>
    <time>2026-06-20T12:40:26Z</time>
   </trkpt>
   <trkpt lat="-3.1494650" lon="37.2899410">
    <ele>2245.6</ele>
    <time>2026-06-20T12:40:27Z</time>
   </trkpt>
   <trkpt lat="-3.1494510" lon="37.2899400">
    <ele>2245.7</ele>
    <time>2026-06-20T12:40:28Z</time>
   </trkpt>
   <trkpt lat="-3.1494430" lon="37.2899420">
    <ele>2245.7</ele>
    <time>2026-06-20T12:40:29Z</time>
   </trkpt>
   <trkpt lat="-3.1494320" lon="37.2899480">
    <ele>2245.9</ele>
    <time>2026-06-20T12:40:30Z</time>
   </trkpt>
   <trkpt lat="-3.1494180" lon="37.2899510">
    <ele>2246.0</ele>
    <time>2026-06-20T12:40:31Z</time>
   </trkpt>
   <trkpt lat="-3.1494070" lon="37.2899580">
    <ele>2246.1</ele>
    <time>2026-06-20T12:40:32Z</time>
   </trkpt>
   <trkpt lat="-3.1494070" lon="37.2899450">
    <ele>2246.2</ele>
    <time>2026-06-20T12:40:33Z</time>
   </trkpt>
   <trkpt lat="-3.1493870" lon="37.2899550">
    <ele>2246.5</ele>
    <time>2026-06-20T12:40:34Z</time>
   </trkpt>
   <trkpt lat="-3.1493700" lon="37.2899650">
    <ele>2246.7</ele>
    <time>2026-06-20T12:40:35Z</time>
   </trkpt>
   <trkpt lat="-3.1493520" lon="37.2899720">
    <ele>2246.9</ele>
    <time>2026-06-20T12:40:36Z</time>
   </trkpt>
   <trkpt lat="-3.1493440" lon="37.2899780">
    <ele>2247.0</ele>
    <time>2026-06-20T12:40:37Z</time>
   </trkpt>
   <trkpt lat="-3.1493400" lon="37.2899840">
    <ele>2247.1</ele>
    <time>2026-06-20T12:40:38Z</time>
   </trkpt>
   <trkpt lat="-3.1493320" lon="37.2899940">
    <ele>2247.2</ele>
    <time>2026-06-20T12:40:39Z</time>
   </trkpt>
   <trkpt lat="-3.1493230" lon="37.2899980">
    <ele>2247.3</ele>
    <time>2026-06-20T12:40:40Z</time>
   </trkpt>
   <trkpt lat="-3.1493120" lon="37.2900050">
    <ele>2247.5</ele>
    <time>2026-06-20T12:40:41Z</time>
   </trkpt>
   <trkpt lat="-3.1493130" lon="37.2899970">
    <ele>2247.6</ele>
    <time>2026-06-20T12:40:42Z</time>
   </trkpt>
   <trkpt lat="-3.1493120" lon="37.2899940">
    <ele>2247.6</ele>
    <time>2026-06-20T12:40:43Z</time>
   </trkpt>
   <trkpt lat="-3.1493130" lon="37.2899880">
    <ele>2247.7</ele>
    <time>2026-06-20T12:40:44Z</time>
   </trkpt>
   <trkpt lat="-3.1493110" lon="37.2899860">
    <ele>2247.7</ele>
    <time>2026-06-20T12:40:45Z</time>
   </trkpt>
   <trkpt lat="-3.1493010" lon="37.2899840">
    <ele>2247.8</ele>
    <time>2026-06-20T12:40:46Z</time>
   </trkpt>
   <trkpt lat="-3.1492940" lon="37.2899890">
    <ele>2247.9</ele>
    <time>2026-06-20T12:40:47Z</time>
   </trkpt>
   <trkpt lat="-3.1492840" lon="37.2899940">
    <ele>2248.0</ele>
    <time>2026-06-20T12:40:48Z</time>
   </trkpt>
   <trkpt lat="-3.1492840" lon="37.2899960">
    <ele>2248.1</ele>
    <time>2026-06-20T12:40:49Z</time>
   </trkpt>
   <trkpt lat="-3.1492850" lon="37.2899980">
    <ele>2248.1</ele>
    <time>2026-06-20T12:40:50Z</time>
   </trkpt>
   <trkpt lat="-3.1492850" lon="37.2899970">
    <ele>2248.1</ele>
    <time>2026-06-20T12:40:51Z</time>
   </trkpt>
   <trkpt lat="-3.1492850" lon="37.2899970">
    <ele>2248.1</ele>
    <time>2026-06-20T12:40:52Z</time>
   </trkpt>
   <trkpt lat="-3.1492850" lon="37.2899970">
    <ele>2248.1</ele>
    <time>2026-06-20T12:40:53Z</time>
   </trkpt>
   <trkpt lat="-3.1492790" lon="37.2900030">
    <ele>2248.2</ele>
    <time>2026-06-20T12:40:54Z</time>
   </trkpt>
   <trkpt lat="-3.1492740" lon="37.2900070">
    <ele>2248.3</ele>
    <time>2026-06-20T12:40:55Z</time>
   </trkpt>
   <trkpt lat="-3.1492670" lon="37.2900110">
    <ele>2248.4</ele>
    <time>2026-06-20T12:40:56Z</time>
   </trkpt>
   <trkpt lat="-3.1492610" lon="37.2900130">
    <ele>2248.4</ele>
    <time>2026-06-20T12:40:57Z</time>
   </trkpt>
   <trkpt lat="-3.1492550" lon="37.2900180">
    <ele>2248.5</ele>
    <time>2026-06-20T12:40:58Z</time>
   </trkpt>
   <trkpt lat="-3.1492390" lon="37.2900270">
    <ele>2248.7</ele>
    <time>2026-06-20T12:40:59Z</time>
   </trkpt>
   <trkpt lat="-3.1492290" lon="37.2900280">
    <ele>2248.9</ele>
    <time>2026-06-20T12:41:00Z</time>
   </trkpt>
   <trkpt lat="-3.1492200" lon="37.2900230">
    <ele>2249.0</ele>
    <time>2026-06-20T12:41:01Z</time>
   </trkpt>
   <trkpt lat="-3.1492040" lon="37.2900270">
    <ele>2249.2</ele>
    <time>2026-06-20T12:41:02Z</time>
   </trkpt>
   <trkpt lat="-3.1491880" lon="37.2900300">
    <ele>2249.3</ele>
    <time>2026-06-20T12:41:03Z</time>
   </trkpt>
   <trkpt lat="-3.1491810" lon="37.2900320">
    <ele>2249.4</ele>
    <time>2026-06-20T12:41:04Z</time>
   </trkpt>
   <trkpt lat="-3.1491660" lon="37.2900350">
    <ele>2249.6</ele>
    <time>2026-06-20T12:41:05Z</time>
   </trkpt>
   <trkpt lat="-3.1491650" lon="37.2900380">
    <ele>2249.6</ele>
    <time>2026-06-20T12:41:06Z</time>
   </trkpt>
   <trkpt lat="-3.1491620" lon="37.2900340">
    <ele>2249.6</ele>
    <time>2026-06-20T12:41:07Z</time>
   </trkpt>
   <trkpt lat="-3.1491620" lon="37.2900340">
    <ele>2249.6</ele>
    <time>2026-06-20T12:41:08Z</time>
   </trkpt>
   <trkpt lat="-3.1491620" lon="37.2900340">
    <ele>2249.6</ele>
    <time>2026-06-20T12:41:09Z</time>
   </trkpt>
   <trkpt lat="-3.1491510" lon="37.2900320">
    <ele>2249.8</ele>
    <time>2026-06-20T12:41:10Z</time>
   </trkpt>
   <trkpt lat="-3.1491490" lon="37.2900360">
    <ele>2249.8</ele>
    <time>2026-06-20T12:41:11Z</time>
   </trkpt>
   <trkpt lat="-3.1491410" lon="37.2900450">
    <ele>2249.9</ele>
    <time>2026-06-20T12:41:12Z</time>
   </trkpt>
   <trkpt lat="-3.1491370" lon="37.2900500">
    <ele>2250.0</ele>
    <time>2026-06-20T12:41:13Z</time>
   </trkpt>
   <trkpt lat="-3.1491280" lon="37.2900790">
    <ele>2250.3</ele>
    <time>2026-06-20T12:41:14Z</time>
   </trkpt>
   <trkpt lat="-3.1491230" lon="37.2900740">
    <ele>2250.3</ele>
    <time>2026-06-20T12:41:15Z</time>
   </trkpt>
   <trkpt lat="-3.1491120" lon="37.2900640">
    <ele>2250.5</ele>
    <time>2026-06-20T12:41:16Z</time>
   </trkpt>
   <trkpt lat="-3.1491060" lon="37.2900590">
    <ele>2250.5</ele>
    <time>2026-06-20T12:41:17Z</time>
   </trkpt>
   <trkpt lat="-3.1490940" lon="37.2900540">
    <ele>2250.6</ele>
    <time>2026-06-20T12:41:18Z</time>
   </trkpt>
   <trkpt lat="-3.1490870" lon="37.2900540">
    <ele>2250.7</ele>
    <time>2026-06-20T12:41:19Z</time>
   </trkpt>
   <trkpt lat="-3.1490820" lon="37.2900600">
    <ele>2250.7</ele>
    <time>2026-06-20T12:41:20Z</time>
   </trkpt>
   <trkpt lat="-3.1490760" lon="37.2900650">
    <ele>2250.8</ele>
    <time>2026-06-20T12:41:21Z</time>
   </trkpt>
   <trkpt lat="-3.1490670" lon="37.2900700">
    <ele>2250.9</ele>
    <time>2026-06-20T12:41:22Z</time>
   </trkpt>
   <trkpt lat="-3.1490600" lon="37.2900800">
    <ele>2251.0</ele>
    <time>2026-06-20T12:41:23Z</time>
   </trkpt>
   <trkpt lat="-3.1490560" lon="37.2900860">
    <ele>2251.0</ele>
    <time>2026-06-20T12:41:24Z</time>
   </trkpt>
   <trkpt lat="-3.1490480" lon="37.2900940">
    <ele>2251.1</ele>
    <time>2026-06-20T12:41:25Z</time>
   </trkpt>
   <trkpt lat="-3.1490380" lon="37.2901020">
    <ele>2251.2</ele>
    <time>2026-06-20T12:41:26Z</time>
   </trkpt>
   <trkpt lat="-3.1490300" lon="37.2901040">
    <ele>2251.3</ele>
    <time>2026-06-20T12:41:27Z</time>
   </trkpt>
   <trkpt lat="-3.1490190" lon="37.2901110">
    <ele>2251.4</ele>
    <time>2026-06-20T12:41:28Z</time>
   </trkpt>
   <trkpt lat="-3.1490090" lon="37.2901130">
    <ele>2251.5</ele>
    <time>2026-06-20T12:41:29Z</time>
   </trkpt>
   <trkpt lat="-3.1490100" lon="37.2901160">
    <ele>2251.5</ele>
    <time>2026-06-20T12:41:30Z</time>
   </trkpt>
   <trkpt lat="-3.1490090" lon="37.2901360">
    <ele>2251.7</ele>
    <time>2026-06-20T12:41:31Z</time>
   </trkpt>
   <trkpt lat="-3.1490060" lon="37.2901410">
    <ele>2251.7</ele>
    <time>2026-06-20T12:41:32Z</time>
   </trkpt>
   <trkpt lat="-3.1489900" lon="37.2901480">
    <ele>2251.9</ele>
    <time>2026-06-20T12:41:33Z</time>
   </trkpt>
   <trkpt lat="-3.1489840" lon="37.2901470">
    <ele>2251.9</ele>
    <time>2026-06-20T12:41:34Z</time>
   </trkpt>
   <trkpt lat="-3.1489780" lon="37.2901390">
    <ele>2252.0</ele>
    <time>2026-06-20T12:41:35Z</time>
   </trkpt>
   <trkpt lat="-3.1489690" lon="37.2901420">
    <ele>2252.1</ele>
    <time>2026-06-20T12:41:36Z</time>
   </trkpt>
   <trkpt lat="-3.1489690" lon="37.2901380">
    <ele>2252.1</ele>
    <time>2026-06-20T12:41:37Z</time>
   </trkpt>
   <trkpt lat="-3.1489580" lon="37.2901370">
    <ele>2252.2</ele>
    <time>2026-06-20T12:41:38Z</time>
   </trkpt>
   <trkpt lat="-3.1489570" lon="37.2901350">
    <ele>2252.2</ele>
    <time>2026-06-20T12:41:39Z</time>
   </trkpt>
   <trkpt lat="-3.1489490" lon="37.2901310">
    <ele>2252.3</ele>
    <time>2026-06-20T12:41:40Z</time>
   </trkpt>
   <trkpt lat="-3.1489410" lon="37.2901290">
    <ele>2252.4</ele>
    <time>2026-06-20T12:41:41Z</time>
   </trkpt>
   <trkpt lat="-3.1489320" lon="37.2901390">
    <ele>2252.5</ele>
    <time>2026-06-20T12:41:42Z</time>
   </trkpt>
   <trkpt lat="-3.1489260" lon="37.2901490">
    <ele>2252.6</ele>
    <time>2026-06-20T12:41:43Z</time>
   </trkpt>
   <trkpt lat="-3.1489230" lon="37.2901530">
    <ele>2252.6</ele>
    <time>2026-06-20T12:41:44Z</time>
   </trkpt>
   <trkpt lat="-3.1489210" lon="37.2901610">
    <ele>2252.7</ele>
    <time>2026-06-20T12:41:45Z</time>
   </trkpt>
   <trkpt lat="-3.1489210" lon="37.2901690">
    <ele>2252.8</ele>
    <time>2026-06-20T12:41:46Z</time>
   </trkpt>
   <trkpt lat="-3.1489190" lon="37.2901850">
    <ele>2252.9</ele>
    <time>2026-06-20T12:41:47Z</time>
   </trkpt>
   <trkpt lat="-3.1489160" lon="37.2901930">
    <ele>2253.0</ele>
    <time>2026-06-20T12:41:48Z</time>
   </trkpt>
   <trkpt lat="-3.1489130" lon="37.2901980">
    <ele>2253.0</ele>
    <time>2026-06-20T12:41:49Z</time>
   </trkpt>
   <trkpt lat="-3.1489080" lon="37.2902020">
    <ele>2253.1</ele>
    <time>2026-06-20T12:41:50Z</time>
   </trkpt>
   <trkpt lat="-3.1489070" lon="37.2902110">
    <ele>2253.2</ele>
    <time>2026-06-20T12:41:51Z</time>
   </trkpt>
   <trkpt lat="-3.1489030" lon="37.2902230">
    <ele>2253.3</ele>
    <time>2026-06-20T12:41:52Z</time>
   </trkpt>
   <trkpt lat="-3.1489010" lon="37.2902360">
    <ele>2253.4</ele>
    <time>2026-06-20T12:41:53Z</time>
   </trkpt>
   <trkpt lat="-3.1488950" lon="37.2902480">
    <ele>2253.6</ele>
    <time>2026-06-20T12:41:54Z</time>
   </trkpt>
   <trkpt lat="-3.1488970" lon="37.2902550">
    <ele>2253.6</ele>
    <time>2026-06-20T12:41:55Z</time>
   </trkpt>
   <trkpt lat="-3.1488960" lon="37.2902660">
    <ele>2253.8</ele>
    <time>2026-06-20T12:41:56Z</time>
   </trkpt>
   <trkpt lat="-3.1488950" lon="37.2902720">
    <ele>2253.8</ele>
    <time>2026-06-20T12:41:57Z</time>
   </trkpt>
   <trkpt lat="-3.1488920" lon="37.2902800">
    <ele>2253.9</ele>
    <time>2026-06-20T12:41:58Z</time>
   </trkpt>
   <trkpt lat="-3.1488880" lon="37.2902900">
    <ele>2254.0</ele>
    <time>2026-06-20T12:41:59Z</time>
   </trkpt>
   <trkpt lat="-3.1488810" lon="37.2903090">
    <ele>2254.2</ele>
    <time>2026-06-20T12:42:00Z</time>
   </trkpt>
   <trkpt lat="-3.1488790" lon="37.2903200">
    <ele>2254.4</ele>
    <time>2026-06-20T12:42:01Z</time>
   </trkpt>
   <trkpt lat="-3.1488770" lon="37.2903260">
    <ele>2254.4</ele>
    <time>2026-06-20T12:42:02Z</time>
   </trkpt>
   <trkpt lat="-3.1488720" lon="37.2903320">
    <ele>2254.5</ele>
    <time>2026-06-20T12:42:03Z</time>
   </trkpt>
   <trkpt lat="-3.1488690" lon="37.2903340">
    <ele>2254.5</ele>
    <time>2026-06-20T12:42:04Z</time>
   </trkpt>
   <trkpt lat="-3.1488640" lon="37.2903440">
    <ele>2254.7</ele>
    <time>2026-06-20T12:42:05Z</time>
   </trkpt>
   <trkpt lat="-3.1488640" lon="37.2903470">
    <ele>2254.7</ele>
    <time>2026-06-20T12:42:06Z</time>
   </trkpt>
   <trkpt lat="-3.1488620" lon="37.2903560">
    <ele>2254.8</ele>
    <time>2026-06-20T12:42:07Z</time>
   </trkpt>
   <trkpt lat="-3.1488570" lon="37.2903660">
    <ele>2254.9</ele>
    <time>2026-06-20T12:42:08Z</time>
   </trkpt>
   <trkpt lat="-3.1488550" lon="37.2903720">
    <ele>2255.0</ele>
    <time>2026-06-20T12:42:09Z</time>
   </trkpt>
   <trkpt lat="-3.1488530" lon="37.2903770">
    <ele>2255.1</ele>
    <time>2026-06-20T12:42:10Z</time>
   </trkpt>
   <trkpt lat="-3.1488490" lon="37.2903880">
    <ele>2255.2</ele>
    <time>2026-06-20T12:42:11Z</time>
   </trkpt>
   <trkpt lat="-3.1488530" lon="37.2903830">
    <ele>2255.3</ele>
    <time>2026-06-20T12:42:12Z</time>
   </trkpt>
   <trkpt lat="-3.1488490" lon="37.2903870">
    <ele>2255.4</ele>
    <time>2026-06-20T12:42:13Z</time>
   </trkpt>
   <trkpt lat="-3.1488380" lon="37.2903950">
    <ele>2255.5</ele>
    <time>2026-06-20T12:42:14Z</time>
   </trkpt>
   <trkpt lat="-3.1488300" lon="37.2904060">
    <ele>2255.7</ele>
    <time>2026-06-20T12:42:15Z</time>
   </trkpt>
   <trkpt lat="-3.1488280" lon="37.2904170">
    <ele>2255.9</ele>
    <time>2026-06-20T12:42:16Z</time>
   </trkpt>
   <trkpt lat="-3.1488260" lon="37.2904260">
    <ele>2256.0</ele>
    <time>2026-06-20T12:42:17Z</time>
   </trkpt>
   <trkpt lat="-3.1488290" lon="37.2904400">
    <ele>2256.2</ele>
    <time>2026-06-20T12:42:18Z</time>
   </trkpt>
   <trkpt lat="-3.1488300" lon="37.2904410">
    <ele>2256.2</ele>
    <time>2026-06-20T12:42:19Z</time>
   </trkpt>
   <trkpt lat="-3.1488220" lon="37.2904450">
    <ele>2256.3</ele>
    <time>2026-06-20T12:42:20Z</time>
   </trkpt>
   <trkpt lat="-3.1488240" lon="37.2904620">
    <ele>2256.6</ele>
    <time>2026-06-20T12:42:21Z</time>
   </trkpt>
   <trkpt lat="-3.1488240" lon="37.2904730">
    <ele>2256.7</ele>
    <time>2026-06-20T12:42:22Z</time>
   </trkpt>
   <trkpt lat="-3.1488220" lon="37.2904840">
    <ele>2256.9</ele>
    <time>2026-06-20T12:42:23Z</time>
   </trkpt>
   <trkpt lat="-3.1488210" lon="37.2904900">
    <ele>2257.0</ele>
    <time>2026-06-20T12:42:24Z</time>
   </trkpt>
   <trkpt lat="-3.1488200" lon="37.2905030">
    <ele>2257.2</ele>
    <time>2026-06-20T12:42:25Z</time>
   </trkpt>
   <trkpt lat="-3.1488190" lon="37.2905180">
    <ele>2257.4</ele>
    <time>2026-06-20T12:42:26Z</time>
   </trkpt>
   <trkpt lat="-3.1488160" lon="37.2905190">
    <ele>2257.5</ele>
    <time>2026-06-20T12:42:27Z</time>
   </trkpt>
   <trkpt lat="-3.1488200" lon="37.2905140">
    <ele>2257.6</ele>
    <time>2026-06-20T12:42:28Z</time>
   </trkpt>
   <trkpt lat="-3.1488250" lon="37.2905240">
    <ele>2257.7</ele>
    <time>2026-06-20T12:42:29Z</time>
   </trkpt>
   <trkpt lat="-3.1488220" lon="37.2905290">
    <ele>2257.8</ele>
    <time>2026-06-20T12:42:30Z</time>
   </trkpt>
   <trkpt lat="-3.1488160" lon="37.2905320">
    <ele>2257.9</ele>
    <time>2026-06-20T12:42:31Z</time>
   </trkpt>
   <trkpt lat="-3.1488130" lon="37.2905380">
    <ele>2258.0</ele>
    <time>2026-06-20T12:42:32Z</time>
   </trkpt>
   <trkpt lat="-3.1488090" lon="37.2905410">
    <ele>2258.1</ele>
    <time>2026-06-20T12:42:33Z</time>
   </trkpt>
   <trkpt lat="-3.1488080" lon="37.2905580">
    <ele>2258.4</ele>
    <time>2026-06-20T12:42:34Z</time>
   </trkpt>
   <trkpt lat="-3.1488070" lon="37.2905700">
    <ele>2258.6</ele>
    <time>2026-06-20T12:42:35Z</time>
   </trkpt>
   <trkpt lat="-3.1488060" lon="37.2905820">
    <ele>2258.8</ele>
    <time>2026-06-20T12:42:36Z</time>
   </trkpt>
   <trkpt lat="-3.1488060" lon="37.2905880">
    <ele>2258.9</ele>
    <time>2026-06-20T12:42:37Z</time>
   </trkpt>
   <trkpt lat="-3.1488160" lon="37.2905770">
    <ele>2259.1</ele>
    <time>2026-06-20T12:42:38Z</time>
   </trkpt>
   <trkpt lat="-3.1488180" lon="37.2905880">
    <ele>2259.3</ele>
    <time>2026-06-20T12:42:39Z</time>
   </trkpt>
   <trkpt lat="-3.1488250" lon="37.2905760">
    <ele>2259.5</ele>
    <time>2026-06-20T12:42:40Z</time>
   </trkpt>
   <trkpt lat="-3.1488350" lon="37.2905860">
    <ele>2259.8</ele>
    <time>2026-06-20T12:42:41Z</time>
   </trkpt>
   <trkpt lat="-3.1488370" lon="37.2905720">
    <ele>2260.0</ele>
    <time>2026-06-20T12:42:42Z</time>
   </trkpt>
   <trkpt lat="-3.1488300" lon="37.2905770">
    <ele>2260.2</ele>
    <time>2026-06-20T12:42:43Z</time>
   </trkpt>
   <trkpt lat="-3.1488180" lon="37.2905810">
    <ele>2260.4</ele>
    <time>2026-06-20T12:42:44Z</time>
   </trkpt>
   <trkpt lat="-3.1488280" lon="37.2905830">
    <ele>2260.5</ele>
    <time>2026-06-20T12:42:45Z</time>
   </trkpt>
   <trkpt lat="-3.1488310" lon="37.2905890">
    <ele>2260.6</ele>
    <time>2026-06-20T12:42:46Z</time>
   </trkpt>
   <trkpt lat="-3.1488350" lon="37.2906080">
    <ele>2260.9</ele>
    <time>2026-06-20T12:42:47Z</time>
   </trkpt>
   <trkpt lat="-3.1488430" lon="37.2906090">
    <ele>2261.1</ele>
    <time>2026-06-20T12:42:48Z</time>
   </trkpt>
   <trkpt lat="-3.1488390" lon="37.2906110">
    <ele>2261.1</ele>
    <time>2026-06-20T12:42:49Z</time>
   </trkpt>
   <trkpt lat="-3.1488400" lon="37.2906180">
    <ele>2261.2</ele>
    <time>2026-06-20T12:42:50Z</time>
   </trkpt>
   <trkpt lat="-3.1488390" lon="37.2906280">
    <ele>2261.4</ele>
    <time>2026-06-20T12:42:51Z</time>
   </trkpt>
   <trkpt lat="-3.1488350" lon="37.2906350">
    <ele>2261.5</ele>
    <time>2026-06-20T12:42:52Z</time>
   </trkpt>
   <trkpt lat="-3.1488380" lon="37.2906330">
    <ele>2261.6</ele>
    <time>2026-06-20T12:42:53Z</time>
   </trkpt>
   <trkpt lat="-3.1488380" lon="37.2906420">
    <ele>2261.7</ele>
    <time>2026-06-20T12:42:54Z</time>
   </trkpt>
   <trkpt lat="-3.1488310" lon="37.2906420">
    <ele>2261.8</ele>
    <time>2026-06-20T12:42:55Z</time>
   </trkpt>
   <trkpt lat="-3.1488330" lon="37.2906340">
    <ele>2261.9</ele>
    <time>2026-06-20T12:42:56Z</time>
   </trkpt>
   <trkpt lat="-3.1488260" lon="37.2906380">
    <ele>2262.0</ele>
    <time>2026-06-20T12:42:57Z</time>
   </trkpt>
   <trkpt lat="-3.1488110" lon="37.2906540">
    <ele>2262.4</ele>
    <time>2026-06-20T12:42:58Z</time>
   </trkpt>
   <trkpt lat="-3.1488110" lon="37.2906680">
    <ele>2262.6</ele>
    <time>2026-06-20T12:42:59Z</time>
   </trkpt>
   <trkpt lat="-3.1488030" lon="37.2906710">
    <ele>2262.7</ele>
    <time>2026-06-20T12:43:00Z</time>
   </trkpt>
   <trkpt lat="-3.1488060" lon="37.2906620">
    <ele>2262.8</ele>
    <time>2026-06-20T12:43:01Z</time>
   </trkpt>
   <trkpt lat="-3.1488010" lon="37.2906640">
    <ele>2262.9</ele>
    <time>2026-06-20T12:43:02Z</time>
   </trkpt>
   <trkpt lat="-3.1487960" lon="37.2906600">
    <ele>2263.0</ele>
    <time>2026-06-20T12:43:03Z</time>
   </trkpt>
   <trkpt lat="-3.1487870" lon="37.2906710">
    <ele>2263.2</ele>
    <time>2026-06-20T12:43:04Z</time>
   </trkpt>
   <trkpt lat="-3.1487850" lon="37.2906690">
    <ele>2263.2</ele>
    <time>2026-06-20T12:43:05Z</time>
   </trkpt>
   <trkpt lat="-3.1487860" lon="37.2906690">
    <ele>2263.3</ele>
    <time>2026-06-20T12:43:06Z</time>
   </trkpt>
   <trkpt lat="-3.1487800" lon="37.2906740">
    <ele>2263.4</ele>
    <time>2026-06-20T12:43:07Z</time>
   </trkpt>
   <trkpt lat="-3.1487780" lon="37.2906830">
    <ele>2263.5</ele>
    <time>2026-06-20T12:43:08Z</time>
   </trkpt>
   <trkpt lat="-3.1487810" lon="37.2906760">
    <ele>2263.6</ele>
    <time>2026-06-20T12:43:09Z</time>
   </trkpt>
   <trkpt lat="-3.1487800" lon="37.2906780">
    <ele>2263.7</ele>
    <time>2026-06-20T12:43:10Z</time>
   </trkpt>
   <trkpt lat="-3.1487730" lon="37.2906820">
    <ele>2263.8</ele>
    <time>2026-06-20T12:43:11Z</time>
   </trkpt>
   <trkpt lat="-3.1487720" lon="37.2906820">
    <ele>2263.8</ele>
    <time>2026-06-20T12:43:12Z</time>
   </trkpt>
   <trkpt lat="-3.1487680" lon="37.2906800">
    <ele>2263.9</ele>
    <time>2026-06-20T12:43:13Z</time>
   </trkpt>
   <trkpt lat="-3.1487590" lon="37.2906810">
    <ele>2264.0</ele>
    <time>2026-06-20T12:43:14Z</time>
   </trkpt>
   <trkpt lat="-3.1487520" lon="37.2906860">
    <ele>2264.1</ele>
    <time>2026-06-20T12:43:15Z</time>
   </trkpt>
   <trkpt lat="-3.1487460" lon="37.2906890">
    <ele>2264.2</ele>
    <time>2026-06-20T12:43:16Z</time>
   </trkpt>
   <trkpt lat="-3.1487370" lon="37.2906940">
    <ele>2264.4</ele>
    <time>2026-06-20T12:43:17Z</time>
   </trkpt>
   <trkpt lat="-3.1487410" lon="37.2906890">
    <ele>2264.5</ele>
    <time>2026-06-20T12:43:18Z</time>
   </trkpt>
   <trkpt lat="-3.1487420" lon="37.2906820">
    <ele>2264.6</ele>
    <time>2026-06-20T12:43:19Z</time>
   </trkpt>
   <trkpt lat="-3.1487410" lon="37.2906820">
    <ele>2264.6</ele>
    <time>2026-06-20T12:43:20Z</time>
   </trkpt>
   <trkpt lat="-3.1487380" lon="37.2906880">
    <ele>2264.7</ele>
    <time>2026-06-20T12:43:21Z</time>
   </trkpt>
   <trkpt lat="-3.1487370" lon="37.2906880">
    <ele>2264.7</ele>
    <time>2026-06-20T12:43:22Z</time>
   </trkpt>
   <trkpt lat="-3.1487320" lon="37.2906940">
    <ele>2264.8</ele>
    <time>2026-06-20T12:43:23Z</time>
   </trkpt>
   <trkpt lat="-3.1487280" lon="37.2906950">
    <ele>2264.9</ele>
    <time>2026-06-20T12:43:24Z</time>
   </trkpt>
   <trkpt lat="-3.1487240" lon="37.2906910">
    <ele>2264.9</ele>
    <time>2026-06-20T12:43:25Z</time>
   </trkpt>
   <trkpt lat="-3.1487200" lon="37.2906890">
    <ele>2265.0</ele>
    <time>2026-06-20T12:43:26Z</time>
   </trkpt>
   <trkpt lat="-3.1487170" lon="37.2906880">
    <ele>2265.1</ele>
    <time>2026-06-20T12:43:27Z</time>
   </trkpt>
   <trkpt lat="-3.1487140" lon="37.2906840">
    <ele>2265.1</ele>
    <time>2026-06-20T12:43:28Z</time>
   </trkpt>
   <trkpt lat="-3.1487100" lon="37.2906770">
    <ele>2265.3</ele>
    <time>2026-06-20T12:43:29Z</time>
   </trkpt>
   <trkpt lat="-3.1487110" lon="37.2906720">
    <ele>2265.3</ele>
    <time>2026-06-20T12:43:30Z</time>
   </trkpt>
   <trkpt lat="-3.1487100" lon="37.2906730">
    <ele>2265.4</ele>
    <time>2026-06-20T12:43:31Z</time>
   </trkpt>
   <trkpt lat="-3.1487100" lon="37.2906730">
    <ele>2265.4</ele>
    <time>2026-06-20T12:43:32Z</time>
   </trkpt>
   <trkpt lat="-3.1487150" lon="37.2906740">
    <ele>2265.4</ele>
    <time>2026-06-20T12:43:33Z</time>
   </trkpt>
   <trkpt lat="-3.1487150" lon="37.2906740">
    <ele>2265.4</ele>
    <time>2026-06-20T12:43:34Z</time>
   </trkpt>
   <trkpt lat="-3.1487150" lon="37.2906740">
    <ele>2265.4</ele>
    <time>2026-06-20T12:43:35Z</time>
   </trkpt>
   <trkpt lat="-3.1487150" lon="37.2906740">
    <ele>2265.4</ele>
    <time>2026-06-20T12:43:36Z</time>
   </trkpt>
   <trkpt lat="-3.1487220" lon="37.2906740">
    <ele>2265.5</ele>
    <time>2026-06-20T12:43:37Z</time>
   </trkpt>
   <trkpt lat="-3.1487220" lon="37.2906740">
    <ele>2265.5</ele>
    <time>2026-06-20T12:43:38Z</time>
   </trkpt>
   <trkpt lat="-3.1487240" lon="37.2906730">
    <ele>2265.6</ele>
    <time>2026-06-20T12:43:39Z</time>
   </trkpt>
   <trkpt lat="-3.1487230" lon="37.2906700">
    <ele>2265.6</ele>
    <time>2026-06-20T12:43:40Z</time>
   </trkpt>
   <trkpt lat="-3.1487210" lon="37.2906680">
    <ele>2265.7</ele>
    <time>2026-06-20T12:43:41Z</time>
   </trkpt>
   <trkpt lat="-3.1487130" lon="37.2906750">
    <ele>2265.8</ele>
    <time>2026-06-20T12:43:42Z</time>
   </trkpt>
   <trkpt lat="-3.1487120" lon="37.2906750">
    <ele>2265.8</ele>
    <time>2026-06-20T12:43:43Z</time>
   </trkpt>
   <trkpt lat="-3.1487060" lon="37.2906780">
    <ele>2265.9</ele>
    <time>2026-06-20T12:43:44Z</time>
   </trkpt>
   <trkpt lat="-3.1487010" lon="37.2906800">
    <ele>2266.0</ele>
    <time>2026-06-20T12:43:45Z</time>
   </trkpt>
   <trkpt lat="-3.1486950" lon="37.2906810">
    <ele>2266.1</ele>
    <time>2026-06-20T12:43:46Z</time>
   </trkpt>
   <trkpt lat="-3.1486900" lon="37.2906810">
    <ele>2266.2</ele>
    <time>2026-06-20T12:43:47Z</time>
   </trkpt>
   <trkpt lat="-3.1486890" lon="37.2906830">
    <ele>2266.2</ele>
    <time>2026-06-20T12:43:48Z</time>
   </trkpt>
   <trkpt lat="-3.1486830" lon="37.2906860">
    <ele>2266.3</ele>
    <time>2026-06-20T12:43:49Z</time>
   </trkpt>
   <trkpt lat="-3.1486750" lon="37.2906890">
    <ele>2266.4</ele>
    <time>2026-06-20T12:43:50Z</time>
   </trkpt>
   <trkpt lat="-3.1486790" lon="37.2907060">
    <ele>2266.7</ele>
    <time>2026-06-20T12:43:51Z</time>
   </trkpt>
   <trkpt lat="-3.1486750" lon="37.2907120">
    <ele>2266.8</ele>
    <time>2026-06-20T12:43:52Z</time>
   </trkpt>
   <trkpt lat="-3.1486770" lon="37.2907180">
    <ele>2266.9</ele>
    <time>2026-06-20T12:43:53Z</time>
   </trkpt>
   <trkpt lat="-3.1486780" lon="37.2907240">
    <ele>2267.0</ele>
    <time>2026-06-20T12:43:54Z</time>
   </trkpt>
   <trkpt lat="-3.1486740" lon="37.2907300">
    <ele>2267.1</ele>
    <time>2026-06-20T12:43:55Z</time>
   </trkpt>
   <trkpt lat="-3.1486690" lon="37.2907380">
    <ele>2267.2</ele>
    <time>2026-06-20T12:43:56Z</time>
   </trkpt>
   <trkpt lat="-3.1486670" lon="37.2907450">
    <ele>2267.3</ele>
    <time>2026-06-20T12:43:57Z</time>
   </trkpt>
   <trkpt lat="-3.1486600" lon="37.2907570">
    <ele>2267.6</ele>
    <time>2026-06-20T12:43:58Z</time>
   </trkpt>
   <trkpt lat="-3.1486610" lon="37.2907670">
    <ele>2267.7</ele>
    <time>2026-06-20T12:43:59Z</time>
   </trkpt>
   <trkpt lat="-3.1486650" lon="37.2907700">
    <ele>2267.8</ele>
    <time>2026-06-20T12:44:00Z</time>
   </trkpt>
   <trkpt lat="-3.1486690" lon="37.2907760">
    <ele>2267.9</ele>
    <time>2026-06-20T12:44:01Z</time>
   </trkpt>
   <trkpt lat="-3.1486680" lon="37.2907860">
    <ele>2268.0</ele>
    <time>2026-06-20T12:44:02Z</time>
   </trkpt>
   <trkpt lat="-3.1486690" lon="37.2907920">
    <ele>2268.1</ele>
    <time>2026-06-20T12:44:03Z</time>
   </trkpt>
   <trkpt lat="-3.1486640" lon="37.2908010">
    <ele>2268.3</ele>
    <time>2026-06-20T12:44:04Z</time>
   </trkpt>
   <trkpt lat="-3.1486620" lon="37.2908140">
    <ele>2268.4</ele>
    <time>2026-06-20T12:44:05Z</time>
   </trkpt>
   <trkpt lat="-3.1486640" lon="37.2908230">
    <ele>2268.6</ele>
    <time>2026-06-20T12:44:06Z</time>
   </trkpt>
   <trkpt lat="-3.1486750" lon="37.2908210">
    <ele>2268.7</ele>
    <time>2026-06-20T12:44:07Z</time>
   </trkpt>
   <trkpt lat="-3.1486750" lon="37.2908180">
    <ele>2268.8</ele>
    <time>2026-06-20T12:44:08Z</time>
   </trkpt>
   <trkpt lat="-3.1486570" lon="37.2908410">
    <ele>2269.2</ele>
    <time>2026-06-20T12:44:09Z</time>
   </trkpt>
   <trkpt lat="-3.1486500" lon="37.2908480">
    <ele>2269.3</ele>
    <time>2026-06-20T12:44:10Z</time>
   </trkpt>
   <trkpt lat="-3.1486400" lon="37.2908450">
    <ele>2269.5</ele>
    <time>2026-06-20T12:44:11Z</time>
   </trkpt>
   <trkpt lat="-3.1486380" lon="37.2908370">
    <ele>2269.6</ele>
    <time>2026-06-20T12:44:12Z</time>
   </trkpt>
   <trkpt lat="-3.1486310" lon="37.2908350">
    <ele>2269.7</ele>
    <time>2026-06-20T12:44:13Z</time>
   </trkpt>
   <trkpt lat="-3.1486230" lon="37.2908360">
    <ele>2269.8</ele>
    <time>2026-06-20T12:44:14Z</time>
   </trkpt>
   <trkpt lat="-3.1486130" lon="37.2908420">
    <ele>2269.9</ele>
    <time>2026-06-20T12:44:15Z</time>
   </trkpt>
   <trkpt lat="-3.1486100" lon="37.2908350">
    <ele>2270.0</ele>
    <time>2026-06-20T12:44:16Z</time>
   </trkpt>
   <trkpt lat="-3.1486060" lon="37.2908390">
    <ele>2270.1</ele>
    <time>2026-06-20T12:44:17Z</time>
   </trkpt>
   <trkpt lat="-3.1486000" lon="37.2908400">
    <ele>2270.2</ele>
    <time>2026-06-20T12:44:18Z</time>
   </trkpt>
   <trkpt lat="-3.1485920" lon="37.2908420">
    <ele>2270.3</ele>
    <time>2026-06-20T12:44:19Z</time>
   </trkpt>
   <trkpt lat="-3.1485870" lon="37.2908450">
    <ele>2270.4</ele>
    <time>2026-06-20T12:44:20Z</time>
   </trkpt>
   <trkpt lat="-3.1485820" lon="37.2908510">
    <ele>2270.5</ele>
    <time>2026-06-20T12:44:21Z</time>
   </trkpt>
   <trkpt lat="-3.1485760" lon="37.2908510">
    <ele>2270.6</ele>
    <time>2026-06-20T12:44:22Z</time>
   </trkpt>
   <trkpt lat="-3.1485700" lon="37.2908540">
    <ele>2270.6</ele>
    <time>2026-06-20T12:44:23Z</time>
   </trkpt>
   <trkpt lat="-3.1485650" lon="37.2908570">
    <ele>2270.7</ele>
    <time>2026-06-20T12:44:24Z</time>
   </trkpt>
   <trkpt lat="-3.1485600" lon="37.2908570">
    <ele>2270.8</ele>
    <time>2026-06-20T12:44:25Z</time>
   </trkpt>
   <trkpt lat="-3.1485520" lon="37.2908570">
    <ele>2270.9</ele>
    <time>2026-06-20T12:44:26Z</time>
   </trkpt>
   <trkpt lat="-3.1485500" lon="37.2908570">
    <ele>2270.9</ele>
    <time>2026-06-20T12:44:27Z</time>
   </trkpt>
   <trkpt lat="-3.1485440" lon="37.2908550">
    <ele>2271.0</ele>
    <time>2026-06-20T12:44:28Z</time>
   </trkpt>
   <trkpt lat="-3.1485450" lon="37.2908540">
    <ele>2271.0</ele>
    <time>2026-06-20T12:44:29Z</time>
   </trkpt>
   <trkpt lat="-3.1485450" lon="37.2908550">
    <ele>2271.0</ele>
    <time>2026-06-20T12:44:30Z</time>
   </trkpt>
   <trkpt lat="-3.1485440" lon="37.2908530">
    <ele>2271.1</ele>
    <time>2026-06-20T12:44:31Z</time>
   </trkpt>
   <trkpt lat="-3.1485430" lon="37.2908620">
    <ele>2271.2</ele>
    <time>2026-06-20T12:44:32Z</time>
   </trkpt>
   <trkpt lat="-3.1485440" lon="37.2908590">
    <ele>2271.2</ele>
    <time>2026-06-20T12:44:33Z</time>
   </trkpt>
   <trkpt lat="-3.1485440" lon="37.2908610">
    <ele>2271.2</ele>
    <time>2026-06-20T12:44:34Z</time>
   </trkpt>
   <trkpt lat="-3.1485390" lon="37.2908680">
    <ele>2271.4</ele>
    <time>2026-06-20T12:44:35Z</time>
   </trkpt>
   <trkpt lat="-3.1485420" lon="37.2908780">
    <ele>2271.5</ele>
    <time>2026-06-20T12:44:36Z</time>
   </trkpt>
   <trkpt lat="-3.1485420" lon="37.2908880">
    <ele>2271.6</ele>
    <time>2026-06-20T12:44:37Z</time>
   </trkpt>
   <trkpt lat="-3.1485420" lon="37.2908910">
    <ele>2271.6</ele>
    <time>2026-06-20T12:44:38Z</time>
   </trkpt>
   <trkpt lat="-3.1485370" lon="37.2908990">
    <ele>2271.8</ele>
    <time>2026-06-20T12:44:39Z</time>
   </trkpt>
   <trkpt lat="-3.1485270" lon="37.2909090">
    <ele>2271.9</ele>
    <time>2026-06-20T12:44:40Z</time>
   </trkpt>
   <trkpt lat="-3.1485150" lon="37.2909160">
    <ele>2272.1</ele>
    <time>2026-06-20T12:44:41Z</time>
   </trkpt>
   <trkpt lat="-3.1485090" lon="37.2909250">
    <ele>2272.2</ele>
    <time>2026-06-20T12:44:42Z</time>
   </trkpt>
   <trkpt lat="-3.1485020" lon="37.2909330">
    <ele>2272.4</ele>
    <time>2026-06-20T12:44:43Z</time>
   </trkpt>
   <trkpt lat="-3.1484950" lon="37.2909460">
    <ele>2272.5</ele>
    <time>2026-06-20T12:44:44Z</time>
   </trkpt>
   <trkpt lat="-3.1484880" lon="37.2909570">
    <ele>2272.7</ele>
    <time>2026-06-20T12:44:45Z</time>
   </trkpt>
   <trkpt lat="-3.1484830" lon="37.2909650">
    <ele>2272.8</ele>
    <time>2026-06-20T12:44:46Z</time>
   </trkpt>
   <trkpt lat="-3.1484760" lon="37.2909670">
    <ele>2272.9</ele>
    <time>2026-06-20T12:44:47Z</time>
   </trkpt>
   <trkpt lat="-3.1484720" lon="37.2909710">
    <ele>2273.0</ele>
    <time>2026-06-20T12:44:48Z</time>
   </trkpt>
   <trkpt lat="-3.1484690" lon="37.2909760">
    <ele>2273.0</ele>
    <time>2026-06-20T12:44:49Z</time>
   </trkpt>
   <trkpt lat="-3.1484680" lon="37.2909810">
    <ele>2273.1</ele>
    <time>2026-06-20T12:44:50Z</time>
   </trkpt>
   <trkpt lat="-3.1484700" lon="37.2909850">
    <ele>2273.1</ele>
    <time>2026-06-20T12:44:51Z</time>
   </trkpt>
   <trkpt lat="-3.1484690" lon="37.2909890">
    <ele>2273.2</ele>
    <time>2026-06-20T12:44:52Z</time>
   </trkpt>
   <trkpt lat="-3.1484700" lon="37.2909920">
    <ele>2273.2</ele>
    <time>2026-06-20T12:44:53Z</time>
   </trkpt>
   <trkpt lat="-3.1484700" lon="37.2909870">
    <ele>2273.3</ele>
    <time>2026-06-20T12:44:54Z</time>
   </trkpt>
   <trkpt lat="-3.1484670" lon="37.2909900">
    <ele>2273.3</ele>
    <time>2026-06-20T12:44:55Z</time>
   </trkpt>
   <trkpt lat="-3.1484640" lon="37.2909940">
    <ele>2273.4</ele>
    <time>2026-06-20T12:44:56Z</time>
   </trkpt>
   <trkpt lat="-3.1484600" lon="37.2909990">
    <ele>2273.5</ele>
    <time>2026-06-20T12:44:57Z</time>
   </trkpt>
   <trkpt lat="-3.1484540" lon="37.2910030">
    <ele>2273.5</ele>
    <time>2026-06-20T12:44:58Z</time>
   </trkpt>
   <trkpt lat="-3.1484540" lon="37.2910110">
    <ele>2273.6</ele>
    <time>2026-06-20T12:44:59Z</time>
   </trkpt>
   <trkpt lat="-3.1484550" lon="37.2910120">
    <ele>2273.7</ele>
    <time>2026-06-20T12:45:00Z</time>
   </trkpt>
   <trkpt lat="-3.1484520" lon="37.2910090">
    <ele>2273.7</ele>
    <time>2026-06-20T12:45:01Z</time>
   </trkpt>
   <trkpt lat="-3.1484560" lon="37.2910040">
    <ele>2273.8</ele>
    <time>2026-06-20T12:45:02Z</time>
   </trkpt>
   <trkpt lat="-3.1484540" lon="37.2910020">
    <ele>2273.8</ele>
    <time>2026-06-20T12:45:03Z</time>
   </trkpt>
   <trkpt lat="-3.1484580" lon="37.2910070">
    <ele>2273.9</ele>
    <time>2026-06-20T12:45:04Z</time>
   </trkpt>
   <trkpt lat="-3.1484600" lon="37.2910150">
    <ele>2273.9</ele>
    <time>2026-06-20T12:45:05Z</time>
   </trkpt>
   <trkpt lat="-3.1484620" lon="37.2910160">
    <ele>2274.0</ele>
    <time>2026-06-20T12:45:06Z</time>
   </trkpt>
   <trkpt lat="-3.1484560" lon="37.2910230">
    <ele>2274.1</ele>
    <time>2026-06-20T12:45:07Z</time>
   </trkpt>
   <trkpt lat="-3.1484520" lon="37.2910280">
    <ele>2274.1</ele>
    <time>2026-06-20T12:45:08Z</time>
   </trkpt>
   <trkpt lat="-3.1484470" lon="37.2910280">
    <ele>2274.2</ele>
    <time>2026-06-20T12:45:09Z</time>
   </trkpt>
   <trkpt lat="-3.1484420" lon="37.2910330">
    <ele>2274.3</ele>
    <time>2026-06-20T12:45:10Z</time>
   </trkpt>
   <trkpt lat="-3.1484390" lon="37.2910400">
    <ele>2274.3</ele>
    <time>2026-06-20T12:45:11Z</time>
   </trkpt>
   <trkpt lat="-3.1484340" lon="37.2910480">
    <ele>2274.4</ele>
    <time>2026-06-20T12:45:12Z</time>
   </trkpt>
   <trkpt lat="-3.1484320" lon="37.2910550">
    <ele>2274.5</ele>
    <time>2026-06-20T12:45:13Z</time>
   </trkpt>
   <trkpt lat="-3.1484240" lon="37.2910560">
    <ele>2274.6</ele>
    <time>2026-06-20T12:45:14Z</time>
   </trkpt>
   <trkpt lat="-3.1484170" lon="37.2910620">
    <ele>2274.7</ele>
    <time>2026-06-20T12:45:15Z</time>
   </trkpt>
   <trkpt lat="-3.1484050" lon="37.2910720">
    <ele>2274.8</ele>
    <time>2026-06-20T12:45:16Z</time>
   </trkpt>
   <trkpt lat="-3.1483970" lon="37.2910810">
    <ele>2274.9</ele>
    <time>2026-06-20T12:45:17Z</time>
   </trkpt>
   <trkpt lat="-3.1483900" lon="37.2910910">
    <ele>2275.0</ele>
    <time>2026-06-20T12:45:18Z</time>
   </trkpt>
   <trkpt lat="-3.1483810" lon="37.2910960">
    <ele>2275.1</ele>
    <time>2026-06-20T12:45:19Z</time>
   </trkpt>
   <trkpt lat="-3.1483780" lon="37.2910970">
    <ele>2275.1</ele>
    <time>2026-06-20T12:45:20Z</time>
   </trkpt>
   <trkpt lat="-3.1483680" lon="37.2911030">
    <ele>2275.2</ele>
    <time>2026-06-20T12:45:21Z</time>
   </trkpt>
   <trkpt lat="-3.1483610" lon="37.2911100">
    <ele>2275.3</ele>
    <time>2026-06-20T12:45:22Z</time>
   </trkpt>
   <trkpt lat="-3.1483550" lon="37.2911170">
    <ele>2275.4</ele>
    <time>2026-06-20T12:45:23Z</time>
   </trkpt>
   <trkpt lat="-3.1483520" lon="37.2911260">
    <ele>2275.5</ele>
    <time>2026-06-20T12:45:24Z</time>
   </trkpt>
   <trkpt lat="-3.1483520" lon="37.2911340">
    <ele>2275.5</ele>
    <time>2026-06-20T12:45:25Z</time>
   </trkpt>
   <trkpt lat="-3.1483500" lon="37.2911360">
    <ele>2275.5</ele>
    <time>2026-06-20T12:45:26Z</time>
   </trkpt>
   <trkpt lat="-3.1483470" lon="37.2911410">
    <ele>2275.6</ele>
    <time>2026-06-20T12:45:27Z</time>
   </trkpt>
   <trkpt lat="-3.1483460" lon="37.2911490">
    <ele>2275.6</ele>
    <time>2026-06-20T12:45:28Z</time>
   </trkpt>
   <trkpt lat="-3.1483460" lon="37.2911550">
    <ele>2275.7</ele>
    <time>2026-06-20T12:45:29Z</time>
   </trkpt>
   <trkpt lat="-3.1483470" lon="37.2911600">
    <ele>2275.7</ele>
    <time>2026-06-20T12:45:30Z</time>
   </trkpt>
   <trkpt lat="-3.1483510" lon="37.2911640">
    <ele>2275.7</ele>
    <time>2026-06-20T12:45:31Z</time>
   </trkpt>
   <trkpt lat="-3.1483510" lon="37.2911700">
    <ele>2275.8</ele>
    <time>2026-06-20T12:45:32Z</time>
   </trkpt>
   <trkpt lat="-3.1483550" lon="37.2911790">
    <ele>2275.9</ele>
    <time>2026-06-20T12:45:33Z</time>
   </trkpt>
   <trkpt lat="-3.1483590" lon="37.2911870">
    <ele>2275.9</ele>
    <time>2026-06-20T12:45:34Z</time>
   </trkpt>
   <trkpt lat="-3.1483590" lon="37.2911950">
    <ele>2276.0</ele>
    <time>2026-06-20T12:45:35Z</time>
   </trkpt>
   <trkpt lat="-3.1483630" lon="37.2911990">
    <ele>2276.0</ele>
    <time>2026-06-20T12:45:36Z</time>
   </trkpt>
   <trkpt lat="-3.1483550" lon="37.2912050">
    <ele>2276.0</ele>
    <time>2026-06-20T12:45:37Z</time>
   </trkpt>
   <trkpt lat="-3.1483580" lon="37.2912060">
    <ele>2276.1</ele>
    <time>2026-06-20T12:45:38Z</time>
   </trkpt>
   <trkpt lat="-3.1483540" lon="37.2912100">
    <ele>2276.1</ele>
    <time>2026-06-20T12:45:39Z</time>
   </trkpt>
   <trkpt lat="-3.1483550" lon="37.2912180">
    <ele>2276.1</ele>
    <time>2026-06-20T12:45:40Z</time>
   </trkpt>
   <trkpt lat="-3.1483560" lon="37.2912210">
    <ele>2276.1</ele>
    <time>2026-06-20T12:45:41Z</time>
   </trkpt>
   <trkpt lat="-3.1483570" lon="37.2912280">
    <ele>2276.2</ele>
    <time>2026-06-20T12:45:42Z</time>
   </trkpt>
   <trkpt lat="-3.1483550" lon="37.2912360">
    <ele>2276.2</ele>
    <time>2026-06-20T12:45:43Z</time>
   </trkpt>
   <trkpt lat="-3.1483540" lon="37.2912370">
    <ele>2276.2</ele>
    <time>2026-06-20T12:45:44Z</time>
   </trkpt>
   <trkpt lat="-3.1483520" lon="37.2912460">
    <ele>2276.3</ele>
    <time>2026-06-20T12:45:45Z</time>
   </trkpt>
   <trkpt lat="-3.1483460" lon="37.2912600">
    <ele>2276.3</ele>
    <time>2026-06-20T12:45:46Z</time>
   </trkpt>
   <trkpt lat="-3.1483350" lon="37.2912760">
    <ele>2276.4</ele>
    <time>2026-06-20T12:45:47Z</time>
   </trkpt>
   <trkpt lat="-3.1483310" lon="37.2912900">
    <ele>2276.4</ele>
    <time>2026-06-20T12:45:48Z</time>
   </trkpt>
   <trkpt lat="-3.1483270" lon="37.2912900">
    <ele>2276.5</ele>
    <time>2026-06-20T12:45:49Z</time>
   </trkpt>
   <trkpt lat="-3.1483250" lon="37.2912920">
    <ele>2276.5</ele>
    <time>2026-06-20T12:45:50Z</time>
   </trkpt>
   <trkpt lat="-3.1483250" lon="37.2912920">
    <ele>2276.5</ele>
    <time>2026-06-20T12:45:51Z</time>
   </trkpt>
   <trkpt lat="-3.1483220" lon="37.2912930">
    <ele>2276.5</ele>
    <time>2026-06-20T12:45:52Z</time>
   </trkpt>
   <trkpt lat="-3.1483160" lon="37.2912990">
    <ele>2276.5</ele>
    <time>2026-06-20T12:45:53Z</time>
   </trkpt>
   <trkpt lat="-3.1483070" lon="37.2913020">
    <ele>2276.5</ele>
    <time>2026-06-20T12:45:54Z</time>
   </trkpt>
   <trkpt lat="-3.1483010" lon="37.2913050">
    <ele>2276.5</ele>
    <time>2026-06-20T12:45:55Z</time>
   </trkpt>
   <trkpt lat="-3.1483020" lon="37.2913040">
    <ele>2276.6</ele>
    <time>2026-06-20T12:45:56Z</time>
   </trkpt>
   <trkpt lat="-3.1483020" lon="37.2913040">
    <ele>2276.6</ele>
    <time>2026-06-20T12:45:57Z</time>
   </trkpt>
   <trkpt lat="-3.1483030" lon="37.2913070">
    <ele>2276.6</ele>
    <time>2026-06-20T12:45:58Z</time>
   </trkpt>
   <trkpt lat="-3.1483000" lon="37.2913160">
    <ele>2276.6</ele>
    <time>2026-06-20T12:45:59Z</time>
   </trkpt>
   <trkpt lat="-3.1482920" lon="37.2913220">
    <ele>2276.6</ele>
    <time>2026-06-20T12:46:00Z</time>
   </trkpt>
   <trkpt lat="-3.1482870" lon="37.2913340">
    <ele>2276.7</ele>
    <time>2026-06-20T12:46:01Z</time>
   </trkpt>
   <trkpt lat="-3.1482830" lon="37.2913460">
    <ele>2276.7</ele>
    <time>2026-06-20T12:46:02Z</time>
   </trkpt>
   <trkpt lat="-3.1482810" lon="37.2913530">
    <ele>2276.7</ele>
    <time>2026-06-20T12:46:03Z</time>
   </trkpt>
   <trkpt lat="-3.1482810" lon="37.2913560">
    <ele>2276.7</ele>
    <time>2026-06-20T12:46:04Z</time>
   </trkpt>
   <trkpt lat="-3.1482770" lon="37.2913640">
    <ele>2276.7</ele>
    <time>2026-06-20T12:46:05Z</time>
   </trkpt>
   <trkpt lat="-3.1482660" lon="37.2913750">
    <ele>2276.8</ele>
    <time>2026-06-20T12:46:06Z</time>
   </trkpt>
   <trkpt lat="-3.1482610" lon="37.2913860">
    <ele>2276.8</ele>
    <time>2026-06-20T12:46:07Z</time>
   </trkpt>
   <trkpt lat="-3.1482580" lon="37.2913940">
    <ele>2276.8</ele>
    <time>2026-06-20T12:46:08Z</time>
   </trkpt>
   <trkpt lat="-3.1482570" lon="37.2914020">
    <ele>2276.9</ele>
    <time>2026-06-20T12:46:09Z</time>
   </trkpt>
   <trkpt lat="-3.1482590" lon="37.2914040">
    <ele>2276.9</ele>
    <time>2026-06-20T12:46:10Z</time>
   </trkpt>
   <trkpt lat="-3.1482560" lon="37.2914060">
    <ele>2276.9</ele>
    <time>2026-06-20T12:46:11Z</time>
   </trkpt>
   <trkpt lat="-3.1482570" lon="37.2914090">
    <ele>2276.9</ele>
    <time>2026-06-20T12:46:12Z</time>
   </trkpt>
   <trkpt lat="-3.1482590" lon="37.2914070">
    <ele>2276.9</ele>
    <time>2026-06-20T12:46:13Z</time>
   </trkpt>
   <trkpt lat="-3.1482610" lon="37.2914130">
    <ele>2276.9</ele>
    <time>2026-06-20T12:46:14Z</time>
   </trkpt>
   <trkpt lat="-3.1482580" lon="37.2914200">
    <ele>2277.0</ele>
    <time>2026-06-20T12:46:15Z</time>
   </trkpt>
   <trkpt lat="-3.1482550" lon="37.2914250">
    <ele>2277.0</ele>
    <time>2026-06-20T12:46:16Z</time>
   </trkpt>
   <trkpt lat="-3.1482490" lon="37.2914330">
    <ele>2277.0</ele>
    <time>2026-06-20T12:46:17Z</time>
   </trkpt>
   <trkpt lat="-3.1482460" lon="37.2914370">
    <ele>2277.1</ele>
    <time>2026-06-20T12:46:18Z</time>
   </trkpt>
   <trkpt lat="-3.1482440" lon="37.2914450">
    <ele>2277.1</ele>
    <time>2026-06-20T12:46:19Z</time>
   </trkpt>
   <trkpt lat="-3.1482350" lon="37.2914500">
    <ele>2277.1</ele>
    <time>2026-06-20T12:46:20Z</time>
   </trkpt>
   <trkpt lat="-3.1482350" lon="37.2914500">
    <ele>2277.1</ele>
    <time>2026-06-20T12:46:21Z</time>
   </trkpt>
   <trkpt lat="-3.1482340" lon="37.2914530">
    <ele>2277.2</ele>
    <time>2026-06-20T12:46:22Z</time>
   </trkpt>
   <trkpt lat="-3.1482260" lon="37.2914600">
    <ele>2277.2</ele>
    <time>2026-06-20T12:46:23Z</time>
   </trkpt>
   <trkpt lat="-3.1482190" lon="37.2914610">
    <ele>2277.3</ele>
    <time>2026-06-20T12:46:24Z</time>
   </trkpt>
   <trkpt lat="-3.1482190" lon="37.2914610">
    <ele>2277.3</ele>
    <time>2026-06-20T12:46:25Z</time>
   </trkpt>
   <trkpt lat="-3.1482180" lon="37.2914690">
    <ele>2277.3</ele>
    <time>2026-06-20T12:46:26Z</time>
   </trkpt>
   <trkpt lat="-3.1482100" lon="37.2914760">
    <ele>2277.4</ele>
    <time>2026-06-20T12:46:27Z</time>
   </trkpt>
   <trkpt lat="-3.1482080" lon="37.2914780">
    <ele>2277.4</ele>
    <time>2026-06-20T12:46:28Z</time>
   </trkpt>
   <trkpt lat="-3.1482030" lon="37.2914830">
    <ele>2277.4</ele>
    <time>2026-06-20T12:46:29Z</time>
   </trkpt>
   <trkpt lat="-3.1481990" lon="37.2914920">
    <ele>2277.5</ele>
    <time>2026-06-20T12:46:30Z</time>
   </trkpt>
   <trkpt lat="-3.1482010" lon="37.2914970">
    <ele>2277.5</ele>
    <time>2026-06-20T12:46:31Z</time>
   </trkpt>
   <trkpt lat="-3.1481990" lon="37.2915060">
    <ele>2277.6</ele>
    <time>2026-06-20T12:46:32Z</time>
   </trkpt>
   <trkpt lat="-3.1481960" lon="37.2915150">
    <ele>2277.7</ele>
    <time>2026-06-20T12:46:33Z</time>
   </trkpt>
   <trkpt lat="-3.1482010" lon="37.2915200">
    <ele>2277.7</ele>
    <time>2026-06-20T12:46:34Z</time>
   </trkpt>
   <trkpt lat="-3.1481940" lon="37.2915270">
    <ele>2277.8</ele>
    <time>2026-06-20T12:46:35Z</time>
   </trkpt>
   <trkpt lat="-3.1481940" lon="37.2915390">
    <ele>2277.9</ele>
    <time>2026-06-20T12:46:36Z</time>
   </trkpt>
   <trkpt lat="-3.1481970" lon="37.2915450">
    <ele>2277.9</ele>
    <time>2026-06-20T12:46:37Z</time>
   </trkpt>
   <trkpt lat="-3.1481990" lon="37.2915540">
    <ele>2278.0</ele>
    <time>2026-06-20T12:46:38Z</time>
   </trkpt>
   <trkpt lat="-3.1482010" lon="37.2915590">
    <ele>2278.1</ele>
    <time>2026-06-20T12:46:39Z</time>
   </trkpt>
   <trkpt lat="-3.1482070" lon="37.2915620">
    <ele>2278.1</ele>
    <time>2026-06-20T12:46:40Z</time>
   </trkpt>
   <trkpt lat="-3.1482020" lon="37.2915550">
    <ele>2278.2</ele>
    <time>2026-06-20T12:46:41Z</time>
   </trkpt>
   <trkpt lat="-3.1482050" lon="37.2915730">
    <ele>2278.4</ele>
    <time>2026-06-20T12:46:42Z</time>
   </trkpt>
   <trkpt lat="-3.1482090" lon="37.2915810">
    <ele>2278.5</ele>
    <time>2026-06-20T12:46:43Z</time>
   </trkpt>
   <trkpt lat="-3.1482110" lon="37.2915940">
    <ele>2278.6</ele>
    <time>2026-06-20T12:46:44Z</time>
   </trkpt>
   <trkpt lat="-3.1482110" lon="37.2916130">
    <ele>2278.8</ele>
    <time>2026-06-20T12:46:45Z</time>
   </trkpt>
   <trkpt lat="-3.1482070" lon="37.2916330">
    <ele>2279.0</ele>
    <time>2026-06-20T12:46:46Z</time>
   </trkpt>
   <trkpt lat="-3.1482030" lon="37.2916450">
    <ele>2279.1</ele>
    <time>2026-06-20T12:46:47Z</time>
   </trkpt>
   <trkpt lat="-3.1481980" lon="37.2916520">
    <ele>2279.2</ele>
    <time>2026-06-20T12:46:48Z</time>
   </trkpt>
   <trkpt lat="-3.1481930" lon="37.2916540">
    <ele>2279.2</ele>
    <time>2026-06-20T12:46:49Z</time>
   </trkpt>
   <trkpt lat="-3.1481860" lon="37.2916570">
    <ele>2279.3</ele>
    <time>2026-06-20T12:46:50Z</time>
   </trkpt>
   <trkpt lat="-3.1481740" lon="37.2916600">
    <ele>2279.5</ele>
    <time>2026-06-20T12:46:51Z</time>
   </trkpt>
   <trkpt lat="-3.1481680" lon="37.2916600">
    <ele>2279.5</ele>
    <time>2026-06-20T12:46:52Z</time>
   </trkpt>
   <trkpt lat="-3.1481620" lon="37.2916590">
    <ele>2279.6</ele>
    <time>2026-06-20T12:46:53Z</time>
   </trkpt>
   <trkpt lat="-3.1481560" lon="37.2916640">
    <ele>2279.7</ele>
    <time>2026-06-20T12:46:54Z</time>
   </trkpt>
   <trkpt lat="-3.1481480" lon="37.2916700">
    <ele>2279.8</ele>
    <time>2026-06-20T12:46:55Z</time>
   </trkpt>
   <trkpt lat="-3.1481480" lon="37.2916710">
    <ele>2279.8</ele>
    <time>2026-06-20T12:46:56Z</time>
   </trkpt>
   <trkpt lat="-3.1481460" lon="37.2916760">
    <ele>2279.8</ele>
    <time>2026-06-20T12:46:57Z</time>
   </trkpt>
   <trkpt lat="-3.1481500" lon="37.2916820">
    <ele>2279.9</ele>
    <time>2026-06-20T12:46:58Z</time>
   </trkpt>
   <trkpt lat="-3.1481490" lon="37.2916880">
    <ele>2280.0</ele>
    <time>2026-06-20T12:46:59Z</time>
   </trkpt>
   <trkpt lat="-3.1481520" lon="37.2916900">
    <ele>2280.0</ele>
    <time>2026-06-20T12:47:00Z</time>
   </trkpt>
   <trkpt lat="-3.1481530" lon="37.2916930">
    <ele>2280.1</ele>
    <time>2026-06-20T12:47:01Z</time>
   </trkpt>
   <trkpt lat="-3.1481520" lon="37.2917000">
    <ele>2280.2</ele>
    <time>2026-06-20T12:47:02Z</time>
   </trkpt>
   <trkpt lat="-3.1481500" lon="37.2917090">
    <ele>2280.3</ele>
    <time>2026-06-20T12:47:03Z</time>
   </trkpt>
   <trkpt lat="-3.1481530" lon="37.2917210">
    <ele>2280.4</ele>
    <time>2026-06-20T12:47:04Z</time>
   </trkpt>
   <trkpt lat="-3.1481520" lon="37.2917170">
    <ele>2280.5</ele>
    <time>2026-06-20T12:47:05Z</time>
   </trkpt>
   <trkpt lat="-3.1481510" lon="37.2917240">
    <ele>2280.6</ele>
    <time>2026-06-20T12:47:06Z</time>
   </trkpt>
   <trkpt lat="-3.1481470" lon="37.2917340">
    <ele>2280.7</ele>
    <time>2026-06-20T12:47:07Z</time>
   </trkpt>
   <trkpt lat="-3.1481480" lon="37.2917430">
    <ele>2280.8</ele>
    <time>2026-06-20T12:47:08Z</time>
   </trkpt>
   <trkpt lat="-3.1481480" lon="37.2917530">
    <ele>2280.9</ele>
    <time>2026-06-20T12:47:09Z</time>
   </trkpt>
   <trkpt lat="-3.1481480" lon="37.2917660">
    <ele>2281.1</ele>
    <time>2026-06-20T12:47:10Z</time>
   </trkpt>
   <trkpt lat="-3.1481420" lon="37.2917740">
    <ele>2281.2</ele>
    <time>2026-06-20T12:47:11Z</time>
   </trkpt>
   <trkpt lat="-3.1481380" lon="37.2917860">
    <ele>2281.4</ele>
    <time>2026-06-20T12:47:12Z</time>
   </trkpt>
   <trkpt lat="-3.1481330" lon="37.2917950">
    <ele>2281.5</ele>
    <time>2026-06-20T12:47:13Z</time>
   </trkpt>
   <trkpt lat="-3.1481320" lon="37.2918030">
    <ele>2281.6</ele>
    <time>2026-06-20T12:47:14Z</time>
   </trkpt>
   <trkpt lat="-3.1481390" lon="37.2917980">
    <ele>2281.8</ele>
    <time>2026-06-20T12:47:15Z</time>
   </trkpt>
   <trkpt lat="-3.1481340" lon="37.2918070">
    <ele>2281.9</ele>
    <time>2026-06-20T12:47:16Z</time>
   </trkpt>
   <trkpt lat="-3.1481340" lon="37.2918150">
    <ele>2282.0</ele>
    <time>2026-06-20T12:47:17Z</time>
   </trkpt>
   <trkpt lat="-3.1481310" lon="37.2918200">
    <ele>2282.1</ele>
    <time>2026-06-20T12:47:18Z</time>
   </trkpt>
   <trkpt lat="-3.1481280" lon="37.2918320">
    <ele>2282.3</ele>
    <time>2026-06-20T12:47:19Z</time>
   </trkpt>
   <trkpt lat="-3.1481220" lon="37.2918360">
    <ele>2282.4</ele>
    <time>2026-06-20T12:47:20Z</time>
   </trkpt>
   <trkpt lat="-3.1481130" lon="37.2918490">
    <ele>2282.6</ele>
    <time>2026-06-20T12:47:21Z</time>
   </trkpt>
   <trkpt lat="-3.1481100" lon="37.2918660">
    <ele>2282.9</ele>
    <time>2026-06-20T12:47:22Z</time>
   </trkpt>
   <trkpt lat="-3.1481100" lon="37.2918670">
    <ele>2282.9</ele>
    <time>2026-06-20T12:47:23Z</time>
   </trkpt>
   <trkpt lat="-3.1481040" lon="37.2918640">
    <ele>2283.0</ele>
    <time>2026-06-20T12:47:24Z</time>
   </trkpt>
   <trkpt lat="-3.1480920" lon="37.2918740">
    <ele>2283.2</ele>
    <time>2026-06-20T12:47:25Z</time>
   </trkpt>
   <trkpt lat="-3.1480840" lon="37.2918910">
    <ele>2283.5</ele>
    <time>2026-06-20T12:47:26Z</time>
   </trkpt>
   <trkpt lat="-3.1480830" lon="37.2918970">
    <ele>2283.6</ele>
    <time>2026-06-20T12:47:27Z</time>
   </trkpt>
   <trkpt lat="-3.1480830" lon="37.2918920">
    <ele>2283.7</ele>
    <time>2026-06-20T12:47:28Z</time>
   </trkpt>
   <trkpt lat="-3.1480710" lon="37.2918960">
    <ele>2283.9</ele>
    <time>2026-06-20T12:47:29Z</time>
   </trkpt>
   <trkpt lat="-3.1480650" lon="37.2919030">
    <ele>2284.0</ele>
    <time>2026-06-20T12:47:30Z</time>
   </trkpt>
   <trkpt lat="-3.1480580" lon="37.2919140">
    <ele>2284.2</ele>
    <time>2026-06-20T12:47:31Z</time>
   </trkpt>
   <trkpt lat="-3.1480560" lon="37.2919120">
    <ele>2284.3</ele>
    <time>2026-06-20T12:47:32Z</time>
   </trkpt>
   <trkpt lat="-3.1480530" lon="37.2919170">
    <ele>2284.4</ele>
    <time>2026-06-20T12:47:33Z</time>
   </trkpt>
   <trkpt lat="-3.1480510" lon="37.2919040">
    <ele>2284.6</ele>
    <time>2026-06-20T12:47:34Z</time>
   </trkpt>
   <trkpt lat="-3.1480520" lon="37.2919030">
    <ele>2284.6</ele>
    <time>2026-06-20T12:47:35Z</time>
   </trkpt>
   <trkpt lat="-3.1480500" lon="37.2919080">
    <ele>2284.7</ele>
    <time>2026-06-20T12:47:36Z</time>
   </trkpt>
   <trkpt lat="-3.1480440" lon="37.2919210">
    <ele>2284.9</ele>
    <time>2026-06-20T12:47:37Z</time>
   </trkpt>
   <trkpt lat="-3.1480390" lon="37.2919240">
    <ele>2285.0</ele>
    <time>2026-06-20T12:47:38Z</time>
   </trkpt>
   <trkpt lat="-3.1480350" lon="37.2919300">
    <ele>2285.1</ele>
    <time>2026-06-20T12:47:39Z</time>
   </trkpt>
   <trkpt lat="-3.1480240" lon="37.2919390">
    <ele>2285.3</ele>
    <time>2026-06-20T12:47:40Z</time>
   </trkpt>
   <trkpt lat="-3.1480180" lon="37.2919460">
    <ele>2285.5</ele>
    <time>2026-06-20T12:47:41Z</time>
   </trkpt>
   <trkpt lat="-3.1480220" lon="37.2919410">
    <ele>2285.5</ele>
    <time>2026-06-20T12:47:42Z</time>
   </trkpt>
   <trkpt lat="-3.1480170" lon="37.2919510">
    <ele>2285.7</ele>
    <time>2026-06-20T12:47:43Z</time>
   </trkpt>
   <trkpt lat="-3.1480160" lon="37.2919510">
    <ele>2285.7</ele>
    <time>2026-06-20T12:47:44Z</time>
   </trkpt>
   <trkpt lat="-3.1480170" lon="37.2919540">
    <ele>2285.8</ele>
    <time>2026-06-20T12:47:45Z</time>
   </trkpt>
   <trkpt lat="-3.1480190" lon="37.2919550">
    <ele>2285.8</ele>
    <time>2026-06-20T12:47:47Z</time>
   </trkpt>
   <trkpt lat="-3.1480190" lon="37.2919570">
    <ele>2285.8</ele>
    <time>2026-06-20T12:47:48Z</time>
   </trkpt>
   <trkpt lat="-3.1480180" lon="37.2919590">
    <ele>2285.9</ele>
    <time>2026-06-20T12:47:49Z</time>
   </trkpt>
   <trkpt lat="-3.1480160" lon="37.2919660">
    <ele>2286.0</ele>
    <time>2026-06-20T12:47:50Z</time>
   </trkpt>
   <trkpt lat="-3.1480120" lon="37.2919730">
    <ele>2286.1</ele>
    <time>2026-06-20T12:47:51Z</time>
   </trkpt>
   <trkpt lat="-3.1480070" lon="37.2919770">
    <ele>2286.2</ele>
    <time>2026-06-20T12:47:52Z</time>
   </trkpt>
   <trkpt lat="-3.1480080" lon="37.2919820">
    <ele>2286.3</ele>
    <time>2026-06-20T12:47:53Z</time>
   </trkpt>
   <trkpt lat="-3.1480060" lon="37.2919880">
    <ele>2286.3</ele>
    <time>2026-06-20T12:47:54Z</time>
   </trkpt>
   <trkpt lat="-3.1480060" lon="37.2919920">
    <ele>2286.4</ele>
    <time>2026-06-20T12:47:55Z</time>
   </trkpt>
   <trkpt lat="-3.1480070" lon="37.2919930">
    <ele>2286.4</ele>
    <time>2026-06-20T12:47:56Z</time>
   </trkpt>
   <trkpt lat="-3.1480080" lon="37.2919970">
    <ele>2286.5</ele>
    <time>2026-06-20T12:47:57Z</time>
   </trkpt>
   <trkpt lat="-3.1480040" lon="37.2920010">
    <ele>2286.6</ele>
    <time>2026-06-20T12:47:58Z</time>
   </trkpt>
   <trkpt lat="-3.1480080" lon="37.2920050">
    <ele>2286.6</ele>
    <time>2026-06-20T12:47:59Z</time>
   </trkpt>
   <trkpt lat="-3.1480080" lon="37.2920090">
    <ele>2286.7</ele>
    <time>2026-06-20T12:48:00Z</time>
   </trkpt>
   <trkpt lat="-3.1480080" lon="37.2920110">
    <ele>2286.7</ele>
    <time>2026-06-20T12:48:01Z</time>
   </trkpt>
   <trkpt lat="-3.1480080" lon="37.2920110">
    <ele>2286.7</ele>
    <time>2026-06-20T12:48:02Z</time>
   </trkpt>
   <trkpt lat="-3.1480070" lon="37.2920150">
    <ele>2286.8</ele>
    <time>2026-06-20T12:48:03Z</time>
   </trkpt>
   <trkpt lat="-3.1480070" lon="37.2920210">
    <ele>2286.9</ele>
    <time>2026-06-20T12:48:04Z</time>
   </trkpt>
   <trkpt lat="-3.1480080" lon="37.2920260">
    <ele>2287.0</ele>
    <time>2026-06-20T12:48:05Z</time>
   </trkpt>
   <trkpt lat="-3.1480090" lon="37.2920240">
    <ele>2287.0</ele>
    <time>2026-06-20T12:48:06Z</time>
   </trkpt>
   <trkpt lat="-3.1480140" lon="37.2920260">
    <ele>2287.1</ele>
    <time>2026-06-20T12:48:07Z</time>
   </trkpt>
   <trkpt lat="-3.1480180" lon="37.2920280">
    <ele>2287.1</ele>
    <time>2026-06-20T12:48:08Z</time>
   </trkpt>
   <trkpt lat="-3.1480210" lon="37.2920280">
    <ele>2287.2</ele>
    <time>2026-06-20T12:48:09Z</time>
   </trkpt>
   <trkpt lat="-3.1480200" lon="37.2920310">
    <ele>2287.2</ele>
    <time>2026-06-20T12:48:10Z</time>
   </trkpt>
   <trkpt lat="-3.1480190" lon="37.2920350">
    <ele>2287.3</ele>
    <time>2026-06-20T12:48:11Z</time>
   </trkpt>
   <trkpt lat="-3.1480210" lon="37.2920380">
    <ele>2287.3</ele>
    <time>2026-06-20T12:48:12Z</time>
   </trkpt>
   <trkpt lat="-3.1480210" lon="37.2920410">
    <ele>2287.4</ele>
    <time>2026-06-20T12:48:13Z</time>
   </trkpt>
   <trkpt lat="-3.1480170" lon="37.2920370">
    <ele>2287.5</ele>
    <time>2026-06-20T12:48:14Z</time>
   </trkpt>
   <trkpt lat="-3.1480120" lon="37.2920310">
    <ele>2287.6</ele>
    <time>2026-06-20T12:48:15Z</time>
   </trkpt>
   <trkpt lat="-3.1480070" lon="37.2920270">
    <ele>2287.7</ele>
    <time>2026-06-20T12:48:16Z</time>
   </trkpt>
   <trkpt lat="-3.1480010" lon="37.2920230">
    <ele>2287.8</ele>
    <time>2026-06-20T12:48:17Z</time>
   </trkpt>
   <trkpt lat="-3.1479980" lon="37.2920200">
    <ele>2287.8</ele>
    <time>2026-06-20T12:48:18Z</time>
   </trkpt>
   <trkpt lat="-3.1479930" lon="37.2920250">
    <ele>2287.9</ele>
    <time>2026-06-20T12:48:19Z</time>
   </trkpt>
   <trkpt lat="-3.1479870" lon="37.2920340">
    <ele>2288.1</ele>
    <time>2026-06-20T12:48:20Z</time>
   </trkpt>
   <trkpt lat="-3.1479850" lon="37.2920450">
    <ele>2288.3</ele>
    <time>2026-06-20T12:48:21Z</time>
   </trkpt>
   <trkpt lat="-3.1479800" lon="37.2920590">
    <ele>2288.5</ele>
    <time>2026-06-20T12:48:22Z</time>
   </trkpt>
   <trkpt lat="-3.1479810" lon="37.2920630">
    <ele>2288.5</ele>
    <time>2026-06-20T12:48:23Z</time>
   </trkpt>
   <trkpt lat="-3.1479850" lon="37.2920710">
    <ele>2288.7</ele>
    <time>2026-06-20T12:48:24Z</time>
   </trkpt>
   <trkpt lat="-3.1479880" lon="37.2920750">
    <ele>2288.7</ele>
    <time>2026-06-20T12:48:25Z</time>
   </trkpt>
   <trkpt lat="-3.1479860" lon="37.2920760">
    <ele>2288.8</ele>
    <time>2026-06-20T12:48:26Z</time>
   </trkpt>
   <trkpt lat="-3.1479870" lon="37.2920800">
    <ele>2288.8</ele>
    <time>2026-06-20T12:48:27Z</time>
   </trkpt>
   <trkpt lat="-3.1479910" lon="37.2920910">
    <ele>2289.0</ele>
    <time>2026-06-20T12:48:28Z</time>
   </trkpt>
   <trkpt lat="-3.1479950" lon="37.2921000">
    <ele>2289.1</ele>
    <time>2026-06-20T12:48:29Z</time>
   </trkpt>
   <trkpt lat="-3.1479980" lon="37.2920950">
    <ele>2289.2</ele>
    <time>2026-06-20T12:48:30Z</time>
   </trkpt>
   <trkpt lat="-3.1480000" lon="37.2920940">
    <ele>2289.3</ele>
    <time>2026-06-20T12:48:31Z</time>
   </trkpt>
   <trkpt lat="-3.1479910" lon="37.2920990">
    <ele>2289.4</ele>
    <time>2026-06-20T12:48:32Z</time>
   </trkpt>
   <trkpt lat="-3.1479850" lon="37.2921000">
    <ele>2289.5</ele>
    <time>2026-06-20T12:48:33Z</time>
   </trkpt>
   <trkpt lat="-3.1479900" lon="37.2920960">
    <ele>2289.6</ele>
    <time>2026-06-20T12:48:34Z</time>
   </trkpt>
   <trkpt lat="-3.1479860" lon="37.2920960">
    <ele>2289.7</ele>
    <time>2026-06-20T12:48:35Z</time>
   </trkpt>
   <trkpt lat="-3.1479830" lon="37.2921000">
    <ele>2289.7</ele>
    <time>2026-06-20T12:48:36Z</time>
   </trkpt>
   <trkpt lat="-3.1479870" lon="37.2921020">
    <ele>2289.8</ele>
    <time>2026-06-20T12:48:37Z</time>
   </trkpt>
   <trkpt lat="-3.1479850" lon="37.2921030">
    <ele>2289.8</ele>
    <time>2026-06-20T12:48:38Z</time>
   </trkpt>
   <trkpt lat="-3.1479890" lon="37.2921020">
    <ele>2289.9</ele>
    <time>2026-06-20T12:48:39Z</time>
   </trkpt>
   <trkpt lat="-3.1479860" lon="37.2921000">
    <ele>2289.9</ele>
    <time>2026-06-20T12:48:40Z</time>
   </trkpt>
   <trkpt lat="-3.1479800" lon="37.2921120">
    <ele>2290.1</ele>
    <time>2026-06-20T12:48:41Z</time>
   </trkpt>
   <trkpt lat="-3.1479700" lon="37.2921100">
    <ele>2290.3</ele>
    <time>2026-06-20T12:48:42Z</time>
   </trkpt>
   <trkpt lat="-3.1479690" lon="37.2921110">
    <ele>2290.3</ele>
    <time>2026-06-20T12:48:43Z</time>
   </trkpt>
   <trkpt lat="-3.1479680" lon="37.2921150">
    <ele>2290.4</ele>
    <time>2026-06-20T12:48:44Z</time>
   </trkpt>
   <trkpt lat="-3.1479650" lon="37.2921210">
    <ele>2290.5</ele>
    <time>2026-06-20T12:48:45Z</time>
   </trkpt>
   <trkpt lat="-3.1479640" lon="37.2921260">
    <ele>2290.6</ele>
    <time>2026-06-20T12:48:46Z</time>
   </trkpt>
   <trkpt lat="-3.1479570" lon="37.2921310">
    <ele>2290.7</ele>
    <time>2026-06-20T12:48:47Z</time>
   </trkpt>
   <trkpt lat="-3.1479400" lon="37.2921390">
    <ele>2291.0</ele>
    <time>2026-06-20T12:48:48Z</time>
   </trkpt>
   <trkpt lat="-3.1479260" lon="37.2921480">
    <ele>2291.2</ele>
    <time>2026-06-20T12:48:49Z</time>
   </trkpt>
   <trkpt lat="-3.1479120" lon="37.2921620">
    <ele>2291.5</ele>
    <time>2026-06-20T12:48:50Z</time>
   </trkpt>
   <trkpt lat="-3.1479020" lon="37.2921620">
    <ele>2291.7</ele>
    <time>2026-06-20T12:48:51Z</time>
   </trkpt>
   <trkpt lat="-3.1478950" lon="37.2921650">
    <ele>2291.8</ele>
    <time>2026-06-20T12:48:52Z</time>
   </trkpt>
   <trkpt lat="-3.1478860" lon="37.2921650">
    <ele>2291.9</ele>
    <time>2026-06-20T12:48:53Z</time>
   </trkpt>
   <trkpt lat="-3.1478890" lon="37.2921550">
    <ele>2292.1</ele>
    <time>2026-06-20T12:48:54Z</time>
   </trkpt>
   <trkpt lat="-3.1478790" lon="37.2921540">
    <ele>2292.2</ele>
    <time>2026-06-20T12:48:55Z</time>
   </trkpt>
   <trkpt lat="-3.1478760" lon="37.2921540">
    <ele>2292.2</ele>
    <time>2026-06-20T12:48:56Z</time>
   </trkpt>
   <trkpt lat="-3.1478720" lon="37.2921540">
    <ele>2292.3</ele>
    <time>2026-06-20T12:48:57Z</time>
   </trkpt>
   <trkpt lat="-3.1478740" lon="37.2921520">
    <ele>2292.3</ele>
    <time>2026-06-20T12:48:58Z</time>
   </trkpt>
   <trkpt lat="-3.1478670" lon="37.2921550">
    <ele>2292.4</ele>
    <time>2026-06-20T12:48:59Z</time>
   </trkpt>
   <trkpt lat="-3.1478560" lon="37.2921530">
    <ele>2292.6</ele>
    <time>2026-06-20T12:49:00Z</time>
   </trkpt>
   <trkpt lat="-3.1478470" lon="37.2921610">
    <ele>2292.8</ele>
    <time>2026-06-20T12:49:01Z</time>
   </trkpt>
   <trkpt lat="-3.1478340" lon="37.2921680">
    <ele>2293.0</ele>
    <time>2026-06-20T12:49:02Z</time>
   </trkpt>
   <trkpt lat="-3.1478260" lon="37.2921690">
    <ele>2293.1</ele>
    <time>2026-06-20T12:49:03Z</time>
   </trkpt>
   <trkpt lat="-3.1478160" lon="37.2921750">
    <ele>2293.2</ele>
    <time>2026-06-20T12:49:04Z</time>
   </trkpt>
   <trkpt lat="-3.1478070" lon="37.2921820">
    <ele>2293.4</ele>
    <time>2026-06-20T12:49:05Z</time>
   </trkpt>
   <trkpt lat="-3.1478070" lon="37.2921770">
    <ele>2293.4</ele>
    <time>2026-06-20T12:49:06Z</time>
   </trkpt>
   <trkpt lat="-3.1478060" lon="37.2921800">
    <ele>2293.5</ele>
    <time>2026-06-20T12:49:07Z</time>
   </trkpt>
   <trkpt lat="-3.1478010" lon="37.2921900">
    <ele>2293.6</ele>
    <time>2026-06-20T12:49:08Z</time>
   </trkpt>
   <trkpt lat="-3.1477920" lon="37.2922030">
    <ele>2293.8</ele>
    <time>2026-06-20T12:49:09Z</time>
   </trkpt>
   <trkpt lat="-3.1477830" lon="37.2922120">
    <ele>2294.0</ele>
    <time>2026-06-20T12:49:10Z</time>
   </trkpt>
   <trkpt lat="-3.1477770" lon="37.2922190">
    <ele>2294.1</ele>
    <time>2026-06-20T12:49:11Z</time>
   </trkpt>
   <trkpt lat="-3.1477740" lon="37.2922260">
    <ele>2294.2</ele>
    <time>2026-06-20T12:49:12Z</time>
   </trkpt>
   <trkpt lat="-3.1477710" lon="37.2922310">
    <ele>2294.3</ele>
    <time>2026-06-20T12:49:13Z</time>
   </trkpt>
   <trkpt lat="-3.1477680" lon="37.2922430">
    <ele>2294.4</ele>
    <time>2026-06-20T12:49:14Z</time>
   </trkpt>
   <trkpt lat="-3.1477540" lon="37.2922520">
    <ele>2294.6</ele>
    <time>2026-06-20T12:49:15Z</time>
   </trkpt>
   <trkpt lat="-3.1477430" lon="37.2922570">
    <ele>2294.7</ele>
    <time>2026-06-20T12:49:16Z</time>
   </trkpt>
   <trkpt lat="-3.1477310" lon="37.2922630">
    <ele>2294.9</ele>
    <time>2026-06-20T12:49:17Z</time>
   </trkpt>
   <trkpt lat="-3.1477240" lon="37.2922630">
    <ele>2295.0</ele>
    <time>2026-06-20T12:49:18Z</time>
   </trkpt>
   <trkpt lat="-3.1477220" lon="37.2922720">
    <ele>2295.0</ele>
    <time>2026-06-20T12:49:19Z</time>
   </trkpt>
   <trkpt lat="-3.1477160" lon="37.2922770">
    <ele>2295.1</ele>
    <time>2026-06-20T12:49:20Z</time>
   </trkpt>
   <trkpt lat="-3.1477060" lon="37.2922820">
    <ele>2295.3</ele>
    <time>2026-06-20T12:49:21Z</time>
   </trkpt>
   <trkpt lat="-3.1476990" lon="37.2922820">
    <ele>2295.3</ele>
    <time>2026-06-20T12:49:22Z</time>
   </trkpt>
   <trkpt lat="-3.1476920" lon="37.2922840">
    <ele>2295.4</ele>
    <time>2026-06-20T12:49:23Z</time>
   </trkpt>
   <trkpt lat="-3.1476860" lon="37.2922880">
    <ele>2295.5</ele>
    <time>2026-06-20T12:49:24Z</time>
   </trkpt>
   <trkpt lat="-3.1476800" lon="37.2922870">
    <ele>2295.5</ele>
    <time>2026-06-20T12:49:25Z</time>
   </trkpt>
   <trkpt lat="-3.1476810" lon="37.2922820">
    <ele>2295.6</ele>
    <time>2026-06-20T12:49:26Z</time>
   </trkpt>
   <trkpt lat="-3.1476770" lon="37.2922850">
    <ele>2295.6</ele>
    <time>2026-06-20T12:49:27Z</time>
   </trkpt>
   <trkpt lat="-3.1476720" lon="37.2922890">
    <ele>2295.7</ele>
    <time>2026-06-20T12:49:28Z</time>
   </trkpt>
   <trkpt lat="-3.1476750" lon="37.2922910">
    <ele>2295.7</ele>
    <time>2026-06-20T12:49:29Z</time>
   </trkpt>
   <trkpt lat="-3.1476790" lon="37.2922880">
    <ele>2295.8</ele>
    <time>2026-06-20T12:49:30Z</time>
   </trkpt>
   <trkpt lat="-3.1476840" lon="37.2922810">
    <ele>2295.8</ele>
    <time>2026-06-20T12:49:31Z</time>
   </trkpt>
   <trkpt lat="-3.1476810" lon="37.2922850">
    <ele>2295.9</ele>
    <time>2026-06-20T12:49:32Z</time>
   </trkpt>
   <trkpt lat="-3.1476740" lon="37.2922900">
    <ele>2296.0</ele>
    <time>2026-06-20T12:49:33Z</time>
   </trkpt>
   <trkpt lat="-3.1476680" lon="37.2923020">
    <ele>2296.1</ele>
    <time>2026-06-20T12:49:34Z</time>
   </trkpt>
   <trkpt lat="-3.1476670" lon="37.2923050">
    <ele>2296.1</ele>
    <time>2026-06-20T12:49:35Z</time>
   </trkpt>
   <trkpt lat="-3.1476650" lon="37.2923080">
    <ele>2296.2</ele>
    <time>2026-06-20T12:49:36Z</time>
   </trkpt>
   <trkpt lat="-3.1476600" lon="37.2923140">
    <ele>2296.2</ele>
    <time>2026-06-20T12:49:37Z</time>
   </trkpt>
   <trkpt lat="-3.1476500" lon="37.2923230">
    <ele>2296.3</ele>
    <time>2026-06-20T12:49:38Z</time>
   </trkpt>
   <trkpt lat="-3.1476470" lon="37.2923250">
    <ele>2296.4</ele>
    <time>2026-06-20T12:49:39Z</time>
   </trkpt>
   <trkpt lat="-3.1476510" lon="37.2923210">
    <ele>2296.4</ele>
    <time>2026-06-20T12:49:40Z</time>
   </trkpt>
   <trkpt lat="-3.1476510" lon="37.2923220">
    <ele>2296.4</ele>
    <time>2026-06-20T12:49:41Z</time>
   </trkpt>
   <trkpt lat="-3.1476470" lon="37.2923200">
    <ele>2296.5</ele>
    <time>2026-06-20T12:49:42Z</time>
   </trkpt>
   <trkpt lat="-3.1476380" lon="37.2923210">
    <ele>2296.5</ele>
    <time>2026-06-20T12:49:43Z</time>
   </trkpt>
   <trkpt lat="-3.1476440" lon="37.2923110">
    <ele>2296.6</ele>
    <time>2026-06-20T12:49:44Z</time>
   </trkpt>
   <trkpt lat="-3.1476460" lon="37.2923140">
    <ele>2296.7</ele>
    <time>2026-06-20T12:49:45Z</time>
   </trkpt>
   <trkpt lat="-3.1476480" lon="37.2923130">
    <ele>2296.7</ele>
    <time>2026-06-20T12:49:46Z</time>
   </trkpt>
   <trkpt lat="-3.1476490" lon="37.2923260">
    <ele>2296.8</ele>
    <time>2026-06-20T12:49:47Z</time>
   </trkpt>
   <trkpt lat="-3.1476500" lon="37.2923350">
    <ele>2296.9</ele>
    <time>2026-06-20T12:49:48Z</time>
   </trkpt>
   <trkpt lat="-3.1476480" lon="37.2923420">
    <ele>2296.9</ele>
    <time>2026-06-20T12:49:49Z</time>
   </trkpt>
   <trkpt lat="-3.1476380" lon="37.2923600">
    <ele>2297.1</ele>
    <time>2026-06-20T12:49:50Z</time>
   </trkpt>
   <trkpt lat="-3.1476310" lon="37.2923730">
    <ele>2297.2</ele>
    <time>2026-06-20T12:49:51Z</time>
   </trkpt>
   <trkpt lat="-3.1476300" lon="37.2923830">
    <ele>2297.2</ele>
    <time>2026-06-20T12:49:52Z</time>
   </trkpt>
   <trkpt lat="-3.1476290" lon="37.2923870">
    <ele>2297.3</ele>
    <time>2026-06-20T12:49:53Z</time>
   </trkpt>
   <trkpt lat="-3.1476360" lon="37.2923890">
    <ele>2297.3</ele>
    <time>2026-06-20T12:49:54Z</time>
   </trkpt>
   <trkpt lat="-3.1476400" lon="37.2924040">
    <ele>2297.4</ele>
    <time>2026-06-20T12:49:55Z</time>
   </trkpt>
   <trkpt lat="-3.1476380" lon="37.2924100">
    <ele>2297.5</ele>
    <time>2026-06-20T12:49:56Z</time>
   </trkpt>
   <trkpt lat="-3.1476400" lon="37.2924230">
    <ele>2297.6</ele>
    <time>2026-06-20T12:49:57Z</time>
   </trkpt>
   <trkpt lat="-3.1476380" lon="37.2924350">
    <ele>2297.6</ele>
    <time>2026-06-20T12:49:58Z</time>
   </trkpt>
   <trkpt lat="-3.1476350" lon="37.2924500">
    <ele>2297.7</ele>
    <time>2026-06-20T12:49:59Z</time>
   </trkpt>
   <trkpt lat="-3.1476320" lon="37.2924570">
    <ele>2297.8</ele>
    <time>2026-06-20T12:50:00Z</time>
   </trkpt>
   <trkpt lat="-3.1476300" lon="37.2924610">
    <ele>2297.8</ele>
    <time>2026-06-20T12:50:01Z</time>
   </trkpt>
   <trkpt lat="-3.1476270" lon="37.2924710">
    <ele>2297.9</ele>
    <time>2026-06-20T12:50:02Z</time>
   </trkpt>
   <trkpt lat="-3.1476220" lon="37.2924790">
    <ele>2298.0</ele>
    <time>2026-06-20T12:50:03Z</time>
   </trkpt>
   <trkpt lat="-3.1476150" lon="37.2924870">
    <ele>2298.0</ele>
    <time>2026-06-20T12:50:04Z</time>
   </trkpt>
   <trkpt lat="-3.1476140" lon="37.2925000">
    <ele>2298.1</ele>
    <time>2026-06-20T12:50:05Z</time>
   </trkpt>
   <trkpt lat="-3.1476080" lon="37.2925080">
    <ele>2298.2</ele>
    <time>2026-06-20T12:50:06Z</time>
   </trkpt>
   <trkpt lat="-3.1475990" lon="37.2925160">
    <ele>2298.3</ele>
    <time>2026-06-20T12:50:07Z</time>
   </trkpt>
   <trkpt lat="-3.1475980" lon="37.2925190">
    <ele>2298.3</ele>
    <time>2026-06-20T12:50:08Z</time>
   </trkpt>
   <trkpt lat="-3.1475910" lon="37.2925280">
    <ele>2298.4</ele>
    <time>2026-06-20T12:50:09Z</time>
   </trkpt>
   <trkpt lat="-3.1475940" lon="37.2925350">
    <ele>2298.4</ele>
    <time>2026-06-20T12:50:10Z</time>
   </trkpt>
   <trkpt lat="-3.1475930" lon="37.2925430">
    <ele>2298.5</ele>
    <time>2026-06-20T12:50:11Z</time>
   </trkpt>
   <trkpt lat="-3.1475790" lon="37.2925600">
    <ele>2298.6</ele>
    <time>2026-06-20T12:50:12Z</time>
   </trkpt>
   <trkpt lat="-3.1475840" lon="37.2925680">
    <ele>2298.7</ele>
    <time>2026-06-20T12:50:13Z</time>
   </trkpt>
   <trkpt lat="-3.1475790" lon="37.2925790">
    <ele>2298.7</ele>
    <time>2026-06-20T12:50:14Z</time>
   </trkpt>
   <trkpt lat="-3.1475730" lon="37.2925910">
    <ele>2298.8</ele>
    <time>2026-06-20T12:50:15Z</time>
   </trkpt>
   <trkpt lat="-3.1475660" lon="37.2926000">
    <ele>2298.9</ele>
    <time>2026-06-20T12:50:16Z</time>
   </trkpt>
   <trkpt lat="-3.1475580" lon="37.2926110">
    <ele>2299.0</ele>
    <time>2026-06-20T12:50:17Z</time>
   </trkpt>
   <trkpt lat="-3.1475530" lon="37.2926230">
    <ele>2299.1</ele>
    <time>2026-06-20T12:50:18Z</time>
   </trkpt>
   <trkpt lat="-3.1475440" lon="37.2926320">
    <ele>2299.2</ele>
    <time>2026-06-20T12:50:19Z</time>
   </trkpt>
   <trkpt lat="-3.1475390" lon="37.2926430">
    <ele>2299.3</ele>
    <time>2026-06-20T12:50:20Z</time>
   </trkpt>
   <trkpt lat="-3.1475310" lon="37.2926550">
    <ele>2299.4</ele>
    <time>2026-06-20T12:50:21Z</time>
   </trkpt>
   <trkpt lat="-3.1475230" lon="37.2926620">
    <ele>2299.5</ele>
    <time>2026-06-20T12:50:22Z</time>
   </trkpt>
   <trkpt lat="-3.1475160" lon="37.2926660">
    <ele>2299.6</ele>
    <time>2026-06-20T12:50:23Z</time>
   </trkpt>
   <trkpt lat="-3.1475030" lon="37.2926720">
    <ele>2299.7</ele>
    <time>2026-06-20T12:50:24Z</time>
   </trkpt>
   <trkpt lat="-3.1474940" lon="37.2926800">
    <ele>2299.8</ele>
    <time>2026-06-20T12:50:25Z</time>
   </trkpt>
   <trkpt lat="-3.1474920" lon="37.2926850">
    <ele>2299.9</ele>
    <time>2026-06-20T12:50:26Z</time>
   </trkpt>
   <trkpt lat="-3.1474870" lon="37.2926960">
    <ele>2300.0</ele>
    <time>2026-06-20T12:50:27Z</time>
   </trkpt>
   <trkpt lat="-3.1474830" lon="37.2927030">
    <ele>2300.1</ele>
    <time>2026-06-20T12:50:28Z</time>
   </trkpt>
   <trkpt lat="-3.1474720" lon="37.2927130">
    <ele>2300.2</ele>
    <time>2026-06-20T12:50:29Z</time>
   </trkpt>
   <trkpt lat="-3.1474650" lon="37.2927210">
    <ele>2300.3</ele>
    <time>2026-06-20T12:50:30Z</time>
   </trkpt>
   <trkpt lat="-3.1474570" lon="37.2927250">
    <ele>2300.4</ele>
    <time>2026-06-20T12:50:31Z</time>
   </trkpt>
   <trkpt lat="-3.1474560" lon="37.2927340">
    <ele>2300.5</ele>
    <time>2026-06-20T12:50:32Z</time>
   </trkpt>
   <trkpt lat="-3.1474490" lon="37.2927380">
    <ele>2300.6</ele>
    <time>2026-06-20T12:50:33Z</time>
   </trkpt>
   <trkpt lat="-3.1474400" lon="37.2927420">
    <ele>2300.7</ele>
    <time>2026-06-20T12:50:34Z</time>
   </trkpt>
   <trkpt lat="-3.1474340" lon="37.2927540">
    <ele>2300.8</ele>
    <time>2026-06-20T12:50:35Z</time>
   </trkpt>
   <trkpt lat="-3.1474290" lon="37.2927600">
    <ele>2300.9</ele>
    <time>2026-06-20T12:50:36Z</time>
   </trkpt>
   <trkpt lat="-3.1474220" lon="37.2927620">
    <ele>2301.0</ele>
    <time>2026-06-20T12:50:37Z</time>
   </trkpt>
   <trkpt lat="-3.1474150" lon="37.2927670">
    <ele>2301.1</ele>
    <time>2026-06-20T12:50:38Z</time>
   </trkpt>
   <trkpt lat="-3.1474110" lon="37.2927670">
    <ele>2301.1</ele>
    <time>2026-06-20T12:50:39Z</time>
   </trkpt>
   <trkpt lat="-3.1474060" lon="37.2927640">
    <ele>2301.2</ele>
    <time>2026-06-20T12:50:40Z</time>
   </trkpt>
   <trkpt lat="-3.1473980" lon="37.2927580">
    <ele>2301.3</ele>
    <time>2026-06-20T12:50:41Z</time>
   </trkpt>
   <trkpt lat="-3.1473870" lon="37.2927640">
    <ele>2301.5</ele>
    <time>2026-06-20T12:50:42Z</time>
   </trkpt>
   <trkpt lat="-3.1473770" lon="37.2927670">
    <ele>2301.6</ele>
    <time>2026-06-20T12:50:43Z</time>
   </trkpt>
   <trkpt lat="-3.1473680" lon="37.2927680">
    <ele>2301.7</ele>
    <time>2026-06-20T12:50:44Z</time>
   </trkpt>
   <trkpt lat="-3.1473580" lon="37.2927670">
    <ele>2301.8</ele>
    <time>2026-06-20T12:50:45Z</time>
   </trkpt>
   <trkpt lat="-3.1473510" lon="37.2927740">
    <ele>2301.9</ele>
    <time>2026-06-20T12:50:46Z</time>
   </trkpt>
   <trkpt lat="-3.1473500" lon="37.2927790">
    <ele>2302.0</ele>
    <time>2026-06-20T12:50:47Z</time>
   </trkpt>
   <trkpt lat="-3.1473390" lon="37.2927830">
    <ele>2302.1</ele>
    <time>2026-06-20T12:50:48Z</time>
   </trkpt>
   <trkpt lat="-3.1473340" lon="37.2927880">
    <ele>2302.2</ele>
    <time>2026-06-20T12:50:49Z</time>
   </trkpt>
   <trkpt lat="-3.1473350" lon="37.2927950">
    <ele>2302.3</ele>
    <time>2026-06-20T12:50:50Z</time>
   </trkpt>
   <trkpt lat="-3.1473340" lon="37.2928000">
    <ele>2302.4</ele>
    <time>2026-06-20T12:50:51Z</time>
   </trkpt>
   <trkpt lat="-3.1473290" lon="37.2928040">
    <ele>2302.4</ele>
    <time>2026-06-20T12:50:52Z</time>
   </trkpt>
   <trkpt lat="-3.1473190" lon="37.2928070">
    <ele>2302.6</ele>
    <time>2026-06-20T12:50:53Z</time>
   </trkpt>
   <trkpt lat="-3.1473090" lon="37.2928140">
    <ele>2302.7</ele>
    <time>2026-06-20T12:50:54Z</time>
   </trkpt>
   <trkpt lat="-3.1473050" lon="37.2928160">
    <ele>2302.8</ele>
    <time>2026-06-20T12:50:55Z</time>
   </trkpt>
   <trkpt lat="-3.1473080" lon="37.2928200">
    <ele>2302.8</ele>
    <time>2026-06-20T12:50:56Z</time>
   </trkpt>
   <trkpt lat="-3.1473030" lon="37.2928330">
    <ele>2303.0</ele>
    <time>2026-06-20T12:50:57Z</time>
   </trkpt>
   <trkpt lat="-3.1472930" lon="37.2928440">
    <ele>2303.2</ele>
    <time>2026-06-20T12:50:58Z</time>
   </trkpt>
   <trkpt lat="-3.1472920" lon="37.2928540">
    <ele>2303.3</ele>
    <time>2026-06-20T12:50:59Z</time>
   </trkpt>
   <trkpt lat="-3.1472930" lon="37.2928610">
    <ele>2303.4</ele>
    <time>2026-06-20T12:51:00Z</time>
   </trkpt>
   <trkpt lat="-3.1472930" lon="37.2928610">
    <ele>2303.4</ele>
    <time>2026-06-20T12:51:01Z</time>
   </trkpt>
   <trkpt lat="-3.1472870" lon="37.2928700">
    <ele>2303.5</ele>
    <time>2026-06-20T12:51:02Z</time>
   </trkpt>
   <trkpt lat="-3.1472850" lon="37.2928730">
    <ele>2303.6</ele>
    <time>2026-06-20T12:51:03Z</time>
   </trkpt>
   <trkpt lat="-3.1472860" lon="37.2928730">
    <ele>2303.6</ele>
    <time>2026-06-20T12:51:04Z</time>
   </trkpt>
   <trkpt lat="-3.1472880" lon="37.2928740">
    <ele>2303.6</ele>
    <time>2026-06-20T12:51:05Z</time>
   </trkpt>
   <trkpt lat="-3.1472820" lon="37.2928740">
    <ele>2303.7</ele>
    <time>2026-06-20T12:51:06Z</time>
   </trkpt>
   <trkpt lat="-3.1472820" lon="37.2928790">
    <ele>2303.7</ele>
    <time>2026-06-20T12:51:07Z</time>
   </trkpt>
   <trkpt lat="-3.1472820" lon="37.2928820">
    <ele>2303.8</ele>
    <time>2026-06-20T12:51:08Z</time>
   </trkpt>
   <trkpt lat="-3.1472800" lon="37.2928860">
    <ele>2303.8</ele>
    <time>2026-06-20T12:51:09Z</time>
   </trkpt>
   <trkpt lat="-3.1472690" lon="37.2928910">
    <ele>2304.0</ele>
    <time>2026-06-20T12:51:10Z</time>
   </trkpt>
   <trkpt lat="-3.1472600" lon="37.2928940">
    <ele>2304.1</ele>
    <time>2026-06-20T12:51:11Z</time>
   </trkpt>
   <trkpt lat="-3.1472550" lon="37.2928980">
    <ele>2304.1</ele>
    <time>2026-06-20T12:51:12Z</time>
   </trkpt>
   <trkpt lat="-3.1472500" lon="37.2929020">
    <ele>2304.2</ele>
    <time>2026-06-20T12:51:13Z</time>
   </trkpt>
   <trkpt lat="-3.1472420" lon="37.2929040">
    <ele>2304.3</ele>
    <time>2026-06-20T12:51:14Z</time>
   </trkpt>
   <trkpt lat="-3.1472380" lon="37.2929090">
    <ele>2304.4</ele>
    <time>2026-06-20T12:51:15Z</time>
   </trkpt>
   <trkpt lat="-3.1472310" lon="37.2929150">
    <ele>2304.5</ele>
    <time>2026-06-20T12:51:16Z</time>
   </trkpt>
   <trkpt lat="-3.1472290" lon="37.2929210">
    <ele>2304.5</ele>
    <time>2026-06-20T12:51:17Z</time>
   </trkpt>
   <trkpt lat="-3.1472130" lon="37.2929390">
    <ele>2304.8</ele>
    <time>2026-06-20T12:51:18Z</time>
   </trkpt>
   <trkpt lat="-3.1472030" lon="37.2929350">
    <ele>2304.9</ele>
    <time>2026-06-20T12:51:19Z</time>
   </trkpt>
   <trkpt lat="-3.1471910" lon="37.2929290">
    <ele>2305.1</ele>
    <time>2026-06-20T12:51:20Z</time>
   </trkpt>
   <trkpt lat="-3.1471900" lon="37.2929300">
    <ele>2305.1</ele>
    <time>2026-06-20T12:51:21Z</time>
   </trkpt>
   <trkpt lat="-3.1471850" lon="37.2929310">
    <ele>2305.1</ele>
    <time>2026-06-20T12:51:22Z</time>
   </trkpt>
   <trkpt lat="-3.1471810" lon="37.2929350">
    <ele>2305.2</ele>
    <time>2026-06-20T12:51:23Z</time>
   </trkpt>
   <trkpt lat="-3.1471760" lon="37.2929390">
    <ele>2305.3</ele>
    <time>2026-06-20T12:51:24Z</time>
   </trkpt>
   <trkpt lat="-3.1471700" lon="37.2929380">
    <ele>2305.3</ele>
    <time>2026-06-20T12:51:25Z</time>
   </trkpt>
   <trkpt lat="-3.1471630" lon="37.2929410">
    <ele>2305.4</ele>
    <time>2026-06-20T12:51:26Z</time>
   </trkpt>
   <trkpt lat="-3.1471560" lon="37.2929350">
    <ele>2305.5</ele>
    <time>2026-06-20T12:51:27Z</time>
   </trkpt>
   <trkpt lat="-3.1471480" lon="37.2929350">
    <ele>2305.6</ele>
    <time>2026-06-20T12:51:28Z</time>
   </trkpt>
   <trkpt lat="-3.1471390" lon="37.2929320">
    <ele>2305.7</ele>
    <time>2026-06-20T12:51:29Z</time>
   </trkpt>
   <trkpt lat="-3.1471350" lon="37.2929390">
    <ele>2305.8</ele>
    <time>2026-06-20T12:51:30Z</time>
   </trkpt>
   <trkpt lat="-3.1471350" lon="37.2929430">
    <ele>2305.8</ele>
    <time>2026-06-20T12:51:31Z</time>
   </trkpt>
   <trkpt lat="-3.1471310" lon="37.2929440">
    <ele>2305.8</ele>
    <time>2026-06-20T12:51:32Z</time>
   </trkpt>
   <trkpt lat="-3.1471280" lon="37.2929500">
    <ele>2305.9</ele>
    <time>2026-06-20T12:51:33Z</time>
   </trkpt>
   <trkpt lat="-3.1471170" lon="37.2929590">
    <ele>2306.0</ele>
    <time>2026-06-20T12:51:34Z</time>
   </trkpt>
   <trkpt lat="-3.1471090" lon="37.2929630">
    <ele>2306.1</ele>
    <time>2026-06-20T12:51:35Z</time>
   </trkpt>
   <trkpt lat="-3.1471020" lon="37.2929690">
    <ele>2306.2</ele>
    <time>2026-06-20T12:51:36Z</time>
   </trkpt>
   <trkpt lat="-3.1470970" lon="37.2929710">
    <ele>2306.3</ele>
    <time>2026-06-20T12:51:37Z</time>
   </trkpt>
   <trkpt lat="-3.1470820" lon="37.2929730">
    <ele>2306.4</ele>
    <time>2026-06-20T12:51:38Z</time>
   </trkpt>
   <trkpt lat="-3.1470720" lon="37.2929770">
    <ele>2306.5</ele>
    <time>2026-06-20T12:51:39Z</time>
   </trkpt>
   <trkpt lat="-3.1470690" lon="37.2929770">
    <ele>2306.5</ele>
    <time>2026-06-20T12:51:40Z</time>
   </trkpt>
   <trkpt lat="-3.1470650" lon="37.2929720">
    <ele>2306.6</ele>
    <time>2026-06-20T12:51:41Z</time>
   </trkpt>
   <trkpt lat="-3.1470630" lon="37.2929690">
    <ele>2306.6</ele>
    <time>2026-06-20T12:51:42Z</time>
   </trkpt>
   <trkpt lat="-3.1470590" lon="37.2929650">
    <ele>2306.7</ele>
    <time>2026-06-20T12:51:43Z</time>
   </trkpt>
   <trkpt lat="-3.1470560" lon="37.2929660">
    <ele>2306.7</ele>
    <time>2026-06-20T12:51:44Z</time>
   </trkpt>
   <trkpt lat="-3.1470500" lon="37.2929640">
    <ele>2306.8</ele>
    <time>2026-06-20T12:51:45Z</time>
   </trkpt>
   <trkpt lat="-3.1470450" lon="37.2929550">
    <ele>2306.8</ele>
    <time>2026-06-20T12:51:46Z</time>
   </trkpt>
   <trkpt lat="-3.1470430" lon="37.2929560">
    <ele>2306.9</ele>
    <time>2026-06-20T12:51:47Z</time>
   </trkpt>
   <trkpt lat="-3.1470370" lon="37.2929600">
    <ele>2306.9</ele>
    <time>2026-06-20T12:51:48Z</time>
   </trkpt>
   <trkpt lat="-3.1470310" lon="37.2929630">
    <ele>2307.0</ele>
    <time>2026-06-20T12:51:49Z</time>
   </trkpt>
   <trkpt lat="-3.1470260" lon="37.2929660">
    <ele>2307.0</ele>
    <time>2026-06-20T12:51:50Z</time>
   </trkpt>
   <trkpt lat="-3.1469980" lon="37.2929810">
    <ele>2307.3</ele>
    <time>2026-06-20T12:51:51Z</time>
   </trkpt>
   <trkpt lat="-3.1469820" lon="37.2929920">
    <ele>2307.5</ele>
    <time>2026-06-20T12:51:52Z</time>
   </trkpt>
   <trkpt lat="-3.1469660" lon="37.2930070">
    <ele>2307.6</ele>
    <time>2026-06-20T12:51:53Z</time>
   </trkpt>
   <trkpt lat="-3.1469600" lon="37.2930080">
    <ele>2307.7</ele>
    <time>2026-06-20T12:51:54Z</time>
   </trkpt>
   <trkpt lat="-3.1469420" lon="37.2930110">
    <ele>2307.8</ele>
    <time>2026-06-20T12:51:55Z</time>
   </trkpt>
   <trkpt lat="-3.1469250" lon="37.2930160">
    <ele>2307.9</ele>
    <time>2026-06-20T12:51:56Z</time>
   </trkpt>
   <trkpt lat="-3.1469130" lon="37.2930250">
    <ele>2308.0</ele>
    <time>2026-06-20T12:51:57Z</time>
   </trkpt>
   <trkpt lat="-3.1469020" lon="37.2930320">
    <ele>2308.1</ele>
    <time>2026-06-20T12:51:58Z</time>
   </trkpt>
   <trkpt lat="-3.1468950" lon="37.2930400">
    <ele>2308.2</ele>
    <time>2026-06-20T12:51:59Z</time>
   </trkpt>
   <trkpt lat="-3.1468890" lon="37.2930410">
    <ele>2308.2</ele>
    <time>2026-06-20T12:52:00Z</time>
   </trkpt>
   <trkpt lat="-3.1468870" lon="37.2930420">
    <ele>2308.2</ele>
    <time>2026-06-20T12:52:01Z</time>
   </trkpt>
   <trkpt lat="-3.1468820" lon="37.2930460">
    <ele>2308.3</ele>
    <time>2026-06-20T12:52:02Z</time>
   </trkpt>
   <trkpt lat="-3.1468770" lon="37.2930480">
    <ele>2308.3</ele>
    <time>2026-06-20T12:52:03Z</time>
   </trkpt>
   <trkpt lat="-3.1468710" lon="37.2930540">
    <ele>2308.3</ele>
    <time>2026-06-20T12:52:04Z</time>
   </trkpt>
   <trkpt lat="-3.1468630" lon="37.2930630">
    <ele>2308.4</ele>
    <time>2026-06-20T12:52:05Z</time>
   </trkpt>
   <trkpt lat="-3.1468530" lon="37.2930620">
    <ele>2308.5</ele>
    <time>2026-06-20T12:52:06Z</time>
   </trkpt>
   <trkpt lat="-3.1468390" lon="37.2930680">
    <ele>2308.6</ele>
    <time>2026-06-20T12:52:07Z</time>
   </trkpt>
   <trkpt lat="-3.1468440" lon="37.2930520">
    <ele>2308.7</ele>
    <time>2026-06-20T12:52:08Z</time>
   </trkpt>
   <trkpt lat="-3.1468470" lon="37.2930560">
    <ele>2308.7</ele>
    <time>2026-06-20T12:52:09Z</time>
   </trkpt>
   <trkpt lat="-3.1468460" lon="37.2930520">
    <ele>2308.7</ele>
    <time>2026-06-20T12:52:10Z</time>
   </trkpt>
   <trkpt lat="-3.1468480" lon="37.2930590">
    <ele>2308.8</ele>
    <time>2026-06-20T12:52:11Z</time>
   </trkpt>
   <trkpt lat="-3.1468470" lon="37.2930640">
    <ele>2308.8</ele>
    <time>2026-06-20T12:52:12Z</time>
   </trkpt>
   <trkpt lat="-3.1468430" lon="37.2930660">
    <ele>2308.8</ele>
    <time>2026-06-20T12:52:13Z</time>
   </trkpt>
   <trkpt lat="-3.1468470" lon="37.2930610">
    <ele>2308.8</ele>
    <time>2026-06-20T12:52:14Z</time>
   </trkpt>
   <trkpt lat="-3.1468450" lon="37.2930600">
    <ele>2308.9</ele>
    <time>2026-06-20T12:52:15Z</time>
   </trkpt>
   <trkpt lat="-3.1468380" lon="37.2930610">
    <ele>2308.9</ele>
    <time>2026-06-20T12:52:16Z</time>
   </trkpt>
   <trkpt lat="-3.1468280" lon="37.2930630">
    <ele>2309.0</ele>
    <time>2026-06-20T12:52:17Z</time>
   </trkpt>
   <trkpt lat="-3.1468160" lon="37.2930660">
    <ele>2309.0</ele>
    <time>2026-06-20T12:52:18Z</time>
   </trkpt>
   <trkpt lat="-3.1468040" lon="37.2930690">
    <ele>2309.2</ele>
    <time>2026-06-20T12:52:19Z</time>
   </trkpt>
   <trkpt lat="-3.1467970" lon="37.2930720">
    <ele>2309.3</ele>
    <time>2026-06-20T12:52:20Z</time>
   </trkpt>
   <trkpt lat="-3.1467850" lon="37.2930780">
    <ele>2309.4</ele>
    <time>2026-06-20T12:52:21Z</time>
   </trkpt>
   <trkpt lat="-3.1467820" lon="37.2930850">
    <ele>2309.5</ele>
    <time>2026-06-20T12:52:22Z</time>
   </trkpt>
   <trkpt lat="-3.1467960" lon="37.2930820">
    <ele>2309.7</ele>
    <time>2026-06-20T12:52:23Z</time>
   </trkpt>
   <trkpt lat="-3.1467800" lon="37.2930740">
    <ele>2309.9</ele>
    <time>2026-06-20T12:52:24Z</time>
   </trkpt>
   <trkpt lat="-3.1467760" lon="37.2930760">
    <ele>2310.0</ele>
    <time>2026-06-20T12:52:25Z</time>
   </trkpt>
   <trkpt lat="-3.1467680" lon="37.2930750">
    <ele>2310.1</ele>
    <time>2026-06-20T12:52:26Z</time>
   </trkpt>
   <trkpt lat="-3.1467610" lon="37.2930730">
    <ele>2310.2</ele>
    <time>2026-06-20T12:52:27Z</time>
   </trkpt>
   <trkpt lat="-3.1467480" lon="37.2930640">
    <ele>2310.4</ele>
    <time>2026-06-20T12:52:28Z</time>
   </trkpt>
   <trkpt lat="-3.1467410" lon="37.2930700">
    <ele>2310.6</ele>
    <time>2026-06-20T12:52:29Z</time>
   </trkpt>
   <trkpt lat="-3.1467400" lon="37.2930700">
    <ele>2310.6</ele>
    <time>2026-06-20T12:52:30Z</time>
   </trkpt>
   <trkpt lat="-3.1467410" lon="37.2930670">
    <ele>2310.6</ele>
    <time>2026-06-20T12:52:31Z</time>
   </trkpt>
   <trkpt lat="-3.1467440" lon="37.2930640">
    <ele>2310.7</ele>
    <time>2026-06-20T12:52:32Z</time>
   </trkpt>
   <trkpt lat="-3.1467460" lon="37.2930620">
    <ele>2310.7</ele>
    <time>2026-06-20T12:52:33Z</time>
   </trkpt>
   <trkpt lat="-3.1467380" lon="37.2930680">
    <ele>2310.9</ele>
    <time>2026-06-20T12:52:34Z</time>
   </trkpt>
   <trkpt lat="-3.1467360" lon="37.2930710">
    <ele>2311.0</ele>
    <time>2026-06-20T12:52:35Z</time>
   </trkpt>
   <trkpt lat="-3.1467310" lon="37.2930760">
    <ele>2311.1</ele>
    <time>2026-06-20T12:52:36Z</time>
   </trkpt>
   <trkpt lat="-3.1467270" lon="37.2930810">
    <ele>2311.2</ele>
    <time>2026-06-20T12:52:37Z</time>
   </trkpt>
   <trkpt lat="-3.1467070" lon="37.2930950">
    <ele>2311.6</ele>
    <time>2026-06-20T12:52:38Z</time>
   </trkpt>
   <trkpt lat="-3.1466860" lon="37.2930940">
    <ele>2312.0</ele>
    <time>2026-06-20T12:52:39Z</time>
   </trkpt>
   <trkpt lat="-3.1466680" lon="37.2930980">
    <ele>2312.4</ele>
    <time>2026-06-20T12:52:40Z</time>
   </trkpt>
   <trkpt lat="-3.1466570" lon="37.2930960">
    <ele>2312.6</ele>
    <time>2026-06-20T12:52:41Z</time>
   </trkpt>
   <trkpt lat="-3.1466550" lon="37.2930960">
    <ele>2312.6</ele>
    <time>2026-06-20T12:52:42Z</time>
   </trkpt>
   <trkpt lat="-3.1466470" lon="37.2930980">
    <ele>2312.8</ele>
    <time>2026-06-20T12:52:43Z</time>
   </trkpt>
   <trkpt lat="-3.1466400" lon="37.2931040">
    <ele>2312.9</ele>
    <time>2026-06-20T12:52:44Z</time>
   </trkpt>
   <trkpt lat="-3.1466390" lon="37.2931020">
    <ele>2313.0</ele>
    <time>2026-06-20T12:52:45Z</time>
   </trkpt>
   <trkpt lat="-3.1466370" lon="37.2931000">
    <ele>2313.0</ele>
    <time>2026-06-20T12:52:46Z</time>
   </trkpt>
   <trkpt lat="-3.1466320" lon="37.2931030">
    <ele>2313.1</ele>
    <time>2026-06-20T12:52:47Z</time>
   </trkpt>
   <trkpt lat="-3.1466230" lon="37.2931070">
    <ele>2313.3</ele>
    <time>2026-06-20T12:52:48Z</time>
   </trkpt>
   <trkpt lat="-3.1466260" lon="37.2931160">
    <ele>2313.5</ele>
    <time>2026-06-20T12:52:49Z</time>
   </trkpt>
   <trkpt lat="-3.1466220" lon="37.2931160">
    <ele>2313.6</ele>
    <time>2026-06-20T12:52:50Z</time>
   </trkpt>
   <trkpt lat="-3.1466190" lon="37.2931200">
    <ele>2313.7</ele>
    <time>2026-06-20T12:52:51Z</time>
   </trkpt>
   <trkpt lat="-3.1466190" lon="37.2931200">
    <ele>2313.7</ele>
    <time>2026-06-20T12:52:52Z</time>
   </trkpt>
   <trkpt lat="-3.1466190" lon="37.2931150">
    <ele>2313.8</ele>
    <time>2026-06-20T12:52:53Z</time>
   </trkpt>
   <trkpt lat="-3.1466120" lon="37.2931210">
    <ele>2314.0</ele>
    <time>2026-06-20T12:52:54Z</time>
   </trkpt>
   <trkpt lat="-3.1466130" lon="37.2931260">
    <ele>2314.0</ele>
    <time>2026-06-20T12:52:55Z</time>
   </trkpt>
   <trkpt lat="-3.1466050" lon="37.2931300">
    <ele>2314.2</ele>
    <time>2026-06-20T12:52:56Z</time>
   </trkpt>
   <trkpt lat="-3.1465970" lon="37.2931310">
    <ele>2314.3</ele>
    <time>2026-06-20T12:52:57Z</time>
   </trkpt>
   <trkpt lat="-3.1465930" lon="37.2931270">
    <ele>2314.4</ele>
    <time>2026-06-20T12:52:58Z</time>
   </trkpt>
   <trkpt lat="-3.1465860" lon="37.2931260">
    <ele>2314.6</ele>
    <time>2026-06-20T12:52:59Z</time>
   </trkpt>
   <trkpt lat="-3.1465830" lon="37.2931270">
    <ele>2314.6</ele>
    <time>2026-06-20T12:53:00Z</time>
   </trkpt>
   <trkpt lat="-3.1465820" lon="37.2931290">
    <ele>2314.7</ele>
    <time>2026-06-20T12:53:01Z</time>
   </trkpt>
   <trkpt lat="-3.1465830" lon="37.2931290">
    <ele>2314.7</ele>
    <time>2026-06-20T12:53:02Z</time>
   </trkpt>
   <trkpt lat="-3.1465800" lon="37.2931270">
    <ele>2314.7</ele>
    <time>2026-06-20T12:53:03Z</time>
   </trkpt>
   <trkpt lat="-3.1465780" lon="37.2931250">
    <ele>2314.8</ele>
    <time>2026-06-20T12:53:04Z</time>
   </trkpt>
   <trkpt lat="-3.1465770" lon="37.2931290">
    <ele>2314.9</ele>
    <time>2026-06-20T12:53:05Z</time>
   </trkpt>
   <trkpt lat="-3.1465770" lon="37.2931250">
    <ele>2314.9</ele>
    <time>2026-06-20T12:53:06Z</time>
   </trkpt>
   <trkpt lat="-3.1465750" lon="37.2931250">
    <ele>2315.0</ele>
    <time>2026-06-20T12:53:07Z</time>
   </trkpt>
   <trkpt lat="-3.1465690" lon="37.2931220">
    <ele>2315.1</ele>
    <time>2026-06-20T12:53:08Z</time>
   </trkpt>
   <trkpt lat="-3.1465670" lon="37.2931250">
    <ele>2315.2</ele>
    <time>2026-06-20T12:53:09Z</time>
   </trkpt>
   <trkpt lat="-3.1465620" lon="37.2931240">
    <ele>2315.2</ele>
    <time>2026-06-20T12:53:10Z</time>
   </trkpt>
   <trkpt lat="-3.1465600" lon="37.2931230">
    <ele>2315.3</ele>
    <time>2026-06-20T12:53:11Z</time>
   </trkpt>
   <trkpt lat="-3.1465630" lon="37.2931230">
    <ele>2315.3</ele>
    <time>2026-06-20T12:53:12Z</time>
   </trkpt>
   <trkpt lat="-3.1465560" lon="37.2931240">
    <ele>2315.4</ele>
    <time>2026-06-20T12:53:13Z</time>
   </trkpt>
   <trkpt lat="-3.1465500" lon="37.2931230">
    <ele>2315.5</ele>
    <time>2026-06-20T12:53:14Z</time>
   </trkpt>
   <trkpt lat="-3.1465430" lon="37.2931220">
    <ele>2315.6</ele>
    <time>2026-06-20T12:53:15Z</time>
   </trkpt>
   <trkpt lat="-3.1465360" lon="37.2931220">
    <ele>2315.7</ele>
    <time>2026-06-20T12:53:16Z</time>
   </trkpt>
   <trkpt lat="-3.1465300" lon="37.2931190">
    <ele>2315.8</ele>
    <time>2026-06-20T12:53:17Z</time>
   </trkpt>
   <trkpt lat="-3.1465230" lon="37.2931170">
    <ele>2316.0</ele>
    <time>2026-06-20T12:53:18Z</time>
   </trkpt>
   <trkpt lat="-3.1465210" lon="37.2931140">
    <ele>2316.0</ele>
    <time>2026-06-20T12:53:19Z</time>
   </trkpt>
   <trkpt lat="-3.1465150" lon="37.2931120">
    <ele>2316.1</ele>
    <time>2026-06-20T12:53:20Z</time>
   </trkpt>
   <trkpt lat="-3.1465100" lon="37.2931190">
    <ele>2316.2</ele>
    <time>2026-06-20T12:53:21Z</time>
   </trkpt>
   <trkpt lat="-3.1465060" lon="37.2931230">
    <ele>2316.3</ele>
    <time>2026-06-20T12:53:22Z</time>
   </trkpt>
   <trkpt lat="-3.1465010" lon="37.2931250">
    <ele>2316.4</ele>
    <time>2026-06-20T12:53:23Z</time>
   </trkpt>
   <trkpt lat="-3.1464990" lon="37.2931220">
    <ele>2316.4</ele>
    <time>2026-06-20T12:53:24Z</time>
   </trkpt>
   <trkpt lat="-3.1464950" lon="37.2931180">
    <ele>2316.5</ele>
    <time>2026-06-20T12:53:25Z</time>
   </trkpt>
   <trkpt lat="-3.1464910" lon="37.2931140">
    <ele>2316.6</ele>
    <time>2026-06-20T12:53:26Z</time>
   </trkpt>
   <trkpt lat="-3.1464870" lon="37.2931190">
    <ele>2316.7</ele>
    <time>2026-06-20T12:53:27Z</time>
   </trkpt>
   <trkpt lat="-3.1464810" lon="37.2931220">
    <ele>2316.7</ele>
    <time>2026-06-20T12:53:28Z</time>
   </trkpt>
   <trkpt lat="-3.1464790" lon="37.2931230">
    <ele>2316.8</ele>
    <time>2026-06-20T12:53:29Z</time>
   </trkpt>
   <trkpt lat="-3.1464740" lon="37.2931240">
    <ele>2316.8</ele>
    <time>2026-06-20T12:53:30Z</time>
   </trkpt>
   <trkpt lat="-3.1464680" lon="37.2931270">
    <ele>2316.9</ele>
    <time>2026-06-20T12:53:31Z</time>
   </trkpt>
   <trkpt lat="-3.1464610" lon="37.2931270">
    <ele>2317.0</ele>
    <time>2026-06-20T12:53:32Z</time>
   </trkpt>
   <trkpt lat="-3.1464550" lon="37.2931250">
    <ele>2317.1</ele>
    <time>2026-06-20T12:53:33Z</time>
   </trkpt>
   <trkpt lat="-3.1464530" lon="37.2931290">
    <ele>2317.1</ele>
    <time>2026-06-20T12:53:34Z</time>
   </trkpt>
   <trkpt lat="-3.1464480" lon="37.2931350">
    <ele>2317.2</ele>
    <time>2026-06-20T12:53:35Z</time>
   </trkpt>
   <trkpt lat="-3.1464450" lon="37.2931380">
    <ele>2317.3</ele>
    <time>2026-06-20T12:53:36Z</time>
   </trkpt>
   <trkpt lat="-3.1464380" lon="37.2931420">
    <ele>2317.4</ele>
    <time>2026-06-20T12:53:37Z</time>
   </trkpt>
   <trkpt lat="-3.1464380" lon="37.2931460">
    <ele>2317.4</ele>
    <time>2026-06-20T12:53:38Z</time>
   </trkpt>
   <trkpt lat="-3.1464310" lon="37.2931500">
    <ele>2317.5</ele>
    <time>2026-06-20T12:53:39Z</time>
   </trkpt>
   <trkpt lat="-3.1464210" lon="37.2931520">
    <ele>2317.6</ele>
    <time>2026-06-20T12:53:40Z</time>
   </trkpt>
   <trkpt lat="-3.1464110" lon="37.2931630">
    <ele>2317.8</ele>
    <time>2026-06-20T12:53:41Z</time>
   </trkpt>
   <trkpt lat="-3.1464070" lon="37.2931610">
    <ele>2317.8</ele>
    <time>2026-06-20T12:53:42Z</time>
   </trkpt>
   <trkpt lat="-3.1464010" lon="37.2931660">
    <ele>2317.9</ele>
    <time>2026-06-20T12:53:43Z</time>
   </trkpt>
   <trkpt lat="-3.1463900" lon="37.2931760">
    <ele>2318.0</ele>
    <time>2026-06-20T12:53:44Z</time>
   </trkpt>
   <trkpt lat="-3.1463870" lon="37.2931770">
    <ele>2318.1</ele>
    <time>2026-06-20T12:53:45Z</time>
   </trkpt>
   <trkpt lat="-3.1463800" lon="37.2931810">
    <ele>2318.2</ele>
    <time>2026-06-20T12:53:46Z</time>
   </trkpt>
   <trkpt lat="-3.1463690" lon="37.2931880">
    <ele>2318.3</ele>
    <time>2026-06-20T12:53:47Z</time>
   </trkpt>
   <trkpt lat="-3.1463670" lon="37.2931890">
    <ele>2318.3</ele>
    <time>2026-06-20T12:53:48Z</time>
   </trkpt>
   <trkpt lat="-3.1463640" lon="37.2931920">
    <ele>2318.3</ele>
    <time>2026-06-20T12:53:49Z</time>
   </trkpt>
   <trkpt lat="-3.1463520" lon="37.2932020">
    <ele>2318.5</ele>
    <time>2026-06-20T12:53:50Z</time>
   </trkpt>
   <trkpt lat="-3.1463550" lon="37.2932040">
    <ele>2318.5</ele>
    <time>2026-06-20T12:53:51Z</time>
   </trkpt>
   <trkpt lat="-3.1463550" lon="37.2932110">
    <ele>2318.6</ele>
    <time>2026-06-20T12:53:52Z</time>
   </trkpt>
   <trkpt lat="-3.1463520" lon="37.2932160">
    <ele>2318.6</ele>
    <time>2026-06-20T12:53:53Z</time>
   </trkpt>
   <trkpt lat="-3.1463520" lon="37.2932150">
    <ele>2318.6</ele>
    <time>2026-06-20T12:53:54Z</time>
   </trkpt>
   <trkpt lat="-3.1463470" lon="37.2932160">
    <ele>2318.7</ele>
    <time>2026-06-20T12:53:55Z</time>
   </trkpt>
   <trkpt lat="-3.1463420" lon="37.2932170">
    <ele>2318.7</ele>
    <time>2026-06-20T12:53:56Z</time>
   </trkpt>
   <trkpt lat="-3.1463410" lon="37.2932170">
    <ele>2318.7</ele>
    <time>2026-06-20T12:53:57Z</time>
   </trkpt>
   <trkpt lat="-3.1463390" lon="37.2932130">
    <ele>2318.7</ele>
    <time>2026-06-20T12:53:58Z</time>
   </trkpt>
   <trkpt lat="-3.1463310" lon="37.2932150">
    <ele>2318.8</ele>
    <time>2026-06-20T12:53:59Z</time>
   </trkpt>
   <trkpt lat="-3.1463200" lon="37.2932180">
    <ele>2318.9</ele>
    <time>2026-06-20T12:54:00Z</time>
   </trkpt>
   <trkpt lat="-3.1463100" lon="37.2932240">
    <ele>2319.0</ele>
    <time>2026-06-20T12:54:01Z</time>
   </trkpt>
   <trkpt lat="-3.1462970" lon="37.2932230">
    <ele>2319.1</ele>
    <time>2026-06-20T12:54:02Z</time>
   </trkpt>
   <trkpt lat="-3.1462850" lon="37.2932280">
    <ele>2319.2</ele>
    <time>2026-06-20T12:54:04Z</time>
   </trkpt>
   <trkpt lat="-3.1462710" lon="37.2932340">
    <ele>2319.4</ele>
    <time>2026-06-20T12:54:05Z</time>
   </trkpt>
   <trkpt lat="-3.1462660" lon="37.2932370">
    <ele>2319.4</ele>
    <time>2026-06-20T12:54:06Z</time>
   </trkpt>
   <trkpt lat="-3.1462590" lon="37.2932390">
    <ele>2319.5</ele>
    <time>2026-06-20T12:54:07Z</time>
   </trkpt>
   <trkpt lat="-3.1462500" lon="37.2932430">
    <ele>2319.6</ele>
    <time>2026-06-20T12:54:08Z</time>
   </trkpt>
   <trkpt lat="-3.1462410" lon="37.2932460">
    <ele>2319.6</ele>
    <time>2026-06-20T12:54:09Z</time>
   </trkpt>
   <trkpt lat="-3.1462270" lon="37.2932480">
    <ele>2319.8</ele>
    <time>2026-06-20T12:54:10Z</time>
   </trkpt>
   <trkpt lat="-3.1462150" lon="37.2932560">
    <ele>2319.9</ele>
    <time>2026-06-20T12:54:11Z</time>
   </trkpt>
   <trkpt lat="-3.1462090" lon="37.2932550">
    <ele>2319.9</ele>
    <time>2026-06-20T12:54:12Z</time>
   </trkpt>
   <trkpt lat="-3.1462020" lon="37.2932560">
    <ele>2320.0</ele>
    <time>2026-06-20T12:54:13Z</time>
   </trkpt>
   <trkpt lat="-3.1461920" lon="37.2932590">
    <ele>2320.1</ele>
    <time>2026-06-20T12:54:14Z</time>
   </trkpt>
   <trkpt lat="-3.1461860" lon="37.2932600">
    <ele>2320.2</ele>
    <time>2026-06-20T12:54:15Z</time>
   </trkpt>
   <trkpt lat="-3.1461830" lon="37.2932670">
    <ele>2320.2</ele>
    <time>2026-06-20T12:54:16Z</time>
   </trkpt>
   <trkpt lat="-3.1461770" lon="37.2932730">
    <ele>2320.3</ele>
    <time>2026-06-20T12:54:17Z</time>
   </trkpt>
   <trkpt lat="-3.1461740" lon="37.2932860">
    <ele>2320.4</ele>
    <time>2026-06-20T12:54:18Z</time>
   </trkpt>
   <trkpt lat="-3.1461680" lon="37.2933020">
    <ele>2320.6</ele>
    <time>2026-06-20T12:54:19Z</time>
   </trkpt>
   <trkpt lat="-3.1461650" lon="37.2933030">
    <ele>2320.6</ele>
    <time>2026-06-20T12:54:20Z</time>
   </trkpt>
   <trkpt lat="-3.1461640" lon="37.2933080">
    <ele>2320.7</ele>
    <time>2026-06-20T12:54:21Z</time>
   </trkpt>
   <trkpt lat="-3.1461680" lon="37.2933070">
    <ele>2320.7</ele>
    <time>2026-06-20T12:54:22Z</time>
   </trkpt>
   <trkpt lat="-3.1461630" lon="37.2933060">
    <ele>2320.8</ele>
    <time>2026-06-20T12:54:23Z</time>
   </trkpt>
   <trkpt lat="-3.1461540" lon="37.2933080">
    <ele>2320.8</ele>
    <time>2026-06-20T12:54:24Z</time>
   </trkpt>
   <trkpt lat="-3.1461650" lon="37.2933040">
    <ele>2321.0</ele>
    <time>2026-06-20T12:54:25Z</time>
   </trkpt>
   <trkpt lat="-3.1461610" lon="37.2933070">
    <ele>2321.0</ele>
    <time>2026-06-20T12:54:26Z</time>
   </trkpt>
   <trkpt lat="-3.1461620" lon="37.2933090">
    <ele>2321.0</ele>
    <time>2026-06-20T12:54:27Z</time>
   </trkpt>
   <trkpt lat="-3.1461580" lon="37.2933180">
    <ele>2321.1</ele>
    <time>2026-06-20T12:54:28Z</time>
   </trkpt>
   <trkpt lat="-3.1461590" lon="37.2933300">
    <ele>2321.2</ele>
    <time>2026-06-20T12:54:29Z</time>
   </trkpt>
   <trkpt lat="-3.1461540" lon="37.2933350">
    <ele>2321.3</ele>
    <time>2026-06-20T12:54:30Z</time>
   </trkpt>
   <trkpt lat="-3.1461470" lon="37.2933410">
    <ele>2321.4</ele>
    <time>2026-06-20T12:54:31Z</time>
   </trkpt>
   <trkpt lat="-3.1461390" lon="37.2933480">
    <ele>2321.5</ele>
    <time>2026-06-20T12:54:32Z</time>
   </trkpt>
   <trkpt lat="-3.1461410" lon="37.2933560">
    <ele>2321.6</ele>
    <time>2026-06-20T12:54:33Z</time>
   </trkpt>
   <trkpt lat="-3.1461380" lon="37.2933600">
    <ele>2321.6</ele>
    <time>2026-06-20T12:54:34Z</time>
   </trkpt>
   <trkpt lat="-3.1461330" lon="37.2933650">
    <ele>2321.7</ele>
    <time>2026-06-20T12:54:35Z</time>
   </trkpt>
   <trkpt lat="-3.1461230" lon="37.2933760">
    <ele>2321.8</ele>
    <time>2026-06-20T12:54:36Z</time>
   </trkpt>
   <trkpt lat="-3.1461150" lon="37.2933850">
    <ele>2321.9</ele>
    <time>2026-06-20T12:54:37Z</time>
   </trkpt>
   <trkpt lat="-3.1461120" lon="37.2933890">
    <ele>2322.0</ele>
    <time>2026-06-20T12:54:38Z</time>
   </trkpt>
   <trkpt lat="-3.1461050" lon="37.2933940">
    <ele>2322.0</ele>
    <time>2026-06-20T12:54:39Z</time>
   </trkpt>
   <trkpt lat="-3.1461020" lon="37.2934010">
    <ele>2322.1</ele>
    <time>2026-06-20T12:54:40Z</time>
   </trkpt>
   <trkpt lat="-3.1460970" lon="37.2934080">
    <ele>2322.2</ele>
    <time>2026-06-20T12:54:41Z</time>
   </trkpt>
   <trkpt lat="-3.1460860" lon="37.2934120">
    <ele>2322.3</ele>
    <time>2026-06-20T12:54:42Z</time>
   </trkpt>
   <trkpt lat="-3.1460730" lon="37.2934130">
    <ele>2322.4</ele>
    <time>2026-06-20T12:54:43Z</time>
   </trkpt>
   <trkpt lat="-3.1460450" lon="37.2934160">
    <ele>2322.6</ele>
    <time>2026-06-20T12:54:44Z</time>
   </trkpt>
   <trkpt lat="-3.1460280" lon="37.2934220">
    <ele>2322.7</ele>
    <time>2026-06-20T12:54:45Z</time>
   </trkpt>
   <trkpt lat="-3.1460220" lon="37.2934310">
    <ele>2322.8</ele>
    <time>2026-06-20T12:54:46Z</time>
   </trkpt>
   <trkpt lat="-3.1460020" lon="37.2934570">
    <ele>2323.1</ele>
    <time>2026-06-20T12:54:47Z</time>
   </trkpt>
   <trkpt lat="-3.1459950" lon="37.2934710">
    <ele>2323.2</ele>
    <time>2026-06-20T12:54:48Z</time>
   </trkpt>
   <trkpt lat="-3.1459950" lon="37.2934810">
    <ele>2323.3</ele>
    <time>2026-06-20T12:54:49Z</time>
   </trkpt>
   <trkpt lat="-3.1459920" lon="37.2934910">
    <ele>2323.3</ele>
    <time>2026-06-20T12:54:50Z</time>
   </trkpt>
   <trkpt lat="-3.1459850" lon="37.2934990">
    <ele>2323.4</ele>
    <time>2026-06-20T12:54:51Z</time>
   </trkpt>
   <trkpt lat="-3.1459720" lon="37.2935100">
    <ele>2323.5</ele>
    <time>2026-06-20T12:54:52Z</time>
   </trkpt>
   <trkpt lat="-3.1459610" lon="37.2935250">
    <ele>2323.7</ele>
    <time>2026-06-20T12:54:53Z</time>
   </trkpt>
   <trkpt lat="-3.1459530" lon="37.2935340">
    <ele>2323.8</ele>
    <time>2026-06-20T12:54:54Z</time>
   </trkpt>
   <trkpt lat="-3.1459410" lon="37.2935440">
    <ele>2323.9</ele>
    <time>2026-06-20T12:54:55Z</time>
   </trkpt>
   <trkpt lat="-3.1459360" lon="37.2935560">
    <ele>2324.0</ele>
    <time>2026-06-20T12:54:56Z</time>
   </trkpt>
   <trkpt lat="-3.1459310" lon="37.2935560">
    <ele>2324.0</ele>
    <time>2026-06-20T12:54:57Z</time>
   </trkpt>
   <trkpt lat="-3.1459290" lon="37.2935590">
    <ele>2324.0</ele>
    <time>2026-06-20T12:54:58Z</time>
   </trkpt>
   <trkpt lat="-3.1459290" lon="37.2935670">
    <ele>2324.1</ele>
    <time>2026-06-20T12:54:59Z</time>
   </trkpt>
   <trkpt lat="-3.1459240" lon="37.2935650">
    <ele>2324.2</ele>
    <time>2026-06-20T12:55:00Z</time>
   </trkpt>
   <trkpt lat="-3.1459140" lon="37.2935670">
    <ele>2324.2</ele>
    <time>2026-06-20T12:55:01Z</time>
   </trkpt>
   <trkpt lat="-3.1459190" lon="37.2935660">
    <ele>2324.3</ele>
    <time>2026-06-20T12:55:02Z</time>
   </trkpt>
   <trkpt lat="-3.1459230" lon="37.2935690">
    <ele>2324.3</ele>
    <time>2026-06-20T12:55:03Z</time>
   </trkpt>
   <trkpt lat="-3.1459180" lon="37.2935670">
    <ele>2324.4</ele>
    <time>2026-06-20T12:55:04Z</time>
   </trkpt>
   <trkpt lat="-3.1459170" lon="37.2935690">
    <ele>2324.4</ele>
    <time>2026-06-20T12:55:05Z</time>
   </trkpt>
   <trkpt lat="-3.1459040" lon="37.2935760">
    <ele>2324.5</ele>
    <time>2026-06-20T12:55:06Z</time>
   </trkpt>
   <trkpt lat="-3.1458970" lon="37.2935850">
    <ele>2324.6</ele>
    <time>2026-06-20T12:55:07Z</time>
   </trkpt>
   <trkpt lat="-3.1458850" lon="37.2935870">
    <ele>2324.7</ele>
    <time>2026-06-20T12:55:08Z</time>
   </trkpt>
   <trkpt lat="-3.1458810" lon="37.2935890">
    <ele>2324.7</ele>
    <time>2026-06-20T12:55:09Z</time>
   </trkpt>
   <trkpt lat="-3.1458790" lon="37.2935980">
    <ele>2324.8</ele>
    <time>2026-06-20T12:55:10Z</time>
   </trkpt>
   <trkpt lat="-3.1458690" lon="37.2936050">
    <ele>2324.9</ele>
    <time>2026-06-20T12:55:11Z</time>
   </trkpt>
   <trkpt lat="-3.1458580" lon="37.2936070">
    <ele>2325.0</ele>
    <time>2026-06-20T12:55:12Z</time>
   </trkpt>
   <trkpt lat="-3.1458450" lon="37.2936090">
    <ele>2325.2</ele>
    <time>2026-06-20T12:55:13Z</time>
   </trkpt>
   <trkpt lat="-3.1458350" lon="37.2936130">
    <ele>2325.3</ele>
    <time>2026-06-20T12:55:14Z</time>
   </trkpt>
   <trkpt lat="-3.1458310" lon="37.2936150">
    <ele>2325.3</ele>
    <time>2026-06-20T12:55:15Z</time>
   </trkpt>
   <trkpt lat="-3.1458260" lon="37.2936150">
    <ele>2325.3</ele>
    <time>2026-06-20T12:55:16Z</time>
   </trkpt>
   <trkpt lat="-3.1458250" lon="37.2936180">
    <ele>2325.4</ele>
    <time>2026-06-20T12:55:17Z</time>
   </trkpt>
   <trkpt lat="-3.1458220" lon="37.2936200">
    <ele>2325.4</ele>
    <time>2026-06-20T12:55:18Z</time>
   </trkpt>
   <trkpt lat="-3.1458190" lon="37.2936200">
    <ele>2325.4</ele>
    <time>2026-06-20T12:55:19Z</time>
   </trkpt>
   <trkpt lat="-3.1458180" lon="37.2936250">
    <ele>2325.5</ele>
    <time>2026-06-20T12:55:20Z</time>
   </trkpt>
   <trkpt lat="-3.1458080" lon="37.2936270">
    <ele>2325.6</ele>
    <time>2026-06-20T12:55:21Z</time>
   </trkpt>
   <trkpt lat="-3.1457970" lon="37.2936360">
    <ele>2325.7</ele>
    <time>2026-06-20T12:55:22Z</time>
   </trkpt>
   <trkpt lat="-3.1457960" lon="37.2936360">
    <ele>2325.7</ele>
    <time>2026-06-20T12:55:23Z</time>
   </trkpt>
   <trkpt lat="-3.1457730" lon="37.2936490">
    <ele>2326.0</ele>
    <time>2026-06-20T12:55:24Z</time>
   </trkpt>
   <trkpt lat="-3.1457610" lon="37.2936520">
    <ele>2326.2</ele>
    <time>2026-06-20T12:55:25Z</time>
   </trkpt>
   <trkpt lat="-3.1457450" lon="37.2936610">
    <ele>2326.4</ele>
    <time>2026-06-20T12:55:26Z</time>
   </trkpt>
   <trkpt lat="-3.1457440" lon="37.2936650">
    <ele>2326.4</ele>
    <time>2026-06-20T12:55:27Z</time>
   </trkpt>
   <trkpt lat="-3.1457410" lon="37.2936730">
    <ele>2326.5</ele>
    <time>2026-06-20T12:55:28Z</time>
   </trkpt>
   <trkpt lat="-3.1457390" lon="37.2936760">
    <ele>2326.5</ele>
    <time>2026-06-20T12:55:29Z</time>
   </trkpt>
   <trkpt lat="-3.1457360" lon="37.2936810">
    <ele>2326.6</ele>
    <time>2026-06-20T12:55:30Z</time>
   </trkpt>
   <trkpt lat="-3.1457320" lon="37.2936830">
    <ele>2326.7</ele>
    <time>2026-06-20T12:55:31Z</time>
   </trkpt>
   <trkpt lat="-3.1457280" lon="37.2936840">
    <ele>2326.7</ele>
    <time>2026-06-20T12:55:32Z</time>
   </trkpt>
   <trkpt lat="-3.1457230" lon="37.2936910">
    <ele>2326.8</ele>
    <time>2026-06-20T12:55:33Z</time>
   </trkpt>
   <trkpt lat="-3.1457200" lon="37.2936950">
    <ele>2326.9</ele>
    <time>2026-06-20T12:55:34Z</time>
   </trkpt>
   <trkpt lat="-3.1457200" lon="37.2936980">
    <ele>2326.9</ele>
    <time>2026-06-20T12:55:35Z</time>
   </trkpt>
   <trkpt lat="-3.1457070" lon="37.2936950">
    <ele>2327.0</ele>
    <time>2026-06-20T12:55:36Z</time>
   </trkpt>
   <trkpt lat="-3.1456980" lon="37.2936990">
    <ele>2327.2</ele>
    <time>2026-06-20T12:55:37Z</time>
   </trkpt>
   <trkpt lat="-3.1456870" lon="37.2936970">
    <ele>2327.3</ele>
    <time>2026-06-20T12:55:38Z</time>
   </trkpt>
   <trkpt lat="-3.1456770" lon="37.2937020">
    <ele>2327.5</ele>
    <time>2026-06-20T12:55:39Z</time>
   </trkpt>
   <trkpt lat="-3.1456700" lon="37.2937090">
    <ele>2327.6</ele>
    <time>2026-06-20T12:55:40Z</time>
   </trkpt>
   <trkpt lat="-3.1456680" lon="37.2937110">
    <ele>2327.6</ele>
    <time>2026-06-20T12:55:41Z</time>
   </trkpt>
   <trkpt lat="-3.1456590" lon="37.2937130">
    <ele>2327.7</ele>
    <time>2026-06-20T12:55:42Z</time>
   </trkpt>
   <trkpt lat="-3.1456500" lon="37.2937170">
    <ele>2327.9</ele>
    <time>2026-06-20T12:55:43Z</time>
   </trkpt>
   <trkpt lat="-3.1456430" lon="37.2937220">
    <ele>2328.0</ele>
    <time>2026-06-20T12:55:44Z</time>
   </trkpt>
   <trkpt lat="-3.1456360" lon="37.2937200">
    <ele>2328.1</ele>
    <time>2026-06-20T12:55:45Z</time>
   </trkpt>
   <trkpt lat="-3.1456250" lon="37.2937240">
    <ele>2328.2</ele>
    <time>2026-06-20T12:55:46Z</time>
   </trkpt>
   <trkpt lat="-3.1456180" lon="37.2937200">
    <ele>2328.3</ele>
    <time>2026-06-20T12:55:47Z</time>
   </trkpt>
   <trkpt lat="-3.1456170" lon="37.2937190">
    <ele>2328.3</ele>
    <time>2026-06-20T12:55:48Z</time>
   </trkpt>
   <trkpt lat="-3.1456170" lon="37.2937190">
    <ele>2328.3</ele>
    <time>2026-06-20T12:55:49Z</time>
   </trkpt>
   <trkpt lat="-3.1456170" lon="37.2937210">
    <ele>2328.3</ele>
    <time>2026-06-20T12:55:50Z</time>
   </trkpt>
   <trkpt lat="-3.1456150" lon="37.2937250">
    <ele>2328.4</ele>
    <time>2026-06-20T12:55:51Z</time>
   </trkpt>
   <trkpt lat="-3.1456140" lon="37.2937250">
    <ele>2328.4</ele>
    <time>2026-06-20T12:55:52Z</time>
   </trkpt>
   <trkpt lat="-3.1456090" lon="37.2937280">
    <ele>2328.5</ele>
    <time>2026-06-20T12:55:53Z</time>
   </trkpt>
   <trkpt lat="-3.1456030" lon="37.2937280">
    <ele>2328.6</ele>
    <time>2026-06-20T12:55:54Z</time>
   </trkpt>
   <trkpt lat="-3.1455980" lon="37.2937330">
    <ele>2328.7</ele>
    <time>2026-06-20T12:55:55Z</time>
   </trkpt>
   <trkpt lat="-3.1455900" lon="37.2937370">
    <ele>2328.8</ele>
    <time>2026-06-20T12:55:56Z</time>
   </trkpt>
   <trkpt lat="-3.1455870" lon="37.2937410">
    <ele>2328.8</ele>
    <time>2026-06-20T12:55:57Z</time>
   </trkpt>
   <trkpt lat="-3.1455650" lon="37.2937530">
    <ele>2329.1</ele>
    <time>2026-06-20T12:55:58Z</time>
   </trkpt>
   <trkpt lat="-3.1455600" lon="37.2937600">
    <ele>2329.3</ele>
    <time>2026-06-20T12:55:59Z</time>
   </trkpt>
   <trkpt lat="-3.1455470" lon="37.2937680">
    <ele>2329.4</ele>
    <time>2026-06-20T12:56:00Z</time>
   </trkpt>
   <trkpt lat="-3.1455380" lon="37.2937830">
    <ele>2329.7</ele>
    <time>2026-06-20T12:56:01Z</time>
   </trkpt>
   <trkpt lat="-3.1455290" lon="37.2937880">
    <ele>2329.8</ele>
    <time>2026-06-20T12:56:02Z</time>
   </trkpt>
   <trkpt lat="-3.1455270" lon="37.2937930">
    <ele>2329.9</ele>
    <time>2026-06-20T12:56:03Z</time>
   </trkpt>
   <trkpt lat="-3.1455280" lon="37.2937930">
    <ele>2329.9</ele>
    <time>2026-06-20T12:56:04Z</time>
   </trkpt>
   <trkpt lat="-3.1455330" lon="37.2937940">
    <ele>2329.9</ele>
    <time>2026-06-20T12:56:05Z</time>
   </trkpt>
   <trkpt lat="-3.1455310" lon="37.2937980">
    <ele>2330.0</ele>
    <time>2026-06-20T12:56:06Z</time>
   </trkpt>
   <trkpt lat="-3.1455310" lon="37.2938080">
    <ele>2330.1</ele>
    <time>2026-06-20T12:56:07Z</time>
   </trkpt>
   <trkpt lat="-3.1455220" lon="37.2938160">
    <ele>2330.3</ele>
    <time>2026-06-20T12:56:08Z</time>
   </trkpt>
   <trkpt lat="-3.1455140" lon="37.2938310">
    <ele>2330.5</ele>
    <time>2026-06-20T12:56:10Z</time>
   </trkpt>
   <trkpt lat="-3.1455080" lon="37.2938370">
    <ele>2330.6</ele>
    <time>2026-06-20T12:56:11Z</time>
   </trkpt>
   <trkpt lat="-3.1455070" lon="37.2938420">
    <ele>2330.6</ele>
    <time>2026-06-20T12:56:12Z</time>
   </trkpt>
   <trkpt lat="-3.1455010" lon="37.2938450">
    <ele>2330.7</ele>
    <time>2026-06-20T12:56:13Z</time>
   </trkpt>
   <trkpt lat="-3.1455030" lon="37.2938510">
    <ele>2330.8</ele>
    <time>2026-06-20T12:56:14Z</time>
   </trkpt>
   <trkpt lat="-3.1454960" lon="37.2938580">
    <ele>2330.9</ele>
    <time>2026-06-20T12:56:15Z</time>
   </trkpt>
   <trkpt lat="-3.1454900" lon="37.2938660">
    <ele>2331.0</ele>
    <time>2026-06-20T12:56:16Z</time>
   </trkpt>
   <trkpt lat="-3.1454800" lon="37.2938750">
    <ele>2331.2</ele>
    <time>2026-06-20T12:56:17Z</time>
   </trkpt>
   <trkpt lat="-3.1454740" lon="37.2938750">
    <ele>2331.2</ele>
    <time>2026-06-20T12:56:18Z</time>
   </trkpt>
   <trkpt lat="-3.1454690" lon="37.2938820">
    <ele>2331.3</ele>
    <time>2026-06-20T12:56:19Z</time>
   </trkpt>
   <trkpt lat="-3.1454570" lon="37.2938930">
    <ele>2331.5</ele>
    <time>2026-06-20T12:56:20Z</time>
   </trkpt>
   <trkpt lat="-3.1454510" lon="37.2938990">
    <ele>2331.6</ele>
    <time>2026-06-20T12:56:21Z</time>
   </trkpt>
   <trkpt lat="-3.1454480" lon="37.2938990">
    <ele>2331.6</ele>
    <time>2026-06-20T12:56:22Z</time>
   </trkpt>
   <trkpt lat="-3.1454430" lon="37.2939040">
    <ele>2331.7</ele>
    <time>2026-06-20T12:56:23Z</time>
   </trkpt>
   <trkpt lat="-3.1454400" lon="37.2939040">
    <ele>2331.7</ele>
    <time>2026-06-20T12:56:24Z</time>
   </trkpt>
   <trkpt lat="-3.1454360" lon="37.2939280">
    <ele>2331.9</ele>
    <time>2026-06-20T12:56:25Z</time>
   </trkpt>
   <trkpt lat="-3.1454230" lon="37.2939210">
    <ele>2332.1</ele>
    <time>2026-06-20T12:56:26Z</time>
   </trkpt>
   <trkpt lat="-3.1454200" lon="37.2939160">
    <ele>2332.1</ele>
    <time>2026-06-20T12:56:27Z</time>
   </trkpt>
   <trkpt lat="-3.1454280" lon="37.2939020">
    <ele>2332.3</ele>
    <time>2026-06-20T12:56:28Z</time>
   </trkpt>
   <trkpt lat="-3.1454200" lon="37.2938990">
    <ele>2332.3</ele>
    <time>2026-06-20T12:56:29Z</time>
   </trkpt>
   <trkpt lat="-3.1454070" lon="37.2939030">
    <ele>2332.4</ele>
    <time>2026-06-20T12:56:30Z</time>
   </trkpt>
   <trkpt lat="-3.1453970" lon="37.2939080">
    <ele>2332.5</ele>
    <time>2026-06-20T12:56:31Z</time>
   </trkpt>
   <trkpt lat="-3.1453840" lon="37.2939150">
    <ele>2332.6</ele>
    <time>2026-06-20T12:56:32Z</time>
   </trkpt>
   <trkpt lat="-3.1453740" lon="37.2939170">
    <ele>2332.7</ele>
    <time>2026-06-20T12:56:33Z</time>
   </trkpt>
   <trkpt lat="-3.1453710" lon="37.2939230">
    <ele>2332.8</ele>
    <time>2026-06-20T12:56:34Z</time>
   </trkpt>
   <trkpt lat="-3.1453670" lon="37.2939210">
    <ele>2332.8</ele>
    <time>2026-06-20T12:56:35Z</time>
   </trkpt>
   <trkpt lat="-3.1453620" lon="37.2939210">
    <ele>2332.8</ele>
    <time>2026-06-20T12:56:36Z</time>
   </trkpt>
   <trkpt lat="-3.1453520" lon="37.2939310">
    <ele>2332.9</ele>
    <time>2026-06-20T12:56:37Z</time>
   </trkpt>
   <trkpt lat="-3.1453520" lon="37.2939330">
    <ele>2332.9</ele>
    <time>2026-06-20T12:56:38Z</time>
   </trkpt>
   <trkpt lat="-3.1453500" lon="37.2939380">
    <ele>2333.0</ele>
    <time>2026-06-20T12:56:39Z</time>
   </trkpt>
   <trkpt lat="-3.1453470" lon="37.2939420">
    <ele>2333.0</ele>
    <time>2026-06-20T12:56:40Z</time>
   </trkpt>
   <trkpt lat="-3.1453440" lon="37.2939460">
    <ele>2333.0</ele>
    <time>2026-06-20T12:56:41Z</time>
   </trkpt>
   <trkpt lat="-3.1453420" lon="37.2939540">
    <ele>2333.1</ele>
    <time>2026-06-20T12:56:42Z</time>
   </trkpt>
   <trkpt lat="-3.1453400" lon="37.2939630">
    <ele>2333.1</ele>
    <time>2026-06-20T12:56:43Z</time>
   </trkpt>
   <trkpt lat="-3.1453350" lon="37.2939710">
    <ele>2333.2</ele>
    <time>2026-06-20T12:56:44Z</time>
   </trkpt>
   <trkpt lat="-3.1453280" lon="37.2939610">
    <ele>2333.2</ele>
    <time>2026-06-20T12:56:45Z</time>
   </trkpt>
   <trkpt lat="-3.1453200" lon="37.2939670">
    <ele>2333.3</ele>
    <time>2026-06-20T12:56:46Z</time>
   </trkpt>
   <trkpt lat="-3.1453090" lon="37.2939870">
    <ele>2333.4</ele>
    <time>2026-06-20T12:56:47Z</time>
   </trkpt>
   <trkpt lat="-3.1453020" lon="37.2939950">
    <ele>2333.5</ele>
    <time>2026-06-20T12:56:48Z</time>
   </trkpt>
   <trkpt lat="-3.1452960" lon="37.2940030">
    <ele>2333.5</ele>
    <time>2026-06-20T12:56:49Z</time>
   </trkpt>
   <trkpt lat="-3.1452880" lon="37.2940160">
    <ele>2333.6</ele>
    <time>2026-06-20T12:56:50Z</time>
   </trkpt>
   <trkpt lat="-3.1452860" lon="37.2940230">
    <ele>2333.6</ele>
    <time>2026-06-20T12:56:51Z</time>
   </trkpt>
   <trkpt lat="-3.1452820" lon="37.2940290">
    <ele>2333.6</ele>
    <time>2026-06-20T12:56:52Z</time>
   </trkpt>
   <trkpt lat="-3.1452770" lon="37.2940370">
    <ele>2333.7</ele>
    <time>2026-06-20T12:56:53Z</time>
   </trkpt>
   <trkpt lat="-3.1452650" lon="37.2940470">
    <ele>2333.8</ele>
    <time>2026-06-20T12:56:54Z</time>
   </trkpt>
   <trkpt lat="-3.1452580" lon="37.2940570">
    <ele>2333.8</ele>
    <time>2026-06-20T12:56:55Z</time>
   </trkpt>
   <trkpt lat="-3.1452560" lon="37.2940680">
    <ele>2333.9</ele>
    <time>2026-06-20T12:56:56Z</time>
   </trkpt>
   <trkpt lat="-3.1452530" lon="37.2940740">
    <ele>2333.9</ele>
    <time>2026-06-20T12:56:57Z</time>
   </trkpt>
   <trkpt lat="-3.1452520" lon="37.2940760">
    <ele>2333.9</ele>
    <time>2026-06-20T12:56:58Z</time>
   </trkpt>
   <trkpt lat="-3.1452500" lon="37.2940890">
    <ele>2334.0</ele>
    <time>2026-06-20T12:56:59Z</time>
   </trkpt>
   <trkpt lat="-3.1452360" lon="37.2940970">
    <ele>2334.1</ele>
    <time>2026-06-20T12:57:00Z</time>
   </trkpt>
   <trkpt lat="-3.1452310" lon="37.2941090">
    <ele>2334.1</ele>
    <time>2026-06-20T12:57:01Z</time>
   </trkpt>
   <trkpt lat="-3.1452310" lon="37.2941210">
    <ele>2334.2</ele>
    <time>2026-06-20T12:57:02Z</time>
   </trkpt>
   <trkpt lat="-3.1452340" lon="37.2941310">
    <ele>2334.3</ele>
    <time>2026-06-20T12:57:03Z</time>
   </trkpt>
   <trkpt lat="-3.1452350" lon="37.2941430">
    <ele>2334.3</ele>
    <time>2026-06-20T12:57:04Z</time>
   </trkpt>
   <trkpt lat="-3.1452300" lon="37.2941540">
    <ele>2334.4</ele>
    <time>2026-06-20T12:57:05Z</time>
   </trkpt>
   <trkpt lat="-3.1452230" lon="37.2941650">
    <ele>2334.5</ele>
    <time>2026-06-20T12:57:06Z</time>
   </trkpt>
   <trkpt lat="-3.1452220" lon="37.2941680">
    <ele>2334.5</ele>
    <time>2026-06-20T12:57:07Z</time>
   </trkpt>
   <trkpt lat="-3.1452220" lon="37.2941760">
    <ele>2334.6</ele>
    <time>2026-06-20T12:57:08Z</time>
   </trkpt>
   <trkpt lat="-3.1452140" lon="37.2941770">
    <ele>2334.6</ele>
    <time>2026-06-20T12:57:09Z</time>
   </trkpt>
   <trkpt lat="-3.1452090" lon="37.2941910">
    <ele>2334.7</ele>
    <time>2026-06-20T12:57:10Z</time>
   </trkpt>
   <trkpt lat="-3.1452050" lon="37.2941960">
    <ele>2334.8</ele>
    <time>2026-06-20T12:57:11Z</time>
   </trkpt>
   <trkpt lat="-3.1451990" lon="37.2941990">
    <ele>2334.9</ele>
    <time>2026-06-20T12:57:12Z</time>
   </trkpt>
   <trkpt lat="-3.1451860" lon="37.2942090">
    <ele>2335.0</ele>
    <time>2026-06-20T12:57:13Z</time>
   </trkpt>
   <trkpt lat="-3.1451830" lon="37.2942180">
    <ele>2335.1</ele>
    <time>2026-06-20T12:57:14Z</time>
   </trkpt>
   <trkpt lat="-3.1451790" lon="37.2942260">
    <ele>2335.1</ele>
    <time>2026-06-20T12:57:15Z</time>
   </trkpt>
   <trkpt lat="-3.1451660" lon="37.2942320">
    <ele>2335.3</ele>
    <time>2026-06-20T12:57:16Z</time>
   </trkpt>
   <trkpt lat="-3.1451440" lon="37.2942450">
    <ele>2335.5</ele>
    <time>2026-06-20T12:57:17Z</time>
   </trkpt>
   <trkpt lat="-3.1451320" lon="37.2942540">
    <ele>2335.6</ele>
    <time>2026-06-20T12:57:18Z</time>
   </trkpt>
   <trkpt lat="-3.1451240" lon="37.2942580">
    <ele>2335.7</ele>
    <time>2026-06-20T12:57:19Z</time>
   </trkpt>
   <trkpt lat="-3.1451200" lon="37.2942490">
    <ele>2335.8</ele>
    <time>2026-06-20T12:57:20Z</time>
   </trkpt>
   <trkpt lat="-3.1451130" lon="37.2942470">
    <ele>2335.9</ele>
    <time>2026-06-20T12:57:21Z</time>
   </trkpt>
   <trkpt lat="-3.1451240" lon="37.2942440">
    <ele>2336.0</ele>
    <time>2026-06-20T12:57:22Z</time>
   </trkpt>
   <trkpt lat="-3.1451130" lon="37.2942470">
    <ele>2336.1</ele>
    <time>2026-06-20T12:57:23Z</time>
   </trkpt>
   <trkpt lat="-3.1451020" lon="37.2942550">
    <ele>2336.2</ele>
    <time>2026-06-20T12:57:24Z</time>
   </trkpt>
   <trkpt lat="-3.1450960" lon="37.2942590">
    <ele>2336.3</ele>
    <time>2026-06-20T12:57:25Z</time>
   </trkpt>
   <trkpt lat="-3.1451030" lon="37.2942710">
    <ele>2336.4</ele>
    <time>2026-06-20T12:57:26Z</time>
   </trkpt>
   <trkpt lat="-3.1451050" lon="37.2942800">
    <ele>2336.5</ele>
    <time>2026-06-20T12:57:27Z</time>
   </trkpt>
   <trkpt lat="-3.1451130" lon="37.2942880">
    <ele>2336.6</ele>
    <time>2026-06-20T12:57:28Z</time>
   </trkpt>
   <trkpt lat="-3.1451170" lon="37.2943010">
    <ele>2336.8</ele>
    <time>2026-06-20T12:57:29Z</time>
   </trkpt>
   <trkpt lat="-3.1451150" lon="37.2943090">
    <ele>2336.8</ele>
    <time>2026-06-20T12:57:30Z</time>
   </trkpt>
   <trkpt lat="-3.1451090" lon="37.2943230">
    <ele>2337.0</ele>
    <time>2026-06-20T12:57:31Z</time>
   </trkpt>
   <trkpt lat="-3.1451020" lon="37.2943290">
    <ele>2337.1</ele>
    <time>2026-06-20T12:57:32Z</time>
   </trkpt>
   <trkpt lat="-3.1451060" lon="37.2943240">
    <ele>2337.1</ele>
    <time>2026-06-20T12:57:33Z</time>
   </trkpt>
   <trkpt lat="-3.1451030" lon="37.2943390">
    <ele>2337.3</ele>
    <time>2026-06-20T12:57:34Z</time>
   </trkpt>
   <trkpt lat="-3.1451100" lon="37.2943450">
    <ele>2337.4</ele>
    <time>2026-06-20T12:57:35Z</time>
   </trkpt>
   <trkpt lat="-3.1451110" lon="37.2943490">
    <ele>2337.4</ele>
    <time>2026-06-20T12:57:36Z</time>
   </trkpt>
   <trkpt lat="-3.1451130" lon="37.2943460">
    <ele>2337.5</ele>
    <time>2026-06-20T12:57:37Z</time>
   </trkpt>
   <trkpt lat="-3.1451100" lon="37.2943550">
    <ele>2337.6</ele>
    <time>2026-06-20T12:57:38Z</time>
   </trkpt>
   <trkpt lat="-3.1451020" lon="37.2943560">
    <ele>2337.6</ele>
    <time>2026-06-20T12:57:39Z</time>
   </trkpt>
   <trkpt lat="-3.1451010" lon="37.2943580">
    <ele>2337.7</ele>
    <time>2026-06-20T12:57:40Z</time>
   </trkpt>
   <trkpt lat="-3.1451040" lon="37.2943470">
    <ele>2337.8</ele>
    <time>2026-06-20T12:57:41Z</time>
   </trkpt>
   <trkpt lat="-3.1451000" lon="37.2943470">
    <ele>2337.8</ele>
    <time>2026-06-20T12:57:42Z</time>
   </trkpt>
   <trkpt lat="-3.1451000" lon="37.2943490">
    <ele>2337.8</ele>
    <time>2026-06-20T12:57:43Z</time>
   </trkpt>
   <trkpt lat="-3.1450970" lon="37.2943490">
    <ele>2337.9</ele>
    <time>2026-06-20T12:57:44Z</time>
   </trkpt>
   <trkpt lat="-3.1450920" lon="37.2943510">
    <ele>2337.9</ele>
    <time>2026-06-20T12:57:45Z</time>
   </trkpt>
   <trkpt lat="-3.1450930" lon="37.2943510">
    <ele>2337.9</ele>
    <time>2026-06-20T12:57:46Z</time>
   </trkpt>
   <trkpt lat="-3.1450870" lon="37.2943570">
    <ele>2338.0</ele>
    <time>2026-06-20T12:57:47Z</time>
   </trkpt>
   <trkpt lat="-3.1450840" lon="37.2943630">
    <ele>2338.1</ele>
    <time>2026-06-20T12:57:48Z</time>
   </trkpt>
   <trkpt lat="-3.1450820" lon="37.2943710">
    <ele>2338.1</ele>
    <time>2026-06-20T12:57:49Z</time>
   </trkpt>
   <trkpt lat="-3.1450800" lon="37.2943740">
    <ele>2338.2</ele>
    <time>2026-06-20T12:57:50Z</time>
   </trkpt>
   <trkpt lat="-3.1450780" lon="37.2943790">
    <ele>2338.2</ele>
    <time>2026-06-20T12:57:51Z</time>
   </trkpt>
   <trkpt lat="-3.1450760" lon="37.2943830">
    <ele>2338.3</ele>
    <time>2026-06-20T12:57:52Z</time>
   </trkpt>
   <trkpt lat="-3.1450700" lon="37.2943880">
    <ele>2338.4</ele>
    <time>2026-06-20T12:57:53Z</time>
   </trkpt>
   <trkpt lat="-3.1450660" lon="37.2943910">
    <ele>2338.4</ele>
    <time>2026-06-20T12:57:54Z</time>
   </trkpt>
   <trkpt lat="-3.1450630" lon="37.2944020">
    <ele>2338.5</ele>
    <time>2026-06-20T12:57:55Z</time>
   </trkpt>
   <trkpt lat="-3.1450610" lon="37.2944130">
    <ele>2338.6</ele>
    <time>2026-06-20T12:57:56Z</time>
   </trkpt>
   <trkpt lat="-3.1450610" lon="37.2944220">
    <ele>2338.7</ele>
    <time>2026-06-20T12:57:57Z</time>
   </trkpt>
   <trkpt lat="-3.1450480" lon="37.2944350">
    <ele>2338.9</ele>
    <time>2026-06-20T12:57:58Z</time>
   </trkpt>
   <trkpt lat="-3.1450540" lon="37.2944420">
    <ele>2339.0</ele>
    <time>2026-06-20T12:57:59Z</time>
   </trkpt>
   <trkpt lat="-3.1450570" lon="37.2944470">
    <ele>2339.0</ele>
    <time>2026-06-20T12:58:00Z</time>
   </trkpt>
   <trkpt lat="-3.1450580" lon="37.2944520">
    <ele>2339.1</ele>
    <time>2026-06-20T12:58:01Z</time>
   </trkpt>
   <trkpt lat="-3.1450600" lon="37.2944550">
    <ele>2339.1</ele>
    <time>2026-06-20T12:58:02Z</time>
   </trkpt>
   <trkpt lat="-3.1450590" lon="37.2944660">
    <ele>2339.2</ele>
    <time>2026-06-20T12:58:03Z</time>
   </trkpt>
   <trkpt lat="-3.1450540" lon="37.2944700">
    <ele>2339.3</ele>
    <time>2026-06-20T12:58:04Z</time>
   </trkpt>
   <trkpt lat="-3.1450460" lon="37.2944780">
    <ele>2339.4</ele>
    <time>2026-06-20T12:58:05Z</time>
   </trkpt>
   <trkpt lat="-3.1450420" lon="37.2944840">
    <ele>2339.4</ele>
    <time>2026-06-20T12:58:06Z</time>
   </trkpt>
   <trkpt lat="-3.1450370" lon="37.2944930">
    <ele>2339.5</ele>
    <time>2026-06-20T12:58:07Z</time>
   </trkpt>
   <trkpt lat="-3.1450330" lon="37.2945070">
    <ele>2339.7</ele>
    <time>2026-06-20T12:58:08Z</time>
   </trkpt>
   <trkpt lat="-3.1450270" lon="37.2945160">
    <ele>2339.8</ele>
    <time>2026-06-20T12:58:09Z</time>
   </trkpt>
   <trkpt lat="-3.1450230" lon="37.2945340">
    <ele>2339.9</ele>
    <time>2026-06-20T12:58:10Z</time>
   </trkpt>
   <trkpt lat="-3.1450180" lon="37.2945480">
    <ele>2340.1</ele>
    <time>2026-06-20T12:58:11Z</time>
   </trkpt>
   <trkpt lat="-3.1450140" lon="37.2945680">
    <ele>2340.2</ele>
    <time>2026-06-20T12:58:12Z</time>
   </trkpt>
   <trkpt lat="-3.1450100" lon="37.2945820">
    <ele>2340.3</ele>
    <time>2026-06-20T12:58:13Z</time>
   </trkpt>
   <trkpt lat="-3.1450080" lon="37.2945940">
    <ele>2340.4</ele>
    <time>2026-06-20T12:58:14Z</time>
   </trkpt>
   <trkpt lat="-3.1450030" lon="37.2946070">
    <ele>2340.6</ele>
    <time>2026-06-20T12:58:15Z</time>
   </trkpt>
   <trkpt lat="-3.1450010" lon="37.2946180">
    <ele>2340.6</ele>
    <time>2026-06-20T12:58:16Z</time>
   </trkpt>
   <trkpt lat="-3.1449890" lon="37.2946460">
    <ele>2340.9</ele>
    <time>2026-06-20T12:58:17Z</time>
   </trkpt>
   <trkpt lat="-3.1449880" lon="37.2946580">
    <ele>2341.0</ele>
    <time>2026-06-20T12:58:18Z</time>
   </trkpt>
   <trkpt lat="-3.1449860" lon="37.2946630">
    <ele>2341.0</ele>
    <time>2026-06-20T12:58:19Z</time>
   </trkpt>
   <trkpt lat="-3.1449780" lon="37.2946720">
    <ele>2341.1</ele>
    <time>2026-06-20T12:58:20Z</time>
   </trkpt>
   <trkpt lat="-3.1449750" lon="37.2946850">
    <ele>2341.2</ele>
    <time>2026-06-20T12:58:21Z</time>
   </trkpt>
   <trkpt lat="-3.1449680" lon="37.2946980">
    <ele>2341.3</ele>
    <time>2026-06-20T12:58:22Z</time>
   </trkpt>
   <trkpt lat="-3.1449710" lon="37.2947010">
    <ele>2341.4</ele>
    <time>2026-06-20T12:58:23Z</time>
   </trkpt>
   <trkpt lat="-3.1449700" lon="37.2947060">
    <ele>2341.4</ele>
    <time>2026-06-20T12:58:24Z</time>
   </trkpt>
   <trkpt lat="-3.1449640" lon="37.2947080">
    <ele>2341.4</ele>
    <time>2026-06-20T12:58:25Z</time>
   </trkpt>
   <trkpt lat="-3.1449610" lon="37.2947110">
    <ele>2341.5</ele>
    <time>2026-06-20T12:58:26Z</time>
   </trkpt>
   <trkpt lat="-3.1449610" lon="37.2947130">
    <ele>2341.5</ele>
    <time>2026-06-20T12:58:27Z</time>
   </trkpt>
   <trkpt lat="-3.1449590" lon="37.2947130">
    <ele>2341.5</ele>
    <time>2026-06-20T12:58:28Z</time>
   </trkpt>
   <trkpt lat="-3.1449530" lon="37.2947170">
    <ele>2341.6</ele>
    <time>2026-06-20T12:58:29Z</time>
   </trkpt>
   <trkpt lat="-3.1449510" lon="37.2947190">
    <ele>2341.6</ele>
    <time>2026-06-20T12:58:30Z</time>
   </trkpt>
   <trkpt lat="-3.1449470" lon="37.2947210">
    <ele>2341.6</ele>
    <time>2026-06-20T12:58:31Z</time>
   </trkpt>
   <trkpt lat="-3.1449420" lon="37.2947270">
    <ele>2341.7</ele>
    <time>2026-06-20T12:58:32Z</time>
   </trkpt>
   <trkpt lat="-3.1449340" lon="37.2947310">
    <ele>2341.7</ele>
    <time>2026-06-20T12:58:33Z</time>
   </trkpt>
   <trkpt lat="-3.1449360" lon="37.2947380">
    <ele>2341.8</ele>
    <time>2026-06-20T12:58:34Z</time>
   </trkpt>
   <trkpt lat="-3.1449370" lon="37.2947450">
    <ele>2341.8</ele>
    <time>2026-06-20T12:58:35Z</time>
   </trkpt>
   <trkpt lat="-3.1449290" lon="37.2947560">
    <ele>2341.9</ele>
    <time>2026-06-20T12:58:36Z</time>
   </trkpt>
   <trkpt lat="-3.1449270" lon="37.2947610">
    <ele>2342.0</ele>
    <time>2026-06-20T12:58:37Z</time>
   </trkpt>
   <trkpt lat="-3.1449210" lon="37.2947700">
    <ele>2342.1</ele>
    <time>2026-06-20T12:58:38Z</time>
   </trkpt>
   <trkpt lat="-3.1449140" lon="37.2947790">
    <ele>2342.1</ele>
    <time>2026-06-20T12:58:39Z</time>
   </trkpt>
   <trkpt lat="-3.1449100" lon="37.2947860">
    <ele>2342.2</ele>
    <time>2026-06-20T12:58:40Z</time>
   </trkpt>
   <trkpt lat="-3.1449100" lon="37.2947940">
    <ele>2342.2</ele>
    <time>2026-06-20T12:58:41Z</time>
   </trkpt>
   <trkpt lat="-3.1449090" lon="37.2948030">
    <ele>2342.3</ele>
    <time>2026-06-20T12:58:42Z</time>
   </trkpt>
   <trkpt lat="-3.1449060" lon="37.2948100">
    <ele>2342.4</ele>
    <time>2026-06-20T12:58:43Z</time>
   </trkpt>
   <trkpt lat="-3.1449010" lon="37.2948240">
    <ele>2342.5</ele>
    <time>2026-06-20T12:58:44Z</time>
   </trkpt>
   <trkpt lat="-3.1448980" lon="37.2948350">
    <ele>2342.5</ele>
    <time>2026-06-20T12:58:45Z</time>
   </trkpt>
   <trkpt lat="-3.1448810" lon="37.2948510">
    <ele>2342.7</ele>
    <time>2026-06-20T12:58:46Z</time>
   </trkpt>
   <trkpt lat="-3.1448720" lon="37.2948580">
    <ele>2342.7</ele>
    <time>2026-06-20T12:58:47Z</time>
   </trkpt>
   <trkpt lat="-3.1448640" lon="37.2948720">
    <ele>2342.8</ele>
    <time>2026-06-20T12:58:48Z</time>
   </trkpt>
   <trkpt lat="-3.1448570" lon="37.2948790">
    <ele>2342.9</ele>
    <time>2026-06-20T12:58:49Z</time>
   </trkpt>
   <trkpt lat="-3.1448490" lon="37.2948860">
    <ele>2342.9</ele>
    <time>2026-06-20T12:58:50Z</time>
   </trkpt>
   <trkpt lat="-3.1448470" lon="37.2948970">
    <ele>2343.0</ele>
    <time>2026-06-20T12:58:51Z</time>
   </trkpt>
   <trkpt lat="-3.1448430" lon="37.2949020">
    <ele>2343.0</ele>
    <time>2026-06-20T12:58:52Z</time>
   </trkpt>
   <trkpt lat="-3.1448380" lon="37.2949080">
    <ele>2343.0</ele>
    <time>2026-06-20T12:58:53Z</time>
   </trkpt>
   <trkpt lat="-3.1448330" lon="37.2949140">
    <ele>2343.1</ele>
    <time>2026-06-20T12:58:54Z</time>
   </trkpt>
   <trkpt lat="-3.1448280" lon="37.2949190">
    <ele>2343.1</ele>
    <time>2026-06-20T12:58:55Z</time>
   </trkpt>
   <trkpt lat="-3.1448260" lon="37.2949240">
    <ele>2343.1</ele>
    <time>2026-06-20T12:58:56Z</time>
   </trkpt>
   <trkpt lat="-3.1448220" lon="37.2949310">
    <ele>2343.1</ele>
    <time>2026-06-20T12:58:57Z</time>
   </trkpt>
   <trkpt lat="-3.1448190" lon="37.2949390">
    <ele>2343.2</ele>
    <time>2026-06-20T12:58:58Z</time>
   </trkpt>
   <trkpt lat="-3.1448120" lon="37.2949520">
    <ele>2343.2</ele>
    <time>2026-06-20T12:58:59Z</time>
   </trkpt>
   <trkpt lat="-3.1448070" lon="37.2949660">
    <ele>2343.2</ele>
    <time>2026-06-20T12:59:00Z</time>
   </trkpt>
   <trkpt lat="-3.1448060" lon="37.2949770">
    <ele>2343.2</ele>
    <time>2026-06-20T12:59:01Z</time>
   </trkpt>
   <trkpt lat="-3.1448040" lon="37.2949860">
    <ele>2343.2</ele>
    <time>2026-06-20T12:59:02Z</time>
   </trkpt>
   <trkpt lat="-3.1447950" lon="37.2949960">
    <ele>2343.3</ele>
    <time>2026-06-20T12:59:03Z</time>
   </trkpt>
   <trkpt lat="-3.1447930" lon="37.2950110">
    <ele>2343.3</ele>
    <time>2026-06-20T12:59:04Z</time>
   </trkpt>
   <trkpt lat="-3.1447910" lon="37.2950200">
    <ele>2343.3</ele>
    <time>2026-06-20T12:59:05Z</time>
   </trkpt>
   <trkpt lat="-3.1447820" lon="37.2950310">
    <ele>2343.2</ele>
    <time>2026-06-20T12:59:06Z</time>
   </trkpt>
   <trkpt lat="-3.1447780" lon="37.2950410">
    <ele>2343.2</ele>
    <time>2026-06-20T12:59:07Z</time>
   </trkpt>
   <trkpt lat="-3.1447770" lon="37.2950510">
    <ele>2343.2</ele>
    <time>2026-06-20T12:59:08Z</time>
   </trkpt>
   <trkpt lat="-3.1447810" lon="37.2950590">
    <ele>2343.2</ele>
    <time>2026-06-20T12:59:09Z</time>
   </trkpt>
   <trkpt lat="-3.1447700" lon="37.2950740">
    <ele>2343.2</ele>
    <time>2026-06-20T12:59:10Z</time>
   </trkpt>
   <trkpt lat="-3.1447680" lon="37.2950880">
    <ele>2343.1</ele>
    <time>2026-06-20T12:59:11Z</time>
   </trkpt>
   <trkpt lat="-3.1447710" lon="37.2950950">
    <ele>2343.1</ele>
    <time>2026-06-20T12:59:12Z</time>
   </trkpt>
   <trkpt lat="-3.1447690" lon="37.2951020">
    <ele>2343.1</ele>
    <time>2026-06-20T12:59:13Z</time>
   </trkpt>
   <trkpt lat="-3.1447650" lon="37.2951130">
    <ele>2343.0</ele>
    <time>2026-06-20T12:59:14Z</time>
   </trkpt>
   <trkpt lat="-3.1447660" lon="37.2951180">
    <ele>2343.0</ele>
    <time>2026-06-20T12:59:15Z</time>
   </trkpt>
   <trkpt lat="-3.1447650" lon="37.2951220">
    <ele>2343.0</ele>
    <time>2026-06-20T12:59:16Z</time>
   </trkpt>
   <trkpt lat="-3.1447600" lon="37.2951320">
    <ele>2343.0</ele>
    <time>2026-06-20T12:59:17Z</time>
   </trkpt>
   <trkpt lat="-3.1447530" lon="37.2951420">
    <ele>2342.9</ele>
    <time>2026-06-20T12:59:18Z</time>
   </trkpt>
   <trkpt lat="-3.1447500" lon="37.2951490">
    <ele>2342.9</ele>
    <time>2026-06-20T12:59:19Z</time>
   </trkpt>
   <trkpt lat="-3.1447550" lon="37.2951540">
    <ele>2342.8</ele>
    <time>2026-06-20T12:59:20Z</time>
   </trkpt>
   <trkpt lat="-3.1447450" lon="37.2951660">
    <ele>2342.7</ele>
    <time>2026-06-20T12:59:21Z</time>
   </trkpt>
   <trkpt lat="-3.1447440" lon="37.2951710">
    <ele>2342.7</ele>
    <time>2026-06-20T12:59:22Z</time>
   </trkpt>
   <trkpt lat="-3.1447460" lon="37.2951770">
    <ele>2342.7</ele>
    <time>2026-06-20T12:59:23Z</time>
   </trkpt>
   <trkpt lat="-3.1447440" lon="37.2951890">
    <ele>2342.6</ele>
    <time>2026-06-20T12:59:24Z</time>
   </trkpt>
   <trkpt lat="-3.1447430" lon="37.2951960">
    <ele>2342.6</ele>
    <time>2026-06-20T12:59:25Z</time>
   </trkpt>
   <trkpt lat="-3.1447400" lon="37.2952000">
    <ele>2342.5</ele>
    <time>2026-06-20T12:59:26Z</time>
   </trkpt>
   <trkpt lat="-3.1447360" lon="37.2952040">
    <ele>2342.5</ele>
    <time>2026-06-20T12:59:27Z</time>
   </trkpt>
   <trkpt lat="-3.1447320" lon="37.2952080">
    <ele>2342.5</ele>
    <time>2026-06-20T12:59:28Z</time>
   </trkpt>
   <trkpt lat="-3.1447310" lon="37.2952110">
    <ele>2342.5</ele>
    <time>2026-06-20T12:59:29Z</time>
   </trkpt>
   <trkpt lat="-3.1447290" lon="37.2952160">
    <ele>2342.4</ele>
    <time>2026-06-20T12:59:30Z</time>
   </trkpt>
   <trkpt lat="-3.1447300" lon="37.2952200">
    <ele>2342.4</ele>
    <time>2026-06-20T12:59:31Z</time>
   </trkpt>
   <trkpt lat="-3.1447270" lon="37.2952240">
    <ele>2342.4</ele>
    <time>2026-06-20T12:59:32Z</time>
   </trkpt>
   <trkpt lat="-3.1447270" lon="37.2952240">
    <ele>2342.4</ele>
    <time>2026-06-20T12:59:33Z</time>
   </trkpt>
   <trkpt lat="-3.1447270" lon="37.2952240">
    <ele>2342.4</ele>
    <time>2026-06-20T12:59:34Z</time>
   </trkpt>
   <trkpt lat="-3.1447270" lon="37.2952240">
    <ele>2342.4</ele>
    <time>2026-06-20T12:59:35Z</time>
   </trkpt>
   <trkpt lat="-3.1447270" lon="37.2952240">
    <ele>2342.4</ele>
    <time>2026-06-20T12:59:36Z</time>
   </trkpt>
   <trkpt lat="-3.1447270" lon="37.2952240">
    <ele>2342.4</ele>
    <time>2026-06-20T12:59:37Z</time>
   </trkpt>
   <trkpt lat="-3.1447270" lon="37.2952240">
    <ele>2342.4</ele>
    <time>2026-06-20T12:59:38Z</time>
   </trkpt>
   <trkpt lat="-3.1447270" lon="37.2952240">
    <ele>2342.4</ele>
    <time>2026-06-20T12:59:39Z</time>
   </trkpt>
   <trkpt lat="-3.1447270" lon="37.2952240">
    <ele>2342.4</ele>
    <time>2026-06-20T12:59:40Z</time>
   </trkpt>
   <trkpt lat="-3.1447500" lon="37.2952160">
    <ele>2342.2</ele>
    <time>2026-06-20T12:59:41Z</time>
   </trkpt>
   <trkpt lat="-3.1447480" lon="37.2952140">
    <ele>2342.2</ele>
    <time>2026-06-20T12:59:42Z</time>
   </trkpt>
   <trkpt lat="-3.1447450" lon="37.2952190">
    <ele>2342.2</ele>
    <time>2026-06-20T12:59:43Z</time>
   </trkpt>
   <trkpt lat="-3.1447330" lon="37.2952280">
    <ele>2342.1</ele>
    <time>2026-06-20T12:59:44Z</time>
   </trkpt>
   <trkpt lat="-3.1447340" lon="37.2952370">
    <ele>2342.0</ele>
    <time>2026-06-20T12:59:45Z</time>
   </trkpt>
   <trkpt lat="-3.1447340" lon="37.2952430">
    <ele>2342.0</ele>
    <time>2026-06-20T12:59:46Z</time>
   </trkpt>
   <trkpt lat="-3.1447320" lon="37.2952430">
    <ele>2342.0</ele>
    <time>2026-06-20T12:59:47Z</time>
   </trkpt>
   <trkpt lat="-3.1447260" lon="37.2952470">
    <ele>2341.9</ele>
    <time>2026-06-20T12:59:48Z</time>
   </trkpt>
   <trkpt lat="-3.1447170" lon="37.2952500">
    <ele>2341.9</ele>
    <time>2026-06-20T12:59:49Z</time>
   </trkpt>
   <trkpt lat="-3.1447120" lon="37.2952600">
    <ele>2341.8</ele>
    <time>2026-06-20T12:59:50Z</time>
   </trkpt>
   <trkpt lat="-3.1447070" lon="37.2952760">
    <ele>2341.7</ele>
    <time>2026-06-20T12:59:51Z</time>
   </trkpt>
   <trkpt lat="-3.1447000" lon="37.2952860">
    <ele>2341.6</ele>
    <time>2026-06-20T12:59:52Z</time>
   </trkpt>
   <trkpt lat="-3.1446980" lon="37.2952970">
    <ele>2341.6</ele>
    <time>2026-06-20T12:59:53Z</time>
   </trkpt>
   <trkpt lat="-3.1446910" lon="37.2953110">
    <ele>2341.5</ele>
    <time>2026-06-20T12:59:54Z</time>
   </trkpt>
   <trkpt lat="-3.1446900" lon="37.2953190">
    <ele>2341.4</ele>
    <time>2026-06-20T12:59:55Z</time>
   </trkpt>
   <trkpt lat="-3.1446840" lon="37.2953390">
    <ele>2341.3</ele>
    <time>2026-06-20T12:59:56Z</time>
   </trkpt>
   <trkpt lat="-3.1446810" lon="37.2953550">
    <ele>2341.2</ele>
    <time>2026-06-20T12:59:57Z</time>
   </trkpt>
   <trkpt lat="-3.1446840" lon="37.2953640">
    <ele>2341.2</ele>
    <time>2026-06-20T12:59:58Z</time>
   </trkpt>
   <trkpt lat="-3.1446920" lon="37.2953630">
    <ele>2341.1</ele>
    <time>2026-06-20T12:59:59Z</time>
   </trkpt>
   <trkpt lat="-3.1446950" lon="37.2953660">
    <ele>2341.1</ele>
    <time>2026-06-20T13:00:00Z</time>
   </trkpt>
   <trkpt lat="-3.1446950" lon="37.2953690">
    <ele>2341.1</ele>
    <time>2026-06-20T13:00:01Z</time>
   </trkpt>
   <trkpt lat="-3.1446880" lon="37.2953800">
    <ele>2341.0</ele>
    <time>2026-06-20T13:00:02Z</time>
   </trkpt>
   <trkpt lat="-3.1446850" lon="37.2953930">
    <ele>2340.9</ele>
    <time>2026-06-20T13:00:03Z</time>
   </trkpt>
   <trkpt lat="-3.1446840" lon="37.2954060">
    <ele>2340.9</ele>
    <time>2026-06-20T13:00:04Z</time>
   </trkpt>
   <trkpt lat="-3.1446820" lon="37.2954190">
    <ele>2340.8</ele>
    <time>2026-06-20T13:00:05Z</time>
   </trkpt>
   <trkpt lat="-3.1446760" lon="37.2954330">
    <ele>2340.7</ele>
    <time>2026-06-20T13:00:06Z</time>
   </trkpt>
   <trkpt lat="-3.1446740" lon="37.2954420">
    <ele>2340.7</ele>
    <time>2026-06-20T13:00:07Z</time>
   </trkpt>
   <trkpt lat="-3.1446710" lon="37.2954530">
    <ele>2340.6</ele>
    <time>2026-06-20T13:00:08Z</time>
   </trkpt>
   <trkpt lat="-3.1446690" lon="37.2954730">
    <ele>2340.5</ele>
    <time>2026-06-20T13:00:09Z</time>
   </trkpt>
   <trkpt lat="-3.1446710" lon="37.2954840">
    <ele>2340.4</ele>
    <time>2026-06-20T13:00:10Z</time>
   </trkpt>
   <trkpt lat="-3.1446680" lon="37.2954910">
    <ele>2340.4</ele>
    <time>2026-06-20T13:00:11Z</time>
   </trkpt>
   <trkpt lat="-3.1446680" lon="37.2954930">
    <ele>2340.3</ele>
    <time>2026-06-20T13:00:12Z</time>
   </trkpt>
   <trkpt lat="-3.1446580" lon="37.2954900">
    <ele>2340.3</ele>
    <time>2026-06-20T13:00:13Z</time>
   </trkpt>
   <trkpt lat="-3.1446610" lon="37.2954880">
    <ele>2340.3</ele>
    <time>2026-06-20T13:00:14Z</time>
   </trkpt>
   <trkpt lat="-3.1446580" lon="37.2954910">
    <ele>2340.2</ele>
    <time>2026-06-20T13:00:15Z</time>
   </trkpt>
   <trkpt lat="-3.1446550" lon="37.2954950">
    <ele>2340.2</ele>
    <time>2026-06-20T13:00:16Z</time>
   </trkpt>
   <trkpt lat="-3.1446530" lon="37.2955010">
    <ele>2340.2</ele>
    <time>2026-06-20T13:00:17Z</time>
   </trkpt>
   <trkpt lat="-3.1446680" lon="37.2954920">
    <ele>2340.0</ele>
    <time>2026-06-20T13:00:18Z</time>
   </trkpt>
   <trkpt lat="-3.1446750" lon="37.2954880">
    <ele>2340.0</ele>
    <time>2026-06-20T13:00:19Z</time>
   </trkpt>
   <trkpt lat="-3.1446760" lon="37.2954860">
    <ele>2340.0</ele>
    <time>2026-06-20T13:00:20Z</time>
   </trkpt>
   <trkpt lat="-3.1446740" lon="37.2954890">
    <ele>2339.9</ele>
    <time>2026-06-20T13:00:21Z</time>
   </trkpt>
   <trkpt lat="-3.1446760" lon="37.2954970">
    <ele>2339.9</ele>
    <time>2026-06-20T13:00:22Z</time>
   </trkpt>
   <trkpt lat="-3.1446780" lon="37.2955000">
    <ele>2339.8</ele>
    <time>2026-06-20T13:00:23Z</time>
   </trkpt>
   <trkpt lat="-3.1446740" lon="37.2955090">
    <ele>2339.8</ele>
    <time>2026-06-20T13:00:24Z</time>
   </trkpt>
   <trkpt lat="-3.1446700" lon="37.2955180">
    <ele>2339.7</ele>
    <time>2026-06-20T13:00:25Z</time>
   </trkpt>
   <trkpt lat="-3.1446740" lon="37.2955260">
    <ele>2339.6</ele>
    <time>2026-06-20T13:00:26Z</time>
   </trkpt>
   <trkpt lat="-3.1446750" lon="37.2955370">
    <ele>2339.5</ele>
    <time>2026-06-20T13:00:27Z</time>
   </trkpt>
   <trkpt lat="-3.1446730" lon="37.2955440">
    <ele>2339.5</ele>
    <time>2026-06-20T13:00:28Z</time>
   </trkpt>
   <trkpt lat="-3.1446680" lon="37.2955540">
    <ele>2339.4</ele>
    <time>2026-06-20T13:00:29Z</time>
   </trkpt>
   <trkpt lat="-3.1446600" lon="37.2955630">
    <ele>2339.3</ele>
    <time>2026-06-20T13:00:30Z</time>
   </trkpt>
   <trkpt lat="-3.1446560" lon="37.2955670">
    <ele>2339.2</ele>
    <time>2026-06-20T13:00:31Z</time>
   </trkpt>
   <trkpt lat="-3.1446540" lon="37.2955730">
    <ele>2339.2</ele>
    <time>2026-06-20T13:00:32Z</time>
   </trkpt>
   <trkpt lat="-3.1446540" lon="37.2955720">
    <ele>2339.2</ele>
    <time>2026-06-20T13:00:33Z</time>
   </trkpt>
   <trkpt lat="-3.1446540" lon="37.2955720">
    <ele>2339.2</ele>
    <time>2026-06-20T13:00:34Z</time>
   </trkpt>
   <trkpt lat="-3.1446540" lon="37.2955720">
    <ele>2339.2</ele>
    <time>2026-06-20T13:00:35Z</time>
   </trkpt>
   <trkpt lat="-3.1446540" lon="37.2955720">
    <ele>2339.2</ele>
    <time>2026-06-20T13:00:36Z</time>
   </trkpt>
   <trkpt lat="-3.1446430" lon="37.2955780">
    <ele>2339.0</ele>
    <time>2026-06-20T13:00:37Z</time>
   </trkpt>
   <trkpt lat="-3.1446430" lon="37.2955770">
    <ele>2339.0</ele>
    <time>2026-06-20T13:00:38Z</time>
   </trkpt>
   <trkpt lat="-3.1446430" lon="37.2955770">
    <ele>2339.0</ele>
    <time>2026-06-20T13:00:39Z</time>
   </trkpt>
   <trkpt lat="-3.1446430" lon="37.2955780">
    <ele>2339.0</ele>
    <time>2026-06-20T13:00:40Z</time>
   </trkpt>
   <trkpt lat="-3.1446470" lon="37.2955780">
    <ele>2339.0</ele>
    <time>2026-06-20T13:00:41Z</time>
   </trkpt>
   <trkpt lat="-3.1446420" lon="37.2955820">
    <ele>2338.9</ele>
    <time>2026-06-20T13:00:42Z</time>
   </trkpt>
   <trkpt lat="-3.1446350" lon="37.2955830">
    <ele>2338.9</ele>
    <time>2026-06-20T13:00:43Z</time>
   </trkpt>
   <trkpt lat="-3.1446380" lon="37.2955810">
    <ele>2338.8</ele>
    <time>2026-06-20T13:00:44Z</time>
   </trkpt>
   <trkpt lat="-3.1446350" lon="37.2955840">
    <ele>2338.8</ele>
    <time>2026-06-20T13:00:45Z</time>
   </trkpt>
   <trkpt lat="-3.1446340" lon="37.2955870">
    <ele>2338.8</ele>
    <time>2026-06-20T13:00:46Z</time>
   </trkpt>
   <trkpt lat="-3.1446320" lon="37.2955890">
    <ele>2338.7</ele>
    <time>2026-06-20T13:00:47Z</time>
   </trkpt>
   <trkpt lat="-3.1446320" lon="37.2955880">
    <ele>2338.7</ele>
    <time>2026-06-20T13:00:48Z</time>
   </trkpt>
   <trkpt lat="-3.1446320" lon="37.2955880">
    <ele>2338.7</ele>
    <time>2026-06-20T13:00:49Z</time>
   </trkpt>
   <trkpt lat="-3.1446320" lon="37.2955880">
    <ele>2338.7</ele>
    <time>2026-06-20T13:00:50Z</time>
   </trkpt>
   <trkpt lat="-3.1446320" lon="37.2955880">
    <ele>2338.7</ele>
    <time>2026-06-20T13:00:51Z</time>
   </trkpt>
   <trkpt lat="-3.1446320" lon="37.2955880">
    <ele>2338.7</ele>
    <time>2026-06-20T13:00:52Z</time>
   </trkpt>
   <trkpt lat="-3.1446240" lon="37.2955960">
    <ele>2338.6</ele>
    <time>2026-06-20T13:00:53Z</time>
   </trkpt>
   <trkpt lat="-3.1446240" lon="37.2955960">
    <ele>2338.6</ele>
    <time>2026-06-20T13:00:54Z</time>
   </trkpt>
   <trkpt lat="-3.1446240" lon="37.2955960">
    <ele>2338.6</ele>
    <time>2026-06-20T13:00:55Z</time>
   </trkpt>
   <trkpt lat="-3.1446160" lon="37.2955920">
    <ele>2338.5</ele>
    <time>2026-06-20T13:00:56Z</time>
   </trkpt>
   <trkpt lat="-3.1446130" lon="37.2955920">
    <ele>2338.5</ele>
    <time>2026-06-20T13:00:57Z</time>
   </trkpt>
   <trkpt lat="-3.1446130" lon="37.2955920">
    <ele>2338.5</ele>
    <time>2026-06-20T13:00:58Z</time>
   </trkpt>
   <trkpt lat="-3.1446240" lon="37.2955860">
    <ele>2338.4</ele>
    <time>2026-06-20T13:00:59Z</time>
   </trkpt>
   <trkpt lat="-3.1446320" lon="37.2955870">
    <ele>2338.3</ele>
    <time>2026-06-20T13:01:00Z</time>
   </trkpt>
   <trkpt lat="-3.1446250" lon="37.2955910">
    <ele>2338.3</ele>
    <time>2026-06-20T13:01:01Z</time>
   </trkpt>
   <trkpt lat="-3.1446200" lon="37.2955920">
    <ele>2338.2</ele>
    <time>2026-06-20T13:01:02Z</time>
   </trkpt>
   <trkpt lat="-3.1446200" lon="37.2955910">
    <ele>2338.2</ele>
    <time>2026-06-20T13:01:03Z</time>
   </trkpt>
   <trkpt lat="-3.1446160" lon="37.2955910">
    <ele>2338.2</ele>
    <time>2026-06-20T13:01:04Z</time>
   </trkpt>
   <trkpt lat="-3.1446160" lon="37.2955910">
    <ele>2338.2</ele>
    <time>2026-06-20T13:01:05Z</time>
   </trkpt>
   <trkpt lat="-3.1446160" lon="37.2955940">
    <ele>2338.1</ele>
    <time>2026-06-20T13:01:06Z</time>
   </trkpt>
   <trkpt lat="-3.1446180" lon="37.2955910">
    <ele>2338.1</ele>
    <time>2026-06-20T13:01:07Z</time>
   </trkpt>
   <trkpt lat="-3.1446160" lon="37.2955940">
    <ele>2338.1</ele>
    <time>2026-06-20T13:01:08Z</time>
   </trkpt>
   <trkpt lat="-3.1446160" lon="37.2955930">
    <ele>2338.1</ele>
    <time>2026-06-20T13:01:09Z</time>
   </trkpt>
   <trkpt lat="-3.1446130" lon="37.2955920">
    <ele>2338.0</ele>
    <time>2026-06-20T13:01:10Z</time>
   </trkpt>
   <trkpt lat="-3.1446120" lon="37.2955960">
    <ele>2338.0</ele>
    <time>2026-06-20T13:01:11Z</time>
   </trkpt>
   <trkpt lat="-3.1446130" lon="37.2955960">
    <ele>2338.0</ele>
    <time>2026-06-20T13:01:12Z</time>
   </trkpt>
   <trkpt lat="-3.1446160" lon="37.2955960">
    <ele>2338.0</ele>
    <time>2026-06-20T13:01:13Z</time>
   </trkpt>
   <trkpt lat="-3.1446160" lon="37.2955960">
    <ele>2338.0</ele>
    <time>2026-06-20T13:01:14Z</time>
   </trkpt>
   <trkpt lat="-3.1446130" lon="37.2956010">
    <ele>2337.9</ele>
    <time>2026-06-20T13:01:15Z</time>
   </trkpt>
   <trkpt lat="-3.1446130" lon="37.2955960">
    <ele>2337.9</ele>
    <time>2026-06-20T13:01:16Z</time>
   </trkpt>
   <trkpt lat="-3.1446150" lon="37.2955970">
    <ele>2337.8</ele>
    <time>2026-06-20T13:01:17Z</time>
   </trkpt>
   <trkpt lat="-3.1446140" lon="37.2955970">
    <ele>2337.8</ele>
    <time>2026-06-20T13:01:18Z</time>
   </trkpt>
   <trkpt lat="-3.1446110" lon="37.2956010">
    <ele>2337.8</ele>
    <time>2026-06-20T13:01:19Z</time>
   </trkpt>
   <trkpt lat="-3.1446070" lon="37.2956070">
    <ele>2337.7</ele>
    <time>2026-06-20T13:01:20Z</time>
   </trkpt>
   <trkpt lat="-3.1446070" lon="37.2956110">
    <ele>2337.7</ele>
    <time>2026-06-20T13:01:21Z</time>
   </trkpt>
   <trkpt lat="-3.1446070" lon="37.2956100">
    <ele>2337.7</ele>
    <time>2026-06-20T13:01:22Z</time>
   </trkpt>
   <trkpt lat="-3.1446070" lon="37.2956100">
    <ele>2337.7</ele>
    <time>2026-06-20T13:01:23Z</time>
   </trkpt>
   <trkpt lat="-3.1446080" lon="37.2956160">
    <ele>2337.6</ele>
    <time>2026-06-20T13:01:24Z</time>
   </trkpt>
   <trkpt lat="-3.1446110" lon="37.2956150">
    <ele>2337.6</ele>
    <time>2026-06-20T13:01:25Z</time>
   </trkpt>
   <trkpt lat="-3.1446110" lon="37.2956160">
    <ele>2337.6</ele>
    <time>2026-06-20T13:01:26Z</time>
   </trkpt>
   <trkpt lat="-3.1446110" lon="37.2956230">
    <ele>2337.5</ele>
    <time>2026-06-20T13:01:27Z</time>
   </trkpt>
   <trkpt lat="-3.1446140" lon="37.2956210">
    <ele>2337.5</ele>
    <time>2026-06-20T13:01:28Z</time>
   </trkpt>
   <trkpt lat="-3.1446160" lon="37.2956210">
    <ele>2337.5</ele>
    <time>2026-06-20T13:01:29Z</time>
   </trkpt>
   <trkpt lat="-3.1446170" lon="37.2956120">
    <ele>2337.4</ele>
    <time>2026-06-20T13:01:30Z</time>
   </trkpt>
   <trkpt lat="-3.1446160" lon="37.2956060">
    <ele>2337.4</ele>
    <time>2026-06-20T13:01:31Z</time>
   </trkpt>
   <trkpt lat="-3.1446170" lon="37.2956040">
    <ele>2337.3</ele>
    <time>2026-06-20T13:01:32Z</time>
   </trkpt>
   <trkpt lat="-3.1446180" lon="37.2956010">
    <ele>2337.3</ele>
    <time>2026-06-20T13:01:33Z</time>
   </trkpt>
   <trkpt lat="-3.1446180" lon="37.2956050">
    <ele>2337.3</ele>
    <time>2026-06-20T13:01:34Z</time>
   </trkpt>
   <trkpt lat="-3.1446130" lon="37.2956070">
    <ele>2337.3</ele>
    <time>2026-06-20T13:01:35Z</time>
   </trkpt>
   <trkpt lat="-3.1446160" lon="37.2956100">
    <ele>2337.2</ele>
    <time>2026-06-20T13:01:36Z</time>
   </trkpt>
   <trkpt lat="-3.1446130" lon="37.2956160">
    <ele>2337.2</ele>
    <time>2026-06-20T13:01:37Z</time>
   </trkpt>
   <trkpt lat="-3.1446160" lon="37.2956170">
    <ele>2337.1</ele>
    <time>2026-06-20T13:01:38Z</time>
   </trkpt>
   <trkpt lat="-3.1446180" lon="37.2956200">
    <ele>2337.1</ele>
    <time>2026-06-20T13:01:39Z</time>
   </trkpt>
   <trkpt lat="-3.1446170" lon="37.2956200">
    <ele>2337.1</ele>
    <time>2026-06-20T13:01:40Z</time>
   </trkpt>
   <trkpt lat="-3.1446170" lon="37.2956190">
    <ele>2337.1</ele>
    <time>2026-06-20T13:01:41Z</time>
   </trkpt>
   <trkpt lat="-3.1446130" lon="37.2956250">
    <ele>2337.1</ele>
    <time>2026-06-20T13:01:42Z</time>
   </trkpt>
   <trkpt lat="-3.1446090" lon="37.2956290">
    <ele>2337.0</ele>
    <time>2026-06-20T13:01:43Z</time>
   </trkpt>
   <trkpt lat="-3.1446070" lon="37.2956340">
    <ele>2337.0</ele>
    <time>2026-06-20T13:01:44Z</time>
   </trkpt>
   <trkpt lat="-3.1446050" lon="37.2956360">
    <ele>2336.9</ele>
    <time>2026-06-20T13:01:45Z</time>
   </trkpt>
   <trkpt lat="-3.1446020" lon="37.2956420">
    <ele>2336.9</ele>
    <time>2026-06-20T13:01:46Z</time>
   </trkpt>
   <trkpt lat="-3.1446020" lon="37.2956420">
    <ele>2336.9</ele>
    <time>2026-06-20T13:01:47Z</time>
   </trkpt>
   <trkpt lat="-3.1446010" lon="37.2956480">
    <ele>2336.9</ele>
    <time>2026-06-20T13:01:48Z</time>
   </trkpt>
   <trkpt lat="-3.1446020" lon="37.2956470">
    <ele>2336.9</ele>
    <time>2026-06-20T13:01:49Z</time>
   </trkpt>
   <trkpt lat="-3.1446030" lon="37.2956470">
    <ele>2336.9</ele>
    <time>2026-06-20T13:01:50Z</time>
   </trkpt>
   <trkpt lat="-3.1446020" lon="37.2956470">
    <ele>2336.8</ele>
    <time>2026-06-20T13:01:51Z</time>
   </trkpt>
   <trkpt lat="-3.1446050" lon="37.2956470">
    <ele>2336.8</ele>
    <time>2026-06-20T13:01:52Z</time>
   </trkpt>
   <trkpt lat="-3.1446050" lon="37.2956470">
    <ele>2336.8</ele>
    <time>2026-06-20T13:01:53Z</time>
   </trkpt>
   <trkpt lat="-3.1446050" lon="37.2956470">
    <ele>2336.8</ele>
    <time>2026-06-20T13:01:54Z</time>
   </trkpt>
   <trkpt lat="-3.1446050" lon="37.2956470">
    <ele>2336.8</ele>
    <time>2026-06-20T13:01:55Z</time>
   </trkpt>
   <trkpt lat="-3.1446050" lon="37.2956470">
    <ele>2336.8</ele>
    <time>2026-06-20T13:01:56Z</time>
   </trkpt>
   <trkpt lat="-3.1446050" lon="37.2956470">
    <ele>2336.8</ele>
    <time>2026-06-20T13:01:57Z</time>
   </trkpt>
   <trkpt lat="-3.1446050" lon="37.2956470">
    <ele>2336.8</ele>
    <time>2026-06-20T13:01:58Z</time>
   </trkpt>
   <trkpt lat="-3.1446050" lon="37.2956470">
    <ele>2336.8</ele>
    <time>2026-06-20T13:01:59Z</time>
   </trkpt>
   <trkpt lat="-3.1446050" lon="37.2956470">
    <ele>2336.8</ele>
    <time>2026-06-20T13:02:00Z</time>
   </trkpt>
   <trkpt lat="-3.1445780" lon="37.2956610">
    <ele>2336.6</ele>
    <time>2026-06-20T13:02:01Z</time>
   </trkpt>
   <trkpt lat="-3.1445770" lon="37.2956620">
    <ele>2336.6</ele>
    <time>2026-06-20T13:02:02Z</time>
   </trkpt>
   <trkpt lat="-3.1445760" lon="37.2956620">
    <ele>2336.6</ele>
    <time>2026-06-20T13:02:03Z</time>
   </trkpt>
   <trkpt lat="-3.1445760" lon="37.2956620">
    <ele>2336.6</ele>
    <time>2026-06-20T13:02:04Z</time>
   </trkpt>
   <trkpt lat="-3.1445760" lon="37.2956620">
    <ele>2336.6</ele>
    <time>2026-06-20T13:02:05Z</time>
   </trkpt>
   <trkpt lat="-3.1445760" lon="37.2956620">
    <ele>2336.6</ele>
    <time>2026-06-20T13:02:06Z</time>
   </trkpt>
   <trkpt lat="-3.1445760" lon="37.2956620">
    <ele>2336.6</ele>
    <time>2026-06-20T13:02:07Z</time>
   </trkpt>
   <trkpt lat="-3.1445760" lon="37.2956620">
    <ele>2336.6</ele>
    <time>2026-06-20T13:02:08Z</time>
   </trkpt>
   <trkpt lat="-3.1445760" lon="37.2956620">
    <ele>2336.6</ele>
    <time>2026-06-20T13:02:09Z</time>
   </trkpt>
   <trkpt lat="-3.1445890" lon="37.2956780">
    <ele>2336.5</ele>
    <time>2026-06-20T13:02:10Z</time>
   </trkpt>
   <trkpt lat="-3.1445920" lon="37.2956790">
    <ele>2336.5</ele>
    <time>2026-06-20T13:02:11Z</time>
   </trkpt>
   <trkpt lat="-3.1445990" lon="37.2956840">
    <ele>2336.5</ele>
    <time>2026-06-20T13:02:12Z</time>
   </trkpt>
   <trkpt lat="-3.1446040" lon="37.2956850">
    <ele>2336.4</ele>
    <time>2026-06-20T13:02:13Z</time>
   </trkpt>
   <trkpt lat="-3.1446100" lon="37.2956850">
    <ele>2336.4</ele>
    <time>2026-06-20T13:02:14Z</time>
   </trkpt>
   <trkpt lat="-3.1446170" lon="37.2956800">
    <ele>2336.4</ele>
    <time>2026-06-20T13:02:15Z</time>
   </trkpt>
   <trkpt lat="-3.1446170" lon="37.2956800">
    <ele>2336.4</ele>
    <time>2026-06-20T13:02:16Z</time>
   </trkpt>
   <trkpt lat="-3.1446260" lon="37.2956850">
    <ele>2336.3</ele>
    <time>2026-06-20T13:02:17Z</time>
   </trkpt>
   <trkpt lat="-3.1446260" lon="37.2956830">
    <ele>2336.3</ele>
    <time>2026-06-20T13:02:18Z</time>
   </trkpt>
   <trkpt lat="-3.1446330" lon="37.2956760">
    <ele>2336.3</ele>
    <time>2026-06-20T13:02:19Z</time>
   </trkpt>
   <trkpt lat="-3.1446280" lon="37.2956790">
    <ele>2336.3</ele>
    <time>2026-06-20T13:02:20Z</time>
   </trkpt>
   <trkpt lat="-3.1446240" lon="37.2956760">
    <ele>2336.2</ele>
    <time>2026-06-20T13:02:21Z</time>
   </trkpt>
   <trkpt lat="-3.1446210" lon="37.2956830">
    <ele>2336.2</ele>
    <time>2026-06-20T13:02:22Z</time>
   </trkpt>
   <trkpt lat="-3.1446190" lon="37.2956830">
    <ele>2336.2</ele>
    <time>2026-06-20T13:02:23Z</time>
   </trkpt>
   <trkpt lat="-3.1446200" lon="37.2956790">
    <ele>2336.2</ele>
    <time>2026-06-20T13:02:24Z</time>
   </trkpt>
   <trkpt lat="-3.1446250" lon="37.2956820">
    <ele>2336.2</ele>
    <time>2026-06-20T13:02:25Z</time>
   </trkpt>
   <trkpt lat="-3.1446270" lon="37.2956860">
    <ele>2336.2</ele>
    <time>2026-06-20T13:02:26Z</time>
   </trkpt>
   <trkpt lat="-3.1446270" lon="37.2956860">
    <ele>2336.2</ele>
    <time>2026-06-20T13:02:27Z</time>
   </trkpt>
   <trkpt lat="-3.1446290" lon="37.2956850">
    <ele>2336.2</ele>
    <time>2026-06-20T13:02:28Z</time>
   </trkpt>
   <trkpt lat="-3.1446270" lon="37.2956790">
    <ele>2336.1</ele>
    <time>2026-06-20T13:02:29Z</time>
   </trkpt>
   <trkpt lat="-3.1446270" lon="37.2956790">
    <ele>2336.1</ele>
    <time>2026-06-20T13:02:30Z</time>
   </trkpt>
   <trkpt lat="-3.1446270" lon="37.2956790">
    <ele>2336.1</ele>
    <time>2026-06-20T13:02:31Z</time>
   </trkpt>
   <trkpt lat="-3.1446230" lon="37.2956750">
    <ele>2336.1</ele>
    <time>2026-06-20T13:02:32Z</time>
   </trkpt>
   <trkpt lat="-3.1446250" lon="37.2956810">
    <ele>2336.1</ele>
    <time>2026-06-20T13:02:33Z</time>
   </trkpt>
   <trkpt lat="-3.1446310" lon="37.2956840">
    <ele>2336.1</ele>
    <time>2026-06-20T13:02:34Z</time>
   </trkpt>
   <trkpt lat="-3.1446310" lon="37.2956820">
    <ele>2336.1</ele>
    <time>2026-06-20T13:02:35Z</time>
   </trkpt>
   <trkpt lat="-3.1446350" lon="37.2956810">
    <ele>2336.1</ele>
    <time>2026-06-20T13:02:36Z</time>
   </trkpt>
   <trkpt lat="-3.1446340" lon="37.2956830">
    <ele>2336.1</ele>
    <time>2026-06-20T13:02:37Z</time>
   </trkpt>
   <trkpt lat="-3.1446340" lon="37.2956820">
    <ele>2336.1</ele>
    <time>2026-06-20T13:02:38Z</time>
   </trkpt>
   <trkpt lat="-3.1446320" lon="37.2956880">
    <ele>2336.1</ele>
    <time>2026-06-20T13:02:39Z</time>
   </trkpt>
   <trkpt lat="-3.1446340" lon="37.2956870">
    <ele>2336.1</ele>
    <time>2026-06-20T13:02:40Z</time>
   </trkpt>
   <trkpt lat="-3.1446380" lon="37.2956870">
    <ele>2336.1</ele>
    <time>2026-06-20T13:02:41Z</time>
   </trkpt>
   <trkpt lat="-3.1446360" lon="37.2956880">
    <ele>2336.1</ele>
    <time>2026-06-20T13:02:42Z</time>
   </trkpt>
   <trkpt lat="-3.1446400" lon="37.2956860">
    <ele>2336.1</ele>
    <time>2026-06-20T13:02:43Z</time>
   </trkpt>
   <trkpt lat="-3.1446390" lon="37.2956830">
    <ele>2336.1</ele>
    <time>2026-06-20T13:02:44Z</time>
   </trkpt>
   <trkpt lat="-3.1446330" lon="37.2956880">
    <ele>2336.1</ele>
    <time>2026-06-20T13:02:45Z</time>
   </trkpt>
   <trkpt lat="-3.1446350" lon="37.2956920">
    <ele>2336.0</ele>
    <time>2026-06-20T13:02:46Z</time>
   </trkpt>
   <trkpt lat="-3.1446290" lon="37.2956890">
    <ele>2336.0</ele>
    <time>2026-06-20T13:02:47Z</time>
   </trkpt>
   <trkpt lat="-3.1446300" lon="37.2956830">
    <ele>2336.0</ele>
    <time>2026-06-20T13:02:48Z</time>
   </trkpt>
   <trkpt lat="-3.1446300" lon="37.2956830">
    <ele>2336.0</ele>
    <time>2026-06-20T13:02:49Z</time>
   </trkpt>
   <trkpt lat="-3.1446300" lon="37.2956830">
    <ele>2336.0</ele>
    <time>2026-06-20T13:02:50Z</time>
   </trkpt>
   <trkpt lat="-3.1446300" lon="37.2956830">
    <ele>2336.0</ele>
    <time>2026-06-20T13:02:51Z</time>
   </trkpt>
   <trkpt lat="-3.1446180" lon="37.2956810">
    <ele>2336.0</ele>
    <time>2026-06-20T13:02:52Z</time>
   </trkpt>
   <trkpt lat="-3.1446200" lon="37.2956800">
    <ele>2336.0</ele>
    <time>2026-06-20T13:02:53Z</time>
   </trkpt>
   <trkpt lat="-3.1446170" lon="37.2956780">
    <ele>2336.0</ele>
    <time>2026-06-20T13:02:54Z</time>
   </trkpt>
   <trkpt lat="-3.1446150" lon="37.2956790">
    <ele>2336.0</ele>
    <time>2026-06-20T13:02:55Z</time>
   </trkpt>
   <trkpt lat="-3.1446130" lon="37.2956800">
    <ele>2336.0</ele>
    <time>2026-06-20T13:02:56Z</time>
   </trkpt>
   <trkpt lat="-3.1446130" lon="37.2956790">
    <ele>2336.0</ele>
    <time>2026-06-20T13:02:57Z</time>
   </trkpt>
   <trkpt lat="-3.1446120" lon="37.2956790">
    <ele>2336.0</ele>
    <time>2026-06-20T13:02:58Z</time>
   </trkpt>
   <trkpt lat="-3.1446110" lon="37.2956790">
    <ele>2336.0</ele>
    <time>2026-06-20T13:02:59Z</time>
   </trkpt>
   <trkpt lat="-3.1446100" lon="37.2956780">
    <ele>2336.0</ele>
    <time>2026-06-20T13:03:00Z</time>
   </trkpt>
   <trkpt lat="-3.1446130" lon="37.2956780">
    <ele>2336.0</ele>
    <time>2026-06-20T13:03:01Z</time>
   </trkpt>
   <trkpt lat="-3.1446100" lon="37.2956760">
    <ele>2336.0</ele>
    <time>2026-06-20T13:03:02Z</time>
   </trkpt>
   <trkpt lat="-3.1446060" lon="37.2956760">
    <ele>2336.0</ele>
    <time>2026-06-20T13:03:03Z</time>
   </trkpt>
   <trkpt lat="-3.1446040" lon="37.2956800">
    <ele>2336.0</ele>
    <time>2026-06-20T13:03:04Z</time>
   </trkpt>
   <trkpt lat="-3.1446030" lon="37.2956790">
    <ele>2336.0</ele>
    <time>2026-06-20T13:03:05Z</time>
   </trkpt>
   <trkpt lat="-3.1446060" lon="37.2956810">
    <ele>2336.0</ele>
    <time>2026-06-20T13:03:06Z</time>
   </trkpt>
   <trkpt lat="-3.1446040" lon="37.2956830">
    <ele>2336.0</ele>
    <time>2026-06-20T13:03:07Z</time>
   </trkpt>
   <trkpt lat="-3.1446000" lon="37.2956800">
    <ele>2336.0</ele>
    <time>2026-06-20T13:03:08Z</time>
   </trkpt>
   <trkpt lat="-3.1445990" lon="37.2956790">
    <ele>2336.0</ele>
    <time>2026-06-20T13:03:09Z</time>
   </trkpt>
   <trkpt lat="-3.1445990" lon="37.2956790">
    <ele>2336.0</ele>
    <time>2026-06-20T13:03:10Z</time>
   </trkpt>
   <trkpt lat="-3.1445990" lon="37.2956790">
    <ele>2336.0</ele>
    <time>2026-06-20T13:03:11Z</time>
   </trkpt>
   <trkpt lat="-3.1445990" lon="37.2956790">
    <ele>2336.0</ele>
    <time>2026-06-20T13:03:12Z</time>
   </trkpt>
   <trkpt lat="-3.1445990" lon="37.2956790">
    <ele>2336.0</ele>
    <time>2026-06-20T13:03:13Z</time>
   </trkpt>
   <trkpt lat="-3.1446070" lon="37.2956830">
    <ele>2336.0</ele>
    <time>2026-06-20T13:03:14Z</time>
   </trkpt>
   <trkpt lat="-3.1446100" lon="37.2956860">
    <ele>2336.0</ele>
    <time>2026-06-20T13:03:15Z</time>
   </trkpt>
   <trkpt lat="-3.1446090" lon="37.2956800">
    <ele>2336.0</ele>
    <time>2026-06-20T13:03:16Z</time>
   </trkpt>
   <trkpt lat="-3.1446110" lon="37.2956760">
    <ele>2336.0</ele>
    <time>2026-06-20T13:03:17Z</time>
   </trkpt>
   <trkpt lat="-3.1446120" lon="37.2956750">
    <ele>2336.0</ele>
    <time>2026-06-20T13:03:18Z</time>
   </trkpt>
   <trkpt lat="-3.1446130" lon="37.2956660">
    <ele>2336.0</ele>
    <time>2026-06-20T13:03:19Z</time>
   </trkpt>
   <trkpt lat="-3.1446150" lon="37.2956630">
    <ele>2336.0</ele>
    <time>2026-06-20T13:03:20Z</time>
   </trkpt>
   <trkpt lat="-3.1446190" lon="37.2956600">
    <ele>2336.0</ele>
    <time>2026-06-20T13:03:21Z</time>
   </trkpt>
   <trkpt lat="-3.1446190" lon="37.2956570">
    <ele>2336.0</ele>
    <time>2026-06-20T13:03:22Z</time>
   </trkpt>
   <trkpt lat="-3.1446160" lon="37.2956540">
    <ele>2336.0</ele>
    <time>2026-06-20T13:03:23Z</time>
   </trkpt>
   <trkpt lat="-3.1446150" lon="37.2956540">
    <ele>2336.0</ele>
    <time>2026-06-20T13:03:24Z</time>
   </trkpt>
   <trkpt lat="-3.1446120" lon="37.2956560">
    <ele>2336.0</ele>
    <time>2026-06-20T13:03:25Z</time>
   </trkpt>
   <trkpt lat="-3.1446130" lon="37.2956560">
    <ele>2336.0</ele>
    <time>2026-06-20T13:03:26Z</time>
   </trkpt>
   <trkpt lat="-3.1446120" lon="37.2956560">
    <ele>2336.0</ele>
    <time>2026-06-20T13:03:27Z</time>
   </trkpt>
   <trkpt lat="-3.1446130" lon="37.2956590">
    <ele>2336.0</ele>
    <time>2026-06-20T13:03:28Z</time>
   </trkpt>
   <trkpt lat="-3.1446110" lon="37.2956590">
    <ele>2336.0</ele>
    <time>2026-06-20T13:03:29Z</time>
   </trkpt>
   <trkpt lat="-3.1446090" lon="37.2956600">
    <ele>2336.0</ele>
    <time>2026-06-20T13:03:30Z</time>
   </trkpt>
   <trkpt lat="-3.1446090" lon="37.2956590">
    <ele>2336.0</ele>
    <time>2026-06-20T13:03:31Z</time>
   </trkpt>
   <trkpt lat="-3.1446100" lon="37.2956670">
    <ele>2336.0</ele>
    <time>2026-06-20T13:03:32Z</time>
   </trkpt>
   <trkpt lat="-3.1446140" lon="37.2956670">
    <ele>2336.0</ele>
    <time>2026-06-20T13:03:33Z</time>
   </trkpt>
   <trkpt lat="-3.1446120" lon="37.2956670">
    <ele>2336.0</ele>
    <time>2026-06-20T13:03:34Z</time>
   </trkpt>
   <trkpt lat="-3.1446090" lon="37.2956710">
    <ele>2336.0</ele>
    <time>2026-06-20T13:03:35Z</time>
   </trkpt>
   <trkpt lat="-3.1446020" lon="37.2956800">
    <ele>2336.0</ele>
    <time>2026-06-20T13:03:36Z</time>
   </trkpt>
   <trkpt lat="-3.1445950" lon="37.2956880">
    <ele>2336.0</ele>
    <time>2026-06-20T13:03:37Z</time>
   </trkpt>
   <trkpt lat="-3.1445890" lon="37.2956910">
    <ele>2336.0</ele>
    <time>2026-06-20T13:03:38Z</time>
   </trkpt>
   <trkpt lat="-3.1445880" lon="37.2956970">
    <ele>2336.0</ele>
    <time>2026-06-20T13:03:39Z</time>
   </trkpt>
   <trkpt lat="-3.1445880" lon="37.2957050">
    <ele>2336.0</ele>
    <time>2026-06-20T13:03:40Z</time>
   </trkpt>
   <trkpt lat="-3.1445840" lon="37.2957130">
    <ele>2336.1</ele>
    <time>2026-06-20T13:03:41Z</time>
   </trkpt>
   <trkpt lat="-3.1445720" lon="37.2957260">
    <ele>2336.1</ele>
    <time>2026-06-20T13:03:42Z</time>
   </trkpt>
   <trkpt lat="-3.1445680" lon="37.2957280">
    <ele>2336.1</ele>
    <time>2026-06-20T13:03:43Z</time>
   </trkpt>
   <trkpt lat="-3.1445710" lon="37.2957340">
    <ele>2336.1</ele>
    <time>2026-06-20T13:03:44Z</time>
   </trkpt>
   <trkpt lat="-3.1445670" lon="37.2957340">
    <ele>2336.1</ele>
    <time>2026-06-20T13:03:45Z</time>
   </trkpt>
   <trkpt lat="-3.1445600" lon="37.2957360">
    <ele>2336.1</ele>
    <time>2026-06-20T13:03:46Z</time>
   </trkpt>
   <trkpt lat="-3.1445550" lon="37.2957410">
    <ele>2336.1</ele>
    <time>2026-06-20T13:03:47Z</time>
   </trkpt>
   <trkpt lat="-3.1445450" lon="37.2957460">
    <ele>2336.1</ele>
    <time>2026-06-20T13:03:48Z</time>
   </trkpt>
   <trkpt lat="-3.1445430" lon="37.2957440">
    <ele>2336.1</ele>
    <time>2026-06-20T13:03:49Z</time>
   </trkpt>
   <trkpt lat="-3.1445380" lon="37.2957460">
    <ele>2336.1</ele>
    <time>2026-06-20T13:03:50Z</time>
   </trkpt>
   <trkpt lat="-3.1445340" lon="37.2957480">
    <ele>2336.1</ele>
    <time>2026-06-20T13:03:51Z</time>
   </trkpt>
   <trkpt lat="-3.1445270" lon="37.2957510">
    <ele>2336.1</ele>
    <time>2026-06-20T13:03:52Z</time>
   </trkpt>
   <trkpt lat="-3.1445200" lon="37.2957590">
    <ele>2336.1</ele>
    <time>2026-06-20T13:03:53Z</time>
   </trkpt>
   <trkpt lat="-3.1445150" lon="37.2957630">
    <ele>2336.1</ele>
    <time>2026-06-20T13:03:54Z</time>
   </trkpt>
   <trkpt lat="-3.1445120" lon="37.2957650">
    <ele>2336.2</ele>
    <time>2026-06-20T13:03:55Z</time>
   </trkpt>
   <trkpt lat="-3.1445070" lon="37.2957690">
    <ele>2336.2</ele>
    <time>2026-06-20T13:03:56Z</time>
   </trkpt>
   <trkpt lat="-3.1445070" lon="37.2957690">
    <ele>2336.2</ele>
    <time>2026-06-20T13:03:57Z</time>
   </trkpt>
   <trkpt lat="-3.1445000" lon="37.2957710">
    <ele>2336.2</ele>
    <time>2026-06-20T13:03:58Z</time>
   </trkpt>
   <trkpt lat="-3.1444890" lon="37.2957710">
    <ele>2336.2</ele>
    <time>2026-06-20T13:03:59Z</time>
   </trkpt>
   <trkpt lat="-3.1444870" lon="37.2957740">
    <ele>2336.2</ele>
    <time>2026-06-20T13:04:00Z</time>
   </trkpt>
   <trkpt lat="-3.1444830" lon="37.2957780">
    <ele>2336.2</ele>
    <time>2026-06-20T13:04:01Z</time>
   </trkpt>
   <trkpt lat="-3.1444790" lon="37.2957800">
    <ele>2336.2</ele>
    <time>2026-06-20T13:04:02Z</time>
   </trkpt>
   <trkpt lat="-3.1444720" lon="37.2957910">
    <ele>2336.3</ele>
    <time>2026-06-20T13:04:03Z</time>
   </trkpt>
   <trkpt lat="-3.1444640" lon="37.2957950">
    <ele>2336.3</ele>
    <time>2026-06-20T13:04:04Z</time>
   </trkpt>
   <trkpt lat="-3.1444520" lon="37.2958040">
    <ele>2336.3</ele>
    <time>2026-06-20T13:04:05Z</time>
   </trkpt>
   <trkpt lat="-3.1444440" lon="37.2958160">
    <ele>2336.4</ele>
    <time>2026-06-20T13:04:06Z</time>
   </trkpt>
   <trkpt lat="-3.1444370" lon="37.2958270">
    <ele>2336.5</ele>
    <time>2026-06-20T13:04:07Z</time>
   </trkpt>
   <trkpt lat="-3.1444290" lon="37.2958340">
    <ele>2336.5</ele>
    <time>2026-06-20T13:04:08Z</time>
   </trkpt>
   <trkpt lat="-3.1444210" lon="37.2958430">
    <ele>2336.6</ele>
    <time>2026-06-20T13:04:09Z</time>
   </trkpt>
   <trkpt lat="-3.1444140" lon="37.2958540">
    <ele>2336.6</ele>
    <time>2026-06-20T13:04:10Z</time>
   </trkpt>
   <trkpt lat="-3.1444040" lon="37.2958600">
    <ele>2336.7</ele>
    <time>2026-06-20T13:04:11Z</time>
   </trkpt>
   <trkpt lat="-3.1443990" lon="37.2958660">
    <ele>2336.7</ele>
    <time>2026-06-20T13:04:12Z</time>
   </trkpt>
   <trkpt lat="-3.1444000" lon="37.2958690">
    <ele>2336.8</ele>
    <time>2026-06-20T13:04:13Z</time>
   </trkpt>
   <trkpt lat="-3.1443990" lon="37.2958720">
    <ele>2336.8</ele>
    <time>2026-06-20T13:04:14Z</time>
   </trkpt>
   <trkpt lat="-3.1443920" lon="37.2958780">
    <ele>2336.8</ele>
    <time>2026-06-20T13:04:15Z</time>
   </trkpt>
   <trkpt lat="-3.1443890" lon="37.2958870">
    <ele>2336.9</ele>
    <time>2026-06-20T13:04:16Z</time>
   </trkpt>
   <trkpt lat="-3.1443820" lon="37.2958960">
    <ele>2337.0</ele>
    <time>2026-06-20T13:04:17Z</time>
   </trkpt>
   <trkpt lat="-3.1443770" lon="37.2959050">
    <ele>2337.0</ele>
    <time>2026-06-20T13:04:18Z</time>
   </trkpt>
   <trkpt lat="-3.1443720" lon="37.2959180">
    <ele>2337.1</ele>
    <time>2026-06-20T13:04:19Z</time>
   </trkpt>
   <trkpt lat="-3.1443680" lon="37.2959260">
    <ele>2337.2</ele>
    <time>2026-06-20T13:04:20Z</time>
   </trkpt>
   <trkpt lat="-3.1443630" lon="37.2959350">
    <ele>2337.3</ele>
    <time>2026-06-20T13:04:21Z</time>
   </trkpt>
   <trkpt lat="-3.1443560" lon="37.2959410">
    <ele>2337.3</ele>
    <time>2026-06-20T13:04:22Z</time>
   </trkpt>
   <trkpt lat="-3.1443520" lon="37.2959500">
    <ele>2337.4</ele>
    <time>2026-06-20T13:04:23Z</time>
   </trkpt>
   <trkpt lat="-3.1443500" lon="37.2959570">
    <ele>2337.5</ele>
    <time>2026-06-20T13:04:24Z</time>
   </trkpt>
   <trkpt lat="-3.1443380" lon="37.2959730">
    <ele>2337.6</ele>
    <time>2026-06-20T13:04:25Z</time>
   </trkpt>
   <trkpt lat="-3.1443410" lon="37.2959740">
    <ele>2337.6</ele>
    <time>2026-06-20T13:04:26Z</time>
   </trkpt>
   <trkpt lat="-3.1443400" lon="37.2959800">
    <ele>2337.7</ele>
    <time>2026-06-20T13:04:27Z</time>
   </trkpt>
   <trkpt lat="-3.1443380" lon="37.2959840">
    <ele>2337.7</ele>
    <time>2026-06-20T13:04:28Z</time>
   </trkpt>
   <trkpt lat="-3.1443310" lon="37.2959980">
    <ele>2337.8</ele>
    <time>2026-06-20T13:04:29Z</time>
   </trkpt>
   <trkpt lat="-3.1443320" lon="37.2959970">
    <ele>2337.8</ele>
    <time>2026-06-20T13:04:30Z</time>
   </trkpt>
   <trkpt lat="-3.1443300" lon="37.2960040">
    <ele>2337.9</ele>
    <time>2026-06-20T13:04:31Z</time>
   </trkpt>
   <trkpt lat="-3.1443290" lon="37.2960130">
    <ele>2337.9</ele>
    <time>2026-06-20T13:04:32Z</time>
   </trkpt>
   <trkpt lat="-3.1443290" lon="37.2960160">
    <ele>2338.0</ele>
    <time>2026-06-20T13:04:33Z</time>
   </trkpt>
   <trkpt lat="-3.1443330" lon="37.2960170">
    <ele>2338.0</ele>
    <time>2026-06-20T13:04:34Z</time>
   </trkpt>
   <trkpt lat="-3.1443350" lon="37.2960220">
    <ele>2338.0</ele>
    <time>2026-06-20T13:04:35Z</time>
   </trkpt>
   <trkpt lat="-3.1443350" lon="37.2960250">
    <ele>2338.0</ele>
    <time>2026-06-20T13:04:36Z</time>
   </trkpt>
   <trkpt lat="-3.1443300" lon="37.2960340">
    <ele>2338.1</ele>
    <time>2026-06-20T13:04:37Z</time>
   </trkpt>
   <trkpt lat="-3.1443300" lon="37.2960410">
    <ele>2338.1</ele>
    <time>2026-06-20T13:04:38Z</time>
   </trkpt>
   <trkpt lat="-3.1443300" lon="37.2960470">
    <ele>2338.2</ele>
    <time>2026-06-20T13:04:39Z</time>
   </trkpt>
   <trkpt lat="-3.1443310" lon="37.2960510">
    <ele>2338.2</ele>
    <time>2026-06-20T13:04:40Z</time>
   </trkpt>
   <trkpt lat="-3.1443280" lon="37.2960640">
    <ele>2338.3</ele>
    <time>2026-06-20T13:04:41Z</time>
   </trkpt>
   <trkpt lat="-3.1443290" lon="37.2960740">
    <ele>2338.3</ele>
    <time>2026-06-20T13:04:42Z</time>
   </trkpt>
   <trkpt lat="-3.1443300" lon="37.2960820">
    <ele>2338.3</ele>
    <time>2026-06-20T13:04:43Z</time>
   </trkpt>
   <trkpt lat="-3.1443250" lon="37.2960860">
    <ele>2338.3</ele>
    <time>2026-06-20T13:04:44Z</time>
   </trkpt>
   <trkpt lat="-3.1443210" lon="37.2961000">
    <ele>2338.4</ele>
    <time>2026-06-20T13:04:45Z</time>
   </trkpt>
   <trkpt lat="-3.1443170" lon="37.2961120">
    <ele>2338.4</ele>
    <time>2026-06-20T13:04:46Z</time>
   </trkpt>
   <trkpt lat="-3.1443150" lon="37.2961210">
    <ele>2338.4</ele>
    <time>2026-06-20T13:04:47Z</time>
   </trkpt>
   <trkpt lat="-3.1443110" lon="37.2961280">
    <ele>2338.4</ele>
    <time>2026-06-20T13:04:48Z</time>
   </trkpt>
   <trkpt lat="-3.1443090" lon="37.2961330">
    <ele>2338.4</ele>
    <time>2026-06-20T13:04:49Z</time>
   </trkpt>
   <trkpt lat="-3.1443130" lon="37.2961380">
    <ele>2338.4</ele>
    <time>2026-06-20T13:04:50Z</time>
   </trkpt>
   <trkpt lat="-3.1443180" lon="37.2961380">
    <ele>2338.4</ele>
    <time>2026-06-20T13:04:51Z</time>
   </trkpt>
   <trkpt lat="-3.1443220" lon="37.2961470">
    <ele>2338.4</ele>
    <time>2026-06-20T13:04:52Z</time>
   </trkpt>
   <trkpt lat="-3.1443270" lon="37.2961540">
    <ele>2338.4</ele>
    <time>2026-06-20T13:04:53Z</time>
   </trkpt>
   <trkpt lat="-3.1443340" lon="37.2961630">
    <ele>2338.4</ele>
    <time>2026-06-20T13:04:54Z</time>
   </trkpt>
   <trkpt lat="-3.1443360" lon="37.2961700">
    <ele>2338.4</ele>
    <time>2026-06-20T13:04:55Z</time>
   </trkpt>
   <trkpt lat="-3.1443430" lon="37.2961830">
    <ele>2338.4</ele>
    <time>2026-06-20T13:04:56Z</time>
   </trkpt>
   <trkpt lat="-3.1443570" lon="37.2961840">
    <ele>2338.3</ele>
    <time>2026-06-20T13:04:57Z</time>
   </trkpt>
   <trkpt lat="-3.1443590" lon="37.2961890">
    <ele>2338.3</ele>
    <time>2026-06-20T13:04:58Z</time>
   </trkpt>
   <trkpt lat="-3.1443630" lon="37.2961950">
    <ele>2338.2</ele>
    <time>2026-06-20T13:04:59Z</time>
   </trkpt>
   <trkpt lat="-3.1443630" lon="37.2961960">
    <ele>2338.2</ele>
    <time>2026-06-20T13:05:00Z</time>
   </trkpt>
   <trkpt lat="-3.1443710" lon="37.2961940">
    <ele>2338.2</ele>
    <time>2026-06-20T13:05:01Z</time>
   </trkpt>
   <trkpt lat="-3.1443690" lon="37.2961930">
    <ele>2338.2</ele>
    <time>2026-06-20T13:05:02Z</time>
   </trkpt>
   <trkpt lat="-3.1443850" lon="37.2961900">
    <ele>2338.1</ele>
    <time>2026-06-20T13:05:03Z</time>
   </trkpt>
   <trkpt lat="-3.1443890" lon="37.2961920">
    <ele>2338.1</ele>
    <time>2026-06-20T13:05:04Z</time>
   </trkpt>
   <trkpt lat="-3.1443920" lon="37.2961980">
    <ele>2338.0</ele>
    <time>2026-06-20T13:05:05Z</time>
   </trkpt>
   <trkpt lat="-3.1443960" lon="37.2962040">
    <ele>2338.0</ele>
    <time>2026-06-20T13:05:06Z</time>
   </trkpt>
   <trkpt lat="-3.1443930" lon="37.2962070">
    <ele>2338.0</ele>
    <time>2026-06-20T13:05:07Z</time>
   </trkpt>
   <trkpt lat="-3.1443880" lon="37.2962090">
    <ele>2337.9</ele>
    <time>2026-06-20T13:05:08Z</time>
   </trkpt>
   <trkpt lat="-3.1443840" lon="37.2962200">
    <ele>2337.9</ele>
    <time>2026-06-20T13:05:09Z</time>
   </trkpt>
   <trkpt lat="-3.1443880" lon="37.2962270">
    <ele>2337.8</ele>
    <time>2026-06-20T13:05:10Z</time>
   </trkpt>
   <trkpt lat="-3.1443920" lon="37.2962400">
    <ele>2337.7</ele>
    <time>2026-06-20T13:05:11Z</time>
   </trkpt>
   <trkpt lat="-3.1443930" lon="37.2962510">
    <ele>2337.6</ele>
    <time>2026-06-20T13:05:12Z</time>
   </trkpt>
   <trkpt lat="-3.1443960" lon="37.2962580">
    <ele>2337.6</ele>
    <time>2026-06-20T13:05:13Z</time>
   </trkpt>
   <trkpt lat="-3.1444010" lon="37.2962660">
    <ele>2337.5</ele>
    <time>2026-06-20T13:05:14Z</time>
   </trkpt>
   <trkpt lat="-3.1444140" lon="37.2962690">
    <ele>2337.4</ele>
    <time>2026-06-20T13:05:15Z</time>
   </trkpt>
   <trkpt lat="-3.1444250" lon="37.2962740">
    <ele>2337.3</ele>
    <time>2026-06-20T13:05:16Z</time>
   </trkpt>
   <trkpt lat="-3.1444290" lon="37.2962820">
    <ele>2337.2</ele>
    <time>2026-06-20T13:05:17Z</time>
   </trkpt>
   <trkpt lat="-3.1444370" lon="37.2962850">
    <ele>2337.1</ele>
    <time>2026-06-20T13:05:18Z</time>
   </trkpt>
   <trkpt lat="-3.1444320" lon="37.2962940">
    <ele>2337.0</ele>
    <time>2026-06-20T13:05:19Z</time>
   </trkpt>
   <trkpt lat="-3.1444280" lon="37.2962970">
    <ele>2337.0</ele>
    <time>2026-06-20T13:05:20Z</time>
   </trkpt>
   <trkpt lat="-3.1444190" lon="37.2963020">
    <ele>2336.9</ele>
    <time>2026-06-20T13:05:21Z</time>
   </trkpt>
   <trkpt lat="-3.1444140" lon="37.2963080">
    <ele>2336.9</ele>
    <time>2026-06-20T13:05:22Z</time>
   </trkpt>
   <trkpt lat="-3.1444070" lon="37.2963120">
    <ele>2336.8</ele>
    <time>2026-06-20T13:05:23Z</time>
   </trkpt>
   <trkpt lat="-3.1444110" lon="37.2963230">
    <ele>2336.7</ele>
    <time>2026-06-20T13:05:24Z</time>
   </trkpt>
   <trkpt lat="-3.1444110" lon="37.2963260">
    <ele>2336.7</ele>
    <time>2026-06-20T13:05:25Z</time>
   </trkpt>
   <trkpt lat="-3.1444170" lon="37.2963280">
    <ele>2336.6</ele>
    <time>2026-06-20T13:05:26Z</time>
   </trkpt>
   <trkpt lat="-3.1444170" lon="37.2963370">
    <ele>2336.6</ele>
    <time>2026-06-20T13:05:27Z</time>
   </trkpt>
   <trkpt lat="-3.1444270" lon="37.2963460">
    <ele>2336.5</ele>
    <time>2026-06-20T13:05:28Z</time>
   </trkpt>
   <trkpt lat="-3.1444190" lon="37.2963590">
    <ele>2336.4</ele>
    <time>2026-06-20T13:05:29Z</time>
   </trkpt>
   <trkpt lat="-3.1444190" lon="37.2963680">
    <ele>2336.3</ele>
    <time>2026-06-20T13:05:30Z</time>
   </trkpt>
   <trkpt lat="-3.1444190" lon="37.2963680">
    <ele>2336.3</ele>
    <time>2026-06-20T13:05:31Z</time>
   </trkpt>
   <trkpt lat="-3.1444220" lon="37.2963770">
    <ele>2336.3</ele>
    <time>2026-06-20T13:05:32Z</time>
   </trkpt>
   <trkpt lat="-3.1444240" lon="37.2963810">
    <ele>2336.3</ele>
    <time>2026-06-20T13:05:33Z</time>
   </trkpt>
   <trkpt lat="-3.1444240" lon="37.2963800">
    <ele>2336.2</ele>
    <time>2026-06-20T13:05:34Z</time>
   </trkpt>
   <trkpt lat="-3.1444250" lon="37.2963900">
    <ele>2336.2</ele>
    <time>2026-06-20T13:05:35Z</time>
   </trkpt>
   <trkpt lat="-3.1444280" lon="37.2963940">
    <ele>2336.2</ele>
    <time>2026-06-20T13:05:36Z</time>
   </trkpt>
   <trkpt lat="-3.1444330" lon="37.2963990">
    <ele>2336.2</ele>
    <time>2026-06-20T13:05:37Z</time>
   </trkpt>
   <trkpt lat="-3.1444390" lon="37.2964050">
    <ele>2336.1</ele>
    <time>2026-06-20T13:05:38Z</time>
   </trkpt>
   <trkpt lat="-3.1444430" lon="37.2964050">
    <ele>2336.1</ele>
    <time>2026-06-20T13:05:39Z</time>
   </trkpt>
   <trkpt lat="-3.1444470" lon="37.2964030">
    <ele>2336.1</ele>
    <time>2026-06-20T13:05:40Z</time>
   </trkpt>
   <trkpt lat="-3.1444540" lon="37.2964090">
    <ele>2336.0</ele>
    <time>2026-06-20T13:05:41Z</time>
   </trkpt>
   <trkpt lat="-3.1444580" lon="37.2964180">
    <ele>2336.0</ele>
    <time>2026-06-20T13:05:42Z</time>
   </trkpt>
   <trkpt lat="-3.1444610" lon="37.2964180">
    <ele>2336.0</ele>
    <time>2026-06-20T13:05:43Z</time>
   </trkpt>
   <trkpt lat="-3.1444620" lon="37.2964200">
    <ele>2336.0</ele>
    <time>2026-06-20T13:05:44Z</time>
   </trkpt>
   <trkpt lat="-3.1444630" lon="37.2964230">
    <ele>2336.0</ele>
    <time>2026-06-20T13:05:45Z</time>
   </trkpt>
   <trkpt lat="-3.1444680" lon="37.2964290">
    <ele>2336.0</ele>
    <time>2026-06-20T13:05:46Z</time>
   </trkpt>
   <trkpt lat="-3.1444660" lon="37.2964310">
    <ele>2336.0</ele>
    <time>2026-06-20T13:05:47Z</time>
   </trkpt>
   <trkpt lat="-3.1444660" lon="37.2964330">
    <ele>2336.0</ele>
    <time>2026-06-20T13:05:48Z</time>
   </trkpt>
   <trkpt lat="-3.1444700" lon="37.2964400">
    <ele>2336.0</ele>
    <time>2026-06-20T13:05:49Z</time>
   </trkpt>
   <trkpt lat="-3.1444760" lon="37.2964540">
    <ele>2335.9</ele>
    <time>2026-06-20T13:05:50Z</time>
   </trkpt>
   <trkpt lat="-3.1444910" lon="37.2964700">
    <ele>2335.9</ele>
    <time>2026-06-20T13:05:51Z</time>
   </trkpt>
   <trkpt lat="-3.1444980" lon="37.2964770">
    <ele>2336.0</ele>
    <time>2026-06-20T13:05:52Z</time>
   </trkpt>
   <trkpt lat="-3.1445060" lon="37.2964930">
    <ele>2336.0</ele>
    <time>2026-06-20T13:05:53Z</time>
   </trkpt>
   <trkpt lat="-3.1445020" lon="37.2965110">
    <ele>2336.0</ele>
    <time>2026-06-20T13:05:54Z</time>
   </trkpt>
   <trkpt lat="-3.1444980" lon="37.2965170">
    <ele>2336.0</ele>
    <time>2026-06-20T13:05:55Z</time>
   </trkpt>
   <trkpt lat="-3.1445010" lon="37.2965220">
    <ele>2336.0</ele>
    <time>2026-06-20T13:05:56Z</time>
   </trkpt>
   <trkpt lat="-3.1445010" lon="37.2965290">
    <ele>2336.0</ele>
    <time>2026-06-20T13:05:57Z</time>
   </trkpt>
   <trkpt lat="-3.1445010" lon="37.2965350">
    <ele>2336.1</ele>
    <time>2026-06-20T13:05:58Z</time>
   </trkpt>
   <trkpt lat="-3.1445010" lon="37.2965320">
    <ele>2336.1</ele>
    <time>2026-06-20T13:05:59Z</time>
   </trkpt>
   <trkpt lat="-3.1445020" lon="37.2965300">
    <ele>2336.1</ele>
    <time>2026-06-20T13:06:00Z</time>
   </trkpt>
   <trkpt lat="-3.1445110" lon="37.2965270">
    <ele>2336.1</ele>
    <time>2026-06-20T13:06:01Z</time>
   </trkpt>
   <trkpt lat="-3.1445120" lon="37.2965270">
    <ele>2336.1</ele>
    <time>2026-06-20T13:06:02Z</time>
   </trkpt>
   <trkpt lat="-3.1445130" lon="37.2965270">
    <ele>2336.1</ele>
    <time>2026-06-20T13:06:03Z</time>
   </trkpt>
   <trkpt lat="-3.1445130" lon="37.2965360">
    <ele>2336.1</ele>
    <time>2026-06-20T13:06:04Z</time>
   </trkpt>
   <trkpt lat="-3.1445160" lon="37.2965440">
    <ele>2336.2</ele>
    <time>2026-06-20T13:06:05Z</time>
   </trkpt>
   <trkpt lat="-3.1445160" lon="37.2965500">
    <ele>2336.2</ele>
    <time>2026-06-20T13:06:06Z</time>
   </trkpt>
   <trkpt lat="-3.1445180" lon="37.2965550">
    <ele>2336.2</ele>
    <time>2026-06-20T13:06:07Z</time>
   </trkpt>
   <trkpt lat="-3.1445160" lon="37.2965560">
    <ele>2336.2</ele>
    <time>2026-06-20T13:06:08Z</time>
   </trkpt>
   <trkpt lat="-3.1445190" lon="37.2965590">
    <ele>2336.2</ele>
    <time>2026-06-20T13:06:09Z</time>
   </trkpt>
   <trkpt lat="-3.1445210" lon="37.2965770">
    <ele>2336.3</ele>
    <time>2026-06-20T13:06:10Z</time>
   </trkpt>
   <trkpt lat="-3.1445230" lon="37.2965840">
    <ele>2336.4</ele>
    <time>2026-06-20T13:06:11Z</time>
   </trkpt>
   <trkpt lat="-3.1445260" lon="37.2965890">
    <ele>2336.4</ele>
    <time>2026-06-20T13:06:12Z</time>
   </trkpt>
   <trkpt lat="-3.1445300" lon="37.2965950">
    <ele>2336.4</ele>
    <time>2026-06-20T13:06:13Z</time>
   </trkpt>
   <trkpt lat="-3.1445370" lon="37.2965980">
    <ele>2336.5</ele>
    <time>2026-06-20T13:06:14Z</time>
   </trkpt>
   <trkpt lat="-3.1445390" lon="37.2966070">
    <ele>2336.5</ele>
    <time>2026-06-20T13:06:15Z</time>
   </trkpt>
   <trkpt lat="-3.1445410" lon="37.2966090">
    <ele>2336.5</ele>
    <time>2026-06-20T13:06:16Z</time>
   </trkpt>
   <trkpt lat="-3.1445420" lon="37.2966120">
    <ele>2336.6</ele>
    <time>2026-06-20T13:06:17Z</time>
   </trkpt>
   <trkpt lat="-3.1445490" lon="37.2966180">
    <ele>2336.6</ele>
    <time>2026-06-20T13:06:18Z</time>
   </trkpt>
   <trkpt lat="-3.1445530" lon="37.2966210">
    <ele>2336.7</ele>
    <time>2026-06-20T13:06:19Z</time>
   </trkpt>
   <trkpt lat="-3.1445580" lon="37.2966260">
    <ele>2336.7</ele>
    <time>2026-06-20T13:06:20Z</time>
   </trkpt>
   <trkpt lat="-3.1445630" lon="37.2966290">
    <ele>2336.7</ele>
    <time>2026-06-20T13:06:21Z</time>
   </trkpt>
   <trkpt lat="-3.1445710" lon="37.2966290">
    <ele>2336.8</ele>
    <time>2026-06-20T13:06:22Z</time>
   </trkpt>
   <trkpt lat="-3.1445780" lon="37.2966270">
    <ele>2336.8</ele>
    <time>2026-06-20T13:06:23Z</time>
   </trkpt>
   <trkpt lat="-3.1445880" lon="37.2966220">
    <ele>2336.9</ele>
    <time>2026-06-20T13:06:24Z</time>
   </trkpt>
   <trkpt lat="-3.1446000" lon="37.2966180">
    <ele>2337.0</ele>
    <time>2026-06-20T13:06:25Z</time>
   </trkpt>
   <trkpt lat="-3.1446100" lon="37.2966090">
    <ele>2337.1</ele>
    <time>2026-06-20T13:06:26Z</time>
   </trkpt>
   <trkpt lat="-3.1446200" lon="37.2966000">
    <ele>2337.2</ele>
    <time>2026-06-20T13:06:27Z</time>
   </trkpt>
   <trkpt lat="-3.1446290" lon="37.2965970">
    <ele>2337.3</ele>
    <time>2026-06-20T13:06:28Z</time>
   </trkpt>
   <trkpt lat="-3.1446320" lon="37.2965930">
    <ele>2337.3</ele>
    <time>2026-06-20T13:06:29Z</time>
   </trkpt>
   <trkpt lat="-3.1446390" lon="37.2965880">
    <ele>2337.4</ele>
    <time>2026-06-20T13:06:30Z</time>
   </trkpt>
   <trkpt lat="-3.1446490" lon="37.2965820">
    <ele>2337.5</ele>
    <time>2026-06-20T13:06:31Z</time>
   </trkpt>
   <trkpt lat="-3.1446580" lon="37.2965770">
    <ele>2337.6</ele>
    <time>2026-06-20T13:06:32Z</time>
   </trkpt>
   <trkpt lat="-3.1446680" lon="37.2965730">
    <ele>2337.7</ele>
    <time>2026-06-20T13:06:33Z</time>
   </trkpt>
   <trkpt lat="-3.1446710" lon="37.2965730">
    <ele>2337.7</ele>
    <time>2026-06-20T13:06:34Z</time>
   </trkpt>
   <trkpt lat="-3.1446780" lon="37.2965710">
    <ele>2337.8</ele>
    <time>2026-06-20T13:06:35Z</time>
   </trkpt>
   <trkpt lat="-3.1446820" lon="37.2965710">
    <ele>2337.8</ele>
    <time>2026-06-20T13:06:36Z</time>
   </trkpt>
   <trkpt lat="-3.1446900" lon="37.2965730">
    <ele>2337.9</ele>
    <time>2026-06-20T13:06:37Z</time>
   </trkpt>
   <trkpt lat="-3.1446950" lon="37.2965690">
    <ele>2338.0</ele>
    <time>2026-06-20T13:06:38Z</time>
   </trkpt>
   <trkpt lat="-3.1446900" lon="37.2965810">
    <ele>2338.1</ele>
    <time>2026-06-20T13:06:39Z</time>
   </trkpt>
   <trkpt lat="-3.1446930" lon="37.2965850">
    <ele>2338.2</ele>
    <time>2026-06-20T13:06:40Z</time>
   </trkpt>
   <trkpt lat="-3.1446980" lon="37.2965870">
    <ele>2338.2</ele>
    <time>2026-06-20T13:06:41Z</time>
   </trkpt>
   <trkpt lat="-3.1447000" lon="37.2965920">
    <ele>2338.3</ele>
    <time>2026-06-20T13:06:42Z</time>
   </trkpt>
   <trkpt lat="-3.1446990" lon="37.2966000">
    <ele>2338.4</ele>
    <time>2026-06-20T13:06:43Z</time>
   </trkpt>
   <trkpt lat="-3.1446960" lon="37.2966030">
    <ele>2338.4</ele>
    <time>2026-06-20T13:06:44Z</time>
   </trkpt>
   <trkpt lat="-3.1447030" lon="37.2966100">
    <ele>2338.5</ele>
    <time>2026-06-20T13:06:45Z</time>
   </trkpt>
   <trkpt lat="-3.1447080" lon="37.2966210">
    <ele>2338.6</ele>
    <time>2026-06-20T13:06:46Z</time>
   </trkpt>
   <trkpt lat="-3.1447090" lon="37.2966340">
    <ele>2338.8</ele>
    <time>2026-06-20T13:06:47Z</time>
   </trkpt>
   <trkpt lat="-3.1447150" lon="37.2966370">
    <ele>2338.9</ele>
    <time>2026-06-20T13:06:48Z</time>
   </trkpt>
   <trkpt lat="-3.1447190" lon="37.2966460">
    <ele>2339.0</ele>
    <time>2026-06-20T13:06:49Z</time>
   </trkpt>
   <trkpt lat="-3.1447270" lon="37.2966530">
    <ele>2339.1</ele>
    <time>2026-06-20T13:06:50Z</time>
   </trkpt>
   <trkpt lat="-3.1447370" lon="37.2966600">
    <ele>2339.2</ele>
    <time>2026-06-20T13:06:51Z</time>
   </trkpt>
   <trkpt lat="-3.1447320" lon="37.2966710">
    <ele>2339.3</ele>
    <time>2026-06-20T13:06:52Z</time>
   </trkpt>
   <trkpt lat="-3.1447350" lon="37.2966800">
    <ele>2339.5</ele>
    <time>2026-06-20T13:06:53Z</time>
   </trkpt>
   <trkpt lat="-3.1447410" lon="37.2966810">
    <ele>2339.5</ele>
    <time>2026-06-20T13:06:54Z</time>
   </trkpt>
   <trkpt lat="-3.1447480" lon="37.2966880">
    <ele>2339.6</ele>
    <time>2026-06-20T13:06:55Z</time>
   </trkpt>
   <trkpt lat="-3.1447420" lon="37.2966930">
    <ele>2339.7</ele>
    <time>2026-06-20T13:06:56Z</time>
   </trkpt>
   <trkpt lat="-3.1447410" lon="37.2966980">
    <ele>2339.8</ele>
    <time>2026-06-20T13:06:57Z</time>
   </trkpt>
   <trkpt lat="-3.1447370" lon="37.2967070">
    <ele>2339.9</ele>
    <time>2026-06-20T13:06:58Z</time>
   </trkpt>
   <trkpt lat="-3.1447330" lon="37.2967190">
    <ele>2340.1</ele>
    <time>2026-06-20T13:06:59Z</time>
   </trkpt>
   <trkpt lat="-3.1447310" lon="37.2967250">
    <ele>2340.1</ele>
    <time>2026-06-20T13:07:00Z</time>
   </trkpt>
   <trkpt lat="-3.1447290" lon="37.2967300">
    <ele>2340.2</ele>
    <time>2026-06-20T13:07:01Z</time>
   </trkpt>
   <trkpt lat="-3.1447220" lon="37.2967390">
    <ele>2340.3</ele>
    <time>2026-06-20T13:07:02Z</time>
   </trkpt>
   <trkpt lat="-3.1447180" lon="37.2967470">
    <ele>2340.5</ele>
    <time>2026-06-20T13:07:03Z</time>
   </trkpt>
   <trkpt lat="-3.1447140" lon="37.2967550">
    <ele>2340.6</ele>
    <time>2026-06-20T13:07:04Z</time>
   </trkpt>
   <trkpt lat="-3.1447140" lon="37.2967660">
    <ele>2340.7</ele>
    <time>2026-06-20T13:07:05Z</time>
   </trkpt>
   <trkpt lat="-3.1447140" lon="37.2967750">
    <ele>2340.8</ele>
    <time>2026-06-20T13:07:06Z</time>
   </trkpt>
   <trkpt lat="-3.1447080" lon="37.2967850">
    <ele>2341.0</ele>
    <time>2026-06-20T13:07:07Z</time>
   </trkpt>
   <trkpt lat="-3.1447030" lon="37.2967900">
    <ele>2341.1</ele>
    <time>2026-06-20T13:07:08Z</time>
   </trkpt>
   <trkpt lat="-3.1446970" lon="37.2967940">
    <ele>2341.1</ele>
    <time>2026-06-20T13:07:09Z</time>
   </trkpt>
   <trkpt lat="-3.1446950" lon="37.2968010">
    <ele>2341.2</ele>
    <time>2026-06-20T13:07:10Z</time>
   </trkpt>
   <trkpt lat="-3.1446950" lon="37.2968010">
    <ele>2341.2</ele>
    <time>2026-06-20T13:07:11Z</time>
   </trkpt>
   <trkpt lat="-3.1446890" lon="37.2968060">
    <ele>2341.3</ele>
    <time>2026-06-20T13:07:12Z</time>
   </trkpt>
   <trkpt lat="-3.1446800" lon="37.2968110">
    <ele>2341.5</ele>
    <time>2026-06-20T13:07:13Z</time>
   </trkpt>
   <trkpt lat="-3.1446740" lon="37.2968190">
    <ele>2341.6</ele>
    <time>2026-06-20T13:07:14Z</time>
   </trkpt>
   <trkpt lat="-3.1446720" lon="37.2968210">
    <ele>2341.6</ele>
    <time>2026-06-20T13:07:15Z</time>
   </trkpt>
   <trkpt lat="-3.1446680" lon="37.2968220">
    <ele>2341.7</ele>
    <time>2026-06-20T13:07:16Z</time>
   </trkpt>
   <trkpt lat="-3.1446630" lon="37.2968220">
    <ele>2341.7</ele>
    <time>2026-06-20T13:07:17Z</time>
   </trkpt>
   <trkpt lat="-3.1446610" lon="37.2968200">
    <ele>2341.8</ele>
    <time>2026-06-20T13:07:18Z</time>
   </trkpt>
   <trkpt lat="-3.1446580" lon="37.2968210">
    <ele>2341.8</ele>
    <time>2026-06-20T13:07:19Z</time>
   </trkpt>
   <trkpt lat="-3.1446430" lon="37.2968200">
    <ele>2342.0</ele>
    <time>2026-06-20T13:07:20Z</time>
   </trkpt>
   <trkpt lat="-3.1446350" lon="37.2968200">
    <ele>2342.1</ele>
    <time>2026-06-20T13:07:21Z</time>
   </trkpt>
   <trkpt lat="-3.1446410" lon="37.2968230">
    <ele>2342.2</ele>
    <time>2026-06-20T13:07:22Z</time>
   </trkpt>
   <trkpt lat="-3.1446360" lon="37.2968310">
    <ele>2342.4</ele>
    <time>2026-06-20T13:07:23Z</time>
   </trkpt>
   <trkpt lat="-3.1446320" lon="37.2968340">
    <ele>2342.4</ele>
    <time>2026-06-20T13:07:24Z</time>
   </trkpt>
   <trkpt lat="-3.1446270" lon="37.2968350">
    <ele>2342.5</ele>
    <time>2026-06-20T13:07:25Z</time>
   </trkpt>
   <trkpt lat="-3.1446240" lon="37.2968340">
    <ele>2342.6</ele>
    <time>2026-06-20T13:07:26Z</time>
   </trkpt>
   <trkpt lat="-3.1446200" lon="37.2968360">
    <ele>2342.6</ele>
    <time>2026-06-20T13:07:27Z</time>
   </trkpt>
   <trkpt lat="-3.1446190" lon="37.2968370">
    <ele>2342.6</ele>
    <time>2026-06-20T13:07:28Z</time>
   </trkpt>
   <trkpt lat="-3.1446170" lon="37.2968360">
    <ele>2342.7</ele>
    <time>2026-06-20T13:07:29Z</time>
   </trkpt>
   <trkpt lat="-3.1446090" lon="37.2968360">
    <ele>2342.8</ele>
    <time>2026-06-20T13:07:30Z</time>
   </trkpt>
   <trkpt lat="-3.1445920" lon="37.2968340">
    <ele>2343.0</ele>
    <time>2026-06-20T13:07:31Z</time>
   </trkpt>
   <trkpt lat="-3.1445870" lon="37.2968350">
    <ele>2343.1</ele>
    <time>2026-06-20T13:07:32Z</time>
   </trkpt>
   <trkpt lat="-3.1445820" lon="37.2968400">
    <ele>2343.2</ele>
    <time>2026-06-20T13:07:33Z</time>
   </trkpt>
   <trkpt lat="-3.1445840" lon="37.2968380">
    <ele>2343.2</ele>
    <time>2026-06-20T13:07:34Z</time>
   </trkpt>
   <trkpt lat="-3.1445780" lon="37.2968400">
    <ele>2343.3</ele>
    <time>2026-06-20T13:07:35Z</time>
   </trkpt>
   <trkpt lat="-3.1445670" lon="37.2968430">
    <ele>2343.5</ele>
    <time>2026-06-20T13:07:36Z</time>
   </trkpt>
   <trkpt lat="-3.1445610" lon="37.2968460">
    <ele>2343.6</ele>
    <time>2026-06-20T13:07:37Z</time>
   </trkpt>
   <trkpt lat="-3.1445550" lon="37.2968490">
    <ele>2343.6</ele>
    <time>2026-06-20T13:07:38Z</time>
   </trkpt>
   <trkpt lat="-3.1445490" lon="37.2968560">
    <ele>2343.8</ele>
    <time>2026-06-20T13:07:39Z</time>
   </trkpt>
   <trkpt lat="-3.1445440" lon="37.2968590">
    <ele>2343.9</ele>
    <time>2026-06-20T13:07:40Z</time>
   </trkpt>
   <trkpt lat="-3.1445380" lon="37.2968600">
    <ele>2343.9</ele>
    <time>2026-06-20T13:07:41Z</time>
   </trkpt>
   <trkpt lat="-3.1445370" lon="37.2968620">
    <ele>2344.0</ele>
    <time>2026-06-20T13:07:42Z</time>
   </trkpt>
   <trkpt lat="-3.1445300" lon="37.2968600">
    <ele>2344.1</ele>
    <time>2026-06-20T13:07:43Z</time>
   </trkpt>
   <trkpt lat="-3.1445230" lon="37.2968610">
    <ele>2344.2</ele>
    <time>2026-06-20T13:07:44Z</time>
   </trkpt>
   <trkpt lat="-3.1445160" lon="37.2968620">
    <ele>2344.3</ele>
    <time>2026-06-20T13:07:45Z</time>
   </trkpt>
   <trkpt lat="-3.1445110" lon="37.2968570">
    <ele>2344.4</ele>
    <time>2026-06-20T13:07:46Z</time>
   </trkpt>
   <trkpt lat="-3.1444990" lon="37.2968590">
    <ele>2344.5</ele>
    <time>2026-06-20T13:07:47Z</time>
   </trkpt>
   <trkpt lat="-3.1444880" lon="37.2968580">
    <ele>2344.7</ele>
    <time>2026-06-20T13:07:48Z</time>
   </trkpt>
   <trkpt lat="-3.1444760" lon="37.2968630">
    <ele>2344.9</ele>
    <time>2026-06-20T13:07:49Z</time>
   </trkpt>
   <trkpt lat="-3.1444650" lon="37.2968650">
    <ele>2345.0</ele>
    <time>2026-06-20T13:07:50Z</time>
   </trkpt>
   <trkpt lat="-3.1444600" lon="37.2968680">
    <ele>2345.1</ele>
    <time>2026-06-20T13:07:51Z</time>
   </trkpt>
   <trkpt lat="-3.1444460" lon="37.2968700">
    <ele>2345.3</ele>
    <time>2026-06-20T13:07:52Z</time>
   </trkpt>
   <trkpt lat="-3.1444360" lon="37.2968700">
    <ele>2345.4</ele>
    <time>2026-06-20T13:07:53Z</time>
   </trkpt>
   <trkpt lat="-3.1444280" lon="37.2968680">
    <ele>2345.5</ele>
    <time>2026-06-20T13:07:54Z</time>
   </trkpt>
   <trkpt lat="-3.1444170" lon="37.2968710">
    <ele>2345.7</ele>
    <time>2026-06-20T13:07:55Z</time>
   </trkpt>
   <trkpt lat="-3.1444130" lon="37.2968720">
    <ele>2345.7</ele>
    <time>2026-06-20T13:07:56Z</time>
   </trkpt>
   <trkpt lat="-3.1444060" lon="37.2968730">
    <ele>2345.8</ele>
    <time>2026-06-20T13:07:57Z</time>
   </trkpt>
   <trkpt lat="-3.1443980" lon="37.2968720">
    <ele>2345.9</ele>
    <time>2026-06-20T13:07:58Z</time>
   </trkpt>
   <trkpt lat="-3.1443930" lon="37.2968730">
    <ele>2346.0</ele>
    <time>2026-06-20T13:07:59Z</time>
   </trkpt>
   <trkpt lat="-3.1443890" lon="37.2968700">
    <ele>2346.0</ele>
    <time>2026-06-20T13:08:00Z</time>
   </trkpt>
   <trkpt lat="-3.1443800" lon="37.2968700">
    <ele>2346.2</ele>
    <time>2026-06-20T13:08:01Z</time>
   </trkpt>
   <trkpt lat="-3.1443790" lon="37.2968590">
    <ele>2346.3</ele>
    <time>2026-06-20T13:08:02Z</time>
   </trkpt>
   <trkpt lat="-3.1443710" lon="37.2968580">
    <ele>2346.4</ele>
    <time>2026-06-20T13:08:03Z</time>
   </trkpt>
   <trkpt lat="-3.1443650" lon="37.2968590">
    <ele>2346.5</ele>
    <time>2026-06-20T13:08:04Z</time>
   </trkpt>
   <trkpt lat="-3.1443610" lon="37.2968600">
    <ele>2346.5</ele>
    <time>2026-06-20T13:08:05Z</time>
   </trkpt>
   <trkpt lat="-3.1443540" lon="37.2968600">
    <ele>2346.6</ele>
    <time>2026-06-20T13:08:06Z</time>
   </trkpt>
   <trkpt lat="-3.1443540" lon="37.2968580">
    <ele>2346.7</ele>
    <time>2026-06-20T13:08:07Z</time>
   </trkpt>
   <trkpt lat="-3.1443500" lon="37.2968600">
    <ele>2346.7</ele>
    <time>2026-06-20T13:08:08Z</time>
   </trkpt>
   <trkpt lat="-3.1443460" lon="37.2968590">
    <ele>2346.8</ele>
    <time>2026-06-20T13:08:09Z</time>
   </trkpt>
   <trkpt lat="-3.1443410" lon="37.2968610">
    <ele>2346.8</ele>
    <time>2026-06-20T13:08:10Z</time>
   </trkpt>
   <trkpt lat="-3.1443290" lon="37.2968640">
    <ele>2347.0</ele>
    <time>2026-06-20T13:08:11Z</time>
   </trkpt>
   <trkpt lat="-3.1443180" lon="37.2968660">
    <ele>2347.1</ele>
    <time>2026-06-20T13:08:12Z</time>
   </trkpt>
   <trkpt lat="-3.1443150" lon="37.2968700">
    <ele>2347.2</ele>
    <time>2026-06-20T13:08:13Z</time>
   </trkpt>
   <trkpt lat="-3.1443110" lon="37.2968710">
    <ele>2347.2</ele>
    <time>2026-06-20T13:08:14Z</time>
   </trkpt>
   <trkpt lat="-3.1443040" lon="37.2968720">
    <ele>2347.3</ele>
    <time>2026-06-20T13:08:15Z</time>
   </trkpt>
   <trkpt lat="-3.1442990" lon="37.2968720">
    <ele>2347.4</ele>
    <time>2026-06-20T13:08:16Z</time>
   </trkpt>
   <trkpt lat="-3.1442950" lon="37.2968740">
    <ele>2347.4</ele>
    <time>2026-06-20T13:08:17Z</time>
   </trkpt>
   <trkpt lat="-3.1442840" lon="37.2968770">
    <ele>2347.6</ele>
    <time>2026-06-20T13:08:18Z</time>
   </trkpt>
   <trkpt lat="-3.1442800" lon="37.2968800">
    <ele>2347.6</ele>
    <time>2026-06-20T13:08:19Z</time>
   </trkpt>
   <trkpt lat="-3.1442760" lon="37.2968780">
    <ele>2347.7</ele>
    <time>2026-06-20T13:08:20Z</time>
   </trkpt>
   <trkpt lat="-3.1442670" lon="37.2968850">
    <ele>2347.8</ele>
    <time>2026-06-20T13:08:21Z</time>
   </trkpt>
   <trkpt lat="-3.1442620" lon="37.2968860">
    <ele>2347.9</ele>
    <time>2026-06-20T13:08:22Z</time>
   </trkpt>
   <trkpt lat="-3.1442540" lon="37.2968910">
    <ele>2348.0</ele>
    <time>2026-06-20T13:08:23Z</time>
   </trkpt>
   <trkpt lat="-3.1442520" lon="37.2968910">
    <ele>2348.0</ele>
    <time>2026-06-20T13:08:24Z</time>
   </trkpt>
   <trkpt lat="-3.1442510" lon="37.2968910">
    <ele>2348.0</ele>
    <time>2026-06-20T13:08:25Z</time>
   </trkpt>
   <trkpt lat="-3.1442420" lon="37.2968920">
    <ele>2348.1</ele>
    <time>2026-06-20T13:08:26Z</time>
   </trkpt>
   <trkpt lat="-3.1442340" lon="37.2968940">
    <ele>2348.2</ele>
    <time>2026-06-20T13:08:27Z</time>
   </trkpt>
   <trkpt lat="-3.1442260" lon="37.2968940">
    <ele>2348.3</ele>
    <time>2026-06-20T13:08:28Z</time>
   </trkpt>
   <trkpt lat="-3.1442200" lon="37.2968940">
    <ele>2348.4</ele>
    <time>2026-06-20T13:08:29Z</time>
   </trkpt>
   <trkpt lat="-3.1442150" lon="37.2968930">
    <ele>2348.4</ele>
    <time>2026-06-20T13:08:30Z</time>
   </trkpt>
   <trkpt lat="-3.1442100" lon="37.2968940">
    <ele>2348.5</ele>
    <time>2026-06-20T13:08:31Z</time>
   </trkpt>
   <trkpt lat="-3.1442030" lon="37.2968940">
    <ele>2348.6</ele>
    <time>2026-06-20T13:08:32Z</time>
   </trkpt>
   <trkpt lat="-3.1441980" lon="37.2968940">
    <ele>2348.6</ele>
    <time>2026-06-20T13:08:33Z</time>
   </trkpt>
   <trkpt lat="-3.1441910" lon="37.2968930">
    <ele>2348.7</ele>
    <time>2026-06-20T13:08:34Z</time>
   </trkpt>
   <trkpt lat="-3.1441840" lon="37.2968900">
    <ele>2348.8</ele>
    <time>2026-06-20T13:08:35Z</time>
   </trkpt>
   <trkpt lat="-3.1441750" lon="37.2968900">
    <ele>2348.9</ele>
    <time>2026-06-20T13:08:36Z</time>
   </trkpt>
   <trkpt lat="-3.1441720" lon="37.2968880">
    <ele>2349.0</ele>
    <time>2026-06-20T13:08:37Z</time>
   </trkpt>
   <trkpt lat="-3.1441650" lon="37.2968890">
    <ele>2349.0</ele>
    <time>2026-06-20T13:08:38Z</time>
   </trkpt>
   <trkpt lat="-3.1441580" lon="37.2968910">
    <ele>2349.1</ele>
    <time>2026-06-20T13:08:39Z</time>
   </trkpt>
   <trkpt lat="-3.1441510" lon="37.2968910">
    <ele>2349.2</ele>
    <time>2026-06-20T13:08:40Z</time>
   </trkpt>
   <trkpt lat="-3.1441480" lon="37.2968920">
    <ele>2349.2</ele>
    <time>2026-06-20T13:08:41Z</time>
   </trkpt>
   <trkpt lat="-3.1441410" lon="37.2968950">
    <ele>2349.3</ele>
    <time>2026-06-20T13:08:42Z</time>
   </trkpt>
   <trkpt lat="-3.1441350" lon="37.2968950">
    <ele>2349.4</ele>
    <time>2026-06-20T13:08:43Z</time>
   </trkpt>
   <trkpt lat="-3.1441280" lon="37.2969000">
    <ele>2349.5</ele>
    <time>2026-06-20T13:08:44Z</time>
   </trkpt>
   <trkpt lat="-3.1441270" lon="37.2969050">
    <ele>2349.5</ele>
    <time>2026-06-20T13:08:45Z</time>
   </trkpt>
   <trkpt lat="-3.1441260" lon="37.2969050">
    <ele>2349.5</ele>
    <time>2026-06-20T13:08:46Z</time>
   </trkpt>
   <trkpt lat="-3.1441220" lon="37.2969100">
    <ele>2349.6</ele>
    <time>2026-06-20T13:08:47Z</time>
   </trkpt>
   <trkpt lat="-3.1441160" lon="37.2969170">
    <ele>2349.7</ele>
    <time>2026-06-20T13:08:48Z</time>
   </trkpt>
   <trkpt lat="-3.1441120" lon="37.2969170">
    <ele>2349.8</ele>
    <time>2026-06-20T13:08:49Z</time>
   </trkpt>
   <trkpt lat="-3.1441040" lon="37.2969180">
    <ele>2349.9</ele>
    <time>2026-06-20T13:08:50Z</time>
   </trkpt>
   <trkpt lat="-3.1440980" lon="37.2969200">
    <ele>2349.9</ele>
    <time>2026-06-20T13:08:51Z</time>
   </trkpt>
   <trkpt lat="-3.1440920" lon="37.2969300">
    <ele>2350.1</ele>
    <time>2026-06-20T13:08:52Z</time>
   </trkpt>
   <trkpt lat="-3.1440820" lon="37.2969360">
    <ele>2350.2</ele>
    <time>2026-06-20T13:08:53Z</time>
   </trkpt>
   <trkpt lat="-3.1440700" lon="37.2969400">
    <ele>2350.3</ele>
    <time>2026-06-20T13:08:54Z</time>
   </trkpt>
   <trkpt lat="-3.1440660" lon="37.2969400">
    <ele>2350.4</ele>
    <time>2026-06-20T13:08:55Z</time>
   </trkpt>
   <trkpt lat="-3.1440600" lon="37.2969420">
    <ele>2350.4</ele>
    <time>2026-06-20T13:08:56Z</time>
   </trkpt>
   <trkpt lat="-3.1440600" lon="37.2969420">
    <ele>2350.4</ele>
    <time>2026-06-20T13:08:57Z</time>
   </trkpt>
   <trkpt lat="-3.1440520" lon="37.2969390">
    <ele>2350.5</ele>
    <time>2026-06-20T13:08:58Z</time>
   </trkpt>
   <trkpt lat="-3.1440450" lon="37.2969390">
    <ele>2350.6</ele>
    <time>2026-06-20T13:08:59Z</time>
   </trkpt>
   <trkpt lat="-3.1440430" lon="37.2969350">
    <ele>2350.7</ele>
    <time>2026-06-20T13:09:00Z</time>
   </trkpt>
   <trkpt lat="-3.1440370" lon="37.2969320">
    <ele>2350.7</ele>
    <time>2026-06-20T13:09:01Z</time>
   </trkpt>
   <trkpt lat="-3.1440330" lon="37.2969300">
    <ele>2350.8</ele>
    <time>2026-06-20T13:09:02Z</time>
   </trkpt>
   <trkpt lat="-3.1440280" lon="37.2969280">
    <ele>2350.8</ele>
    <time>2026-06-20T13:09:03Z</time>
   </trkpt>
   <trkpt lat="-3.1440230" lon="37.2969220">
    <ele>2350.9</ele>
    <time>2026-06-20T13:09:04Z</time>
   </trkpt>
   <trkpt lat="-3.1440210" lon="37.2969190">
    <ele>2351.0</ele>
    <time>2026-06-20T13:09:05Z</time>
   </trkpt>
   <trkpt lat="-3.1440120" lon="37.2969180">
    <ele>2351.1</ele>
    <time>2026-06-20T13:09:06Z</time>
   </trkpt>
   <trkpt lat="-3.1440060" lon="37.2969090">
    <ele>2351.2</ele>
    <time>2026-06-20T13:09:07Z</time>
   </trkpt>
   <trkpt lat="-3.1439930" lon="37.2969060">
    <ele>2351.3</ele>
    <time>2026-06-20T13:09:08Z</time>
   </trkpt>
   <trkpt lat="-3.1439900" lon="37.2969060">
    <ele>2351.3</ele>
    <time>2026-06-20T13:09:09Z</time>
   </trkpt>
   <trkpt lat="-3.1439820" lon="37.2969060">
    <ele>2351.4</ele>
    <time>2026-06-20T13:09:10Z</time>
   </trkpt>
   <trkpt lat="-3.1439770" lon="37.2969050">
    <ele>2351.5</ele>
    <time>2026-06-20T13:09:11Z</time>
   </trkpt>
   <trkpt lat="-3.1439700" lon="37.2969040">
    <ele>2351.5</ele>
    <time>2026-06-20T13:09:12Z</time>
   </trkpt>
   <trkpt lat="-3.1439580" lon="37.2969060">
    <ele>2351.7</ele>
    <time>2026-06-20T13:09:13Z</time>
   </trkpt>
   <trkpt lat="-3.1439500" lon="37.2969060">
    <ele>2351.8</ele>
    <time>2026-06-20T13:09:14Z</time>
   </trkpt>
   <trkpt lat="-3.1439450" lon="37.2969060">
    <ele>2351.8</ele>
    <time>2026-06-20T13:09:15Z</time>
   </trkpt>
   <trkpt lat="-3.1439390" lon="37.2969070">
    <ele>2351.9</ele>
    <time>2026-06-20T13:09:16Z</time>
   </trkpt>
   <trkpt lat="-3.1439300" lon="37.2969060">
    <ele>2352.0</ele>
    <time>2026-06-20T13:09:17Z</time>
   </trkpt>
   <trkpt lat="-3.1439200" lon="37.2969040">
    <ele>2352.1</ele>
    <time>2026-06-20T13:09:18Z</time>
   </trkpt>
   <trkpt lat="-3.1439120" lon="37.2969090">
    <ele>2352.2</ele>
    <time>2026-06-20T13:09:19Z</time>
   </trkpt>
   <trkpt lat="-3.1439100" lon="37.2969030">
    <ele>2352.2</ele>
    <time>2026-06-20T13:09:20Z</time>
   </trkpt>
   <trkpt lat="-3.1439030" lon="37.2969020">
    <ele>2352.3</ele>
    <time>2026-06-20T13:09:21Z</time>
   </trkpt>
   <trkpt lat="-3.1438940" lon="37.2968980">
    <ele>2352.4</ele>
    <time>2026-06-20T13:09:22Z</time>
   </trkpt>
   <trkpt lat="-3.1438880" lon="37.2968940">
    <ele>2352.4</ele>
    <time>2026-06-20T13:09:23Z</time>
   </trkpt>
   <trkpt lat="-3.1438790" lon="37.2968920">
    <ele>2352.5</ele>
    <time>2026-06-20T13:09:24Z</time>
   </trkpt>
   <trkpt lat="-3.1438660" lon="37.2968920">
    <ele>2352.6</ele>
    <time>2026-06-20T13:09:25Z</time>
   </trkpt>
   <trkpt lat="-3.1438580" lon="37.2968950">
    <ele>2352.7</ele>
    <time>2026-06-20T13:09:26Z</time>
   </trkpt>
   <trkpt lat="-3.1438480" lon="37.2969010">
    <ele>2352.8</ele>
    <time>2026-06-20T13:09:27Z</time>
   </trkpt>
   <trkpt lat="-3.1438390" lon="37.2969010">
    <ele>2352.9</ele>
    <time>2026-06-20T13:09:28Z</time>
   </trkpt>
   <trkpt lat="-3.1438210" lon="37.2969010">
    <ele>2353.0</ele>
    <time>2026-06-20T13:09:29Z</time>
   </trkpt>
   <trkpt lat="-3.1438110" lon="37.2969020">
    <ele>2353.1</ele>
    <time>2026-06-20T13:09:30Z</time>
   </trkpt>
   <trkpt lat="-3.1438070" lon="37.2969040">
    <ele>2353.2</ele>
    <time>2026-06-20T13:09:31Z</time>
   </trkpt>
   <trkpt lat="-3.1438000" lon="37.2969180">
    <ele>2353.3</ele>
    <time>2026-06-20T13:09:32Z</time>
   </trkpt>
   <trkpt lat="-3.1437920" lon="37.2969280">
    <ele>2353.4</ele>
    <time>2026-06-20T13:09:33Z</time>
   </trkpt>
   <trkpt lat="-3.1437940" lon="37.2969380">
    <ele>2353.5</ele>
    <time>2026-06-20T13:09:34Z</time>
   </trkpt>
   <trkpt lat="-3.1437830" lon="37.2969470">
    <ele>2353.6</ele>
    <time>2026-06-20T13:09:35Z</time>
   </trkpt>
   <trkpt lat="-3.1437710" lon="37.2969560">
    <ele>2353.7</ele>
    <time>2026-06-20T13:09:36Z</time>
   </trkpt>
   <trkpt lat="-3.1437660" lon="37.2969580">
    <ele>2353.7</ele>
    <time>2026-06-20T13:09:37Z</time>
   </trkpt>
   <trkpt lat="-3.1437650" lon="37.2969620">
    <ele>2353.8</ele>
    <time>2026-06-20T13:09:38Z</time>
   </trkpt>
   <trkpt lat="-3.1437510" lon="37.2969690">
    <ele>2353.9</ele>
    <time>2026-06-20T13:09:39Z</time>
   </trkpt>
   <trkpt lat="-3.1437510" lon="37.2969740">
    <ele>2353.9</ele>
    <time>2026-06-20T13:09:40Z</time>
   </trkpt>
   <trkpt lat="-3.1437530" lon="37.2969750">
    <ele>2353.9</ele>
    <time>2026-06-20T13:09:41Z</time>
   </trkpt>
   <trkpt lat="-3.1437520" lon="37.2969820">
    <ele>2354.0</ele>
    <time>2026-06-20T13:09:42Z</time>
   </trkpt>
   <trkpt lat="-3.1437490" lon="37.2969890">
    <ele>2354.0</ele>
    <time>2026-06-20T13:09:43Z</time>
   </trkpt>
   <trkpt lat="-3.1437470" lon="37.2969910">
    <ele>2354.1</ele>
    <time>2026-06-20T13:09:44Z</time>
   </trkpt>
   <trkpt lat="-3.1437480" lon="37.2969950">
    <ele>2354.1</ele>
    <time>2026-06-20T13:09:45Z</time>
   </trkpt>
   <trkpt lat="-3.1437520" lon="37.2970000">
    <ele>2354.1</ele>
    <time>2026-06-20T13:09:46Z</time>
   </trkpt>
   <trkpt lat="-3.1437450" lon="37.2970110">
    <ele>2354.2</ele>
    <time>2026-06-20T13:09:47Z</time>
   </trkpt>
   <trkpt lat="-3.1437460" lon="37.2970130">
    <ele>2354.3</ele>
    <time>2026-06-20T13:09:48Z</time>
   </trkpt>
   <trkpt lat="-3.1437480" lon="37.2970100">
    <ele>2354.3</ele>
    <time>2026-06-20T13:09:49Z</time>
   </trkpt>
   <trkpt lat="-3.1437520" lon="37.2970230">
    <ele>2354.4</ele>
    <time>2026-06-20T13:09:50Z</time>
   </trkpt>
   <trkpt lat="-3.1437650" lon="37.2970400">
    <ele>2354.5</ele>
    <time>2026-06-20T13:09:51Z</time>
   </trkpt>
   <trkpt lat="-3.1437610" lon="37.2970320">
    <ele>2354.6</ele>
    <time>2026-06-20T13:09:52Z</time>
   </trkpt>
   <trkpt lat="-3.1437660" lon="37.2970530">
    <ele>2354.8</ele>
    <time>2026-06-20T13:09:53Z</time>
   </trkpt>
   <trkpt lat="-3.1437650" lon="37.2970620">
    <ele>2354.9</ele>
    <time>2026-06-20T13:09:54Z</time>
   </trkpt>
   <trkpt lat="-3.1437630" lon="37.2970670">
    <ele>2354.9</ele>
    <time>2026-06-20T13:09:55Z</time>
   </trkpt>
   <trkpt lat="-3.1437630" lon="37.2970790">
    <ele>2355.0</ele>
    <time>2026-06-20T13:09:56Z</time>
   </trkpt>
   <trkpt lat="-3.1437630" lon="37.2970870">
    <ele>2355.1</ele>
    <time>2026-06-20T13:09:57Z</time>
   </trkpt>
   <trkpt lat="-3.1437680" lon="37.2970980">
    <ele>2355.2</ele>
    <time>2026-06-20T13:09:58Z</time>
   </trkpt>
   <trkpt lat="-3.1437690" lon="37.2971020">
    <ele>2355.2</ele>
    <time>2026-06-20T13:09:59Z</time>
   </trkpt>
   <trkpt lat="-3.1437650" lon="37.2971190">
    <ele>2355.4</ele>
    <time>2026-06-20T13:10:00Z</time>
   </trkpt>
   <trkpt lat="-3.1437630" lon="37.2971250">
    <ele>2355.4</ele>
    <time>2026-06-20T13:10:01Z</time>
   </trkpt>
   <trkpt lat="-3.1437630" lon="37.2971270">
    <ele>2355.5</ele>
    <time>2026-06-20T13:10:02Z</time>
   </trkpt>
   <trkpt lat="-3.1437670" lon="37.2971370">
    <ele>2355.6</ele>
    <time>2026-06-20T13:10:03Z</time>
   </trkpt>
   <trkpt lat="-3.1437690" lon="37.2971440">
    <ele>2355.6</ele>
    <time>2026-06-20T13:10:04Z</time>
   </trkpt>
   <trkpt lat="-3.1437690" lon="37.2971520">
    <ele>2355.7</ele>
    <time>2026-06-20T13:10:05Z</time>
   </trkpt>
   <trkpt lat="-3.1437680" lon="37.2971660">
    <ele>2355.8</ele>
    <time>2026-06-20T13:10:06Z</time>
   </trkpt>
   <trkpt lat="-3.1437660" lon="37.2971790">
    <ele>2356.0</ele>
    <time>2026-06-20T13:10:07Z</time>
   </trkpt>
   <trkpt lat="-3.1437630" lon="37.2971870">
    <ele>2356.1</ele>
    <time>2026-06-20T13:10:08Z</time>
   </trkpt>
   <trkpt lat="-3.1437630" lon="37.2972020">
    <ele>2356.2</ele>
    <time>2026-06-20T13:10:09Z</time>
   </trkpt>
   <trkpt lat="-3.1437640" lon="37.2972140">
    <ele>2356.3</ele>
    <time>2026-06-20T13:10:10Z</time>
   </trkpt>
   <trkpt lat="-3.1437610" lon="37.2972200">
    <ele>2356.4</ele>
    <time>2026-06-20T13:10:11Z</time>
   </trkpt>
   <trkpt lat="-3.1437590" lon="37.2972310">
    <ele>2356.5</ele>
    <time>2026-06-20T13:10:12Z</time>
   </trkpt>
   <trkpt lat="-3.1437590" lon="37.2972390">
    <ele>2356.6</ele>
    <time>2026-06-20T13:10:13Z</time>
   </trkpt>
   <trkpt lat="-3.1437550" lon="37.2972410">
    <ele>2356.7</ele>
    <time>2026-06-20T13:10:14Z</time>
   </trkpt>
   <trkpt lat="-3.1437550" lon="37.2972420">
    <ele>2356.7</ele>
    <time>2026-06-20T13:10:15Z</time>
   </trkpt>
   <trkpt lat="-3.1437550" lon="37.2972570">
    <ele>2356.9</ele>
    <time>2026-06-20T13:10:16Z</time>
   </trkpt>
   <trkpt lat="-3.1437530" lon="37.2972600">
    <ele>2356.9</ele>
    <time>2026-06-20T13:10:17Z</time>
   </trkpt>
   <trkpt lat="-3.1437500" lon="37.2972650">
    <ele>2357.0</ele>
    <time>2026-06-20T13:10:18Z</time>
   </trkpt>
   <trkpt lat="-3.1437450" lon="37.2972740">
    <ele>2357.1</ele>
    <time>2026-06-20T13:10:19Z</time>
   </trkpt>
   <trkpt lat="-3.1437460" lon="37.2972780">
    <ele>2357.1</ele>
    <time>2026-06-20T13:10:20Z</time>
   </trkpt>
   <trkpt lat="-3.1437480" lon="37.2972870">
    <ele>2357.3</ele>
    <time>2026-06-20T13:10:21Z</time>
   </trkpt>
   <trkpt lat="-3.1437470" lon="37.2972950">
    <ele>2357.4</ele>
    <time>2026-06-20T13:10:22Z</time>
   </trkpt>
   <trkpt lat="-3.1437460" lon="37.2973000">
    <ele>2357.4</ele>
    <time>2026-06-20T13:10:23Z</time>
   </trkpt>
   <trkpt lat="-3.1437440" lon="37.2973020">
    <ele>2357.5</ele>
    <time>2026-06-20T13:10:24Z</time>
   </trkpt>
   <trkpt lat="-3.1437410" lon="37.2973110">
    <ele>2357.6</ele>
    <time>2026-06-20T13:10:25Z</time>
   </trkpt>
   <trkpt lat="-3.1437380" lon="37.2973160">
    <ele>2357.6</ele>
    <time>2026-06-20T13:10:26Z</time>
   </trkpt>
   <trkpt lat="-3.1437380" lon="37.2973140">
    <ele>2357.7</ele>
    <time>2026-06-20T13:10:27Z</time>
   </trkpt>
   <trkpt lat="-3.1437370" lon="37.2973200">
    <ele>2357.7</ele>
    <time>2026-06-20T13:10:28Z</time>
   </trkpt>
   <trkpt lat="-3.1437380" lon="37.2973270">
    <ele>2357.8</ele>
    <time>2026-06-20T13:10:29Z</time>
   </trkpt>
   <trkpt lat="-3.1437430" lon="37.2973310">
    <ele>2357.9</ele>
    <time>2026-06-20T13:10:30Z</time>
   </trkpt>
   <trkpt lat="-3.1437420" lon="37.2973390">
    <ele>2358.0</ele>
    <time>2026-06-20T13:10:31Z</time>
   </trkpt>
   <trkpt lat="-3.1437380" lon="37.2973410">
    <ele>2358.1</ele>
    <time>2026-06-20T13:10:32Z</time>
   </trkpt>
   <trkpt lat="-3.1437390" lon="37.2973470">
    <ele>2358.1</ele>
    <time>2026-06-20T13:10:33Z</time>
   </trkpt>
   <trkpt lat="-3.1437390" lon="37.2973500">
    <ele>2358.2</ele>
    <time>2026-06-20T13:10:34Z</time>
   </trkpt>
   <trkpt lat="-3.1437400" lon="37.2973600">
    <ele>2358.3</ele>
    <time>2026-06-20T13:10:35Z</time>
   </trkpt>
   <trkpt lat="-3.1437410" lon="37.2973630">
    <ele>2358.4</ele>
    <time>2026-06-20T13:10:36Z</time>
   </trkpt>
   <trkpt lat="-3.1437450" lon="37.2973700">
    <ele>2358.5</ele>
    <time>2026-06-20T13:10:37Z</time>
   </trkpt>
   <trkpt lat="-3.1437480" lon="37.2973770">
    <ele>2358.6</ele>
    <time>2026-06-20T13:10:38Z</time>
   </trkpt>
   <trkpt lat="-3.1437550" lon="37.2973870">
    <ele>2358.7</ele>
    <time>2026-06-20T13:10:39Z</time>
   </trkpt>
   <trkpt lat="-3.1437650" lon="37.2974000">
    <ele>2358.9</ele>
    <time>2026-06-20T13:10:40Z</time>
   </trkpt>
   <trkpt lat="-3.1437710" lon="37.2974080">
    <ele>2359.1</ele>
    <time>2026-06-20T13:10:41Z</time>
   </trkpt>
   <trkpt lat="-3.1437730" lon="37.2974170">
    <ele>2359.2</ele>
    <time>2026-06-20T13:10:42Z</time>
   </trkpt>
   <trkpt lat="-3.1437740" lon="37.2974210">
    <ele>2359.2</ele>
    <time>2026-06-20T13:10:43Z</time>
   </trkpt>
   <trkpt lat="-3.1437720" lon="37.2974300">
    <ele>2359.4</ele>
    <time>2026-06-20T13:10:44Z</time>
   </trkpt>
   <trkpt lat="-3.1437770" lon="37.2974370">
    <ele>2359.5</ele>
    <time>2026-06-20T13:10:45Z</time>
   </trkpt>
   <trkpt lat="-3.1437770" lon="37.2974480">
    <ele>2359.6</ele>
    <time>2026-06-20T13:10:46Z</time>
   </trkpt>
   <trkpt lat="-3.1437740" lon="37.2974510">
    <ele>2359.7</ele>
    <time>2026-06-20T13:10:47Z</time>
   </trkpt>
   <trkpt lat="-3.1437760" lon="37.2974530">
    <ele>2359.7</ele>
    <time>2026-06-20T13:10:48Z</time>
   </trkpt>
   <trkpt lat="-3.1437740" lon="37.2974600">
    <ele>2359.8</ele>
    <time>2026-06-20T13:10:49Z</time>
   </trkpt>
   <trkpt lat="-3.1437720" lon="37.2974690">
    <ele>2359.9</ele>
    <time>2026-06-20T13:10:50Z</time>
   </trkpt>
   <trkpt lat="-3.1437670" lon="37.2974790">
    <ele>2360.1</ele>
    <time>2026-06-20T13:10:51Z</time>
   </trkpt>
   <trkpt lat="-3.1437620" lon="37.2974770">
    <ele>2360.1</ele>
    <time>2026-06-20T13:10:52Z</time>
   </trkpt>
   <trkpt lat="-3.1437590" lon="37.2974820">
    <ele>2360.2</ele>
    <time>2026-06-20T13:10:53Z</time>
   </trkpt>
   <trkpt lat="-3.1437580" lon="37.2974870">
    <ele>2360.3</ele>
    <time>2026-06-20T13:10:54Z</time>
   </trkpt>
   <trkpt lat="-3.1437550" lon="37.2974970">
    <ele>2360.4</ele>
    <time>2026-06-20T13:10:55Z</time>
   </trkpt>
   <trkpt lat="-3.1437550" lon="37.2975110">
    <ele>2360.6</ele>
    <time>2026-06-20T13:10:56Z</time>
   </trkpt>
   <trkpt lat="-3.1437530" lon="37.2975140">
    <ele>2360.6</ele>
    <time>2026-06-20T13:10:57Z</time>
   </trkpt>
   <trkpt lat="-3.1437510" lon="37.2975170">
    <ele>2360.6</ele>
    <time>2026-06-20T13:10:58Z</time>
   </trkpt>
   <trkpt lat="-3.1437490" lon="37.2975240">
    <ele>2360.7</ele>
    <time>2026-06-20T13:10:59Z</time>
   </trkpt>
   <trkpt lat="-3.1437500" lon="37.2975380">
    <ele>2360.9</ele>
    <time>2026-06-20T13:11:00Z</time>
   </trkpt>
   <trkpt lat="-3.1437480" lon="37.2975460">
    <ele>2361.0</ele>
    <time>2026-06-20T13:11:01Z</time>
   </trkpt>
   <trkpt lat="-3.1437480" lon="37.2975550">
    <ele>2361.1</ele>
    <time>2026-06-20T13:11:02Z</time>
   </trkpt>
   <trkpt lat="-3.1437430" lon="37.2975550">
    <ele>2361.1</ele>
    <time>2026-06-20T13:11:03Z</time>
   </trkpt>
   <trkpt lat="-3.1437430" lon="37.2975560">
    <ele>2361.1</ele>
    <time>2026-06-20T13:11:04Z</time>
   </trkpt>
   <trkpt lat="-3.1437410" lon="37.2975670">
    <ele>2361.3</ele>
    <time>2026-06-20T13:11:05Z</time>
   </trkpt>
   <trkpt lat="-3.1437330" lon="37.2975840">
    <ele>2361.5</ele>
    <time>2026-06-20T13:11:06Z</time>
   </trkpt>
   <trkpt lat="-3.1437300" lon="37.2975950">
    <ele>2361.6</ele>
    <time>2026-06-20T13:11:07Z</time>
   </trkpt>
   <trkpt lat="-3.1437270" lon="37.2976010">
    <ele>2361.7</ele>
    <time>2026-06-20T13:11:08Z</time>
   </trkpt>
   <trkpt lat="-3.1437330" lon="37.2976070">
    <ele>2361.7</ele>
    <time>2026-06-20T13:11:09Z</time>
   </trkpt>
   <trkpt lat="-3.1437350" lon="37.2976180">
    <ele>2361.8</ele>
    <time>2026-06-20T13:11:10Z</time>
   </trkpt>
   <trkpt lat="-3.1437430" lon="37.2976250">
    <ele>2361.9</ele>
    <time>2026-06-20T13:11:11Z</time>
   </trkpt>
   <trkpt lat="-3.1437500" lon="37.2976270">
    <ele>2362.0</ele>
    <time>2026-06-20T13:11:12Z</time>
   </trkpt>
   <trkpt lat="-3.1437510" lon="37.2976340">
    <ele>2362.1</ele>
    <time>2026-06-20T13:11:13Z</time>
   </trkpt>
   <trkpt lat="-3.1437520" lon="37.2976510">
    <ele>2362.3</ele>
    <time>2026-06-20T13:11:14Z</time>
   </trkpt>
   <trkpt lat="-3.1437680" lon="37.2976550">
    <ele>2362.4</ele>
    <time>2026-06-20T13:11:15Z</time>
   </trkpt>
   <trkpt lat="-3.1437770" lon="37.2976570">
    <ele>2362.5</ele>
    <time>2026-06-20T13:11:16Z</time>
   </trkpt>
   <trkpt lat="-3.1437830" lon="37.2976590">
    <ele>2362.5</ele>
    <time>2026-06-20T13:11:17Z</time>
   </trkpt>
   <trkpt lat="-3.1437890" lon="37.2976640">
    <ele>2362.6</ele>
    <time>2026-06-20T13:11:18Z</time>
   </trkpt>
   <trkpt lat="-3.1437940" lon="37.2976730">
    <ele>2362.7</ele>
    <time>2026-06-20T13:11:19Z</time>
   </trkpt>
   <trkpt lat="-3.1438030" lon="37.2976900">
    <ele>2362.9</ele>
    <time>2026-06-20T13:11:20Z</time>
   </trkpt>
   <trkpt lat="-3.1438040" lon="37.2976990">
    <ele>2362.9</ele>
    <time>2026-06-20T13:11:21Z</time>
   </trkpt>
   <trkpt lat="-3.1437990" lon="37.2977160">
    <ele>2363.1</ele>
    <time>2026-06-20T13:11:22Z</time>
   </trkpt>
   <trkpt lat="-3.1438040" lon="37.2977130">
    <ele>2363.1</ele>
    <time>2026-06-20T13:11:23Z</time>
   </trkpt>
   <trkpt lat="-3.1438060" lon="37.2977180">
    <ele>2363.2</ele>
    <time>2026-06-20T13:11:24Z</time>
   </trkpt>
   <trkpt lat="-3.1438050" lon="37.2977220">
    <ele>2363.2</ele>
    <time>2026-06-20T13:11:25Z</time>
   </trkpt>
   <trkpt lat="-3.1438070" lon="37.2977260">
    <ele>2363.2</ele>
    <time>2026-06-20T13:11:26Z</time>
   </trkpt>
   <trkpt lat="-3.1438100" lon="37.2977280">
    <ele>2363.3</ele>
    <time>2026-06-20T13:11:27Z</time>
   </trkpt>
   <trkpt lat="-3.1438100" lon="37.2977370">
    <ele>2363.3</ele>
    <time>2026-06-20T13:11:28Z</time>
   </trkpt>
   <trkpt lat="-3.1438090" lon="37.2977410">
    <ele>2363.4</ele>
    <time>2026-06-20T13:11:29Z</time>
   </trkpt>
   <trkpt lat="-3.1438110" lon="37.2977450">
    <ele>2363.4</ele>
    <time>2026-06-20T13:11:30Z</time>
   </trkpt>
   <trkpt lat="-3.1438110" lon="37.2977550">
    <ele>2363.5</ele>
    <time>2026-06-20T13:11:31Z</time>
   </trkpt>
   <trkpt lat="-3.1438120" lon="37.2977680">
    <ele>2363.6</ele>
    <time>2026-06-20T13:11:32Z</time>
   </trkpt>
   <trkpt lat="-3.1438150" lon="37.2977770">
    <ele>2363.6</ele>
    <time>2026-06-20T13:11:33Z</time>
   </trkpt>
   <trkpt lat="-3.1438200" lon="37.2977840">
    <ele>2363.7</ele>
    <time>2026-06-20T13:11:34Z</time>
   </trkpt>
   <trkpt lat="-3.1438210" lon="37.2977900">
    <ele>2363.8</ele>
    <time>2026-06-20T13:11:35Z</time>
   </trkpt>
   <trkpt lat="-3.1438220" lon="37.2977980">
    <ele>2363.8</ele>
    <time>2026-06-20T13:11:36Z</time>
   </trkpt>
   <trkpt lat="-3.1438180" lon="37.2978060">
    <ele>2363.9</ele>
    <time>2026-06-20T13:11:37Z</time>
   </trkpt>
   <trkpt lat="-3.1438150" lon="37.2978090">
    <ele>2363.9</ele>
    <time>2026-06-20T13:11:38Z</time>
   </trkpt>
   <trkpt lat="-3.1438090" lon="37.2978230">
    <ele>2364.0</ele>
    <time>2026-06-20T13:11:39Z</time>
   </trkpt>
   <trkpt lat="-3.1438050" lon="37.2978190">
    <ele>2364.1</ele>
    <time>2026-06-20T13:11:40Z</time>
   </trkpt>
   <trkpt lat="-3.1438120" lon="37.2978160">
    <ele>2364.1</ele>
    <time>2026-06-20T13:11:41Z</time>
   </trkpt>
   <trkpt lat="-3.1438130" lon="37.2978140">
    <ele>2364.1</ele>
    <time>2026-06-20T13:11:42Z</time>
   </trkpt>
   <trkpt lat="-3.1438170" lon="37.2978240">
    <ele>2364.2</ele>
    <time>2026-06-20T13:11:43Z</time>
   </trkpt>
   <trkpt lat="-3.1438140" lon="37.2978270">
    <ele>2364.3</ele>
    <time>2026-06-20T13:11:44Z</time>
   </trkpt>
   <trkpt lat="-3.1438120" lon="37.2978300">
    <ele>2364.3</ele>
    <time>2026-06-20T13:11:45Z</time>
   </trkpt>
   <trkpt lat="-3.1438080" lon="37.2978340">
    <ele>2364.3</ele>
    <time>2026-06-20T13:11:46Z</time>
   </trkpt>
   <trkpt lat="-3.1438070" lon="37.2978370">
    <ele>2364.4</ele>
    <time>2026-06-20T13:11:47Z</time>
   </trkpt>
   <trkpt lat="-3.1438090" lon="37.2978340">
    <ele>2364.4</ele>
    <time>2026-06-20T13:11:48Z</time>
   </trkpt>
   <trkpt lat="-3.1438060" lon="37.2978390">
    <ele>2364.4</ele>
    <time>2026-06-20T13:11:49Z</time>
   </trkpt>
   <trkpt lat="-3.1438040" lon="37.2978410">
    <ele>2364.5</ele>
    <time>2026-06-20T13:11:50Z</time>
   </trkpt>
   <trkpt lat="-3.1438020" lon="37.2978380">
    <ele>2364.5</ele>
    <time>2026-06-20T13:11:51Z</time>
   </trkpt>
   <trkpt lat="-3.1437980" lon="37.2978440">
    <ele>2364.5</ele>
    <time>2026-06-20T13:11:52Z</time>
   </trkpt>
   <trkpt lat="-3.1437940" lon="37.2978510">
    <ele>2364.6</ele>
    <time>2026-06-20T13:11:53Z</time>
   </trkpt>
   <trkpt lat="-3.1437980" lon="37.2978510">
    <ele>2364.6</ele>
    <time>2026-06-20T13:11:54Z</time>
   </trkpt>
   <trkpt lat="-3.1437990" lon="37.2978560">
    <ele>2364.7</ele>
    <time>2026-06-20T13:11:55Z</time>
   </trkpt>
   <trkpt lat="-3.1437990" lon="37.2978610">
    <ele>2364.7</ele>
    <time>2026-06-20T13:11:56Z</time>
   </trkpt>
   <trkpt lat="-3.1438040" lon="37.2978690">
    <ele>2364.8</ele>
    <time>2026-06-20T13:11:57Z</time>
   </trkpt>
   <trkpt lat="-3.1438050" lon="37.2978820">
    <ele>2364.9</ele>
    <time>2026-06-20T13:11:58Z</time>
   </trkpt>
   <trkpt lat="-3.1438010" lon="37.2978950">
    <ele>2365.0</ele>
    <time>2026-06-20T13:11:59Z</time>
   </trkpt>
   <trkpt lat="-3.1438000" lon="37.2979010">
    <ele>2365.1</ele>
    <time>2026-06-20T13:12:00Z</time>
   </trkpt>
   <trkpt lat="-3.1437960" lon="37.2979100">
    <ele>2365.2</ele>
    <time>2026-06-20T13:12:01Z</time>
   </trkpt>
   <trkpt lat="-3.1437940" lon="37.2979180">
    <ele>2365.3</ele>
    <time>2026-06-20T13:12:02Z</time>
   </trkpt>
   <trkpt lat="-3.1437830" lon="37.2979310">
    <ele>2365.4</ele>
    <time>2026-06-20T13:12:03Z</time>
   </trkpt>
   <trkpt lat="-3.1437750" lon="37.2979470">
    <ele>2365.6</ele>
    <time>2026-06-20T13:12:04Z</time>
   </trkpt>
   <trkpt lat="-3.1437760" lon="37.2979530">
    <ele>2365.7</ele>
    <time>2026-06-20T13:12:05Z</time>
   </trkpt>
   <trkpt lat="-3.1437760" lon="37.2979580">
    <ele>2365.7</ele>
    <time>2026-06-20T13:12:06Z</time>
   </trkpt>
   <trkpt lat="-3.1437760" lon="37.2979680">
    <ele>2365.8</ele>
    <time>2026-06-20T13:12:07Z</time>
   </trkpt>
   <trkpt lat="-3.1437740" lon="37.2979790">
    <ele>2366.0</ele>
    <time>2026-06-20T13:12:08Z</time>
   </trkpt>
   <trkpt lat="-3.1437710" lon="37.2979850">
    <ele>2366.0</ele>
    <time>2026-06-20T13:12:09Z</time>
   </trkpt>
   <trkpt lat="-3.1437770" lon="37.2979900">
    <ele>2366.1</ele>
    <time>2026-06-20T13:12:10Z</time>
   </trkpt>
   <trkpt lat="-3.1437790" lon="37.2980020">
    <ele>2366.3</ele>
    <time>2026-06-20T13:12:11Z</time>
   </trkpt>
   <trkpt lat="-3.1437800" lon="37.2980070">
    <ele>2366.3</ele>
    <time>2026-06-20T13:12:12Z</time>
   </trkpt>
   <trkpt lat="-3.1437800" lon="37.2980050">
    <ele>2366.4</ele>
    <time>2026-06-20T13:12:13Z</time>
   </trkpt>
   <trkpt lat="-3.1437760" lon="37.2980090">
    <ele>2366.4</ele>
    <time>2026-06-20T13:12:14Z</time>
   </trkpt>
   <trkpt lat="-3.1437730" lon="37.2980130">
    <ele>2366.5</ele>
    <time>2026-06-20T13:12:15Z</time>
   </trkpt>
   <trkpt lat="-3.1437710" lon="37.2980120">
    <ele>2366.5</ele>
    <time>2026-06-20T13:12:16Z</time>
   </trkpt>
   <trkpt lat="-3.1437640" lon="37.2980240">
    <ele>2366.7</ele>
    <time>2026-06-20T13:12:17Z</time>
   </trkpt>
   <trkpt lat="-3.1437590" lon="37.2980280">
    <ele>2366.8</ele>
    <time>2026-06-20T13:12:18Z</time>
   </trkpt>
   <trkpt lat="-3.1437510" lon="37.2980330">
    <ele>2366.9</ele>
    <time>2026-06-20T13:12:19Z</time>
   </trkpt>
   <trkpt lat="-3.1437410" lon="37.2980380">
    <ele>2367.1</ele>
    <time>2026-06-20T13:12:20Z</time>
   </trkpt>
   <trkpt lat="-3.1437360" lon="37.2980400">
    <ele>2367.1</ele>
    <time>2026-06-20T13:12:21Z</time>
   </trkpt>
   <trkpt lat="-3.1437320" lon="37.2980440">
    <ele>2367.2</ele>
    <time>2026-06-20T13:12:22Z</time>
   </trkpt>
   <trkpt lat="-3.1437250" lon="37.2980440">
    <ele>2367.3</ele>
    <time>2026-06-20T13:12:23Z</time>
   </trkpt>
   <trkpt lat="-3.1437180" lon="37.2980470">
    <ele>2367.4</ele>
    <time>2026-06-20T13:12:24Z</time>
   </trkpt>
   <trkpt lat="-3.1437080" lon="37.2980530">
    <ele>2367.6</ele>
    <time>2026-06-20T13:12:25Z</time>
   </trkpt>
   <trkpt lat="-3.1437010" lon="37.2980460">
    <ele>2367.8</ele>
    <time>2026-06-20T13:12:26Z</time>
   </trkpt>
   <trkpt lat="-3.1436950" lon="37.2980460">
    <ele>2367.8</ele>
    <time>2026-06-20T13:12:27Z</time>
   </trkpt>
   <trkpt lat="-3.1436900" lon="37.2980460">
    <ele>2367.9</ele>
    <time>2026-06-20T13:12:28Z</time>
   </trkpt>
   <trkpt lat="-3.1436790" lon="37.2980440">
    <ele>2368.1</ele>
    <time>2026-06-20T13:12:29Z</time>
   </trkpt>
   <trkpt lat="-3.1436730" lon="37.2980450">
    <ele>2368.2</ele>
    <time>2026-06-20T13:12:30Z</time>
   </trkpt>
   <trkpt lat="-3.1436650" lon="37.2980410">
    <ele>2368.4</ele>
    <time>2026-06-20T13:12:31Z</time>
   </trkpt>
   <trkpt lat="-3.1436630" lon="37.2980410">
    <ele>2368.4</ele>
    <time>2026-06-20T13:12:32Z</time>
   </trkpt>
   <trkpt lat="-3.1436610" lon="37.2980470">
    <ele>2368.5</ele>
    <time>2026-06-20T13:12:33Z</time>
   </trkpt>
   <trkpt lat="-3.1436570" lon="37.2980470">
    <ele>2368.6</ele>
    <time>2026-06-20T13:12:34Z</time>
   </trkpt>
   <trkpt lat="-3.1436520" lon="37.2980500">
    <ele>2368.6</ele>
    <time>2026-06-20T13:12:35Z</time>
   </trkpt>
   <trkpt lat="-3.1436480" lon="37.2980510">
    <ele>2368.7</ele>
    <time>2026-06-20T13:12:36Z</time>
   </trkpt>
   <trkpt lat="-3.1436390" lon="37.2980540">
    <ele>2368.9</ele>
    <time>2026-06-20T13:12:37Z</time>
   </trkpt>
   <trkpt lat="-3.1436360" lon="37.2980560">
    <ele>2368.9</ele>
    <time>2026-06-20T13:12:38Z</time>
   </trkpt>
   <trkpt lat="-3.1436320" lon="37.2980600">
    <ele>2369.0</ele>
    <time>2026-06-20T13:12:39Z</time>
   </trkpt>
   <trkpt lat="-3.1436280" lon="37.2980640">
    <ele>2369.1</ele>
    <time>2026-06-20T13:12:40Z</time>
   </trkpt>
   <trkpt lat="-3.1436250" lon="37.2980650">
    <ele>2369.2</ele>
    <time>2026-06-20T13:12:41Z</time>
   </trkpt>
   <trkpt lat="-3.1436210" lon="37.2980680">
    <ele>2369.2</ele>
    <time>2026-06-20T13:12:42Z</time>
   </trkpt>
   <trkpt lat="-3.1436240" lon="37.2980690">
    <ele>2369.3</ele>
    <time>2026-06-20T13:12:43Z</time>
   </trkpt>
   <trkpt lat="-3.1436110" lon="37.2980760">
    <ele>2369.5</ele>
    <time>2026-06-20T13:12:44Z</time>
   </trkpt>
   <trkpt lat="-3.1436120" lon="37.2980810">
    <ele>2369.6</ele>
    <time>2026-06-20T13:12:45Z</time>
   </trkpt>
   <trkpt lat="-3.1436150" lon="37.2980870">
    <ele>2369.7</ele>
    <time>2026-06-20T13:12:46Z</time>
   </trkpt>
   <trkpt lat="-3.1436170" lon="37.2980880">
    <ele>2369.8</ele>
    <time>2026-06-20T13:12:47Z</time>
   </trkpt>
   <trkpt lat="-3.1436170" lon="37.2980990">
    <ele>2370.0</ele>
    <time>2026-06-20T13:12:48Z</time>
   </trkpt>
   <trkpt lat="-3.1436150" lon="37.2981030">
    <ele>2370.0</ele>
    <time>2026-06-20T13:12:49Z</time>
   </trkpt>
   <trkpt lat="-3.1436260" lon="37.2981050">
    <ele>2370.2</ele>
    <time>2026-06-20T13:12:50Z</time>
   </trkpt>
   <trkpt lat="-3.1436270" lon="37.2981070">
    <ele>2370.3</ele>
    <time>2026-06-20T13:12:51Z</time>
   </trkpt>
   <trkpt lat="-3.1436290" lon="37.2981140">
    <ele>2370.4</ele>
    <time>2026-06-20T13:12:52Z</time>
   </trkpt>
   <trkpt lat="-3.1436220" lon="37.2981210">
    <ele>2370.6</ele>
    <time>2026-06-20T13:12:53Z</time>
   </trkpt>
   <trkpt lat="-3.1436230" lon="37.2981250">
    <ele>2370.6</ele>
    <time>2026-06-20T13:12:54Z</time>
   </trkpt>
   <trkpt lat="-3.1436210" lon="37.2981230">
    <ele>2370.7</ele>
    <time>2026-06-20T13:12:55Z</time>
   </trkpt>
   <trkpt lat="-3.1436270" lon="37.2981250">
    <ele>2370.8</ele>
    <time>2026-06-20T13:12:56Z</time>
   </trkpt>
   <trkpt lat="-3.1436250" lon="37.2981280">
    <ele>2370.9</ele>
    <time>2026-06-20T13:12:57Z</time>
   </trkpt>
   <trkpt lat="-3.1436240" lon="37.2981330">
    <ele>2370.9</ele>
    <time>2026-06-20T13:12:58Z</time>
   </trkpt>
   <trkpt lat="-3.1436230" lon="37.2981360">
    <ele>2371.0</ele>
    <time>2026-06-20T13:12:59Z</time>
   </trkpt>
   <trkpt lat="-3.1436180" lon="37.2981450">
    <ele>2371.2</ele>
    <time>2026-06-20T13:13:00Z</time>
   </trkpt>
   <trkpt lat="-3.1436120" lon="37.2981560">
    <ele>2371.4</ele>
    <time>2026-06-20T13:13:01Z</time>
   </trkpt>
   <trkpt lat="-3.1436070" lon="37.2981600">
    <ele>2371.5</ele>
    <time>2026-06-20T13:13:02Z</time>
   </trkpt>
   <trkpt lat="-3.1435970" lon="37.2981640">
    <ele>2371.7</ele>
    <time>2026-06-20T13:13:03Z</time>
   </trkpt>
   <trkpt lat="-3.1435880" lon="37.2981640">
    <ele>2371.8</ele>
    <time>2026-06-20T13:13:04Z</time>
   </trkpt>
   <trkpt lat="-3.1435810" lon="37.2981630">
    <ele>2372.0</ele>
    <time>2026-06-20T13:13:05Z</time>
   </trkpt>
   <trkpt lat="-3.1435780" lon="37.2981610">
    <ele>2372.0</ele>
    <time>2026-06-20T13:13:06Z</time>
   </trkpt>
   <trkpt lat="-3.1435710" lon="37.2981630">
    <ele>2372.1</ele>
    <time>2026-06-20T13:13:07Z</time>
   </trkpt>
   <trkpt lat="-3.1435670" lon="37.2981630">
    <ele>2372.2</ele>
    <time>2026-06-20T13:13:08Z</time>
   </trkpt>
   <trkpt lat="-3.1435620" lon="37.2981600">
    <ele>2372.3</ele>
    <time>2026-06-20T13:13:09Z</time>
   </trkpt>
   <trkpt lat="-3.1435560" lon="37.2981560">
    <ele>2372.4</ele>
    <time>2026-06-20T13:13:10Z</time>
   </trkpt>
   <trkpt lat="-3.1435500" lon="37.2981560">
    <ele>2372.5</ele>
    <time>2026-06-20T13:13:11Z</time>
   </trkpt>
   <trkpt lat="-3.1435400" lon="37.2981560">
    <ele>2372.7</ele>
    <time>2026-06-20T13:13:12Z</time>
   </trkpt>
   <trkpt lat="-3.1435280" lon="37.2981570">
    <ele>2372.9</ele>
    <time>2026-06-20T13:13:13Z</time>
   </trkpt>
   <trkpt lat="-3.1435190" lon="37.2981570">
    <ele>2373.1</ele>
    <time>2026-06-20T13:13:14Z</time>
   </trkpt>
   <trkpt lat="-3.1435140" lon="37.2981580">
    <ele>2373.2</ele>
    <time>2026-06-20T13:13:15Z</time>
   </trkpt>
   <trkpt lat="-3.1435040" lon="37.2981560">
    <ele>2373.4</ele>
    <time>2026-06-20T13:13:16Z</time>
   </trkpt>
   <trkpt lat="-3.1434960" lon="37.2981480">
    <ele>2373.6</ele>
    <time>2026-06-20T13:13:17Z</time>
   </trkpt>
   <trkpt lat="-3.1434890" lon="37.2981410">
    <ele>2373.8</ele>
    <time>2026-06-20T13:13:18Z</time>
   </trkpt>
   <trkpt lat="-3.1434850" lon="37.2981420">
    <ele>2373.8</ele>
    <time>2026-06-20T13:13:19Z</time>
   </trkpt>
   <trkpt lat="-3.1434860" lon="37.2981420">
    <ele>2373.9</ele>
    <time>2026-06-20T13:13:20Z</time>
   </trkpt>
   <trkpt lat="-3.1434820" lon="37.2981440">
    <ele>2373.9</ele>
    <time>2026-06-20T13:13:21Z</time>
   </trkpt>
   <trkpt lat="-3.1434760" lon="37.2981480">
    <ele>2374.1</ele>
    <time>2026-06-20T13:13:22Z</time>
   </trkpt>
   <trkpt lat="-3.1434760" lon="37.2981460">
    <ele>2374.1</ele>
    <time>2026-06-20T13:13:23Z</time>
   </trkpt>
   <trkpt lat="-3.1434730" lon="37.2981510">
    <ele>2374.2</ele>
    <time>2026-06-20T13:13:24Z</time>
   </trkpt>
   <trkpt lat="-3.1434740" lon="37.2981510">
    <ele>2374.3</ele>
    <time>2026-06-20T13:13:25Z</time>
   </trkpt>
   <trkpt lat="-3.1434760" lon="37.2981500">
    <ele>2374.3</ele>
    <time>2026-06-20T13:13:26Z</time>
   </trkpt>
   <trkpt lat="-3.1434740" lon="37.2981500">
    <ele>2374.3</ele>
    <time>2026-06-20T13:13:27Z</time>
   </trkpt>
   <trkpt lat="-3.1434630" lon="37.2981550">
    <ele>2374.6</ele>
    <time>2026-06-20T13:13:28Z</time>
   </trkpt>
   <trkpt lat="-3.1434590" lon="37.2981550">
    <ele>2374.6</ele>
    <time>2026-06-20T13:13:29Z</time>
   </trkpt>
   <trkpt lat="-3.1434550" lon="37.2981520">
    <ele>2374.7</ele>
    <time>2026-06-20T13:13:30Z</time>
   </trkpt>
   <trkpt lat="-3.1434510" lon="37.2981500">
    <ele>2374.8</ele>
    <time>2026-06-20T13:13:31Z</time>
   </trkpt>
   <trkpt lat="-3.1434460" lon="37.2981540">
    <ele>2375.0</ele>
    <time>2026-06-20T13:13:32Z</time>
   </trkpt>
   <trkpt lat="-3.1434380" lon="37.2981580">
    <ele>2375.1</ele>
    <time>2026-06-20T13:13:33Z</time>
   </trkpt>
   <trkpt lat="-3.1434340" lon="37.2981570">
    <ele>2375.2</ele>
    <time>2026-06-20T13:13:34Z</time>
   </trkpt>
   <trkpt lat="-3.1434270" lon="37.2981650">
    <ele>2375.4</ele>
    <time>2026-06-20T13:13:35Z</time>
   </trkpt>
   <trkpt lat="-3.1434210" lon="37.2981620">
    <ele>2375.5</ele>
    <time>2026-06-20T13:13:36Z</time>
   </trkpt>
   <trkpt lat="-3.1434220" lon="37.2981790">
    <ele>2375.9</ele>
    <time>2026-06-20T13:13:37Z</time>
   </trkpt>
   <trkpt lat="-3.1434190" lon="37.2981790">
    <ele>2375.9</ele>
    <time>2026-06-20T13:13:38Z</time>
   </trkpt>
   <trkpt lat="-3.1434090" lon="37.2981800">
    <ele>2376.1</ele>
    <time>2026-06-20T13:13:39Z</time>
   </trkpt>
   <trkpt lat="-3.1434010" lon="37.2981780">
    <ele>2376.3</ele>
    <time>2026-06-20T13:13:40Z</time>
   </trkpt>
   <trkpt lat="-3.1433930" lon="37.2981770">
    <ele>2376.5</ele>
    <time>2026-06-20T13:13:41Z</time>
   </trkpt>
   <trkpt lat="-3.1433880" lon="37.2981770">
    <ele>2376.6</ele>
    <time>2026-06-20T13:13:42Z</time>
   </trkpt>
   <trkpt lat="-3.1433830" lon="37.2981730">
    <ele>2376.7</ele>
    <time>2026-06-20T13:13:43Z</time>
   </trkpt>
   <trkpt lat="-3.1433760" lon="37.2981690">
    <ele>2376.8</ele>
    <time>2026-06-20T13:13:44Z</time>
   </trkpt>
   <trkpt lat="-3.1433720" lon="37.2981710">
    <ele>2376.9</ele>
    <time>2026-06-20T13:13:45Z</time>
   </trkpt>
   <trkpt lat="-3.1433660" lon="37.2981700">
    <ele>2377.1</ele>
    <time>2026-06-20T13:13:46Z</time>
   </trkpt>
   <trkpt lat="-3.1433610" lon="37.2981540">
    <ele>2377.4</ele>
    <time>2026-06-20T13:13:47Z</time>
   </trkpt>
   <trkpt lat="-3.1433490" lon="37.2981530">
    <ele>2377.7</ele>
    <time>2026-06-20T13:13:48Z</time>
   </trkpt>
   <trkpt lat="-3.1433420" lon="37.2981510">
    <ele>2377.8</ele>
    <time>2026-06-20T13:13:49Z</time>
   </trkpt>
   <trkpt lat="-3.1433340" lon="37.2981500">
    <ele>2378.0</ele>
    <time>2026-06-20T13:13:50Z</time>
   </trkpt>
   <trkpt lat="-3.1433280" lon="37.2981520">
    <ele>2378.1</ele>
    <time>2026-06-20T13:13:51Z</time>
   </trkpt>
   <trkpt lat="-3.1433160" lon="37.2981480">
    <ele>2378.4</ele>
    <time>2026-06-20T13:13:52Z</time>
   </trkpt>
   <trkpt lat="-3.1433070" lon="37.2981470">
    <ele>2378.5</ele>
    <time>2026-06-20T13:13:53Z</time>
   </trkpt>
   <trkpt lat="-3.1433000" lon="37.2981420">
    <ele>2378.7</ele>
    <time>2026-06-20T13:13:54Z</time>
   </trkpt>
   <trkpt lat="-3.1432950" lon="37.2981400">
    <ele>2378.8</ele>
    <time>2026-06-20T13:13:55Z</time>
   </trkpt>
   <trkpt lat="-3.1432900" lon="37.2981360">
    <ele>2379.0</ele>
    <time>2026-06-20T13:13:56Z</time>
   </trkpt>
   <trkpt lat="-3.1432840" lon="37.2981320">
    <ele>2379.1</ele>
    <time>2026-06-20T13:13:57Z</time>
   </trkpt>
   <trkpt lat="-3.1432770" lon="37.2981290">
    <ele>2379.3</ele>
    <time>2026-06-20T13:13:58Z</time>
   </trkpt>
   <trkpt lat="-3.1432740" lon="37.2981230">
    <ele>2379.4</ele>
    <time>2026-06-20T13:13:59Z</time>
   </trkpt>
   <trkpt lat="-3.1432700" lon="37.2981210">
    <ele>2379.5</ele>
    <time>2026-06-20T13:14:00Z</time>
   </trkpt>
   <trkpt lat="-3.1432650" lon="37.2981210">
    <ele>2379.6</ele>
    <time>2026-06-20T13:14:01Z</time>
   </trkpt>
   <trkpt lat="-3.1432620" lon="37.2981150">
    <ele>2379.8</ele>
    <time>2026-06-20T13:14:02Z</time>
   </trkpt>
   <trkpt lat="-3.1432570" lon="37.2981170">
    <ele>2379.9</ele>
    <time>2026-06-20T13:14:03Z</time>
   </trkpt>
   <trkpt lat="-3.1432550" lon="37.2981190">
    <ele>2379.9</ele>
    <time>2026-06-20T13:14:04Z</time>
   </trkpt>
   <trkpt lat="-3.1432540" lon="37.2981210">
    <ele>2380.0</ele>
    <time>2026-06-20T13:14:05Z</time>
   </trkpt>
   <trkpt lat="-3.1432560" lon="37.2981250">
    <ele>2380.1</ele>
    <time>2026-06-20T13:14:06Z</time>
   </trkpt>
   <trkpt lat="-3.1432620" lon="37.2981360">
    <ele>2380.3</ele>
    <time>2026-06-20T13:14:07Z</time>
   </trkpt>
   <trkpt lat="-3.1432670" lon="37.2981470">
    <ele>2380.6</ele>
    <time>2026-06-20T13:14:08Z</time>
   </trkpt>
   <trkpt lat="-3.1432710" lon="37.2981560">
    <ele>2380.8</ele>
    <time>2026-06-20T13:14:09Z</time>
   </trkpt>
   <trkpt lat="-3.1432800" lon="37.2981610">
    <ele>2381.0</ele>
    <time>2026-06-20T13:14:10Z</time>
   </trkpt>
   <trkpt lat="-3.1432910" lon="37.2981650">
    <ele>2381.3</ele>
    <time>2026-06-20T13:14:11Z</time>
   </trkpt>
   <trkpt lat="-3.1433000" lon="37.2981670">
    <ele>2381.5</ele>
    <time>2026-06-20T13:14:12Z</time>
   </trkpt>
   <trkpt lat="-3.1433050" lon="37.2981670">
    <ele>2381.6</ele>
    <time>2026-06-20T13:14:13Z</time>
   </trkpt>
   <trkpt lat="-3.1433080" lon="37.2981720">
    <ele>2381.7</ele>
    <time>2026-06-20T13:14:14Z</time>
   </trkpt>
   <trkpt lat="-3.1433140" lon="37.2981750">
    <ele>2381.9</ele>
    <time>2026-06-20T13:14:15Z</time>
   </trkpt>
   <trkpt lat="-3.1433230" lon="37.2981740">
    <ele>2382.1</ele>
    <time>2026-06-20T13:14:16Z</time>
   </trkpt>
   <trkpt lat="-3.1433300" lon="37.2981800">
    <ele>2382.3</ele>
    <time>2026-06-20T13:14:17Z</time>
   </trkpt>
   <trkpt lat="-3.1433390" lon="37.2981820">
    <ele>2382.5</ele>
    <time>2026-06-20T13:14:18Z</time>
   </trkpt>
   <trkpt lat="-3.1433470" lon="37.2981860">
    <ele>2382.7</ele>
    <time>2026-06-20T13:14:19Z</time>
   </trkpt>
   <trkpt lat="-3.1433530" lon="37.2981900">
    <ele>2382.9</ele>
    <time>2026-06-20T13:14:20Z</time>
   </trkpt>
   <trkpt lat="-3.1433600" lon="37.2981940">
    <ele>2383.1</ele>
    <time>2026-06-20T13:14:21Z</time>
   </trkpt>
   <trkpt lat="-3.1433630" lon="37.2982010">
    <ele>2383.3</ele>
    <time>2026-06-20T13:14:22Z</time>
   </trkpt>
   <trkpt lat="-3.1433680" lon="37.2982080">
    <ele>2383.5</ele>
    <time>2026-06-20T13:14:23Z</time>
   </trkpt>
   <trkpt lat="-3.1433700" lon="37.2982160">
    <ele>2383.6</ele>
    <time>2026-06-20T13:14:24Z</time>
   </trkpt>
   <trkpt lat="-3.1433670" lon="37.2982260">
    <ele>2383.9</ele>
    <time>2026-06-20T13:14:25Z</time>
   </trkpt>
   <trkpt lat="-3.1433650" lon="37.2982320">
    <ele>2384.0</ele>
    <time>2026-06-20T13:14:26Z</time>
   </trkpt>
   <trkpt lat="-3.1433590" lon="37.2982410">
    <ele>2384.3</ele>
    <time>2026-06-20T13:14:27Z</time>
   </trkpt>
   <trkpt lat="-3.1433490" lon="37.2982500">
    <ele>2384.6</ele>
    <time>2026-06-20T13:14:28Z</time>
   </trkpt>
   <trkpt lat="-3.1433420" lon="37.2982540">
    <ele>2384.8</ele>
    <time>2026-06-20T13:14:29Z</time>
   </trkpt>
   <trkpt lat="-3.1433380" lon="37.2982520">
    <ele>2384.9</ele>
    <time>2026-06-20T13:14:30Z</time>
   </trkpt>
   <trkpt lat="-3.1433320" lon="37.2982500">
    <ele>2385.1</ele>
    <time>2026-06-20T13:14:31Z</time>
   </trkpt>
   <trkpt lat="-3.1433270" lon="37.2982530">
    <ele>2385.2</ele>
    <time>2026-06-20T13:14:32Z</time>
   </trkpt>
   <trkpt lat="-3.1433230" lon="37.2982520">
    <ele>2385.3</ele>
    <time>2026-06-20T13:14:33Z</time>
   </trkpt>
   <trkpt lat="-3.1433180" lon="37.2982510">
    <ele>2385.4</ele>
    <time>2026-06-20T13:14:34Z</time>
   </trkpt>
   <trkpt lat="-3.1433120" lon="37.2982520">
    <ele>2385.6</ele>
    <time>2026-06-20T13:14:35Z</time>
   </trkpt>
   <trkpt lat="-3.1433060" lon="37.2982560">
    <ele>2385.7</ele>
    <time>2026-06-20T13:14:36Z</time>
   </trkpt>
   <trkpt lat="-3.1432990" lon="37.2982530">
    <ele>2385.9</ele>
    <time>2026-06-20T13:14:37Z</time>
   </trkpt>
   <trkpt lat="-3.1432970" lon="37.2982490">
    <ele>2386.0</ele>
    <time>2026-06-20T13:14:38Z</time>
   </trkpt>
   <trkpt lat="-3.1432940" lon="37.2982500">
    <ele>2386.1</ele>
    <time>2026-06-20T13:14:39Z</time>
   </trkpt>
   <trkpt lat="-3.1432880" lon="37.2982460">
    <ele>2386.3</ele>
    <time>2026-06-20T13:14:40Z</time>
   </trkpt>
   <trkpt lat="-3.1432870" lon="37.2982480">
    <ele>2386.3</ele>
    <time>2026-06-20T13:14:41Z</time>
   </trkpt>
   <trkpt lat="-3.1432820" lon="37.2982450">
    <ele>2386.4</ele>
    <time>2026-06-20T13:14:42Z</time>
   </trkpt>
   <trkpt lat="-3.1432780" lon="37.2982450">
    <ele>2386.5</ele>
    <time>2026-06-20T13:14:43Z</time>
   </trkpt>
   <trkpt lat="-3.1432760" lon="37.2982420">
    <ele>2386.6</ele>
    <time>2026-06-20T13:14:44Z</time>
   </trkpt>
   <trkpt lat="-3.1432670" lon="37.2982470">
    <ele>2386.9</ele>
    <time>2026-06-20T13:14:45Z</time>
   </trkpt>
   <trkpt lat="-3.1432660" lon="37.2982510">
    <ele>2387.0</ele>
    <time>2026-06-20T13:14:46Z</time>
   </trkpt>
   <trkpt lat="-3.1432630" lon="37.2982530">
    <ele>2387.1</ele>
    <time>2026-06-20T13:14:47Z</time>
   </trkpt>
   <trkpt lat="-3.1432590" lon="37.2982560">
    <ele>2387.2</ele>
    <time>2026-06-20T13:14:48Z</time>
   </trkpt>
   <trkpt lat="-3.1432560" lon="37.2982560">
    <ele>2387.2</ele>
    <time>2026-06-20T13:14:49Z</time>
   </trkpt>
   <trkpt lat="-3.1432530" lon="37.2982610">
    <ele>2387.4</ele>
    <time>2026-06-20T13:14:50Z</time>
   </trkpt>
   <trkpt lat="-3.1432470" lon="37.2982640">
    <ele>2387.5</ele>
    <time>2026-06-20T13:14:51Z</time>
   </trkpt>
   <trkpt lat="-3.1432440" lon="37.2982670">
    <ele>2387.6</ele>
    <time>2026-06-20T13:14:52Z</time>
   </trkpt>
   <trkpt lat="-3.1432430" lon="37.2982700">
    <ele>2387.7</ele>
    <time>2026-06-20T13:14:53Z</time>
   </trkpt>
   <trkpt lat="-3.1432410" lon="37.2982710">
    <ele>2387.8</ele>
    <time>2026-06-20T13:14:54Z</time>
   </trkpt>
   <trkpt lat="-3.1432380" lon="37.2982720">
    <ele>2387.8</ele>
    <time>2026-06-20T13:14:55Z</time>
   </trkpt>
   <trkpt lat="-3.1432390" lon="37.2982720">
    <ele>2387.9</ele>
    <time>2026-06-20T13:14:56Z</time>
   </trkpt>
   <trkpt lat="-3.1432330" lon="37.2982720">
    <ele>2388.0</ele>
    <time>2026-06-20T13:14:57Z</time>
   </trkpt>
   <trkpt lat="-3.1432290" lon="37.2982720">
    <ele>2388.1</ele>
    <time>2026-06-20T13:14:58Z</time>
   </trkpt>
   <trkpt lat="-3.1432260" lon="37.2982690">
    <ele>2388.2</ele>
    <time>2026-06-20T13:14:59Z</time>
   </trkpt>
   <trkpt lat="-3.1432240" lon="37.2982640">
    <ele>2388.3</ele>
    <time>2026-06-20T13:15:00Z</time>
   </trkpt>
   <trkpt lat="-3.1432160" lon="37.2982680">
    <ele>2388.5</ele>
    <time>2026-06-20T13:15:01Z</time>
   </trkpt>
   <trkpt lat="-3.1432070" lon="37.2982680">
    <ele>2388.7</ele>
    <time>2026-06-20T13:15:02Z</time>
   </trkpt>
   <trkpt lat="-3.1432060" lon="37.2982650">
    <ele>2388.8</ele>
    <time>2026-06-20T13:15:03Z</time>
   </trkpt>
   <trkpt lat="-3.1432040" lon="37.2982670">
    <ele>2388.9</ele>
    <time>2026-06-20T13:15:04Z</time>
   </trkpt>
   <trkpt lat="-3.1432030" lon="37.2982690">
    <ele>2388.9</ele>
    <time>2026-06-20T13:15:05Z</time>
   </trkpt>
   <trkpt lat="-3.1432030" lon="37.2982730">
    <ele>2389.0</ele>
    <time>2026-06-20T13:15:06Z</time>
   </trkpt>
   <trkpt lat="-3.1432010" lon="37.2982760">
    <ele>2389.1</ele>
    <time>2026-06-20T13:15:07Z</time>
   </trkpt>
   <trkpt lat="-3.1431990" lon="37.2982800">
    <ele>2389.2</ele>
    <time>2026-06-20T13:15:08Z</time>
   </trkpt>
   <trkpt lat="-3.1431970" lon="37.2982810">
    <ele>2389.2</ele>
    <time>2026-06-20T13:15:09Z</time>
   </trkpt>
   <trkpt lat="-3.1431930" lon="37.2982840">
    <ele>2389.3</ele>
    <time>2026-06-20T13:15:10Z</time>
   </trkpt>
   <trkpt lat="-3.1431920" lon="37.2982860">
    <ele>2389.4</ele>
    <time>2026-06-20T13:15:11Z</time>
   </trkpt>
   <trkpt lat="-3.1431880" lon="37.2982870">
    <ele>2389.5</ele>
    <time>2026-06-20T13:15:12Z</time>
   </trkpt>
   <trkpt lat="-3.1431830" lon="37.2982950">
    <ele>2389.7</ele>
    <time>2026-06-20T13:15:13Z</time>
   </trkpt>
   <trkpt lat="-3.1431840" lon="37.2982920">
    <ele>2389.8</ele>
    <time>2026-06-20T13:15:14Z</time>
   </trkpt>
   <trkpt lat="-3.1431820" lon="37.2982970">
    <ele>2389.9</ele>
    <time>2026-06-20T13:15:15Z</time>
   </trkpt>
   <trkpt lat="-3.1431790" lon="37.2982970">
    <ele>2389.9</ele>
    <time>2026-06-20T13:15:16Z</time>
   </trkpt>
   <trkpt lat="-3.1431780" lon="37.2982940">
    <ele>2390.0</ele>
    <time>2026-06-20T13:15:17Z</time>
   </trkpt>
   <trkpt lat="-3.1431740" lon="37.2982990">
    <ele>2390.1</ele>
    <time>2026-06-20T13:15:18Z</time>
   </trkpt>
   <trkpt lat="-3.1431720" lon="37.2983000">
    <ele>2390.2</ele>
    <time>2026-06-20T13:15:19Z</time>
   </trkpt>
   <trkpt lat="-3.1431700" lon="37.2983010">
    <ele>2390.2</ele>
    <time>2026-06-20T13:15:20Z</time>
   </trkpt>
   <trkpt lat="-3.1431680" lon="37.2983070">
    <ele>2390.3</ele>
    <time>2026-06-20T13:15:21Z</time>
   </trkpt>
   <trkpt lat="-3.1431660" lon="37.2983100">
    <ele>2390.4</ele>
    <time>2026-06-20T13:15:22Z</time>
   </trkpt>
   <trkpt lat="-3.1431680" lon="37.2983150">
    <ele>2390.5</ele>
    <time>2026-06-20T13:15:23Z</time>
   </trkpt>
   <trkpt lat="-3.1431650" lon="37.2983200">
    <ele>2390.6</ele>
    <time>2026-06-20T13:15:24Z</time>
   </trkpt>
   <trkpt lat="-3.1431620" lon="37.2983180">
    <ele>2390.7</ele>
    <time>2026-06-20T13:15:25Z</time>
   </trkpt>
   <trkpt lat="-3.1431550" lon="37.2983290">
    <ele>2391.0</ele>
    <time>2026-06-20T13:15:26Z</time>
   </trkpt>
   <trkpt lat="-3.1431470" lon="37.2983330">
    <ele>2391.2</ele>
    <time>2026-06-20T13:15:27Z</time>
   </trkpt>
   <trkpt lat="-3.1431400" lon="37.2983340">
    <ele>2391.3</ele>
    <time>2026-06-20T13:15:28Z</time>
   </trkpt>
   <trkpt lat="-3.1431340" lon="37.2983390">
    <ele>2391.4</ele>
    <time>2026-06-20T13:15:29Z</time>
   </trkpt>
   <trkpt lat="-3.1431290" lon="37.2983400">
    <ele>2391.5</ele>
    <time>2026-06-20T13:15:30Z</time>
   </trkpt>
   <trkpt lat="-3.1431220" lon="37.2983460">
    <ele>2391.7</ele>
    <time>2026-06-20T13:15:31Z</time>
   </trkpt>
   <trkpt lat="-3.1431150" lon="37.2983510">
    <ele>2391.8</ele>
    <time>2026-06-20T13:15:32Z</time>
   </trkpt>
   <trkpt lat="-3.1431160" lon="37.2983600">
    <ele>2392.0</ele>
    <time>2026-06-20T13:15:33Z</time>
   </trkpt>
   <trkpt lat="-3.1431160" lon="37.2983760">
    <ele>2392.3</ele>
    <time>2026-06-20T13:15:34Z</time>
   </trkpt>
   <trkpt lat="-3.1431100" lon="37.2983840">
    <ele>2392.4</ele>
    <time>2026-06-20T13:15:35Z</time>
   </trkpt>
   <trkpt lat="-3.1431000" lon="37.2983920">
    <ele>2392.6</ele>
    <time>2026-06-20T13:15:36Z</time>
   </trkpt>
   <trkpt lat="-3.1430950" lon="37.2984010">
    <ele>2392.8</ele>
    <time>2026-06-20T13:15:37Z</time>
   </trkpt>
   <trkpt lat="-3.1430910" lon="37.2984120">
    <ele>2392.9</ele>
    <time>2026-06-20T13:15:38Z</time>
   </trkpt>
   <trkpt lat="-3.1430910" lon="37.2984180">
    <ele>2393.0</ele>
    <time>2026-06-20T13:15:39Z</time>
   </trkpt>
   <trkpt lat="-3.1430910" lon="37.2984230">
    <ele>2393.1</ele>
    <time>2026-06-20T13:15:40Z</time>
   </trkpt>
   <trkpt lat="-3.1430890" lon="37.2984240">
    <ele>2393.1</ele>
    <time>2026-06-20T13:15:41Z</time>
   </trkpt>
   <trkpt lat="-3.1430870" lon="37.2984350">
    <ele>2393.3</ele>
    <time>2026-06-20T13:15:42Z</time>
   </trkpt>
   <trkpt lat="-3.1430820" lon="37.2984360">
    <ele>2393.3</ele>
    <time>2026-06-20T13:15:43Z</time>
   </trkpt>
   <trkpt lat="-3.1430770" lon="37.2984520">
    <ele>2393.6</ele>
    <time>2026-06-20T13:15:44Z</time>
   </trkpt>
   <trkpt lat="-3.1430830" lon="37.2984530">
    <ele>2393.6</ele>
    <time>2026-06-20T13:15:45Z</time>
   </trkpt>
   <trkpt lat="-3.1430800" lon="37.2984510">
    <ele>2393.7</ele>
    <time>2026-06-20T13:15:46Z</time>
   </trkpt>
   <trkpt lat="-3.1430770" lon="37.2984570">
    <ele>2393.8</ele>
    <time>2026-06-20T13:15:47Z</time>
   </trkpt>
   <trkpt lat="-3.1430750" lon="37.2984560">
    <ele>2393.8</ele>
    <time>2026-06-20T13:15:48Z</time>
   </trkpt>
   <trkpt lat="-3.1430740" lon="37.2984600">
    <ele>2393.9</ele>
    <time>2026-06-20T13:15:49Z</time>
   </trkpt>
   <trkpt lat="-3.1430710" lon="37.2984660">
    <ele>2393.9</ele>
    <time>2026-06-20T13:15:50Z</time>
   </trkpt>
   <trkpt lat="-3.1430720" lon="37.2984740">
    <ele>2394.0</ele>
    <time>2026-06-20T13:15:51Z</time>
   </trkpt>
   <trkpt lat="-3.1430760" lon="37.2984750">
    <ele>2394.1</ele>
    <time>2026-06-20T13:15:52Z</time>
   </trkpt>
   <trkpt lat="-3.1430770" lon="37.2984740">
    <ele>2394.1</ele>
    <time>2026-06-20T13:15:53Z</time>
   </trkpt>
   <trkpt lat="-3.1430890" lon="37.2984710">
    <ele>2394.3</ele>
    <time>2026-06-20T13:15:54Z</time>
   </trkpt>
   <trkpt lat="-3.1431020" lon="37.2984730">
    <ele>2394.4</ele>
    <time>2026-06-20T13:15:55Z</time>
   </trkpt>
   <trkpt lat="-3.1431050" lon="37.2984700">
    <ele>2394.5</ele>
    <time>2026-06-20T13:15:56Z</time>
   </trkpt>
   <trkpt lat="-3.1431080" lon="37.2984710">
    <ele>2394.5</ele>
    <time>2026-06-20T13:15:57Z</time>
   </trkpt>
   <trkpt lat="-3.1431120" lon="37.2984700">
    <ele>2394.6</ele>
    <time>2026-06-20T13:15:58Z</time>
   </trkpt>
   <trkpt lat="-3.1431190" lon="37.2984680">
    <ele>2394.6</ele>
    <time>2026-06-20T13:15:59Z</time>
   </trkpt>
   <trkpt lat="-3.1431290" lon="37.2984710">
    <ele>2394.8</ele>
    <time>2026-06-20T13:16:00Z</time>
   </trkpt>
   <trkpt lat="-3.1431360" lon="37.2984690">
    <ele>2394.9</ele>
    <time>2026-06-20T13:16:01Z</time>
   </trkpt>
   <trkpt lat="-3.1431400" lon="37.2984670">
    <ele>2394.9</ele>
    <time>2026-06-20T13:16:02Z</time>
   </trkpt>
   <trkpt lat="-3.1431490" lon="37.2984630">
    <ele>2395.0</ele>
    <time>2026-06-20T13:16:03Z</time>
   </trkpt>
   <trkpt lat="-3.1431520" lon="37.2984560">
    <ele>2395.1</ele>
    <time>2026-06-20T13:16:04Z</time>
   </trkpt>
   <trkpt lat="-3.1431550" lon="37.2984520">
    <ele>2395.2</ele>
    <time>2026-06-20T13:16:05Z</time>
   </trkpt>
   <trkpt lat="-3.1431620" lon="37.2984480">
    <ele>2395.3</ele>
    <time>2026-06-20T13:16:06Z</time>
   </trkpt>
   <trkpt lat="-3.1431740" lon="37.2984410">
    <ele>2395.4</ele>
    <time>2026-06-20T13:16:07Z</time>
   </trkpt>
   <trkpt lat="-3.1431820" lon="37.2984380">
    <ele>2395.6</ele>
    <time>2026-06-20T13:16:08Z</time>
   </trkpt>
   <trkpt lat="-3.1431900" lon="37.2984370">
    <ele>2395.7</ele>
    <time>2026-06-20T13:16:09Z</time>
   </trkpt>
   <trkpt lat="-3.1431990" lon="37.2984400">
    <ele>2395.8</ele>
    <time>2026-06-20T13:16:10Z</time>
   </trkpt>
   <trkpt lat="-3.1432090" lon="37.2984450">
    <ele>2395.9</ele>
    <time>2026-06-20T13:16:11Z</time>
   </trkpt>
   <trkpt lat="-3.1432200" lon="37.2984460">
    <ele>2396.1</ele>
    <time>2026-06-20T13:16:12Z</time>
   </trkpt>
   <trkpt lat="-3.1432260" lon="37.2984570">
    <ele>2396.3</ele>
    <time>2026-06-20T13:16:13Z</time>
   </trkpt>
   <trkpt lat="-3.1432260" lon="37.2984620">
    <ele>2396.3</ele>
    <time>2026-06-20T13:16:14Z</time>
   </trkpt>
   <trkpt lat="-3.1432360" lon="37.2984620">
    <ele>2396.5</ele>
    <time>2026-06-20T13:16:15Z</time>
   </trkpt>
   <trkpt lat="-3.1432450" lon="37.2984610">
    <ele>2396.6</ele>
    <time>2026-06-20T13:16:16Z</time>
   </trkpt>
   <trkpt lat="-3.1432520" lon="37.2984660">
    <ele>2396.7</ele>
    <time>2026-06-20T13:16:17Z</time>
   </trkpt>
   <trkpt lat="-3.1432530" lon="37.2984700">
    <ele>2396.8</ele>
    <time>2026-06-20T13:16:18Z</time>
   </trkpt>
   <trkpt lat="-3.1432590" lon="37.2984750">
    <ele>2396.9</ele>
    <time>2026-06-20T13:16:19Z</time>
   </trkpt>
   <trkpt lat="-3.1432620" lon="37.2984820">
    <ele>2397.0</ele>
    <time>2026-06-20T13:16:20Z</time>
   </trkpt>
   <trkpt lat="-3.1432630" lon="37.2984820">
    <ele>2397.0</ele>
    <time>2026-06-20T13:16:21Z</time>
   </trkpt>
   <trkpt lat="-3.1432640" lon="37.2984870">
    <ele>2397.1</ele>
    <time>2026-06-20T13:16:22Z</time>
   </trkpt>
   <trkpt lat="-3.1432710" lon="37.2984930">
    <ele>2397.3</ele>
    <time>2026-06-20T13:16:23Z</time>
   </trkpt>
   <trkpt lat="-3.1432780" lon="37.2984950">
    <ele>2397.4</ele>
    <time>2026-06-20T13:16:24Z</time>
   </trkpt>
   <trkpt lat="-3.1432840" lon="37.2984980">
    <ele>2397.5</ele>
    <time>2026-06-20T13:16:25Z</time>
   </trkpt>
   <trkpt lat="-3.1432840" lon="37.2985030">
    <ele>2397.6</ele>
    <time>2026-06-20T13:16:26Z</time>
   </trkpt>
   <trkpt lat="-3.1432870" lon="37.2985040">
    <ele>2397.6</ele>
    <time>2026-06-20T13:16:27Z</time>
   </trkpt>
   <trkpt lat="-3.1432810" lon="37.2985090">
    <ele>2397.8</ele>
    <time>2026-06-20T13:16:28Z</time>
   </trkpt>
   <trkpt lat="-3.1432850" lon="37.2985080">
    <ele>2397.8</ele>
    <time>2026-06-20T13:16:29Z</time>
   </trkpt>
   <trkpt lat="-3.1432800" lon="37.2985100">
    <ele>2397.9</ele>
    <time>2026-06-20T13:16:30Z</time>
   </trkpt>
   <trkpt lat="-3.1432760" lon="37.2985150">
    <ele>2398.0</ele>
    <time>2026-06-20T13:16:31Z</time>
   </trkpt>
   <trkpt lat="-3.1432690" lon="37.2985210">
    <ele>2398.2</ele>
    <time>2026-06-20T13:16:32Z</time>
   </trkpt>
   <trkpt lat="-3.1432590" lon="37.2985230">
    <ele>2398.4</ele>
    <time>2026-06-20T13:16:33Z</time>
   </trkpt>
   <trkpt lat="-3.1432550" lon="37.2985200">
    <ele>2398.4</ele>
    <time>2026-06-20T13:16:34Z</time>
   </trkpt>
   <trkpt lat="-3.1432510" lon="37.2985170">
    <ele>2398.5</ele>
    <time>2026-06-20T13:16:35Z</time>
   </trkpt>
   <trkpt lat="-3.1432460" lon="37.2985170">
    <ele>2398.6</ele>
    <time>2026-06-20T13:16:36Z</time>
   </trkpt>
   <trkpt lat="-3.1432390" lon="37.2985210">
    <ele>2398.8</ele>
    <time>2026-06-20T13:16:37Z</time>
   </trkpt>
   <trkpt lat="-3.1432300" lon="37.2985240">
    <ele>2398.9</ele>
    <time>2026-06-20T13:16:38Z</time>
   </trkpt>
   <trkpt lat="-3.1432200" lon="37.2985340">
    <ele>2399.2</ele>
    <time>2026-06-20T13:16:39Z</time>
   </trkpt>
   <trkpt lat="-3.1432130" lon="37.2985380">
    <ele>2399.3</ele>
    <time>2026-06-20T13:16:40Z</time>
   </trkpt>
   <trkpt lat="-3.1432070" lon="37.2985420">
    <ele>2399.4</ele>
    <time>2026-06-20T13:16:41Z</time>
   </trkpt>
   <trkpt lat="-3.1432040" lon="37.2985490">
    <ele>2399.6</ele>
    <time>2026-06-20T13:16:42Z</time>
   </trkpt>
   <trkpt lat="-3.1431980" lon="37.2985500">
    <ele>2399.7</ele>
    <time>2026-06-20T13:16:43Z</time>
   </trkpt>
   <trkpt lat="-3.1431920" lon="37.2985570">
    <ele>2399.8</ele>
    <time>2026-06-20T13:16:44Z</time>
   </trkpt>
   <trkpt lat="-3.1431880" lon="37.2985590">
    <ele>2399.9</ele>
    <time>2026-06-20T13:16:45Z</time>
   </trkpt>
   <trkpt lat="-3.1431860" lon="37.2985640">
    <ele>2400.0</ele>
    <time>2026-06-20T13:16:46Z</time>
   </trkpt>
   <trkpt lat="-3.1431840" lon="37.2985680">
    <ele>2400.1</ele>
    <time>2026-06-20T13:16:47Z</time>
   </trkpt>
   <trkpt lat="-3.1431850" lon="37.2985740">
    <ele>2400.2</ele>
    <time>2026-06-20T13:16:48Z</time>
   </trkpt>
   <trkpt lat="-3.1431820" lon="37.2985830">
    <ele>2400.4</ele>
    <time>2026-06-20T13:16:49Z</time>
   </trkpt>
   <trkpt lat="-3.1431790" lon="37.2985910">
    <ele>2400.5</ele>
    <time>2026-06-20T13:16:50Z</time>
   </trkpt>
   <trkpt lat="-3.1431680" lon="37.2985940">
    <ele>2400.7</ele>
    <time>2026-06-20T13:16:51Z</time>
   </trkpt>
   <trkpt lat="-3.1431620" lon="37.2985960">
    <ele>2400.8</ele>
    <time>2026-06-20T13:16:52Z</time>
   </trkpt>
   <trkpt lat="-3.1431590" lon="37.2986020">
    <ele>2400.9</ele>
    <time>2026-06-20T13:16:53Z</time>
   </trkpt>
   <trkpt lat="-3.1431540" lon="37.2986080">
    <ele>2401.1</ele>
    <time>2026-06-20T13:16:54Z</time>
   </trkpt>
   <trkpt lat="-3.1431470" lon="37.2986150">
    <ele>2401.3</ele>
    <time>2026-06-20T13:16:55Z</time>
   </trkpt>
   <trkpt lat="-3.1431470" lon="37.2986120">
    <ele>2401.3</ele>
    <time>2026-06-20T13:16:56Z</time>
   </trkpt>
   <trkpt lat="-3.1431420" lon="37.2986210">
    <ele>2401.5</ele>
    <time>2026-06-20T13:16:57Z</time>
   </trkpt>
   <trkpt lat="-3.1431410" lon="37.2986270">
    <ele>2401.6</ele>
    <time>2026-06-20T13:16:58Z</time>
   </trkpt>
   <trkpt lat="-3.1431420" lon="37.2986250">
    <ele>2401.6</ele>
    <time>2026-06-20T13:16:59Z</time>
   </trkpt>
   <trkpt lat="-3.1431410" lon="37.2986300">
    <ele>2401.7</ele>
    <time>2026-06-20T13:17:00Z</time>
   </trkpt>
   <trkpt lat="-3.1431400" lon="37.2986350">
    <ele>2401.8</ele>
    <time>2026-06-20T13:17:01Z</time>
   </trkpt>
   <trkpt lat="-3.1431370" lon="37.2986410">
    <ele>2401.9</ele>
    <time>2026-06-20T13:17:02Z</time>
   </trkpt>
   <trkpt lat="-3.1431370" lon="37.2986460">
    <ele>2402.0</ele>
    <time>2026-06-20T13:17:03Z</time>
   </trkpt>
   <trkpt lat="-3.1431370" lon="37.2986470">
    <ele>2402.0</ele>
    <time>2026-06-20T13:17:04Z</time>
   </trkpt>
   <trkpt lat="-3.1431340" lon="37.2986530">
    <ele>2402.1</ele>
    <time>2026-06-20T13:17:05Z</time>
   </trkpt>
   <trkpt lat="-3.1431330" lon="37.2986570">
    <ele>2402.2</ele>
    <time>2026-06-20T13:17:06Z</time>
   </trkpt>
   <trkpt lat="-3.1431310" lon="37.2986650">
    <ele>2402.4</ele>
    <time>2026-06-20T13:17:07Z</time>
   </trkpt>
   <trkpt lat="-3.1431310" lon="37.2986680">
    <ele>2402.4</ele>
    <time>2026-06-20T13:17:08Z</time>
   </trkpt>
   <trkpt lat="-3.1431270" lon="37.2986740">
    <ele>2402.5</ele>
    <time>2026-06-20T13:17:10Z</time>
   </trkpt>
   <trkpt lat="-3.1431320" lon="37.2986830">
    <ele>2402.7</ele>
    <time>2026-06-20T13:17:11Z</time>
   </trkpt>
   <trkpt lat="-3.1431300" lon="37.2986910">
    <ele>2402.9</ele>
    <time>2026-06-20T13:17:12Z</time>
   </trkpt>
   <trkpt lat="-3.1431290" lon="37.2986930">
    <ele>2402.9</ele>
    <time>2026-06-20T13:17:13Z</time>
   </trkpt>
   <trkpt lat="-3.1431270" lon="37.2986980">
    <ele>2403.0</ele>
    <time>2026-06-20T13:17:14Z</time>
   </trkpt>
   <trkpt lat="-3.1431240" lon="37.2987090">
    <ele>2403.2</ele>
    <time>2026-06-20T13:17:15Z</time>
   </trkpt>
   <trkpt lat="-3.1431220" lon="37.2987100">
    <ele>2403.2</ele>
    <time>2026-06-20T13:17:16Z</time>
   </trkpt>
   <trkpt lat="-3.1431170" lon="37.2987170">
    <ele>2403.3</ele>
    <time>2026-06-20T13:17:17Z</time>
   </trkpt>
   <trkpt lat="-3.1431160" lon="37.2987170">
    <ele>2403.4</ele>
    <time>2026-06-20T13:17:18Z</time>
   </trkpt>
   <trkpt lat="-3.1431160" lon="37.2987190">
    <ele>2403.4</ele>
    <time>2026-06-20T13:17:19Z</time>
   </trkpt>
   <trkpt lat="-3.1431140" lon="37.2987240">
    <ele>2403.5</ele>
    <time>2026-06-20T13:17:20Z</time>
   </trkpt>
   <trkpt lat="-3.1431110" lon="37.2987220">
    <ele>2403.5</ele>
    <time>2026-06-20T13:17:21Z</time>
   </trkpt>
   <trkpt lat="-3.1431090" lon="37.2987230">
    <ele>2403.6</ele>
    <time>2026-06-20T13:17:22Z</time>
   </trkpt>
   <trkpt lat="-3.1431070" lon="37.2987300">
    <ele>2403.7</ele>
    <time>2026-06-20T13:17:23Z</time>
   </trkpt>
   <trkpt lat="-3.1431050" lon="37.2987330">
    <ele>2403.8</ele>
    <time>2026-06-20T13:17:24Z</time>
   </trkpt>
   <trkpt lat="-3.1431030" lon="37.2987400">
    <ele>2403.9</ele>
    <time>2026-06-20T13:17:25Z</time>
   </trkpt>
   <trkpt lat="-3.1431010" lon="37.2987470">
    <ele>2404.0</ele>
    <time>2026-06-20T13:17:26Z</time>
   </trkpt>
   <trkpt lat="-3.1430970" lon="37.2987540">
    <ele>2404.1</ele>
    <time>2026-06-20T13:17:27Z</time>
   </trkpt>
   <trkpt lat="-3.1430980" lon="37.2987620">
    <ele>2404.3</ele>
    <time>2026-06-20T13:17:28Z</time>
   </trkpt>
   <trkpt lat="-3.1430980" lon="37.2987630">
    <ele>2404.3</ele>
    <time>2026-06-20T13:17:29Z</time>
   </trkpt>
   <trkpt lat="-3.1430960" lon="37.2987670">
    <ele>2404.3</ele>
    <time>2026-06-20T13:17:30Z</time>
   </trkpt>
   <trkpt lat="-3.1430920" lon="37.2987740">
    <ele>2404.5</ele>
    <time>2026-06-20T13:17:31Z</time>
   </trkpt>
   <trkpt lat="-3.1430880" lon="37.2987780">
    <ele>2404.6</ele>
    <time>2026-06-20T13:17:32Z</time>
   </trkpt>
   <trkpt lat="-3.1430810" lon="37.2987870">
    <ele>2404.8</ele>
    <time>2026-06-20T13:17:33Z</time>
   </trkpt>
   <trkpt lat="-3.1430710" lon="37.2987910">
    <ele>2404.9</ele>
    <time>2026-06-20T13:17:34Z</time>
   </trkpt>
   <trkpt lat="-3.1430670" lon="37.2987940">
    <ele>2405.0</ele>
    <time>2026-06-20T13:17:35Z</time>
   </trkpt>
   <trkpt lat="-3.1430630" lon="37.2988000">
    <ele>2405.1</ele>
    <time>2026-06-20T13:17:36Z</time>
   </trkpt>
   <trkpt lat="-3.1430550" lon="37.2988000">
    <ele>2405.3</ele>
    <time>2026-06-20T13:17:37Z</time>
   </trkpt>
   <trkpt lat="-3.1430480" lon="37.2988010">
    <ele>2405.4</ele>
    <time>2026-06-20T13:17:38Z</time>
   </trkpt>
   <trkpt lat="-3.1430460" lon="37.2988000">
    <ele>2405.4</ele>
    <time>2026-06-20T13:17:39Z</time>
   </trkpt>
   <trkpt lat="-3.1430440" lon="37.2987990">
    <ele>2405.4</ele>
    <time>2026-06-20T13:17:40Z</time>
   </trkpt>
   <trkpt lat="-3.1430400" lon="37.2987930">
    <ele>2405.6</ele>
    <time>2026-06-20T13:17:41Z</time>
   </trkpt>
   <trkpt lat="-3.1430360" lon="37.2987920">
    <ele>2405.6</ele>
    <time>2026-06-20T13:17:42Z</time>
   </trkpt>
   <trkpt lat="-3.1430290" lon="37.2987950">
    <ele>2405.8</ele>
    <time>2026-06-20T13:17:43Z</time>
   </trkpt>
   <trkpt lat="-3.1430220" lon="37.2987950">
    <ele>2405.9</ele>
    <time>2026-06-20T13:17:44Z</time>
   </trkpt>
   <trkpt lat="-3.1430180" lon="37.2988010">
    <ele>2406.0</ele>
    <time>2026-06-20T13:17:45Z</time>
   </trkpt>
   <trkpt lat="-3.1430120" lon="37.2988030">
    <ele>2406.1</ele>
    <time>2026-06-20T13:17:46Z</time>
   </trkpt>
   <trkpt lat="-3.1430070" lon="37.2988020">
    <ele>2406.2</ele>
    <time>2026-06-20T13:17:47Z</time>
   </trkpt>
   <trkpt lat="-3.1429990" lon="37.2988050">
    <ele>2406.3</ele>
    <time>2026-06-20T13:17:48Z</time>
   </trkpt>
   <trkpt lat="-3.1429940" lon="37.2988110">
    <ele>2406.4</ele>
    <time>2026-06-20T13:17:49Z</time>
   </trkpt>
   <trkpt lat="-3.1429850" lon="37.2988220">
    <ele>2406.7</ele>
    <time>2026-06-20T13:17:50Z</time>
   </trkpt>
   <trkpt lat="-3.1429780" lon="37.2988250">
    <ele>2406.8</ele>
    <time>2026-06-20T13:17:51Z</time>
   </trkpt>
   <trkpt lat="-3.1429750" lon="37.2988290">
    <ele>2406.9</ele>
    <time>2026-06-20T13:17:52Z</time>
   </trkpt>
   <trkpt lat="-3.1429700" lon="37.2988310">
    <ele>2407.0</ele>
    <time>2026-06-20T13:17:53Z</time>
   </trkpt>
   <trkpt lat="-3.1429650" lon="37.2988400">
    <ele>2407.1</ele>
    <time>2026-06-20T13:17:54Z</time>
   </trkpt>
   <trkpt lat="-3.1429580" lon="37.2988470">
    <ele>2407.3</ele>
    <time>2026-06-20T13:17:55Z</time>
   </trkpt>
   <trkpt lat="-3.1429560" lon="37.2988480">
    <ele>2407.3</ele>
    <time>2026-06-20T13:17:56Z</time>
   </trkpt>
   <trkpt lat="-3.1429510" lon="37.2988510">
    <ele>2407.4</ele>
    <time>2026-06-20T13:17:57Z</time>
   </trkpt>
   <trkpt lat="-3.1429450" lon="37.2988530">
    <ele>2407.5</ele>
    <time>2026-06-20T13:17:58Z</time>
   </trkpt>
   <trkpt lat="-3.1429460" lon="37.2988570">
    <ele>2407.6</ele>
    <time>2026-06-20T13:17:59Z</time>
   </trkpt>
   <trkpt lat="-3.1429470" lon="37.2988640">
    <ele>2407.7</ele>
    <time>2026-06-20T13:18:00Z</time>
   </trkpt>
   <trkpt lat="-3.1429460" lon="37.2988690">
    <ele>2407.8</ele>
    <time>2026-06-20T13:18:01Z</time>
   </trkpt>
   <trkpt lat="-3.1429490" lon="37.2988770">
    <ele>2407.9</ele>
    <time>2026-06-20T13:18:02Z</time>
   </trkpt>
   <trkpt lat="-3.1429540" lon="37.2988840">
    <ele>2408.1</ele>
    <time>2026-06-20T13:18:03Z</time>
   </trkpt>
   <trkpt lat="-3.1429570" lon="37.2988890">
    <ele>2408.2</ele>
    <time>2026-06-20T13:18:04Z</time>
   </trkpt>
   <trkpt lat="-3.1429590" lon="37.2988910">
    <ele>2408.2</ele>
    <time>2026-06-20T13:18:05Z</time>
   </trkpt>
   <trkpt lat="-3.1429630" lon="37.2988950">
    <ele>2408.3</ele>
    <time>2026-06-20T13:18:06Z</time>
   </trkpt>
   <trkpt lat="-3.1429590" lon="37.2989000">
    <ele>2408.4</ele>
    <time>2026-06-20T13:18:07Z</time>
   </trkpt>
   <trkpt lat="-3.1429600" lon="37.2989040">
    <ele>2408.5</ele>
    <time>2026-06-20T13:18:08Z</time>
   </trkpt>
   <trkpt lat="-3.1429610" lon="37.2989060">
    <ele>2408.5</ele>
    <time>2026-06-20T13:18:09Z</time>
   </trkpt>
   <trkpt lat="-3.1429570" lon="37.2989130">
    <ele>2408.7</ele>
    <time>2026-06-20T13:18:10Z</time>
   </trkpt>
   <trkpt lat="-3.1429560" lon="37.2989170">
    <ele>2408.7</ele>
    <time>2026-06-20T13:18:11Z</time>
   </trkpt>
   <trkpt lat="-3.1429480" lon="37.2989190">
    <ele>2408.9</ele>
    <time>2026-06-20T13:18:12Z</time>
   </trkpt>
   <trkpt lat="-3.1429460" lon="37.2989190">
    <ele>2408.9</ele>
    <time>2026-06-20T13:18:13Z</time>
   </trkpt>
   <trkpt lat="-3.1429430" lon="37.2989240">
    <ele>2409.0</ele>
    <time>2026-06-20T13:18:14Z</time>
   </trkpt>
   <trkpt lat="-3.1429390" lon="37.2989300">
    <ele>2409.1</ele>
    <time>2026-06-20T13:18:15Z</time>
   </trkpt>
   <trkpt lat="-3.1429280" lon="37.2989380">
    <ele>2409.3</ele>
    <time>2026-06-20T13:18:16Z</time>
   </trkpt>
   <trkpt lat="-3.1429250" lon="37.2989400">
    <ele>2409.4</ele>
    <time>2026-06-20T13:18:17Z</time>
   </trkpt>
   <trkpt lat="-3.1429180" lon="37.2989440">
    <ele>2409.5</ele>
    <time>2026-06-20T13:18:18Z</time>
   </trkpt>
   <trkpt lat="-3.1429080" lon="37.2989510">
    <ele>2409.7</ele>
    <time>2026-06-20T13:18:19Z</time>
   </trkpt>
   <trkpt lat="-3.1429040" lon="37.2989570">
    <ele>2409.8</ele>
    <time>2026-06-20T13:18:20Z</time>
   </trkpt>
   <trkpt lat="-3.1429030" lon="37.2989540">
    <ele>2409.8</ele>
    <time>2026-06-20T13:18:21Z</time>
   </trkpt>
   <trkpt lat="-3.1429000" lon="37.2989550">
    <ele>2409.9</ele>
    <time>2026-06-20T13:18:22Z</time>
   </trkpt>
   <trkpt lat="-3.1428990" lon="37.2989560">
    <ele>2409.9</ele>
    <time>2026-06-20T13:18:23Z</time>
   </trkpt>
   <trkpt lat="-3.1428910" lon="37.2989550">
    <ele>2410.0</ele>
    <time>2026-06-20T13:18:24Z</time>
   </trkpt>
   <trkpt lat="-3.1428860" lon="37.2989540">
    <ele>2410.1</ele>
    <time>2026-06-20T13:18:25Z</time>
   </trkpt>
   <trkpt lat="-3.1428830" lon="37.2989660">
    <ele>2410.3</ele>
    <time>2026-06-20T13:18:26Z</time>
   </trkpt>
   <trkpt lat="-3.1428800" lon="37.2989710">
    <ele>2410.4</ele>
    <time>2026-06-20T13:18:27Z</time>
   </trkpt>
   <trkpt lat="-3.1428740" lon="37.2989750">
    <ele>2410.5</ele>
    <time>2026-06-20T13:18:28Z</time>
   </trkpt>
   <trkpt lat="-3.1428660" lon="37.2989800">
    <ele>2410.6</ele>
    <time>2026-06-20T13:18:29Z</time>
   </trkpt>
   <trkpt lat="-3.1428660" lon="37.2989830">
    <ele>2410.7</ele>
    <time>2026-06-20T13:18:30Z</time>
   </trkpt>
   <trkpt lat="-3.1428650" lon="37.2989840">
    <ele>2410.7</ele>
    <time>2026-06-20T13:18:31Z</time>
   </trkpt>
   <trkpt lat="-3.1428590" lon="37.2989890">
    <ele>2410.8</ele>
    <time>2026-06-20T13:18:32Z</time>
   </trkpt>
   <trkpt lat="-3.1428560" lon="37.2989870">
    <ele>2410.8</ele>
    <time>2026-06-20T13:18:33Z</time>
   </trkpt>
   <trkpt lat="-3.1428480" lon="37.2989970">
    <ele>2411.0</ele>
    <time>2026-06-20T13:18:34Z</time>
   </trkpt>
   <trkpt lat="-3.1428430" lon="37.2990010">
    <ele>2411.1</ele>
    <time>2026-06-20T13:18:35Z</time>
   </trkpt>
   <trkpt lat="-3.1428350" lon="37.2990050">
    <ele>2411.2</ele>
    <time>2026-06-20T13:18:36Z</time>
   </trkpt>
   <trkpt lat="-3.1428370" lon="37.2990050">
    <ele>2411.3</ele>
    <time>2026-06-20T13:18:37Z</time>
   </trkpt>
   <trkpt lat="-3.1428280" lon="37.2990090">
    <ele>2411.4</ele>
    <time>2026-06-20T13:18:38Z</time>
   </trkpt>
   <trkpt lat="-3.1428220" lon="37.2990180">
    <ele>2411.6</ele>
    <time>2026-06-20T13:18:39Z</time>
   </trkpt>
   <trkpt lat="-3.1428130" lon="37.2990150">
    <ele>2411.7</ele>
    <time>2026-06-20T13:18:40Z</time>
   </trkpt>
   <trkpt lat="-3.1428110" lon="37.2990170">
    <ele>2411.7</ele>
    <time>2026-06-20T13:18:41Z</time>
   </trkpt>
   <trkpt lat="-3.1428100" lon="37.2990240">
    <ele>2411.8</ele>
    <time>2026-06-20T13:18:42Z</time>
   </trkpt>
   <trkpt lat="-3.1428040" lon="37.2990270">
    <ele>2411.9</ele>
    <time>2026-06-20T13:18:43Z</time>
   </trkpt>
   <trkpt lat="-3.1428110" lon="37.2990330">
    <ele>2412.0</ele>
    <time>2026-06-20T13:18:44Z</time>
   </trkpt>
   <trkpt lat="-3.1428100" lon="37.2990350">
    <ele>2412.1</ele>
    <time>2026-06-20T13:18:45Z</time>
   </trkpt>
   <trkpt lat="-3.1428050" lon="37.2990360">
    <ele>2412.1</ele>
    <time>2026-06-20T13:18:46Z</time>
   </trkpt>
   <trkpt lat="-3.1428020" lon="37.2990380">
    <ele>2412.2</ele>
    <time>2026-06-20T13:18:47Z</time>
   </trkpt>
   <trkpt lat="-3.1428010" lon="37.2990340">
    <ele>2412.2</ele>
    <time>2026-06-20T13:18:48Z</time>
   </trkpt>
   <trkpt lat="-3.1428010" lon="37.2990390">
    <ele>2412.3</ele>
    <time>2026-06-20T13:18:49Z</time>
   </trkpt>
   <trkpt lat="-3.1428030" lon="37.2990450">
    <ele>2412.4</ele>
    <time>2026-06-20T13:18:50Z</time>
   </trkpt>
   <trkpt lat="-3.1428020" lon="37.2990490">
    <ele>2412.4</ele>
    <time>2026-06-20T13:18:51Z</time>
   </trkpt>
   <trkpt lat="-3.1427910" lon="37.2990580">
    <ele>2412.6</ele>
    <time>2026-06-20T13:18:52Z</time>
   </trkpt>
   <trkpt lat="-3.1427870" lon="37.2990650">
    <ele>2412.7</ele>
    <time>2026-06-20T13:18:53Z</time>
   </trkpt>
   <trkpt lat="-3.1427840" lon="37.2990710">
    <ele>2412.8</ele>
    <time>2026-06-20T13:18:54Z</time>
   </trkpt>
   <trkpt lat="-3.1427740" lon="37.2990730">
    <ele>2412.9</ele>
    <time>2026-06-20T13:18:55Z</time>
   </trkpt>
   <trkpt lat="-3.1427710" lon="37.2990800">
    <ele>2413.1</ele>
    <time>2026-06-20T13:18:56Z</time>
   </trkpt>
   <trkpt lat="-3.1427660" lon="37.2990850">
    <ele>2413.1</ele>
    <time>2026-06-20T13:18:57Z</time>
   </trkpt>
   <trkpt lat="-3.1427590" lon="37.2990890">
    <ele>2413.3</ele>
    <time>2026-06-20T13:18:58Z</time>
   </trkpt>
   <trkpt lat="-3.1427580" lon="37.2990960">
    <ele>2413.3</ele>
    <time>2026-06-20T13:18:59Z</time>
   </trkpt>
   <trkpt lat="-3.1427580" lon="37.2990950">
    <ele>2413.4</ele>
    <time>2026-06-20T13:19:00Z</time>
   </trkpt>
   <trkpt lat="-3.1427670" lon="37.2990970">
    <ele>2413.5</ele>
    <time>2026-06-20T13:19:01Z</time>
   </trkpt>
   <trkpt lat="-3.1427680" lon="37.2991030">
    <ele>2413.6</ele>
    <time>2026-06-20T13:19:02Z</time>
   </trkpt>
   <trkpt lat="-3.1427640" lon="37.2991100">
    <ele>2413.7</ele>
    <time>2026-06-20T13:19:03Z</time>
   </trkpt>
   <trkpt lat="-3.1427650" lon="37.2991170">
    <ele>2413.8</ele>
    <time>2026-06-20T13:19:04Z</time>
   </trkpt>
   <trkpt lat="-3.1427630" lon="37.2991260">
    <ele>2413.9</ele>
    <time>2026-06-20T13:19:05Z</time>
   </trkpt>
   <trkpt lat="-3.1427600" lon="37.2991310">
    <ele>2414.0</ele>
    <time>2026-06-20T13:19:06Z</time>
   </trkpt>
   <trkpt lat="-3.1427580" lon="37.2991360">
    <ele>2414.0</ele>
    <time>2026-06-20T13:19:07Z</time>
   </trkpt>
   <trkpt lat="-3.1427560" lon="37.2991450">
    <ele>2414.2</ele>
    <time>2026-06-20T13:19:08Z</time>
   </trkpt>
   <trkpt lat="-3.1427520" lon="37.2991510">
    <ele>2414.3</ele>
    <time>2026-06-20T13:19:09Z</time>
   </trkpt>
   <trkpt lat="-3.1427550" lon="37.2991600">
    <ele>2414.4</ele>
    <time>2026-06-20T13:19:10Z</time>
   </trkpt>
   <trkpt lat="-3.1427530" lon="37.2991630">
    <ele>2414.5</ele>
    <time>2026-06-20T13:19:11Z</time>
   </trkpt>
   <trkpt lat="-3.1427530" lon="37.2991690">
    <ele>2414.5</ele>
    <time>2026-06-20T13:19:12Z</time>
   </trkpt>
   <trkpt lat="-3.1427420" lon="37.2991820">
    <ele>2414.8</ele>
    <time>2026-06-20T13:19:13Z</time>
   </trkpt>
   <trkpt lat="-3.1427380" lon="37.2991910">
    <ele>2414.9</ele>
    <time>2026-06-20T13:19:14Z</time>
   </trkpt>
   <trkpt lat="-3.1427410" lon="37.2991950">
    <ele>2415.0</ele>
    <time>2026-06-20T13:19:16Z</time>
   </trkpt>
   <trkpt lat="-3.1427390" lon="37.2991980">
    <ele>2415.1</ele>
    <time>2026-06-20T13:19:17Z</time>
   </trkpt>
   <trkpt lat="-3.1427390" lon="37.2992010">
    <ele>2415.1</ele>
    <time>2026-06-20T13:19:18Z</time>
   </trkpt>
   <trkpt lat="-3.1427400" lon="37.2992080">
    <ele>2415.2</ele>
    <time>2026-06-20T13:19:19Z</time>
   </trkpt>
   <trkpt lat="-3.1427400" lon="37.2992070">
    <ele>2415.2</ele>
    <time>2026-06-20T13:19:20Z</time>
   </trkpt>
   <trkpt lat="-3.1427440" lon="37.2992080">
    <ele>2415.3</ele>
    <time>2026-06-20T13:19:21Z</time>
   </trkpt>
   <trkpt lat="-3.1427480" lon="37.2992110">
    <ele>2415.4</ele>
    <time>2026-06-20T13:19:22Z</time>
   </trkpt>
   <trkpt lat="-3.1427420" lon="37.2992140">
    <ele>2415.5</ele>
    <time>2026-06-20T13:19:23Z</time>
   </trkpt>
   <trkpt lat="-3.1427350" lon="37.2992210">
    <ele>2415.7</ele>
    <time>2026-06-20T13:19:24Z</time>
   </trkpt>
   <trkpt lat="-3.1427360" lon="37.2992230">
    <ele>2415.7</ele>
    <time>2026-06-20T13:19:25Z</time>
   </trkpt>
   <trkpt lat="-3.1427320" lon="37.2992290">
    <ele>2415.8</ele>
    <time>2026-06-20T13:19:26Z</time>
   </trkpt>
   <trkpt lat="-3.1427280" lon="37.2992290">
    <ele>2415.9</ele>
    <time>2026-06-20T13:19:27Z</time>
   </trkpt>
   <trkpt lat="-3.1427250" lon="37.2992300">
    <ele>2415.9</ele>
    <time>2026-06-20T13:19:28Z</time>
   </trkpt>
   <trkpt lat="-3.1427210" lon="37.2992270">
    <ele>2416.0</ele>
    <time>2026-06-20T13:19:29Z</time>
   </trkpt>
   <trkpt lat="-3.1427150" lon="37.2992360">
    <ele>2416.2</ele>
    <time>2026-06-20T13:19:30Z</time>
   </trkpt>
   <trkpt lat="-3.1427090" lon="37.2992450">
    <ele>2416.3</ele>
    <time>2026-06-20T13:19:31Z</time>
   </trkpt>
   <trkpt lat="-3.1427060" lon="37.2992460">
    <ele>2416.4</ele>
    <time>2026-06-20T13:19:32Z</time>
   </trkpt>
   <trkpt lat="-3.1427040" lon="37.2992490">
    <ele>2416.4</ele>
    <time>2026-06-20T13:19:33Z</time>
   </trkpt>
   <trkpt lat="-3.1427100" lon="37.2992490">
    <ele>2416.5</ele>
    <time>2026-06-20T13:19:34Z</time>
   </trkpt>
   <trkpt lat="-3.1427160" lon="37.2992540">
    <ele>2416.7</ele>
    <time>2026-06-20T13:19:35Z</time>
   </trkpt>
   <trkpt lat="-3.1427050" lon="37.2992630">
    <ele>2416.9</ele>
    <time>2026-06-20T13:19:36Z</time>
   </trkpt>
   <trkpt lat="-3.1427050" lon="37.2992710">
    <ele>2417.0</ele>
    <time>2026-06-20T13:19:37Z</time>
   </trkpt>
   <trkpt lat="-3.1427090" lon="37.2992750">
    <ele>2417.1</ele>
    <time>2026-06-20T13:19:38Z</time>
   </trkpt>
   <trkpt lat="-3.1427090" lon="37.2992790">
    <ele>2417.2</ele>
    <time>2026-06-20T13:19:39Z</time>
   </trkpt>
   <trkpt lat="-3.1427020" lon="37.2992870">
    <ele>2417.4</ele>
    <time>2026-06-20T13:19:40Z</time>
   </trkpt>
   <trkpt lat="-3.1426990" lon="37.2992870">
    <ele>2417.4</ele>
    <time>2026-06-20T13:19:41Z</time>
   </trkpt>
   <trkpt lat="-3.1426920" lon="37.2992890">
    <ele>2417.6</ele>
    <time>2026-06-20T13:19:42Z</time>
   </trkpt>
   <trkpt lat="-3.1426880" lon="37.2992910">
    <ele>2417.6</ele>
    <time>2026-06-20T13:19:43Z</time>
   </trkpt>
   <trkpt lat="-3.1426800" lon="37.2992900">
    <ele>2417.8</ele>
    <time>2026-06-20T13:19:44Z</time>
   </trkpt>
   <trkpt lat="-3.1426680" lon="37.2992930">
    <ele>2418.0</ele>
    <time>2026-06-20T13:19:45Z</time>
   </trkpt>
   <trkpt lat="-3.1426610" lon="37.2992900">
    <ele>2418.1</ele>
    <time>2026-06-20T13:19:46Z</time>
   </trkpt>
   <trkpt lat="-3.1426590" lon="37.2992930">
    <ele>2418.2</ele>
    <time>2026-06-20T13:19:47Z</time>
   </trkpt>
   <trkpt lat="-3.1426510" lon="37.2992940">
    <ele>2418.3</ele>
    <time>2026-06-20T13:19:48Z</time>
   </trkpt>
   <trkpt lat="-3.1426450" lon="37.2992980">
    <ele>2418.4</ele>
    <time>2026-06-20T13:19:49Z</time>
   </trkpt>
   <trkpt lat="-3.1426380" lon="37.2993080">
    <ele>2418.6</ele>
    <time>2026-06-20T13:19:50Z</time>
   </trkpt>
   <trkpt lat="-3.1426370" lon="37.2993130">
    <ele>2418.7</ele>
    <time>2026-06-20T13:19:51Z</time>
   </trkpt>
   <trkpt lat="-3.1426400" lon="37.2993140">
    <ele>2418.8</ele>
    <time>2026-06-20T13:19:52Z</time>
   </trkpt>
   <trkpt lat="-3.1426420" lon="37.2993170">
    <ele>2418.8</ele>
    <time>2026-06-20T13:19:53Z</time>
   </trkpt>
   <trkpt lat="-3.1426410" lon="37.2993170">
    <ele>2418.9</ele>
    <time>2026-06-20T13:19:54Z</time>
   </trkpt>
   <trkpt lat="-3.1426390" lon="37.2993200">
    <ele>2418.9</ele>
    <time>2026-06-20T13:19:55Z</time>
   </trkpt>
   <trkpt lat="-3.1426360" lon="37.2993210">
    <ele>2419.0</ele>
    <time>2026-06-20T13:19:56Z</time>
   </trkpt>
   <trkpt lat="-3.1426340" lon="37.2993220">
    <ele>2419.0</ele>
    <time>2026-06-20T13:19:57Z</time>
   </trkpt>
   <trkpt lat="-3.1426320" lon="37.2993260">
    <ele>2419.1</ele>
    <time>2026-06-20T13:19:58Z</time>
   </trkpt>
   <trkpt lat="-3.1426310" lon="37.2993270">
    <ele>2419.1</ele>
    <time>2026-06-20T13:19:59Z</time>
   </trkpt>
   <trkpt lat="-3.1426320" lon="37.2993320">
    <ele>2419.2</ele>
    <time>2026-06-20T13:20:00Z</time>
   </trkpt>
   <trkpt lat="-3.1426300" lon="37.2993430">
    <ele>2419.4</ele>
    <time>2026-06-20T13:20:01Z</time>
   </trkpt>
   <trkpt lat="-3.1426240" lon="37.2993540">
    <ele>2419.6</ele>
    <time>2026-06-20T13:20:02Z</time>
   </trkpt>
   <trkpt lat="-3.1426090" lon="37.2993550">
    <ele>2419.8</ele>
    <time>2026-06-20T13:20:03Z</time>
   </trkpt>
   <trkpt lat="-3.1426030" lon="37.2993710">
    <ele>2420.1</ele>
    <time>2026-06-20T13:20:04Z</time>
   </trkpt>
   <trkpt lat="-3.1425940" lon="37.2993880">
    <ele>2420.4</ele>
    <time>2026-06-20T13:20:05Z</time>
   </trkpt>
   <trkpt lat="-3.1425870" lon="37.2993980">
    <ele>2420.6</ele>
    <time>2026-06-20T13:20:06Z</time>
   </trkpt>
   <trkpt lat="-3.1425830" lon="37.2993970">
    <ele>2420.6</ele>
    <time>2026-06-20T13:20:07Z</time>
   </trkpt>
   <trkpt lat="-3.1425830" lon="37.2994000">
    <ele>2420.7</ele>
    <time>2026-06-20T13:20:08Z</time>
   </trkpt>
   <trkpt lat="-3.1425770" lon="37.2994060">
    <ele>2420.8</ele>
    <time>2026-06-20T13:20:09Z</time>
   </trkpt>
   <trkpt lat="-3.1425690" lon="37.2994140">
    <ele>2421.0</ele>
    <time>2026-06-20T13:20:10Z</time>
   </trkpt>
   <trkpt lat="-3.1425660" lon="37.2994190">
    <ele>2421.1</ele>
    <time>2026-06-20T13:20:11Z</time>
   </trkpt>
   <trkpt lat="-3.1425530" lon="37.2994260">
    <ele>2421.3</ele>
    <time>2026-06-20T13:20:12Z</time>
   </trkpt>
   <trkpt lat="-3.1425510" lon="37.2994310">
    <ele>2421.4</ele>
    <time>2026-06-20T13:20:13Z</time>
   </trkpt>
   <trkpt lat="-3.1425430" lon="37.2994370">
    <ele>2421.6</ele>
    <time>2026-06-20T13:20:14Z</time>
   </trkpt>
   <trkpt lat="-3.1425400" lon="37.2994440">
    <ele>2421.7</ele>
    <time>2026-06-20T13:20:15Z</time>
   </trkpt>
   <trkpt lat="-3.1425370" lon="37.2994510">
    <ele>2421.8</ele>
    <time>2026-06-20T13:20:16Z</time>
   </trkpt>
   <trkpt lat="-3.1425340" lon="37.2994580">
    <ele>2421.9</ele>
    <time>2026-06-20T13:20:17Z</time>
   </trkpt>
   <trkpt lat="-3.1425360" lon="37.2994650">
    <ele>2422.0</ele>
    <time>2026-06-20T13:20:18Z</time>
   </trkpt>
   <trkpt lat="-3.1425390" lon="37.2994650">
    <ele>2422.1</ele>
    <time>2026-06-20T13:20:19Z</time>
   </trkpt>
   <trkpt lat="-3.1425370" lon="37.2994680">
    <ele>2422.1</ele>
    <time>2026-06-20T13:20:20Z</time>
   </trkpt>
   <trkpt lat="-3.1425320" lon="37.2994720">
    <ele>2422.2</ele>
    <time>2026-06-20T13:20:21Z</time>
   </trkpt>
   <trkpt lat="-3.1425310" lon="37.2994770">
    <ele>2422.3</ele>
    <time>2026-06-20T13:20:22Z</time>
   </trkpt>
   <trkpt lat="-3.1425300" lon="37.2994760">
    <ele>2422.3</ele>
    <time>2026-06-20T13:20:23Z</time>
   </trkpt>
   <trkpt lat="-3.1425260" lon="37.2994790">
    <ele>2422.4</ele>
    <time>2026-06-20T13:20:24Z</time>
   </trkpt>
   <trkpt lat="-3.1425270" lon="37.2994830">
    <ele>2422.5</ele>
    <time>2026-06-20T13:20:25Z</time>
   </trkpt>
   <trkpt lat="-3.1425160" lon="37.2994890">
    <ele>2422.7</ele>
    <time>2026-06-20T13:20:26Z</time>
   </trkpt>
   <trkpt lat="-3.1425180" lon="37.2994940">
    <ele>2422.8</ele>
    <time>2026-06-20T13:20:27Z</time>
   </trkpt>
   <trkpt lat="-3.1425160" lon="37.2995020">
    <ele>2422.9</ele>
    <time>2026-06-20T13:20:28Z</time>
   </trkpt>
   <trkpt lat="-3.1425160" lon="37.2995040">
    <ele>2422.9</ele>
    <time>2026-06-20T13:20:29Z</time>
   </trkpt>
   <trkpt lat="-3.1425110" lon="37.2995060">
    <ele>2423.0</ele>
    <time>2026-06-20T13:20:30Z</time>
   </trkpt>
   <trkpt lat="-3.1425120" lon="37.2995100">
    <ele>2423.1</ele>
    <time>2026-06-20T13:20:31Z</time>
   </trkpt>
   <trkpt lat="-3.1425130" lon="37.2995110">
    <ele>2423.1</ele>
    <time>2026-06-20T13:20:32Z</time>
   </trkpt>
   <trkpt lat="-3.1425110" lon="37.2995170">
    <ele>2423.2</ele>
    <time>2026-06-20T13:20:33Z</time>
   </trkpt>
   <trkpt lat="-3.1425090" lon="37.2995240">
    <ele>2423.3</ele>
    <time>2026-06-20T13:20:34Z</time>
   </trkpt>
   <trkpt lat="-3.1425040" lon="37.2995330">
    <ele>2423.5</ele>
    <time>2026-06-20T13:20:35Z</time>
   </trkpt>
   <trkpt lat="-3.1424970" lon="37.2995400">
    <ele>2423.6</ele>
    <time>2026-06-20T13:20:36Z</time>
   </trkpt>
   <trkpt lat="-3.1424910" lon="37.2995410">
    <ele>2423.7</ele>
    <time>2026-06-20T13:20:37Z</time>
   </trkpt>
   <trkpt lat="-3.1424820" lon="37.2995440">
    <ele>2423.9</ele>
    <time>2026-06-20T13:20:38Z</time>
   </trkpt>
   <trkpt lat="-3.1424740" lon="37.2995470">
    <ele>2424.0</ele>
    <time>2026-06-20T13:20:39Z</time>
   </trkpt>
   <trkpt lat="-3.1424680" lon="37.2995550">
    <ele>2424.2</ele>
    <time>2026-06-20T13:20:40Z</time>
   </trkpt>
   <trkpt lat="-3.1424640" lon="37.2995590">
    <ele>2424.3</ele>
    <time>2026-06-20T13:20:41Z</time>
   </trkpt>
   <trkpt lat="-3.1424620" lon="37.2995600">
    <ele>2424.3</ele>
    <time>2026-06-20T13:20:42Z</time>
   </trkpt>
   <trkpt lat="-3.1424580" lon="37.2995630">
    <ele>2424.4</ele>
    <time>2026-06-20T13:20:43Z</time>
   </trkpt>
   <trkpt lat="-3.1424550" lon="37.2995600">
    <ele>2424.5</ele>
    <time>2026-06-20T13:20:44Z</time>
   </trkpt>
   <trkpt lat="-3.1424520" lon="37.2995590">
    <ele>2424.5</ele>
    <time>2026-06-20T13:20:45Z</time>
   </trkpt>
   <trkpt lat="-3.1424480" lon="37.2995590">
    <ele>2424.6</ele>
    <time>2026-06-20T13:20:46Z</time>
   </trkpt>
   <trkpt lat="-3.1424390" lon="37.2995610">
    <ele>2424.8</ele>
    <time>2026-06-20T13:20:47Z</time>
   </trkpt>
   <trkpt lat="-3.1424400" lon="37.2995630">
    <ele>2424.8</ele>
    <time>2026-06-20T13:20:48Z</time>
   </trkpt>
   <trkpt lat="-3.1424420" lon="37.2995650">
    <ele>2424.8</ele>
    <time>2026-06-20T13:20:49Z</time>
   </trkpt>
   <trkpt lat="-3.1424400" lon="37.2995710">
    <ele>2424.9</ele>
    <time>2026-06-20T13:20:50Z</time>
   </trkpt>
   <trkpt lat="-3.1424470" lon="37.2995610">
    <ele>2425.1</ele>
    <time>2026-06-20T13:20:51Z</time>
   </trkpt>
   <trkpt lat="-3.1424470" lon="37.2995650">
    <ele>2425.2</ele>
    <time>2026-06-20T13:20:52Z</time>
   </trkpt>
   <trkpt lat="-3.1424440" lon="37.2995740">
    <ele>2425.4</ele>
    <time>2026-06-20T13:20:53Z</time>
   </trkpt>
   <trkpt lat="-3.1424490" lon="37.2995790">
    <ele>2425.5</ele>
    <time>2026-06-20T13:20:54Z</time>
   </trkpt>
   <trkpt lat="-3.1424490" lon="37.2995850">
    <ele>2425.6</ele>
    <time>2026-06-20T13:20:55Z</time>
   </trkpt>
   <trkpt lat="-3.1424470" lon="37.2995950">
    <ele>2425.7</ele>
    <time>2026-06-20T13:20:56Z</time>
   </trkpt>
   <trkpt lat="-3.1424450" lon="37.2996030">
    <ele>2425.9</ele>
    <time>2026-06-20T13:20:57Z</time>
   </trkpt>
   <trkpt lat="-3.1424400" lon="37.2996080">
    <ele>2426.0</ele>
    <time>2026-06-20T13:20:58Z</time>
   </trkpt>
   <trkpt lat="-3.1424320" lon="37.2996140">
    <ele>2426.2</ele>
    <time>2026-06-20T13:20:59Z</time>
   </trkpt>
   <trkpt lat="-3.1424270" lon="37.2996200">
    <ele>2426.3</ele>
    <time>2026-06-20T13:21:00Z</time>
   </trkpt>
   <trkpt lat="-3.1424190" lon="37.2996310">
    <ele>2426.6</ele>
    <time>2026-06-20T13:21:01Z</time>
   </trkpt>
   <trkpt lat="-3.1424140" lon="37.2996350">
    <ele>2426.7</ele>
    <time>2026-06-20T13:21:02Z</time>
   </trkpt>
   <trkpt lat="-3.1424080" lon="37.2996420">
    <ele>2426.8</ele>
    <time>2026-06-20T13:21:03Z</time>
   </trkpt>
   <trkpt lat="-3.1424060" lon="37.2996400">
    <ele>2426.9</ele>
    <time>2026-06-20T13:21:04Z</time>
   </trkpt>
   <trkpt lat="-3.1424040" lon="37.2996480">
    <ele>2427.0</ele>
    <time>2026-06-20T13:21:05Z</time>
   </trkpt>
   <trkpt lat="-3.1424040" lon="37.2996500">
    <ele>2427.0</ele>
    <time>2026-06-20T13:21:06Z</time>
   </trkpt>
   <trkpt lat="-3.1423970" lon="37.2996570">
    <ele>2427.2</ele>
    <time>2026-06-20T13:21:07Z</time>
   </trkpt>
   <trkpt lat="-3.1423940" lon="37.2996650">
    <ele>2427.4</ele>
    <time>2026-06-20T13:21:08Z</time>
   </trkpt>
   <trkpt lat="-3.1423860" lon="37.2996760">
    <ele>2427.6</ele>
    <time>2026-06-20T13:21:09Z</time>
   </trkpt>
   <trkpt lat="-3.1423810" lon="37.2996840">
    <ele>2427.8</ele>
    <time>2026-06-20T13:21:10Z</time>
   </trkpt>
   <trkpt lat="-3.1423750" lon="37.2996880">
    <ele>2427.9</ele>
    <time>2026-06-20T13:21:11Z</time>
   </trkpt>
   <trkpt lat="-3.1423690" lon="37.2996870">
    <ele>2428.0</ele>
    <time>2026-06-20T13:21:12Z</time>
   </trkpt>
   <trkpt lat="-3.1423630" lon="37.2996810">
    <ele>2428.1</ele>
    <time>2026-06-20T13:21:13Z</time>
   </trkpt>
   <trkpt lat="-3.1423560" lon="37.2996800">
    <ele>2428.3</ele>
    <time>2026-06-20T13:21:14Z</time>
   </trkpt>
   <trkpt lat="-3.1423510" lon="37.2996770">
    <ele>2428.4</ele>
    <time>2026-06-20T13:21:15Z</time>
   </trkpt>
   <trkpt lat="-3.1423450" lon="37.2996740">
    <ele>2428.5</ele>
    <time>2026-06-20T13:21:16Z</time>
   </trkpt>
   <trkpt lat="-3.1423430" lon="37.2996720">
    <ele>2428.5</ele>
    <time>2026-06-20T13:21:17Z</time>
   </trkpt>
   <trkpt lat="-3.1423380" lon="37.2996720">
    <ele>2428.6</ele>
    <time>2026-06-20T13:21:18Z</time>
   </trkpt>
   <trkpt lat="-3.1423300" lon="37.2996730">
    <ele>2428.7</ele>
    <time>2026-06-20T13:21:19Z</time>
   </trkpt>
   <trkpt lat="-3.1423240" lon="37.2996860">
    <ele>2429.0</ele>
    <time>2026-06-20T13:21:20Z</time>
   </trkpt>
   <trkpt lat="-3.1423180" lon="37.2996880">
    <ele>2429.1</ele>
    <time>2026-06-20T13:21:21Z</time>
   </trkpt>
   <trkpt lat="-3.1423120" lon="37.2996900">
    <ele>2429.2</ele>
    <time>2026-06-20T13:21:22Z</time>
   </trkpt>
   <trkpt lat="-3.1423060" lon="37.2996920">
    <ele>2429.3</ele>
    <time>2026-06-20T13:21:23Z</time>
   </trkpt>
   <trkpt lat="-3.1423020" lon="37.2996970">
    <ele>2429.4</ele>
    <time>2026-06-20T13:21:24Z</time>
   </trkpt>
   <trkpt lat="-3.1422940" lon="37.2996970">
    <ele>2429.6</ele>
    <time>2026-06-20T13:21:25Z</time>
   </trkpt>
   <trkpt lat="-3.1422900" lon="37.2996990">
    <ele>2429.7</ele>
    <time>2026-06-20T13:21:26Z</time>
   </trkpt>
   <trkpt lat="-3.1422870" lon="37.2997000">
    <ele>2429.7</ele>
    <time>2026-06-20T13:21:27Z</time>
   </trkpt>
   <trkpt lat="-3.1422820" lon="37.2997050">
    <ele>2429.8</ele>
    <time>2026-06-20T13:21:28Z</time>
   </trkpt>
   <trkpt lat="-3.1422790" lon="37.2997060">
    <ele>2429.9</ele>
    <time>2026-06-20T13:21:29Z</time>
   </trkpt>
   <trkpt lat="-3.1422770" lon="37.2997080">
    <ele>2429.9</ele>
    <time>2026-06-20T13:21:30Z</time>
   </trkpt>
   <trkpt lat="-3.1422710" lon="37.2997070">
    <ele>2430.1</ele>
    <time>2026-06-20T13:21:31Z</time>
   </trkpt>
   <trkpt lat="-3.1422680" lon="37.2997070">
    <ele>2430.1</ele>
    <time>2026-06-20T13:21:32Z</time>
   </trkpt>
   <trkpt lat="-3.1422660" lon="37.2997050">
    <ele>2430.2</ele>
    <time>2026-06-20T13:21:33Z</time>
   </trkpt>
   <trkpt lat="-3.1422640" lon="37.2997010">
    <ele>2430.2</ele>
    <time>2026-06-20T13:21:34Z</time>
   </trkpt>
   <trkpt lat="-3.1422610" lon="37.2997030">
    <ele>2430.3</ele>
    <time>2026-06-20T13:21:35Z</time>
   </trkpt>
   <trkpt lat="-3.1422550" lon="37.2997100">
    <ele>2430.5</ele>
    <time>2026-06-20T13:21:36Z</time>
   </trkpt>
   <trkpt lat="-3.1422560" lon="37.2997050">
    <ele>2430.6</ele>
    <time>2026-06-20T13:21:37Z</time>
   </trkpt>
   <trkpt lat="-3.1422560" lon="37.2997090">
    <ele>2430.6</ele>
    <time>2026-06-20T13:21:38Z</time>
   </trkpt>
   <trkpt lat="-3.1422460" lon="37.2997190">
    <ele>2430.9</ele>
    <time>2026-06-20T13:21:39Z</time>
   </trkpt>
   <trkpt lat="-3.1422400" lon="37.2997240">
    <ele>2431.0</ele>
    <time>2026-06-20T13:21:40Z</time>
   </trkpt>
   <trkpt lat="-3.1422350" lon="37.2997290">
    <ele>2431.1</ele>
    <time>2026-06-20T13:21:41Z</time>
   </trkpt>
   <trkpt lat="-3.1422320" lon="37.2997330">
    <ele>2431.2</ele>
    <time>2026-06-20T13:21:42Z</time>
   </trkpt>
   <trkpt lat="-3.1422280" lon="37.2997360">
    <ele>2431.3</ele>
    <time>2026-06-20T13:21:43Z</time>
   </trkpt>
   <trkpt lat="-3.1422260" lon="37.2997380">
    <ele>2431.4</ele>
    <time>2026-06-20T13:21:44Z</time>
   </trkpt>
   <trkpt lat="-3.1422240" lon="37.2997430">
    <ele>2431.5</ele>
    <time>2026-06-20T13:21:45Z</time>
   </trkpt>
   <trkpt lat="-3.1422200" lon="37.2997560">
    <ele>2431.7</ele>
    <time>2026-06-20T13:21:46Z</time>
   </trkpt>
   <trkpt lat="-3.1422130" lon="37.2997550">
    <ele>2431.8</ele>
    <time>2026-06-20T13:21:47Z</time>
   </trkpt>
   <trkpt lat="-3.1422070" lon="37.2997650">
    <ele>2432.0</ele>
    <time>2026-06-20T13:21:48Z</time>
   </trkpt>
   <trkpt lat="-3.1421970" lon="37.2997720">
    <ele>2432.3</ele>
    <time>2026-06-20T13:21:49Z</time>
   </trkpt>
   <trkpt lat="-3.1421870" lon="37.2997780">
    <ele>2432.5</ele>
    <time>2026-06-20T13:21:50Z</time>
   </trkpt>
   <trkpt lat="-3.1421830" lon="37.2997860">
    <ele>2432.6</ele>
    <time>2026-06-20T13:21:51Z</time>
   </trkpt>
   <trkpt lat="-3.1421760" lon="37.2997900">
    <ele>2432.8</ele>
    <time>2026-06-20T13:21:52Z</time>
   </trkpt>
   <trkpt lat="-3.1421680" lon="37.2997970">
    <ele>2433.0</ele>
    <time>2026-06-20T13:21:53Z</time>
   </trkpt>
   <trkpt lat="-3.1421710" lon="37.2997970">
    <ele>2433.0</ele>
    <time>2026-06-20T13:21:54Z</time>
   </trkpt>
   <trkpt lat="-3.1421710" lon="37.2997990">
    <ele>2433.0</ele>
    <time>2026-06-20T13:21:55Z</time>
   </trkpt>
   <trkpt lat="-3.1421620" lon="37.2998040">
    <ele>2433.2</ele>
    <time>2026-06-20T13:21:56Z</time>
   </trkpt>
   <trkpt lat="-3.1421630" lon="37.2998190">
    <ele>2433.5</ele>
    <time>2026-06-20T13:21:57Z</time>
   </trkpt>
   <trkpt lat="-3.1421650" lon="37.2998160">
    <ele>2433.6</ele>
    <time>2026-06-20T13:21:58Z</time>
   </trkpt>
   <trkpt lat="-3.1421640" lon="37.2998240">
    <ele>2433.7</ele>
    <time>2026-06-20T13:21:59Z</time>
   </trkpt>
   <trkpt lat="-3.1421570" lon="37.2998360">
    <ele>2433.9</ele>
    <time>2026-06-20T13:22:00Z</time>
   </trkpt>
   <trkpt lat="-3.1421540" lon="37.2998400">
    <ele>2434.0</ele>
    <time>2026-06-20T13:22:01Z</time>
   </trkpt>
   <trkpt lat="-3.1421470" lon="37.2998440">
    <ele>2434.2</ele>
    <time>2026-06-20T13:22:02Z</time>
   </trkpt>
   <trkpt lat="-3.1421440" lon="37.2998450">
    <ele>2434.2</ele>
    <time>2026-06-20T13:22:03Z</time>
   </trkpt>
   <trkpt lat="-3.1421420" lon="37.2998490">
    <ele>2434.3</ele>
    <time>2026-06-20T13:22:04Z</time>
   </trkpt>
   <trkpt lat="-3.1421360" lon="37.2998570">
    <ele>2434.5</ele>
    <time>2026-06-20T13:22:05Z</time>
   </trkpt>
   <trkpt lat="-3.1421320" lon="37.2998590">
    <ele>2434.6</ele>
    <time>2026-06-20T13:22:06Z</time>
   </trkpt>
   <trkpt lat="-3.1421230" lon="37.2998610">
    <ele>2434.7</ele>
    <time>2026-06-20T13:22:07Z</time>
   </trkpt>
   <trkpt lat="-3.1421200" lon="37.2998620">
    <ele>2434.8</ele>
    <time>2026-06-20T13:22:08Z</time>
   </trkpt>
   <trkpt lat="-3.1421170" lon="37.2998710">
    <ele>2435.0</ele>
    <time>2026-06-20T13:22:09Z</time>
   </trkpt>
   <trkpt lat="-3.1421080" lon="37.2998740">
    <ele>2435.1</ele>
    <time>2026-06-20T13:22:10Z</time>
   </trkpt>
   <trkpt lat="-3.1421020" lon="37.2998740">
    <ele>2435.2</ele>
    <time>2026-06-20T13:22:11Z</time>
   </trkpt>
   <trkpt lat="-3.1420950" lon="37.2998840">
    <ele>2435.5</ele>
    <time>2026-06-20T13:22:12Z</time>
   </trkpt>
   <trkpt lat="-3.1420840" lon="37.2998950">
    <ele>2435.7</ele>
    <time>2026-06-20T13:22:13Z</time>
   </trkpt>
   <trkpt lat="-3.1420820" lon="37.2998990">
    <ele>2435.8</ele>
    <time>2026-06-20T13:22:14Z</time>
   </trkpt>
   <trkpt lat="-3.1420790" lon="37.2998990">
    <ele>2435.9</ele>
    <time>2026-06-20T13:22:15Z</time>
   </trkpt>
   <trkpt lat="-3.1420740" lon="37.2999050">
    <ele>2436.0</ele>
    <time>2026-06-20T13:22:16Z</time>
   </trkpt>
   <trkpt lat="-3.1420680" lon="37.2999150">
    <ele>2436.2</ele>
    <time>2026-06-20T13:22:17Z</time>
   </trkpt>
   <trkpt lat="-3.1420630" lon="37.2999160">
    <ele>2436.3</ele>
    <time>2026-06-20T13:22:18Z</time>
   </trkpt>
   <trkpt lat="-3.1420580" lon="37.2999230">
    <ele>2436.4</ele>
    <time>2026-06-20T13:22:19Z</time>
   </trkpt>
   <trkpt lat="-3.1420550" lon="37.2999310">
    <ele>2436.6</ele>
    <time>2026-06-20T13:22:20Z</time>
   </trkpt>
   <trkpt lat="-3.1420540" lon="37.2999370">
    <ele>2436.7</ele>
    <time>2026-06-20T13:22:21Z</time>
   </trkpt>
   <trkpt lat="-3.1420540" lon="37.2999390">
    <ele>2436.7</ele>
    <time>2026-06-20T13:22:22Z</time>
   </trkpt>
   <trkpt lat="-3.1420510" lon="37.2999460">
    <ele>2436.8</ele>
    <time>2026-06-20T13:22:23Z</time>
   </trkpt>
   <trkpt lat="-3.1420500" lon="37.2999560">
    <ele>2437.0</ele>
    <time>2026-06-20T13:22:24Z</time>
   </trkpt>
   <trkpt lat="-3.1420490" lon="37.2999620">
    <ele>2437.1</ele>
    <time>2026-06-20T13:22:25Z</time>
   </trkpt>
   <trkpt lat="-3.1420510" lon="37.2999650">
    <ele>2437.2</ele>
    <time>2026-06-20T13:22:26Z</time>
   </trkpt>
   <trkpt lat="-3.1420570" lon="37.2999740">
    <ele>2437.3</ele>
    <time>2026-06-20T13:22:27Z</time>
   </trkpt>
   <trkpt lat="-3.1420590" lon="37.2999750">
    <ele>2437.4</ele>
    <time>2026-06-20T13:22:28Z</time>
   </trkpt>
   <trkpt lat="-3.1420580" lon="37.2999810">
    <ele>2437.5</ele>
    <time>2026-06-20T13:22:29Z</time>
   </trkpt>
   <trkpt lat="-3.1420590" lon="37.2999890">
    <ele>2437.6</ele>
    <time>2026-06-20T13:22:30Z</time>
   </trkpt>
   <trkpt lat="-3.1420560" lon="37.2999960">
    <ele>2437.7</ele>
    <time>2026-06-20T13:22:31Z</time>
   </trkpt>
   <trkpt lat="-3.1420580" lon="37.3000010">
    <ele>2437.8</ele>
    <time>2026-06-20T13:22:32Z</time>
   </trkpt>
   <trkpt lat="-3.1420550" lon="37.3000090">
    <ele>2437.9</ele>
    <time>2026-06-20T13:22:33Z</time>
   </trkpt>
   <trkpt lat="-3.1420510" lon="37.3000210">
    <ele>2438.1</ele>
    <time>2026-06-20T13:22:34Z</time>
   </trkpt>
   <trkpt lat="-3.1420490" lon="37.3000240">
    <ele>2438.1</ele>
    <time>2026-06-20T13:22:35Z</time>
   </trkpt>
   <trkpt lat="-3.1420450" lon="37.3000370">
    <ele>2438.3</ele>
    <time>2026-06-20T13:22:36Z</time>
   </trkpt>
   <trkpt lat="-3.1420470" lon="37.3000430">
    <ele>2438.4</ele>
    <time>2026-06-20T13:22:37Z</time>
   </trkpt>
   <trkpt lat="-3.1420480" lon="37.3000500">
    <ele>2438.5</ele>
    <time>2026-06-20T13:22:38Z</time>
   </trkpt>
   <trkpt lat="-3.1420440" lon="37.3000580">
    <ele>2438.7</ele>
    <time>2026-06-20T13:22:39Z</time>
   </trkpt>
   <trkpt lat="-3.1420440" lon="37.3000610">
    <ele>2438.7</ele>
    <time>2026-06-20T13:22:40Z</time>
   </trkpt>
   <trkpt lat="-3.1420400" lon="37.3000640">
    <ele>2438.8</ele>
    <time>2026-06-20T13:22:41Z</time>
   </trkpt>
   <trkpt lat="-3.1420380" lon="37.3000730">
    <ele>2438.9</ele>
    <time>2026-06-20T13:22:42Z</time>
   </trkpt>
   <trkpt lat="-3.1420320" lon="37.3000840">
    <ele>2439.1</ele>
    <time>2026-06-20T13:22:43Z</time>
   </trkpt>
   <trkpt lat="-3.1420250" lon="37.3000900">
    <ele>2439.2</ele>
    <time>2026-06-20T13:22:44Z</time>
   </trkpt>
   <trkpt lat="-3.1420210" lon="37.3000930">
    <ele>2439.3</ele>
    <time>2026-06-20T13:22:45Z</time>
   </trkpt>
   <trkpt lat="-3.1420150" lon="37.3000940">
    <ele>2439.3</ele>
    <time>2026-06-20T13:22:46Z</time>
   </trkpt>
   <trkpt lat="-3.1420100" lon="37.3000980">
    <ele>2439.4</ele>
    <time>2026-06-20T13:22:47Z</time>
   </trkpt>
   <trkpt lat="-3.1420090" lon="37.3001030">
    <ele>2439.5</ele>
    <time>2026-06-20T13:22:48Z</time>
   </trkpt>
   <trkpt lat="-3.1420040" lon="37.3001060">
    <ele>2439.6</ele>
    <time>2026-06-20T13:22:49Z</time>
   </trkpt>
   <trkpt lat="-3.1419990" lon="37.3001020">
    <ele>2439.7</ele>
    <time>2026-06-20T13:22:50Z</time>
   </trkpt>
   <trkpt lat="-3.1419960" lon="37.3001040">
    <ele>2439.7</ele>
    <time>2026-06-20T13:22:51Z</time>
   </trkpt>
   <trkpt lat="-3.1419900" lon="37.3001050">
    <ele>2439.8</ele>
    <time>2026-06-20T13:22:52Z</time>
   </trkpt>
   <trkpt lat="-3.1419830" lon="37.3001050">
    <ele>2439.9</ele>
    <time>2026-06-20T13:22:53Z</time>
   </trkpt>
   <trkpt lat="-3.1419770" lon="37.3001080">
    <ele>2440.0</ele>
    <time>2026-06-20T13:22:54Z</time>
   </trkpt>
   <trkpt lat="-3.1419690" lon="37.3001130">
    <ele>2440.1</ele>
    <time>2026-06-20T13:22:55Z</time>
   </trkpt>
   <trkpt lat="-3.1419630" lon="37.3001180">
    <ele>2440.2</ele>
    <time>2026-06-20T13:22:56Z</time>
   </trkpt>
   <trkpt lat="-3.1419580" lon="37.3001220">
    <ele>2440.3</ele>
    <time>2026-06-20T13:22:57Z</time>
   </trkpt>
   <trkpt lat="-3.1419530" lon="37.3001280">
    <ele>2440.4</ele>
    <time>2026-06-20T13:22:58Z</time>
   </trkpt>
   <trkpt lat="-3.1419460" lon="37.3001340">
    <ele>2440.5</ele>
    <time>2026-06-20T13:22:59Z</time>
   </trkpt>
   <trkpt lat="-3.1419440" lon="37.3001430">
    <ele>2440.6</ele>
    <time>2026-06-20T13:23:00Z</time>
   </trkpt>
   <trkpt lat="-3.1419420" lon="37.3001470">
    <ele>2440.7</ele>
    <time>2026-06-20T13:23:01Z</time>
   </trkpt>
   <trkpt lat="-3.1419360" lon="37.3001520">
    <ele>2440.8</ele>
    <time>2026-06-20T13:23:02Z</time>
   </trkpt>
   <trkpt lat="-3.1419310" lon="37.3001520">
    <ele>2440.8</ele>
    <time>2026-06-20T13:23:03Z</time>
   </trkpt>
   <trkpt lat="-3.1419280" lon="37.3001580">
    <ele>2440.9</ele>
    <time>2026-06-20T13:23:04Z</time>
   </trkpt>
   <trkpt lat="-3.1419230" lon="37.3001590">
    <ele>2441.0</ele>
    <time>2026-06-20T13:23:05Z</time>
   </trkpt>
   <trkpt lat="-3.1419240" lon="37.3001570">
    <ele>2441.0</ele>
    <time>2026-06-20T13:23:06Z</time>
   </trkpt>
   <trkpt lat="-3.1419230" lon="37.3001610">
    <ele>2441.0</ele>
    <time>2026-06-20T13:23:07Z</time>
   </trkpt>
   <trkpt lat="-3.1419200" lon="37.3001660">
    <ele>2441.1</ele>
    <time>2026-06-20T13:23:08Z</time>
   </trkpt>
   <trkpt lat="-3.1419200" lon="37.3001740">
    <ele>2441.2</ele>
    <time>2026-06-20T13:23:09Z</time>
   </trkpt>
   <trkpt lat="-3.1419180" lon="37.3001780">
    <ele>2441.3</ele>
    <time>2026-06-20T13:23:10Z</time>
   </trkpt>
   <trkpt lat="-3.1419180" lon="37.3001840">
    <ele>2441.4</ele>
    <time>2026-06-20T13:23:11Z</time>
   </trkpt>
   <trkpt lat="-3.1419070" lon="37.3001900">
    <ele>2441.5</ele>
    <time>2026-06-20T13:23:12Z</time>
   </trkpt>
   <trkpt lat="-3.1419020" lon="37.3001920">
    <ele>2441.6</ele>
    <time>2026-06-20T13:23:13Z</time>
   </trkpt>
   <trkpt lat="-3.1418930" lon="37.3002000">
    <ele>2441.7</ele>
    <time>2026-06-20T13:23:14Z</time>
   </trkpt>
   <trkpt lat="-3.1418900" lon="37.3002020">
    <ele>2441.8</ele>
    <time>2026-06-20T13:23:15Z</time>
   </trkpt>
   <trkpt lat="-3.1418850" lon="37.3002150">
    <ele>2442.0</ele>
    <time>2026-06-20T13:23:16Z</time>
   </trkpt>
   <trkpt lat="-3.1418820" lon="37.3002100">
    <ele>2442.0</ele>
    <time>2026-06-20T13:23:17Z</time>
   </trkpt>
   <trkpt lat="-3.1418790" lon="37.3002130">
    <ele>2442.1</ele>
    <time>2026-06-20T13:23:18Z</time>
   </trkpt>
   <trkpt lat="-3.1418770" lon="37.3002390">
    <ele>2442.4</ele>
    <time>2026-06-20T13:23:19Z</time>
   </trkpt>
   <trkpt lat="-3.1418700" lon="37.3002500">
    <ele>2442.6</ele>
    <time>2026-06-20T13:23:20Z</time>
   </trkpt>
   <trkpt lat="-3.1418700" lon="37.3002640">
    <ele>2442.8</ele>
    <time>2026-06-20T13:23:21Z</time>
   </trkpt>
   <trkpt lat="-3.1418730" lon="37.3002500">
    <ele>2443.0</ele>
    <time>2026-06-20T13:23:22Z</time>
   </trkpt>
   <trkpt lat="-3.1418710" lon="37.3002520">
    <ele>2443.0</ele>
    <time>2026-06-20T13:23:23Z</time>
   </trkpt>
   <trkpt lat="-3.1418660" lon="37.3002590">
    <ele>2443.1</ele>
    <time>2026-06-20T13:23:24Z</time>
   </trkpt>
   <trkpt lat="-3.1418630" lon="37.3002690">
    <ele>2443.3</ele>
    <time>2026-06-20T13:23:25Z</time>
   </trkpt>
   <trkpt lat="-3.1418620" lon="37.3002760">
    <ele>2443.3</ele>
    <time>2026-06-20T13:23:26Z</time>
   </trkpt>
   <trkpt lat="-3.1418520" lon="37.3002920">
    <ele>2443.6</ele>
    <time>2026-06-20T13:23:27Z</time>
   </trkpt>
   <trkpt lat="-3.1418480" lon="37.3003030">
    <ele>2443.8</ele>
    <time>2026-06-20T13:23:28Z</time>
   </trkpt>
   <trkpt lat="-3.1418400" lon="37.3003120">
    <ele>2443.9</ele>
    <time>2026-06-20T13:23:29Z</time>
   </trkpt>
   <trkpt lat="-3.1418270" lon="37.3003220">
    <ele>2444.1</ele>
    <time>2026-06-20T13:23:30Z</time>
   </trkpt>
   <trkpt lat="-3.1418180" lon="37.3003290">
    <ele>2444.3</ele>
    <time>2026-06-20T13:23:31Z</time>
   </trkpt>
   <trkpt lat="-3.1418080" lon="37.3003330">
    <ele>2444.4</ele>
    <time>2026-06-20T13:23:32Z</time>
   </trkpt>
   <trkpt lat="-3.1418050" lon="37.3003360">
    <ele>2444.5</ele>
    <time>2026-06-20T13:23:33Z</time>
   </trkpt>
   <trkpt lat="-3.1418100" lon="37.3003360">
    <ele>2444.6</ele>
    <time>2026-06-20T13:23:34Z</time>
   </trkpt>
   <trkpt lat="-3.1418040" lon="37.3003370">
    <ele>2444.6</ele>
    <time>2026-06-20T13:23:35Z</time>
   </trkpt>
   <trkpt lat="-3.1417980" lon="37.3003360">
    <ele>2444.7</ele>
    <time>2026-06-20T13:23:36Z</time>
   </trkpt>
   <trkpt lat="-3.1417950" lon="37.3003320">
    <ele>2444.8</ele>
    <time>2026-06-20T13:23:37Z</time>
   </trkpt>
   <trkpt lat="-3.1417870" lon="37.3003340">
    <ele>2444.9</ele>
    <time>2026-06-20T13:23:38Z</time>
   </trkpt>
   <trkpt lat="-3.1417730" lon="37.3003350">
    <ele>2445.1</ele>
    <time>2026-06-20T13:23:39Z</time>
   </trkpt>
   <trkpt lat="-3.1417700" lon="37.3003290">
    <ele>2445.2</ele>
    <time>2026-06-20T13:23:40Z</time>
   </trkpt>
   <trkpt lat="-3.1417660" lon="37.3003270">
    <ele>2445.2</ele>
    <time>2026-06-20T13:23:41Z</time>
   </trkpt>
   <trkpt lat="-3.1417530" lon="37.3003240">
    <ele>2445.4</ele>
    <time>2026-06-20T13:23:42Z</time>
   </trkpt>
   <trkpt lat="-3.1417460" lon="37.3003200">
    <ele>2445.5</ele>
    <time>2026-06-20T13:23:43Z</time>
   </trkpt>
   <trkpt lat="-3.1417340" lon="37.3003120">
    <ele>2445.7</ele>
    <time>2026-06-20T13:23:44Z</time>
   </trkpt>
   <trkpt lat="-3.1417320" lon="37.3003120">
    <ele>2445.7</ele>
    <time>2026-06-20T13:23:45Z</time>
   </trkpt>
   <trkpt lat="-3.1417270" lon="37.3003110">
    <ele>2445.8</ele>
    <time>2026-06-20T13:23:46Z</time>
   </trkpt>
   <trkpt lat="-3.1417210" lon="37.3003110">
    <ele>2445.8</ele>
    <time>2026-06-20T13:23:47Z</time>
   </trkpt>
   <trkpt lat="-3.1417120" lon="37.3003120">
    <ele>2445.9</ele>
    <time>2026-06-20T13:23:48Z</time>
   </trkpt>
   <trkpt lat="-3.1417000" lon="37.3003160">
    <ele>2446.1</ele>
    <time>2026-06-20T13:23:49Z</time>
   </trkpt>
   <trkpt lat="-3.1416950" lon="37.3003140">
    <ele>2446.1</ele>
    <time>2026-06-20T13:23:50Z</time>
   </trkpt>
   <trkpt lat="-3.1416870" lon="37.3003120">
    <ele>2446.2</ele>
    <time>2026-06-20T13:23:51Z</time>
   </trkpt>
   <trkpt lat="-3.1416770" lon="37.3003100">
    <ele>2446.3</ele>
    <time>2026-06-20T13:23:52Z</time>
   </trkpt>
   <trkpt lat="-3.1416670" lon="37.3003090">
    <ele>2446.4</ele>
    <time>2026-06-20T13:23:53Z</time>
   </trkpt>
   <trkpt lat="-3.1416610" lon="37.3003110">
    <ele>2446.5</ele>
    <time>2026-06-20T13:23:54Z</time>
   </trkpt>
   <trkpt lat="-3.1416510" lon="37.3003120">
    <ele>2446.6</ele>
    <time>2026-06-20T13:23:55Z</time>
   </trkpt>
   <trkpt lat="-3.1416420" lon="37.3003170">
    <ele>2446.7</ele>
    <time>2026-06-20T13:23:56Z</time>
   </trkpt>
   <trkpt lat="-3.1416350" lon="37.3003180">
    <ele>2446.8</ele>
    <time>2026-06-20T13:23:57Z</time>
   </trkpt>
   <trkpt lat="-3.1416290" lon="37.3003210">
    <ele>2446.9</ele>
    <time>2026-06-20T13:23:58Z</time>
   </trkpt>
   <trkpt lat="-3.1416220" lon="37.3003250">
    <ele>2446.9</ele>
    <time>2026-06-20T13:23:59Z</time>
   </trkpt>
   <trkpt lat="-3.1416170" lon="37.3003280">
    <ele>2447.0</ele>
    <time>2026-06-20T13:24:00Z</time>
   </trkpt>
   <trkpt lat="-3.1416060" lon="37.3003290">
    <ele>2447.1</ele>
    <time>2026-06-20T13:24:01Z</time>
   </trkpt>
   <trkpt lat="-3.1416030" lon="37.3003250">
    <ele>2447.1</ele>
    <time>2026-06-20T13:24:02Z</time>
   </trkpt>
   <trkpt lat="-3.1415970" lon="37.3003240">
    <ele>2447.2</ele>
    <time>2026-06-20T13:24:03Z</time>
   </trkpt>
   <trkpt lat="-3.1415830" lon="37.3003290">
    <ele>2447.3</ele>
    <time>2026-06-20T13:24:04Z</time>
   </trkpt>
   <trkpt lat="-3.1415720" lon="37.3003390">
    <ele>2447.4</ele>
    <time>2026-06-20T13:24:05Z</time>
   </trkpt>
   <trkpt lat="-3.1415660" lon="37.3003420">
    <ele>2447.5</ele>
    <time>2026-06-20T13:24:06Z</time>
   </trkpt>
   <trkpt lat="-3.1415590" lon="37.3003430">
    <ele>2447.5</ele>
    <time>2026-06-20T13:24:07Z</time>
   </trkpt>
   <trkpt lat="-3.1415490" lon="37.3003440">
    <ele>2447.6</ele>
    <time>2026-06-20T13:24:08Z</time>
   </trkpt>
   <trkpt lat="-3.1415390" lon="37.3003490">
    <ele>2447.7</ele>
    <time>2026-06-20T13:24:09Z</time>
   </trkpt>
   <trkpt lat="-3.1415280" lon="37.3003540">
    <ele>2447.8</ele>
    <time>2026-06-20T13:24:10Z</time>
   </trkpt>
   <trkpt lat="-3.1415180" lon="37.3003570">
    <ele>2447.9</ele>
    <time>2026-06-20T13:24:11Z</time>
   </trkpt>
   <trkpt lat="-3.1415080" lon="37.3003590">
    <ele>2447.9</ele>
    <time>2026-06-20T13:24:12Z</time>
   </trkpt>
   <trkpt lat="-3.1415030" lon="37.3003630">
    <ele>2448.0</ele>
    <time>2026-06-20T13:24:13Z</time>
   </trkpt>
   <trkpt lat="-3.1414910" lon="37.3003640">
    <ele>2448.0</ele>
    <time>2026-06-20T13:24:14Z</time>
   </trkpt>
   <trkpt lat="-3.1414800" lon="37.3003650">
    <ele>2448.1</ele>
    <time>2026-06-20T13:24:15Z</time>
   </trkpt>
   <trkpt lat="-3.1414720" lon="37.3003700">
    <ele>2448.2</ele>
    <time>2026-06-20T13:24:16Z</time>
   </trkpt>
   <trkpt lat="-3.1414710" lon="37.3003690">
    <ele>2448.2</ele>
    <time>2026-06-20T13:24:17Z</time>
   </trkpt>
   <trkpt lat="-3.1414650" lon="37.3003730">
    <ele>2448.2</ele>
    <time>2026-06-20T13:24:18Z</time>
   </trkpt>
   <trkpt lat="-3.1414620" lon="37.3003740">
    <ele>2448.2</ele>
    <time>2026-06-20T13:24:19Z</time>
   </trkpt>
   <trkpt lat="-3.1414590" lon="37.3003760">
    <ele>2448.3</ele>
    <time>2026-06-20T13:24:20Z</time>
   </trkpt>
   <trkpt lat="-3.1414560" lon="37.3003730">
    <ele>2448.3</ele>
    <time>2026-06-20T13:24:21Z</time>
   </trkpt>
   <trkpt lat="-3.1414490" lon="37.3003780">
    <ele>2448.3</ele>
    <time>2026-06-20T13:24:22Z</time>
   </trkpt>
   <trkpt lat="-3.1414420" lon="37.3003860">
    <ele>2448.4</ele>
    <time>2026-06-20T13:24:23Z</time>
   </trkpt>
   <trkpt lat="-3.1414300" lon="37.3003940">
    <ele>2448.5</ele>
    <time>2026-06-20T13:24:24Z</time>
   </trkpt>
   <trkpt lat="-3.1414240" lon="37.3003990">
    <ele>2448.5</ele>
    <time>2026-06-20T13:24:25Z</time>
   </trkpt>
   <trkpt lat="-3.1414150" lon="37.3004060">
    <ele>2448.6</ele>
    <time>2026-06-20T13:24:26Z</time>
   </trkpt>
   <trkpt lat="-3.1414070" lon="37.3004110">
    <ele>2448.6</ele>
    <time>2026-06-20T13:24:27Z</time>
   </trkpt>
   <trkpt lat="-3.1414020" lon="37.3004170">
    <ele>2448.7</ele>
    <time>2026-06-20T13:24:28Z</time>
   </trkpt>
   <trkpt lat="-3.1413980" lon="37.3004200">
    <ele>2448.7</ele>
    <time>2026-06-20T13:24:29Z</time>
   </trkpt>
   <trkpt lat="-3.1413890" lon="37.3004290">
    <ele>2448.7</ele>
    <time>2026-06-20T13:24:30Z</time>
   </trkpt>
   <trkpt lat="-3.1413820" lon="37.3004370">
    <ele>2448.8</ele>
    <time>2026-06-20T13:24:31Z</time>
   </trkpt>
   <trkpt lat="-3.1413790" lon="37.3004430">
    <ele>2448.8</ele>
    <time>2026-06-20T13:24:32Z</time>
   </trkpt>
   <trkpt lat="-3.1413750" lon="37.3004490">
    <ele>2448.9</ele>
    <time>2026-06-20T13:24:33Z</time>
   </trkpt>
   <trkpt lat="-3.1413690" lon="37.3004590">
    <ele>2448.9</ele>
    <time>2026-06-20T13:24:34Z</time>
   </trkpt>
   <trkpt lat="-3.1413740" lon="37.3004500">
    <ele>2449.0</ele>
    <time>2026-06-20T13:24:35Z</time>
   </trkpt>
   <trkpt lat="-3.1413680" lon="37.3004520">
    <ele>2449.0</ele>
    <time>2026-06-20T13:24:36Z</time>
   </trkpt>
   <trkpt lat="-3.1413580" lon="37.3004480">
    <ele>2449.1</ele>
    <time>2026-06-20T13:24:37Z</time>
   </trkpt>
   <trkpt lat="-3.1413460" lon="37.3004460">
    <ele>2449.1</ele>
    <time>2026-06-20T13:24:38Z</time>
   </trkpt>
   <trkpt lat="-3.1413330" lon="37.3004510">
    <ele>2449.2</ele>
    <time>2026-06-20T13:24:39Z</time>
   </trkpt>
   <trkpt lat="-3.1413200" lon="37.3004490">
    <ele>2449.3</ele>
    <time>2026-06-20T13:24:40Z</time>
   </trkpt>
   <trkpt lat="-3.1413190" lon="37.3004490">
    <ele>2449.3</ele>
    <time>2026-06-20T13:24:41Z</time>
   </trkpt>
   <trkpt lat="-3.1413160" lon="37.3004500">
    <ele>2449.3</ele>
    <time>2026-06-20T13:24:42Z</time>
   </trkpt>
   <trkpt lat="-3.1413110" lon="37.3004510">
    <ele>2449.3</ele>
    <time>2026-06-20T13:24:43Z</time>
   </trkpt>
   <trkpt lat="-3.1413010" lon="37.3004600">
    <ele>2449.4</ele>
    <time>2026-06-20T13:24:44Z</time>
   </trkpt>
   <trkpt lat="-3.1412950" lon="37.3004670">
    <ele>2449.4</ele>
    <time>2026-06-20T13:24:45Z</time>
   </trkpt>
   <trkpt lat="-3.1412820" lon="37.3004690">
    <ele>2449.5</ele>
    <time>2026-06-20T13:24:46Z</time>
   </trkpt>
   <trkpt lat="-3.1412690" lon="37.3004720">
    <ele>2449.6</ele>
    <time>2026-06-20T13:24:47Z</time>
   </trkpt>
   <trkpt lat="-3.1412800" lon="37.3004880">
    <ele>2449.7</ele>
    <time>2026-06-20T13:24:48Z</time>
   </trkpt>
   <trkpt lat="-3.1412870" lon="37.3005020">
    <ele>2449.8</ele>
    <time>2026-06-20T13:24:49Z</time>
   </trkpt>
   <trkpt lat="-3.1412880" lon="37.3005010">
    <ele>2449.8</ele>
    <time>2026-06-20T13:24:50Z</time>
   </trkpt>
   <trkpt lat="-3.1412920" lon="37.3004990">
    <ele>2449.8</ele>
    <time>2026-06-20T13:24:51Z</time>
   </trkpt>
   <trkpt lat="-3.1412950" lon="37.3004990">
    <ele>2449.8</ele>
    <time>2026-06-20T13:24:52Z</time>
   </trkpt>
   <trkpt lat="-3.1412930" lon="37.3005030">
    <ele>2449.8</ele>
    <time>2026-06-20T13:24:53Z</time>
   </trkpt>
   <trkpt lat="-3.1412940" lon="37.3004990">
    <ele>2449.9</ele>
    <time>2026-06-20T13:24:54Z</time>
   </trkpt>
   <trkpt lat="-3.1412970" lon="37.3004960">
    <ele>2449.9</ele>
    <time>2026-06-20T13:24:55Z</time>
   </trkpt>
   <trkpt lat="-3.1412920" lon="37.3005010">
    <ele>2449.9</ele>
    <time>2026-06-20T13:24:56Z</time>
   </trkpt>
   <trkpt lat="-3.1412890" lon="37.3005000">
    <ele>2450.0</ele>
    <time>2026-06-20T13:24:57Z</time>
   </trkpt>
   <trkpt lat="-3.1412840" lon="37.3005020">
    <ele>2450.0</ele>
    <time>2026-06-20T13:24:58Z</time>
   </trkpt>
   <trkpt lat="-3.1412940" lon="37.3004970">
    <ele>2450.1</ele>
    <time>2026-06-20T13:24:59Z</time>
   </trkpt>
   <trkpt lat="-3.1412950" lon="37.3004960">
    <ele>2450.1</ele>
    <time>2026-06-20T13:25:00Z</time>
   </trkpt>
   <trkpt lat="-3.1413020" lon="37.3005010">
    <ele>2450.1</ele>
    <time>2026-06-20T13:25:01Z</time>
   </trkpt>
   <trkpt lat="-3.1412970" lon="37.3005240">
    <ele>2450.3</ele>
    <time>2026-06-20T13:25:02Z</time>
   </trkpt>
   <trkpt lat="-3.1412970" lon="37.3005240">
    <ele>2450.3</ele>
    <time>2026-06-20T13:25:03Z</time>
   </trkpt>
   <trkpt lat="-3.1412970" lon="37.3005240">
    <ele>2450.3</ele>
    <time>2026-06-20T13:25:04Z</time>
   </trkpt>
   <trkpt lat="-3.1412920" lon="37.3005440">
    <ele>2450.4</ele>
    <time>2026-06-20T13:25:05Z</time>
   </trkpt>
   <trkpt lat="-3.1412920" lon="37.3005450">
    <ele>2450.4</ele>
    <time>2026-06-20T13:25:06Z</time>
   </trkpt>
   <trkpt lat="-3.1412920" lon="37.3005460">
    <ele>2450.4</ele>
    <time>2026-06-20T13:25:07Z</time>
   </trkpt>
   <trkpt lat="-3.1412910" lon="37.3005470">
    <ele>2450.4</ele>
    <time>2026-06-20T13:25:08Z</time>
   </trkpt>
   <trkpt lat="-3.1412910" lon="37.3005470">
    <ele>2450.4</ele>
    <time>2026-06-20T13:25:09Z</time>
   </trkpt>
   <trkpt lat="-3.1412910" lon="37.3005480">
    <ele>2450.4</ele>
    <time>2026-06-20T13:25:10Z</time>
   </trkpt>
   <trkpt lat="-3.1412910" lon="37.3005490">
    <ele>2450.5</ele>
    <time>2026-06-20T13:25:11Z</time>
   </trkpt>
   <trkpt lat="-3.1412900" lon="37.3005500">
    <ele>2450.5</ele>
    <time>2026-06-20T13:25:12Z</time>
   </trkpt>
   <trkpt lat="-3.1412900" lon="37.3005510">
    <ele>2450.5</ele>
    <time>2026-06-20T13:25:13Z</time>
   </trkpt>
   <trkpt lat="-3.1412900" lon="37.3005520">
    <ele>2450.5</ele>
    <time>2026-06-20T13:25:14Z</time>
   </trkpt>
   <trkpt lat="-3.1412900" lon="37.3005530">
    <ele>2450.5</ele>
    <time>2026-06-20T13:25:15Z</time>
   </trkpt>
   <trkpt lat="-3.1412900" lon="37.3005530">
    <ele>2450.5</ele>
    <time>2026-06-20T13:25:16Z</time>
   </trkpt>
   <trkpt lat="-3.1412890" lon="37.3005540">
    <ele>2450.5</ele>
    <time>2026-06-20T13:25:17Z</time>
   </trkpt>
   <trkpt lat="-3.1412890" lon="37.3005550">
    <ele>2450.5</ele>
    <time>2026-06-20T13:25:18Z</time>
   </trkpt>
   <trkpt lat="-3.1412890" lon="37.3005560">
    <ele>2450.5</ele>
    <time>2026-06-20T13:25:19Z</time>
   </trkpt>
   <trkpt lat="-3.1412890" lon="37.3005570">
    <ele>2450.5</ele>
    <time>2026-06-20T13:25:20Z</time>
   </trkpt>
   <trkpt lat="-3.1412880" lon="37.3005580">
    <ele>2450.5</ele>
    <time>2026-06-20T13:25:21Z</time>
   </trkpt>
   <trkpt lat="-3.1412880" lon="37.3005590">
    <ele>2450.5</ele>
    <time>2026-06-20T13:25:22Z</time>
   </trkpt>
   <trkpt lat="-3.1412880" lon="37.3005600">
    <ele>2450.5</ele>
    <time>2026-06-20T13:25:23Z</time>
   </trkpt>
   <trkpt lat="-3.1412880" lon="37.3005600">
    <ele>2450.5</ele>
    <time>2026-06-20T13:25:24Z</time>
   </trkpt>
   <trkpt lat="-3.1412880" lon="37.3005610">
    <ele>2450.5</ele>
    <time>2026-06-20T13:25:25Z</time>
   </trkpt>
   <trkpt lat="-3.1412870" lon="37.3005620">
    <ele>2450.6</ele>
    <time>2026-06-20T13:25:26Z</time>
   </trkpt>
   <trkpt lat="-3.1412870" lon="37.3005630">
    <ele>2450.6</ele>
    <time>2026-06-20T13:25:27Z</time>
   </trkpt>
   <trkpt lat="-3.1412870" lon="37.3005640">
    <ele>2450.6</ele>
    <time>2026-06-20T13:25:28Z</time>
   </trkpt>
   <trkpt lat="-3.1412870" lon="37.3005650">
    <ele>2450.6</ele>
    <time>2026-06-20T13:25:29Z</time>
   </trkpt>
   <trkpt lat="-3.1412860" lon="37.3005660">
    <ele>2450.6</ele>
    <time>2026-06-20T13:25:30Z</time>
   </trkpt>
   <trkpt lat="-3.1412860" lon="37.3005670">
    <ele>2450.6</ele>
    <time>2026-06-20T13:25:31Z</time>
   </trkpt>
   <trkpt lat="-3.1412860" lon="37.3005670">
    <ele>2450.6</ele>
    <time>2026-06-20T13:25:32Z</time>
   </trkpt>
   <trkpt lat="-3.1412860" lon="37.3005690">
    <ele>2450.6</ele>
    <time>2026-06-20T13:25:34Z</time>
   </trkpt>
   <trkpt lat="-3.1412850" lon="37.3005700">
    <ele>2450.6</ele>
    <time>2026-06-20T13:25:35Z</time>
   </trkpt>
   <trkpt lat="-3.1412850" lon="37.3005710">
    <ele>2450.6</ele>
    <time>2026-06-20T13:25:36Z</time>
   </trkpt>
   <trkpt lat="-3.1412850" lon="37.3005720">
    <ele>2450.6</ele>
    <time>2026-06-20T13:25:37Z</time>
   </trkpt>
   <trkpt lat="-3.1412850" lon="37.3005730">
    <ele>2450.6</ele>
    <time>2026-06-20T13:25:38Z</time>
   </trkpt>
   <trkpt lat="-3.1412840" lon="37.3005740">
    <ele>2450.6</ele>
    <time>2026-06-20T13:25:39Z</time>
   </trkpt>
   <trkpt lat="-3.1412840" lon="37.3005740">
    <ele>2450.6</ele>
    <time>2026-06-20T13:25:40Z</time>
   </trkpt>
   <trkpt lat="-3.1412840" lon="37.3005750">
    <ele>2450.7</ele>
    <time>2026-06-20T13:25:41Z</time>
   </trkpt>
   <trkpt lat="-3.1412840" lon="37.3005760">
    <ele>2450.7</ele>
    <time>2026-06-20T13:25:42Z</time>
   </trkpt>
   <trkpt lat="-3.1412840" lon="37.3005770">
    <ele>2450.7</ele>
    <time>2026-06-20T13:25:43Z</time>
   </trkpt>
   <trkpt lat="-3.1412830" lon="37.3005780">
    <ele>2450.7</ele>
    <time>2026-06-20T13:25:44Z</time>
   </trkpt>
   <trkpt lat="-3.1412830" lon="37.3005790">
    <ele>2450.7</ele>
    <time>2026-06-20T13:25:45Z</time>
   </trkpt>
   <trkpt lat="-3.1412830" lon="37.3005800">
    <ele>2450.7</ele>
    <time>2026-06-20T13:25:46Z</time>
   </trkpt>
   <trkpt lat="-3.1412830" lon="37.3005810">
    <ele>2450.7</ele>
    <time>2026-06-20T13:25:47Z</time>
   </trkpt>
   <trkpt lat="-3.1412820" lon="37.3005810">
    <ele>2450.7</ele>
    <time>2026-06-20T13:25:48Z</time>
   </trkpt>
   <trkpt lat="-3.1412820" lon="37.3005820">
    <ele>2450.7</ele>
    <time>2026-06-20T13:25:49Z</time>
   </trkpt>
   <trkpt lat="-3.1412820" lon="37.3005830">
    <ele>2450.7</ele>
    <time>2026-06-20T13:25:50Z</time>
   </trkpt>
   <trkpt lat="-3.1412820" lon="37.3005840">
    <ele>2450.7</ele>
    <time>2026-06-20T13:25:51Z</time>
   </trkpt>
   <trkpt lat="-3.1412820" lon="37.3005850">
    <ele>2450.8</ele>
    <time>2026-06-20T13:25:52Z</time>
   </trkpt>
   <trkpt lat="-3.1412810" lon="37.3005860">
    <ele>2450.8</ele>
    <time>2026-06-20T13:25:53Z</time>
   </trkpt>
   <trkpt lat="-3.1412810" lon="37.3005870">
    <ele>2450.8</ele>
    <time>2026-06-20T13:25:54Z</time>
   </trkpt>
   <trkpt lat="-3.1412810" lon="37.3005880">
    <ele>2450.8</ele>
    <time>2026-06-20T13:25:55Z</time>
   </trkpt>
   <trkpt lat="-3.1412810" lon="37.3005880">
    <ele>2450.8</ele>
    <time>2026-06-20T13:25:56Z</time>
   </trkpt>
   <trkpt lat="-3.1412800" lon="37.3005890">
    <ele>2450.8</ele>
    <time>2026-06-20T13:25:57Z</time>
   </trkpt>
   <trkpt lat="-3.1412800" lon="37.3005900">
    <ele>2450.8</ele>
    <time>2026-06-20T13:25:58Z</time>
   </trkpt>
   <trkpt lat="-3.1412800" lon="37.3005910">
    <ele>2450.8</ele>
    <time>2026-06-20T13:25:59Z</time>
   </trkpt>
   <trkpt lat="-3.1412800" lon="37.3005910">
    <ele>2450.8</ele>
    <time>2026-06-20T13:26:00Z</time>
   </trkpt>
   <trkpt lat="-3.1412790" lon="37.3005900">
    <ele>2450.8</ele>
    <time>2026-06-20T13:26:01Z</time>
   </trkpt>
   <trkpt lat="-3.1412790" lon="37.3005900">
    <ele>2450.8</ele>
    <time>2026-06-20T13:26:02Z</time>
   </trkpt>
   <trkpt lat="-3.1412790" lon="37.3005900">
    <ele>2450.8</ele>
    <time>2026-06-20T13:26:03Z</time>
   </trkpt>
   <trkpt lat="-3.1412790" lon="37.3005900">
    <ele>2450.8</ele>
    <time>2026-06-20T13:26:04Z</time>
   </trkpt>
   <trkpt lat="-3.1412790" lon="37.3005900">
    <ele>2450.8</ele>
    <time>2026-06-20T13:26:05Z</time>
   </trkpt>
   <trkpt lat="-3.1412790" lon="37.3005900">
    <ele>2450.8</ele>
    <time>2026-06-20T13:26:06Z</time>
   </trkpt>
   <trkpt lat="-3.1412790" lon="37.3005900">
    <ele>2450.8</ele>
    <time>2026-06-20T13:26:07Z</time>
   </trkpt>
   <trkpt lat="-3.1412790" lon="37.3005900">
    <ele>2450.8</ele>
    <time>2026-06-20T13:26:08Z</time>
   </trkpt>
   <trkpt lat="-3.1412790" lon="37.3005900">
    <ele>2450.8</ele>
    <time>2026-06-20T13:26:09Z</time>
   </trkpt>
   <trkpt lat="-3.1412790" lon="37.3005900">
    <ele>2450.8</ele>
    <time>2026-06-20T13:26:10Z</time>
   </trkpt>
   <trkpt lat="-3.1412790" lon="37.3005900">
    <ele>2450.8</ele>
    <time>2026-06-20T13:26:11Z</time>
   </trkpt>
   <trkpt lat="-3.1412920" lon="37.3005720">
    <ele>2451.0</ele>
    <time>2026-06-20T13:26:12Z</time>
   </trkpt>
   <trkpt lat="-3.1412920" lon="37.3005720">
    <ele>2451.0</ele>
    <time>2026-06-20T13:26:13Z</time>
   </trkpt>
   <trkpt lat="-3.1412980" lon="37.3005640">
    <ele>2451.1</ele>
    <time>2026-06-20T13:26:14Z</time>
   </trkpt>
   <trkpt lat="-3.1412950" lon="37.3005710">
    <ele>2451.2</ele>
    <time>2026-06-20T13:26:15Z</time>
   </trkpt>
   <trkpt lat="-3.1412970" lon="37.3005650">
    <ele>2451.2</ele>
    <time>2026-06-20T13:26:16Z</time>
   </trkpt>
   <trkpt lat="-3.1412990" lon="37.3005680">
    <ele>2451.3</ele>
    <time>2026-06-20T13:26:17Z</time>
   </trkpt>
   <trkpt lat="-3.1412990" lon="37.3005670">
    <ele>2451.3</ele>
    <time>2026-06-20T13:26:18Z</time>
   </trkpt>
   <trkpt lat="-3.1412990" lon="37.3005670">
    <ele>2451.3</ele>
    <time>2026-06-20T13:26:19Z</time>
   </trkpt>
   <trkpt lat="-3.1412960" lon="37.3005640">
    <ele>2451.3</ele>
    <time>2026-06-20T13:26:20Z</time>
   </trkpt>
   <trkpt lat="-3.1412960" lon="37.3005630">
    <ele>2451.3</ele>
    <time>2026-06-20T13:26:21Z</time>
   </trkpt>
   <trkpt lat="-3.1412960" lon="37.3005630">
    <ele>2451.3</ele>
    <time>2026-06-20T13:26:22Z</time>
   </trkpt>
   <trkpt lat="-3.1412950" lon="37.3005650">
    <ele>2451.3</ele>
    <time>2026-06-20T13:26:23Z</time>
   </trkpt>
   <trkpt lat="-3.1412940" lon="37.3005650">
    <ele>2451.3</ele>
    <time>2026-06-20T13:26:24Z</time>
   </trkpt>
   <trkpt lat="-3.1412950" lon="37.3005630">
    <ele>2451.4</ele>
    <time>2026-06-20T13:26:25Z</time>
   </trkpt>
   <trkpt lat="-3.1412950" lon="37.3005600">
    <ele>2451.4</ele>
    <time>2026-06-20T13:26:26Z</time>
   </trkpt>
   <trkpt lat="-3.1412950" lon="37.3005600">
    <ele>2451.4</ele>
    <time>2026-06-20T13:26:27Z</time>
   </trkpt>
   <trkpt lat="-3.1412920" lon="37.3005630">
    <ele>2451.4</ele>
    <time>2026-06-20T13:26:28Z</time>
   </trkpt>
   <trkpt lat="-3.1412960" lon="37.3005580">
    <ele>2451.5</ele>
    <time>2026-06-20T13:26:29Z</time>
   </trkpt>
   <trkpt lat="-3.1412960" lon="37.3005580">
    <ele>2451.5</ele>
    <time>2026-06-20T13:26:30Z</time>
   </trkpt>
   <trkpt lat="-3.1412930" lon="37.3005610">
    <ele>2451.5</ele>
    <time>2026-06-20T13:26:31Z</time>
   </trkpt>
   <trkpt lat="-3.1412920" lon="37.3005630">
    <ele>2451.6</ele>
    <time>2026-06-20T13:26:32Z</time>
   </trkpt>
   <trkpt lat="-3.1412920" lon="37.3005610">
    <ele>2451.6</ele>
    <time>2026-06-20T13:26:33Z</time>
   </trkpt>
   <trkpt lat="-3.1412920" lon="37.3005610">
    <ele>2451.6</ele>
    <time>2026-06-20T13:26:34Z</time>
   </trkpt>
   <trkpt lat="-3.1412920" lon="37.3005610">
    <ele>2451.6</ele>
    <time>2026-06-20T13:26:35Z</time>
   </trkpt>
   <trkpt lat="-3.1412920" lon="37.3005610">
    <ele>2451.6</ele>
    <time>2026-06-20T13:26:36Z</time>
   </trkpt>
   <trkpt lat="-3.1412920" lon="37.3005610">
    <ele>2451.6</ele>
    <time>2026-06-20T13:26:37Z</time>
   </trkpt>
   <trkpt lat="-3.1412920" lon="37.3005610">
    <ele>2451.6</ele>
    <time>2026-06-20T13:26:38Z</time>
   </trkpt>
   <trkpt lat="-3.1412920" lon="37.3005610">
    <ele>2451.6</ele>
    <time>2026-06-20T13:26:39Z</time>
   </trkpt>
   <trkpt lat="-3.1412920" lon="37.3005610">
    <ele>2451.6</ele>
    <time>2026-06-20T13:26:40Z</time>
   </trkpt>
   <trkpt lat="-3.1412840" lon="37.3005670">
    <ele>2451.7</ele>
    <time>2026-06-20T13:26:41Z</time>
   </trkpt>
   <trkpt lat="-3.1412840" lon="37.3005670">
    <ele>2451.7</ele>
    <time>2026-06-20T13:26:42Z</time>
   </trkpt>
   <trkpt lat="-3.1412840" lon="37.3005670">
    <ele>2451.7</ele>
    <time>2026-06-20T13:26:43Z</time>
   </trkpt>
   <trkpt lat="-3.1412840" lon="37.3005670">
    <ele>2451.7</ele>
    <time>2026-06-20T13:26:44Z</time>
   </trkpt>
   <trkpt lat="-3.1412840" lon="37.3005670">
    <ele>2451.7</ele>
    <time>2026-06-20T13:26:45Z</time>
   </trkpt>
   <trkpt lat="-3.1412750" lon="37.3005750">
    <ele>2451.8</ele>
    <time>2026-06-20T13:26:46Z</time>
   </trkpt>
   <trkpt lat="-3.1412760" lon="37.3005750">
    <ele>2451.8</ele>
    <time>2026-06-20T13:26:47Z</time>
   </trkpt>
   <trkpt lat="-3.1412730" lon="37.3005780">
    <ele>2451.9</ele>
    <time>2026-06-20T13:26:48Z</time>
   </trkpt>
   <trkpt lat="-3.1412720" lon="37.3005800">
    <ele>2451.9</ele>
    <time>2026-06-20T13:26:49Z</time>
   </trkpt>
   <trkpt lat="-3.1412770" lon="37.3005790">
    <ele>2451.9</ele>
    <time>2026-06-20T13:26:50Z</time>
   </trkpt>
   <trkpt lat="-3.1412770" lon="37.3005860">
    <ele>2452.0</ele>
    <time>2026-06-20T13:26:51Z</time>
   </trkpt>
   <trkpt lat="-3.1412810" lon="37.3005850">
    <ele>2452.1</ele>
    <time>2026-06-20T13:26:52Z</time>
   </trkpt>
   <trkpt lat="-3.1412840" lon="37.3005860">
    <ele>2452.1</ele>
    <time>2026-06-20T13:26:53Z</time>
   </trkpt>
   <trkpt lat="-3.1412890" lon="37.3005870">
    <ele>2452.2</ele>
    <time>2026-06-20T13:26:54Z</time>
   </trkpt>
   <trkpt lat="-3.1412950" lon="37.3005740">
    <ele>2452.3</ele>
    <time>2026-06-20T13:26:55Z</time>
   </trkpt>
   <trkpt lat="-3.1412980" lon="37.3005700">
    <ele>2452.4</ele>
    <time>2026-06-20T13:26:56Z</time>
   </trkpt>
   <trkpt lat="-3.1412980" lon="37.3005700">
    <ele>2452.4</ele>
    <time>2026-06-20T13:26:57Z</time>
   </trkpt>
   <trkpt lat="-3.1412990" lon="37.3005710">
    <ele>2452.4</ele>
    <time>2026-06-20T13:26:58Z</time>
   </trkpt>
   <trkpt lat="-3.1412990" lon="37.3005730">
    <ele>2452.4</ele>
    <time>2026-06-20T13:26:59Z</time>
   </trkpt>
   <trkpt lat="-3.1412950" lon="37.3005760">
    <ele>2452.5</ele>
    <time>2026-06-20T13:27:00Z</time>
   </trkpt>
   <trkpt lat="-3.1413010" lon="37.3005800">
    <ele>2452.6</ele>
    <time>2026-06-20T13:27:01Z</time>
   </trkpt>
   <trkpt lat="-3.1413020" lon="37.3005780">
    <ele>2452.6</ele>
    <time>2026-06-20T13:27:02Z</time>
   </trkpt>
   <trkpt lat="-3.1413050" lon="37.3005790">
    <ele>2452.6</ele>
    <time>2026-06-20T13:27:03Z</time>
   </trkpt>
   <trkpt lat="-3.1413040" lon="37.3005770">
    <ele>2452.7</ele>
    <time>2026-06-20T13:27:04Z</time>
   </trkpt>
   <trkpt lat="-3.1412970" lon="37.3005740">
    <ele>2452.8</ele>
    <time>2026-06-20T13:27:05Z</time>
   </trkpt>
   <trkpt lat="-3.1412980" lon="37.3005730">
    <ele>2452.8</ele>
    <time>2026-06-20T13:27:06Z</time>
   </trkpt>
   <trkpt lat="-3.1412980" lon="37.3005730">
    <ele>2452.8</ele>
    <time>2026-06-20T13:27:07Z</time>
   </trkpt>
   <trkpt lat="-3.1412980" lon="37.3005730">
    <ele>2452.8</ele>
    <time>2026-06-20T13:27:08Z</time>
   </trkpt>
   <trkpt lat="-3.1412980" lon="37.3005730">
    <ele>2452.8</ele>
    <time>2026-06-20T13:27:09Z</time>
   </trkpt>
   <trkpt lat="-3.1412980" lon="37.3005730">
    <ele>2452.8</ele>
    <time>2026-06-20T13:27:10Z</time>
   </trkpt>
   <trkpt lat="-3.1412980" lon="37.3005730">
    <ele>2452.8</ele>
    <time>2026-06-20T13:27:11Z</time>
   </trkpt>
   <trkpt lat="-3.1412980" lon="37.3005730">
    <ele>2452.8</ele>
    <time>2026-06-20T13:27:12Z</time>
   </trkpt>
   <trkpt lat="-3.1412980" lon="37.3005730">
    <ele>2452.8</ele>
    <time>2026-06-20T13:27:13Z</time>
   </trkpt>
   <trkpt lat="-3.1412730" lon="37.3005560">
    <ele>2453.2</ele>
    <time>2026-06-20T13:27:14Z</time>
   </trkpt>
   <trkpt lat="-3.1412720" lon="37.3005550">
    <ele>2453.2</ele>
    <time>2026-06-20T13:27:15Z</time>
   </trkpt>
   <trkpt lat="-3.1412720" lon="37.3005550">
    <ele>2453.2</ele>
    <time>2026-06-20T13:27:16Z</time>
   </trkpt>
   <trkpt lat="-3.1412720" lon="37.3005550">
    <ele>2453.2</ele>
    <time>2026-06-20T13:27:17Z</time>
   </trkpt>
   <trkpt lat="-3.1412720" lon="37.3005550">
    <ele>2453.2</ele>
    <time>2026-06-20T13:27:18Z</time>
   </trkpt>
   <trkpt lat="-3.1412720" lon="37.3005550">
    <ele>2453.2</ele>
    <time>2026-06-20T13:27:19Z</time>
   </trkpt>
   <trkpt lat="-3.1412720" lon="37.3005490">
    <ele>2453.3</ele>
    <time>2026-06-20T13:27:20Z</time>
   </trkpt>
   <trkpt lat="-3.1412720" lon="37.3005480">
    <ele>2453.3</ele>
    <time>2026-06-20T13:27:21Z</time>
   </trkpt>
   <trkpt lat="-3.1412760" lon="37.3005430">
    <ele>2453.4</ele>
    <time>2026-06-20T13:27:22Z</time>
   </trkpt>
   <trkpt lat="-3.1412800" lon="37.3005410">
    <ele>2453.4</ele>
    <time>2026-06-20T13:27:23Z</time>
   </trkpt>
   <trkpt lat="-3.1412820" lon="37.3005400">
    <ele>2453.5</ele>
    <time>2026-06-20T13:27:24Z</time>
   </trkpt>
   <trkpt lat="-3.1412820" lon="37.3005390">
    <ele>2453.5</ele>
    <time>2026-06-20T13:27:25Z</time>
   </trkpt>
   <trkpt lat="-3.1412800" lon="37.3005420">
    <ele>2453.5</ele>
    <time>2026-06-20T13:27:26Z</time>
   </trkpt>
   <trkpt lat="-3.1412790" lon="37.3005430">
    <ele>2453.6</ele>
    <time>2026-06-20T13:27:27Z</time>
   </trkpt>
   <trkpt lat="-3.1412790" lon="37.3005430">
    <ele>2453.6</ele>
    <time>2026-06-20T13:27:28Z</time>
   </trkpt>
   <trkpt lat="-3.1412790" lon="37.3005430">
    <ele>2453.6</ele>
    <time>2026-06-20T13:27:29Z</time>
   </trkpt>
   <trkpt lat="-3.1412790" lon="37.3005430">
    <ele>2453.6</ele>
    <time>2026-06-20T13:27:30Z</time>
   </trkpt>
   <trkpt lat="-3.1412790" lon="37.3005430">
    <ele>2453.6</ele>
    <time>2026-06-20T13:27:31Z</time>
   </trkpt>
   <trkpt lat="-3.1412760" lon="37.3005520">
    <ele>2453.7</ele>
    <time>2026-06-20T13:27:32Z</time>
   </trkpt>
   <trkpt lat="-3.1412760" lon="37.3005510">
    <ele>2453.7</ele>
    <time>2026-06-20T13:27:33Z</time>
   </trkpt>
   <trkpt lat="-3.1412760" lon="37.3005510">
    <ele>2453.7</ele>
    <time>2026-06-20T13:27:34Z</time>
   </trkpt>
   <trkpt lat="-3.1412760" lon="37.3005530">
    <ele>2453.7</ele>
    <time>2026-06-20T13:27:35Z</time>
   </trkpt>
   <trkpt lat="-3.1412780" lon="37.3005530">
    <ele>2453.8</ele>
    <time>2026-06-20T13:27:36Z</time>
   </trkpt>
   <trkpt lat="-3.1412780" lon="37.3005530">
    <ele>2453.8</ele>
    <time>2026-06-20T13:27:37Z</time>
   </trkpt>
   <trkpt lat="-3.1412780" lon="37.3005530">
    <ele>2453.8</ele>
    <time>2026-06-20T13:27:39Z</time>
   </trkpt>
   <trkpt lat="-3.1412780" lon="37.3005530">
    <ele>2453.8</ele>
    <time>2026-06-20T13:27:40Z</time>
   </trkpt>
   <trkpt lat="-3.1412780" lon="37.3005530">
    <ele>2453.8</ele>
    <time>2026-06-20T13:27:41Z</time>
   </trkpt>
   <trkpt lat="-3.1412780" lon="37.3005530">
    <ele>2453.8</ele>
    <time>2026-06-20T13:27:42Z</time>
   </trkpt>
   <trkpt lat="-3.1412780" lon="37.3005530">
    <ele>2453.8</ele>
    <time>2026-06-20T13:27:43Z</time>
   </trkpt>
   <trkpt lat="-3.1412760" lon="37.3005460">
    <ele>2453.9</ele>
    <time>2026-06-20T13:27:44Z</time>
   </trkpt>
   <trkpt lat="-3.1412760" lon="37.3005460">
    <ele>2453.9</ele>
    <time>2026-06-20T13:27:45Z</time>
   </trkpt>
   <trkpt lat="-3.1412760" lon="37.3005460">
    <ele>2453.9</ele>
    <time>2026-06-20T13:27:46Z</time>
   </trkpt>
   <trkpt lat="-3.1412760" lon="37.3005460">
    <ele>2453.9</ele>
    <time>2026-06-20T13:27:47Z</time>
   </trkpt>
   <trkpt lat="-3.1412760" lon="37.3005460">
    <ele>2453.9</ele>
    <time>2026-06-20T13:27:48Z</time>
   </trkpt>
   <trkpt lat="-3.1412760" lon="37.3005460">
    <ele>2453.9</ele>
    <time>2026-06-20T13:27:49Z</time>
   </trkpt>
   <trkpt lat="-3.1412760" lon="37.3005460">
    <ele>2453.9</ele>
    <time>2026-06-20T13:27:50Z</time>
   </trkpt>
   <trkpt lat="-3.1412770" lon="37.3005360">
    <ele>2454.0</ele>
    <time>2026-06-20T13:27:51Z</time>
   </trkpt>
   <trkpt lat="-3.1412770" lon="37.3005360">
    <ele>2454.0</ele>
    <time>2026-06-20T13:27:52Z</time>
   </trkpt>
   <trkpt lat="-3.1412770" lon="37.3005360">
    <ele>2454.0</ele>
    <time>2026-06-20T13:27:53Z</time>
   </trkpt>
   <trkpt lat="-3.1412770" lon="37.3005360">
    <ele>2454.0</ele>
    <time>2026-06-20T13:27:54Z</time>
   </trkpt>
   <trkpt lat="-3.1412760" lon="37.3005340">
    <ele>2454.1</ele>
    <time>2026-06-20T13:27:55Z</time>
   </trkpt>
   <trkpt lat="-3.1412760" lon="37.3005340">
    <ele>2454.1</ele>
    <time>2026-06-20T13:27:56Z</time>
   </trkpt>
   <trkpt lat="-3.1412750" lon="37.3005360">
    <ele>2454.1</ele>
    <time>2026-06-20T13:27:57Z</time>
   </trkpt>
   <trkpt lat="-3.1412750" lon="37.3005360">
    <ele>2454.1</ele>
    <time>2026-06-20T13:27:58Z</time>
   </trkpt>
   <trkpt lat="-3.1412750" lon="37.3005360">
    <ele>2454.1</ele>
    <time>2026-06-20T13:27:59Z</time>
   </trkpt>
   <trkpt lat="-3.1412750" lon="37.3005360">
    <ele>2454.1</ele>
    <time>2026-06-20T13:28:00Z</time>
   </trkpt>
   <trkpt lat="-3.1412760" lon="37.3005370">
    <ele>2454.1</ele>
    <time>2026-06-20T13:28:01Z</time>
   </trkpt>
   <trkpt lat="-3.1412760" lon="37.3005370">
    <ele>2454.1</ele>
    <time>2026-06-20T13:28:02Z</time>
   </trkpt>
   <trkpt lat="-3.1412760" lon="37.3005370">
    <ele>2454.1</ele>
    <time>2026-06-20T13:28:03Z</time>
   </trkpt>
   <trkpt lat="-3.1412760" lon="37.3005380">
    <ele>2454.1</ele>
    <time>2026-06-20T13:28:04Z</time>
   </trkpt>
   <trkpt lat="-3.1412760" lon="37.3005380">
    <ele>2454.1</ele>
    <time>2026-06-20T13:28:05Z</time>
   </trkpt>
   <trkpt lat="-3.1412760" lon="37.3005380">
    <ele>2454.1</ele>
    <time>2026-06-20T13:28:06Z</time>
   </trkpt>
   <trkpt lat="-3.1412760" lon="37.3005380">
    <ele>2454.1</ele>
    <time>2026-06-20T13:28:07Z</time>
   </trkpt>
   <trkpt lat="-3.1412760" lon="37.3005380">
    <ele>2454.1</ele>
    <time>2026-06-20T13:28:08Z</time>
   </trkpt>
   <trkpt lat="-3.1412760" lon="37.3005380">
    <ele>2454.1</ele>
    <time>2026-06-20T13:28:09Z</time>
   </trkpt>
   <trkpt lat="-3.1412760" lon="37.3005380">
    <ele>2454.1</ele>
    <time>2026-06-20T13:28:10Z</time>
   </trkpt>
   <trkpt lat="-3.1412760" lon="37.3005380">
    <ele>2454.1</ele>
    <time>2026-06-20T13:28:11Z</time>
   </trkpt>
   <trkpt lat="-3.1412760" lon="37.3005380">
    <ele>2454.1</ele>
    <time>2026-06-20T13:28:12Z</time>
   </trkpt>
   <trkpt lat="-3.1412760" lon="37.3005380">
    <ele>2454.1</ele>
    <time>2026-06-20T13:28:13Z</time>
   </trkpt>
   <trkpt lat="-3.1412760" lon="37.3005380">
    <ele>2454.1</ele>
    <time>2026-06-20T13:28:14Z</time>
   </trkpt>
   <trkpt lat="-3.1412850" lon="37.3005270">
    <ele>2454.4</ele>
    <time>2026-06-20T13:28:15Z</time>
   </trkpt>
   <trkpt lat="-3.1412860" lon="37.3005250">
    <ele>2454.4</ele>
    <time>2026-06-20T13:28:16Z</time>
   </trkpt>
   <trkpt lat="-3.1412870" lon="37.3005240">
    <ele>2454.4</ele>
    <time>2026-06-20T13:28:17Z</time>
   </trkpt>
   <trkpt lat="-3.1412870" lon="37.3005240">
    <ele>2454.4</ele>
    <time>2026-06-20T13:28:18Z</time>
   </trkpt>
   <trkpt lat="-3.1412870" lon="37.3005240">
    <ele>2454.4</ele>
    <time>2026-06-20T13:28:19Z</time>
   </trkpt>
   <trkpt lat="-3.1412870" lon="37.3005240">
    <ele>2454.4</ele>
    <time>2026-06-20T13:28:20Z</time>
   </trkpt>
   <trkpt lat="-3.1412890" lon="37.3005290">
    <ele>2454.5</ele>
    <time>2026-06-20T13:28:21Z</time>
   </trkpt>
   <trkpt lat="-3.1412890" lon="37.3005290">
    <ele>2454.5</ele>
    <time>2026-06-20T13:28:22Z</time>
   </trkpt>
   <trkpt lat="-3.1412890" lon="37.3005300">
    <ele>2454.5</ele>
    <time>2026-06-20T13:28:23Z</time>
   </trkpt>
   <trkpt lat="-3.1412880" lon="37.3005330">
    <ele>2454.6</ele>
    <time>2026-06-20T13:28:24Z</time>
   </trkpt>
   <trkpt lat="-3.1412870" lon="37.3005310">
    <ele>2454.6</ele>
    <time>2026-06-20T13:28:25Z</time>
   </trkpt>
   <trkpt lat="-3.1412870" lon="37.3005310">
    <ele>2454.6</ele>
    <time>2026-06-20T13:28:26Z</time>
   </trkpt>
   <trkpt lat="-3.1412880" lon="37.3005310">
    <ele>2454.6</ele>
    <time>2026-06-20T13:28:27Z</time>
   </trkpt>
   <trkpt lat="-3.1412860" lon="37.3005300">
    <ele>2454.6</ele>
    <time>2026-06-20T13:28:28Z</time>
   </trkpt>
   <trkpt lat="-3.1412850" lon="37.3005300">
    <ele>2454.7</ele>
    <time>2026-06-20T13:28:29Z</time>
   </trkpt>
   <trkpt lat="-3.1412850" lon="37.3005300">
    <ele>2454.7</ele>
    <time>2026-06-20T13:28:30Z</time>
   </trkpt>
   <trkpt lat="-3.1412850" lon="37.3005300">
    <ele>2454.7</ele>
    <time>2026-06-20T13:28:31Z</time>
   </trkpt>
   <trkpt lat="-3.1412920" lon="37.3005220">
    <ele>2454.8</ele>
    <time>2026-06-20T13:28:32Z</time>
   </trkpt>
   <trkpt lat="-3.1412900" lon="37.3005260">
    <ele>2454.9</ele>
    <time>2026-06-20T13:28:33Z</time>
   </trkpt>
   <trkpt lat="-3.1412900" lon="37.3005250">
    <ele>2454.9</ele>
    <time>2026-06-20T13:28:34Z</time>
   </trkpt>
   <trkpt lat="-3.1412900" lon="37.3005250">
    <ele>2454.9</ele>
    <time>2026-06-20T13:28:35Z</time>
   </trkpt>
   <trkpt lat="-3.1412900" lon="37.3005250">
    <ele>2454.9</ele>
    <time>2026-06-20T13:28:36Z</time>
   </trkpt>
   <trkpt lat="-3.1412840" lon="37.3005210">
    <ele>2455.1</ele>
    <time>2026-06-20T13:28:37Z</time>
   </trkpt>
   <trkpt lat="-3.1412860" lon="37.3005260">
    <ele>2455.1</ele>
    <time>2026-06-20T13:28:38Z</time>
   </trkpt>
   <trkpt lat="-3.1412870" lon="37.3005260">
    <ele>2455.2</ele>
    <time>2026-06-20T13:28:39Z</time>
   </trkpt>
   <trkpt lat="-3.1412870" lon="37.3005260">
    <ele>2455.2</ele>
    <time>2026-06-20T13:28:40Z</time>
   </trkpt>
   <trkpt lat="-3.1412910" lon="37.3005180">
    <ele>2455.3</ele>
    <time>2026-06-20T13:28:41Z</time>
   </trkpt>
   <trkpt lat="-3.1412900" lon="37.3005160">
    <ele>2455.4</ele>
    <time>2026-06-20T13:28:42Z</time>
   </trkpt>
   <trkpt lat="-3.1412900" lon="37.3005160">
    <ele>2455.4</ele>
    <time>2026-06-20T13:28:43Z</time>
   </trkpt>
   <trkpt lat="-3.1412830" lon="37.3005120">
    <ele>2455.5</ele>
    <time>2026-06-20T13:28:44Z</time>
   </trkpt>
   <trkpt lat="-3.1412840" lon="37.3005120">
    <ele>2455.5</ele>
    <time>2026-06-20T13:28:45Z</time>
   </trkpt>
   <trkpt lat="-3.1412840" lon="37.3005120">
    <ele>2455.5</ele>
    <time>2026-06-20T13:28:46Z</time>
   </trkpt>
   <trkpt lat="-3.1412840" lon="37.3005120">
    <ele>2455.5</ele>
    <time>2026-06-20T13:28:47Z</time>
   </trkpt>
   <trkpt lat="-3.1412840" lon="37.3005120">
    <ele>2455.5</ele>
    <time>2026-06-20T13:28:48Z</time>
   </trkpt>
   <trkpt lat="-3.1412840" lon="37.3005120">
    <ele>2455.5</ele>
    <time>2026-06-20T13:28:49Z</time>
   </trkpt>
   <trkpt lat="-3.1412930" lon="37.3005110">
    <ele>2455.7</ele>
    <time>2026-06-20T13:28:50Z</time>
   </trkpt>
   <trkpt lat="-3.1412930" lon="37.3005110">
    <ele>2455.7</ele>
    <time>2026-06-20T13:28:51Z</time>
   </trkpt>
   <trkpt lat="-3.1412930" lon="37.3005110">
    <ele>2455.7</ele>
    <time>2026-06-20T13:28:52Z</time>
   </trkpt>
   <trkpt lat="-3.1412950" lon="37.3005130">
    <ele>2455.7</ele>
    <time>2026-06-20T13:28:53Z</time>
   </trkpt>
   <trkpt lat="-3.1412950" lon="37.3005130">
    <ele>2455.7</ele>
    <time>2026-06-20T13:28:54Z</time>
   </trkpt>
   <trkpt lat="-3.1412950" lon="37.3005130">
    <ele>2455.7</ele>
    <time>2026-06-20T13:28:55Z</time>
   </trkpt>
   <trkpt lat="-3.1412950" lon="37.3005130">
    <ele>2455.7</ele>
    <time>2026-06-20T13:28:56Z</time>
   </trkpt>
   <trkpt lat="-3.1412950" lon="37.3005130">
    <ele>2455.7</ele>
    <time>2026-06-20T13:28:57Z</time>
   </trkpt>
   <trkpt lat="-3.1412950" lon="37.3005130">
    <ele>2455.7</ele>
    <time>2026-06-20T13:28:58Z</time>
   </trkpt>
   <trkpt lat="-3.1412950" lon="37.3005130">
    <ele>2455.7</ele>
    <time>2026-06-20T13:28:59Z</time>
   </trkpt>
   <trkpt lat="-3.1412950" lon="37.3005130">
    <ele>2455.7</ele>
    <time>2026-06-20T13:29:00Z</time>
   </trkpt>
   <trkpt lat="-3.1412950" lon="37.3005130">
    <ele>2455.7</ele>
    <time>2026-06-20T13:29:01Z</time>
   </trkpt>
   <trkpt lat="-3.1412950" lon="37.3005130">
    <ele>2455.7</ele>
    <time>2026-06-20T13:29:02Z</time>
   </trkpt>
   <trkpt lat="-3.1412870" lon="37.3005140">
    <ele>2455.9</ele>
    <time>2026-06-20T13:29:03Z</time>
   </trkpt>
   <trkpt lat="-3.1412870" lon="37.3005140">
    <ele>2455.9</ele>
    <time>2026-06-20T13:29:04Z</time>
   </trkpt>
   <trkpt lat="-3.1412870" lon="37.3005140">
    <ele>2455.9</ele>
    <time>2026-06-20T13:29:05Z</time>
   </trkpt>
   <trkpt lat="-3.1412870" lon="37.3005140">
    <ele>2455.9</ele>
    <time>2026-06-20T13:29:06Z</time>
   </trkpt>
   <trkpt lat="-3.1412900" lon="37.3005030">
    <ele>2456.1</ele>
    <time>2026-06-20T13:29:07Z</time>
   </trkpt>
   <trkpt lat="-3.1412950" lon="37.3004990">
    <ele>2456.2</ele>
    <time>2026-06-20T13:29:08Z</time>
   </trkpt>
   <trkpt lat="-3.1412970" lon="37.3004960">
    <ele>2456.3</ele>
    <time>2026-06-20T13:29:09Z</time>
   </trkpt>
   <trkpt lat="-3.1413010" lon="37.3004940">
    <ele>2456.3</ele>
    <time>2026-06-20T13:29:10Z</time>
   </trkpt>
   <trkpt lat="-3.1413010" lon="37.3004940">
    <ele>2456.3</ele>
    <time>2026-06-20T13:29:11Z</time>
   </trkpt>
   <trkpt lat="-3.1413010" lon="37.3004940">
    <ele>2456.3</ele>
    <time>2026-06-20T13:29:12Z</time>
   </trkpt>
   <trkpt lat="-3.1412900" lon="37.3005030">
    <ele>2456.6</ele>
    <time>2026-06-20T13:29:13Z</time>
   </trkpt>
   <trkpt lat="-3.1412900" lon="37.3005030">
    <ele>2456.6</ele>
    <time>2026-06-20T13:29:14Z</time>
   </trkpt>
   <trkpt lat="-3.1412900" lon="37.3005030">
    <ele>2456.6</ele>
    <time>2026-06-20T13:29:15Z</time>
   </trkpt>
   <trkpt lat="-3.1412900" lon="37.3005030">
    <ele>2456.6</ele>
    <time>2026-06-20T13:29:16Z</time>
   </trkpt>
   <trkpt lat="-3.1412900" lon="37.3005030">
    <ele>2456.6</ele>
    <time>2026-06-20T13:29:17Z</time>
   </trkpt>
   <trkpt lat="-3.1412900" lon="37.3005030">
    <ele>2456.6</ele>
    <time>2026-06-20T13:29:18Z</time>
   </trkpt>
   <trkpt lat="-3.1412900" lon="37.3005030">
    <ele>2456.6</ele>
    <time>2026-06-20T13:29:19Z</time>
   </trkpt>
   <trkpt lat="-3.1412900" lon="37.3005030">
    <ele>2456.6</ele>
    <time>2026-06-20T13:29:20Z</time>
   </trkpt>
   <trkpt lat="-3.1412900" lon="37.3005030">
    <ele>2456.6</ele>
    <time>2026-06-20T13:29:21Z</time>
   </trkpt>
   <trkpt lat="-3.1412880" lon="37.3005060">
    <ele>2456.7</ele>
    <time>2026-06-20T13:29:22Z</time>
   </trkpt>
   <trkpt lat="-3.1412880" lon="37.3005060">
    <ele>2456.7</ele>
    <time>2026-06-20T13:29:23Z</time>
   </trkpt>
   <trkpt lat="-3.1412880" lon="37.3005060">
    <ele>2456.7</ele>
    <time>2026-06-20T13:29:24Z</time>
   </trkpt>
   <trkpt lat="-3.1412880" lon="37.3005060">
    <ele>2456.7</ele>
    <time>2026-06-20T13:29:25Z</time>
   </trkpt>
   <trkpt lat="-3.1412880" lon="37.3005060">
    <ele>2456.7</ele>
    <time>2026-06-20T13:29:26Z</time>
   </trkpt>
   <trkpt lat="-3.1412880" lon="37.3005060">
    <ele>2456.7</ele>
    <time>2026-06-20T13:29:27Z</time>
   </trkpt>
   <trkpt lat="-3.1412880" lon="37.3005060">
    <ele>2456.7</ele>
    <time>2026-06-20T13:29:28Z</time>
   </trkpt>
   <trkpt lat="-3.1412880" lon="37.3005060">
    <ele>2456.7</ele>
    <time>2026-06-20T13:29:29Z</time>
   </trkpt>
   <trkpt lat="-3.1412880" lon="37.3005060">
    <ele>2456.7</ele>
    <time>2026-06-20T13:29:30Z</time>
   </trkpt>
   <trkpt lat="-3.1412880" lon="37.3005060">
    <ele>2456.7</ele>
    <time>2026-06-20T13:29:31Z</time>
   </trkpt>
   <trkpt lat="-3.1412880" lon="37.3005060">
    <ele>2456.7</ele>
    <time>2026-06-20T13:29:32Z</time>
   </trkpt>
   <trkpt lat="-3.1412880" lon="37.3005060">
    <ele>2456.7</ele>
    <time>2026-06-20T13:29:33Z</time>
   </trkpt>
   <trkpt lat="-3.1412880" lon="37.3005060">
    <ele>2456.7</ele>
    <time>2026-06-20T13:29:34Z</time>
   </trkpt>
   <trkpt lat="-3.1412880" lon="37.3005060">
    <ele>2456.7</ele>
    <time>2026-06-20T13:29:35Z</time>
   </trkpt>
   <trkpt lat="-3.1412880" lon="37.3005060">
    <ele>2456.7</ele>
    <time>2026-06-20T13:29:36Z</time>
   </trkpt>
   <trkpt lat="-3.1412880" lon="37.3005060">
    <ele>2456.7</ele>
    <time>2026-06-20T13:29:37Z</time>
   </trkpt>
   <trkpt lat="-3.1412880" lon="37.3005060">
    <ele>2456.7</ele>
    <time>2026-06-20T13:29:38Z</time>
   </trkpt>
   <trkpt lat="-3.1412980" lon="37.3005030">
    <ele>2456.9</ele>
    <time>2026-06-20T13:29:39Z</time>
   </trkpt>
   <trkpt lat="-3.1412990" lon="37.3005030">
    <ele>2456.9</ele>
    <time>2026-06-20T13:29:40Z</time>
   </trkpt>
   <trkpt lat="-3.1413000" lon="37.3005020">
    <ele>2456.9</ele>
    <time>2026-06-20T13:29:41Z</time>
   </trkpt>
   <trkpt lat="-3.1413000" lon="37.3005020">
    <ele>2456.9</ele>
    <time>2026-06-20T13:29:42Z</time>
   </trkpt>
   <trkpt lat="-3.1413000" lon="37.3005020">
    <ele>2456.9</ele>
    <time>2026-06-20T13:29:43Z</time>
   </trkpt>
   <trkpt lat="-3.1413000" lon="37.3005020">
    <ele>2456.9</ele>
    <time>2026-06-20T13:29:44Z</time>
   </trkpt>
   <trkpt lat="-3.1413000" lon="37.3005020">
    <ele>2456.9</ele>
    <time>2026-06-20T13:29:45Z</time>
   </trkpt>
   <trkpt lat="-3.1413000" lon="37.3005020">
    <ele>2456.9</ele>
    <time>2026-06-20T13:29:46Z</time>
   </trkpt>
   <trkpt lat="-3.1413000" lon="37.3005020">
    <ele>2456.9</ele>
    <time>2026-06-20T13:29:47Z</time>
   </trkpt>
   <trkpt lat="-3.1413000" lon="37.3005020">
    <ele>2456.9</ele>
    <time>2026-06-20T13:29:48Z</time>
   </trkpt>
   <trkpt lat="-3.1413000" lon="37.3005020">
    <ele>2456.9</ele>
    <time>2026-06-20T13:29:49Z</time>
   </trkpt>
   <trkpt lat="-3.1413000" lon="37.3005020">
    <ele>2456.9</ele>
    <time>2026-06-20T13:29:50Z</time>
   </trkpt>
   <trkpt lat="-3.1413000" lon="37.3005020">
    <ele>2456.9</ele>
    <time>2026-06-20T13:29:51Z</time>
   </trkpt>
   <trkpt lat="-3.1413000" lon="37.3005020">
    <ele>2456.9</ele>
    <time>2026-06-20T13:29:52Z</time>
   </trkpt>
   <trkpt lat="-3.1413000" lon="37.3005020">
    <ele>2456.9</ele>
    <time>2026-06-20T13:29:53Z</time>
   </trkpt>
   <trkpt lat="-3.1413000" lon="37.3005020">
    <ele>2456.9</ele>
    <time>2026-06-20T13:29:54Z</time>
   </trkpt>
   <trkpt lat="-3.1413000" lon="37.3005020">
    <ele>2456.9</ele>
    <time>2026-06-20T13:29:55Z</time>
   </trkpt>
   <trkpt lat="-3.1413000" lon="37.3005020">
    <ele>2456.9</ele>
    <time>2026-06-20T13:29:56Z</time>
   </trkpt>
   <trkpt lat="-3.1413000" lon="37.3005020">
    <ele>2456.9</ele>
    <time>2026-06-20T13:29:57Z</time>
   </trkpt>
   <trkpt lat="-3.1413000" lon="37.3005020">
    <ele>2456.9</ele>
    <time>2026-06-20T13:29:58Z</time>
   </trkpt>
   <trkpt lat="-3.1413000" lon="37.3005020">
    <ele>2456.9</ele>
    <time>2026-06-20T13:29:59Z</time>
   </trkpt>
   <trkpt lat="-3.1413000" lon="37.3005020">
    <ele>2456.9</ele>
    <time>2026-06-20T13:30:00Z</time>
   </trkpt>
   <trkpt lat="-3.1413000" lon="37.3005050">
    <ele>2457.0</ele>
    <time>2026-06-20T13:30:01Z</time>
   </trkpt>
   <trkpt lat="-3.1413020" lon="37.3005040">
    <ele>2457.0</ele>
    <time>2026-06-20T13:30:02Z</time>
   </trkpt>
   <trkpt lat="-3.1412990" lon="37.3005060">
    <ele>2457.1</ele>
    <time>2026-06-20T13:30:03Z</time>
   </trkpt>
   <trkpt lat="-3.1412960" lon="37.3005110">
    <ele>2457.2</ele>
    <time>2026-06-20T13:30:04Z</time>
   </trkpt>
   <trkpt lat="-3.1412970" lon="37.3005040">
    <ele>2457.3</ele>
    <time>2026-06-20T13:30:05Z</time>
   </trkpt>
   <trkpt lat="-3.1413000" lon="37.3004980">
    <ele>2457.5</ele>
    <time>2026-06-20T13:30:06Z</time>
   </trkpt>
   <trkpt lat="-3.1413000" lon="37.3005010">
    <ele>2457.5</ele>
    <time>2026-06-20T13:30:07Z</time>
   </trkpt>
   <trkpt lat="-3.1413000" lon="37.3005010">
    <ele>2457.5</ele>
    <time>2026-06-20T13:30:08Z</time>
   </trkpt>
   <trkpt lat="-3.1413050" lon="37.3005080">
    <ele>2457.7</ele>
    <time>2026-06-20T13:30:09Z</time>
   </trkpt>
   <trkpt lat="-3.1413050" lon="37.3005090">
    <ele>2457.7</ele>
    <time>2026-06-20T13:30:10Z</time>
   </trkpt>
   <trkpt lat="-3.1413120" lon="37.3005070">
    <ele>2457.9</ele>
    <time>2026-06-20T13:30:11Z</time>
   </trkpt>
   <trkpt lat="-3.1413160" lon="37.3005070">
    <ele>2457.9</ele>
    <time>2026-06-20T13:30:12Z</time>
   </trkpt>
   <trkpt lat="-3.1413180" lon="37.3005090">
    <ele>2458.0</ele>
    <time>2026-06-20T13:30:13Z</time>
   </trkpt>
   <trkpt lat="-3.1413210" lon="37.3005100">
    <ele>2458.1</ele>
    <time>2026-06-20T13:30:14Z</time>
   </trkpt>
   <trkpt lat="-3.1413230" lon="37.3005090">
    <ele>2458.1</ele>
    <time>2026-06-20T13:30:15Z</time>
   </trkpt>
   <trkpt lat="-3.1413230" lon="37.3005080">
    <ele>2458.1</ele>
    <time>2026-06-20T13:30:16Z</time>
   </trkpt>
   <trkpt lat="-3.1413230" lon="37.3005080">
    <ele>2458.1</ele>
    <time>2026-06-20T13:30:17Z</time>
   </trkpt>
   <trkpt lat="-3.1413230" lon="37.3005150">
    <ele>2458.3</ele>
    <time>2026-06-20T13:30:18Z</time>
   </trkpt>
   <trkpt lat="-3.1413220" lon="37.3005180">
    <ele>2458.3</ele>
    <time>2026-06-20T13:30:19Z</time>
   </trkpt>
   <trkpt lat="-3.1413220" lon="37.3005180">
    <ele>2458.3</ele>
    <time>2026-06-20T13:30:20Z</time>
   </trkpt>
   <trkpt lat="-3.1413220" lon="37.3005170">
    <ele>2458.3</ele>
    <time>2026-06-20T13:30:21Z</time>
   </trkpt>
   <trkpt lat="-3.1413220" lon="37.3005170">
    <ele>2458.3</ele>
    <time>2026-06-20T13:30:22Z</time>
   </trkpt>
   <trkpt lat="-3.1413220" lon="37.3005170">
    <ele>2458.3</ele>
    <time>2026-06-20T13:30:23Z</time>
   </trkpt>
   <trkpt lat="-3.1413220" lon="37.3005170">
    <ele>2458.3</ele>
    <time>2026-06-20T13:30:24Z</time>
   </trkpt>
   <trkpt lat="-3.1413220" lon="37.3005170">
    <ele>2458.3</ele>
    <time>2026-06-20T13:30:25Z</time>
   </trkpt>
   <trkpt lat="-3.1413220" lon="37.3005170">
    <ele>2458.3</ele>
    <time>2026-06-20T13:30:26Z</time>
   </trkpt>
   <trkpt lat="-3.1413200" lon="37.3005230">
    <ele>2458.5</ele>
    <time>2026-06-20T13:30:27Z</time>
   </trkpt>
   <trkpt lat="-3.1413200" lon="37.3005230">
    <ele>2458.5</ele>
    <time>2026-06-20T13:30:28Z</time>
   </trkpt>
   <trkpt lat="-3.1413200" lon="37.3005230">
    <ele>2458.5</ele>
    <time>2026-06-20T13:30:29Z</time>
   </trkpt>
   <trkpt lat="-3.1413200" lon="37.3005200">
    <ele>2458.5</ele>
    <time>2026-06-20T13:30:30Z</time>
   </trkpt>
   <trkpt lat="-3.1413200" lon="37.3005200">
    <ele>2458.5</ele>
    <time>2026-06-20T13:30:31Z</time>
   </trkpt>
   <trkpt lat="-3.1413180" lon="37.3005170">
    <ele>2458.6</ele>
    <time>2026-06-20T13:30:32Z</time>
   </trkpt>
   <trkpt lat="-3.1413150" lon="37.3005260">
    <ele>2458.8</ele>
    <time>2026-06-20T13:30:33Z</time>
   </trkpt>
   <trkpt lat="-3.1413150" lon="37.3005260">
    <ele>2458.8</ele>
    <time>2026-06-20T13:30:34Z</time>
   </trkpt>
   <trkpt lat="-3.1413140" lon="37.3005320">
    <ele>2458.9</ele>
    <time>2026-06-20T13:30:35Z</time>
   </trkpt>
   <trkpt lat="-3.1413140" lon="37.3005340">
    <ele>2459.0</ele>
    <time>2026-06-20T13:30:36Z</time>
   </trkpt>
   <trkpt lat="-3.1413140" lon="37.3005340">
    <ele>2459.0</ele>
    <time>2026-06-20T13:30:37Z</time>
   </trkpt>
   <trkpt lat="-3.1413140" lon="37.3005340">
    <ele>2459.0</ele>
    <time>2026-06-20T13:30:38Z</time>
   </trkpt>
   <trkpt lat="-3.1413110" lon="37.3005450">
    <ele>2459.2</ele>
    <time>2026-06-20T13:30:39Z</time>
   </trkpt>
   <trkpt lat="-3.1413110" lon="37.3005450">
    <ele>2459.2</ele>
    <time>2026-06-20T13:30:40Z</time>
   </trkpt>
   <trkpt lat="-3.1413090" lon="37.3005480">
    <ele>2459.3</ele>
    <time>2026-06-20T13:30:41Z</time>
   </trkpt>
   <trkpt lat="-3.1413090" lon="37.3005480">
    <ele>2459.3</ele>
    <time>2026-06-20T13:30:42Z</time>
   </trkpt>
   <trkpt lat="-3.1413090" lon="37.3005480">
    <ele>2459.3</ele>
    <time>2026-06-20T13:30:43Z</time>
   </trkpt>
   <trkpt lat="-3.1413080" lon="37.3005480">
    <ele>2459.3</ele>
    <time>2026-06-20T13:30:44Z</time>
   </trkpt>
   <trkpt lat="-3.1413080" lon="37.3005500">
    <ele>2459.3</ele>
    <time>2026-06-20T13:30:45Z</time>
   </trkpt>
   <trkpt lat="-3.1413080" lon="37.3005490">
    <ele>2459.4</ele>
    <time>2026-06-20T13:30:46Z</time>
   </trkpt>
   <trkpt lat="-3.1413100" lon="37.3005560">
    <ele>2459.5</ele>
    <time>2026-06-20T13:30:47Z</time>
   </trkpt>
   <trkpt lat="-3.1413100" lon="37.3005550">
    <ele>2459.5</ele>
    <time>2026-06-20T13:30:48Z</time>
   </trkpt>
   <trkpt lat="-3.1413100" lon="37.3005550">
    <ele>2459.5</ele>
    <time>2026-06-20T13:30:49Z</time>
   </trkpt>
   <trkpt lat="-3.1413080" lon="37.3005680">
    <ele>2459.8</ele>
    <time>2026-06-20T13:30:50Z</time>
   </trkpt>
   <trkpt lat="-3.1413030" lon="37.3005710">
    <ele>2459.9</ele>
    <time>2026-06-20T13:30:51Z</time>
   </trkpt>
   <trkpt lat="-3.1413030" lon="37.3005690">
    <ele>2460.0</ele>
    <time>2026-06-20T13:30:52Z</time>
   </trkpt>
   <trkpt lat="-3.1412990" lon="37.3005690">
    <ele>2460.1</ele>
    <time>2026-06-20T13:30:53Z</time>
   </trkpt>
   <trkpt lat="-3.1412970" lon="37.3005690">
    <ele>2460.1</ele>
    <time>2026-06-20T13:30:54Z</time>
   </trkpt>
   <trkpt lat="-3.1412990" lon="37.3005650">
    <ele>2460.2</ele>
    <time>2026-06-20T13:30:55Z</time>
   </trkpt>
   <trkpt lat="-3.1413000" lon="37.3005640">
    <ele>2460.2</ele>
    <time>2026-06-20T13:30:56Z</time>
   </trkpt>
   <trkpt lat="-3.1413000" lon="37.3005640">
    <ele>2460.2</ele>
    <time>2026-06-20T13:30:57Z</time>
   </trkpt>
   <trkpt lat="-3.1412990" lon="37.3005580">
    <ele>2460.4</ele>
    <time>2026-06-20T13:30:58Z</time>
   </trkpt>
   <trkpt lat="-3.1413040" lon="37.3005570">
    <ele>2460.5</ele>
    <time>2026-06-20T13:30:59Z</time>
   </trkpt>
   <trkpt lat="-3.1412980" lon="37.3005610">
    <ele>2460.6</ele>
    <time>2026-06-20T13:31:00Z</time>
   </trkpt>
   <trkpt lat="-3.1412980" lon="37.3005610">
    <ele>2460.6</ele>
    <time>2026-06-20T13:31:01Z</time>
   </trkpt>
   <trkpt lat="-3.1412980" lon="37.3005610">
    <ele>2460.6</ele>
    <time>2026-06-20T13:31:02Z</time>
   </trkpt>
   <trkpt lat="-3.1412960" lon="37.3005660">
    <ele>2460.7</ele>
    <time>2026-06-20T13:31:03Z</time>
   </trkpt>
   <trkpt lat="-3.1412960" lon="37.3005650">
    <ele>2460.8</ele>
    <time>2026-06-20T13:31:04Z</time>
   </trkpt>
   <trkpt lat="-3.1412950" lon="37.3005680">
    <ele>2460.8</ele>
    <time>2026-06-20T13:31:05Z</time>
   </trkpt>
   <trkpt lat="-3.1412930" lon="37.3005680">
    <ele>2460.9</ele>
    <time>2026-06-20T13:31:06Z</time>
   </trkpt>
   <trkpt lat="-3.1412910" lon="37.3005740">
    <ele>2461.0</ele>
    <time>2026-06-20T13:31:07Z</time>
   </trkpt>
   <trkpt lat="-3.1412930" lon="37.3005740">
    <ele>2461.1</ele>
    <time>2026-06-20T13:31:08Z</time>
   </trkpt>
   <trkpt lat="-3.1412930" lon="37.3005700">
    <ele>2461.1</ele>
    <time>2026-06-20T13:31:09Z</time>
   </trkpt>
   <trkpt lat="-3.1412960" lon="37.3005670">
    <ele>2461.2</ele>
    <time>2026-06-20T13:31:10Z</time>
   </trkpt>
   <trkpt lat="-3.1413010" lon="37.3005620">
    <ele>2461.4</ele>
    <time>2026-06-20T13:31:11Z</time>
   </trkpt>
   <trkpt lat="-3.1413080" lon="37.3005540">
    <ele>2461.6</ele>
    <time>2026-06-20T13:31:12Z</time>
   </trkpt>
   <trkpt lat="-3.1413130" lon="37.3005530">
    <ele>2461.7</ele>
    <time>2026-06-20T13:31:13Z</time>
   </trkpt>
   <trkpt lat="-3.1413040" lon="37.3005470">
    <ele>2462.0</ele>
    <time>2026-06-20T13:31:14Z</time>
   </trkpt>
   <trkpt lat="-3.1413010" lon="37.3005490">
    <ele>2462.0</ele>
    <time>2026-06-20T13:31:15Z</time>
   </trkpt>
   <trkpt lat="-3.1413060" lon="37.3005450">
    <ele>2462.2</ele>
    <time>2026-06-20T13:31:16Z</time>
   </trkpt>
   <trkpt lat="-3.1413060" lon="37.3005450">
    <ele>2462.2</ele>
    <time>2026-06-20T13:31:17Z</time>
   </trkpt>
   <trkpt lat="-3.1413060" lon="37.3005450">
    <ele>2462.2</ele>
    <time>2026-06-20T13:31:18Z</time>
   </trkpt>
   <trkpt lat="-3.1413060" lon="37.3005450">
    <ele>2462.2</ele>
    <time>2026-06-20T13:31:19Z</time>
   </trkpt>
   <trkpt lat="-3.1413060" lon="37.3005450">
    <ele>2462.2</ele>
    <time>2026-06-20T13:31:20Z</time>
   </trkpt>
   <trkpt lat="-3.1413060" lon="37.3005450">
    <ele>2462.2</ele>
    <time>2026-06-20T13:31:21Z</time>
   </trkpt>
   <trkpt lat="-3.1413060" lon="37.3005450">
    <ele>2462.2</ele>
    <time>2026-06-20T13:31:22Z</time>
   </trkpt>
   <trkpt lat="-3.1413060" lon="37.3005450">
    <ele>2462.2</ele>
    <time>2026-06-20T13:31:23Z</time>
   </trkpt>
   <trkpt lat="-3.1413060" lon="37.3005450">
    <ele>2462.2</ele>
    <time>2026-06-20T13:31:24Z</time>
   </trkpt>
   <trkpt lat="-3.1413060" lon="37.3005450">
    <ele>2462.2</ele>
    <time>2026-06-20T13:31:25Z</time>
   </trkpt>
   <trkpt lat="-3.1413000" lon="37.3005260">
    <ele>2462.6</ele>
    <time>2026-06-20T13:31:26Z</time>
   </trkpt>
   <trkpt lat="-3.1412990" lon="37.3005180">
    <ele>2462.8</ele>
    <time>2026-06-20T13:31:27Z</time>
   </trkpt>
   <trkpt lat="-3.1412940" lon="37.3005160">
    <ele>2462.9</ele>
    <time>2026-06-20T13:31:28Z</time>
   </trkpt>
   <trkpt lat="-3.1412900" lon="37.3005170">
    <ele>2463.0</ele>
    <time>2026-06-20T13:31:29Z</time>
   </trkpt>
   <trkpt lat="-3.1412900" lon="37.3005170">
    <ele>2463.0</ele>
    <time>2026-06-20T13:31:30Z</time>
   </trkpt>
   <trkpt lat="-3.1412890" lon="37.3005190">
    <ele>2463.0</ele>
    <time>2026-06-20T13:31:31Z</time>
   </trkpt>
   <trkpt lat="-3.1412890" lon="37.3005190">
    <ele>2463.0</ele>
    <time>2026-06-20T13:31:32Z</time>
   </trkpt>
   <trkpt lat="-3.1412890" lon="37.3005190">
    <ele>2463.0</ele>
    <time>2026-06-20T13:31:33Z</time>
   </trkpt>
   <trkpt lat="-3.1412890" lon="37.3005190">
    <ele>2463.0</ele>
    <time>2026-06-20T13:31:34Z</time>
   </trkpt>
   <trkpt lat="-3.1412890" lon="37.3005190">
    <ele>2463.0</ele>
    <time>2026-06-20T13:31:35Z</time>
   </trkpt>
   <trkpt lat="-3.1412890" lon="37.3005190">
    <ele>2463.0</ele>
    <time>2026-06-20T13:31:36Z</time>
   </trkpt>
   <trkpt lat="-3.1412890" lon="37.3005190">
    <ele>2463.0</ele>
    <time>2026-06-20T13:31:37Z</time>
   </trkpt>
   <trkpt lat="-3.1412890" lon="37.3005190">
    <ele>2463.0</ele>
    <time>2026-06-20T13:31:38Z</time>
   </trkpt>
   <trkpt lat="-3.1412890" lon="37.3005190">
    <ele>2463.0</ele>
    <time>2026-06-20T13:31:39Z</time>
   </trkpt>
   <trkpt lat="-3.1412890" lon="37.3005190">
    <ele>2463.0</ele>
    <time>2026-06-20T13:31:40Z</time>
   </trkpt>
   <trkpt lat="-3.1412890" lon="37.3005190">
    <ele>2463.0</ele>
    <time>2026-06-20T13:31:41Z</time>
   </trkpt>
   <trkpt lat="-3.1412890" lon="37.3005190">
    <ele>2463.0</ele>
    <time>2026-06-20T13:31:42Z</time>
   </trkpt>
   <trkpt lat="-3.1413020" lon="37.3005190">
    <ele>2463.3</ele>
    <time>2026-06-20T13:31:43Z</time>
   </trkpt>
   <trkpt lat="-3.1413020" lon="37.3005190">
    <ele>2463.3</ele>
    <time>2026-06-20T13:31:44Z</time>
   </trkpt>
   <trkpt lat="-3.1413020" lon="37.3005190">
    <ele>2463.3</ele>
    <time>2026-06-20T13:31:45Z</time>
   </trkpt>
   <trkpt lat="-3.1413020" lon="37.3005190">
    <ele>2463.3</ele>
    <time>2026-06-20T13:31:46Z</time>
   </trkpt>
   <trkpt lat="-3.1413020" lon="37.3005190">
    <ele>2463.3</ele>
    <time>2026-06-20T13:31:47Z</time>
   </trkpt>
   <trkpt lat="-3.1413020" lon="37.3005190">
    <ele>2463.3</ele>
    <time>2026-06-20T13:31:48Z</time>
   </trkpt>
   <trkpt lat="-3.1413020" lon="37.3005190">
    <ele>2463.3</ele>
    <time>2026-06-20T13:31:49Z</time>
   </trkpt>
   <trkpt lat="-3.1413020" lon="37.3005190">
    <ele>2463.3</ele>
    <time>2026-06-20T13:31:51Z</time>
   </trkpt>
   <trkpt lat="-3.1413020" lon="37.3005190">
    <ele>2463.3</ele>
    <time>2026-06-20T13:31:52Z</time>
   </trkpt>
   <trkpt lat="-3.1413020" lon="37.3005190">
    <ele>2463.3</ele>
    <time>2026-06-20T13:31:53Z</time>
   </trkpt>
   <trkpt lat="-3.1413020" lon="37.3005190">
    <ele>2463.3</ele>
    <time>2026-06-20T13:31:54Z</time>
   </trkpt>
   <trkpt lat="-3.1413000" lon="37.3005190">
    <ele>2463.4</ele>
    <time>2026-06-20T13:31:55Z</time>
   </trkpt>
   <trkpt lat="-3.1413010" lon="37.3005190">
    <ele>2463.4</ele>
    <time>2026-06-20T13:31:56Z</time>
   </trkpt>
   <trkpt lat="-3.1413010" lon="37.3005190">
    <ele>2463.4</ele>
    <time>2026-06-20T13:31:57Z</time>
   </trkpt>
   <trkpt lat="-3.1413010" lon="37.3005190">
    <ele>2463.4</ele>
    <time>2026-06-20T13:31:58Z</time>
   </trkpt>
   <trkpt lat="-3.1413010" lon="37.3005190">
    <ele>2463.4</ele>
    <time>2026-06-20T13:31:59Z</time>
   </trkpt>
   <trkpt lat="-3.1413010" lon="37.3005190">
    <ele>2463.4</ele>
    <time>2026-06-20T13:32:00Z</time>
   </trkpt>
   <trkpt lat="-3.1413010" lon="37.3005190">
    <ele>2463.4</ele>
    <time>2026-06-20T13:32:01Z</time>
   </trkpt>
   <trkpt lat="-3.1413010" lon="37.3005190">
    <ele>2463.4</ele>
    <time>2026-06-20T13:32:02Z</time>
   </trkpt>
   <trkpt lat="-3.1413010" lon="37.3005190">
    <ele>2463.4</ele>
    <time>2026-06-20T13:32:03Z</time>
   </trkpt>
   <trkpt lat="-3.1413010" lon="37.3005190">
    <ele>2463.4</ele>
    <time>2026-06-20T13:32:04Z</time>
   </trkpt>
   <trkpt lat="-3.1412980" lon="37.3005220">
    <ele>2463.5</ele>
    <time>2026-06-20T13:32:05Z</time>
   </trkpt>
   <trkpt lat="-3.1412990" lon="37.3005220">
    <ele>2463.5</ele>
    <time>2026-06-20T13:32:06Z</time>
   </trkpt>
   <trkpt lat="-3.1412990" lon="37.3005220">
    <ele>2463.5</ele>
    <time>2026-06-20T13:32:07Z</time>
   </trkpt>
   <trkpt lat="-3.1412990" lon="37.3005220">
    <ele>2463.5</ele>
    <time>2026-06-20T13:32:08Z</time>
   </trkpt>
   <trkpt lat="-3.1412990" lon="37.3005220">
    <ele>2463.5</ele>
    <time>2026-06-20T13:32:09Z</time>
   </trkpt>
   <trkpt lat="-3.1412990" lon="37.3005220">
    <ele>2463.5</ele>
    <time>2026-06-20T13:32:10Z</time>
   </trkpt>
   <trkpt lat="-3.1412860" lon="37.3005350">
    <ele>2463.9</ele>
    <time>2026-06-20T13:32:11Z</time>
   </trkpt>
   <trkpt lat="-3.1412890" lon="37.3005310">
    <ele>2464.0</ele>
    <time>2026-06-20T13:32:12Z</time>
   </trkpt>
   <trkpt lat="-3.1412920" lon="37.3005280">
    <ele>2464.1</ele>
    <time>2026-06-20T13:32:13Z</time>
   </trkpt>
   <trkpt lat="-3.1412940" lon="37.3005250">
    <ele>2464.2</ele>
    <time>2026-06-20T13:32:14Z</time>
   </trkpt>
   <trkpt lat="-3.1412940" lon="37.3005250">
    <ele>2464.2</ele>
    <time>2026-06-20T13:32:15Z</time>
   </trkpt>
   <trkpt lat="-3.1412940" lon="37.3005250">
    <ele>2464.2</ele>
    <time>2026-06-20T13:32:16Z</time>
   </trkpt>
   <trkpt lat="-3.1412830" lon="37.3005260">
    <ele>2464.4</ele>
    <time>2026-06-20T13:32:17Z</time>
   </trkpt>
   <trkpt lat="-3.1412840" lon="37.3005250">
    <ele>2464.5</ele>
    <time>2026-06-20T13:32:18Z</time>
   </trkpt>
   <trkpt lat="-3.1412790" lon="37.3005250">
    <ele>2464.6</ele>
    <time>2026-06-20T13:32:19Z</time>
   </trkpt>
   <trkpt lat="-3.1412770" lon="37.3005260">
    <ele>2464.6</ele>
    <time>2026-06-20T13:32:20Z</time>
   </trkpt>
   <trkpt lat="-3.1412770" lon="37.3005260">
    <ele>2464.6</ele>
    <time>2026-06-20T13:32:21Z</time>
   </trkpt>
   <trkpt lat="-3.1412710" lon="37.3005270">
    <ele>2464.7</ele>
    <time>2026-06-20T13:32:22Z</time>
   </trkpt>
   <trkpt lat="-3.1412710" lon="37.3005270">
    <ele>2464.7</ele>
    <time>2026-06-20T13:32:23Z</time>
   </trkpt>
   <trkpt lat="-3.1412660" lon="37.3005260">
    <ele>2464.9</ele>
    <time>2026-06-20T13:32:24Z</time>
   </trkpt>
   <trkpt lat="-3.1412630" lon="37.3005290">
    <ele>2465.0</ele>
    <time>2026-06-20T13:32:25Z</time>
   </trkpt>
   <trkpt lat="-3.1412620" lon="37.3005320">
    <ele>2465.0</ele>
    <time>2026-06-20T13:32:26Z</time>
   </trkpt>
   <trkpt lat="-3.1412610" lon="37.3005310">
    <ele>2465.1</ele>
    <time>2026-06-20T13:32:27Z</time>
   </trkpt>
   <trkpt lat="-3.1412610" lon="37.3005310">
    <ele>2465.1</ele>
    <time>2026-06-20T13:32:28Z</time>
   </trkpt>
   <trkpt lat="-3.1412610" lon="37.3005310">
    <ele>2465.1</ele>
    <time>2026-06-20T13:32:29Z</time>
   </trkpt>
   <trkpt lat="-3.1412610" lon="37.3005310">
    <ele>2465.1</ele>
    <time>2026-06-20T13:32:30Z</time>
   </trkpt>
   <trkpt lat="-3.1412610" lon="37.3005310">
    <ele>2465.1</ele>
    <time>2026-06-20T13:32:31Z</time>
   </trkpt>
   <trkpt lat="-3.1412610" lon="37.3005310">
    <ele>2465.1</ele>
    <time>2026-06-20T13:32:32Z</time>
   </trkpt>
   <trkpt lat="-3.1412610" lon="37.3005310">
    <ele>2465.1</ele>
    <time>2026-06-20T13:32:33Z</time>
   </trkpt>
   <trkpt lat="-3.1412610" lon="37.3005310">
    <ele>2465.1</ele>
    <time>2026-06-20T13:32:34Z</time>
   </trkpt>
   <trkpt lat="-3.1412610" lon="37.3005310">
    <ele>2465.1</ele>
    <time>2026-06-20T13:32:35Z</time>
   </trkpt>
   <trkpt lat="-3.1412610" lon="37.3005310">
    <ele>2465.1</ele>
    <time>2026-06-20T13:32:36Z</time>
   </trkpt>
   <trkpt lat="-3.1412750" lon="37.3005420">
    <ele>2465.4</ele>
    <time>2026-06-20T13:32:37Z</time>
   </trkpt>
   <trkpt lat="-3.1412750" lon="37.3005420">
    <ele>2465.4</ele>
    <time>2026-06-20T13:32:38Z</time>
   </trkpt>
   <trkpt lat="-3.1412750" lon="37.3005420">
    <ele>2465.4</ele>
    <time>2026-06-20T13:32:39Z</time>
   </trkpt>
   <trkpt lat="-3.1412750" lon="37.3005420">
    <ele>2465.4</ele>
    <time>2026-06-20T13:32:40Z</time>
   </trkpt>
   <trkpt lat="-3.1412780" lon="37.3005460">
    <ele>2465.6</ele>
    <time>2026-06-20T13:32:41Z</time>
   </trkpt>
   <trkpt lat="-3.1412740" lon="37.3005460">
    <ele>2465.6</ele>
    <time>2026-06-20T13:32:42Z</time>
   </trkpt>
   <trkpt lat="-3.1412710" lon="37.3005480">
    <ele>2465.7</ele>
    <time>2026-06-20T13:32:43Z</time>
   </trkpt>
   <trkpt lat="-3.1412720" lon="37.3005480">
    <ele>2465.7</ele>
    <time>2026-06-20T13:32:44Z</time>
   </trkpt>
   <trkpt lat="-3.1412720" lon="37.3005480">
    <ele>2465.7</ele>
    <time>2026-06-20T13:32:45Z</time>
   </trkpt>
   <trkpt lat="-3.1412660" lon="37.3005490">
    <ele>2465.9</ele>
    <time>2026-06-20T13:32:46Z</time>
   </trkpt>
   <trkpt lat="-3.1412660" lon="37.3005490">
    <ele>2465.9</ele>
    <time>2026-06-20T13:32:47Z</time>
   </trkpt>
   <trkpt lat="-3.1412660" lon="37.3005490">
    <ele>2465.9</ele>
    <time>2026-06-20T13:32:48Z</time>
   </trkpt>
   <trkpt lat="-3.1412590" lon="37.3005510">
    <ele>2466.0</ele>
    <time>2026-06-20T13:32:49Z</time>
   </trkpt>
   <trkpt lat="-3.1412590" lon="37.3005510">
    <ele>2466.0</ele>
    <time>2026-06-20T13:32:50Z</time>
   </trkpt>
   <trkpt lat="-3.1412590" lon="37.3005510">
    <ele>2466.0</ele>
    <time>2026-06-20T13:32:51Z</time>
   </trkpt>
   <trkpt lat="-3.1412590" lon="37.3005510">
    <ele>2466.0</ele>
    <time>2026-06-20T13:32:52Z</time>
   </trkpt>
   <trkpt lat="-3.1412590" lon="37.3005510">
    <ele>2466.0</ele>
    <time>2026-06-20T13:32:53Z</time>
   </trkpt>
   <trkpt lat="-3.1412610" lon="37.3005500">
    <ele>2466.1</ele>
    <time>2026-06-20T13:32:54Z</time>
   </trkpt>
   <trkpt lat="-3.1412610" lon="37.3005500">
    <ele>2466.1</ele>
    <time>2026-06-20T13:32:55Z</time>
   </trkpt>
   <trkpt lat="-3.1412610" lon="37.3005500">
    <ele>2466.1</ele>
    <time>2026-06-20T13:32:56Z</time>
   </trkpt>
   <trkpt lat="-3.1412530" lon="37.3005590">
    <ele>2466.3</ele>
    <time>2026-06-20T13:32:57Z</time>
   </trkpt>
   <trkpt lat="-3.1412540" lon="37.3005590">
    <ele>2466.4</ele>
    <time>2026-06-20T13:32:58Z</time>
   </trkpt>
   <trkpt lat="-3.1412540" lon="37.3005590">
    <ele>2466.4</ele>
    <time>2026-06-20T13:32:59Z</time>
   </trkpt>
   <trkpt lat="-3.1412540" lon="37.3005590">
    <ele>2466.4</ele>
    <time>2026-06-20T13:33:00Z</time>
   </trkpt>
   <trkpt lat="-3.1412540" lon="37.3005590">
    <ele>2466.4</ele>
    <time>2026-06-20T13:33:01Z</time>
   </trkpt>
   <trkpt lat="-3.1412540" lon="37.3005590">
    <ele>2466.4</ele>
    <time>2026-06-20T13:33:02Z</time>
   </trkpt>
   <trkpt lat="-3.1412540" lon="37.3005590">
    <ele>2466.4</ele>
    <time>2026-06-20T13:33:03Z</time>
   </trkpt>
   <trkpt lat="-3.1412540" lon="37.3005590">
    <ele>2466.4</ele>
    <time>2026-06-20T13:33:04Z</time>
   </trkpt>
   <trkpt lat="-3.1412430" lon="37.3005650">
    <ele>2466.6</ele>
    <time>2026-06-20T13:33:05Z</time>
   </trkpt>
   <trkpt lat="-3.1412430" lon="37.3005650">
    <ele>2466.6</ele>
    <time>2026-06-20T13:33:06Z</time>
   </trkpt>
   <trkpt lat="-3.1412430" lon="37.3005650">
    <ele>2466.6</ele>
    <time>2026-06-20T13:33:07Z</time>
   </trkpt>
   <trkpt lat="-3.1412430" lon="37.3005650">
    <ele>2466.6</ele>
    <time>2026-06-20T13:33:08Z</time>
   </trkpt>
   <trkpt lat="-3.1412430" lon="37.3005650">
    <ele>2466.6</ele>
    <time>2026-06-20T13:33:09Z</time>
   </trkpt>
   <trkpt lat="-3.1412430" lon="37.3005650">
    <ele>2466.6</ele>
    <time>2026-06-20T13:33:10Z</time>
   </trkpt>
   <trkpt lat="-3.1412430" lon="37.3005650">
    <ele>2466.6</ele>
    <time>2026-06-20T13:33:11Z</time>
   </trkpt>
   <trkpt lat="-3.1412430" lon="37.3005650">
    <ele>2466.6</ele>
    <time>2026-06-20T13:33:12Z</time>
   </trkpt>
   <trkpt lat="-3.1412430" lon="37.3005650">
    <ele>2466.6</ele>
    <time>2026-06-20T13:33:13Z</time>
   </trkpt>
   <trkpt lat="-3.1412430" lon="37.3005650">
    <ele>2466.6</ele>
    <time>2026-06-20T13:33:14Z</time>
   </trkpt>
   <trkpt lat="-3.1412430" lon="37.3005650">
    <ele>2466.6</ele>
    <time>2026-06-20T13:33:15Z</time>
   </trkpt>
   <trkpt lat="-3.1412430" lon="37.3005650">
    <ele>2466.6</ele>
    <time>2026-06-20T13:33:16Z</time>
   </trkpt>
   <trkpt lat="-3.1412430" lon="37.3005650">
    <ele>2466.6</ele>
    <time>2026-06-20T13:33:17Z</time>
   </trkpt>
   <trkpt lat="-3.1412430" lon="37.3005650">
    <ele>2466.6</ele>
    <time>2026-06-20T13:33:18Z</time>
   </trkpt>
   <trkpt lat="-3.1412430" lon="37.3005650">
    <ele>2466.6</ele>
    <time>2026-06-20T13:33:19Z</time>
   </trkpt>
   <trkpt lat="-3.1412430" lon="37.3005650">
    <ele>2466.6</ele>
    <time>2026-06-20T13:33:20Z</time>
   </trkpt>
   <trkpt lat="-3.1412330" lon="37.3005450">
    <ele>2467.1</ele>
    <time>2026-06-20T13:33:21Z</time>
   </trkpt>
   <trkpt lat="-3.1412340" lon="37.3005470">
    <ele>2467.1</ele>
    <time>2026-06-20T13:33:22Z</time>
   </trkpt>
   <trkpt lat="-3.1412340" lon="37.3005450">
    <ele>2467.2</ele>
    <time>2026-06-20T13:33:23Z</time>
   </trkpt>
   <trkpt lat="-3.1412380" lon="37.3005440">
    <ele>2467.3</ele>
    <time>2026-06-20T13:33:24Z</time>
   </trkpt>
   <trkpt lat="-3.1412370" lon="37.3005500">
    <ele>2467.4</ele>
    <time>2026-06-20T13:33:25Z</time>
   </trkpt>
   <trkpt lat="-3.1412370" lon="37.3005550">
    <ele>2467.5</ele>
    <time>2026-06-20T13:33:26Z</time>
   </trkpt>
   <trkpt lat="-3.1412360" lon="37.3005570">
    <ele>2467.5</ele>
    <time>2026-06-20T13:33:27Z</time>
   </trkpt>
   <trkpt lat="-3.1412340" lon="37.3005600">
    <ele>2467.6</ele>
    <time>2026-06-20T13:33:28Z</time>
   </trkpt>
   <trkpt lat="-3.1412380" lon="37.3005630">
    <ele>2467.7</ele>
    <time>2026-06-20T13:33:29Z</time>
   </trkpt>
   <trkpt lat="-3.1412400" lon="37.3005710">
    <ele>2467.9</ele>
    <time>2026-06-20T13:33:30Z</time>
   </trkpt>
   <trkpt lat="-3.1412410" lon="37.3005770">
    <ele>2468.0</ele>
    <time>2026-06-20T13:33:31Z</time>
   </trkpt>
   <trkpt lat="-3.1412410" lon="37.3005870">
    <ele>2468.2</ele>
    <time>2026-06-20T13:33:32Z</time>
   </trkpt>
   <trkpt lat="-3.1412400" lon="37.3005900">
    <ele>2468.3</ele>
    <time>2026-06-20T13:33:33Z</time>
   </trkpt>
   <trkpt lat="-3.1412430" lon="37.3005930">
    <ele>2468.4</ele>
    <time>2026-06-20T13:33:34Z</time>
   </trkpt>
   <trkpt lat="-3.1412490" lon="37.3005990">
    <ele>2468.6</ele>
    <time>2026-06-20T13:33:35Z</time>
   </trkpt>
   <trkpt lat="-3.1412500" lon="37.3006100">
    <ele>2468.8</ele>
    <time>2026-06-20T13:33:36Z</time>
   </trkpt>
   <trkpt lat="-3.1412570" lon="37.3006110">
    <ele>2468.9</ele>
    <time>2026-06-20T13:33:37Z</time>
   </trkpt>
   <trkpt lat="-3.1412600" lon="37.3006220">
    <ele>2469.2</ele>
    <time>2026-06-20T13:33:38Z</time>
   </trkpt>
   <trkpt lat="-3.1412630" lon="37.3006190">
    <ele>2469.3</ele>
    <time>2026-06-20T13:33:39Z</time>
   </trkpt>
   <trkpt lat="-3.1412650" lon="37.3006240">
    <ele>2469.4</ele>
    <time>2026-06-20T13:33:40Z</time>
   </trkpt>
   <trkpt lat="-3.1412580" lon="37.3006260">
    <ele>2469.5</ele>
    <time>2026-06-20T13:33:41Z</time>
   </trkpt>
   <trkpt lat="-3.1412580" lon="37.3006270">
    <ele>2469.5</ele>
    <time>2026-06-20T13:33:42Z</time>
   </trkpt>
   <trkpt lat="-3.1412550" lon="37.3006300">
    <ele>2469.6</ele>
    <time>2026-06-20T13:33:43Z</time>
   </trkpt>
   <trkpt lat="-3.1412520" lon="37.3006340">
    <ele>2469.7</ele>
    <time>2026-06-20T13:33:44Z</time>
   </trkpt>
   <trkpt lat="-3.1412520" lon="37.3006380">
    <ele>2469.8</ele>
    <time>2026-06-20T13:33:45Z</time>
   </trkpt>
   <trkpt lat="-3.1412490" lon="37.3006400">
    <ele>2469.9</ele>
    <time>2026-06-20T13:33:46Z</time>
   </trkpt>
   <trkpt lat="-3.1412440" lon="37.3006420">
    <ele>2470.0</ele>
    <time>2026-06-20T13:33:47Z</time>
   </trkpt>
   <trkpt lat="-3.1412350" lon="37.3006450">
    <ele>2470.1</ele>
    <time>2026-06-20T13:33:48Z</time>
   </trkpt>
   <trkpt lat="-3.1412340" lon="37.3006470">
    <ele>2470.2</ele>
    <time>2026-06-20T13:33:49Z</time>
   </trkpt>
   <trkpt lat="-3.1412230" lon="37.3006550">
    <ele>2470.5</ele>
    <time>2026-06-20T13:33:50Z</time>
   </trkpt>
   <trkpt lat="-3.1412170" lon="37.3006560">
    <ele>2470.6</ele>
    <time>2026-06-20T13:33:51Z</time>
   </trkpt>
   <trkpt lat="-3.1412110" lon="37.3006590">
    <ele>2470.7</ele>
    <time>2026-06-20T13:33:52Z</time>
   </trkpt>
   <trkpt lat="-3.1412080" lon="37.3006640">
    <ele>2470.8</ele>
    <time>2026-06-20T13:33:53Z</time>
   </trkpt>
   <trkpt lat="-3.1412030" lon="37.3006720">
    <ele>2471.0</ele>
    <time>2026-06-20T13:33:54Z</time>
   </trkpt>
   <trkpt lat="-3.1411940" lon="37.3006750">
    <ele>2471.2</ele>
    <time>2026-06-20T13:33:55Z</time>
   </trkpt>
   <trkpt lat="-3.1411960" lon="37.3006710">
    <ele>2471.3</ele>
    <time>2026-06-20T13:33:57Z</time>
   </trkpt>
   <trkpt lat="-3.1411970" lon="37.3006710">
    <ele>2471.3</ele>
    <time>2026-06-20T13:33:58Z</time>
   </trkpt>
   <trkpt lat="-3.1411970" lon="37.3006720">
    <ele>2471.3</ele>
    <time>2026-06-20T13:33:59Z</time>
   </trkpt>
   <trkpt lat="-3.1411950" lon="37.3006730">
    <ele>2471.4</ele>
    <time>2026-06-20T13:34:00Z</time>
   </trkpt>
   <trkpt lat="-3.1411920" lon="37.3006780">
    <ele>2471.5</ele>
    <time>2026-06-20T13:34:01Z</time>
   </trkpt>
   <trkpt lat="-3.1411850" lon="37.3006790">
    <ele>2471.6</ele>
    <time>2026-06-20T13:34:02Z</time>
   </trkpt>
   <trkpt lat="-3.1411840" lon="37.3006760">
    <ele>2471.7</ele>
    <time>2026-06-20T13:34:03Z</time>
   </trkpt>
   <trkpt lat="-3.1411820" lon="37.3006750">
    <ele>2471.7</ele>
    <time>2026-06-20T13:34:04Z</time>
   </trkpt>
   <trkpt lat="-3.1411760" lon="37.3006820">
    <ele>2471.9</ele>
    <time>2026-06-20T13:34:05Z</time>
   </trkpt>
   <trkpt lat="-3.1411710" lon="37.3006890">
    <ele>2472.1</ele>
    <time>2026-06-20T13:34:06Z</time>
   </trkpt>
   <trkpt lat="-3.1411650" lon="37.3006880">
    <ele>2472.2</ele>
    <time>2026-06-20T13:34:07Z</time>
   </trkpt>
   <trkpt lat="-3.1411590" lon="37.3006880">
    <ele>2472.3</ele>
    <time>2026-06-20T13:34:08Z</time>
   </trkpt>
   <trkpt lat="-3.1411570" lon="37.3006910">
    <ele>2472.4</ele>
    <time>2026-06-20T13:34:09Z</time>
   </trkpt>
   <trkpt lat="-3.1411500" lon="37.3006970">
    <ele>2472.6</ele>
    <time>2026-06-20T13:34:10Z</time>
   </trkpt>
   <trkpt lat="-3.1411440" lon="37.3006980">
    <ele>2472.7</ele>
    <time>2026-06-20T13:34:11Z</time>
   </trkpt>
   <trkpt lat="-3.1411420" lon="37.3006950">
    <ele>2472.8</ele>
    <time>2026-06-20T13:34:12Z</time>
   </trkpt>
   <trkpt lat="-3.1411310" lon="37.3007000">
    <ele>2473.0</ele>
    <time>2026-06-20T13:34:13Z</time>
   </trkpt>
   <trkpt lat="-3.1411240" lon="37.3006990">
    <ele>2473.1</ele>
    <time>2026-06-20T13:34:14Z</time>
   </trkpt>
   <trkpt lat="-3.1411210" lon="37.3007030">
    <ele>2473.2</ele>
    <time>2026-06-20T13:34:15Z</time>
   </trkpt>
   <trkpt lat="-3.1411250" lon="37.3007020">
    <ele>2473.3</ele>
    <time>2026-06-20T13:34:16Z</time>
   </trkpt>
   <trkpt lat="-3.1411220" lon="37.3006990">
    <ele>2473.4</ele>
    <time>2026-06-20T13:34:17Z</time>
   </trkpt>
   <trkpt lat="-3.1411200" lon="37.3007070">
    <ele>2473.5</ele>
    <time>2026-06-20T13:34:18Z</time>
   </trkpt>
   <trkpt lat="-3.1411210" lon="37.3007060">
    <ele>2473.6</ele>
    <time>2026-06-20T13:34:19Z</time>
   </trkpt>
   <trkpt lat="-3.1411140" lon="37.3007140">
    <ele>2473.8</ele>
    <time>2026-06-20T13:34:20Z</time>
   </trkpt>
   <trkpt lat="-3.1411120" lon="37.3007150">
    <ele>2473.8</ele>
    <time>2026-06-20T13:34:21Z</time>
   </trkpt>
   <trkpt lat="-3.1411080" lon="37.3007200">
    <ele>2473.9</ele>
    <time>2026-06-20T13:34:22Z</time>
   </trkpt>
   <trkpt lat="-3.1411090" lon="37.3007200">
    <ele>2473.9</ele>
    <time>2026-06-20T13:34:23Z</time>
   </trkpt>
   <trkpt lat="-3.1411100" lon="37.3007270">
    <ele>2474.1</ele>
    <time>2026-06-20T13:34:24Z</time>
   </trkpt>
   <trkpt lat="-3.1411120" lon="37.3007270">
    <ele>2474.1</ele>
    <time>2026-06-20T13:34:25Z</time>
   </trkpt>
   <trkpt lat="-3.1411190" lon="37.3007260">
    <ele>2474.2</ele>
    <time>2026-06-20T13:34:26Z</time>
   </trkpt>
   <trkpt lat="-3.1411160" lon="37.3007290">
    <ele>2474.3</ele>
    <time>2026-06-20T13:34:27Z</time>
   </trkpt>
   <trkpt lat="-3.1411120" lon="37.3007330">
    <ele>2474.4</ele>
    <time>2026-06-20T13:34:28Z</time>
   </trkpt>
   <trkpt lat="-3.1411060" lon="37.3007390">
    <ele>2474.6</ele>
    <time>2026-06-20T13:34:29Z</time>
   </trkpt>
   <trkpt lat="-3.1411050" lon="37.3007420">
    <ele>2474.6</ele>
    <time>2026-06-20T13:34:30Z</time>
   </trkpt>
   <trkpt lat="-3.1411000" lon="37.3007460">
    <ele>2474.7</ele>
    <time>2026-06-20T13:34:31Z</time>
   </trkpt>
   <trkpt lat="-3.1410970" lon="37.3007500">
    <ele>2474.8</ele>
    <time>2026-06-20T13:34:32Z</time>
   </trkpt>
   <trkpt lat="-3.1410980" lon="37.3007490">
    <ele>2474.9</ele>
    <time>2026-06-20T13:34:33Z</time>
   </trkpt>
   <trkpt lat="-3.1410920" lon="37.3007590">
    <ele>2475.1</ele>
    <time>2026-06-20T13:34:34Z</time>
   </trkpt>
   <trkpt lat="-3.1410890" lon="37.3007630">
    <ele>2475.1</ele>
    <time>2026-06-20T13:34:35Z</time>
   </trkpt>
   <trkpt lat="-3.1410930" lon="37.3007640">
    <ele>2475.2</ele>
    <time>2026-06-20T13:34:36Z</time>
   </trkpt>
   <trkpt lat="-3.1410930" lon="37.3007660">
    <ele>2475.3</ele>
    <time>2026-06-20T13:34:37Z</time>
   </trkpt>
   <trkpt lat="-3.1410900" lon="37.3007670">
    <ele>2475.3</ele>
    <time>2026-06-20T13:34:38Z</time>
   </trkpt>
   <trkpt lat="-3.1410910" lon="37.3007780">
    <ele>2475.5</ele>
    <time>2026-06-20T13:34:39Z</time>
   </trkpt>
   <trkpt lat="-3.1410950" lon="37.3007770">
    <ele>2475.6</ele>
    <time>2026-06-20T13:34:40Z</time>
   </trkpt>
   <trkpt lat="-3.1410910" lon="37.3007800">
    <ele>2475.7</ele>
    <time>2026-06-20T13:34:41Z</time>
   </trkpt>
   <trkpt lat="-3.1410820" lon="37.3007810">
    <ele>2475.8</ele>
    <time>2026-06-20T13:34:42Z</time>
   </trkpt>
   <trkpt lat="-3.1410780" lon="37.3007880">
    <ele>2475.9</ele>
    <time>2026-06-20T13:34:43Z</time>
   </trkpt>
   <trkpt lat="-3.1410780" lon="37.3007890">
    <ele>2476.0</ele>
    <time>2026-06-20T13:34:44Z</time>
   </trkpt>
   <trkpt lat="-3.1410760" lon="37.3007940">
    <ele>2476.0</ele>
    <time>2026-06-20T13:34:45Z</time>
   </trkpt>
   <trkpt lat="-3.1410680" lon="37.3008010">
    <ele>2476.2</ele>
    <time>2026-06-20T13:34:46Z</time>
   </trkpt>
   <trkpt lat="-3.1410700" lon="37.3007980">
    <ele>2476.3</ele>
    <time>2026-06-20T13:34:47Z</time>
   </trkpt>
   <trkpt lat="-3.1410640" lon="37.3008000">
    <ele>2476.4</ele>
    <time>2026-06-20T13:34:48Z</time>
   </trkpt>
   <trkpt lat="-3.1410580" lon="37.3008010">
    <ele>2476.5</ele>
    <time>2026-06-20T13:34:49Z</time>
   </trkpt>
   <trkpt lat="-3.1410600" lon="37.3007980">
    <ele>2476.5</ele>
    <time>2026-06-20T13:34:50Z</time>
   </trkpt>
   <trkpt lat="-3.1410600" lon="37.3008010">
    <ele>2476.6</ele>
    <time>2026-06-20T13:34:51Z</time>
   </trkpt>
   <trkpt lat="-3.1410590" lon="37.3008100">
    <ele>2476.7</ele>
    <time>2026-06-20T13:34:52Z</time>
   </trkpt>
   <trkpt lat="-3.1410590" lon="37.3008060">
    <ele>2476.8</ele>
    <time>2026-06-20T13:34:53Z</time>
   </trkpt>
   <trkpt lat="-3.1410600" lon="37.3008120">
    <ele>2476.9</ele>
    <time>2026-06-20T13:34:54Z</time>
   </trkpt>
   <trkpt lat="-3.1410620" lon="37.3008150">
    <ele>2476.9</ele>
    <time>2026-06-20T13:34:55Z</time>
   </trkpt>
   <trkpt lat="-3.1410610" lon="37.3008210">
    <ele>2477.0</ele>
    <time>2026-06-20T13:34:56Z</time>
   </trkpt>
   <trkpt lat="-3.1410610" lon="37.3008250">
    <ele>2477.1</ele>
    <time>2026-06-20T13:34:57Z</time>
   </trkpt>
   <trkpt lat="-3.1410550" lon="37.3008320">
    <ele>2477.2</ele>
    <time>2026-06-20T13:34:58Z</time>
   </trkpt>
   <trkpt lat="-3.1410450" lon="37.3008420">
    <ele>2477.4</ele>
    <time>2026-06-20T13:34:59Z</time>
   </trkpt>
   <trkpt lat="-3.1410470" lon="37.3008490">
    <ele>2477.5</ele>
    <time>2026-06-20T13:35:00Z</time>
   </trkpt>
   <trkpt lat="-3.1410450" lon="37.3008530">
    <ele>2477.6</ele>
    <time>2026-06-20T13:35:01Z</time>
   </trkpt>
   <trkpt lat="-3.1410450" lon="37.3008550">
    <ele>2477.6</ele>
    <time>2026-06-20T13:35:02Z</time>
   </trkpt>
   <trkpt lat="-3.1410480" lon="37.3008570">
    <ele>2477.7</ele>
    <time>2026-06-20T13:35:03Z</time>
   </trkpt>
   <trkpt lat="-3.1410420" lon="37.3008620">
    <ele>2477.8</ele>
    <time>2026-06-20T13:35:04Z</time>
   </trkpt>
   <trkpt lat="-3.1410400" lon="37.3008620">
    <ele>2477.8</ele>
    <time>2026-06-20T13:35:05Z</time>
   </trkpt>
   <trkpt lat="-3.1410410" lon="37.3008690">
    <ele>2477.9</ele>
    <time>2026-06-20T13:35:06Z</time>
   </trkpt>
   <trkpt lat="-3.1410390" lon="37.3008720">
    <ele>2478.0</ele>
    <time>2026-06-20T13:35:07Z</time>
   </trkpt>
   <trkpt lat="-3.1410370" lon="37.3008790">
    <ele>2478.1</ele>
    <time>2026-06-20T13:35:08Z</time>
   </trkpt>
   <trkpt lat="-3.1410340" lon="37.3008860">
    <ele>2478.2</ele>
    <time>2026-06-20T13:35:09Z</time>
   </trkpt>
   <trkpt lat="-3.1410330" lon="37.3008920">
    <ele>2478.3</ele>
    <time>2026-06-20T13:35:10Z</time>
   </trkpt>
   <trkpt lat="-3.1410320" lon="37.3008960">
    <ele>2478.4</ele>
    <time>2026-06-20T13:35:11Z</time>
   </trkpt>
   <trkpt lat="-3.1410300" lon="37.3009030">
    <ele>2478.5</ele>
    <time>2026-06-20T13:35:12Z</time>
   </trkpt>
   <trkpt lat="-3.1410280" lon="37.3009060">
    <ele>2478.5</ele>
    <time>2026-06-20T13:35:13Z</time>
   </trkpt>
   <trkpt lat="-3.1410250" lon="37.3009060">
    <ele>2478.6</ele>
    <time>2026-06-20T13:35:14Z</time>
   </trkpt>
   <trkpt lat="-3.1410200" lon="37.3009060">
    <ele>2478.7</ele>
    <time>2026-06-20T13:35:15Z</time>
   </trkpt>
   <trkpt lat="-3.1410150" lon="37.3009040">
    <ele>2478.7</ele>
    <time>2026-06-20T13:35:16Z</time>
   </trkpt>
   <trkpt lat="-3.1410170" lon="37.3009010">
    <ele>2478.8</ele>
    <time>2026-06-20T13:35:17Z</time>
   </trkpt>
   <trkpt lat="-3.1410170" lon="37.3009020">
    <ele>2478.8</ele>
    <time>2026-06-20T13:35:18Z</time>
   </trkpt>
   <trkpt lat="-3.1410130" lon="37.3009060">
    <ele>2478.9</ele>
    <time>2026-06-20T13:35:19Z</time>
   </trkpt>
   <trkpt lat="-3.1410090" lon="37.3009100">
    <ele>2479.0</ele>
    <time>2026-06-20T13:35:20Z</time>
   </trkpt>
   <trkpt lat="-3.1410040" lon="37.3009120">
    <ele>2479.1</ele>
    <time>2026-06-20T13:35:21Z</time>
   </trkpt>
   <trkpt lat="-3.1409990" lon="37.3009170">
    <ele>2479.2</ele>
    <time>2026-06-20T13:35:22Z</time>
   </trkpt>
   <trkpt lat="-3.1409950" lon="37.3009170">
    <ele>2479.2</ele>
    <time>2026-06-20T13:35:23Z</time>
   </trkpt>
   <trkpt lat="-3.1409880" lon="37.3009170">
    <ele>2479.3</ele>
    <time>2026-06-20T13:35:24Z</time>
   </trkpt>
   <trkpt lat="-3.1409820" lon="37.3009220">
    <ele>2479.5</ele>
    <time>2026-06-20T13:35:25Z</time>
   </trkpt>
   <trkpt lat="-3.1409790" lon="37.3009250">
    <ele>2479.5</ele>
    <time>2026-06-20T13:35:26Z</time>
   </trkpt>
   <trkpt lat="-3.1409730" lon="37.3009300">
    <ele>2479.6</ele>
    <time>2026-06-20T13:35:27Z</time>
   </trkpt>
   <trkpt lat="-3.1409650" lon="37.3009340">
    <ele>2479.8</ele>
    <time>2026-06-20T13:35:28Z</time>
   </trkpt>
   <trkpt lat="-3.1409590" lon="37.3009410">
    <ele>2479.9</ele>
    <time>2026-06-20T13:35:29Z</time>
   </trkpt>
   <trkpt lat="-3.1409510" lon="37.3009450">
    <ele>2480.0</ele>
    <time>2026-06-20T13:35:30Z</time>
   </trkpt>
   <trkpt lat="-3.1409420" lon="37.3009510">
    <ele>2480.2</ele>
    <time>2026-06-20T13:35:31Z</time>
   </trkpt>
   <trkpt lat="-3.1409380" lon="37.3009520">
    <ele>2480.3</ele>
    <time>2026-06-20T13:35:32Z</time>
   </trkpt>
   <trkpt lat="-3.1409280" lon="37.3009540">
    <ele>2480.4</ele>
    <time>2026-06-20T13:35:33Z</time>
   </trkpt>
   <trkpt lat="-3.1409210" lon="37.3009530">
    <ele>2480.5</ele>
    <time>2026-06-20T13:35:34Z</time>
   </trkpt>
   <trkpt lat="-3.1409130" lon="37.3009570">
    <ele>2480.7</ele>
    <time>2026-06-20T13:35:35Z</time>
   </trkpt>
   <trkpt lat="-3.1409150" lon="37.3009590">
    <ele>2480.7</ele>
    <time>2026-06-20T13:35:36Z</time>
   </trkpt>
   <trkpt lat="-3.1409110" lon="37.3009630">
    <ele>2480.8</ele>
    <time>2026-06-20T13:35:37Z</time>
   </trkpt>
   <trkpt lat="-3.1409030" lon="37.3009670">
    <ele>2480.9</ele>
    <time>2026-06-20T13:35:38Z</time>
   </trkpt>
   <trkpt lat="-3.1408940" lon="37.3009770">
    <ele>2481.1</ele>
    <time>2026-06-20T13:35:39Z</time>
   </trkpt>
   <trkpt lat="-3.1408930" lon="37.3009810">
    <ele>2481.2</ele>
    <time>2026-06-20T13:35:40Z</time>
   </trkpt>
   <trkpt lat="-3.1408890" lon="37.3009830">
    <ele>2481.3</ele>
    <time>2026-06-20T13:35:41Z</time>
   </trkpt>
   <trkpt lat="-3.1408880" lon="37.3009800">
    <ele>2481.3</ele>
    <time>2026-06-20T13:35:42Z</time>
   </trkpt>
   <trkpt lat="-3.1408830" lon="37.3009770">
    <ele>2481.4</ele>
    <time>2026-06-20T13:35:43Z</time>
   </trkpt>
   <trkpt lat="-3.1408760" lon="37.3009740">
    <ele>2481.5</ele>
    <time>2026-06-20T13:35:44Z</time>
   </trkpt>
   <trkpt lat="-3.1408730" lon="37.3009770">
    <ele>2481.6</ele>
    <time>2026-06-20T13:35:45Z</time>
   </trkpt>
   <trkpt lat="-3.1408720" lon="37.3009810">
    <ele>2481.6</ele>
    <time>2026-06-20T13:35:46Z</time>
   </trkpt>
   <trkpt lat="-3.1408680" lon="37.3009860">
    <ele>2481.7</ele>
    <time>2026-06-20T13:35:47Z</time>
   </trkpt>
   <trkpt lat="-3.1408600" lon="37.3009870">
    <ele>2481.9</ele>
    <time>2026-06-20T13:35:48Z</time>
   </trkpt>
   <trkpt lat="-3.1408570" lon="37.3009910">
    <ele>2481.9</ele>
    <time>2026-06-20T13:35:49Z</time>
   </trkpt>
   <trkpt lat="-3.1408500" lon="37.3009870">
    <ele>2482.1</ele>
    <time>2026-06-20T13:35:50Z</time>
   </trkpt>
   <trkpt lat="-3.1408440" lon="37.3009860">
    <ele>2482.1</ele>
    <time>2026-06-20T13:35:51Z</time>
   </trkpt>
   <trkpt lat="-3.1408370" lon="37.3009840">
    <ele>2482.3</ele>
    <time>2026-06-20T13:35:52Z</time>
   </trkpt>
   <trkpt lat="-3.1408320" lon="37.3009850">
    <ele>2482.3</ele>
    <time>2026-06-20T13:35:53Z</time>
   </trkpt>
   <trkpt lat="-3.1408290" lon="37.3009860">
    <ele>2482.4</ele>
    <time>2026-06-20T13:35:54Z</time>
   </trkpt>
   <trkpt lat="-3.1408290" lon="37.3009850">
    <ele>2482.4</ele>
    <time>2026-06-20T13:35:55Z</time>
   </trkpt>
   <trkpt lat="-3.1408250" lon="37.3009860">
    <ele>2482.5</ele>
    <time>2026-06-20T13:35:56Z</time>
   </trkpt>
   <trkpt lat="-3.1408190" lon="37.3009890">
    <ele>2482.6</ele>
    <time>2026-06-20T13:35:57Z</time>
   </trkpt>
   <trkpt lat="-3.1408160" lon="37.3009910">
    <ele>2482.6</ele>
    <time>2026-06-20T13:35:58Z</time>
   </trkpt>
   <trkpt lat="-3.1408130" lon="37.3009880">
    <ele>2482.7</ele>
    <time>2026-06-20T13:35:59Z</time>
   </trkpt>
   <trkpt lat="-3.1408050" lon="37.3009860">
    <ele>2482.8</ele>
    <time>2026-06-20T13:36:00Z</time>
   </trkpt>
   <trkpt lat="-3.1408070" lon="37.3009900">
    <ele>2482.9</ele>
    <time>2026-06-20T13:36:02Z</time>
   </trkpt>
   <trkpt lat="-3.1408020" lon="37.3009950">
    <ele>2483.0</ele>
    <time>2026-06-20T13:36:03Z</time>
   </trkpt>
   <trkpt lat="-3.1408000" lon="37.3009960">
    <ele>2483.0</ele>
    <time>2026-06-20T13:36:04Z</time>
   </trkpt>
   <trkpt lat="-3.1407950" lon="37.3010020">
    <ele>2483.1</ele>
    <time>2026-06-20T13:36:05Z</time>
   </trkpt>
   <trkpt lat="-3.1407890" lon="37.3010140">
    <ele>2483.3</ele>
    <time>2026-06-20T13:36:06Z</time>
   </trkpt>
   <trkpt lat="-3.1407920" lon="37.3010200">
    <ele>2483.4</ele>
    <time>2026-06-20T13:36:07Z</time>
   </trkpt>
   <trkpt lat="-3.1407880" lon="37.3010230">
    <ele>2483.5</ele>
    <time>2026-06-20T13:36:08Z</time>
   </trkpt>
   <trkpt lat="-3.1407840" lon="37.3010250">
    <ele>2483.6</ele>
    <time>2026-06-20T13:36:09Z</time>
   </trkpt>
   <trkpt lat="-3.1407770" lon="37.3010300">
    <ele>2483.7</ele>
    <time>2026-06-20T13:36:10Z</time>
   </trkpt>
   <trkpt lat="-3.1407720" lon="37.3010340">
    <ele>2483.8</ele>
    <time>2026-06-20T13:36:11Z</time>
   </trkpt>
   <trkpt lat="-3.1407690" lon="37.3010370">
    <ele>2483.9</ele>
    <time>2026-06-20T13:36:12Z</time>
   </trkpt>
   <trkpt lat="-3.1407620" lon="37.3010440">
    <ele>2484.0</ele>
    <time>2026-06-20T13:36:13Z</time>
   </trkpt>
   <trkpt lat="-3.1407580" lon="37.3010480">
    <ele>2484.1</ele>
    <time>2026-06-20T13:36:14Z</time>
   </trkpt>
   <trkpt lat="-3.1407520" lon="37.3010480">
    <ele>2484.2</ele>
    <time>2026-06-20T13:36:15Z</time>
   </trkpt>
   <trkpt lat="-3.1407480" lon="37.3010470">
    <ele>2484.3</ele>
    <time>2026-06-20T13:36:16Z</time>
   </trkpt>
   <trkpt lat="-3.1407460" lon="37.3010540">
    <ele>2484.4</ele>
    <time>2026-06-20T13:36:17Z</time>
   </trkpt>
   <trkpt lat="-3.1407390" lon="37.3010530">
    <ele>2484.5</ele>
    <time>2026-06-20T13:36:18Z</time>
   </trkpt>
   <trkpt lat="-3.1407340" lon="37.3010590">
    <ele>2484.6</ele>
    <time>2026-06-20T13:36:19Z</time>
   </trkpt>
   <trkpt lat="-3.1407350" lon="37.3010570">
    <ele>2484.7</ele>
    <time>2026-06-20T13:36:20Z</time>
   </trkpt>
   <trkpt lat="-3.1407370" lon="37.3010470">
    <ele>2484.8</ele>
    <time>2026-06-20T13:36:21Z</time>
   </trkpt>
   <trkpt lat="-3.1407340" lon="37.3010500">
    <ele>2484.9</ele>
    <time>2026-06-20T13:36:22Z</time>
   </trkpt>
   <trkpt lat="-3.1407320" lon="37.3010470">
    <ele>2484.9</ele>
    <time>2026-06-20T13:36:23Z</time>
   </trkpt>
   <trkpt lat="-3.1407260" lon="37.3010490">
    <ele>2485.0</ele>
    <time>2026-06-20T13:36:24Z</time>
   </trkpt>
   <trkpt lat="-3.1407230" lon="37.3010530">
    <ele>2485.1</ele>
    <time>2026-06-20T13:36:25Z</time>
   </trkpt>
   <trkpt lat="-3.1407200" lon="37.3010550">
    <ele>2485.2</ele>
    <time>2026-06-20T13:36:26Z</time>
   </trkpt>
   <trkpt lat="-3.1407200" lon="37.3010540">
    <ele>2485.2</ele>
    <time>2026-06-20T13:36:27Z</time>
   </trkpt>
   <trkpt lat="-3.1407240" lon="37.3010510">
    <ele>2485.2</ele>
    <time>2026-06-20T13:36:28Z</time>
   </trkpt>
   <trkpt lat="-3.1407220" lon="37.3010570">
    <ele>2485.3</ele>
    <time>2026-06-20T13:36:29Z</time>
   </trkpt>
   <trkpt lat="-3.1407180" lon="37.3010580">
    <ele>2485.4</ele>
    <time>2026-06-20T13:36:30Z</time>
   </trkpt>
   <trkpt lat="-3.1407110" lon="37.3010580">
    <ele>2485.5</ele>
    <time>2026-06-20T13:36:31Z</time>
   </trkpt>
   <trkpt lat="-3.1407010" lon="37.3010640">
    <ele>2485.7</ele>
    <time>2026-06-20T13:36:32Z</time>
   </trkpt>
   <trkpt lat="-3.1407010" lon="37.3010670">
    <ele>2485.8</ele>
    <time>2026-06-20T13:36:33Z</time>
   </trkpt>
   <trkpt lat="-3.1406990" lon="37.3010710">
    <ele>2485.8</ele>
    <time>2026-06-20T13:36:34Z</time>
   </trkpt>
   <trkpt lat="-3.1406960" lon="37.3010710">
    <ele>2485.9</ele>
    <time>2026-06-20T13:36:35Z</time>
   </trkpt>
   <trkpt lat="-3.1406950" lon="37.3010740">
    <ele>2485.9</ele>
    <time>2026-06-20T13:36:36Z</time>
   </trkpt>
   <trkpt lat="-3.1406870" lon="37.3010790">
    <ele>2486.1</ele>
    <time>2026-06-20T13:36:37Z</time>
   </trkpt>
   <trkpt lat="-3.1406750" lon="37.3010840">
    <ele>2486.3</ele>
    <time>2026-06-20T13:36:38Z</time>
   </trkpt>
   <trkpt lat="-3.1406690" lon="37.3010870">
    <ele>2486.4</ele>
    <time>2026-06-20T13:36:39Z</time>
   </trkpt>
   <trkpt lat="-3.1406620" lon="37.3010880">
    <ele>2486.5</ele>
    <time>2026-06-20T13:36:40Z</time>
   </trkpt>
   <trkpt lat="-3.1406550" lon="37.3010900">
    <ele>2486.6</ele>
    <time>2026-06-20T13:36:41Z</time>
   </trkpt>
   <trkpt lat="-3.1406480" lon="37.3010960">
    <ele>2486.7</ele>
    <time>2026-06-20T13:36:42Z</time>
   </trkpt>
   <trkpt lat="-3.1406450" lon="37.3010970">
    <ele>2486.8</ele>
    <time>2026-06-20T13:36:43Z</time>
   </trkpt>
   <trkpt lat="-3.1406410" lon="37.3010980">
    <ele>2486.9</ele>
    <time>2026-06-20T13:36:44Z</time>
   </trkpt>
   <trkpt lat="-3.1406350" lon="37.3011000">
    <ele>2487.0</ele>
    <time>2026-06-20T13:36:45Z</time>
   </trkpt>
   <trkpt lat="-3.1406270" lon="37.3011040">
    <ele>2487.1</ele>
    <time>2026-06-20T13:36:46Z</time>
   </trkpt>
   <trkpt lat="-3.1406180" lon="37.3011090">
    <ele>2487.3</ele>
    <time>2026-06-20T13:36:47Z</time>
   </trkpt>
   <trkpt lat="-3.1406090" lon="37.3011110">
    <ele>2487.4</ele>
    <time>2026-06-20T13:36:48Z</time>
   </trkpt>
   <trkpt lat="-3.1406020" lon="37.3011110">
    <ele>2487.5</ele>
    <time>2026-06-20T13:36:49Z</time>
   </trkpt>
   <trkpt lat="-3.1405950" lon="37.3011080">
    <ele>2487.6</ele>
    <time>2026-06-20T13:36:50Z</time>
   </trkpt>
   <trkpt lat="-3.1405870" lon="37.3011090">
    <ele>2487.8</ele>
    <time>2026-06-20T13:36:51Z</time>
   </trkpt>
   <trkpt lat="-3.1405820" lon="37.3011070">
    <ele>2487.8</ele>
    <time>2026-06-20T13:36:52Z</time>
   </trkpt>
   <trkpt lat="-3.1405740" lon="37.3011060">
    <ele>2488.0</ele>
    <time>2026-06-20T13:36:53Z</time>
   </trkpt>
   <trkpt lat="-3.1405650" lon="37.3011060">
    <ele>2488.1</ele>
    <time>2026-06-20T13:36:54Z</time>
   </trkpt>
   <trkpt lat="-3.1405580" lon="37.3011080">
    <ele>2488.2</ele>
    <time>2026-06-20T13:36:55Z</time>
   </trkpt>
   <trkpt lat="-3.1405520" lon="37.3011070">
    <ele>2488.3</ele>
    <time>2026-06-20T13:36:56Z</time>
   </trkpt>
   <trkpt lat="-3.1405480" lon="37.3011080">
    <ele>2488.4</ele>
    <time>2026-06-20T13:36:57Z</time>
   </trkpt>
   <trkpt lat="-3.1405410" lon="37.3011070">
    <ele>2488.5</ele>
    <time>2026-06-20T13:36:58Z</time>
   </trkpt>
   <trkpt lat="-3.1405390" lon="37.3011000">
    <ele>2488.6</ele>
    <time>2026-06-20T13:36:59Z</time>
   </trkpt>
   <trkpt lat="-3.1405330" lon="37.3010970">
    <ele>2488.7</ele>
    <time>2026-06-20T13:37:00Z</time>
   </trkpt>
   <trkpt lat="-3.1405310" lon="37.3010960">
    <ele>2488.7</ele>
    <time>2026-06-20T13:37:01Z</time>
   </trkpt>
   <trkpt lat="-3.1405260" lon="37.3010930">
    <ele>2488.8</ele>
    <time>2026-06-20T13:37:02Z</time>
   </trkpt>
   <trkpt lat="-3.1405180" lon="37.3010900">
    <ele>2489.0</ele>
    <time>2026-06-20T13:37:03Z</time>
   </trkpt>
   <trkpt lat="-3.1405100" lon="37.3010890">
    <ele>2489.1</ele>
    <time>2026-06-20T13:37:04Z</time>
   </trkpt>
   <trkpt lat="-3.1405080" lon="37.3010840">
    <ele>2489.2</ele>
    <time>2026-06-20T13:37:05Z</time>
   </trkpt>
   <trkpt lat="-3.1405010" lon="37.3010860">
    <ele>2489.3</ele>
    <time>2026-06-20T13:37:06Z</time>
   </trkpt>
   <trkpt lat="-3.1404960" lon="37.3010850">
    <ele>2489.4</ele>
    <time>2026-06-20T13:37:07Z</time>
   </trkpt>
   <trkpt lat="-3.1404910" lon="37.3010870">
    <ele>2489.5</ele>
    <time>2026-06-20T13:37:08Z</time>
   </trkpt>
   <trkpt lat="-3.1404810" lon="37.3010880">
    <ele>2489.6</ele>
    <time>2026-06-20T13:37:09Z</time>
   </trkpt>
   <trkpt lat="-3.1404660" lon="37.3010870">
    <ele>2489.8</ele>
    <time>2026-06-20T13:37:10Z</time>
   </trkpt>
   <trkpt lat="-3.1404600" lon="37.3010850">
    <ele>2489.9</ele>
    <time>2026-06-20T13:37:11Z</time>
   </trkpt>
   <trkpt lat="-3.1404560" lon="37.3010840">
    <ele>2490.0</ele>
    <time>2026-06-20T13:37:12Z</time>
   </trkpt>
   <trkpt lat="-3.1404570" lon="37.3010840">
    <ele>2490.0</ele>
    <time>2026-06-20T13:37:13Z</time>
   </trkpt>
   <trkpt lat="-3.1404590" lon="37.3010860">
    <ele>2490.0</ele>
    <time>2026-06-20T13:37:14Z</time>
   </trkpt>
   <trkpt lat="-3.1404560" lon="37.3010860">
    <ele>2490.1</ele>
    <time>2026-06-20T13:37:15Z</time>
   </trkpt>
   <trkpt lat="-3.1404470" lon="37.3010970">
    <ele>2490.3</ele>
    <time>2026-06-20T13:37:16Z</time>
   </trkpt>
   <trkpt lat="-3.1404380" lon="37.3011040">
    <ele>2490.4</ele>
    <time>2026-06-20T13:37:17Z</time>
   </trkpt>
   <trkpt lat="-3.1404300" lon="37.3011110">
    <ele>2490.6</ele>
    <time>2026-06-20T13:37:18Z</time>
   </trkpt>
   <trkpt lat="-3.1404280" lon="37.3011100">
    <ele>2490.6</ele>
    <time>2026-06-20T13:37:19Z</time>
   </trkpt>
   <trkpt lat="-3.1404310" lon="37.3011100">
    <ele>2490.6</ele>
    <time>2026-06-20T13:37:20Z</time>
   </trkpt>
   <trkpt lat="-3.1404330" lon="37.3011090">
    <ele>2490.7</ele>
    <time>2026-06-20T13:37:21Z</time>
   </trkpt>
   <trkpt lat="-3.1404290" lon="37.3011170">
    <ele>2490.8</ele>
    <time>2026-06-20T13:37:22Z</time>
   </trkpt>
   <trkpt lat="-3.1404180" lon="37.3011220">
    <ele>2490.9</ele>
    <time>2026-06-20T13:37:23Z</time>
   </trkpt>
   <trkpt lat="-3.1404040" lon="37.3011340">
    <ele>2491.2</ele>
    <time>2026-06-20T13:37:24Z</time>
   </trkpt>
   <trkpt lat="-3.1403880" lon="37.3011480">
    <ele>2491.4</ele>
    <time>2026-06-20T13:37:25Z</time>
   </trkpt>
   <trkpt lat="-3.1403780" lon="37.3011570">
    <ele>2491.6</ele>
    <time>2026-06-20T13:37:26Z</time>
   </trkpt>
   <trkpt lat="-3.1403740" lon="37.3011590">
    <ele>2491.7</ele>
    <time>2026-06-20T13:37:27Z</time>
   </trkpt>
   <trkpt lat="-3.1403680" lon="37.3011630">
    <ele>2491.7</ele>
    <time>2026-06-20T13:37:28Z</time>
   </trkpt>
   <trkpt lat="-3.1403640" lon="37.3011650">
    <ele>2491.8</ele>
    <time>2026-06-20T13:37:29Z</time>
   </trkpt>
   <trkpt lat="-3.1403640" lon="37.3011600">
    <ele>2491.8</ele>
    <time>2026-06-20T13:37:30Z</time>
   </trkpt>
   <trkpt lat="-3.1403610" lon="37.3011550">
    <ele>2491.9</ele>
    <time>2026-06-20T13:37:31Z</time>
   </trkpt>
   <trkpt lat="-3.1403490" lon="37.3011550">
    <ele>2492.1</ele>
    <time>2026-06-20T13:37:32Z</time>
   </trkpt>
   <trkpt lat="-3.1403400" lon="37.3011580">
    <ele>2492.2</ele>
    <time>2026-06-20T13:37:33Z</time>
   </trkpt>
   <trkpt lat="-3.1403310" lon="37.3011610">
    <ele>2492.3</ele>
    <time>2026-06-20T13:37:34Z</time>
   </trkpt>
   <trkpt lat="-3.1403260" lon="37.3011570">
    <ele>2492.3</ele>
    <time>2026-06-20T13:37:35Z</time>
   </trkpt>
   <trkpt lat="-3.1403220" lon="37.3011550">
    <ele>2492.4</ele>
    <time>2026-06-20T13:37:36Z</time>
   </trkpt>
   <trkpt lat="-3.1403160" lon="37.3011570">
    <ele>2492.5</ele>
    <time>2026-06-20T13:37:37Z</time>
   </trkpt>
   <trkpt lat="-3.1403120" lon="37.3011520">
    <ele>2492.5</ele>
    <time>2026-06-20T13:37:38Z</time>
   </trkpt>
   <trkpt lat="-3.1403090" lon="37.3011520">
    <ele>2492.6</ele>
    <time>2026-06-20T13:37:39Z</time>
   </trkpt>
   <trkpt lat="-3.1403070" lon="37.3011490">
    <ele>2492.6</ele>
    <time>2026-06-20T13:37:40Z</time>
   </trkpt>
   <trkpt lat="-3.1403080" lon="37.3011460">
    <ele>2492.6</ele>
    <time>2026-06-20T13:37:41Z</time>
   </trkpt>
   <trkpt lat="-3.1403070" lon="37.3011480">
    <ele>2492.7</ele>
    <time>2026-06-20T13:37:42Z</time>
   </trkpt>
   <trkpt lat="-3.1403000" lon="37.3011470">
    <ele>2492.7</ele>
    <time>2026-06-20T13:37:43Z</time>
   </trkpt>
   <trkpt lat="-3.1403030" lon="37.3011460">
    <ele>2492.8</ele>
    <time>2026-06-20T13:37:44Z</time>
   </trkpt>
   <trkpt lat="-3.1403020" lon="37.3011460">
    <ele>2492.8</ele>
    <time>2026-06-20T13:37:45Z</time>
   </trkpt>
   <trkpt lat="-3.1403040" lon="37.3011450">
    <ele>2492.8</ele>
    <time>2026-06-20T13:37:46Z</time>
   </trkpt>
   <trkpt lat="-3.1403060" lon="37.3011470">
    <ele>2492.8</ele>
    <time>2026-06-20T13:37:47Z</time>
   </trkpt>
   <trkpt lat="-3.1403040" lon="37.3011450">
    <ele>2492.9</ele>
    <time>2026-06-20T13:37:48Z</time>
   </trkpt>
   <trkpt lat="-3.1403040" lon="37.3011440">
    <ele>2492.9</ele>
    <time>2026-06-20T13:37:49Z</time>
   </trkpt>
   <trkpt lat="-3.1403030" lon="37.3011440">
    <ele>2492.9</ele>
    <time>2026-06-20T13:37:50Z</time>
   </trkpt>
   <trkpt lat="-3.1403090" lon="37.3011410">
    <ele>2493.0</ele>
    <time>2026-06-20T13:37:51Z</time>
   </trkpt>
   <trkpt lat="-3.1402990" lon="37.3011430">
    <ele>2493.1</ele>
    <time>2026-06-20T13:37:52Z</time>
   </trkpt>
   <trkpt lat="-3.1402880" lon="37.3011450">
    <ele>2493.2</ele>
    <time>2026-06-20T13:37:53Z</time>
   </trkpt>
   <trkpt lat="-3.1402840" lon="37.3011440">
    <ele>2493.2</ele>
    <time>2026-06-20T13:37:54Z</time>
   </trkpt>
   <trkpt lat="-3.1402750" lon="37.3011440">
    <ele>2493.3</ele>
    <time>2026-06-20T13:37:55Z</time>
   </trkpt>
   <trkpt lat="-3.1402710" lon="37.3011450">
    <ele>2493.4</ele>
    <time>2026-06-20T13:37:56Z</time>
   </trkpt>
   <trkpt lat="-3.1402600" lon="37.3011440">
    <ele>2493.5</ele>
    <time>2026-06-20T13:37:57Z</time>
   </trkpt>
   <trkpt lat="-3.1402530" lon="37.3011500">
    <ele>2493.6</ele>
    <time>2026-06-20T13:37:58Z</time>
   </trkpt>
   <trkpt lat="-3.1402390" lon="37.3011540">
    <ele>2493.7</ele>
    <time>2026-06-20T13:37:59Z</time>
   </trkpt>
   <trkpt lat="-3.1402290" lon="37.3011600">
    <ele>2493.8</ele>
    <time>2026-06-20T13:38:00Z</time>
   </trkpt>
   <trkpt lat="-3.1402150" lon="37.3011770">
    <ele>2494.0</ele>
    <time>2026-06-20T13:38:01Z</time>
   </trkpt>
   <trkpt lat="-3.1402090" lon="37.3011750">
    <ele>2494.1</ele>
    <time>2026-06-20T13:38:02Z</time>
   </trkpt>
   <trkpt lat="-3.1402080" lon="37.3011690">
    <ele>2494.2</ele>
    <time>2026-06-20T13:38:03Z</time>
   </trkpt>
   <trkpt lat="-3.1402050" lon="37.3011690">
    <ele>2494.2</ele>
    <time>2026-06-20T13:38:04Z</time>
   </trkpt>
   <trkpt lat="-3.1401930" lon="37.3011720">
    <ele>2494.3</ele>
    <time>2026-06-20T13:38:05Z</time>
   </trkpt>
   <trkpt lat="-3.1401860" lon="37.3011790">
    <ele>2494.4</ele>
    <time>2026-06-20T13:38:07Z</time>
   </trkpt>
   <trkpt lat="-3.1401760" lon="37.3011900">
    <ele>2494.6</ele>
    <time>2026-06-20T13:38:08Z</time>
   </trkpt>
   <trkpt lat="-3.1401740" lon="37.3011920">
    <ele>2494.6</ele>
    <time>2026-06-20T13:38:09Z</time>
   </trkpt>
   <trkpt lat="-3.1401680" lon="37.3012020">
    <ele>2494.7</ele>
    <time>2026-06-20T13:38:10Z</time>
   </trkpt>
   <trkpt lat="-3.1401630" lon="37.3012070">
    <ele>2494.8</ele>
    <time>2026-06-20T13:38:11Z</time>
   </trkpt>
   <trkpt lat="-3.1401550" lon="37.3012160">
    <ele>2494.9</ele>
    <time>2026-06-20T13:38:12Z</time>
   </trkpt>
   <trkpt lat="-3.1401450" lon="37.3012250">
    <ele>2495.0</ele>
    <time>2026-06-20T13:38:13Z</time>
   </trkpt>
   <trkpt lat="-3.1401330" lon="37.3012360">
    <ele>2495.2</ele>
    <time>2026-06-20T13:38:14Z</time>
   </trkpt>
   <trkpt lat="-3.1401220" lon="37.3012490">
    <ele>2495.3</ele>
    <time>2026-06-20T13:38:15Z</time>
   </trkpt>
   <trkpt lat="-3.1401190" lon="37.3012550">
    <ele>2495.4</ele>
    <time>2026-06-20T13:38:16Z</time>
   </trkpt>
   <trkpt lat="-3.1401150" lon="37.3012580">
    <ele>2495.4</ele>
    <time>2026-06-20T13:38:17Z</time>
   </trkpt>
   <trkpt lat="-3.1401140" lon="37.3012610">
    <ele>2495.5</ele>
    <time>2026-06-20T13:38:18Z</time>
   </trkpt>
   <trkpt lat="-3.1401070" lon="37.3012640">
    <ele>2495.5</ele>
    <time>2026-06-20T13:38:19Z</time>
   </trkpt>
   <trkpt lat="-3.1401090" lon="37.3012670">
    <ele>2495.6</ele>
    <time>2026-06-20T13:38:20Z</time>
   </trkpt>
   <trkpt lat="-3.1401070" lon="37.3012670">
    <ele>2495.6</ele>
    <time>2026-06-20T13:38:21Z</time>
   </trkpt>
   <trkpt lat="-3.1401060" lon="37.3012710">
    <ele>2495.6</ele>
    <time>2026-06-20T13:38:22Z</time>
   </trkpt>
   <trkpt lat="-3.1401020" lon="37.3012780">
    <ele>2495.7</ele>
    <time>2026-06-20T13:38:23Z</time>
   </trkpt>
   <trkpt lat="-3.1401000" lon="37.3012840">
    <ele>2495.7</ele>
    <time>2026-06-20T13:38:24Z</time>
   </trkpt>
   <trkpt lat="-3.1400980" lon="37.3012820">
    <ele>2495.7</ele>
    <time>2026-06-20T13:38:25Z</time>
   </trkpt>
   <trkpt lat="-3.1400960" lon="37.3012770">
    <ele>2495.8</ele>
    <time>2026-06-20T13:38:26Z</time>
   </trkpt>
   <trkpt lat="-3.1400910" lon="37.3012760">
    <ele>2495.8</ele>
    <time>2026-06-20T13:38:27Z</time>
   </trkpt>
   <trkpt lat="-3.1400880" lon="37.3012760">
    <ele>2495.9</ele>
    <time>2026-06-20T13:38:28Z</time>
   </trkpt>
   <trkpt lat="-3.1400830" lon="37.3012750">
    <ele>2495.9</ele>
    <time>2026-06-20T13:38:29Z</time>
   </trkpt>
   <trkpt lat="-3.1400760" lon="37.3012790">
    <ele>2496.0</ele>
    <time>2026-06-20T13:38:30Z</time>
   </trkpt>
   <trkpt lat="-3.1400700" lon="37.3012820">
    <ele>2496.0</ele>
    <time>2026-06-20T13:38:31Z</time>
   </trkpt>
   <trkpt lat="-3.1400630" lon="37.3012840">
    <ele>2496.1</ele>
    <time>2026-06-20T13:38:32Z</time>
   </trkpt>
   <trkpt lat="-3.1400560" lon="37.3012850">
    <ele>2496.1</ele>
    <time>2026-06-20T13:38:33Z</time>
   </trkpt>
   <trkpt lat="-3.1400500" lon="37.3012880">
    <ele>2496.2</ele>
    <time>2026-06-20T13:38:34Z</time>
   </trkpt>
   <trkpt lat="-3.1400480" lon="37.3012960">
    <ele>2496.2</ele>
    <time>2026-06-20T13:38:35Z</time>
   </trkpt>
   <trkpt lat="-3.1400500" lon="37.3012970">
    <ele>2496.3</ele>
    <time>2026-06-20T13:38:36Z</time>
   </trkpt>
   <trkpt lat="-3.1400510" lon="37.3012980">
    <ele>2496.3</ele>
    <time>2026-06-20T13:38:37Z</time>
   </trkpt>
   <trkpt lat="-3.1400530" lon="37.3013070">
    <ele>2496.3</ele>
    <time>2026-06-20T13:38:38Z</time>
   </trkpt>
   <trkpt lat="-3.1400550" lon="37.3013130">
    <ele>2496.4</ele>
    <time>2026-06-20T13:38:39Z</time>
   </trkpt>
   <trkpt lat="-3.1400570" lon="37.3013180">
    <ele>2496.4</ele>
    <time>2026-06-20T13:38:40Z</time>
   </trkpt>
   <trkpt lat="-3.1400550" lon="37.3013250">
    <ele>2496.5</ele>
    <time>2026-06-20T13:38:41Z</time>
   </trkpt>
   <trkpt lat="-3.1400490" lon="37.3013380">
    <ele>2496.6</ele>
    <time>2026-06-20T13:38:42Z</time>
   </trkpt>
   <trkpt lat="-3.1400490" lon="37.3013490">
    <ele>2496.6</ele>
    <time>2026-06-20T13:38:43Z</time>
   </trkpt>
   <trkpt lat="-3.1400420" lon="37.3013570">
    <ele>2496.7</ele>
    <time>2026-06-20T13:38:44Z</time>
   </trkpt>
   <trkpt lat="-3.1400360" lon="37.3013610">
    <ele>2496.8</ele>
    <time>2026-06-20T13:38:45Z</time>
   </trkpt>
   <trkpt lat="-3.1400310" lon="37.3013640">
    <ele>2496.8</ele>
    <time>2026-06-20T13:38:46Z</time>
   </trkpt>
   <trkpt lat="-3.1400270" lon="37.3013690">
    <ele>2496.8</ele>
    <time>2026-06-20T13:38:47Z</time>
   </trkpt>
   <trkpt lat="-3.1400220" lon="37.3013750">
    <ele>2496.9</ele>
    <time>2026-06-20T13:38:48Z</time>
   </trkpt>
   <trkpt lat="-3.1400190" lon="37.3013750">
    <ele>2496.9</ele>
    <time>2026-06-20T13:38:49Z</time>
   </trkpt>
   <trkpt lat="-3.1400130" lon="37.3013740">
    <ele>2496.9</ele>
    <time>2026-06-20T13:38:50Z</time>
   </trkpt>
   <trkpt lat="-3.1400060" lon="37.3013730">
    <ele>2497.0</ele>
    <time>2026-06-20T13:38:51Z</time>
   </trkpt>
   <trkpt lat="-3.1400020" lon="37.3013700">
    <ele>2497.0</ele>
    <time>2026-06-20T13:38:52Z</time>
   </trkpt>
   <trkpt lat="-3.1399990" lon="37.3013640">
    <ele>2497.1</ele>
    <time>2026-06-20T13:38:53Z</time>
   </trkpt>
   <trkpt lat="-3.1399900" lon="37.3013660">
    <ele>2497.1</ele>
    <time>2026-06-20T13:38:54Z</time>
   </trkpt>
   <trkpt lat="-3.1399740" lon="37.3013620">
    <ele>2497.2</ele>
    <time>2026-06-20T13:38:55Z</time>
   </trkpt>
   <trkpt lat="-3.1399680" lon="37.3013610">
    <ele>2497.3</ele>
    <time>2026-06-20T13:38:56Z</time>
   </trkpt>
   <trkpt lat="-3.1399580" lon="37.3013610">
    <ele>2497.3</ele>
    <time>2026-06-20T13:38:57Z</time>
   </trkpt>
   <trkpt lat="-3.1399480" lon="37.3013610">
    <ele>2497.4</ele>
    <time>2026-06-20T13:38:58Z</time>
   </trkpt>
   <trkpt lat="-3.1399380" lon="37.3013650">
    <ele>2497.5</ele>
    <time>2026-06-20T13:38:59Z</time>
   </trkpt>
   <trkpt lat="-3.1399240" lon="37.3013610">
    <ele>2497.6</ele>
    <time>2026-06-20T13:39:00Z</time>
   </trkpt>
   <trkpt lat="-3.1399230" lon="37.3013640">
    <ele>2497.6</ele>
    <time>2026-06-20T13:39:01Z</time>
   </trkpt>
   <trkpt lat="-3.1399190" lon="37.3013730">
    <ele>2497.6</ele>
    <time>2026-06-20T13:39:02Z</time>
   </trkpt>
   <trkpt lat="-3.1399100" lon="37.3013770">
    <ele>2497.7</ele>
    <time>2026-06-20T13:39:03Z</time>
   </trkpt>
   <trkpt lat="-3.1399060" lon="37.3013850">
    <ele>2497.8</ele>
    <time>2026-06-20T13:39:04Z</time>
   </trkpt>
   <trkpt lat="-3.1399060" lon="37.3013930">
    <ele>2497.8</ele>
    <time>2026-06-20T13:39:05Z</time>
   </trkpt>
   <trkpt lat="-3.1399060" lon="37.3014030">
    <ele>2497.9</ele>
    <time>2026-06-20T13:39:06Z</time>
   </trkpt>
   <trkpt lat="-3.1399040" lon="37.3014090">
    <ele>2497.9</ele>
    <time>2026-06-20T13:39:07Z</time>
   </trkpt>
   <trkpt lat="-3.1399040" lon="37.3014100">
    <ele>2497.9</ele>
    <time>2026-06-20T13:39:08Z</time>
   </trkpt>
   <trkpt lat="-3.1399030" lon="37.3014130">
    <ele>2497.9</ele>
    <time>2026-06-20T13:39:09Z</time>
   </trkpt>
   <trkpt lat="-3.1398920" lon="37.3014190">
    <ele>2498.0</ele>
    <time>2026-06-20T13:39:10Z</time>
   </trkpt>
   <trkpt lat="-3.1398830" lon="37.3014210">
    <ele>2498.1</ele>
    <time>2026-06-20T13:39:11Z</time>
   </trkpt>
   <trkpt lat="-3.1398800" lon="37.3014210">
    <ele>2498.1</ele>
    <time>2026-06-20T13:39:12Z</time>
   </trkpt>
   <trkpt lat="-3.1398680" lon="37.3014280">
    <ele>2498.2</ele>
    <time>2026-06-20T13:39:13Z</time>
   </trkpt>
   <trkpt lat="-3.1398650" lon="37.3014260">
    <ele>2498.2</ele>
    <time>2026-06-20T13:39:14Z</time>
   </trkpt>
   <trkpt lat="-3.1398590" lon="37.3014230">
    <ele>2498.2</ele>
    <time>2026-06-20T13:39:15Z</time>
   </trkpt>
   <trkpt lat="-3.1398550" lon="37.3014230">
    <ele>2498.2</ele>
    <time>2026-06-20T13:39:16Z</time>
   </trkpt>
   <trkpt lat="-3.1398590" lon="37.3014120">
    <ele>2498.3</ele>
    <time>2026-06-20T13:39:17Z</time>
   </trkpt>
   <trkpt lat="-3.1398580" lon="37.3014130">
    <ele>2498.3</ele>
    <time>2026-06-20T13:39:18Z</time>
   </trkpt>
   <trkpt lat="-3.1398560" lon="37.3014180">
    <ele>2498.4</ele>
    <time>2026-06-20T13:39:19Z</time>
   </trkpt>
   <trkpt lat="-3.1398560" lon="37.3014240">
    <ele>2498.4</ele>
    <time>2026-06-20T13:39:20Z</time>
   </trkpt>
   <trkpt lat="-3.1398580" lon="37.3014280">
    <ele>2498.4</ele>
    <time>2026-06-20T13:39:21Z</time>
   </trkpt>
   <trkpt lat="-3.1398610" lon="37.3014390">
    <ele>2498.5</ele>
    <time>2026-06-20T13:39:22Z</time>
   </trkpt>
   <trkpt lat="-3.1398590" lon="37.3014480">
    <ele>2498.5</ele>
    <time>2026-06-20T13:39:23Z</time>
   </trkpt>
   <trkpt lat="-3.1398600" lon="37.3014550">
    <ele>2498.6</ele>
    <time>2026-06-20T13:39:24Z</time>
   </trkpt>
   <trkpt lat="-3.1398570" lon="37.3014640">
    <ele>2498.6</ele>
    <time>2026-06-20T13:39:25Z</time>
   </trkpt>
   <trkpt lat="-3.1398550" lon="37.3014640">
    <ele>2498.6</ele>
    <time>2026-06-20T13:39:26Z</time>
   </trkpt>
   <trkpt lat="-3.1398370" lon="37.3014760">
    <ele>2498.8</ele>
    <time>2026-06-20T13:39:27Z</time>
   </trkpt>
   <trkpt lat="-3.1398150" lon="37.3014850">
    <ele>2498.9</ele>
    <time>2026-06-20T13:39:28Z</time>
   </trkpt>
   <trkpt lat="-3.1398070" lon="37.3014880">
    <ele>2498.9</ele>
    <time>2026-06-20T13:39:29Z</time>
   </trkpt>
   <trkpt lat="-3.1397960" lon="37.3014950">
    <ele>2499.0</ele>
    <time>2026-06-20T13:39:30Z</time>
   </trkpt>
   <trkpt lat="-3.1397900" lon="37.3014950">
    <ele>2499.0</ele>
    <time>2026-06-20T13:39:31Z</time>
   </trkpt>
   <trkpt lat="-3.1397770" lon="37.3014980">
    <ele>2499.1</ele>
    <time>2026-06-20T13:39:32Z</time>
   </trkpt>
   <trkpt lat="-3.1397600" lon="37.3015020">
    <ele>2499.2</ele>
    <time>2026-06-20T13:39:33Z</time>
   </trkpt>
   <trkpt lat="-3.1397480" lon="37.3015060">
    <ele>2499.3</ele>
    <time>2026-06-20T13:39:34Z</time>
   </trkpt>
   <trkpt lat="-3.1397380" lon="37.3015090">
    <ele>2499.3</ele>
    <time>2026-06-20T13:39:35Z</time>
   </trkpt>
   <trkpt lat="-3.1397260" lon="37.3015130">
    <ele>2499.4</ele>
    <time>2026-06-20T13:39:36Z</time>
   </trkpt>
   <trkpt lat="-3.1397120" lon="37.3015100">
    <ele>2499.5</ele>
    <time>2026-06-20T13:39:37Z</time>
   </trkpt>
   <trkpt lat="-3.1396990" lon="37.3015110">
    <ele>2499.5</ele>
    <time>2026-06-20T13:39:38Z</time>
   </trkpt>
   <trkpt lat="-3.1396940" lon="37.3015140">
    <ele>2499.6</ele>
    <time>2026-06-20T13:39:39Z</time>
   </trkpt>
   <trkpt lat="-3.1396920" lon="37.3015160">
    <ele>2499.6</ele>
    <time>2026-06-20T13:39:40Z</time>
   </trkpt>
   <trkpt lat="-3.1396870" lon="37.3015260">
    <ele>2499.6</ele>
    <time>2026-06-20T13:39:41Z</time>
   </trkpt>
   <trkpt lat="-3.1396810" lon="37.3015330">
    <ele>2499.7</ele>
    <time>2026-06-20T13:39:42Z</time>
   </trkpt>
   <trkpt lat="-3.1396690" lon="37.3015400">
    <ele>2499.8</ele>
    <time>2026-06-20T13:39:43Z</time>
   </trkpt>
   <trkpt lat="-3.1396670" lon="37.3015440">
    <ele>2499.8</ele>
    <time>2026-06-20T13:39:44Z</time>
   </trkpt>
   <trkpt lat="-3.1396640" lon="37.3015530">
    <ele>2499.8</ele>
    <time>2026-06-20T13:39:45Z</time>
   </trkpt>
   <trkpt lat="-3.1396610" lon="37.3015590">
    <ele>2499.9</ele>
    <time>2026-06-20T13:39:46Z</time>
   </trkpt>
   <trkpt lat="-3.1396550" lon="37.3015630">
    <ele>2499.9</ele>
    <time>2026-06-20T13:39:47Z</time>
   </trkpt>
   <trkpt lat="-3.1396480" lon="37.3015670">
    <ele>2499.9</ele>
    <time>2026-06-20T13:39:48Z</time>
   </trkpt>
   <trkpt lat="-3.1396430" lon="37.3015760">
    <ele>2500.0</ele>
    <time>2026-06-20T13:39:49Z</time>
   </trkpt>
   <trkpt lat="-3.1396440" lon="37.3015800">
    <ele>2500.0</ele>
    <time>2026-06-20T13:39:50Z</time>
   </trkpt>
   <trkpt lat="-3.1396470" lon="37.3015820">
    <ele>2500.0</ele>
    <time>2026-06-20T13:39:51Z</time>
   </trkpt>
   <trkpt lat="-3.1396510" lon="37.3015990">
    <ele>2500.1</ele>
    <time>2026-06-20T13:39:52Z</time>
   </trkpt>
   <trkpt lat="-3.1396440" lon="37.3015990">
    <ele>2500.1</ele>
    <time>2026-06-20T13:39:53Z</time>
   </trkpt>
   <trkpt lat="-3.1396390" lon="37.3016080">
    <ele>2500.2</ele>
    <time>2026-06-20T13:39:54Z</time>
   </trkpt>
   <trkpt lat="-3.1396330" lon="37.3016120">
    <ele>2500.2</ele>
    <time>2026-06-20T13:39:55Z</time>
   </trkpt>
   <trkpt lat="-3.1396240" lon="37.3016160">
    <ele>2500.3</ele>
    <time>2026-06-20T13:39:56Z</time>
   </trkpt>
   <trkpt lat="-3.1396120" lon="37.3016260">
    <ele>2500.3</ele>
    <time>2026-06-20T13:39:57Z</time>
   </trkpt>
   <trkpt lat="-3.1396000" lon="37.3016290">
    <ele>2500.4</ele>
    <time>2026-06-20T13:39:58Z</time>
   </trkpt>
   <trkpt lat="-3.1395920" lon="37.3016340">
    <ele>2500.4</ele>
    <time>2026-06-20T13:39:59Z</time>
   </trkpt>
   <trkpt lat="-3.1395850" lon="37.3016340">
    <ele>2500.5</ele>
    <time>2026-06-20T13:40:00Z</time>
   </trkpt>
   <trkpt lat="-3.1395760" lon="37.3016340">
    <ele>2500.5</ele>
    <time>2026-06-20T13:40:01Z</time>
   </trkpt>
   <trkpt lat="-3.1395710" lon="37.3016310">
    <ele>2500.5</ele>
    <time>2026-06-20T13:40:02Z</time>
   </trkpt>
   <trkpt lat="-3.1395660" lon="37.3016290">
    <ele>2500.6</ele>
    <time>2026-06-20T13:40:03Z</time>
   </trkpt>
   <trkpt lat="-3.1395590" lon="37.3016280">
    <ele>2500.6</ele>
    <time>2026-06-20T13:40:04Z</time>
   </trkpt>
   <trkpt lat="-3.1395500" lon="37.3016230">
    <ele>2500.6</ele>
    <time>2026-06-20T13:40:05Z</time>
   </trkpt>
   <trkpt lat="-3.1395460" lon="37.3016210">
    <ele>2500.7</ele>
    <time>2026-06-20T13:40:06Z</time>
   </trkpt>
   <trkpt lat="-3.1395410" lon="37.3016200">
    <ele>2500.7</ele>
    <time>2026-06-20T13:40:07Z</time>
   </trkpt>
   <trkpt lat="-3.1395410" lon="37.3016180">
    <ele>2500.7</ele>
    <time>2026-06-20T13:40:08Z</time>
   </trkpt>
   <trkpt lat="-3.1395340" lon="37.3016170">
    <ele>2500.7</ele>
    <time>2026-06-20T13:40:09Z</time>
   </trkpt>
   <trkpt lat="-3.1395200" lon="37.3016180">
    <ele>2500.8</ele>
    <time>2026-06-20T13:40:10Z</time>
   </trkpt>
   <trkpt lat="-3.1395120" lon="37.3016200">
    <ele>2500.8</ele>
    <time>2026-06-20T13:40:12Z</time>
   </trkpt>
   <trkpt lat="-3.1394990" lon="37.3016190">
    <ele>2500.9</ele>
    <time>2026-06-20T13:40:13Z</time>
   </trkpt>
   <trkpt lat="-3.1394910" lon="37.3016230">
    <ele>2500.9</ele>
    <time>2026-06-20T13:40:14Z</time>
   </trkpt>
   <trkpt lat="-3.1394850" lon="37.3016260">
    <ele>2500.9</ele>
    <time>2026-06-20T13:40:15Z</time>
   </trkpt>
   <trkpt lat="-3.1394770" lon="37.3016330">
    <ele>2501.0</ele>
    <time>2026-06-20T13:40:16Z</time>
   </trkpt>
   <trkpt lat="-3.1394660" lon="37.3016400">
    <ele>2501.0</ele>
    <time>2026-06-20T13:40:17Z</time>
   </trkpt>
   <trkpt lat="-3.1394550" lon="37.3016440">
    <ele>2501.1</ele>
    <time>2026-06-20T13:40:18Z</time>
   </trkpt>
   <trkpt lat="-3.1394480" lon="37.3016450">
    <ele>2501.1</ele>
    <time>2026-06-20T13:40:19Z</time>
   </trkpt>
   <trkpt lat="-3.1394420" lon="37.3016480">
    <ele>2501.1</ele>
    <time>2026-06-20T13:40:20Z</time>
   </trkpt>
   <trkpt lat="-3.1394360" lon="37.3016530">
    <ele>2501.2</ele>
    <time>2026-06-20T13:40:21Z</time>
   </trkpt>
   <trkpt lat="-3.1394260" lon="37.3016600">
    <ele>2501.2</ele>
    <time>2026-06-20T13:40:22Z</time>
   </trkpt>
   <trkpt lat="-3.1394130" lon="37.3016670">
    <ele>2501.3</ele>
    <time>2026-06-20T13:40:23Z</time>
   </trkpt>
   <trkpt lat="-3.1394080" lon="37.3016710">
    <ele>2501.3</ele>
    <time>2026-06-20T13:40:24Z</time>
   </trkpt>
   <trkpt lat="-3.1393960" lon="37.3016770">
    <ele>2501.3</ele>
    <time>2026-06-20T13:40:25Z</time>
   </trkpt>
   <trkpt lat="-3.1393870" lon="37.3016820">
    <ele>2501.4</ele>
    <time>2026-06-20T13:40:26Z</time>
   </trkpt>
   <trkpt lat="-3.1393810" lon="37.3016860">
    <ele>2501.4</ele>
    <time>2026-06-20T13:40:27Z</time>
   </trkpt>
   <trkpt lat="-3.1393730" lon="37.3016890">
    <ele>2501.4</ele>
    <time>2026-06-20T13:40:28Z</time>
   </trkpt>
   <trkpt lat="-3.1393680" lon="37.3016880">
    <ele>2501.5</ele>
    <time>2026-06-20T13:40:29Z</time>
   </trkpt>
   <trkpt lat="-3.1393580" lon="37.3016900">
    <ele>2501.5</ele>
    <time>2026-06-20T13:40:30Z</time>
   </trkpt>
   <trkpt lat="-3.1393480" lon="37.3016950">
    <ele>2501.5</ele>
    <time>2026-06-20T13:40:31Z</time>
   </trkpt>
   <trkpt lat="-3.1393460" lon="37.3017060">
    <ele>2501.6</ele>
    <time>2026-06-20T13:40:32Z</time>
   </trkpt>
   <trkpt lat="-3.1393350" lon="37.3017180">
    <ele>2501.6</ele>
    <time>2026-06-20T13:40:33Z</time>
   </trkpt>
   <trkpt lat="-3.1393190" lon="37.3017230">
    <ele>2501.7</ele>
    <time>2026-06-20T13:40:34Z</time>
   </trkpt>
   <trkpt lat="-3.1393130" lon="37.3017260">
    <ele>2501.7</ele>
    <time>2026-06-20T13:40:35Z</time>
   </trkpt>
   <trkpt lat="-3.1393040" lon="37.3017310">
    <ele>2501.8</ele>
    <time>2026-06-20T13:40:36Z</time>
   </trkpt>
   <trkpt lat="-3.1392960" lon="37.3017330">
    <ele>2501.8</ele>
    <time>2026-06-20T13:40:37Z</time>
   </trkpt>
   <trkpt lat="-3.1392940" lon="37.3017410">
    <ele>2501.8</ele>
    <time>2026-06-20T13:40:38Z</time>
   </trkpt>
   <trkpt lat="-3.1392910" lon="37.3017450">
    <ele>2501.9</ele>
    <time>2026-06-20T13:40:39Z</time>
   </trkpt>
   <trkpt lat="-3.1392850" lon="37.3017470">
    <ele>2501.9</ele>
    <time>2026-06-20T13:40:40Z</time>
   </trkpt>
   <trkpt lat="-3.1392830" lon="37.3017450">
    <ele>2501.9</ele>
    <time>2026-06-20T13:40:41Z</time>
   </trkpt>
   <trkpt lat="-3.1392790" lon="37.3017470">
    <ele>2501.9</ele>
    <time>2026-06-20T13:40:42Z</time>
   </trkpt>
   <trkpt lat="-3.1392830" lon="37.3017510">
    <ele>2501.9</ele>
    <time>2026-06-20T13:40:43Z</time>
   </trkpt>
   <trkpt lat="-3.1392780" lon="37.3017550">
    <ele>2502.0</ele>
    <time>2026-06-20T13:40:44Z</time>
   </trkpt>
   <trkpt lat="-3.1392730" lon="37.3017580">
    <ele>2502.0</ele>
    <time>2026-06-20T13:40:45Z</time>
   </trkpt>
   <trkpt lat="-3.1392700" lon="37.3017660">
    <ele>2502.0</ele>
    <time>2026-06-20T13:40:46Z</time>
   </trkpt>
   <trkpt lat="-3.1392690" lon="37.3017730">
    <ele>2502.1</ele>
    <time>2026-06-20T13:40:47Z</time>
   </trkpt>
   <trkpt lat="-3.1392660" lon="37.3017750">
    <ele>2502.1</ele>
    <time>2026-06-20T13:40:48Z</time>
   </trkpt>
   <trkpt lat="-3.1392610" lon="37.3017800">
    <ele>2502.1</ele>
    <time>2026-06-20T13:40:49Z</time>
   </trkpt>
   <trkpt lat="-3.1392560" lon="37.3017830">
    <ele>2502.2</ele>
    <time>2026-06-20T13:40:50Z</time>
   </trkpt>
   <trkpt lat="-3.1392470" lon="37.3017930">
    <ele>2502.2</ele>
    <time>2026-06-20T13:40:51Z</time>
   </trkpt>
   <trkpt lat="-3.1392480" lon="37.3018000">
    <ele>2502.3</ele>
    <time>2026-06-20T13:40:52Z</time>
   </trkpt>
   <trkpt lat="-3.1392440" lon="37.3017980">
    <ele>2502.3</ele>
    <time>2026-06-20T13:40:53Z</time>
   </trkpt>
   <trkpt lat="-3.1392500" lon="37.3017980">
    <ele>2502.3</ele>
    <time>2026-06-20T13:40:54Z</time>
   </trkpt>
   <trkpt lat="-3.1392500" lon="37.3017980">
    <ele>2502.3</ele>
    <time>2026-06-20T13:40:55Z</time>
   </trkpt>
   <trkpt lat="-3.1392500" lon="37.3017980">
    <ele>2502.3</ele>
    <time>2026-06-20T13:40:56Z</time>
   </trkpt>
   <trkpt lat="-3.1392490" lon="37.3018020">
    <ele>2502.4</ele>
    <time>2026-06-20T13:40:57Z</time>
   </trkpt>
   <trkpt lat="-3.1392500" lon="37.3018040">
    <ele>2502.4</ele>
    <time>2026-06-20T13:40:58Z</time>
   </trkpt>
   <trkpt lat="-3.1392510" lon="37.3018050">
    <ele>2502.4</ele>
    <time>2026-06-20T13:40:59Z</time>
   </trkpt>
   <trkpt lat="-3.1392510" lon="37.3018050">
    <ele>2502.4</ele>
    <time>2026-06-20T13:41:00Z</time>
   </trkpt>
   <trkpt lat="-3.1392520" lon="37.3018070">
    <ele>2502.4</ele>
    <time>2026-06-20T13:41:01Z</time>
   </trkpt>
   <trkpt lat="-3.1392520" lon="37.3018070">
    <ele>2502.4</ele>
    <time>2026-06-20T13:41:02Z</time>
   </trkpt>
   <trkpt lat="-3.1392520" lon="37.3018070">
    <ele>2502.4</ele>
    <time>2026-06-20T13:41:03Z</time>
   </trkpt>
   <trkpt lat="-3.1392520" lon="37.3018070">
    <ele>2502.4</ele>
    <time>2026-06-20T13:41:04Z</time>
   </trkpt>
   <trkpt lat="-3.1392590" lon="37.3018080">
    <ele>2502.4</ele>
    <time>2026-06-20T13:41:05Z</time>
   </trkpt>
   <trkpt lat="-3.1392590" lon="37.3018080">
    <ele>2502.4</ele>
    <time>2026-06-20T13:41:06Z</time>
   </trkpt>
   <trkpt lat="-3.1392590" lon="37.3018080">
    <ele>2502.4</ele>
    <time>2026-06-20T13:41:07Z</time>
   </trkpt>
   <trkpt lat="-3.1392590" lon="37.3018080">
    <ele>2502.4</ele>
    <time>2026-06-20T13:41:08Z</time>
   </trkpt>
   <trkpt lat="-3.1392590" lon="37.3018080">
    <ele>2502.4</ele>
    <time>2026-06-20T13:41:09Z</time>
   </trkpt>
   <trkpt lat="-3.1392590" lon="37.3018080">
    <ele>2502.4</ele>
    <time>2026-06-20T13:41:10Z</time>
   </trkpt>
   <trkpt lat="-3.1392590" lon="37.3018080">
    <ele>2502.4</ele>
    <time>2026-06-20T13:41:11Z</time>
   </trkpt>
   <trkpt lat="-3.1392620" lon="37.3018150">
    <ele>2502.5</ele>
    <time>2026-06-20T13:41:12Z</time>
   </trkpt>
   <trkpt lat="-3.1392630" lon="37.3018140">
    <ele>2502.5</ele>
    <time>2026-06-20T13:41:13Z</time>
   </trkpt>
   <trkpt lat="-3.1392630" lon="37.3018140">
    <ele>2502.5</ele>
    <time>2026-06-20T13:41:14Z</time>
   </trkpt>
   <trkpt lat="-3.1392630" lon="37.3018140">
    <ele>2502.5</ele>
    <time>2026-06-20T13:41:15Z</time>
   </trkpt>
   <trkpt lat="-3.1392630" lon="37.3018140">
    <ele>2502.5</ele>
    <time>2026-06-20T13:41:16Z</time>
   </trkpt>
   <trkpt lat="-3.1392630" lon="37.3018140">
    <ele>2502.5</ele>
    <time>2026-06-20T13:41:17Z</time>
   </trkpt>
   <trkpt lat="-3.1392540" lon="37.3018240">
    <ele>2502.6</ele>
    <time>2026-06-20T13:41:18Z</time>
   </trkpt>
   <trkpt lat="-3.1392530" lon="37.3018240">
    <ele>2502.6</ele>
    <time>2026-06-20T13:41:19Z</time>
   </trkpt>
   <trkpt lat="-3.1392530" lon="37.3018240">
    <ele>2502.6</ele>
    <time>2026-06-20T13:41:20Z</time>
   </trkpt>
   <trkpt lat="-3.1392540" lon="37.3018270">
    <ele>2502.6</ele>
    <time>2026-06-20T13:41:21Z</time>
   </trkpt>
   <trkpt lat="-3.1392540" lon="37.3018260">
    <ele>2502.6</ele>
    <time>2026-06-20T13:41:22Z</time>
   </trkpt>
   <trkpt lat="-3.1392540" lon="37.3018260">
    <ele>2502.6</ele>
    <time>2026-06-20T13:41:23Z</time>
   </trkpt>
   <trkpt lat="-3.1392570" lon="37.3018260">
    <ele>2502.6</ele>
    <time>2026-06-20T13:41:24Z</time>
   </trkpt>
   <trkpt lat="-3.1392540" lon="37.3018220">
    <ele>2502.7</ele>
    <time>2026-06-20T13:41:25Z</time>
   </trkpt>
   <trkpt lat="-3.1392550" lon="37.3018210">
    <ele>2502.7</ele>
    <time>2026-06-20T13:41:26Z</time>
   </trkpt>
   <trkpt lat="-3.1392560" lon="37.3018080">
    <ele>2502.8</ele>
    <time>2026-06-20T13:41:27Z</time>
   </trkpt>
   <trkpt lat="-3.1392510" lon="37.3018150">
    <ele>2502.8</ele>
    <time>2026-06-20T13:41:28Z</time>
   </trkpt>
   <trkpt lat="-3.1392460" lon="37.3018220">
    <ele>2502.9</ele>
    <time>2026-06-20T13:41:29Z</time>
   </trkpt>
   <trkpt lat="-3.1392460" lon="37.3018250">
    <ele>2502.9</ele>
    <time>2026-06-20T13:41:30Z</time>
   </trkpt>
   <trkpt lat="-3.1392500" lon="37.3018260">
    <ele>2503.0</ele>
    <time>2026-06-20T13:41:31Z</time>
   </trkpt>
   <trkpt lat="-3.1392510" lon="37.3018240">
    <ele>2503.0</ele>
    <time>2026-06-20T13:41:32Z</time>
   </trkpt>
   <trkpt lat="-3.1392510" lon="37.3018170">
    <ele>2503.0</ele>
    <time>2026-06-20T13:41:33Z</time>
   </trkpt>
   <trkpt lat="-3.1392690" lon="37.3018230">
    <ele>2503.2</ele>
    <time>2026-06-20T13:41:34Z</time>
   </trkpt>
   <trkpt lat="-3.1392780" lon="37.3018240">
    <ele>2503.2</ele>
    <time>2026-06-20T13:41:35Z</time>
   </trkpt>
   <trkpt lat="-3.1392730" lon="37.3018230">
    <ele>2503.3</ele>
    <time>2026-06-20T13:41:36Z</time>
   </trkpt>
   <trkpt lat="-3.1392730" lon="37.3018270">
    <ele>2503.3</ele>
    <time>2026-06-20T13:41:37Z</time>
   </trkpt>
   <trkpt lat="-3.1392840" lon="37.3018210">
    <ele>2503.4</ele>
    <time>2026-06-20T13:41:38Z</time>
   </trkpt>
   <trkpt lat="-3.1392910" lon="37.3018160">
    <ele>2503.5</ele>
    <time>2026-06-20T13:41:39Z</time>
   </trkpt>
   <trkpt lat="-3.1392990" lon="37.3018240">
    <ele>2503.6</ele>
    <time>2026-06-20T13:41:40Z</time>
   </trkpt>
   <trkpt lat="-3.1393020" lon="37.3018240">
    <ele>2503.6</ele>
    <time>2026-06-20T13:41:41Z</time>
   </trkpt>
   <trkpt lat="-3.1393020" lon="37.3018220">
    <ele>2503.6</ele>
    <time>2026-06-20T13:41:42Z</time>
   </trkpt>
   <trkpt lat="-3.1393070" lon="37.3018240">
    <ele>2503.6</ele>
    <time>2026-06-20T13:41:43Z</time>
   </trkpt>
   <trkpt lat="-3.1393060" lon="37.3018240">
    <ele>2503.7</ele>
    <time>2026-06-20T13:41:44Z</time>
   </trkpt>
   <trkpt lat="-3.1393000" lon="37.3018260">
    <ele>2503.7</ele>
    <time>2026-06-20T13:41:45Z</time>
   </trkpt>
   <trkpt lat="-3.1392990" lon="37.3018260">
    <ele>2503.7</ele>
    <time>2026-06-20T13:41:46Z</time>
   </trkpt>
   <trkpt lat="-3.1392990" lon="37.3018260">
    <ele>2503.7</ele>
    <time>2026-06-20T13:41:47Z</time>
   </trkpt>
   <trkpt lat="-3.1392990" lon="37.3018260">
    <ele>2503.7</ele>
    <time>2026-06-20T13:41:48Z</time>
   </trkpt>
   <trkpt lat="-3.1392990" lon="37.3018260">
    <ele>2503.7</ele>
    <time>2026-06-20T13:41:49Z</time>
   </trkpt>
   <trkpt lat="-3.1392990" lon="37.3018260">
    <ele>2503.7</ele>
    <time>2026-06-20T13:41:50Z</time>
   </trkpt>
   <trkpt lat="-3.1392990" lon="37.3018260">
    <ele>2503.7</ele>
    <time>2026-06-20T13:41:51Z</time>
   </trkpt>
   <trkpt lat="-3.1392990" lon="37.3018260">
    <ele>2503.7</ele>
    <time>2026-06-20T13:41:52Z</time>
   </trkpt>
   <trkpt lat="-3.1392990" lon="37.3018260">
    <ele>2503.7</ele>
    <time>2026-06-20T13:41:53Z</time>
   </trkpt>
   <trkpt lat="-3.1392990" lon="37.3018260">
    <ele>2503.7</ele>
    <time>2026-06-20T13:41:54Z</time>
   </trkpt>
   <trkpt lat="-3.1392760" lon="37.3018430">
    <ele>2503.9</ele>
    <time>2026-06-20T13:41:55Z</time>
   </trkpt>
   <trkpt lat="-3.1392790" lon="37.3018350">
    <ele>2504.0</ele>
    <time>2026-06-20T13:41:56Z</time>
   </trkpt>
   <trkpt lat="-3.1392790" lon="37.3018350">
    <ele>2504.0</ele>
    <time>2026-06-20T13:41:57Z</time>
   </trkpt>
   <trkpt lat="-3.1392790" lon="37.3018350">
    <ele>2504.0</ele>
    <time>2026-06-20T13:41:58Z</time>
   </trkpt>
   <trkpt lat="-3.1392790" lon="37.3018350">
    <ele>2504.0</ele>
    <time>2026-06-20T13:41:59Z</time>
   </trkpt>
   <trkpt lat="-3.1392790" lon="37.3018350">
    <ele>2504.0</ele>
    <time>2026-06-20T13:42:00Z</time>
   </trkpt>
   <trkpt lat="-3.1392790" lon="37.3018350">
    <ele>2504.0</ele>
    <time>2026-06-20T13:42:01Z</time>
   </trkpt>
   <trkpt lat="-3.1392740" lon="37.3018360">
    <ele>2504.1</ele>
    <time>2026-06-20T13:42:02Z</time>
   </trkpt>
   <trkpt lat="-3.1392730" lon="37.3018360">
    <ele>2504.1</ele>
    <time>2026-06-20T13:42:03Z</time>
   </trkpt>
   <trkpt lat="-3.1392730" lon="37.3018360">
    <ele>2504.1</ele>
    <time>2026-06-20T13:42:04Z</time>
   </trkpt>
   <trkpt lat="-3.1392730" lon="37.3018360">
    <ele>2504.1</ele>
    <time>2026-06-20T13:42:05Z</time>
   </trkpt>
   <trkpt lat="-3.1392630" lon="37.3018380">
    <ele>2504.2</ele>
    <time>2026-06-20T13:42:06Z</time>
   </trkpt>
   <trkpt lat="-3.1392610" lon="37.3018350">
    <ele>2504.2</ele>
    <time>2026-06-20T13:42:07Z</time>
   </trkpt>
   <trkpt lat="-3.1392610" lon="37.3018350">
    <ele>2504.2</ele>
    <time>2026-06-20T13:42:08Z</time>
   </trkpt>
   <trkpt lat="-3.1392610" lon="37.3018350">
    <ele>2504.2</ele>
    <time>2026-06-20T13:42:09Z</time>
   </trkpt>
   <trkpt lat="-3.1392610" lon="37.3018350">
    <ele>2504.2</ele>
    <time>2026-06-20T13:42:10Z</time>
   </trkpt>
   <trkpt lat="-3.1392610" lon="37.3018350">
    <ele>2504.2</ele>
    <time>2026-06-20T13:42:11Z</time>
   </trkpt>
   <trkpt lat="-3.1392580" lon="37.3018310">
    <ele>2504.2</ele>
    <time>2026-06-20T13:42:12Z</time>
   </trkpt>
   <trkpt lat="-3.1392530" lon="37.3018320">
    <ele>2504.3</ele>
    <time>2026-06-20T13:42:13Z</time>
   </trkpt>
   <trkpt lat="-3.1392480" lon="37.3018320">
    <ele>2504.3</ele>
    <time>2026-06-20T13:42:14Z</time>
   </trkpt>
   <trkpt lat="-3.1392490" lon="37.3018350">
    <ele>2504.3</ele>
    <time>2026-06-20T13:42:15Z</time>
   </trkpt>
   <trkpt lat="-3.1392460" lon="37.3018400">
    <ele>2504.4</ele>
    <time>2026-06-20T13:42:16Z</time>
   </trkpt>
   <trkpt lat="-3.1392460" lon="37.3018390">
    <ele>2504.4</ele>
    <time>2026-06-20T13:42:17Z</time>
   </trkpt>
   <trkpt lat="-3.1392500" lon="37.3018430">
    <ele>2504.4</ele>
    <time>2026-06-20T13:42:18Z</time>
   </trkpt>
   <trkpt lat="-3.1392500" lon="37.3018430">
    <ele>2504.4</ele>
    <time>2026-06-20T13:42:19Z</time>
   </trkpt>
   <trkpt lat="-3.1392510" lon="37.3018400">
    <ele>2504.5</ele>
    <time>2026-06-20T13:42:20Z</time>
   </trkpt>
   <trkpt lat="-3.1392510" lon="37.3018430">
    <ele>2504.5</ele>
    <time>2026-06-20T13:42:21Z</time>
   </trkpt>
   <trkpt lat="-3.1392520" lon="37.3018390">
    <ele>2504.5</ele>
    <time>2026-06-20T13:42:22Z</time>
   </trkpt>
   <trkpt lat="-3.1392510" lon="37.3018350">
    <ele>2504.5</ele>
    <time>2026-06-20T13:42:23Z</time>
   </trkpt>
   <trkpt lat="-3.1392520" lon="37.3018320">
    <ele>2504.6</ele>
    <time>2026-06-20T13:42:24Z</time>
   </trkpt>
   <trkpt lat="-3.1392500" lon="37.3018330">
    <ele>2504.6</ele>
    <time>2026-06-20T13:42:25Z</time>
   </trkpt>
   <trkpt lat="-3.1392460" lon="37.3018410">
    <ele>2504.7</ele>
    <time>2026-06-20T13:42:26Z</time>
   </trkpt>
   <trkpt lat="-3.1392440" lon="37.3018460">
    <ele>2504.7</ele>
    <time>2026-06-20T13:42:27Z</time>
   </trkpt>
   <trkpt lat="-3.1392450" lon="37.3018480">
    <ele>2504.7</ele>
    <time>2026-06-20T13:42:28Z</time>
   </trkpt>
   <trkpt lat="-3.1392440" lon="37.3018490">
    <ele>2504.7</ele>
    <time>2026-06-20T13:42:29Z</time>
   </trkpt>
   <trkpt lat="-3.1392400" lon="37.3018500">
    <ele>2504.8</ele>
    <time>2026-06-20T13:42:30Z</time>
   </trkpt>
   <trkpt lat="-3.1392390" lon="37.3018480">
    <ele>2504.8</ele>
    <time>2026-06-20T13:42:31Z</time>
   </trkpt>
   <trkpt lat="-3.1392400" lon="37.3018430">
    <ele>2504.8</ele>
    <time>2026-06-20T13:42:32Z</time>
   </trkpt>
   <trkpt lat="-3.1392310" lon="37.3018440">
    <ele>2504.9</ele>
    <time>2026-06-20T13:42:33Z</time>
   </trkpt>
   <trkpt lat="-3.1392310" lon="37.3018430">
    <ele>2504.9</ele>
    <time>2026-06-20T13:42:34Z</time>
   </trkpt>
   <trkpt lat="-3.1392320" lon="37.3018360">
    <ele>2505.0</ele>
    <time>2026-06-20T13:42:35Z</time>
   </trkpt>
   <trkpt lat="-3.1392300" lon="37.3018370">
    <ele>2505.0</ele>
    <time>2026-06-20T13:42:36Z</time>
   </trkpt>
   <trkpt lat="-3.1392300" lon="37.3018370">
    <ele>2505.0</ele>
    <time>2026-06-20T13:42:37Z</time>
   </trkpt>
   <trkpt lat="-3.1392320" lon="37.3018370">
    <ele>2505.0</ele>
    <time>2026-06-20T13:42:38Z</time>
   </trkpt>
   <trkpt lat="-3.1392320" lon="37.3018370">
    <ele>2505.0</ele>
    <time>2026-06-20T13:42:39Z</time>
   </trkpt>
   <trkpt lat="-3.1392320" lon="37.3018370">
    <ele>2505.0</ele>
    <time>2026-06-20T13:42:40Z</time>
   </trkpt>
   <trkpt lat="-3.1392320" lon="37.3018370">
    <ele>2505.0</ele>
    <time>2026-06-20T13:42:41Z</time>
   </trkpt>
   <trkpt lat="-3.1392320" lon="37.3018370">
    <ele>2505.0</ele>
    <time>2026-06-20T13:42:42Z</time>
   </trkpt>
   <trkpt lat="-3.1392320" lon="37.3018370">
    <ele>2505.0</ele>
    <time>2026-06-20T13:42:43Z</time>
   </trkpt>
   <trkpt lat="-3.1392320" lon="37.3018370">
    <ele>2505.0</ele>
    <time>2026-06-20T13:42:44Z</time>
   </trkpt>
   <trkpt lat="-3.1392220" lon="37.3018440">
    <ele>2505.1</ele>
    <time>2026-06-20T13:42:45Z</time>
   </trkpt>
   <trkpt lat="-3.1392240" lon="37.3018450">
    <ele>2505.1</ele>
    <time>2026-06-20T13:42:46Z</time>
   </trkpt>
   <trkpt lat="-3.1392260" lon="37.3018480">
    <ele>2505.2</ele>
    <time>2026-06-20T13:42:47Z</time>
   </trkpt>
   <trkpt lat="-3.1392370" lon="37.3018420">
    <ele>2505.3</ele>
    <time>2026-06-20T13:42:48Z</time>
   </trkpt>
   <trkpt lat="-3.1392370" lon="37.3018330">
    <ele>2505.4</ele>
    <time>2026-06-20T13:42:49Z</time>
   </trkpt>
   <trkpt lat="-3.1392350" lon="37.3018330">
    <ele>2505.4</ele>
    <time>2026-06-20T13:42:50Z</time>
   </trkpt>
   <trkpt lat="-3.1392340" lon="37.3018350">
    <ele>2505.4</ele>
    <time>2026-06-20T13:42:51Z</time>
   </trkpt>
   <trkpt lat="-3.1392320" lon="37.3018390">
    <ele>2505.4</ele>
    <time>2026-06-20T13:42:52Z</time>
   </trkpt>
   <trkpt lat="-3.1392250" lon="37.3018410">
    <ele>2505.5</ele>
    <time>2026-06-20T13:42:53Z</time>
   </trkpt>
   <trkpt lat="-3.1392280" lon="37.3018400">
    <ele>2505.5</ele>
    <time>2026-06-20T13:42:54Z</time>
   </trkpt>
   <trkpt lat="-3.1392240" lon="37.3018350">
    <ele>2505.6</ele>
    <time>2026-06-20T13:42:55Z</time>
   </trkpt>
   <trkpt lat="-3.1392270" lon="37.3018270">
    <ele>2505.7</ele>
    <time>2026-06-20T13:42:56Z</time>
   </trkpt>
   <trkpt lat="-3.1392260" lon="37.3018220">
    <ele>2505.7</ele>
    <time>2026-06-20T13:42:57Z</time>
   </trkpt>
   <trkpt lat="-3.1392280" lon="37.3018220">
    <ele>2505.7</ele>
    <time>2026-06-20T13:42:58Z</time>
   </trkpt>
   <trkpt lat="-3.1392300" lon="37.3018220">
    <ele>2505.8</ele>
    <time>2026-06-20T13:42:59Z</time>
   </trkpt>
   <trkpt lat="-3.1392250" lon="37.3018290">
    <ele>2505.8</ele>
    <time>2026-06-20T13:43:00Z</time>
   </trkpt>
   <trkpt lat="-3.1392250" lon="37.3018290">
    <ele>2505.8</ele>
    <time>2026-06-20T13:43:01Z</time>
   </trkpt>
   <trkpt lat="-3.1392250" lon="37.3018290">
    <ele>2505.8</ele>
    <time>2026-06-20T13:43:02Z</time>
   </trkpt>
   <trkpt lat="-3.1392250" lon="37.3018290">
    <ele>2505.8</ele>
    <time>2026-06-20T13:43:03Z</time>
   </trkpt>
   <trkpt lat="-3.1392250" lon="37.3018290">
    <ele>2505.8</ele>
    <time>2026-06-20T13:43:04Z</time>
   </trkpt>
   <trkpt lat="-3.1392300" lon="37.3018290">
    <ele>2505.9</ele>
    <time>2026-06-20T13:43:05Z</time>
   </trkpt>
   <trkpt lat="-3.1392250" lon="37.3018340">
    <ele>2506.0</ele>
    <time>2026-06-20T13:43:06Z</time>
   </trkpt>
   <trkpt lat="-3.1392200" lon="37.3018390">
    <ele>2506.0</ele>
    <time>2026-06-20T13:43:07Z</time>
   </trkpt>
   <trkpt lat="-3.1392160" lon="37.3018610">
    <ele>2506.2</ele>
    <time>2026-06-20T13:43:08Z</time>
   </trkpt>
   <trkpt lat="-3.1392160" lon="37.3018520">
    <ele>2506.3</ele>
    <time>2026-06-20T13:43:09Z</time>
   </trkpt>
   <trkpt lat="-3.1392130" lon="37.3018590">
    <ele>2506.4</ele>
    <time>2026-06-20T13:43:10Z</time>
   </trkpt>
   <trkpt lat="-3.1392070" lon="37.3018620">
    <ele>2506.5</ele>
    <time>2026-06-20T13:43:11Z</time>
   </trkpt>
   <trkpt lat="-3.1392050" lon="37.3018650">
    <ele>2506.5</ele>
    <time>2026-06-20T13:43:12Z</time>
   </trkpt>
   <trkpt lat="-3.1392050" lon="37.3018670">
    <ele>2506.5</ele>
    <time>2026-06-20T13:43:13Z</time>
   </trkpt>
   <trkpt lat="-3.1392030" lon="37.3018670">
    <ele>2506.6</ele>
    <time>2026-06-20T13:43:14Z</time>
   </trkpt>
   <trkpt lat="-3.1391960" lon="37.3018700">
    <ele>2506.6</ele>
    <time>2026-06-20T13:43:15Z</time>
   </trkpt>
   <trkpt lat="-3.1391870" lon="37.3018800">
    <ele>2506.8</ele>
    <time>2026-06-20T13:43:16Z</time>
   </trkpt>
   <trkpt lat="-3.1391830" lon="37.3018790">
    <ele>2506.8</ele>
    <time>2026-06-20T13:43:17Z</time>
   </trkpt>
   <trkpt lat="-3.1391760" lon="37.3018790">
    <ele>2506.9</ele>
    <time>2026-06-20T13:43:18Z</time>
   </trkpt>
   <trkpt lat="-3.1391660" lon="37.3018860">
    <ele>2507.0</ele>
    <time>2026-06-20T13:43:19Z</time>
   </trkpt>
   <trkpt lat="-3.1391580" lon="37.3018970">
    <ele>2507.2</ele>
    <time>2026-06-20T13:43:20Z</time>
   </trkpt>
   <trkpt lat="-3.1391540" lon="37.3019000">
    <ele>2507.3</ele>
    <time>2026-06-20T13:43:21Z</time>
   </trkpt>
   <trkpt lat="-3.1391530" lon="37.3019000">
    <ele>2507.3</ele>
    <time>2026-06-20T13:43:22Z</time>
   </trkpt>
   <trkpt lat="-3.1391490" lon="37.3019050">
    <ele>2507.4</ele>
    <time>2026-06-20T13:43:23Z</time>
   </trkpt>
   <trkpt lat="-3.1391410" lon="37.3019100">
    <ele>2507.5</ele>
    <time>2026-06-20T13:43:24Z</time>
   </trkpt>
   <trkpt lat="-3.1391310" lon="37.3019140">
    <ele>2507.6</ele>
    <time>2026-06-20T13:43:25Z</time>
   </trkpt>
   <trkpt lat="-3.1391250" lon="37.3019260">
    <ele>2507.8</ele>
    <time>2026-06-20T13:43:26Z</time>
   </trkpt>
   <trkpt lat="-3.1391170" lon="37.3019340">
    <ele>2507.9</ele>
    <time>2026-06-20T13:43:27Z</time>
   </trkpt>
   <trkpt lat="-3.1391160" lon="37.3019380">
    <ele>2508.0</ele>
    <time>2026-06-20T13:43:28Z</time>
   </trkpt>
   <trkpt lat="-3.1391030" lon="37.3019430">
    <ele>2508.1</ele>
    <time>2026-06-20T13:43:29Z</time>
   </trkpt>
   <trkpt lat="-3.1390990" lon="37.3019440">
    <ele>2508.2</ele>
    <time>2026-06-20T13:43:30Z</time>
   </trkpt>
   <trkpt lat="-3.1390870" lon="37.3019440">
    <ele>2508.3</ele>
    <time>2026-06-20T13:43:31Z</time>
   </trkpt>
   <trkpt lat="-3.1390810" lon="37.3019430">
    <ele>2508.4</ele>
    <time>2026-06-20T13:43:32Z</time>
   </trkpt>
   <trkpt lat="-3.1390770" lon="37.3019440">
    <ele>2508.5</ele>
    <time>2026-06-20T13:43:33Z</time>
   </trkpt>
   <trkpt lat="-3.1390680" lon="37.3019510">
    <ele>2508.6</ele>
    <time>2026-06-20T13:43:34Z</time>
   </trkpt>
   <trkpt lat="-3.1390630" lon="37.3019520">
    <ele>2508.7</ele>
    <time>2026-06-20T13:43:35Z</time>
   </trkpt>
   <trkpt lat="-3.1390490" lon="37.3019540">
    <ele>2508.9</ele>
    <time>2026-06-20T13:43:36Z</time>
   </trkpt>
   <trkpt lat="-3.1390420" lon="37.3019590">
    <ele>2509.0</ele>
    <time>2026-06-20T13:43:37Z</time>
   </trkpt>
   <trkpt lat="-3.1390340" lon="37.3019660">
    <ele>2509.2</ele>
    <time>2026-06-20T13:43:38Z</time>
   </trkpt>
   <trkpt lat="-3.1390330" lon="37.3019690">
    <ele>2509.2</ele>
    <time>2026-06-20T13:43:39Z</time>
   </trkpt>
   <trkpt lat="-3.1390310" lon="37.3019760">
    <ele>2509.3</ele>
    <time>2026-06-20T13:43:40Z</time>
   </trkpt>
   <trkpt lat="-3.1390300" lon="37.3019820">
    <ele>2509.4</ele>
    <time>2026-06-20T13:43:41Z</time>
   </trkpt>
   <trkpt lat="-3.1390230" lon="37.3019890">
    <ele>2509.5</ele>
    <time>2026-06-20T13:43:42Z</time>
   </trkpt>
   <trkpt lat="-3.1390180" lon="37.3019960">
    <ele>2509.6</ele>
    <time>2026-06-20T13:43:43Z</time>
   </trkpt>
   <trkpt lat="-3.1390140" lon="37.3020010">
    <ele>2509.7</ele>
    <time>2026-06-20T13:43:44Z</time>
   </trkpt>
   <trkpt lat="-3.1390060" lon="37.3020050">
    <ele>2509.9</ele>
    <time>2026-06-20T13:43:45Z</time>
   </trkpt>
   <trkpt lat="-3.1389950" lon="37.3020090">
    <ele>2510.0</ele>
    <time>2026-06-20T13:43:46Z</time>
   </trkpt>
   <trkpt lat="-3.1389910" lon="37.3020130">
    <ele>2510.1</ele>
    <time>2026-06-20T13:43:47Z</time>
   </trkpt>
   <trkpt lat="-3.1389870" lon="37.3020180">
    <ele>2510.2</ele>
    <time>2026-06-20T13:43:48Z</time>
   </trkpt>
   <trkpt lat="-3.1389870" lon="37.3020250">
    <ele>2510.3</ele>
    <time>2026-06-20T13:43:49Z</time>
   </trkpt>
   <trkpt lat="-3.1389820" lon="37.3020290">
    <ele>2510.4</ele>
    <time>2026-06-20T13:43:50Z</time>
   </trkpt>
   <trkpt lat="-3.1389690" lon="37.3020350">
    <ele>2510.6</ele>
    <time>2026-06-20T13:43:51Z</time>
   </trkpt>
   <trkpt lat="-3.1389690" lon="37.3020360">
    <ele>2510.6</ele>
    <time>2026-06-20T13:43:52Z</time>
   </trkpt>
   <trkpt lat="-3.1389670" lon="37.3020380">
    <ele>2510.7</ele>
    <time>2026-06-20T13:43:53Z</time>
   </trkpt>
   <trkpt lat="-3.1389650" lon="37.3020410">
    <ele>2510.7</ele>
    <time>2026-06-20T13:43:54Z</time>
   </trkpt>
   <trkpt lat="-3.1389650" lon="37.3020400">
    <ele>2510.8</ele>
    <time>2026-06-20T13:43:55Z</time>
   </trkpt>
   <trkpt lat="-3.1389590" lon="37.3020340">
    <ele>2510.9</ele>
    <time>2026-06-20T13:43:56Z</time>
   </trkpt>
   <trkpt lat="-3.1389570" lon="37.3020360">
    <ele>2510.9</ele>
    <time>2026-06-20T13:43:57Z</time>
   </trkpt>
   <trkpt lat="-3.1389490" lon="37.3020360">
    <ele>2511.0</ele>
    <time>2026-06-20T13:43:58Z</time>
   </trkpt>
   <trkpt lat="-3.1389440" lon="37.3020430">
    <ele>2511.2</ele>
    <time>2026-06-20T13:43:59Z</time>
   </trkpt>
   <trkpt lat="-3.1389400" lon="37.3020440">
    <ele>2511.2</ele>
    <time>2026-06-20T13:44:00Z</time>
   </trkpt>
   <trkpt lat="-3.1389360" lon="37.3020440">
    <ele>2511.3</ele>
    <time>2026-06-20T13:44:01Z</time>
   </trkpt>
   <trkpt lat="-3.1389200" lon="37.3020460">
    <ele>2511.5</ele>
    <time>2026-06-20T13:44:02Z</time>
   </trkpt>
   <trkpt lat="-3.1389060" lon="37.3020480">
    <ele>2511.7</ele>
    <time>2026-06-20T13:44:03Z</time>
   </trkpt>
   <trkpt lat="-3.1389000" lon="37.3020430">
    <ele>2511.8</ele>
    <time>2026-06-20T13:44:04Z</time>
   </trkpt>
   <trkpt lat="-3.1388950" lon="37.3020440">
    <ele>2511.9</ele>
    <time>2026-06-20T13:44:05Z</time>
   </trkpt>
   <trkpt lat="-3.1388890" lon="37.3020390">
    <ele>2512.0</ele>
    <time>2026-06-20T13:44:06Z</time>
   </trkpt>
   <trkpt lat="-3.1388800" lon="37.3020380">
    <ele>2512.2</ele>
    <time>2026-06-20T13:44:07Z</time>
   </trkpt>
   <trkpt lat="-3.1388680" lon="37.3020340">
    <ele>2512.3</ele>
    <time>2026-06-20T13:44:08Z</time>
   </trkpt>
   <trkpt lat="-3.1388540" lon="37.3020410">
    <ele>2512.6</ele>
    <time>2026-06-20T13:44:09Z</time>
   </trkpt>
   <trkpt lat="-3.1388510" lon="37.3020470">
    <ele>2512.7</ele>
    <time>2026-06-20T13:44:10Z</time>
   </trkpt>
   <trkpt lat="-3.1388490" lon="37.3020470">
    <ele>2512.7</ele>
    <time>2026-06-20T13:44:11Z</time>
   </trkpt>
   <trkpt lat="-3.1388440" lon="37.3020490">
    <ele>2512.8</ele>
    <time>2026-06-20T13:44:12Z</time>
   </trkpt>
   <trkpt lat="-3.1388390" lon="37.3020490">
    <ele>2512.8</ele>
    <time>2026-06-20T13:44:13Z</time>
   </trkpt>
   <trkpt lat="-3.1388360" lon="37.3020470">
    <ele>2512.9</ele>
    <time>2026-06-20T13:44:14Z</time>
   </trkpt>
   <trkpt lat="-3.1388350" lon="37.3020450">
    <ele>2512.9</ele>
    <time>2026-06-20T13:44:15Z</time>
   </trkpt>
   <trkpt lat="-3.1388300" lon="37.3020460">
    <ele>2513.0</ele>
    <time>2026-06-20T13:44:16Z</time>
   </trkpt>
   <trkpt lat="-3.1388230" lon="37.3020480">
    <ele>2513.1</ele>
    <time>2026-06-20T13:44:17Z</time>
   </trkpt>
   <trkpt lat="-3.1388150" lon="37.3020530">
    <ele>2513.2</ele>
    <time>2026-06-20T13:44:18Z</time>
   </trkpt>
   <trkpt lat="-3.1388090" lon="37.3020560">
    <ele>2513.3</ele>
    <time>2026-06-20T13:44:19Z</time>
   </trkpt>
   <trkpt lat="-3.1388070" lon="37.3020590">
    <ele>2513.3</ele>
    <time>2026-06-20T13:44:20Z</time>
   </trkpt>
   <trkpt lat="-3.1388040" lon="37.3020580">
    <ele>2513.4</ele>
    <time>2026-06-20T13:44:21Z</time>
   </trkpt>
   <trkpt lat="-3.1388010" lon="37.3020560">
    <ele>2513.4</ele>
    <time>2026-06-20T13:44:22Z</time>
   </trkpt>
   <trkpt lat="-3.1388030" lon="37.3020640">
    <ele>2513.5</ele>
    <time>2026-06-20T13:44:23Z</time>
   </trkpt>
   <trkpt lat="-3.1387980" lon="37.3020730">
    <ele>2513.7</ele>
    <time>2026-06-20T13:44:24Z</time>
   </trkpt>
   <trkpt lat="-3.1387970" lon="37.3020760">
    <ele>2513.7</ele>
    <time>2026-06-20T13:44:25Z</time>
   </trkpt>
   <trkpt lat="-3.1387930" lon="37.3020870">
    <ele>2513.8</ele>
    <time>2026-06-20T13:44:26Z</time>
   </trkpt>
   <trkpt lat="-3.1387890" lon="37.3020880">
    <ele>2513.9</ele>
    <time>2026-06-20T13:44:27Z</time>
   </trkpt>
   <trkpt lat="-3.1387870" lon="37.3020890">
    <ele>2513.9</ele>
    <time>2026-06-20T13:44:28Z</time>
   </trkpt>
   <trkpt lat="-3.1387840" lon="37.3020850">
    <ele>2514.0</ele>
    <time>2026-06-20T13:44:29Z</time>
   </trkpt>
   <trkpt lat="-3.1387830" lon="37.3020860">
    <ele>2514.0</ele>
    <time>2026-06-20T13:44:30Z</time>
   </trkpt>
   <trkpt lat="-3.1387810" lon="37.3020890">
    <ele>2514.0</ele>
    <time>2026-06-20T13:44:31Z</time>
   </trkpt>
   <trkpt lat="-3.1387780" lon="37.3020910">
    <ele>2514.1</ele>
    <time>2026-06-20T13:44:32Z</time>
   </trkpt>
   <trkpt lat="-3.1387710" lon="37.3020940">
    <ele>2514.1</ele>
    <time>2026-06-20T13:44:33Z</time>
   </trkpt>
   <trkpt lat="-3.1387680" lon="37.3020980">
    <ele>2514.2</ele>
    <time>2026-06-20T13:44:34Z</time>
   </trkpt>
   <trkpt lat="-3.1387650" lon="37.3020980">
    <ele>2514.2</ele>
    <time>2026-06-20T13:44:35Z</time>
   </trkpt>
   <trkpt lat="-3.1387590" lon="37.3021030">
    <ele>2514.3</ele>
    <time>2026-06-20T13:44:36Z</time>
   </trkpt>
   <trkpt lat="-3.1387470" lon="37.3021100">
    <ele>2514.5</ele>
    <time>2026-06-20T13:44:37Z</time>
   </trkpt>
   <trkpt lat="-3.1387390" lon="37.3021170">
    <ele>2514.6</ele>
    <time>2026-06-20T13:44:38Z</time>
   </trkpt>
   <trkpt lat="-3.1387370" lon="37.3021170">
    <ele>2514.6</ele>
    <time>2026-06-20T13:44:39Z</time>
   </trkpt>
   <trkpt lat="-3.1387300" lon="37.3021160">
    <ele>2514.7</ele>
    <time>2026-06-20T13:44:40Z</time>
   </trkpt>
   <trkpt lat="-3.1387200" lon="37.3021260">
    <ele>2514.8</ele>
    <time>2026-06-20T13:44:41Z</time>
   </trkpt>
   <trkpt lat="-3.1387070" lon="37.3021390">
    <ele>2515.0</ele>
    <time>2026-06-20T13:44:42Z</time>
   </trkpt>
   <trkpt lat="-3.1386940" lon="37.3021500">
    <ele>2515.2</ele>
    <time>2026-06-20T13:44:43Z</time>
   </trkpt>
   <trkpt lat="-3.1386850" lon="37.3021570">
    <ele>2515.3</ele>
    <time>2026-06-20T13:44:44Z</time>
   </trkpt>
   <trkpt lat="-3.1386720" lon="37.3021580">
    <ele>2515.4</ele>
    <time>2026-06-20T13:44:45Z</time>
   </trkpt>
   <trkpt lat="-3.1386630" lon="37.3021550">
    <ele>2515.5</ele>
    <time>2026-06-20T13:44:46Z</time>
   </trkpt>
   <trkpt lat="-3.1386650" lon="37.3021510">
    <ele>2515.6</ele>
    <time>2026-06-20T13:44:47Z</time>
   </trkpt>
   <trkpt lat="-3.1386710" lon="37.3021350">
    <ele>2515.7</ele>
    <time>2026-06-20T13:44:48Z</time>
   </trkpt>
   <trkpt lat="-3.1386610" lon="37.3021300">
    <ele>2515.9</ele>
    <time>2026-06-20T13:44:49Z</time>
   </trkpt>
   <trkpt lat="-3.1386550" lon="37.3021200">
    <ele>2516.0</ele>
    <time>2026-06-20T13:44:50Z</time>
   </trkpt>
   <trkpt lat="-3.1386510" lon="37.3021200">
    <ele>2516.0</ele>
    <time>2026-06-20T13:44:51Z</time>
   </trkpt>
   <trkpt lat="-3.1386440" lon="37.3021180">
    <ele>2516.1</ele>
    <time>2026-06-20T13:44:52Z</time>
   </trkpt>
   <trkpt lat="-3.1386420" lon="37.3021150">
    <ele>2516.1</ele>
    <time>2026-06-20T13:44:53Z</time>
   </trkpt>
   <trkpt lat="-3.1386380" lon="37.3021150">
    <ele>2516.2</ele>
    <time>2026-06-20T13:44:54Z</time>
   </trkpt>
   <trkpt lat="-3.1386320" lon="37.3021130">
    <ele>2516.2</ele>
    <time>2026-06-20T13:44:55Z</time>
   </trkpt>
   <trkpt lat="-3.1386300" lon="37.3021140">
    <ele>2516.2</ele>
    <time>2026-06-20T13:44:56Z</time>
   </trkpt>
   <trkpt lat="-3.1386230" lon="37.3021210">
    <ele>2516.3</ele>
    <time>2026-06-20T13:44:57Z</time>
   </trkpt>
   <trkpt lat="-3.1386170" lon="37.3021280">
    <ele>2516.4</ele>
    <time>2026-06-20T13:44:58Z</time>
   </trkpt>
   <trkpt lat="-3.1386020" lon="37.3021370">
    <ele>2516.6</ele>
    <time>2026-06-20T13:44:59Z</time>
   </trkpt>
   <trkpt lat="-3.1385940" lon="37.3021490">
    <ele>2516.7</ele>
    <time>2026-06-20T13:45:00Z</time>
   </trkpt>
   <trkpt lat="-3.1385870" lon="37.3021640">
    <ele>2516.9</ele>
    <time>2026-06-20T13:45:01Z</time>
   </trkpt>
   <trkpt lat="-3.1385830" lon="37.3021670">
    <ele>2517.0</ele>
    <time>2026-06-20T13:45:02Z</time>
   </trkpt>
   <trkpt lat="-3.1385680" lon="37.3021660">
    <ele>2517.1</ele>
    <time>2026-06-20T13:45:03Z</time>
   </trkpt>
   <trkpt lat="-3.1385510" lon="37.3021710">
    <ele>2517.3</ele>
    <time>2026-06-20T13:45:04Z</time>
   </trkpt>
   <trkpt lat="-3.1385420" lon="37.3021730">
    <ele>2517.4</ele>
    <time>2026-06-20T13:45:05Z</time>
   </trkpt>
   <trkpt lat="-3.1385330" lon="37.3021770">
    <ele>2517.5</ele>
    <time>2026-06-20T13:45:06Z</time>
   </trkpt>
   <trkpt lat="-3.1385400" lon="37.3021810">
    <ele>2517.6</ele>
    <time>2026-06-20T13:45:07Z</time>
   </trkpt>
   <trkpt lat="-3.1385270" lon="37.3021920">
    <ele>2517.8</ele>
    <time>2026-06-20T13:45:08Z</time>
   </trkpt>
   <trkpt lat="-3.1385210" lon="37.3021950">
    <ele>2517.9</ele>
    <time>2026-06-20T13:45:09Z</time>
   </trkpt>
   <trkpt lat="-3.1385200" lon="37.3021900">
    <ele>2517.9</ele>
    <time>2026-06-20T13:45:10Z</time>
   </trkpt>
   <trkpt lat="-3.1385100" lon="37.3021880">
    <ele>2518.0</ele>
    <time>2026-06-20T13:45:11Z</time>
   </trkpt>
   <trkpt lat="-3.1385120" lon="37.3021900">
    <ele>2518.0</ele>
    <time>2026-06-20T13:45:12Z</time>
   </trkpt>
   <trkpt lat="-3.1385190" lon="37.3022030">
    <ele>2518.2</ele>
    <time>2026-06-20T13:45:13Z</time>
   </trkpt>
   <trkpt lat="-3.1385240" lon="37.3022000">
    <ele>2518.3</ele>
    <time>2026-06-20T13:45:14Z</time>
   </trkpt>
   <trkpt lat="-3.1385220" lon="37.3021860">
    <ele>2518.4</ele>
    <time>2026-06-20T13:45:15Z</time>
   </trkpt>
   <trkpt lat="-3.1385240" lon="37.3021920">
    <ele>2518.5</ele>
    <time>2026-06-20T13:45:16Z</time>
   </trkpt>
   <trkpt lat="-3.1385210" lon="37.3022070">
    <ele>2518.7</ele>
    <time>2026-06-20T13:45:17Z</time>
   </trkpt>
   <trkpt lat="-3.1385150" lon="37.3022190">
    <ele>2518.8</ele>
    <time>2026-06-20T13:45:18Z</time>
   </trkpt>
   <trkpt lat="-3.1385060" lon="37.3022320">
    <ele>2519.0</ele>
    <time>2026-06-20T13:45:19Z</time>
   </trkpt>
   <trkpt lat="-3.1384960" lon="37.3022470">
    <ele>2519.3</ele>
    <time>2026-06-20T13:45:20Z</time>
   </trkpt>
   <trkpt lat="-3.1384900" lon="37.3022580">
    <ele>2519.4</ele>
    <time>2026-06-20T13:45:21Z</time>
   </trkpt>
   <trkpt lat="-3.1384830" lon="37.3022620">
    <ele>2519.5</ele>
    <time>2026-06-20T13:45:22Z</time>
   </trkpt>
   <trkpt lat="-3.1384780" lon="37.3022650">
    <ele>2519.6</ele>
    <time>2026-06-20T13:45:23Z</time>
   </trkpt>
   <trkpt lat="-3.1384690" lon="37.3022640">
    <ele>2519.7</ele>
    <time>2026-06-20T13:45:24Z</time>
   </trkpt>
   <trkpt lat="-3.1384600" lon="37.3022660">
    <ele>2519.8</ele>
    <time>2026-06-20T13:45:25Z</time>
   </trkpt>
   <trkpt lat="-3.1384500" lon="37.3022720">
    <ele>2520.0</ele>
    <time>2026-06-20T13:45:26Z</time>
   </trkpt>
   <trkpt lat="-3.1384320" lon="37.3022750">
    <ele>2520.2</ele>
    <time>2026-06-20T13:45:27Z</time>
   </trkpt>
   <trkpt lat="-3.1384200" lon="37.3022800">
    <ele>2520.4</ele>
    <time>2026-06-20T13:45:28Z</time>
   </trkpt>
   <trkpt lat="-3.1384040" lon="37.3022760">
    <ele>2520.7</ele>
    <time>2026-06-20T13:45:29Z</time>
   </trkpt>
   <trkpt lat="-3.1383950" lon="37.3022760">
    <ele>2520.8</ele>
    <time>2026-06-20T13:45:30Z</time>
   </trkpt>
   <trkpt lat="-3.1383860" lon="37.3022740">
    <ele>2520.9</ele>
    <time>2026-06-20T13:45:31Z</time>
   </trkpt>
   <trkpt lat="-3.1383810" lon="37.3022760">
    <ele>2521.0</ele>
    <time>2026-06-20T13:45:32Z</time>
   </trkpt>
   <trkpt lat="-3.1383790" lon="37.3022830">
    <ele>2521.1</ele>
    <time>2026-06-20T13:45:33Z</time>
   </trkpt>
   <trkpt lat="-3.1383700" lon="37.3022860">
    <ele>2521.2</ele>
    <time>2026-06-20T13:45:34Z</time>
   </trkpt>
   <trkpt lat="-3.1383690" lon="37.3022900">
    <ele>2521.3</ele>
    <time>2026-06-20T13:45:35Z</time>
   </trkpt>
   <trkpt lat="-3.1383670" lon="37.3022930">
    <ele>2521.3</ele>
    <time>2026-06-20T13:45:36Z</time>
   </trkpt>
   <trkpt lat="-3.1383710" lon="37.3022990">
    <ele>2521.4</ele>
    <time>2026-06-20T13:45:37Z</time>
   </trkpt>
   <trkpt lat="-3.1383620" lon="37.3023110">
    <ele>2521.7</ele>
    <time>2026-06-20T13:45:38Z</time>
   </trkpt>
   <trkpt lat="-3.1383570" lon="37.3023110">
    <ele>2521.7</ele>
    <time>2026-06-20T13:45:39Z</time>
   </trkpt>
   <trkpt lat="-3.1383560" lon="37.3023110">
    <ele>2521.8</ele>
    <time>2026-06-20T13:45:40Z</time>
   </trkpt>
   <trkpt lat="-3.1383440" lon="37.3023200">
    <ele>2522.0</ele>
    <time>2026-06-20T13:45:41Z</time>
   </trkpt>
   <trkpt lat="-3.1383370" lon="37.3023190">
    <ele>2522.1</ele>
    <time>2026-06-20T13:45:42Z</time>
   </trkpt>
   <trkpt lat="-3.1383400" lon="37.3023130">
    <ele>2522.2</ele>
    <time>2026-06-20T13:45:43Z</time>
   </trkpt>
   <trkpt lat="-3.1383400" lon="37.3023110">
    <ele>2522.2</ele>
    <time>2026-06-20T13:45:44Z</time>
   </trkpt>
   <trkpt lat="-3.1383360" lon="37.3023110">
    <ele>2522.3</ele>
    <time>2026-06-20T13:45:45Z</time>
   </trkpt>
   <trkpt lat="-3.1383310" lon="37.3023180">
    <ele>2522.4</ele>
    <time>2026-06-20T13:45:46Z</time>
   </trkpt>
   <trkpt lat="-3.1383220" lon="37.3023210">
    <ele>2522.6</ele>
    <time>2026-06-20T13:45:47Z</time>
   </trkpt>
   <trkpt lat="-3.1383160" lon="37.3023180">
    <ele>2522.7</ele>
    <time>2026-06-20T13:45:48Z</time>
   </trkpt>
   <trkpt lat="-3.1383130" lon="37.3023190">
    <ele>2522.7</ele>
    <time>2026-06-20T13:45:49Z</time>
   </trkpt>
   <trkpt lat="-3.1383110" lon="37.3023170">
    <ele>2522.8</ele>
    <time>2026-06-20T13:45:50Z</time>
   </trkpt>
   <trkpt lat="-3.1383000" lon="37.3023200">
    <ele>2522.9</ele>
    <time>2026-06-20T13:45:51Z</time>
   </trkpt>
   <trkpt lat="-3.1382980" lon="37.3023180">
    <ele>2523.0</ele>
    <time>2026-06-20T13:45:52Z</time>
   </trkpt>
   <trkpt lat="-3.1382970" lon="37.3023160">
    <ele>2523.0</ele>
    <time>2026-06-20T13:45:53Z</time>
   </trkpt>
   <trkpt lat="-3.1382840" lon="37.3023320">
    <ele>2523.3</ele>
    <time>2026-06-20T13:45:54Z</time>
   </trkpt>
   <trkpt lat="-3.1382700" lon="37.3023400">
    <ele>2523.6</ele>
    <time>2026-06-20T13:45:55Z</time>
   </trkpt>
   <trkpt lat="-3.1382610" lon="37.3023450">
    <ele>2523.8</ele>
    <time>2026-06-20T13:45:56Z</time>
   </trkpt>
   <trkpt lat="-3.1382550" lon="37.3023450">
    <ele>2523.9</ele>
    <time>2026-06-20T13:45:57Z</time>
   </trkpt>
   <trkpt lat="-3.1382420" lon="37.3023490">
    <ele>2524.1</ele>
    <time>2026-06-20T13:45:58Z</time>
   </trkpt>
   <trkpt lat="-3.1382340" lon="37.3023480">
    <ele>2524.2</ele>
    <time>2026-06-20T13:45:59Z</time>
   </trkpt>
   <trkpt lat="-3.1382240" lon="37.3023450">
    <ele>2524.4</ele>
    <time>2026-06-20T13:46:00Z</time>
   </trkpt>
   <trkpt lat="-3.1382120" lon="37.3023400">
    <ele>2524.6</ele>
    <time>2026-06-20T13:46:01Z</time>
   </trkpt>
   <trkpt lat="-3.1382060" lon="37.3023320">
    <ele>2524.8</ele>
    <time>2026-06-20T13:46:02Z</time>
   </trkpt>
   <trkpt lat="-3.1382020" lon="37.3023310">
    <ele>2524.8</ele>
    <time>2026-06-20T13:46:03Z</time>
   </trkpt>
   <trkpt lat="-3.1381980" lon="37.3023380">
    <ele>2525.0</ele>
    <time>2026-06-20T13:46:04Z</time>
   </trkpt>
   <trkpt lat="-3.1381960" lon="37.3023420">
    <ele>2525.0</ele>
    <time>2026-06-20T13:46:05Z</time>
   </trkpt>
   <trkpt lat="-3.1381900" lon="37.3023430">
    <ele>2525.1</ele>
    <time>2026-06-20T13:46:06Z</time>
   </trkpt>
   <trkpt lat="-3.1381850" lon="37.3023460">
    <ele>2525.2</ele>
    <time>2026-06-20T13:46:07Z</time>
   </trkpt>
   <trkpt lat="-3.1381740" lon="37.3023500">
    <ele>2525.4</ele>
    <time>2026-06-20T13:46:08Z</time>
   </trkpt>
   <trkpt lat="-3.1381670" lon="37.3023570">
    <ele>2525.6</ele>
    <time>2026-06-20T13:46:09Z</time>
   </trkpt>
   <trkpt lat="-3.1381630" lon="37.3023530">
    <ele>2525.7</ele>
    <time>2026-06-20T13:46:10Z</time>
   </trkpt>
   <trkpt lat="-3.1381630" lon="37.3023540">
    <ele>2525.7</ele>
    <time>2026-06-20T13:46:11Z</time>
   </trkpt>
   <trkpt lat="-3.1381550" lon="37.3023650">
    <ele>2525.9</ele>
    <time>2026-06-20T13:46:12Z</time>
   </trkpt>
   <trkpt lat="-3.1381480" lon="37.3023710">
    <ele>2526.1</ele>
    <time>2026-06-20T13:46:13Z</time>
   </trkpt>
   <trkpt lat="-3.1381410" lon="37.3023810">
    <ele>2526.3</ele>
    <time>2026-06-20T13:46:14Z</time>
   </trkpt>
   <trkpt lat="-3.1381390" lon="37.3023740">
    <ele>2526.4</ele>
    <time>2026-06-20T13:46:15Z</time>
   </trkpt>
   <trkpt lat="-3.1381340" lon="37.3023780">
    <ele>2526.5</ele>
    <time>2026-06-20T13:46:16Z</time>
   </trkpt>
   <trkpt lat="-3.1381220" lon="37.3023890">
    <ele>2526.8</ele>
    <time>2026-06-20T13:46:17Z</time>
   </trkpt>
   <trkpt lat="-3.1381150" lon="37.3023880">
    <ele>2526.9</ele>
    <time>2026-06-20T13:46:18Z</time>
   </trkpt>
   <trkpt lat="-3.1381080" lon="37.3023890">
    <ele>2527.0</ele>
    <time>2026-06-20T13:46:19Z</time>
   </trkpt>
   <trkpt lat="-3.1380970" lon="37.3023900">
    <ele>2527.2</ele>
    <time>2026-06-20T13:46:20Z</time>
   </trkpt>
   <trkpt lat="-3.1380800" lon="37.3023950">
    <ele>2527.5</ele>
    <time>2026-06-20T13:46:21Z</time>
   </trkpt>
   <trkpt lat="-3.1380720" lon="37.3023930">
    <ele>2527.6</ele>
    <time>2026-06-20T13:46:22Z</time>
   </trkpt>
   <trkpt lat="-3.1380740" lon="37.3023920">
    <ele>2527.7</ele>
    <time>2026-06-20T13:46:23Z</time>
   </trkpt>
   <trkpt lat="-3.1380770" lon="37.3023880">
    <ele>2527.7</ele>
    <time>2026-06-20T13:46:24Z</time>
   </trkpt>
   <trkpt lat="-3.1380770" lon="37.3023880">
    <ele>2527.7</ele>
    <time>2026-06-20T13:46:25Z</time>
   </trkpt>
   <trkpt lat="-3.1380770" lon="37.3023880">
    <ele>2527.7</ele>
    <time>2026-06-20T13:46:26Z</time>
   </trkpt>
   <trkpt lat="-3.1380770" lon="37.3023880">
    <ele>2527.7</ele>
    <time>2026-06-20T13:46:27Z</time>
   </trkpt>
   <trkpt lat="-3.1380770" lon="37.3023880">
    <ele>2527.7</ele>
    <time>2026-06-20T13:46:28Z</time>
   </trkpt>
   <trkpt lat="-3.1380910" lon="37.3023770">
    <ele>2528.0</ele>
    <time>2026-06-20T13:46:29Z</time>
   </trkpt>
   <trkpt lat="-3.1380920" lon="37.3023760">
    <ele>2528.0</ele>
    <time>2026-06-20T13:46:30Z</time>
   </trkpt>
   <trkpt lat="-3.1380940" lon="37.3023760">
    <ele>2528.1</ele>
    <time>2026-06-20T13:46:31Z</time>
   </trkpt>
   <trkpt lat="-3.1380940" lon="37.3023760">
    <ele>2528.1</ele>
    <time>2026-06-20T13:46:32Z</time>
   </trkpt>
   <trkpt lat="-3.1380950" lon="37.3023770">
    <ele>2528.1</ele>
    <time>2026-06-20T13:46:33Z</time>
   </trkpt>
   <trkpt lat="-3.1380900" lon="37.3023790">
    <ele>2528.2</ele>
    <time>2026-06-20T13:46:34Z</time>
   </trkpt>
   <trkpt lat="-3.1380790" lon="37.3023950">
    <ele>2528.5</ele>
    <time>2026-06-20T13:46:35Z</time>
   </trkpt>
   <trkpt lat="-3.1380680" lon="37.3024020">
    <ele>2528.7</ele>
    <time>2026-06-20T13:46:36Z</time>
   </trkpt>
   <trkpt lat="-3.1380640" lon="37.3024040">
    <ele>2528.8</ele>
    <time>2026-06-20T13:46:37Z</time>
   </trkpt>
   <trkpt lat="-3.1380630" lon="37.3024030">
    <ele>2528.8</ele>
    <time>2026-06-20T13:46:38Z</time>
   </trkpt>
   <trkpt lat="-3.1380660" lon="37.3024010">
    <ele>2528.8</ele>
    <time>2026-06-20T13:46:40Z</time>
   </trkpt>
   <trkpt lat="-3.1380540" lon="37.3024150">
    <ele>2529.1</ele>
    <time>2026-06-20T13:46:41Z</time>
   </trkpt>
   <trkpt lat="-3.1380540" lon="37.3024170">
    <ele>2529.2</ele>
    <time>2026-06-20T13:46:42Z</time>
   </trkpt>
   <trkpt lat="-3.1380490" lon="37.3024250">
    <ele>2529.3</ele>
    <time>2026-06-20T13:46:43Z</time>
   </trkpt>
   <trkpt lat="-3.1380490" lon="37.3024360">
    <ele>2529.5</ele>
    <time>2026-06-20T13:46:44Z</time>
   </trkpt>
   <trkpt lat="-3.1380430" lon="37.3024390">
    <ele>2529.6</ele>
    <time>2026-06-20T13:46:45Z</time>
   </trkpt>
   <trkpt lat="-3.1380410" lon="37.3024510">
    <ele>2529.8</ele>
    <time>2026-06-20T13:46:46Z</time>
   </trkpt>
   <trkpt lat="-3.1380390" lon="37.3024640">
    <ele>2530.0</ele>
    <time>2026-06-20T13:46:47Z</time>
   </trkpt>
   <trkpt lat="-3.1380380" lon="37.3024690">
    <ele>2530.1</ele>
    <time>2026-06-20T13:46:48Z</time>
   </trkpt>
   <trkpt lat="-3.1380320" lon="37.3024810">
    <ele>2530.3</ele>
    <time>2026-06-20T13:46:49Z</time>
   </trkpt>
   <trkpt lat="-3.1380310" lon="37.3024960">
    <ele>2530.5</ele>
    <time>2026-06-20T13:46:50Z</time>
   </trkpt>
   <trkpt lat="-3.1380330" lon="37.3024950">
    <ele>2530.6</ele>
    <time>2026-06-20T13:46:51Z</time>
   </trkpt>
   <trkpt lat="-3.1380360" lon="37.3024940">
    <ele>2530.6</ele>
    <time>2026-06-20T13:46:52Z</time>
   </trkpt>
   <trkpt lat="-3.1380410" lon="37.3024990">
    <ele>2530.8</ele>
    <time>2026-06-20T13:46:53Z</time>
   </trkpt>
   <trkpt lat="-3.1380450" lon="37.3024950">
    <ele>2530.9</ele>
    <time>2026-06-20T13:46:54Z</time>
   </trkpt>
   <trkpt lat="-3.1380480" lon="37.3025010">
    <ele>2531.0</ele>
    <time>2026-06-20T13:46:55Z</time>
   </trkpt>
   <trkpt lat="-3.1380500" lon="37.3025090">
    <ele>2531.1</ele>
    <time>2026-06-20T13:46:56Z</time>
   </trkpt>
   <trkpt lat="-3.1380570" lon="37.3025090">
    <ele>2531.2</ele>
    <time>2026-06-20T13:46:57Z</time>
   </trkpt>
   <trkpt lat="-3.1380690" lon="37.3024930">
    <ele>2531.6</ele>
    <time>2026-06-20T13:46:58Z</time>
   </trkpt>
   <trkpt lat="-3.1380690" lon="37.3024970">
    <ele>2531.6</ele>
    <time>2026-06-20T13:46:59Z</time>
   </trkpt>
   <trkpt lat="-3.1380810" lon="37.3025000">
    <ele>2531.9</ele>
    <time>2026-06-20T13:47:00Z</time>
   </trkpt>
   <trkpt lat="-3.1380880" lon="37.3025070">
    <ele>2532.1</ele>
    <time>2026-06-20T13:47:01Z</time>
   </trkpt>
   <trkpt lat="-3.1380960" lon="37.3025090">
    <ele>2532.2</ele>
    <time>2026-06-20T13:47:02Z</time>
   </trkpt>
   <trkpt lat="-3.1381030" lon="37.3025130">
    <ele>2532.4</ele>
    <time>2026-06-20T13:47:03Z</time>
   </trkpt>
   <trkpt lat="-3.1381090" lon="37.3025180">
    <ele>2532.5</ele>
    <time>2026-06-20T13:47:04Z</time>
   </trkpt>
   <trkpt lat="-3.1381150" lon="37.3025250">
    <ele>2532.7</ele>
    <time>2026-06-20T13:47:05Z</time>
   </trkpt>
   <trkpt lat="-3.1381200" lon="37.3025320">
    <ele>2532.8</ele>
    <time>2026-06-20T13:47:06Z</time>
   </trkpt>
   <trkpt lat="-3.1381260" lon="37.3025390">
    <ele>2533.0</ele>
    <time>2026-06-20T13:47:07Z</time>
   </trkpt>
   <trkpt lat="-3.1381330" lon="37.3025360">
    <ele>2533.1</ele>
    <time>2026-06-20T13:47:08Z</time>
   </trkpt>
   <trkpt lat="-3.1381380" lon="37.3025360">
    <ele>2533.2</ele>
    <time>2026-06-20T13:47:09Z</time>
   </trkpt>
   <trkpt lat="-3.1381460" lon="37.3025350">
    <ele>2533.4</ele>
    <time>2026-06-20T13:47:10Z</time>
   </trkpt>
   <trkpt lat="-3.1381500" lon="37.3025380">
    <ele>2533.5</ele>
    <time>2026-06-20T13:47:11Z</time>
   </trkpt>
   <trkpt lat="-3.1381520" lon="37.3025440">
    <ele>2533.6</ele>
    <time>2026-06-20T13:47:12Z</time>
   </trkpt>
   <trkpt lat="-3.1381510" lon="37.3025490">
    <ele>2533.7</ele>
    <time>2026-06-20T13:47:13Z</time>
   </trkpt>
   <trkpt lat="-3.1381530" lon="37.3025490">
    <ele>2533.7</ele>
    <time>2026-06-20T13:47:14Z</time>
   </trkpt>
   <trkpt lat="-3.1381570" lon="37.3025560">
    <ele>2533.9</ele>
    <time>2026-06-20T13:47:15Z</time>
   </trkpt>
   <trkpt lat="-3.1381630" lon="37.3025570">
    <ele>2534.0</ele>
    <time>2026-06-20T13:47:16Z</time>
   </trkpt>
   <trkpt lat="-3.1381650" lon="37.3025500">
    <ele>2534.1</ele>
    <time>2026-06-20T13:47:17Z</time>
   </trkpt>
   <trkpt lat="-3.1381620" lon="37.3025590">
    <ele>2534.3</ele>
    <time>2026-06-20T13:47:18Z</time>
   </trkpt>
   <trkpt lat="-3.1381700" lon="37.3025560">
    <ele>2534.4</ele>
    <time>2026-06-20T13:47:19Z</time>
   </trkpt>
   <trkpt lat="-3.1381750" lon="37.3025520">
    <ele>2534.6</ele>
    <time>2026-06-20T13:47:20Z</time>
   </trkpt>
   <trkpt lat="-3.1381800" lon="37.3025500">
    <ele>2534.7</ele>
    <time>2026-06-20T13:47:21Z</time>
   </trkpt>
   <trkpt lat="-3.1381810" lon="37.3025510">
    <ele>2534.7</ele>
    <time>2026-06-20T13:47:22Z</time>
   </trkpt>
   <trkpt lat="-3.1381870" lon="37.3025550">
    <ele>2534.8</ele>
    <time>2026-06-20T13:47:23Z</time>
   </trkpt>
   <trkpt lat="-3.1381870" lon="37.3025610">
    <ele>2534.9</ele>
    <time>2026-06-20T13:47:24Z</time>
   </trkpt>
   <trkpt lat="-3.1381960" lon="37.3025620">
    <ele>2535.1</ele>
    <time>2026-06-20T13:47:25Z</time>
   </trkpt>
   <trkpt lat="-3.1382040" lon="37.3025630">
    <ele>2535.2</ele>
    <time>2026-06-20T13:47:26Z</time>
   </trkpt>
   <trkpt lat="-3.1382070" lon="37.3025720">
    <ele>2535.4</ele>
    <time>2026-06-20T13:47:27Z</time>
   </trkpt>
   <trkpt lat="-3.1382150" lon="37.3025770">
    <ele>2535.6</ele>
    <time>2026-06-20T13:47:28Z</time>
   </trkpt>
   <trkpt lat="-3.1382190" lon="37.3025790">
    <ele>2535.7</ele>
    <time>2026-06-20T13:47:29Z</time>
   </trkpt>
   <trkpt lat="-3.1382190" lon="37.3025850">
    <ele>2535.8</ele>
    <time>2026-06-20T13:47:30Z</time>
   </trkpt>
   <trkpt lat="-3.1382230" lon="37.3025960">
    <ele>2536.0</ele>
    <time>2026-06-20T13:47:31Z</time>
   </trkpt>
   <trkpt lat="-3.1382270" lon="37.3025980">
    <ele>2536.1</ele>
    <time>2026-06-20T13:47:32Z</time>
   </trkpt>
   <trkpt lat="-3.1382330" lon="37.3025980">
    <ele>2536.2</ele>
    <time>2026-06-20T13:47:33Z</time>
   </trkpt>
   <trkpt lat="-3.1382440" lon="37.3026030">
    <ele>2536.4</ele>
    <time>2026-06-20T13:47:34Z</time>
   </trkpt>
   <trkpt lat="-3.1382470" lon="37.3026080">
    <ele>2536.5</ele>
    <time>2026-06-20T13:47:35Z</time>
   </trkpt>
   <trkpt lat="-3.1382480" lon="37.3026160">
    <ele>2536.7</ele>
    <time>2026-06-20T13:47:36Z</time>
   </trkpt>
   <trkpt lat="-3.1382500" lon="37.3026180">
    <ele>2536.7</ele>
    <time>2026-06-20T13:47:37Z</time>
   </trkpt>
   <trkpt lat="-3.1382530" lon="37.3026230">
    <ele>2536.8</ele>
    <time>2026-06-20T13:47:38Z</time>
   </trkpt>
   <trkpt lat="-3.1382530" lon="37.3026270">
    <ele>2536.9</ele>
    <time>2026-06-20T13:47:39Z</time>
   </trkpt>
   <trkpt lat="-3.1382560" lon="37.3026320">
    <ele>2537.0</ele>
    <time>2026-06-20T13:47:40Z</time>
   </trkpt>
   <trkpt lat="-3.1382620" lon="37.3026350">
    <ele>2537.2</ele>
    <time>2026-06-20T13:47:41Z</time>
   </trkpt>
   <trkpt lat="-3.1382640" lon="37.3026370">
    <ele>2537.2</ele>
    <time>2026-06-20T13:47:42Z</time>
   </trkpt>
   <trkpt lat="-3.1382680" lon="37.3026410">
    <ele>2537.3</ele>
    <time>2026-06-20T13:47:43Z</time>
   </trkpt>
   <trkpt lat="-3.1382680" lon="37.3026480">
    <ele>2537.5</ele>
    <time>2026-06-20T13:47:44Z</time>
   </trkpt>
   <trkpt lat="-3.1382740" lon="37.3026470">
    <ele>2537.6</ele>
    <time>2026-06-20T13:47:45Z</time>
   </trkpt>
   <trkpt lat="-3.1382790" lon="37.3026510">
    <ele>2537.7</ele>
    <time>2026-06-20T13:47:46Z</time>
   </trkpt>
   <trkpt lat="-3.1382800" lon="37.3026560">
    <ele>2537.8</ele>
    <time>2026-06-20T13:47:47Z</time>
   </trkpt>
   <trkpt lat="-3.1382770" lon="37.3026660">
    <ele>2538.0</ele>
    <time>2026-06-20T13:47:48Z</time>
   </trkpt>
   <trkpt lat="-3.1382710" lon="37.3026750">
    <ele>2538.2</ele>
    <time>2026-06-20T13:47:49Z</time>
   </trkpt>
   <trkpt lat="-3.1382720" lon="37.3026820">
    <ele>2538.4</ele>
    <time>2026-06-20T13:47:50Z</time>
   </trkpt>
   <trkpt lat="-3.1382760" lon="37.3026780">
    <ele>2538.5</ele>
    <time>2026-06-20T13:47:51Z</time>
   </trkpt>
   <trkpt lat="-3.1382800" lon="37.3026740">
    <ele>2538.6</ele>
    <time>2026-06-20T13:47:52Z</time>
   </trkpt>
   <trkpt lat="-3.1382780" lon="37.3026790">
    <ele>2538.7</ele>
    <time>2026-06-20T13:47:53Z</time>
   </trkpt>
   <trkpt lat="-3.1382790" lon="37.3026820">
    <ele>2538.8</ele>
    <time>2026-06-20T13:47:54Z</time>
   </trkpt>
   <trkpt lat="-3.1382830" lon="37.3026780">
    <ele>2538.9</ele>
    <time>2026-06-20T13:47:55Z</time>
   </trkpt>
   <trkpt lat="-3.1382790" lon="37.3026900">
    <ele>2539.2</ele>
    <time>2026-06-20T13:47:56Z</time>
   </trkpt>
   <trkpt lat="-3.1382760" lon="37.3026960">
    <ele>2539.3</ele>
    <time>2026-06-20T13:47:57Z</time>
   </trkpt>
   <trkpt lat="-3.1382820" lon="37.3026980">
    <ele>2539.5</ele>
    <time>2026-06-20T13:47:58Z</time>
   </trkpt>
   <trkpt lat="-3.1382840" lon="37.3027040">
    <ele>2539.6</ele>
    <time>2026-06-20T13:47:59Z</time>
   </trkpt>
   <trkpt lat="-3.1382820" lon="37.3027120">
    <ele>2539.8</ele>
    <time>2026-06-20T13:48:00Z</time>
   </trkpt>
   <trkpt lat="-3.1382780" lon="37.3027240">
    <ele>2540.1</ele>
    <time>2026-06-20T13:48:01Z</time>
   </trkpt>
   <trkpt lat="-3.1382820" lon="37.3027310">
    <ele>2540.2</ele>
    <time>2026-06-20T13:48:02Z</time>
   </trkpt>
   <trkpt lat="-3.1382760" lon="37.3027330">
    <ele>2540.4</ele>
    <time>2026-06-20T13:48:03Z</time>
   </trkpt>
   <trkpt lat="-3.1382740" lon="37.3027350">
    <ele>2540.4</ele>
    <time>2026-06-20T13:48:04Z</time>
   </trkpt>
   <trkpt lat="-3.1382720" lon="37.3027390">
    <ele>2540.5</ele>
    <time>2026-06-20T13:48:05Z</time>
   </trkpt>
   <trkpt lat="-3.1382730" lon="37.3027370">
    <ele>2540.6</ele>
    <time>2026-06-20T13:48:06Z</time>
   </trkpt>
   <trkpt lat="-3.1382690" lon="37.3027380">
    <ele>2540.7</ele>
    <time>2026-06-20T13:48:07Z</time>
   </trkpt>
   <trkpt lat="-3.1382680" lon="37.3027400">
    <ele>2540.7</ele>
    <time>2026-06-20T13:48:08Z</time>
   </trkpt>
   <trkpt lat="-3.1382630" lon="37.3027470">
    <ele>2540.9</ele>
    <time>2026-06-20T13:48:09Z</time>
   </trkpt>
   <trkpt lat="-3.1382580" lon="37.3027520">
    <ele>2541.1</ele>
    <time>2026-06-20T13:48:10Z</time>
   </trkpt>
   <trkpt lat="-3.1382550" lon="37.3027540">
    <ele>2541.1</ele>
    <time>2026-06-20T13:48:11Z</time>
   </trkpt>
   <trkpt lat="-3.1382490" lon="37.3027590">
    <ele>2541.3</ele>
    <time>2026-06-20T13:48:12Z</time>
   </trkpt>
   <trkpt lat="-3.1382460" lon="37.3027610">
    <ele>2541.4</ele>
    <time>2026-06-20T13:48:13Z</time>
   </trkpt>
   <trkpt lat="-3.1382400" lon="37.3027540">
    <ele>2541.6</ele>
    <time>2026-06-20T13:48:14Z</time>
   </trkpt>
   <trkpt lat="-3.1382350" lon="37.3027600">
    <ele>2541.7</ele>
    <time>2026-06-20T13:48:15Z</time>
   </trkpt>
   <trkpt lat="-3.1382320" lon="37.3027640">
    <ele>2541.9</ele>
    <time>2026-06-20T13:48:16Z</time>
   </trkpt>
   <trkpt lat="-3.1382220" lon="37.3027600">
    <ele>2542.1</ele>
    <time>2026-06-20T13:48:17Z</time>
   </trkpt>
   <trkpt lat="-3.1382130" lon="37.3027650">
    <ele>2542.3</ele>
    <time>2026-06-20T13:48:18Z</time>
   </trkpt>
   <trkpt lat="-3.1382090" lon="37.3027670">
    <ele>2542.4</ele>
    <time>2026-06-20T13:48:19Z</time>
   </trkpt>
   <trkpt lat="-3.1382030" lon="37.3027700">
    <ele>2542.5</ele>
    <time>2026-06-20T13:48:20Z</time>
   </trkpt>
   <trkpt lat="-3.1381980" lon="37.3027720">
    <ele>2542.7</ele>
    <time>2026-06-20T13:48:21Z</time>
   </trkpt>
   <trkpt lat="-3.1381920" lon="37.3027760">
    <ele>2542.8</ele>
    <time>2026-06-20T13:48:22Z</time>
   </trkpt>
   <trkpt lat="-3.1381870" lon="37.3027760">
    <ele>2542.9</ele>
    <time>2026-06-20T13:48:23Z</time>
   </trkpt>
   <trkpt lat="-3.1381870" lon="37.3027720">
    <ele>2543.0</ele>
    <time>2026-06-20T13:48:24Z</time>
   </trkpt>
   <trkpt lat="-3.1381860" lon="37.3027700">
    <ele>2543.0</ele>
    <time>2026-06-20T13:48:25Z</time>
   </trkpt>
   <trkpt lat="-3.1381820" lon="37.3027750">
    <ele>2543.2</ele>
    <time>2026-06-20T13:48:26Z</time>
   </trkpt>
   <trkpt lat="-3.1381820" lon="37.3027740">
    <ele>2543.2</ele>
    <time>2026-06-20T13:48:27Z</time>
   </trkpt>
   <trkpt lat="-3.1381820" lon="37.3027740">
    <ele>2543.2</ele>
    <time>2026-06-20T13:48:28Z</time>
   </trkpt>
   <trkpt lat="-3.1381820" lon="37.3027710">
    <ele>2543.2</ele>
    <time>2026-06-20T13:48:29Z</time>
   </trkpt>
   <trkpt lat="-3.1381820" lon="37.3027700">
    <ele>2543.3</ele>
    <time>2026-06-20T13:48:30Z</time>
   </trkpt>
   <trkpt lat="-3.1381820" lon="37.3027700">
    <ele>2543.3</ele>
    <time>2026-06-20T13:48:31Z</time>
   </trkpt>
   <trkpt lat="-3.1381940" lon="37.3027730">
    <ele>2543.5</ele>
    <time>2026-06-20T13:48:32Z</time>
   </trkpt>
   <trkpt lat="-3.1381940" lon="37.3027720">
    <ele>2543.5</ele>
    <time>2026-06-20T13:48:33Z</time>
   </trkpt>
   <trkpt lat="-3.1381940" lon="37.3027720">
    <ele>2543.5</ele>
    <time>2026-06-20T13:48:34Z</time>
   </trkpt>
   <trkpt lat="-3.1381960" lon="37.3027670">
    <ele>2543.6</ele>
    <time>2026-06-20T13:48:36Z</time>
   </trkpt>
   <trkpt lat="-3.1381960" lon="37.3027660">
    <ele>2543.6</ele>
    <time>2026-06-20T13:48:37Z</time>
   </trkpt>
   <trkpt lat="-3.1381960" lon="37.3027640">
    <ele>2543.7</ele>
    <time>2026-06-20T13:48:38Z</time>
   </trkpt>
   <trkpt lat="-3.1381970" lon="37.3027650">
    <ele>2543.7</ele>
    <time>2026-06-20T13:48:39Z</time>
   </trkpt>
   <trkpt lat="-3.1381970" lon="37.3027650">
    <ele>2543.7</ele>
    <time>2026-06-20T13:48:40Z</time>
   </trkpt>
   <trkpt lat="-3.1381960" lon="37.3027690">
    <ele>2543.8</ele>
    <time>2026-06-20T13:48:41Z</time>
   </trkpt>
   <trkpt lat="-3.1381960" lon="37.3027690">
    <ele>2543.8</ele>
    <time>2026-06-20T13:48:42Z</time>
   </trkpt>
   <trkpt lat="-3.1381960" lon="37.3027690">
    <ele>2543.8</ele>
    <time>2026-06-20T13:48:43Z</time>
   </trkpt>
   <trkpt lat="-3.1381960" lon="37.3027690">
    <ele>2543.8</ele>
    <time>2026-06-20T13:48:44Z</time>
   </trkpt>
   <trkpt lat="-3.1381960" lon="37.3027690">
    <ele>2543.8</ele>
    <time>2026-06-20T13:48:45Z</time>
   </trkpt>
   <trkpt lat="-3.1382000" lon="37.3027720">
    <ele>2543.9</ele>
    <time>2026-06-20T13:48:46Z</time>
   </trkpt>
   <trkpt lat="-3.1382000" lon="37.3027720">
    <ele>2543.9</ele>
    <time>2026-06-20T13:48:47Z</time>
   </trkpt>
   <trkpt lat="-3.1382000" lon="37.3027720">
    <ele>2543.9</ele>
    <time>2026-06-20T13:48:48Z</time>
   </trkpt>
   <trkpt lat="-3.1382030" lon="37.3027690">
    <ele>2544.0</ele>
    <time>2026-06-20T13:48:49Z</time>
   </trkpt>
   <trkpt lat="-3.1382030" lon="37.3027690">
    <ele>2544.0</ele>
    <time>2026-06-20T13:48:50Z</time>
   </trkpt>
   <trkpt lat="-3.1382030" lon="37.3027690">
    <ele>2544.0</ele>
    <time>2026-06-20T13:48:51Z</time>
   </trkpt>
   <trkpt lat="-3.1381980" lon="37.3027620">
    <ele>2544.1</ele>
    <time>2026-06-20T13:48:52Z</time>
   </trkpt>
   <trkpt lat="-3.1381970" lon="37.3027630">
    <ele>2544.2</ele>
    <time>2026-06-20T13:48:53Z</time>
   </trkpt>
   <trkpt lat="-3.1381950" lon="37.3027680">
    <ele>2544.2</ele>
    <time>2026-06-20T13:48:54Z</time>
   </trkpt>
   <trkpt lat="-3.1381940" lon="37.3027700">
    <ele>2544.3</ele>
    <time>2026-06-20T13:48:55Z</time>
   </trkpt>
   <trkpt lat="-3.1381940" lon="37.3027710">
    <ele>2544.3</ele>
    <time>2026-06-20T13:48:56Z</time>
   </trkpt>
   <trkpt lat="-3.1381930" lon="37.3027730">
    <ele>2544.3</ele>
    <time>2026-06-20T13:48:57Z</time>
   </trkpt>
   <trkpt lat="-3.1381930" lon="37.3027740">
    <ele>2544.4</ele>
    <time>2026-06-20T13:48:58Z</time>
   </trkpt>
   <trkpt lat="-3.1381930" lon="37.3027730">
    <ele>2544.4</ele>
    <time>2026-06-20T13:48:59Z</time>
   </trkpt>
   <trkpt lat="-3.1381930" lon="37.3027730">
    <ele>2544.4</ele>
    <time>2026-06-20T13:49:00Z</time>
   </trkpt>
   <trkpt lat="-3.1381930" lon="37.3027730">
    <ele>2544.4</ele>
    <time>2026-06-20T13:49:01Z</time>
   </trkpt>
   <trkpt lat="-3.1381930" lon="37.3027730">
    <ele>2544.4</ele>
    <time>2026-06-20T13:49:02Z</time>
   </trkpt>
   <trkpt lat="-3.1381960" lon="37.3027790">
    <ele>2544.5</ele>
    <time>2026-06-20T13:49:03Z</time>
   </trkpt>
   <trkpt lat="-3.1381960" lon="37.3027790">
    <ele>2544.5</ele>
    <time>2026-06-20T13:49:04Z</time>
   </trkpt>
   <trkpt lat="-3.1381960" lon="37.3027790">
    <ele>2544.5</ele>
    <time>2026-06-20T13:49:05Z</time>
   </trkpt>
   <trkpt lat="-3.1381960" lon="37.3027790">
    <ele>2544.5</ele>
    <time>2026-06-20T13:49:06Z</time>
   </trkpt>
   <trkpt lat="-3.1381960" lon="37.3027790">
    <ele>2544.5</ele>
    <time>2026-06-20T13:49:07Z</time>
   </trkpt>
   <trkpt lat="-3.1381960" lon="37.3027790">
    <ele>2544.5</ele>
    <time>2026-06-20T13:49:08Z</time>
   </trkpt>
   <trkpt lat="-3.1381990" lon="37.3027890">
    <ele>2544.7</ele>
    <time>2026-06-20T13:49:09Z</time>
   </trkpt>
   <trkpt lat="-3.1381990" lon="37.3027900">
    <ele>2544.7</ele>
    <time>2026-06-20T13:49:10Z</time>
   </trkpt>
   <trkpt lat="-3.1381990" lon="37.3027880">
    <ele>2544.7</ele>
    <time>2026-06-20T13:49:11Z</time>
   </trkpt>
   <trkpt lat="-3.1382000" lon="37.3027870">
    <ele>2544.8</ele>
    <time>2026-06-20T13:49:12Z</time>
   </trkpt>
   <trkpt lat="-3.1381990" lon="37.3027910">
    <ele>2544.8</ele>
    <time>2026-06-20T13:49:13Z</time>
   </trkpt>
   <trkpt lat="-3.1381990" lon="37.3027910">
    <ele>2544.8</ele>
    <time>2026-06-20T13:49:14Z</time>
   </trkpt>
   <trkpt lat="-3.1381990" lon="37.3027910">
    <ele>2544.8</ele>
    <time>2026-06-20T13:49:15Z</time>
   </trkpt>
   <trkpt lat="-3.1381990" lon="37.3027960">
    <ele>2544.9</ele>
    <time>2026-06-20T13:49:16Z</time>
   </trkpt>
   <trkpt lat="-3.1381990" lon="37.3027950">
    <ele>2544.9</ele>
    <time>2026-06-20T13:49:17Z</time>
   </trkpt>
   <trkpt lat="-3.1381990" lon="37.3027950">
    <ele>2544.9</ele>
    <time>2026-06-20T13:49:18Z</time>
   </trkpt>
   <trkpt lat="-3.1382010" lon="37.3027980">
    <ele>2545.0</ele>
    <time>2026-06-20T13:49:19Z</time>
   </trkpt>
   <trkpt lat="-3.1382030" lon="37.3027980">
    <ele>2545.0</ele>
    <time>2026-06-20T13:49:20Z</time>
   </trkpt>
   <trkpt lat="-3.1382030" lon="37.3028020">
    <ele>2545.1</ele>
    <time>2026-06-20T13:49:21Z</time>
   </trkpt>
   <trkpt lat="-3.1382030" lon="37.3028020">
    <ele>2545.1</ele>
    <time>2026-06-20T13:49:22Z</time>
   </trkpt>
   <trkpt lat="-3.1382020" lon="37.3028020">
    <ele>2545.1</ele>
    <time>2026-06-20T13:49:23Z</time>
   </trkpt>
   <trkpt lat="-3.1382030" lon="37.3028030">
    <ele>2545.1</ele>
    <time>2026-06-20T13:49:24Z</time>
   </trkpt>
   <trkpt lat="-3.1382020" lon="37.3028020">
    <ele>2545.2</ele>
    <time>2026-06-20T13:49:25Z</time>
   </trkpt>
   <trkpt lat="-3.1382020" lon="37.3028030">
    <ele>2545.2</ele>
    <time>2026-06-20T13:49:26Z</time>
   </trkpt>
   <trkpt lat="-3.1382010" lon="37.3028010">
    <ele>2545.2</ele>
    <time>2026-06-20T13:49:27Z</time>
   </trkpt>
   <trkpt lat="-3.1382050" lon="37.3027980">
    <ele>2545.3</ele>
    <time>2026-06-20T13:49:28Z</time>
   </trkpt>
   <trkpt lat="-3.1382080" lon="37.3027950">
    <ele>2545.4</ele>
    <time>2026-06-20T13:49:29Z</time>
   </trkpt>
   <trkpt lat="-3.1382120" lon="37.3027930">
    <ele>2545.5</ele>
    <time>2026-06-20T13:49:30Z</time>
   </trkpt>
   <trkpt lat="-3.1382130" lon="37.3027920">
    <ele>2545.5</ele>
    <time>2026-06-20T13:49:31Z</time>
   </trkpt>
   <trkpt lat="-3.1382140" lon="37.3027910">
    <ele>2545.5</ele>
    <time>2026-06-20T13:49:32Z</time>
   </trkpt>
   <trkpt lat="-3.1382140" lon="37.3027900">
    <ele>2545.5</ele>
    <time>2026-06-20T13:49:33Z</time>
   </trkpt>
   <trkpt lat="-3.1382140" lon="37.3027880">
    <ele>2545.6</ele>
    <time>2026-06-20T13:49:34Z</time>
   </trkpt>
   <trkpt lat="-3.1382130" lon="37.3027880">
    <ele>2545.6</ele>
    <time>2026-06-20T13:49:35Z</time>
   </trkpt>
   <trkpt lat="-3.1382130" lon="37.3027880">
    <ele>2545.6</ele>
    <time>2026-06-20T13:49:36Z</time>
   </trkpt>
   <trkpt lat="-3.1382130" lon="37.3027870">
    <ele>2545.6</ele>
    <time>2026-06-20T13:49:37Z</time>
   </trkpt>
   <trkpt lat="-3.1382140" lon="37.3027840">
    <ele>2545.6</ele>
    <time>2026-06-20T13:49:38Z</time>
   </trkpt>
   <trkpt lat="-3.1382150" lon="37.3027890">
    <ele>2545.7</ele>
    <time>2026-06-20T13:49:39Z</time>
   </trkpt>
   <trkpt lat="-3.1382150" lon="37.3027880">
    <ele>2545.7</ele>
    <time>2026-06-20T13:49:40Z</time>
   </trkpt>
   <trkpt lat="-3.1382130" lon="37.3027810">
    <ele>2545.9</ele>
    <time>2026-06-20T13:49:41Z</time>
   </trkpt>
   <trkpt lat="-3.1382130" lon="37.3027810">
    <ele>2545.9</ele>
    <time>2026-06-20T13:49:42Z</time>
   </trkpt>
   <trkpt lat="-3.1382130" lon="37.3027800">
    <ele>2545.9</ele>
    <time>2026-06-20T13:49:43Z</time>
   </trkpt>
   <trkpt lat="-3.1382120" lon="37.3027810">
    <ele>2545.9</ele>
    <time>2026-06-20T13:49:44Z</time>
   </trkpt>
   <trkpt lat="-3.1382130" lon="37.3027850">
    <ele>2546.0</ele>
    <time>2026-06-20T13:49:45Z</time>
   </trkpt>
   <trkpt lat="-3.1382200" lon="37.3027870">
    <ele>2546.1</ele>
    <time>2026-06-20T13:49:46Z</time>
   </trkpt>
   <trkpt lat="-3.1382150" lon="37.3027870">
    <ele>2546.2</ele>
    <time>2026-06-20T13:49:47Z</time>
   </trkpt>
   <trkpt lat="-3.1382110" lon="37.3027880">
    <ele>2546.2</ele>
    <time>2026-06-20T13:49:48Z</time>
   </trkpt>
   <trkpt lat="-3.1382120" lon="37.3027850">
    <ele>2546.3</ele>
    <time>2026-06-20T13:49:49Z</time>
   </trkpt>
   <trkpt lat="-3.1382100" lon="37.3027830">
    <ele>2546.3</ele>
    <time>2026-06-20T13:49:50Z</time>
   </trkpt>
   <trkpt lat="-3.1382070" lon="37.3027800">
    <ele>2546.4</ele>
    <time>2026-06-20T13:49:51Z</time>
   </trkpt>
   <trkpt lat="-3.1382060" lon="37.3027780">
    <ele>2546.4</ele>
    <time>2026-06-20T13:49:52Z</time>
   </trkpt>
   <trkpt lat="-3.1382010" lon="37.3027840">
    <ele>2546.6</ele>
    <time>2026-06-20T13:49:53Z</time>
   </trkpt>
   <trkpt lat="-3.1382010" lon="37.3027850">
    <ele>2546.6</ele>
    <time>2026-06-20T13:49:54Z</time>
   </trkpt>
   <trkpt lat="-3.1382010" lon="37.3027840">
    <ele>2546.6</ele>
    <time>2026-06-20T13:49:55Z</time>
   </trkpt>
   <trkpt lat="-3.1382020" lon="37.3027860">
    <ele>2546.6</ele>
    <time>2026-06-20T13:49:56Z</time>
   </trkpt>
   <trkpt lat="-3.1382030" lon="37.3027880">
    <ele>2546.7</ele>
    <time>2026-06-20T13:49:57Z</time>
   </trkpt>
   <trkpt lat="-3.1382020" lon="37.3027800">
    <ele>2546.8</ele>
    <time>2026-06-20T13:49:58Z</time>
   </trkpt>
   <trkpt lat="-3.1382020" lon="37.3027800">
    <ele>2546.8</ele>
    <time>2026-06-20T13:49:59Z</time>
   </trkpt>
   <trkpt lat="-3.1382020" lon="37.3027790">
    <ele>2546.8</ele>
    <time>2026-06-20T13:50:00Z</time>
   </trkpt>
   <trkpt lat="-3.1382030" lon="37.3027770">
    <ele>2546.9</ele>
    <time>2026-06-20T13:50:01Z</time>
   </trkpt>
   <trkpt lat="-3.1382010" lon="37.3027770">
    <ele>2546.9</ele>
    <time>2026-06-20T13:50:02Z</time>
   </trkpt>
   <trkpt lat="-3.1382030" lon="37.3027730">
    <ele>2547.0</ele>
    <time>2026-06-20T13:50:03Z</time>
   </trkpt>
   <trkpt lat="-3.1382030" lon="37.3027700">
    <ele>2547.0</ele>
    <time>2026-06-20T13:50:04Z</time>
   </trkpt>
   <trkpt lat="-3.1382030" lon="37.3027700">
    <ele>2547.0</ele>
    <time>2026-06-20T13:50:05Z</time>
   </trkpt>
   <trkpt lat="-3.1382030" lon="37.3027700">
    <ele>2547.0</ele>
    <time>2026-06-20T13:50:06Z</time>
   </trkpt>
   <trkpt lat="-3.1381990" lon="37.3027640">
    <ele>2547.1</ele>
    <time>2026-06-20T13:50:07Z</time>
   </trkpt>
   <trkpt lat="-3.1381940" lon="37.3027710">
    <ele>2547.3</ele>
    <time>2026-06-20T13:50:08Z</time>
   </trkpt>
   <trkpt lat="-3.1381870" lon="37.3027710">
    <ele>2547.4</ele>
    <time>2026-06-20T13:50:09Z</time>
   </trkpt>
   <trkpt lat="-3.1381820" lon="37.3027750">
    <ele>2547.5</ele>
    <time>2026-06-20T13:50:10Z</time>
   </trkpt>
   <trkpt lat="-3.1381750" lon="37.3027790">
    <ele>2547.6</ele>
    <time>2026-06-20T13:50:11Z</time>
   </trkpt>
   <trkpt lat="-3.1381700" lon="37.3027800">
    <ele>2547.7</ele>
    <time>2026-06-20T13:50:12Z</time>
   </trkpt>
   <trkpt lat="-3.1381620" lon="37.3027830">
    <ele>2547.8</ele>
    <time>2026-06-20T13:50:13Z</time>
   </trkpt>
   <trkpt lat="-3.1381560" lon="37.3027820">
    <ele>2547.9</ele>
    <time>2026-06-20T13:50:14Z</time>
   </trkpt>
   <trkpt lat="-3.1381480" lon="37.3027830">
    <ele>2548.1</ele>
    <time>2026-06-20T13:50:15Z</time>
   </trkpt>
   <trkpt lat="-3.1381420" lon="37.3027810">
    <ele>2548.2</ele>
    <time>2026-06-20T13:50:16Z</time>
   </trkpt>
   <trkpt lat="-3.1381370" lon="37.3027790">
    <ele>2548.3</ele>
    <time>2026-06-20T13:50:17Z</time>
   </trkpt>
   <trkpt lat="-3.1381310" lon="37.3027760">
    <ele>2548.4</ele>
    <time>2026-06-20T13:50:18Z</time>
   </trkpt>
   <trkpt lat="-3.1381240" lon="37.3027770">
    <ele>2548.5</ele>
    <time>2026-06-20T13:50:19Z</time>
   </trkpt>
   <trkpt lat="-3.1381200" lon="37.3027770">
    <ele>2548.6</ele>
    <time>2026-06-20T13:50:20Z</time>
   </trkpt>
   <trkpt lat="-3.1381180" lon="37.3027760">
    <ele>2548.6</ele>
    <time>2026-06-20T13:50:21Z</time>
   </trkpt>
   <trkpt lat="-3.1381130" lon="37.3027770">
    <ele>2548.7</ele>
    <time>2026-06-20T13:50:22Z</time>
   </trkpt>
   <trkpt lat="-3.1381060" lon="37.3027800">
    <ele>2548.8</ele>
    <time>2026-06-20T13:50:23Z</time>
   </trkpt>
   <trkpt lat="-3.1381090" lon="37.3027860">
    <ele>2548.9</ele>
    <time>2026-06-20T13:50:24Z</time>
   </trkpt>
   <trkpt lat="-3.1381090" lon="37.3027820">
    <ele>2549.0</ele>
    <time>2026-06-20T13:50:25Z</time>
   </trkpt>
   <trkpt lat="-3.1381060" lon="37.3027830">
    <ele>2549.0</ele>
    <time>2026-06-20T13:50:26Z</time>
   </trkpt>
   <trkpt lat="-3.1381070" lon="37.3027940">
    <ele>2549.2</ele>
    <time>2026-06-20T13:50:27Z</time>
   </trkpt>
   <trkpt lat="-3.1381040" lon="37.3027930">
    <ele>2549.3</ele>
    <time>2026-06-20T13:50:28Z</time>
   </trkpt>
   <trkpt lat="-3.1381040" lon="37.3027960">
    <ele>2549.3</ele>
    <time>2026-06-20T13:50:29Z</time>
   </trkpt>
   <trkpt lat="-3.1380960" lon="37.3028030">
    <ele>2549.5</ele>
    <time>2026-06-20T13:50:30Z</time>
   </trkpt>
   <trkpt lat="-3.1381000" lon="37.3028100">
    <ele>2549.6</ele>
    <time>2026-06-20T13:50:31Z</time>
   </trkpt>
   <trkpt lat="-3.1381010" lon="37.3028180">
    <ele>2549.7</ele>
    <time>2026-06-20T13:50:32Z</time>
   </trkpt>
   <trkpt lat="-3.1380950" lon="37.3028240">
    <ele>2549.9</ele>
    <time>2026-06-20T13:50:33Z</time>
   </trkpt>
   <trkpt lat="-3.1380860" lon="37.3028270">
    <ele>2550.0</ele>
    <time>2026-06-20T13:50:34Z</time>
   </trkpt>
   <trkpt lat="-3.1380810" lon="37.3028340">
    <ele>2550.2</ele>
    <time>2026-06-20T13:50:35Z</time>
   </trkpt>
   <trkpt lat="-3.1380770" lon="37.3028370">
    <ele>2550.2</ele>
    <time>2026-06-20T13:50:36Z</time>
   </trkpt>
   <trkpt lat="-3.1380700" lon="37.3028420">
    <ele>2550.4</ele>
    <time>2026-06-20T13:50:37Z</time>
   </trkpt>
   <trkpt lat="-3.1380660" lon="37.3028450">
    <ele>2550.4</ele>
    <time>2026-06-20T13:50:38Z</time>
   </trkpt>
   <trkpt lat="-3.1380620" lon="37.3028470">
    <ele>2550.5</ele>
    <time>2026-06-20T13:50:39Z</time>
   </trkpt>
   <trkpt lat="-3.1380580" lon="37.3028500">
    <ele>2550.6</ele>
    <time>2026-06-20T13:50:40Z</time>
   </trkpt>
   <trkpt lat="-3.1380550" lon="37.3028580">
    <ele>2550.7</ele>
    <time>2026-06-20T13:50:42Z</time>
   </trkpt>
   <trkpt lat="-3.1380530" lon="37.3028570">
    <ele>2550.8</ele>
    <time>2026-06-20T13:50:43Z</time>
   </trkpt>
   <trkpt lat="-3.1380490" lon="37.3028550">
    <ele>2550.8</ele>
    <time>2026-06-20T13:50:44Z</time>
   </trkpt>
   <trkpt lat="-3.1380440" lon="37.3028530">
    <ele>2550.9</ele>
    <time>2026-06-20T13:50:45Z</time>
   </trkpt>
   <trkpt lat="-3.1380360" lon="37.3028560">
    <ele>2551.0</ele>
    <time>2026-06-20T13:50:46Z</time>
   </trkpt>
   <trkpt lat="-3.1380230" lon="37.3028580">
    <ele>2551.2</ele>
    <time>2026-06-20T13:50:47Z</time>
   </trkpt>
   <trkpt lat="-3.1380100" lon="37.3028560">
    <ele>2551.4</ele>
    <time>2026-06-20T13:50:48Z</time>
   </trkpt>
   <trkpt lat="-3.1380070" lon="37.3028620">
    <ele>2551.5</ele>
    <time>2026-06-20T13:50:49Z</time>
   </trkpt>
   <trkpt lat="-3.1379960" lon="37.3028610">
    <ele>2551.7</ele>
    <time>2026-06-20T13:50:50Z</time>
   </trkpt>
   <trkpt lat="-3.1379900" lon="37.3028550">
    <ele>2551.8</ele>
    <time>2026-06-20T13:50:51Z</time>
   </trkpt>
   <trkpt lat="-3.1379830" lon="37.3028500">
    <ele>2551.9</ele>
    <time>2026-06-20T13:50:52Z</time>
   </trkpt>
   <trkpt lat="-3.1379760" lon="37.3028510">
    <ele>2552.0</ele>
    <time>2026-06-20T13:50:53Z</time>
   </trkpt>
   <trkpt lat="-3.1379720" lon="37.3028460">
    <ele>2552.1</ele>
    <time>2026-06-20T13:50:54Z</time>
   </trkpt>
   <trkpt lat="-3.1379650" lon="37.3028450">
    <ele>2552.2</ele>
    <time>2026-06-20T13:50:55Z</time>
   </trkpt>
   <trkpt lat="-3.1379600" lon="37.3028400">
    <ele>2552.2</ele>
    <time>2026-06-20T13:50:56Z</time>
   </trkpt>
   <trkpt lat="-3.1379510" lon="37.3028420">
    <ele>2552.4</ele>
    <time>2026-06-20T13:50:57Z</time>
   </trkpt>
   <trkpt lat="-3.1379380" lon="37.3028420">
    <ele>2552.5</ele>
    <time>2026-06-20T13:50:58Z</time>
   </trkpt>
   <trkpt lat="-3.1379340" lon="37.3028350">
    <ele>2552.6</ele>
    <time>2026-06-20T13:50:59Z</time>
   </trkpt>
   <trkpt lat="-3.1379330" lon="37.3028270">
    <ele>2552.7</ele>
    <time>2026-06-20T13:51:00Z</time>
   </trkpt>
   <trkpt lat="-3.1379310" lon="37.3028240">
    <ele>2552.8</ele>
    <time>2026-06-20T13:51:01Z</time>
   </trkpt>
   <trkpt lat="-3.1379280" lon="37.3028230">
    <ele>2552.8</ele>
    <time>2026-06-20T13:51:02Z</time>
   </trkpt>
   <trkpt lat="-3.1379240" lon="37.3028290">
    <ele>2552.9</ele>
    <time>2026-06-20T13:51:03Z</time>
   </trkpt>
   <trkpt lat="-3.1379060" lon="37.3028370">
    <ele>2553.1</ele>
    <time>2026-06-20T13:51:04Z</time>
   </trkpt>
   <trkpt lat="-3.1379040" lon="37.3028360">
    <ele>2553.1</ele>
    <time>2026-06-20T13:51:05Z</time>
   </trkpt>
   <trkpt lat="-3.1379010" lon="37.3028330">
    <ele>2553.2</ele>
    <time>2026-06-20T13:51:06Z</time>
   </trkpt>
   <trkpt lat="-3.1378870" lon="37.3028280">
    <ele>2553.4</ele>
    <time>2026-06-20T13:51:07Z</time>
   </trkpt>
   <trkpt lat="-3.1378810" lon="37.3028290">
    <ele>2553.4</ele>
    <time>2026-06-20T13:51:08Z</time>
   </trkpt>
   <trkpt lat="-3.1378810" lon="37.3028290">
    <ele>2553.4</ele>
    <time>2026-06-20T13:51:09Z</time>
   </trkpt>
   <trkpt lat="-3.1378830" lon="37.3028360">
    <ele>2553.5</ele>
    <time>2026-06-20T13:51:10Z</time>
   </trkpt>
   <trkpt lat="-3.1378820" lon="37.3028370">
    <ele>2553.5</ele>
    <time>2026-06-20T13:51:11Z</time>
   </trkpt>
   <trkpt lat="-3.1378780" lon="37.3028410">
    <ele>2553.6</ele>
    <time>2026-06-20T13:51:12Z</time>
   </trkpt>
   <trkpt lat="-3.1378720" lon="37.3028470">
    <ele>2553.7</ele>
    <time>2026-06-20T13:51:13Z</time>
   </trkpt>
   <trkpt lat="-3.1378580" lon="37.3028530">
    <ele>2553.9</ele>
    <time>2026-06-20T13:51:14Z</time>
   </trkpt>
   <trkpt lat="-3.1378500" lon="37.3028650">
    <ele>2554.0</ele>
    <time>2026-06-20T13:51:15Z</time>
   </trkpt>
   <trkpt lat="-3.1378410" lon="37.3028700">
    <ele>2554.2</ele>
    <time>2026-06-20T13:51:16Z</time>
   </trkpt>
   <trkpt lat="-3.1378300" lon="37.3028770">
    <ele>2554.3</ele>
    <time>2026-06-20T13:51:17Z</time>
   </trkpt>
   <trkpt lat="-3.1378230" lon="37.3028780">
    <ele>2554.4</ele>
    <time>2026-06-20T13:51:18Z</time>
   </trkpt>
   <trkpt lat="-3.1378270" lon="37.3028780">
    <ele>2554.4</ele>
    <time>2026-06-20T13:51:19Z</time>
   </trkpt>
   <trkpt lat="-3.1378300" lon="37.3028790">
    <ele>2554.5</ele>
    <time>2026-06-20T13:51:20Z</time>
   </trkpt>
   <trkpt lat="-3.1378310" lon="37.3028830">
    <ele>2554.5</ele>
    <time>2026-06-20T13:51:21Z</time>
   </trkpt>
   <trkpt lat="-3.1378260" lon="37.3028920">
    <ele>2554.6</ele>
    <time>2026-06-20T13:51:22Z</time>
   </trkpt>
   <trkpt lat="-3.1378320" lon="37.3028940">
    <ele>2554.7</ele>
    <time>2026-06-20T13:51:23Z</time>
   </trkpt>
   <trkpt lat="-3.1378390" lon="37.3029040">
    <ele>2554.8</ele>
    <time>2026-06-20T13:51:24Z</time>
   </trkpt>
   <trkpt lat="-3.1378330" lon="37.3029160">
    <ele>2555.0</ele>
    <time>2026-06-20T13:51:25Z</time>
   </trkpt>
   <trkpt lat="-3.1378330" lon="37.3029240">
    <ele>2555.1</ele>
    <time>2026-06-20T13:51:26Z</time>
   </trkpt>
   <trkpt lat="-3.1378320" lon="37.3029300">
    <ele>2555.2</ele>
    <time>2026-06-20T13:51:27Z</time>
   </trkpt>
   <trkpt lat="-3.1378270" lon="37.3029370">
    <ele>2555.3</ele>
    <time>2026-06-20T13:51:28Z</time>
   </trkpt>
   <trkpt lat="-3.1378180" lon="37.3029460">
    <ele>2555.4</ele>
    <time>2026-06-20T13:51:29Z</time>
   </trkpt>
   <trkpt lat="-3.1378080" lon="37.3029510">
    <ele>2555.5</ele>
    <time>2026-06-20T13:51:30Z</time>
   </trkpt>
   <trkpt lat="-3.1378000" lon="37.3029580">
    <ele>2555.6</ele>
    <time>2026-06-20T13:51:31Z</time>
   </trkpt>
   <trkpt lat="-3.1377960" lon="37.3029620">
    <ele>2555.7</ele>
    <time>2026-06-20T13:51:32Z</time>
   </trkpt>
   <trkpt lat="-3.1377880" lon="37.3029760">
    <ele>2555.9</ele>
    <time>2026-06-20T13:51:33Z</time>
   </trkpt>
   <trkpt lat="-3.1377840" lon="37.3029800">
    <ele>2556.0</ele>
    <time>2026-06-20T13:51:34Z</time>
   </trkpt>
   <trkpt lat="-3.1377740" lon="37.3029890">
    <ele>2556.1</ele>
    <time>2026-06-20T13:51:35Z</time>
   </trkpt>
   <trkpt lat="-3.1377730" lon="37.3029950">
    <ele>2556.2</ele>
    <time>2026-06-20T13:51:36Z</time>
   </trkpt>
   <trkpt lat="-3.1377660" lon="37.3030030">
    <ele>2556.3</ele>
    <time>2026-06-20T13:51:37Z</time>
   </trkpt>
   <trkpt lat="-3.1377690" lon="37.3030030">
    <ele>2556.3</ele>
    <time>2026-06-20T13:51:38Z</time>
   </trkpt>
   <trkpt lat="-3.1377700" lon="37.3030040">
    <ele>2556.3</ele>
    <time>2026-06-20T13:51:39Z</time>
   </trkpt>
   <trkpt lat="-3.1377680" lon="37.3030090">
    <ele>2556.4</ele>
    <time>2026-06-20T13:51:40Z</time>
   </trkpt>
   <trkpt lat="-3.1377550" lon="37.3030220">
    <ele>2556.6</ele>
    <time>2026-06-20T13:51:41Z</time>
   </trkpt>
   <trkpt lat="-3.1377540" lon="37.3030250">
    <ele>2556.7</ele>
    <time>2026-06-20T13:51:42Z</time>
   </trkpt>
   <trkpt lat="-3.1377550" lon="37.3030230">
    <ele>2556.7</ele>
    <time>2026-06-20T13:51:43Z</time>
   </trkpt>
   <trkpt lat="-3.1377560" lon="37.3030250">
    <ele>2556.7</ele>
    <time>2026-06-20T13:51:44Z</time>
   </trkpt>
   <trkpt lat="-3.1377520" lon="37.3030260">
    <ele>2556.8</ele>
    <time>2026-06-20T13:51:45Z</time>
   </trkpt>
   <trkpt lat="-3.1377480" lon="37.3030290">
    <ele>2556.8</ele>
    <time>2026-06-20T13:51:46Z</time>
   </trkpt>
   <trkpt lat="-3.1377430" lon="37.3030340">
    <ele>2556.9</ele>
    <time>2026-06-20T13:51:47Z</time>
   </trkpt>
   <trkpt lat="-3.1377390" lon="37.3030400">
    <ele>2557.0</ele>
    <time>2026-06-20T13:51:48Z</time>
   </trkpt>
   <trkpt lat="-3.1377270" lon="37.3030450">
    <ele>2557.1</ele>
    <time>2026-06-20T13:51:49Z</time>
   </trkpt>
   <trkpt lat="-3.1377250" lon="37.3030420">
    <ele>2557.2</ele>
    <time>2026-06-20T13:51:50Z</time>
   </trkpt>
   <trkpt lat="-3.1377240" lon="37.3030410">
    <ele>2557.2</ele>
    <time>2026-06-20T13:51:51Z</time>
   </trkpt>
   <trkpt lat="-3.1377200" lon="37.3030410">
    <ele>2557.2</ele>
    <time>2026-06-20T13:51:52Z</time>
   </trkpt>
   <trkpt lat="-3.1377190" lon="37.3030430">
    <ele>2557.2</ele>
    <time>2026-06-20T13:51:53Z</time>
   </trkpt>
   <trkpt lat="-3.1377260" lon="37.3030350">
    <ele>2557.4</ele>
    <time>2026-06-20T13:51:54Z</time>
   </trkpt>
   <trkpt lat="-3.1377180" lon="37.3030420">
    <ele>2557.5</ele>
    <time>2026-06-20T13:51:55Z</time>
   </trkpt>
   <trkpt lat="-3.1377130" lon="37.3030460">
    <ele>2557.6</ele>
    <time>2026-06-20T13:51:56Z</time>
   </trkpt>
   <trkpt lat="-3.1377010" lon="37.3030580">
    <ele>2557.7</ele>
    <time>2026-06-20T13:51:57Z</time>
   </trkpt>
   <trkpt lat="-3.1377000" lon="37.3030680">
    <ele>2557.9</ele>
    <time>2026-06-20T13:51:58Z</time>
   </trkpt>
   <trkpt lat="-3.1376980" lon="37.3030760">
    <ele>2557.9</ele>
    <time>2026-06-20T13:51:59Z</time>
   </trkpt>
   <trkpt lat="-3.1376870" lon="37.3030830">
    <ele>2558.1</ele>
    <time>2026-06-20T13:52:00Z</time>
   </trkpt>
   <trkpt lat="-3.1376800" lon="37.3030880">
    <ele>2558.2</ele>
    <time>2026-06-20T13:52:01Z</time>
   </trkpt>
   <trkpt lat="-3.1376710" lon="37.3030960">
    <ele>2558.3</ele>
    <time>2026-06-20T13:52:02Z</time>
   </trkpt>
   <trkpt lat="-3.1376650" lon="37.3030890">
    <ele>2558.4</ele>
    <time>2026-06-20T13:52:03Z</time>
   </trkpt>
   <trkpt lat="-3.1376570" lon="37.3030960">
    <ele>2558.5</ele>
    <time>2026-06-20T13:52:04Z</time>
   </trkpt>
   <trkpt lat="-3.1376510" lon="37.3031090">
    <ele>2558.7</ele>
    <time>2026-06-20T13:52:05Z</time>
   </trkpt>
   <trkpt lat="-3.1376480" lon="37.3031200">
    <ele>2558.8</ele>
    <time>2026-06-20T13:52:06Z</time>
   </trkpt>
   <trkpt lat="-3.1376410" lon="37.3031320">
    <ele>2559.0</ele>
    <time>2026-06-20T13:52:07Z</time>
   </trkpt>
   <trkpt lat="-3.1376350" lon="37.3031480">
    <ele>2559.2</ele>
    <time>2026-06-20T13:52:08Z</time>
   </trkpt>
   <trkpt lat="-3.1376320" lon="37.3031590">
    <ele>2559.3</ele>
    <time>2026-06-20T13:52:09Z</time>
   </trkpt>
   <trkpt lat="-3.1376340" lon="37.3031730">
    <ele>2559.5</ele>
    <time>2026-06-20T13:52:10Z</time>
   </trkpt>
   <trkpt lat="-3.1376400" lon="37.3031840">
    <ele>2559.6</ele>
    <time>2026-06-20T13:52:11Z</time>
   </trkpt>
   <trkpt lat="-3.1376330" lon="37.3031990">
    <ele>2559.8</ele>
    <time>2026-06-20T13:52:12Z</time>
   </trkpt>
   <trkpt lat="-3.1376260" lon="37.3032130">
    <ele>2559.9</ele>
    <time>2026-06-20T13:52:13Z</time>
   </trkpt>
   <trkpt lat="-3.1376200" lon="37.3032190">
    <ele>2560.0</ele>
    <time>2026-06-20T13:52:14Z</time>
   </trkpt>
   <trkpt lat="-3.1376150" lon="37.3032240">
    <ele>2560.1</ele>
    <time>2026-06-20T13:52:15Z</time>
   </trkpt>
   <trkpt lat="-3.1376150" lon="37.3032270">
    <ele>2560.2</ele>
    <time>2026-06-20T13:52:16Z</time>
   </trkpt>
   <trkpt lat="-3.1376080" lon="37.3032350">
    <ele>2560.3</ele>
    <time>2026-06-20T13:52:17Z</time>
   </trkpt>
   <trkpt lat="-3.1376020" lon="37.3032400">
    <ele>2560.4</ele>
    <time>2026-06-20T13:52:18Z</time>
   </trkpt>
   <trkpt lat="-3.1375910" lon="37.3032510">
    <ele>2560.5</ele>
    <time>2026-06-20T13:52:19Z</time>
   </trkpt>
   <trkpt lat="-3.1375860" lon="37.3032540">
    <ele>2560.6</ele>
    <time>2026-06-20T13:52:20Z</time>
   </trkpt>
   <trkpt lat="-3.1375790" lon="37.3032670">
    <ele>2560.8</ele>
    <time>2026-06-20T13:52:21Z</time>
   </trkpt>
   <trkpt lat="-3.1375730" lon="37.3032770">
    <ele>2560.9</ele>
    <time>2026-06-20T13:52:22Z</time>
   </trkpt>
   <trkpt lat="-3.1375700" lon="37.3032860">
    <ele>2561.0</ele>
    <time>2026-06-20T13:52:23Z</time>
   </trkpt>
   <trkpt lat="-3.1375720" lon="37.3032900">
    <ele>2561.0</ele>
    <time>2026-06-20T13:52:24Z</time>
   </trkpt>
   <trkpt lat="-3.1375710" lon="37.3032980">
    <ele>2561.1</ele>
    <time>2026-06-20T13:52:25Z</time>
   </trkpt>
   <trkpt lat="-3.1375680" lon="37.3033030">
    <ele>2561.2</ele>
    <time>2026-06-20T13:52:26Z</time>
   </trkpt>
   <trkpt lat="-3.1375680" lon="37.3033070">
    <ele>2561.2</ele>
    <time>2026-06-20T13:52:27Z</time>
   </trkpt>
   <trkpt lat="-3.1375610" lon="37.3033130">
    <ele>2561.3</ele>
    <time>2026-06-20T13:52:28Z</time>
   </trkpt>
   <trkpt lat="-3.1375590" lon="37.3033170">
    <ele>2561.4</ele>
    <time>2026-06-20T13:52:29Z</time>
   </trkpt>
   <trkpt lat="-3.1375550" lon="37.3033230">
    <ele>2561.5</ele>
    <time>2026-06-20T13:52:30Z</time>
   </trkpt>
   <trkpt lat="-3.1375530" lon="37.3033270">
    <ele>2561.5</ele>
    <time>2026-06-20T13:52:31Z</time>
   </trkpt>
   <trkpt lat="-3.1375470" lon="37.3033340">
    <ele>2561.6</ele>
    <time>2026-06-20T13:52:32Z</time>
   </trkpt>
   <trkpt lat="-3.1375450" lon="37.3033340">
    <ele>2561.7</ele>
    <time>2026-06-20T13:52:33Z</time>
   </trkpt>
   <trkpt lat="-3.1375370" lon="37.3033350">
    <ele>2561.7</ele>
    <time>2026-06-20T13:52:34Z</time>
   </trkpt>
   <trkpt lat="-3.1375380" lon="37.3033490">
    <ele>2561.9</ele>
    <time>2026-06-20T13:52:35Z</time>
   </trkpt>
   <trkpt lat="-3.1375370" lon="37.3033550">
    <ele>2562.0</ele>
    <time>2026-06-20T13:52:36Z</time>
   </trkpt>
   <trkpt lat="-3.1375380" lon="37.3033580">
    <ele>2562.0</ele>
    <time>2026-06-20T13:52:37Z</time>
   </trkpt>
   <trkpt lat="-3.1375430" lon="37.3033460">
    <ele>2562.2</ele>
    <time>2026-06-20T13:52:38Z</time>
   </trkpt>
   <trkpt lat="-3.1375420" lon="37.3033450">
    <ele>2562.2</ele>
    <time>2026-06-20T13:52:39Z</time>
   </trkpt>
   <trkpt lat="-3.1375290" lon="37.3033460">
    <ele>2562.3</ele>
    <time>2026-06-20T13:52:40Z</time>
   </trkpt>
   <trkpt lat="-3.1375190" lon="37.3033480">
    <ele>2562.5</ele>
    <time>2026-06-20T13:52:41Z</time>
   </trkpt>
   <trkpt lat="-3.1375120" lon="37.3033500">
    <ele>2562.6</ele>
    <time>2026-06-20T13:52:42Z</time>
   </trkpt>
   <trkpt lat="-3.1375050" lon="37.3033550">
    <ele>2562.7</ele>
    <time>2026-06-20T13:52:43Z</time>
   </trkpt>
   <trkpt lat="-3.1374890" lon="37.3033610">
    <ele>2562.9</ele>
    <time>2026-06-20T13:52:44Z</time>
   </trkpt>
   <trkpt lat="-3.1374790" lon="37.3033690">
    <ele>2563.0</ele>
    <time>2026-06-20T13:52:45Z</time>
   </trkpt>
   <trkpt lat="-3.1374760" lon="37.3033620">
    <ele>2563.1</ele>
    <time>2026-06-20T13:52:46Z</time>
   </trkpt>
   <trkpt lat="-3.1374670" lon="37.3033600">
    <ele>2563.3</ele>
    <time>2026-06-20T13:52:48Z</time>
   </trkpt>
   <trkpt lat="-3.1374560" lon="37.3033620">
    <ele>2563.4</ele>
    <time>2026-06-20T13:52:49Z</time>
   </trkpt>
   <trkpt lat="-3.1374530" lon="37.3033640">
    <ele>2563.5</ele>
    <time>2026-06-20T13:52:50Z</time>
   </trkpt>
   <trkpt lat="-3.1374500" lon="37.3033640">
    <ele>2563.5</ele>
    <time>2026-06-20T13:52:51Z</time>
   </trkpt>
   <trkpt lat="-3.1374480" lon="37.3033650">
    <ele>2563.5</ele>
    <time>2026-06-20T13:52:52Z</time>
   </trkpt>
   <trkpt lat="-3.1374490" lon="37.3033650">
    <ele>2563.6</ele>
    <time>2026-06-20T13:52:53Z</time>
   </trkpt>
   <trkpt lat="-3.1374490" lon="37.3033650">
    <ele>2563.6</ele>
    <time>2026-06-20T13:52:54Z</time>
   </trkpt>
   <trkpt lat="-3.1374400" lon="37.3033670">
    <ele>2563.7</ele>
    <time>2026-06-20T13:52:55Z</time>
   </trkpt>
   <trkpt lat="-3.1374340" lon="37.3033680">
    <ele>2563.8</ele>
    <time>2026-06-20T13:52:56Z</time>
   </trkpt>
   <trkpt lat="-3.1374330" lon="37.3033690">
    <ele>2563.8</ele>
    <time>2026-06-20T13:52:57Z</time>
   </trkpt>
   <trkpt lat="-3.1374340" lon="37.3033740">
    <ele>2563.8</ele>
    <time>2026-06-20T13:52:58Z</time>
   </trkpt>
   <trkpt lat="-3.1374360" lon="37.3033750">
    <ele>2563.9</ele>
    <time>2026-06-20T13:52:59Z</time>
   </trkpt>
   <trkpt lat="-3.1374360" lon="37.3033800">
    <ele>2564.0</ele>
    <time>2026-06-20T13:53:00Z</time>
   </trkpt>
   <trkpt lat="-3.1374390" lon="37.3033820">
    <ele>2564.0</ele>
    <time>2026-06-20T13:53:01Z</time>
   </trkpt>
   <trkpt lat="-3.1374400" lon="37.3033850">
    <ele>2564.1</ele>
    <time>2026-06-20T13:53:02Z</time>
   </trkpt>
   <trkpt lat="-3.1374440" lon="37.3033880">
    <ele>2564.1</ele>
    <time>2026-06-20T13:53:03Z</time>
   </trkpt>
   <trkpt lat="-3.1374470" lon="37.3033910">
    <ele>2564.2</ele>
    <time>2026-06-20T13:53:04Z</time>
   </trkpt>
   <trkpt lat="-3.1374510" lon="37.3033960">
    <ele>2564.3</ele>
    <time>2026-06-20T13:53:05Z</time>
   </trkpt>
   <trkpt lat="-3.1374450" lon="37.3034060">
    <ele>2564.5</ele>
    <time>2026-06-20T13:53:06Z</time>
   </trkpt>
   <trkpt lat="-3.1374430" lon="37.3034150">
    <ele>2564.6</ele>
    <time>2026-06-20T13:53:07Z</time>
   </trkpt>
   <trkpt lat="-3.1374430" lon="37.3034190">
    <ele>2564.7</ele>
    <time>2026-06-20T13:53:08Z</time>
   </trkpt>
   <trkpt lat="-3.1374370" lon="37.3034240">
    <ele>2564.8</ele>
    <time>2026-06-20T13:53:09Z</time>
   </trkpt>
   <trkpt lat="-3.1374340" lon="37.3034250">
    <ele>2564.8</ele>
    <time>2026-06-20T13:53:10Z</time>
   </trkpt>
   <trkpt lat="-3.1374270" lon="37.3034280">
    <ele>2564.9</ele>
    <time>2026-06-20T13:53:11Z</time>
   </trkpt>
   <trkpt lat="-3.1374230" lon="37.3034270">
    <ele>2565.0</ele>
    <time>2026-06-20T13:53:12Z</time>
   </trkpt>
   <trkpt lat="-3.1374200" lon="37.3034260">
    <ele>2565.1</ele>
    <time>2026-06-20T13:53:13Z</time>
   </trkpt>
   <trkpt lat="-3.1374100" lon="37.3034310">
    <ele>2565.2</ele>
    <time>2026-06-20T13:53:14Z</time>
   </trkpt>
   <trkpt lat="-3.1374120" lon="37.3034290">
    <ele>2565.3</ele>
    <time>2026-06-20T13:53:15Z</time>
   </trkpt>
   <trkpt lat="-3.1374120" lon="37.3034290">
    <ele>2565.3</ele>
    <time>2026-06-20T13:53:16Z</time>
   </trkpt>
   <trkpt lat="-3.1374150" lon="37.3034310">
    <ele>2565.3</ele>
    <time>2026-06-20T13:53:17Z</time>
   </trkpt>
   <trkpt lat="-3.1374140" lon="37.3034370">
    <ele>2565.4</ele>
    <time>2026-06-20T13:53:18Z</time>
   </trkpt>
   <trkpt lat="-3.1374180" lon="37.3034380">
    <ele>2565.5</ele>
    <time>2026-06-20T13:53:19Z</time>
   </trkpt>
   <trkpt lat="-3.1374180" lon="37.3034390">
    <ele>2565.5</ele>
    <time>2026-06-20T13:53:20Z</time>
   </trkpt>
   <trkpt lat="-3.1374200" lon="37.3034440">
    <ele>2565.6</ele>
    <time>2026-06-20T13:53:21Z</time>
   </trkpt>
   <trkpt lat="-3.1374220" lon="37.3034470">
    <ele>2565.7</ele>
    <time>2026-06-20T13:53:22Z</time>
   </trkpt>
   <trkpt lat="-3.1374250" lon="37.3034450">
    <ele>2565.7</ele>
    <time>2026-06-20T13:53:23Z</time>
   </trkpt>
   <trkpt lat="-3.1374150" lon="37.3034490">
    <ele>2565.9</ele>
    <time>2026-06-20T13:53:24Z</time>
   </trkpt>
   <trkpt lat="-3.1374140" lon="37.3034430">
    <ele>2566.0</ele>
    <time>2026-06-20T13:53:25Z</time>
   </trkpt>
   <trkpt lat="-3.1373930" lon="37.3034580">
    <ele>2566.5</ele>
    <time>2026-06-20T13:53:26Z</time>
   </trkpt>
   <trkpt lat="-3.1373910" lon="37.3034520">
    <ele>2566.6</ele>
    <time>2026-06-20T13:53:27Z</time>
   </trkpt>
   <trkpt lat="-3.1373940" lon="37.3034450">
    <ele>2566.7</ele>
    <time>2026-06-20T13:53:28Z</time>
   </trkpt>
   <trkpt lat="-3.1373950" lon="37.3034450">
    <ele>2566.7</ele>
    <time>2026-06-20T13:53:29Z</time>
   </trkpt>
   <trkpt lat="-3.1373950" lon="37.3034430">
    <ele>2566.8</ele>
    <time>2026-06-20T13:53:30Z</time>
   </trkpt>
   <trkpt lat="-3.1373910" lon="37.3034450">
    <ele>2566.8</ele>
    <time>2026-06-20T13:53:31Z</time>
   </trkpt>
   <trkpt lat="-3.1373950" lon="37.3034460">
    <ele>2566.9</ele>
    <time>2026-06-20T13:53:32Z</time>
   </trkpt>
   <trkpt lat="-3.1373940" lon="37.3034460">
    <ele>2566.9</ele>
    <time>2026-06-20T13:53:33Z</time>
   </trkpt>
   <trkpt lat="-3.1373990" lon="37.3034590">
    <ele>2567.2</ele>
    <time>2026-06-20T13:53:34Z</time>
   </trkpt>
   <trkpt lat="-3.1373780" lon="37.3034750">
    <ele>2567.7</ele>
    <time>2026-06-20T13:53:35Z</time>
   </trkpt>
   <trkpt lat="-3.1373880" lon="37.3034710">
    <ele>2567.9</ele>
    <time>2026-06-20T13:53:36Z</time>
   </trkpt>
   <trkpt lat="-3.1373930" lon="37.3034750">
    <ele>2568.0</ele>
    <time>2026-06-20T13:53:37Z</time>
   </trkpt>
   <trkpt lat="-3.1373930" lon="37.3034710">
    <ele>2568.1</ele>
    <time>2026-06-20T13:53:38Z</time>
   </trkpt>
   <trkpt lat="-3.1373940" lon="37.3034720">
    <ele>2568.1</ele>
    <time>2026-06-20T13:53:39Z</time>
   </trkpt>
   <trkpt lat="-3.1374000" lon="37.3034730">
    <ele>2568.2</ele>
    <time>2026-06-20T13:53:40Z</time>
   </trkpt>
   <trkpt lat="-3.1373980" lon="37.3034750">
    <ele>2568.3</ele>
    <time>2026-06-20T13:53:41Z</time>
   </trkpt>
   <trkpt lat="-3.1373980" lon="37.3034700">
    <ele>2568.4</ele>
    <time>2026-06-20T13:53:42Z</time>
   </trkpt>
   <trkpt lat="-3.1373920" lon="37.3034730">
    <ele>2568.5</ele>
    <time>2026-06-20T13:53:43Z</time>
   </trkpt>
   <trkpt lat="-3.1373930" lon="37.3034740">
    <ele>2568.5</ele>
    <time>2026-06-20T13:53:44Z</time>
   </trkpt>
   <trkpt lat="-3.1373860" lon="37.3034790">
    <ele>2568.7</ele>
    <time>2026-06-20T13:53:45Z</time>
   </trkpt>
   <trkpt lat="-3.1373840" lon="37.3034820">
    <ele>2568.8</ele>
    <time>2026-06-20T13:53:46Z</time>
   </trkpt>
   <trkpt lat="-3.1373840" lon="37.3034940">
    <ele>2569.0</ele>
    <time>2026-06-20T13:53:47Z</time>
   </trkpt>
   <trkpt lat="-3.1373830" lon="37.3035050">
    <ele>2569.2</ele>
    <time>2026-06-20T13:53:48Z</time>
   </trkpt>
   <trkpt lat="-3.1373830" lon="37.3035210">
    <ele>2569.5</ele>
    <time>2026-06-20T13:53:49Z</time>
   </trkpt>
   <trkpt lat="-3.1373810" lon="37.3035250">
    <ele>2569.6</ele>
    <time>2026-06-20T13:53:50Z</time>
   </trkpt>
   <trkpt lat="-3.1373770" lon="37.3035350">
    <ele>2569.9</ele>
    <time>2026-06-20T13:53:51Z</time>
   </trkpt>
   <trkpt lat="-3.1373720" lon="37.3035430">
    <ele>2570.0</ele>
    <time>2026-06-20T13:53:52Z</time>
   </trkpt>
   <trkpt lat="-3.1373680" lon="37.3035540">
    <ele>2570.3</ele>
    <time>2026-06-20T13:53:53Z</time>
   </trkpt>
   <trkpt lat="-3.1373620" lon="37.3035590">
    <ele>2570.5</ele>
    <time>2026-06-20T13:53:54Z</time>
   </trkpt>
   <trkpt lat="-3.1373530" lon="37.3035650">
    <ele>2570.7</ele>
    <time>2026-06-20T13:53:55Z</time>
   </trkpt>
   <trkpt lat="-3.1373440" lon="37.3035710">
    <ele>2570.9</ele>
    <time>2026-06-20T13:53:56Z</time>
   </trkpt>
   <trkpt lat="-3.1373350" lon="37.3035770">
    <ele>2571.1</ele>
    <time>2026-06-20T13:53:57Z</time>
   </trkpt>
   <trkpt lat="-3.1373270" lon="37.3035790">
    <ele>2571.3</ele>
    <time>2026-06-20T13:53:58Z</time>
   </trkpt>
   <trkpt lat="-3.1373260" lon="37.3035770">
    <ele>2571.4</ele>
    <time>2026-06-20T13:53:59Z</time>
   </trkpt>
   <trkpt lat="-3.1373220" lon="37.3035770">
    <ele>2571.4</ele>
    <time>2026-06-20T13:54:00Z</time>
   </trkpt>
   <trkpt lat="-3.1373180" lon="37.3035730">
    <ele>2571.6</ele>
    <time>2026-06-20T13:54:01Z</time>
   </trkpt>
   <trkpt lat="-3.1373110" lon="37.3035700">
    <ele>2571.8</ele>
    <time>2026-06-20T13:54:02Z</time>
   </trkpt>
   <trkpt lat="-3.1373060" lon="37.3035650">
    <ele>2571.9</ele>
    <time>2026-06-20T13:54:03Z</time>
   </trkpt>
   <trkpt lat="-3.1372980" lon="37.3035590">
    <ele>2572.1</ele>
    <time>2026-06-20T13:54:04Z</time>
   </trkpt>
   <trkpt lat="-3.1372960" lon="37.3035510">
    <ele>2572.3</ele>
    <time>2026-06-20T13:54:05Z</time>
   </trkpt>
   <trkpt lat="-3.1373000" lon="37.3035450">
    <ele>2572.5</ele>
    <time>2026-06-20T13:54:06Z</time>
   </trkpt>
   <trkpt lat="-3.1373020" lon="37.3035410">
    <ele>2572.6</ele>
    <time>2026-06-20T13:54:07Z</time>
   </trkpt>
   <trkpt lat="-3.1372970" lon="37.3035390">
    <ele>2572.7</ele>
    <time>2026-06-20T13:54:08Z</time>
   </trkpt>
   <trkpt lat="-3.1372930" lon="37.3035350">
    <ele>2572.9</ele>
    <time>2026-06-20T13:54:09Z</time>
   </trkpt>
   <trkpt lat="-3.1372790" lon="37.3035370">
    <ele>2573.2</ele>
    <time>2026-06-20T13:54:10Z</time>
   </trkpt>
   <trkpt lat="-3.1372690" lon="37.3035370">
    <ele>2573.4</ele>
    <time>2026-06-20T13:54:11Z</time>
   </trkpt>
   <trkpt lat="-3.1372640" lon="37.3035320">
    <ele>2573.6</ele>
    <time>2026-06-20T13:54:12Z</time>
   </trkpt>
   <trkpt lat="-3.1372600" lon="37.3035340">
    <ele>2573.7</ele>
    <time>2026-06-20T13:54:13Z</time>
   </trkpt>
   <trkpt lat="-3.1372590" lon="37.3035280">
    <ele>2573.9</ele>
    <time>2026-06-20T13:54:14Z</time>
   </trkpt>
   <trkpt lat="-3.1372590" lon="37.3035280">
    <ele>2573.9</ele>
    <time>2026-06-20T13:54:15Z</time>
   </trkpt>
   <trkpt lat="-3.1372570" lon="37.3035290">
    <ele>2573.9</ele>
    <time>2026-06-20T13:54:16Z</time>
   </trkpt>
   <trkpt lat="-3.1372470" lon="37.3035380">
    <ele>2574.2</ele>
    <time>2026-06-20T13:54:17Z</time>
   </trkpt>
   <trkpt lat="-3.1372450" lon="37.3035410">
    <ele>2574.3</ele>
    <time>2026-06-20T13:54:18Z</time>
   </trkpt>
   <trkpt lat="-3.1372440" lon="37.3035370">
    <ele>2574.4</ele>
    <time>2026-06-20T13:54:19Z</time>
   </trkpt>
   <trkpt lat="-3.1372460" lon="37.3035310">
    <ele>2574.6</ele>
    <time>2026-06-20T13:54:20Z</time>
   </trkpt>
   <trkpt lat="-3.1372430" lon="37.3035340">
    <ele>2574.7</ele>
    <time>2026-06-20T13:54:21Z</time>
   </trkpt>
   <trkpt lat="-3.1372410" lon="37.3035280">
    <ele>2574.8</ele>
    <time>2026-06-20T13:54:22Z</time>
   </trkpt>
   <trkpt lat="-3.1372370" lon="37.3035220">
    <ele>2575.0</ele>
    <time>2026-06-20T13:54:23Z</time>
   </trkpt>
   <trkpt lat="-3.1372310" lon="37.3035230">
    <ele>2575.2</ele>
    <time>2026-06-20T13:54:24Z</time>
   </trkpt>
   <trkpt lat="-3.1372210" lon="37.3035180">
    <ele>2575.4</ele>
    <time>2026-06-20T13:54:25Z</time>
   </trkpt>
   <trkpt lat="-3.1372210" lon="37.3035190">
    <ele>2575.5</ele>
    <time>2026-06-20T13:54:26Z</time>
   </trkpt>
   <trkpt lat="-3.1372180" lon="37.3035170">
    <ele>2575.6</ele>
    <time>2026-06-20T13:54:27Z</time>
   </trkpt>
   <trkpt lat="-3.1372120" lon="37.3035180">
    <ele>2575.7</ele>
    <time>2026-06-20T13:54:28Z</time>
   </trkpt>
   <trkpt lat="-3.1372160" lon="37.3035150">
    <ele>2575.8</ele>
    <time>2026-06-20T13:54:29Z</time>
   </trkpt>
   <trkpt lat="-3.1372110" lon="37.3035120">
    <ele>2576.0</ele>
    <time>2026-06-20T13:54:30Z</time>
   </trkpt>
   <trkpt lat="-3.1372130" lon="37.3035090">
    <ele>2576.1</ele>
    <time>2026-06-20T13:54:31Z</time>
   </trkpt>
   <trkpt lat="-3.1372140" lon="37.3035010">
    <ele>2576.3</ele>
    <time>2026-06-20T13:54:32Z</time>
   </trkpt>
   <trkpt lat="-3.1372170" lon="37.3035060">
    <ele>2576.4</ele>
    <time>2026-06-20T13:54:33Z</time>
   </trkpt>
   <trkpt lat="-3.1372120" lon="37.3035080">
    <ele>2576.5</ele>
    <time>2026-06-20T13:54:34Z</time>
   </trkpt>
   <trkpt lat="-3.1372080" lon="37.3035050">
    <ele>2576.7</ele>
    <time>2026-06-20T13:54:35Z</time>
   </trkpt>
   <trkpt lat="-3.1372040" lon="37.3035080">
    <ele>2576.8</ele>
    <time>2026-06-20T13:54:36Z</time>
   </trkpt>
   <trkpt lat="-3.1371960" lon="37.3035180">
    <ele>2577.1</ele>
    <time>2026-06-20T13:54:37Z</time>
   </trkpt>
   <trkpt lat="-3.1371990" lon="37.3035190">
    <ele>2577.2</ele>
    <time>2026-06-20T13:54:38Z</time>
   </trkpt>
   <trkpt lat="-3.1371930" lon="37.3035200">
    <ele>2577.3</ele>
    <time>2026-06-20T13:54:39Z</time>
   </trkpt>
   <trkpt lat="-3.1371870" lon="37.3035210">
    <ele>2577.5</ele>
    <time>2026-06-20T13:54:40Z</time>
   </trkpt>
   <trkpt lat="-3.1371790" lon="37.3035250">
    <ele>2577.7</ele>
    <time>2026-06-20T13:54:41Z</time>
   </trkpt>
   <trkpt lat="-3.1371760" lon="37.3035280">
    <ele>2577.8</ele>
    <time>2026-06-20T13:54:42Z</time>
   </trkpt>
   <trkpt lat="-3.1371690" lon="37.3035270">
    <ele>2578.0</ele>
    <time>2026-06-20T13:54:43Z</time>
   </trkpt>
   <trkpt lat="-3.1371640" lon="37.3035310">
    <ele>2578.2</ele>
    <time>2026-06-20T13:54:44Z</time>
   </trkpt>
   <trkpt lat="-3.1371530" lon="37.3035390">
    <ele>2578.5</ele>
    <time>2026-06-20T13:54:45Z</time>
   </trkpt>
   <trkpt lat="-3.1371510" lon="37.3035410">
    <ele>2578.5</ele>
    <time>2026-06-20T13:54:46Z</time>
   </trkpt>
   <trkpt lat="-3.1371470" lon="37.3035430">
    <ele>2578.7</ele>
    <time>2026-06-20T13:54:47Z</time>
   </trkpt>
   <trkpt lat="-3.1371470" lon="37.3035480">
    <ele>2578.8</ele>
    <time>2026-06-20T13:54:48Z</time>
   </trkpt>
   <trkpt lat="-3.1371500" lon="37.3035530">
    <ele>2578.9</ele>
    <time>2026-06-20T13:54:49Z</time>
   </trkpt>
   <trkpt lat="-3.1371500" lon="37.3035550">
    <ele>2579.0</ele>
    <time>2026-06-20T13:54:50Z</time>
   </trkpt>
   <trkpt lat="-3.1371430" lon="37.3035570">
    <ele>2579.1</ele>
    <time>2026-06-20T13:54:51Z</time>
   </trkpt>
   <trkpt lat="-3.1371430" lon="37.3035550">
    <ele>2579.2</ele>
    <time>2026-06-20T13:54:52Z</time>
   </trkpt>
   <trkpt lat="-3.1371420" lon="37.3035590">
    <ele>2579.3</ele>
    <time>2026-06-20T13:54:54Z</time>
   </trkpt>
   <trkpt lat="-3.1371400" lon="37.3035670">
    <ele>2579.5</ele>
    <time>2026-06-20T13:54:55Z</time>
   </trkpt>
   <trkpt lat="-3.1371410" lon="37.3035660">
    <ele>2579.5</ele>
    <time>2026-06-20T13:54:56Z</time>
   </trkpt>
   <trkpt lat="-3.1371390" lon="37.3035630">
    <ele>2579.6</ele>
    <time>2026-06-20T13:54:57Z</time>
   </trkpt>
   <trkpt lat="-3.1371410" lon="37.3035570">
    <ele>2579.7</ele>
    <time>2026-06-20T13:54:58Z</time>
   </trkpt>
   <trkpt lat="-3.1371410" lon="37.3035570">
    <ele>2579.7</ele>
    <time>2026-06-20T13:54:59Z</time>
   </trkpt>
   <trkpt lat="-3.1371400" lon="37.3035540">
    <ele>2579.8</ele>
    <time>2026-06-20T13:55:00Z</time>
   </trkpt>
   <trkpt lat="-3.1371330" lon="37.3035550">
    <ele>2580.0</ele>
    <time>2026-06-20T13:55:01Z</time>
   </trkpt>
   <trkpt lat="-3.1371260" lon="37.3035530">
    <ele>2580.1</ele>
    <time>2026-06-20T13:55:02Z</time>
   </trkpt>
   <trkpt lat="-3.1371190" lon="37.3035550">
    <ele>2580.3</ele>
    <time>2026-06-20T13:55:03Z</time>
   </trkpt>
   <trkpt lat="-3.1371130" lon="37.3035560">
    <ele>2580.4</ele>
    <time>2026-06-20T13:55:04Z</time>
   </trkpt>
   <trkpt lat="-3.1371000" lon="37.3035560">
    <ele>2580.7</ele>
    <time>2026-06-20T13:55:05Z</time>
   </trkpt>
   <trkpt lat="-3.1370940" lon="37.3035530">
    <ele>2580.8</ele>
    <time>2026-06-20T13:55:06Z</time>
   </trkpt>
   <trkpt lat="-3.1370820" lon="37.3035550">
    <ele>2581.1</ele>
    <time>2026-06-20T13:55:07Z</time>
   </trkpt>
   <trkpt lat="-3.1370760" lon="37.3035590">
    <ele>2581.3</ele>
    <time>2026-06-20T13:55:08Z</time>
   </trkpt>
   <trkpt lat="-3.1370730" lon="37.3035650">
    <ele>2581.4</ele>
    <time>2026-06-20T13:55:09Z</time>
   </trkpt>
   <trkpt lat="-3.1370710" lon="37.3035730">
    <ele>2581.5</ele>
    <time>2026-06-20T13:55:10Z</time>
   </trkpt>
   <trkpt lat="-3.1370680" lon="37.3035790">
    <ele>2581.7</ele>
    <time>2026-06-20T13:55:11Z</time>
   </trkpt>
   <trkpt lat="-3.1370630" lon="37.3035850">
    <ele>2581.8</ele>
    <time>2026-06-20T13:55:12Z</time>
   </trkpt>
   <trkpt lat="-3.1370590" lon="37.3035920">
    <ele>2582.0</ele>
    <time>2026-06-20T13:55:13Z</time>
   </trkpt>
   <trkpt lat="-3.1370570" lon="37.3035970">
    <ele>2582.1</ele>
    <time>2026-06-20T13:55:14Z</time>
   </trkpt>
   <trkpt lat="-3.1370510" lon="37.3036000">
    <ele>2582.2</ele>
    <time>2026-06-20T13:55:15Z</time>
   </trkpt>
   <trkpt lat="-3.1370430" lon="37.3036030">
    <ele>2582.4</ele>
    <time>2026-06-20T13:55:16Z</time>
   </trkpt>
   <trkpt lat="-3.1370360" lon="37.3036060">
    <ele>2582.5</ele>
    <time>2026-06-20T13:55:17Z</time>
   </trkpt>
   <trkpt lat="-3.1370250" lon="37.3036120">
    <ele>2582.8</ele>
    <time>2026-06-20T13:55:18Z</time>
   </trkpt>
   <trkpt lat="-3.1370200" lon="37.3036120">
    <ele>2582.9</ele>
    <time>2026-06-20T13:55:19Z</time>
   </trkpt>
   <trkpt lat="-3.1370200" lon="37.3036020">
    <ele>2583.0</ele>
    <time>2026-06-20T13:55:20Z</time>
   </trkpt>
   <trkpt lat="-3.1370170" lon="37.3036000">
    <ele>2583.1</ele>
    <time>2026-06-20T13:55:21Z</time>
   </trkpt>
   <trkpt lat="-3.1370100" lon="37.3036000">
    <ele>2583.2</ele>
    <time>2026-06-20T13:55:22Z</time>
   </trkpt>
   <trkpt lat="-3.1370060" lon="37.3036040">
    <ele>2583.3</ele>
    <time>2026-06-20T13:55:23Z</time>
   </trkpt>
   <trkpt lat="-3.1369980" lon="37.3036080">
    <ele>2583.5</ele>
    <time>2026-06-20T13:55:24Z</time>
   </trkpt>
   <trkpt lat="-3.1369900" lon="37.3036150">
    <ele>2583.7</ele>
    <time>2026-06-20T13:55:25Z</time>
   </trkpt>
   <trkpt lat="-3.1369850" lon="37.3036150">
    <ele>2583.8</ele>
    <time>2026-06-20T13:55:26Z</time>
   </trkpt>
   <trkpt lat="-3.1369830" lon="37.3036200">
    <ele>2583.9</ele>
    <time>2026-06-20T13:55:27Z</time>
   </trkpt>
   <trkpt lat="-3.1369880" lon="37.3036360">
    <ele>2584.2</ele>
    <time>2026-06-20T13:55:28Z</time>
   </trkpt>
   <trkpt lat="-3.1369830" lon="37.3036440">
    <ele>2584.3</ele>
    <time>2026-06-20T13:55:29Z</time>
   </trkpt>
   <trkpt lat="-3.1369790" lon="37.3036540">
    <ele>2584.5</ele>
    <time>2026-06-20T13:55:30Z</time>
   </trkpt>
   <trkpt lat="-3.1369750" lon="37.3036660">
    <ele>2584.7</ele>
    <time>2026-06-20T13:55:31Z</time>
   </trkpt>
   <trkpt lat="-3.1369690" lon="37.3036760">
    <ele>2585.0</ele>
    <time>2026-06-20T13:55:32Z</time>
   </trkpt>
   <trkpt lat="-3.1369590" lon="37.3036780">
    <ele>2585.1</ele>
    <time>2026-06-20T13:55:33Z</time>
   </trkpt>
   <trkpt lat="-3.1369560" lon="37.3036760">
    <ele>2585.2</ele>
    <time>2026-06-20T13:55:34Z</time>
   </trkpt>
   <trkpt lat="-3.1369500" lon="37.3036800">
    <ele>2585.3</ele>
    <time>2026-06-20T13:55:35Z</time>
   </trkpt>
   <trkpt lat="-3.1369430" lon="37.3036830">
    <ele>2585.5</ele>
    <time>2026-06-20T13:55:36Z</time>
   </trkpt>
   <trkpt lat="-3.1369360" lon="37.3036880">
    <ele>2585.6</ele>
    <time>2026-06-20T13:55:37Z</time>
   </trkpt>
   <trkpt lat="-3.1369310" lon="37.3036920">
    <ele>2585.7</ele>
    <time>2026-06-20T13:55:38Z</time>
   </trkpt>
   <trkpt lat="-3.1369320" lon="37.3036970">
    <ele>2585.8</ele>
    <time>2026-06-20T13:55:39Z</time>
   </trkpt>
   <trkpt lat="-3.1369350" lon="37.3036990">
    <ele>2585.9</ele>
    <time>2026-06-20T13:55:40Z</time>
   </trkpt>
   <trkpt lat="-3.1369470" lon="37.3037040">
    <ele>2586.1</ele>
    <time>2026-06-20T13:55:41Z</time>
   </trkpt>
   <trkpt lat="-3.1369380" lon="37.3037040">
    <ele>2586.3</ele>
    <time>2026-06-20T13:55:42Z</time>
   </trkpt>
   <trkpt lat="-3.1369350" lon="37.3037120">
    <ele>2586.4</ele>
    <time>2026-06-20T13:55:43Z</time>
   </trkpt>
   <trkpt lat="-3.1369270" lon="37.3037300">
    <ele>2586.8</ele>
    <time>2026-06-20T13:55:44Z</time>
   </trkpt>
   <trkpt lat="-3.1369090" lon="37.3037560">
    <ele>2587.5</ele>
    <time>2026-06-20T13:55:45Z</time>
   </trkpt>
   <trkpt lat="-3.1369170" lon="37.3037630">
    <ele>2587.7</ele>
    <time>2026-06-20T13:55:46Z</time>
   </trkpt>
   <trkpt lat="-3.1369210" lon="37.3037750">
    <ele>2587.9</ele>
    <time>2026-06-20T13:55:47Z</time>
   </trkpt>
   <trkpt lat="-3.1369200" lon="37.3037840">
    <ele>2588.1</ele>
    <time>2026-06-20T13:55:48Z</time>
   </trkpt>
   <trkpt lat="-3.1369190" lon="37.3037880">
    <ele>2588.2</ele>
    <time>2026-06-20T13:55:49Z</time>
   </trkpt>
   <trkpt lat="-3.1369220" lon="37.3037930">
    <ele>2588.3</ele>
    <time>2026-06-20T13:55:50Z</time>
   </trkpt>
   <trkpt lat="-3.1369240" lon="37.3037930">
    <ele>2588.4</ele>
    <time>2026-06-20T13:55:51Z</time>
   </trkpt>
   <trkpt lat="-3.1369190" lon="37.3038000">
    <ele>2588.6</ele>
    <time>2026-06-20T13:55:52Z</time>
   </trkpt>
   <trkpt lat="-3.1369170" lon="37.3038060">
    <ele>2588.7</ele>
    <time>2026-06-20T13:55:53Z</time>
   </trkpt>
   <trkpt lat="-3.1369140" lon="37.3038080">
    <ele>2588.8</ele>
    <time>2026-06-20T13:55:54Z</time>
   </trkpt>
   <trkpt lat="-3.1369110" lon="37.3038120">
    <ele>2588.9</ele>
    <time>2026-06-20T13:55:55Z</time>
   </trkpt>
   <trkpt lat="-3.1369020" lon="37.3038160">
    <ele>2589.1</ele>
    <time>2026-06-20T13:55:56Z</time>
   </trkpt>
   <trkpt lat="-3.1368960" lon="37.3038200">
    <ele>2589.2</ele>
    <time>2026-06-20T13:55:57Z</time>
   </trkpt>
   <trkpt lat="-3.1368930" lon="37.3038270">
    <ele>2589.4</ele>
    <time>2026-06-20T13:55:58Z</time>
   </trkpt>
   <trkpt lat="-3.1368880" lon="37.3038280">
    <ele>2589.5</ele>
    <time>2026-06-20T13:55:59Z</time>
   </trkpt>
   <trkpt lat="-3.1368850" lon="37.3038320">
    <ele>2589.6</ele>
    <time>2026-06-20T13:56:00Z</time>
   </trkpt>
   <trkpt lat="-3.1368800" lon="37.3038380">
    <ele>2589.8</ele>
    <time>2026-06-20T13:56:01Z</time>
   </trkpt>
   <trkpt lat="-3.1368770" lon="37.3038420">
    <ele>2589.9</ele>
    <time>2026-06-20T13:56:02Z</time>
   </trkpt>
   <trkpt lat="-3.1368760" lon="37.3038460">
    <ele>2590.0</ele>
    <time>2026-06-20T13:56:03Z</time>
   </trkpt>
   <trkpt lat="-3.1368810" lon="37.3038440">
    <ele>2590.1</ele>
    <time>2026-06-20T13:56:04Z</time>
   </trkpt>
   <trkpt lat="-3.1368910" lon="37.3038430">
    <ele>2590.3</ele>
    <time>2026-06-20T13:56:05Z</time>
   </trkpt>
   <trkpt lat="-3.1368970" lon="37.3038510">
    <ele>2590.5</ele>
    <time>2026-06-20T13:56:06Z</time>
   </trkpt>
   <trkpt lat="-3.1368980" lon="37.3038510">
    <ele>2590.5</ele>
    <time>2026-06-20T13:56:07Z</time>
   </trkpt>
   <trkpt lat="-3.1368930" lon="37.3038560">
    <ele>2590.7</ele>
    <time>2026-06-20T13:56:08Z</time>
   </trkpt>
   <trkpt lat="-3.1368840" lon="37.3038620">
    <ele>2590.9</ele>
    <time>2026-06-20T13:56:09Z</time>
   </trkpt>
   <trkpt lat="-3.1368710" lon="37.3038710">
    <ele>2591.2</ele>
    <time>2026-06-20T13:56:10Z</time>
   </trkpt>
   <trkpt lat="-3.1368630" lon="37.3038820">
    <ele>2591.5</ele>
    <time>2026-06-20T13:56:11Z</time>
   </trkpt>
   <trkpt lat="-3.1368620" lon="37.3038840">
    <ele>2591.6</ele>
    <time>2026-06-20T13:56:12Z</time>
   </trkpt>
   <trkpt lat="-3.1368620" lon="37.3038910">
    <ele>2591.7</ele>
    <time>2026-06-20T13:56:13Z</time>
   </trkpt>
   <trkpt lat="-3.1368620" lon="37.3038930">
    <ele>2591.8</ele>
    <time>2026-06-20T13:56:14Z</time>
   </trkpt>
   <trkpt lat="-3.1368510" lon="37.3038960">
    <ele>2592.0</ele>
    <time>2026-06-20T13:56:15Z</time>
   </trkpt>
   <trkpt lat="-3.1368480" lon="37.3038970">
    <ele>2592.1</ele>
    <time>2026-06-20T13:56:16Z</time>
   </trkpt>
   <trkpt lat="-3.1368430" lon="37.3038960">
    <ele>2592.2</ele>
    <time>2026-06-20T13:56:17Z</time>
   </trkpt>
   <trkpt lat="-3.1368410" lon="37.3039000">
    <ele>2592.3</ele>
    <time>2026-06-20T13:56:18Z</time>
   </trkpt>
   <trkpt lat="-3.1368380" lon="37.3039050">
    <ele>2592.4</ele>
    <time>2026-06-20T13:56:19Z</time>
   </trkpt>
   <trkpt lat="-3.1368340" lon="37.3039090">
    <ele>2592.5</ele>
    <time>2026-06-20T13:56:20Z</time>
   </trkpt>
   <trkpt lat="-3.1368300" lon="37.3039100">
    <ele>2592.6</ele>
    <time>2026-06-20T13:56:21Z</time>
   </trkpt>
   <trkpt lat="-3.1368250" lon="37.3039140">
    <ele>2592.7</ele>
    <time>2026-06-20T13:56:22Z</time>
   </trkpt>
   <trkpt lat="-3.1368180" lon="37.3039150">
    <ele>2592.9</ele>
    <time>2026-06-20T13:56:23Z</time>
   </trkpt>
   <trkpt lat="-3.1368100" lon="37.3039240">
    <ele>2593.1</ele>
    <time>2026-06-20T13:56:24Z</time>
   </trkpt>
   <trkpt lat="-3.1368060" lon="37.3039300">
    <ele>2593.3</ele>
    <time>2026-06-20T13:56:25Z</time>
   </trkpt>
   <trkpt lat="-3.1368030" lon="37.3039350">
    <ele>2593.4</ele>
    <time>2026-06-20T13:56:26Z</time>
   </trkpt>
   <trkpt lat="-3.1368070" lon="37.3039380">
    <ele>2593.5</ele>
    <time>2026-06-20T13:56:27Z</time>
   </trkpt>
   <trkpt lat="-3.1368100" lon="37.3039470">
    <ele>2593.7</ele>
    <time>2026-06-20T13:56:28Z</time>
   </trkpt>
   <trkpt lat="-3.1368120" lon="37.3039500">
    <ele>2593.8</ele>
    <time>2026-06-20T13:56:29Z</time>
   </trkpt>
   <trkpt lat="-3.1368070" lon="37.3039490">
    <ele>2593.9</ele>
    <time>2026-06-20T13:56:30Z</time>
   </trkpt>
   <trkpt lat="-3.1368020" lon="37.3039530">
    <ele>2594.0</ele>
    <time>2026-06-20T13:56:31Z</time>
   </trkpt>
   <trkpt lat="-3.1367950" lon="37.3039570">
    <ele>2594.2</ele>
    <time>2026-06-20T13:56:32Z</time>
   </trkpt>
   <trkpt lat="-3.1367920" lon="37.3039590">
    <ele>2594.3</ele>
    <time>2026-06-20T13:56:33Z</time>
   </trkpt>
   <trkpt lat="-3.1367870" lon="37.3039600">
    <ele>2594.4</ele>
    <time>2026-06-20T13:56:34Z</time>
   </trkpt>
   <trkpt lat="-3.1367850" lon="37.3039590">
    <ele>2594.4</ele>
    <time>2026-06-20T13:56:35Z</time>
   </trkpt>
   <trkpt lat="-3.1367910" lon="37.3039600">
    <ele>2594.6</ele>
    <time>2026-06-20T13:56:36Z</time>
   </trkpt>
   <trkpt lat="-3.1367920" lon="37.3039640">
    <ele>2594.7</ele>
    <time>2026-06-20T13:56:37Z</time>
   </trkpt>
   <trkpt lat="-3.1367930" lon="37.3039660">
    <ele>2594.7</ele>
    <time>2026-06-20T13:56:38Z</time>
   </trkpt>
   <trkpt lat="-3.1367930" lon="37.3039770">
    <ele>2594.9</ele>
    <time>2026-06-20T13:56:39Z</time>
   </trkpt>
   <trkpt lat="-3.1367910" lon="37.3039800">
    <ele>2595.0</ele>
    <time>2026-06-20T13:56:40Z</time>
   </trkpt>
   <trkpt lat="-3.1367920" lon="37.3039810">
    <ele>2595.0</ele>
    <time>2026-06-20T13:56:41Z</time>
   </trkpt>
   <trkpt lat="-3.1367910" lon="37.3039850">
    <ele>2595.1</ele>
    <time>2026-06-20T13:56:42Z</time>
   </trkpt>
   <trkpt lat="-3.1367850" lon="37.3039790">
    <ele>2595.3</ele>
    <time>2026-06-20T13:56:43Z</time>
   </trkpt>
   <trkpt lat="-3.1367800" lon="37.3039830">
    <ele>2595.4</ele>
    <time>2026-06-20T13:56:44Z</time>
   </trkpt>
   <trkpt lat="-3.1367730" lon="37.3039830">
    <ele>2595.6</ele>
    <time>2026-06-20T13:56:45Z</time>
   </trkpt>
   <trkpt lat="-3.1367650" lon="37.3039860">
    <ele>2595.8</ele>
    <time>2026-06-20T13:56:46Z</time>
   </trkpt>
   <trkpt lat="-3.1367490" lon="37.3039890">
    <ele>2596.1</ele>
    <time>2026-06-20T13:56:47Z</time>
   </trkpt>
   <trkpt lat="-3.1367430" lon="37.3039880">
    <ele>2596.2</ele>
    <time>2026-06-20T13:56:48Z</time>
   </trkpt>
   <trkpt lat="-3.1367310" lon="37.3039960">
    <ele>2596.6</ele>
    <time>2026-06-20T13:56:49Z</time>
   </trkpt>
   <trkpt lat="-3.1367210" lon="37.3040000">
    <ele>2596.8</ele>
    <time>2026-06-20T13:56:50Z</time>
   </trkpt>
   <trkpt lat="-3.1367150" lon="37.3040030">
    <ele>2596.9</ele>
    <time>2026-06-20T13:56:51Z</time>
   </trkpt>
   <trkpt lat="-3.1367080" lon="37.3040050">
    <ele>2597.1</ele>
    <time>2026-06-20T13:56:52Z</time>
   </trkpt>
   <trkpt lat="-3.1367050" lon="37.3040040">
    <ele>2597.2</ele>
    <time>2026-06-20T13:56:53Z</time>
   </trkpt>
   <trkpt lat="-3.1367030" lon="37.3040000">
    <ele>2597.3</ele>
    <time>2026-06-20T13:56:54Z</time>
   </trkpt>
   <trkpt lat="-3.1366950" lon="37.3040080">
    <ele>2597.5</ele>
    <time>2026-06-20T13:56:55Z</time>
   </trkpt>
   <trkpt lat="-3.1366910" lon="37.3040120">
    <ele>2597.7</ele>
    <time>2026-06-20T13:56:56Z</time>
   </trkpt>
   <trkpt lat="-3.1366910" lon="37.3040140">
    <ele>2597.7</ele>
    <time>2026-06-20T13:56:57Z</time>
   </trkpt>
   <trkpt lat="-3.1366880" lon="37.3040150">
    <ele>2597.8</ele>
    <time>2026-06-20T13:56:58Z</time>
   </trkpt>
   <trkpt lat="-3.1366850" lon="37.3040130">
    <ele>2597.9</ele>
    <time>2026-06-20T13:57:00Z</time>
   </trkpt>
   <trkpt lat="-3.1366830" lon="37.3040140">
    <ele>2597.9</ele>
    <time>2026-06-20T13:57:01Z</time>
   </trkpt>
   <trkpt lat="-3.1366790" lon="37.3040150">
    <ele>2598.0</ele>
    <time>2026-06-20T13:57:02Z</time>
   </trkpt>
   <trkpt lat="-3.1366750" lon="37.3040190">
    <ele>2598.1</ele>
    <time>2026-06-20T13:57:03Z</time>
   </trkpt>
   <trkpt lat="-3.1366720" lon="37.3040150">
    <ele>2598.3</ele>
    <time>2026-06-20T13:57:04Z</time>
   </trkpt>
   <trkpt lat="-3.1366710" lon="37.3040180">
    <ele>2598.3</ele>
    <time>2026-06-20T13:57:05Z</time>
   </trkpt>
   <trkpt lat="-3.1366670" lon="37.3040200">
    <ele>2598.4</ele>
    <time>2026-06-20T13:57:06Z</time>
   </trkpt>
   <trkpt lat="-3.1366610" lon="37.3040230">
    <ele>2598.6</ele>
    <time>2026-06-20T13:57:07Z</time>
   </trkpt>
   <trkpt lat="-3.1366600" lon="37.3040190">
    <ele>2598.7</ele>
    <time>2026-06-20T13:57:08Z</time>
   </trkpt>
   <trkpt lat="-3.1366550" lon="37.3040150">
    <ele>2598.9</ele>
    <time>2026-06-20T13:57:09Z</time>
   </trkpt>
   <trkpt lat="-3.1366530" lon="37.3040090">
    <ele>2599.0</ele>
    <time>2026-06-20T13:57:10Z</time>
   </trkpt>
   <trkpt lat="-3.1366500" lon="37.3040050">
    <ele>2599.1</ele>
    <time>2026-06-20T13:57:11Z</time>
   </trkpt>
   <trkpt lat="-3.1366460" lon="37.3040070">
    <ele>2599.3</ele>
    <time>2026-06-20T13:57:12Z</time>
   </trkpt>
   <trkpt lat="-3.1366440" lon="37.3040040">
    <ele>2599.3</ele>
    <time>2026-06-20T13:57:13Z</time>
   </trkpt>
   <trkpt lat="-3.1366440" lon="37.3039970">
    <ele>2599.5</ele>
    <time>2026-06-20T13:57:14Z</time>
   </trkpt>
   <trkpt lat="-3.1366420" lon="37.3039990">
    <ele>2599.6</ele>
    <time>2026-06-20T13:57:15Z</time>
   </trkpt>
   <trkpt lat="-3.1366370" lon="37.3040020">
    <ele>2599.7</ele>
    <time>2026-06-20T13:57:16Z</time>
   </trkpt>
   <trkpt lat="-3.1366330" lon="37.3040100">
    <ele>2600.0</ele>
    <time>2026-06-20T13:57:17Z</time>
   </trkpt>
   <trkpt lat="-3.1366300" lon="37.3040160">
    <ele>2600.1</ele>
    <time>2026-06-20T13:57:18Z</time>
   </trkpt>
   <trkpt lat="-3.1366290" lon="37.3040140">
    <ele>2600.2</ele>
    <time>2026-06-20T13:57:19Z</time>
   </trkpt>
   <trkpt lat="-3.1366290" lon="37.3040070">
    <ele>2600.4</ele>
    <time>2026-06-20T13:57:20Z</time>
   </trkpt>
   <trkpt lat="-3.1366280" lon="37.3040040">
    <ele>2600.5</ele>
    <time>2026-06-20T13:57:21Z</time>
   </trkpt>
   <trkpt lat="-3.1366260" lon="37.3039990">
    <ele>2600.6</ele>
    <time>2026-06-20T13:57:22Z</time>
   </trkpt>
   <trkpt lat="-3.1366280" lon="37.3039920">
    <ele>2600.8</ele>
    <time>2026-06-20T13:57:23Z</time>
   </trkpt>
   <trkpt lat="-3.1366220" lon="37.3039980">
    <ele>2601.0</ele>
    <time>2026-06-20T13:57:24Z</time>
   </trkpt>
   <trkpt lat="-3.1366220" lon="37.3039990">
    <ele>2601.1</ele>
    <time>2026-06-20T13:57:25Z</time>
   </trkpt>
   <trkpt lat="-3.1366210" lon="37.3039980">
    <ele>2601.1</ele>
    <time>2026-06-20T13:57:26Z</time>
   </trkpt>
   <trkpt lat="-3.1366220" lon="37.3039950">
    <ele>2601.2</ele>
    <time>2026-06-20T13:57:27Z</time>
   </trkpt>
   <trkpt lat="-3.1366220" lon="37.3039970">
    <ele>2601.2</ele>
    <time>2026-06-20T13:57:28Z</time>
   </trkpt>
   <trkpt lat="-3.1366180" lon="37.3040020">
    <ele>2601.4</ele>
    <time>2026-06-20T13:57:29Z</time>
   </trkpt>
   <trkpt lat="-3.1366140" lon="37.3040060">
    <ele>2601.6</ele>
    <time>2026-06-20T13:57:30Z</time>
   </trkpt>
   <trkpt lat="-3.1366100" lon="37.3040080">
    <ele>2601.7</ele>
    <time>2026-06-20T13:57:31Z</time>
   </trkpt>
   <trkpt lat="-3.1366110" lon="37.3040040">
    <ele>2601.8</ele>
    <time>2026-06-20T13:57:32Z</time>
   </trkpt>
   <trkpt lat="-3.1366120" lon="37.3040040">
    <ele>2601.8</ele>
    <time>2026-06-20T13:57:33Z</time>
   </trkpt>
   <trkpt lat="-3.1366120" lon="37.3039940">
    <ele>2602.1</ele>
    <time>2026-06-20T13:57:34Z</time>
   </trkpt>
   <trkpt lat="-3.1366160" lon="37.3039900">
    <ele>2602.3</ele>
    <time>2026-06-20T13:57:35Z</time>
   </trkpt>
   <trkpt lat="-3.1366050" lon="37.3040010">
    <ele>2602.7</ele>
    <time>2026-06-20T13:57:36Z</time>
   </trkpt>
   <trkpt lat="-3.1366020" lon="37.3040010">
    <ele>2602.8</ele>
    <time>2026-06-20T13:57:37Z</time>
   </trkpt>
   <trkpt lat="-3.1365970" lon="37.3039990">
    <ele>2603.0</ele>
    <time>2026-06-20T13:57:38Z</time>
   </trkpt>
   <trkpt lat="-3.1365930" lon="37.3040020">
    <ele>2603.1</ele>
    <time>2026-06-20T13:57:39Z</time>
   </trkpt>
   <trkpt lat="-3.1365910" lon="37.3040040">
    <ele>2603.2</ele>
    <time>2026-06-20T13:57:40Z</time>
   </trkpt>
   <trkpt lat="-3.1365890" lon="37.3040060">
    <ele>2603.3</ele>
    <time>2026-06-20T13:57:41Z</time>
   </trkpt>
   <trkpt lat="-3.1365840" lon="37.3040080">
    <ele>2603.4</ele>
    <time>2026-06-20T13:57:42Z</time>
   </trkpt>
   <trkpt lat="-3.1365820" lon="37.3040050">
    <ele>2603.5</ele>
    <time>2026-06-20T13:57:43Z</time>
   </trkpt>
   <trkpt lat="-3.1365770" lon="37.3040020">
    <ele>2603.7</ele>
    <time>2026-06-20T13:57:44Z</time>
   </trkpt>
   <trkpt lat="-3.1365710" lon="37.3040110">
    <ele>2604.0</ele>
    <time>2026-06-20T13:57:45Z</time>
   </trkpt>
   <trkpt lat="-3.1365690" lon="37.3040050">
    <ele>2604.2</ele>
    <time>2026-06-20T13:57:46Z</time>
   </trkpt>
   <trkpt lat="-3.1365660" lon="37.3040030">
    <ele>2604.3</ele>
    <time>2026-06-20T13:57:47Z</time>
   </trkpt>
   <trkpt lat="-3.1365630" lon="37.3040050">
    <ele>2604.4</ele>
    <time>2026-06-20T13:57:48Z</time>
   </trkpt>
   <trkpt lat="-3.1365580" lon="37.3040100">
    <ele>2604.6</ele>
    <time>2026-06-20T13:57:49Z</time>
   </trkpt>
   <trkpt lat="-3.1365610" lon="37.3040070">
    <ele>2604.7</ele>
    <time>2026-06-20T13:57:50Z</time>
   </trkpt>
   <trkpt lat="-3.1365550" lon="37.3040100">
    <ele>2604.9</ele>
    <time>2026-06-20T13:57:51Z</time>
   </trkpt>
   <trkpt lat="-3.1365520" lon="37.3040130">
    <ele>2605.0</ele>
    <time>2026-06-20T13:57:52Z</time>
   </trkpt>
   <trkpt lat="-3.1365480" lon="37.3040270">
    <ele>2605.5</ele>
    <time>2026-06-20T13:57:53Z</time>
   </trkpt>
   <trkpt lat="-3.1365490" lon="37.3040210">
    <ele>2605.6</ele>
    <time>2026-06-20T13:57:54Z</time>
   </trkpt>
   <trkpt lat="-3.1365450" lon="37.3040260">
    <ele>2605.8</ele>
    <time>2026-06-20T13:57:55Z</time>
   </trkpt>
   <trkpt lat="-3.1365390" lon="37.3040290">
    <ele>2606.0</ele>
    <time>2026-06-20T13:57:56Z</time>
   </trkpt>
   <trkpt lat="-3.1365360" lon="37.3040320">
    <ele>2606.1</ele>
    <time>2026-06-20T13:57:57Z</time>
   </trkpt>
   <trkpt lat="-3.1365330" lon="37.3040310">
    <ele>2606.2</ele>
    <time>2026-06-20T13:57:58Z</time>
   </trkpt>
   <trkpt lat="-3.1365330" lon="37.3040300">
    <ele>2606.2</ele>
    <time>2026-06-20T13:57:59Z</time>
   </trkpt>
   <trkpt lat="-3.1365310" lon="37.3040330">
    <ele>2606.3</ele>
    <time>2026-06-20T13:58:00Z</time>
   </trkpt>
   <trkpt lat="-3.1365280" lon="37.3040400">
    <ele>2606.5</ele>
    <time>2026-06-20T13:58:01Z</time>
   </trkpt>
   <trkpt lat="-3.1365280" lon="37.3040350">
    <ele>2606.6</ele>
    <time>2026-06-20T13:58:02Z</time>
   </trkpt>
   <trkpt lat="-3.1365270" lon="37.3040370">
    <ele>2606.7</ele>
    <time>2026-06-20T13:58:03Z</time>
   </trkpt>
   <trkpt lat="-3.1365260" lon="37.3040350">
    <ele>2606.7</ele>
    <time>2026-06-20T13:58:04Z</time>
   </trkpt>
   <trkpt lat="-3.1365250" lon="37.3040290">
    <ele>2606.9</ele>
    <time>2026-06-20T13:58:05Z</time>
   </trkpt>
   <trkpt lat="-3.1365190" lon="37.3040440">
    <ele>2607.3</ele>
    <time>2026-06-20T13:58:06Z</time>
   </trkpt>
   <trkpt lat="-3.1365190" lon="37.3040480">
    <ele>2607.4</ele>
    <time>2026-06-20T13:58:07Z</time>
   </trkpt>
   <trkpt lat="-3.1365160" lon="37.3040450">
    <ele>2607.5</ele>
    <time>2026-06-20T13:58:08Z</time>
   </trkpt>
   <trkpt lat="-3.1365150" lon="37.3040430">
    <ele>2607.6</ele>
    <time>2026-06-20T13:58:09Z</time>
   </trkpt>
   <trkpt lat="-3.1365130" lon="37.3040540">
    <ele>2607.9</ele>
    <time>2026-06-20T13:58:10Z</time>
   </trkpt>
   <trkpt lat="-3.1365120" lon="37.3040550">
    <ele>2607.9</ele>
    <time>2026-06-20T13:58:11Z</time>
   </trkpt>
   <trkpt lat="-3.1365070" lon="37.3040610">
    <ele>2608.1</ele>
    <time>2026-06-20T13:58:12Z</time>
   </trkpt>
   <trkpt lat="-3.1365030" lon="37.3040700">
    <ele>2608.3</ele>
    <time>2026-06-20T13:58:13Z</time>
   </trkpt>
   <trkpt lat="-3.1365000" lon="37.3040760">
    <ele>2608.5</ele>
    <time>2026-06-20T13:58:14Z</time>
   </trkpt>
   <trkpt lat="-3.1364940" lon="37.3040820">
    <ele>2608.7</ele>
    <time>2026-06-20T13:58:15Z</time>
   </trkpt>
   <trkpt lat="-3.1364920" lon="37.3040850">
    <ele>2608.8</ele>
    <time>2026-06-20T13:58:16Z</time>
   </trkpt>
   <trkpt lat="-3.1364850" lon="37.3040880">
    <ele>2608.9</ele>
    <time>2026-06-20T13:58:17Z</time>
   </trkpt>
   <trkpt lat="-3.1364800" lon="37.3040920">
    <ele>2609.1</ele>
    <time>2026-06-20T13:58:18Z</time>
   </trkpt>
   <trkpt lat="-3.1364750" lon="37.3040980">
    <ele>2609.3</ele>
    <time>2026-06-20T13:58:19Z</time>
   </trkpt>
   <trkpt lat="-3.1364690" lon="37.3040990">
    <ele>2609.4</ele>
    <time>2026-06-20T13:58:20Z</time>
   </trkpt>
   <trkpt lat="-3.1364650" lon="37.3040970">
    <ele>2609.5</ele>
    <time>2026-06-20T13:58:21Z</time>
   </trkpt>
   <trkpt lat="-3.1364630" lon="37.3040950">
    <ele>2609.5</ele>
    <time>2026-06-20T13:58:22Z</time>
   </trkpt>
   <trkpt lat="-3.1364610" lon="37.3040950">
    <ele>2609.6</ele>
    <time>2026-06-20T13:58:23Z</time>
   </trkpt>
   <trkpt lat="-3.1364550" lon="37.3040980">
    <ele>2609.7</ele>
    <time>2026-06-20T13:58:24Z</time>
   </trkpt>
   <trkpt lat="-3.1364520" lon="37.3041030">
    <ele>2609.9</ele>
    <time>2026-06-20T13:58:25Z</time>
   </trkpt>
   <trkpt lat="-3.1364480" lon="37.3041080">
    <ele>2610.0</ele>
    <time>2026-06-20T13:58:26Z</time>
   </trkpt>
   <trkpt lat="-3.1364440" lon="37.3041130">
    <ele>2610.1</ele>
    <time>2026-06-20T13:58:27Z</time>
   </trkpt>
   <trkpt lat="-3.1364390" lon="37.3041200">
    <ele>2610.3</ele>
    <time>2026-06-20T13:58:28Z</time>
   </trkpt>
   <trkpt lat="-3.1364350" lon="37.3041180">
    <ele>2610.4</ele>
    <time>2026-06-20T13:58:29Z</time>
   </trkpt>
   <trkpt lat="-3.1364320" lon="37.3041190">
    <ele>2610.5</ele>
    <time>2026-06-20T13:58:30Z</time>
   </trkpt>
   <trkpt lat="-3.1364310" lon="37.3041230">
    <ele>2610.6</ele>
    <time>2026-06-20T13:58:31Z</time>
   </trkpt>
   <trkpt lat="-3.1364310" lon="37.3041240">
    <ele>2610.6</ele>
    <time>2026-06-20T13:58:32Z</time>
   </trkpt>
   <trkpt lat="-3.1364240" lon="37.3041240">
    <ele>2610.7</ele>
    <time>2026-06-20T13:58:33Z</time>
   </trkpt>
   <trkpt lat="-3.1364190" lon="37.3041260">
    <ele>2610.8</ele>
    <time>2026-06-20T13:58:34Z</time>
   </trkpt>
   <trkpt lat="-3.1364140" lon="37.3041280">
    <ele>2610.9</ele>
    <time>2026-06-20T13:58:35Z</time>
   </trkpt>
   <trkpt lat="-3.1364070" lon="37.3041270">
    <ele>2611.0</ele>
    <time>2026-06-20T13:58:36Z</time>
   </trkpt>
   <trkpt lat="-3.1364030" lon="37.3041280">
    <ele>2611.1</ele>
    <time>2026-06-20T13:58:37Z</time>
   </trkpt>
   <trkpt lat="-3.1363950" lon="37.3041310">
    <ele>2611.3</ele>
    <time>2026-06-20T13:58:38Z</time>
   </trkpt>
   <trkpt lat="-3.1363910" lon="37.3041290">
    <ele>2611.4</ele>
    <time>2026-06-20T13:58:39Z</time>
   </trkpt>
   <trkpt lat="-3.1363840" lon="37.3041290">
    <ele>2611.5</ele>
    <time>2026-06-20T13:58:40Z</time>
   </trkpt>
   <trkpt lat="-3.1363780" lon="37.3041300">
    <ele>2611.6</ele>
    <time>2026-06-20T13:58:41Z</time>
   </trkpt>
   <trkpt lat="-3.1363720" lon="37.3041360">
    <ele>2611.8</ele>
    <time>2026-06-20T13:58:42Z</time>
   </trkpt>
   <trkpt lat="-3.1363670" lon="37.3041390">
    <ele>2611.9</ele>
    <time>2026-06-20T13:58:43Z</time>
   </trkpt>
   <trkpt lat="-3.1363630" lon="37.3041400">
    <ele>2611.9</ele>
    <time>2026-06-20T13:58:44Z</time>
   </trkpt>
   <trkpt lat="-3.1363550" lon="37.3041420">
    <ele>2612.1</ele>
    <time>2026-06-20T13:58:45Z</time>
   </trkpt>
   <trkpt lat="-3.1363520" lon="37.3041460">
    <ele>2612.2</ele>
    <time>2026-06-20T13:58:46Z</time>
   </trkpt>
   <trkpt lat="-3.1363510" lon="37.3041460">
    <ele>2612.2</ele>
    <time>2026-06-20T13:58:47Z</time>
   </trkpt>
   <trkpt lat="-3.1363490" lon="37.3041390">
    <ele>2612.3</ele>
    <time>2026-06-20T13:58:48Z</time>
   </trkpt>
   <trkpt lat="-3.1363500" lon="37.3041440">
    <ele>2612.4</ele>
    <time>2026-06-20T13:58:49Z</time>
   </trkpt>
   <trkpt lat="-3.1363510" lon="37.3041460">
    <ele>2612.4</ele>
    <time>2026-06-20T13:58:50Z</time>
   </trkpt>
   <trkpt lat="-3.1363490" lon="37.3041480">
    <ele>2612.5</ele>
    <time>2026-06-20T13:58:51Z</time>
   </trkpt>
   <trkpt lat="-3.1363480" lon="37.3041490">
    <ele>2612.5</ele>
    <time>2026-06-20T13:58:52Z</time>
   </trkpt>
   <trkpt lat="-3.1363590" lon="37.3041570">
    <ele>2612.7</ele>
    <time>2026-06-20T13:58:53Z</time>
   </trkpt>
   <trkpt lat="-3.1363550" lon="37.3041610">
    <ele>2612.8</ele>
    <time>2026-06-20T13:58:54Z</time>
   </trkpt>
   <trkpt lat="-3.1363530" lon="37.3041690">
    <ele>2612.9</ele>
    <time>2026-06-20T13:58:55Z</time>
   </trkpt>
   <trkpt lat="-3.1363500" lon="37.3041760">
    <ele>2613.1</ele>
    <time>2026-06-20T13:58:56Z</time>
   </trkpt>
   <trkpt lat="-3.1363510" lon="37.3041790">
    <ele>2613.1</ele>
    <time>2026-06-20T13:58:57Z</time>
   </trkpt>
   <trkpt lat="-3.1363550" lon="37.3041950">
    <ele>2613.4</ele>
    <time>2026-06-20T13:58:58Z</time>
   </trkpt>
   <trkpt lat="-3.1363540" lon="37.3042020">
    <ele>2613.5</ele>
    <time>2026-06-20T13:58:59Z</time>
   </trkpt>
   <trkpt lat="-3.1363530" lon="37.3042030">
    <ele>2613.5</ele>
    <time>2026-06-20T13:59:00Z</time>
   </trkpt>
   <trkpt lat="-3.1363480" lon="37.3042080">
    <ele>2613.7</ele>
    <time>2026-06-20T13:59:01Z</time>
   </trkpt>
   <trkpt lat="-3.1363510" lon="37.3042130">
    <ele>2613.8</ele>
    <time>2026-06-20T13:59:02Z</time>
   </trkpt>
   <trkpt lat="-3.1363500" lon="37.3042170">
    <ele>2613.8</ele>
    <time>2026-06-20T13:59:03Z</time>
   </trkpt>
   <trkpt lat="-3.1363470" lon="37.3042240">
    <ele>2614.0</ele>
    <time>2026-06-20T13:59:04Z</time>
   </trkpt>
   <trkpt lat="-3.1363450" lon="37.3042300">
    <ele>2614.1</ele>
    <time>2026-06-20T13:59:06Z</time>
   </trkpt>
   <trkpt lat="-3.1363440" lon="37.3042350">
    <ele>2614.1</ele>
    <time>2026-06-20T13:59:07Z</time>
   </trkpt>
   <trkpt lat="-3.1363410" lon="37.3042390">
    <ele>2614.2</ele>
    <time>2026-06-20T13:59:08Z</time>
   </trkpt>
   <trkpt lat="-3.1363370" lon="37.3042470">
    <ele>2614.4</ele>
    <time>2026-06-20T13:59:09Z</time>
   </trkpt>
   <trkpt lat="-3.1363350" lon="37.3042540">
    <ele>2614.5</ele>
    <time>2026-06-20T13:59:10Z</time>
   </trkpt>
   <trkpt lat="-3.1363280" lon="37.3042570">
    <ele>2614.6</ele>
    <time>2026-06-20T13:59:11Z</time>
   </trkpt>
   <trkpt lat="-3.1363270" lon="37.3042650">
    <ele>2614.8</ele>
    <time>2026-06-20T13:59:12Z</time>
   </trkpt>
   <trkpt lat="-3.1363230" lon="37.3042670">
    <ele>2614.8</ele>
    <time>2026-06-20T13:59:13Z</time>
   </trkpt>
   <trkpt lat="-3.1363190" lon="37.3042720">
    <ele>2614.9</ele>
    <time>2026-06-20T13:59:14Z</time>
   </trkpt>
   <trkpt lat="-3.1363150" lon="37.3042810">
    <ele>2615.1</ele>
    <time>2026-06-20T13:59:15Z</time>
   </trkpt>
   <trkpt lat="-3.1363140" lon="37.3042830">
    <ele>2615.2</ele>
    <time>2026-06-20T13:59:16Z</time>
   </trkpt>
   <trkpt lat="-3.1363160" lon="37.3042880">
    <ele>2615.2</ele>
    <time>2026-06-20T13:59:17Z</time>
   </trkpt>
   <trkpt lat="-3.1363110" lon="37.3042920">
    <ele>2615.4</ele>
    <time>2026-06-20T13:59:18Z</time>
   </trkpt>
   <trkpt lat="-3.1363110" lon="37.3043010">
    <ele>2615.5</ele>
    <time>2026-06-20T13:59:19Z</time>
   </trkpt>
   <trkpt lat="-3.1363100" lon="37.3043020">
    <ele>2615.5</ele>
    <time>2026-06-20T13:59:20Z</time>
   </trkpt>
   <trkpt lat="-3.1363050" lon="37.3043120">
    <ele>2615.8</ele>
    <time>2026-06-20T13:59:21Z</time>
   </trkpt>
   <trkpt lat="-3.1362990" lon="37.3043130">
    <ele>2615.9</ele>
    <time>2026-06-20T13:59:22Z</time>
   </trkpt>
   <trkpt lat="-3.1362980" lon="37.3043170">
    <ele>2615.9</ele>
    <time>2026-06-20T13:59:23Z</time>
   </trkpt>
   <trkpt lat="-3.1362980" lon="37.3043230">
    <ele>2616.1</ele>
    <time>2026-06-20T13:59:24Z</time>
   </trkpt>
   <trkpt lat="-3.1362930" lon="37.3043310">
    <ele>2616.2</ele>
    <time>2026-06-20T13:59:25Z</time>
   </trkpt>
   <trkpt lat="-3.1362960" lon="37.3043350">
    <ele>2616.3</ele>
    <time>2026-06-20T13:59:26Z</time>
   </trkpt>
   <trkpt lat="-3.1362950" lon="37.3043410">
    <ele>2616.4</ele>
    <time>2026-06-20T13:59:27Z</time>
   </trkpt>
   <trkpt lat="-3.1362950" lon="37.3043440">
    <ele>2616.5</ele>
    <time>2026-06-20T13:59:28Z</time>
   </trkpt>
   <trkpt lat="-3.1362980" lon="37.3043490">
    <ele>2616.6</ele>
    <time>2026-06-20T13:59:29Z</time>
   </trkpt>
   <trkpt lat="-3.1362990" lon="37.3043520">
    <ele>2616.7</ele>
    <time>2026-06-20T13:59:30Z</time>
   </trkpt>
   <trkpt lat="-3.1362980" lon="37.3043610">
    <ele>2616.9</ele>
    <time>2026-06-20T13:59:31Z</time>
   </trkpt>
   <trkpt lat="-3.1363020" lon="37.3043660">
    <ele>2617.0</ele>
    <time>2026-06-20T13:59:32Z</time>
   </trkpt>
   <trkpt lat="-3.1362990" lon="37.3043720">
    <ele>2617.1</ele>
    <time>2026-06-20T13:59:33Z</time>
   </trkpt>
   <trkpt lat="-3.1362930" lon="37.3043750">
    <ele>2617.3</ele>
    <time>2026-06-20T13:59:34Z</time>
   </trkpt>
   <trkpt lat="-3.1362950" lon="37.3043860">
    <ele>2617.5</ele>
    <time>2026-06-20T13:59:35Z</time>
   </trkpt>
   <trkpt lat="-3.1362950" lon="37.3043820">
    <ele>2617.6</ele>
    <time>2026-06-20T13:59:36Z</time>
   </trkpt>
   <trkpt lat="-3.1362930" lon="37.3043870">
    <ele>2617.7</ele>
    <time>2026-06-20T13:59:37Z</time>
   </trkpt>
   <trkpt lat="-3.1362900" lon="37.3043900">
    <ele>2617.8</ele>
    <time>2026-06-20T13:59:38Z</time>
   </trkpt>
   <trkpt lat="-3.1362910" lon="37.3043920">
    <ele>2617.8</ele>
    <time>2026-06-20T13:59:39Z</time>
   </trkpt>
   <trkpt lat="-3.1362900" lon="37.3043880">
    <ele>2617.9</ele>
    <time>2026-06-20T13:59:40Z</time>
   </trkpt>
   <trkpt lat="-3.1362890" lon="37.3043850">
    <ele>2618.0</ele>
    <time>2026-06-20T13:59:41Z</time>
   </trkpt>
   <trkpt lat="-3.1362890" lon="37.3043820">
    <ele>2618.0</ele>
    <time>2026-06-20T13:59:42Z</time>
   </trkpt>
   <trkpt lat="-3.1362890" lon="37.3043830">
    <ele>2618.0</ele>
    <time>2026-06-20T13:59:43Z</time>
   </trkpt>
   <trkpt lat="-3.1362890" lon="37.3043830">
    <ele>2618.0</ele>
    <time>2026-06-20T13:59:44Z</time>
   </trkpt>
   <trkpt lat="-3.1362890" lon="37.3043830">
    <ele>2618.0</ele>
    <time>2026-06-20T13:59:45Z</time>
   </trkpt>
   <trkpt lat="-3.1362870" lon="37.3043780">
    <ele>2618.2</ele>
    <time>2026-06-20T13:59:46Z</time>
   </trkpt>
   <trkpt lat="-3.1362870" lon="37.3043780">
    <ele>2618.2</ele>
    <time>2026-06-20T13:59:47Z</time>
   </trkpt>
   <trkpt lat="-3.1362880" lon="37.3043760">
    <ele>2618.2</ele>
    <time>2026-06-20T13:59:48Z</time>
   </trkpt>
   <trkpt lat="-3.1362880" lon="37.3043760">
    <ele>2618.2</ele>
    <time>2026-06-20T13:59:49Z</time>
   </trkpt>
   <trkpt lat="-3.1362860" lon="37.3043750">
    <ele>2618.2</ele>
    <time>2026-06-20T13:59:50Z</time>
   </trkpt>
   <trkpt lat="-3.1362870" lon="37.3043710">
    <ele>2618.3</ele>
    <time>2026-06-20T13:59:51Z</time>
   </trkpt>
   <trkpt lat="-3.1362850" lon="37.3043670">
    <ele>2618.4</ele>
    <time>2026-06-20T13:59:52Z</time>
   </trkpt>
   <trkpt lat="-3.1362830" lon="37.3043670">
    <ele>2618.5</ele>
    <time>2026-06-20T13:59:53Z</time>
   </trkpt>
   <trkpt lat="-3.1362830" lon="37.3043660">
    <ele>2618.5</ele>
    <time>2026-06-20T13:59:54Z</time>
   </trkpt>
   <trkpt lat="-3.1362830" lon="37.3043660">
    <ele>2618.5</ele>
    <time>2026-06-20T13:59:55Z</time>
   </trkpt>
   <trkpt lat="-3.1362830" lon="37.3043660">
    <ele>2618.5</ele>
    <time>2026-06-20T13:59:56Z</time>
   </trkpt>
   <trkpt lat="-3.1362830" lon="37.3043660">
    <ele>2618.5</ele>
    <time>2026-06-20T13:59:57Z</time>
   </trkpt>
   <trkpt lat="-3.1362840" lon="37.3043620">
    <ele>2618.6</ele>
    <time>2026-06-20T13:59:58Z</time>
   </trkpt>
   <trkpt lat="-3.1362820" lon="37.3043610">
    <ele>2618.6</ele>
    <time>2026-06-20T13:59:59Z</time>
   </trkpt>
   <trkpt lat="-3.1362820" lon="37.3043610">
    <ele>2618.6</ele>
    <time>2026-06-20T14:00:00Z</time>
   </trkpt>
   <trkpt lat="-3.1362780" lon="37.3043610">
    <ele>2618.7</ele>
    <time>2026-06-20T14:00:01Z</time>
   </trkpt>
   <trkpt lat="-3.1362760" lon="37.3043620">
    <ele>2618.8</ele>
    <time>2026-06-20T14:00:02Z</time>
   </trkpt>
   <trkpt lat="-3.1362740" lon="37.3043580">
    <ele>2618.9</ele>
    <time>2026-06-20T14:00:03Z</time>
   </trkpt>
   <trkpt lat="-3.1362730" lon="37.3043590">
    <ele>2618.9</ele>
    <time>2026-06-20T14:00:04Z</time>
   </trkpt>
   <trkpt lat="-3.1362740" lon="37.3043580">
    <ele>2618.9</ele>
    <time>2026-06-20T14:00:05Z</time>
   </trkpt>
   <trkpt lat="-3.1362730" lon="37.3043620">
    <ele>2619.0</ele>
    <time>2026-06-20T14:00:06Z</time>
   </trkpt>
   <trkpt lat="-3.1362680" lon="37.3043600">
    <ele>2619.1</ele>
    <time>2026-06-20T14:00:07Z</time>
   </trkpt>
   <trkpt lat="-3.1362710" lon="37.3043650">
    <ele>2619.2</ele>
    <time>2026-06-20T14:00:08Z</time>
   </trkpt>
   <trkpt lat="-3.1362720" lon="37.3043680">
    <ele>2619.3</ele>
    <time>2026-06-20T14:00:09Z</time>
   </trkpt>
   <trkpt lat="-3.1362740" lon="37.3043700">
    <ele>2619.4</ele>
    <time>2026-06-20T14:00:10Z</time>
   </trkpt>
   <trkpt lat="-3.1362740" lon="37.3043770">
    <ele>2619.5</ele>
    <time>2026-06-20T14:00:11Z</time>
   </trkpt>
   <trkpt lat="-3.1362740" lon="37.3043820">
    <ele>2619.6</ele>
    <time>2026-06-20T14:00:12Z</time>
   </trkpt>
   <trkpt lat="-3.1362740" lon="37.3043880">
    <ele>2619.8</ele>
    <time>2026-06-20T14:00:13Z</time>
   </trkpt>
   <trkpt lat="-3.1362760" lon="37.3043940">
    <ele>2619.9</ele>
    <time>2026-06-20T14:00:14Z</time>
   </trkpt>
   <trkpt lat="-3.1362760" lon="37.3043980">
    <ele>2620.0</ele>
    <time>2026-06-20T14:00:15Z</time>
   </trkpt>
   <trkpt lat="-3.1362770" lon="37.3044020">
    <ele>2620.1</ele>
    <time>2026-06-20T14:00:16Z</time>
   </trkpt>
   <trkpt lat="-3.1362780" lon="37.3044090">
    <ele>2620.2</ele>
    <time>2026-06-20T14:00:17Z</time>
   </trkpt>
   <trkpt lat="-3.1362810" lon="37.3044150">
    <ele>2620.4</ele>
    <time>2026-06-20T14:00:18Z</time>
   </trkpt>
   <trkpt lat="-3.1362770" lon="37.3044220">
    <ele>2620.5</ele>
    <time>2026-06-20T14:00:19Z</time>
   </trkpt>
   <trkpt lat="-3.1362810" lon="37.3044210">
    <ele>2620.6</ele>
    <time>2026-06-20T14:00:20Z</time>
   </trkpt>
   <trkpt lat="-3.1362860" lon="37.3044200">
    <ele>2620.7</ele>
    <time>2026-06-20T14:00:21Z</time>
   </trkpt>
   <trkpt lat="-3.1362890" lon="37.3044260">
    <ele>2620.9</ele>
    <time>2026-06-20T14:00:22Z</time>
   </trkpt>
   <trkpt lat="-3.1362890" lon="37.3044300">
    <ele>2621.0</ele>
    <time>2026-06-20T14:00:23Z</time>
   </trkpt>
   <trkpt lat="-3.1362940" lon="37.3044330">
    <ele>2621.1</ele>
    <time>2026-06-20T14:00:24Z</time>
   </trkpt>
   <trkpt lat="-3.1362920" lon="37.3044420">
    <ele>2621.3</ele>
    <time>2026-06-20T14:00:25Z</time>
   </trkpt>
   <trkpt lat="-3.1362960" lon="37.3044490">
    <ele>2621.5</ele>
    <time>2026-06-20T14:00:26Z</time>
   </trkpt>
   <trkpt lat="-3.1362970" lon="37.3044570">
    <ele>2621.6</ele>
    <time>2026-06-20T14:00:27Z</time>
   </trkpt>
   <trkpt lat="-3.1362960" lon="37.3044620">
    <ele>2621.7</ele>
    <time>2026-06-20T14:00:28Z</time>
   </trkpt>
   <trkpt lat="-3.1362920" lon="37.3044690">
    <ele>2621.9</ele>
    <time>2026-06-20T14:00:29Z</time>
   </trkpt>
   <trkpt lat="-3.1362880" lon="37.3044720">
    <ele>2622.0</ele>
    <time>2026-06-20T14:00:30Z</time>
   </trkpt>
   <trkpt lat="-3.1362900" lon="37.3044750">
    <ele>2622.1</ele>
    <time>2026-06-20T14:00:31Z</time>
   </trkpt>
   <trkpt lat="-3.1362900" lon="37.3044750">
    <ele>2622.1</ele>
    <time>2026-06-20T14:00:32Z</time>
   </trkpt>
   <trkpt lat="-3.1362930" lon="37.3044830">
    <ele>2622.3</ele>
    <time>2026-06-20T14:00:33Z</time>
   </trkpt>
   <trkpt lat="-3.1362940" lon="37.3044910">
    <ele>2622.4</ele>
    <time>2026-06-20T14:00:34Z</time>
   </trkpt>
   <trkpt lat="-3.1362930" lon="37.3044960">
    <ele>2622.6</ele>
    <time>2026-06-20T14:00:35Z</time>
   </trkpt>
   <trkpt lat="-3.1362890" lon="37.3045000">
    <ele>2622.7</ele>
    <time>2026-06-20T14:00:36Z</time>
   </trkpt>
   <trkpt lat="-3.1362900" lon="37.3045040">
    <ele>2622.8</ele>
    <time>2026-06-20T14:00:37Z</time>
   </trkpt>
   <trkpt lat="-3.1362920" lon="37.3045100">
    <ele>2622.9</ele>
    <time>2026-06-20T14:00:38Z</time>
   </trkpt>
   <trkpt lat="-3.1362930" lon="37.3045140">
    <ele>2623.0</ele>
    <time>2026-06-20T14:00:39Z</time>
   </trkpt>
   <trkpt lat="-3.1362950" lon="37.3045220">
    <ele>2623.2</ele>
    <time>2026-06-20T14:00:40Z</time>
   </trkpt>
   <trkpt lat="-3.1362940" lon="37.3045290">
    <ele>2623.3</ele>
    <time>2026-06-20T14:00:41Z</time>
   </trkpt>
   <trkpt lat="-3.1362920" lon="37.3045310">
    <ele>2623.4</ele>
    <time>2026-06-20T14:00:42Z</time>
   </trkpt>
   <trkpt lat="-3.1362990" lon="37.3045460">
    <ele>2623.7</ele>
    <time>2026-06-20T14:00:43Z</time>
   </trkpt>
   <trkpt lat="-3.1362980" lon="37.3045510">
    <ele>2623.8</ele>
    <time>2026-06-20T14:00:44Z</time>
   </trkpt>
   <trkpt lat="-3.1362950" lon="37.3045500">
    <ele>2623.9</ele>
    <time>2026-06-20T14:00:45Z</time>
   </trkpt>
   <trkpt lat="-3.1362940" lon="37.3045550">
    <ele>2624.0</ele>
    <time>2026-06-20T14:00:46Z</time>
   </trkpt>
   <trkpt lat="-3.1362950" lon="37.3045650">
    <ele>2624.2</ele>
    <time>2026-06-20T14:00:47Z</time>
   </trkpt>
   <trkpt lat="-3.1362950" lon="37.3045710">
    <ele>2624.3</ele>
    <time>2026-06-20T14:00:48Z</time>
   </trkpt>
   <trkpt lat="-3.1362960" lon="37.3045750">
    <ele>2624.3</ele>
    <time>2026-06-20T14:00:49Z</time>
   </trkpt>
   <trkpt lat="-3.1362980" lon="37.3045860">
    <ele>2624.5</ele>
    <time>2026-06-20T14:00:50Z</time>
   </trkpt>
   <trkpt lat="-3.1362980" lon="37.3045920">
    <ele>2624.6</ele>
    <time>2026-06-20T14:00:51Z</time>
   </trkpt>
   <trkpt lat="-3.1362970" lon="37.3045990">
    <ele>2624.7</ele>
    <time>2026-06-20T14:00:52Z</time>
   </trkpt>
   <trkpt lat="-3.1362950" lon="37.3046020">
    <ele>2624.8</ele>
    <time>2026-06-20T14:00:53Z</time>
   </trkpt>
   <trkpt lat="-3.1362960" lon="37.3046070">
    <ele>2624.8</ele>
    <time>2026-06-20T14:00:54Z</time>
   </trkpt>
   <trkpt lat="-3.1362940" lon="37.3046100">
    <ele>2624.9</ele>
    <time>2026-06-20T14:00:55Z</time>
   </trkpt>
   <trkpt lat="-3.1362960" lon="37.3046090">
    <ele>2624.9</ele>
    <time>2026-06-20T14:00:56Z</time>
   </trkpt>
   <trkpt lat="-3.1362930" lon="37.3046050">
    <ele>2625.0</ele>
    <time>2026-06-20T14:00:57Z</time>
   </trkpt>
   <trkpt lat="-3.1362920" lon="37.3046110">
    <ele>2625.1</ele>
    <time>2026-06-20T14:00:58Z</time>
   </trkpt>
   <trkpt lat="-3.1362960" lon="37.3046160">
    <ele>2625.2</ele>
    <time>2026-06-20T14:00:59Z</time>
   </trkpt>
   <trkpt lat="-3.1362960" lon="37.3046210">
    <ele>2625.3</ele>
    <time>2026-06-20T14:01:00Z</time>
   </trkpt>
   <trkpt lat="-3.1362940" lon="37.3046210">
    <ele>2625.3</ele>
    <time>2026-06-20T14:01:01Z</time>
   </trkpt>
   <trkpt lat="-3.1362910" lon="37.3046230">
    <ele>2625.4</ele>
    <time>2026-06-20T14:01:02Z</time>
   </trkpt>
   <trkpt lat="-3.1362910" lon="37.3046300">
    <ele>2625.5</ele>
    <time>2026-06-20T14:01:03Z</time>
   </trkpt>
   <trkpt lat="-3.1362870" lon="37.3046310">
    <ele>2625.5</ele>
    <time>2026-06-20T14:01:04Z</time>
   </trkpt>
   <trkpt lat="-3.1362850" lon="37.3046300">
    <ele>2625.6</ele>
    <time>2026-06-20T14:01:05Z</time>
   </trkpt>
   <trkpt lat="-3.1362830" lon="37.3046350">
    <ele>2625.6</ele>
    <time>2026-06-20T14:01:06Z</time>
   </trkpt>
   <trkpt lat="-3.1362800" lon="37.3046330">
    <ele>2625.7</ele>
    <time>2026-06-20T14:01:07Z</time>
   </trkpt>
   <trkpt lat="-3.1362810" lon="37.3046350">
    <ele>2625.7</ele>
    <time>2026-06-20T14:01:08Z</time>
   </trkpt>
   <trkpt lat="-3.1362840" lon="37.3046340">
    <ele>2625.8</ele>
    <time>2026-06-20T14:01:09Z</time>
   </trkpt>
   <trkpt lat="-3.1362820" lon="37.3046350">
    <ele>2625.8</ele>
    <time>2026-06-20T14:01:10Z</time>
   </trkpt>
   <trkpt lat="-3.1362820" lon="37.3046360">
    <ele>2625.8</ele>
    <time>2026-06-20T14:01:12Z</time>
   </trkpt>
   <trkpt lat="-3.1362790" lon="37.3046420">
    <ele>2625.9</ele>
    <time>2026-06-20T14:01:13Z</time>
   </trkpt>
   <trkpt lat="-3.1362760" lon="37.3046460">
    <ele>2626.0</ele>
    <time>2026-06-20T14:01:14Z</time>
   </trkpt>
   <trkpt lat="-3.1362710" lon="37.3046570">
    <ele>2626.2</ele>
    <time>2026-06-20T14:01:15Z</time>
   </trkpt>
   <trkpt lat="-3.1362660" lon="37.3046630">
    <ele>2626.3</ele>
    <time>2026-06-20T14:01:16Z</time>
   </trkpt>
   <trkpt lat="-3.1362680" lon="37.3046650">
    <ele>2626.4</ele>
    <time>2026-06-20T14:01:17Z</time>
   </trkpt>
   <trkpt lat="-3.1362640" lon="37.3046690">
    <ele>2626.4</ele>
    <time>2026-06-20T14:01:18Z</time>
   </trkpt>
   <trkpt lat="-3.1362630" lon="37.3046770">
    <ele>2626.6</ele>
    <time>2026-06-20T14:01:19Z</time>
   </trkpt>
   <trkpt lat="-3.1362620" lon="37.3046800">
    <ele>2626.6</ele>
    <time>2026-06-20T14:01:20Z</time>
   </trkpt>
   <trkpt lat="-3.1362610" lon="37.3046840">
    <ele>2626.7</ele>
    <time>2026-06-20T14:01:21Z</time>
   </trkpt>
   <trkpt lat="-3.1362550" lon="37.3046910">
    <ele>2626.8</ele>
    <time>2026-06-20T14:01:22Z</time>
   </trkpt>
   <trkpt lat="-3.1362540" lon="37.3046960">
    <ele>2626.9</ele>
    <time>2026-06-20T14:01:23Z</time>
   </trkpt>
   <trkpt lat="-3.1362520" lon="37.3046980">
    <ele>2627.0</ele>
    <time>2026-06-20T14:01:24Z</time>
   </trkpt>
   <trkpt lat="-3.1362530" lon="37.3046980">
    <ele>2627.0</ele>
    <time>2026-06-20T14:01:25Z</time>
   </trkpt>
   <trkpt lat="-3.1362530" lon="37.3047030">
    <ele>2627.0</ele>
    <time>2026-06-20T14:01:26Z</time>
   </trkpt>
   <trkpt lat="-3.1362500" lon="37.3047050">
    <ele>2627.1</ele>
    <time>2026-06-20T14:01:27Z</time>
   </trkpt>
   <trkpt lat="-3.1362490" lon="37.3047110">
    <ele>2627.2</ele>
    <time>2026-06-20T14:01:28Z</time>
   </trkpt>
   <trkpt lat="-3.1362460" lon="37.3047080">
    <ele>2627.3</ele>
    <time>2026-06-20T14:01:29Z</time>
   </trkpt>
   <trkpt lat="-3.1362450" lon="37.3047140">
    <ele>2627.4</ele>
    <time>2026-06-20T14:01:30Z</time>
   </trkpt>
   <trkpt lat="-3.1362420" lon="37.3047230">
    <ele>2627.5</ele>
    <time>2026-06-20T14:01:31Z</time>
   </trkpt>
   <trkpt lat="-3.1362420" lon="37.3047220">
    <ele>2627.5</ele>
    <time>2026-06-20T14:01:32Z</time>
   </trkpt>
   <trkpt lat="-3.1362410" lon="37.3047170">
    <ele>2627.6</ele>
    <time>2026-06-20T14:01:33Z</time>
   </trkpt>
   <trkpt lat="-3.1362420" lon="37.3047260">
    <ele>2627.7</ele>
    <time>2026-06-20T14:01:34Z</time>
   </trkpt>
   <trkpt lat="-3.1362410" lon="37.3047320">
    <ele>2627.8</ele>
    <time>2026-06-20T14:01:35Z</time>
   </trkpt>
   <trkpt lat="-3.1362390" lon="37.3047310">
    <ele>2627.9</ele>
    <time>2026-06-20T14:01:36Z</time>
   </trkpt>
   <trkpt lat="-3.1362370" lon="37.3047320">
    <ele>2627.9</ele>
    <time>2026-06-20T14:01:37Z</time>
   </trkpt>
   <trkpt lat="-3.1362370" lon="37.3047400">
    <ele>2628.0</ele>
    <time>2026-06-20T14:01:38Z</time>
   </trkpt>
   <trkpt lat="-3.1362390" lon="37.3047440">
    <ele>2628.1</ele>
    <time>2026-06-20T14:01:39Z</time>
   </trkpt>
   <trkpt lat="-3.1362360" lon="37.3047440">
    <ele>2628.2</ele>
    <time>2026-06-20T14:01:40Z</time>
   </trkpt>
   <trkpt lat="-3.1362320" lon="37.3047480">
    <ele>2628.2</ele>
    <time>2026-06-20T14:01:41Z</time>
   </trkpt>
   <trkpt lat="-3.1362300" lon="37.3047550">
    <ele>2628.4</ele>
    <time>2026-06-20T14:01:42Z</time>
   </trkpt>
   <trkpt lat="-3.1362310" lon="37.3047610">
    <ele>2628.4</ele>
    <time>2026-06-20T14:01:43Z</time>
   </trkpt>
   <trkpt lat="-3.1362300" lon="37.3047640">
    <ele>2628.5</ele>
    <time>2026-06-20T14:01:44Z</time>
   </trkpt>
   <trkpt lat="-3.1362270" lon="37.3047630">
    <ele>2628.5</ele>
    <time>2026-06-20T14:01:45Z</time>
   </trkpt>
   <trkpt lat="-3.1362210" lon="37.3047680">
    <ele>2628.7</ele>
    <time>2026-06-20T14:01:46Z</time>
   </trkpt>
   <trkpt lat="-3.1362230" lon="37.3047650">
    <ele>2628.7</ele>
    <time>2026-06-20T14:01:47Z</time>
   </trkpt>
   <trkpt lat="-3.1362190" lon="37.3047680">
    <ele>2628.8</ele>
    <time>2026-06-20T14:01:48Z</time>
   </trkpt>
   <trkpt lat="-3.1362130" lon="37.3047630">
    <ele>2628.9</ele>
    <time>2026-06-20T14:01:49Z</time>
   </trkpt>
   <trkpt lat="-3.1362110" lon="37.3047640">
    <ele>2629.0</ele>
    <time>2026-06-20T14:01:50Z</time>
   </trkpt>
   <trkpt lat="-3.1362160" lon="37.3047820">
    <ele>2629.3</ele>
    <time>2026-06-20T14:01:51Z</time>
   </trkpt>
   <trkpt lat="-3.1362180" lon="37.3047810">
    <ele>2629.3</ele>
    <time>2026-06-20T14:01:52Z</time>
   </trkpt>
   <trkpt lat="-3.1362220" lon="37.3047840">
    <ele>2629.4</ele>
    <time>2026-06-20T14:01:53Z</time>
   </trkpt>
   <trkpt lat="-3.1362210" lon="37.3047850">
    <ele>2629.4</ele>
    <time>2026-06-20T14:01:54Z</time>
   </trkpt>
   <trkpt lat="-3.1362250" lon="37.3047940">
    <ele>2629.5</ele>
    <time>2026-06-20T14:01:55Z</time>
   </trkpt>
   <trkpt lat="-3.1362230" lon="37.3047960">
    <ele>2629.6</ele>
    <time>2026-06-20T14:01:56Z</time>
   </trkpt>
   <trkpt lat="-3.1362260" lon="37.3048050">
    <ele>2629.7</ele>
    <time>2026-06-20T14:01:57Z</time>
   </trkpt>
   <trkpt lat="-3.1362250" lon="37.3048070">
    <ele>2629.8</ele>
    <time>2026-06-20T14:01:58Z</time>
   </trkpt>
   <trkpt lat="-3.1362280" lon="37.3048050">
    <ele>2629.8</ele>
    <time>2026-06-20T14:01:59Z</time>
   </trkpt>
   <trkpt lat="-3.1362290" lon="37.3048180">
    <ele>2630.1</ele>
    <time>2026-06-20T14:02:00Z</time>
   </trkpt>
   <trkpt lat="-3.1362320" lon="37.3048220">
    <ele>2630.1</ele>
    <time>2026-06-20T14:02:01Z</time>
   </trkpt>
   <trkpt lat="-3.1362300" lon="37.3048290">
    <ele>2630.3</ele>
    <time>2026-06-20T14:02:02Z</time>
   </trkpt>
   <trkpt lat="-3.1362290" lon="37.3048310">
    <ele>2630.3</ele>
    <time>2026-06-20T14:02:03Z</time>
   </trkpt>
   <trkpt lat="-3.1362310" lon="37.3048320">
    <ele>2630.3</ele>
    <time>2026-06-20T14:02:04Z</time>
   </trkpt>
   <trkpt lat="-3.1362360" lon="37.3048390">
    <ele>2630.5</ele>
    <time>2026-06-20T14:02:05Z</time>
   </trkpt>
   <trkpt lat="-3.1362360" lon="37.3048420">
    <ele>2630.5</ele>
    <time>2026-06-20T14:02:06Z</time>
   </trkpt>
   <trkpt lat="-3.1362400" lon="37.3048460">
    <ele>2630.6</ele>
    <time>2026-06-20T14:02:07Z</time>
   </trkpt>
   <trkpt lat="-3.1362390" lon="37.3048500">
    <ele>2630.7</ele>
    <time>2026-06-20T14:02:08Z</time>
   </trkpt>
   <trkpt lat="-3.1362340" lon="37.3048490">
    <ele>2630.8</ele>
    <time>2026-06-20T14:02:09Z</time>
   </trkpt>
   <trkpt lat="-3.1362360" lon="37.3048510">
    <ele>2630.8</ele>
    <time>2026-06-20T14:02:10Z</time>
   </trkpt>
   <trkpt lat="-3.1362340" lon="37.3048560">
    <ele>2630.9</ele>
    <time>2026-06-20T14:02:11Z</time>
   </trkpt>
   <trkpt lat="-3.1362320" lon="37.3048630">
    <ele>2631.1</ele>
    <time>2026-06-20T14:02:12Z</time>
   </trkpt>
   <trkpt lat="-3.1362340" lon="37.3048670">
    <ele>2631.1</ele>
    <time>2026-06-20T14:02:13Z</time>
   </trkpt>
   <trkpt lat="-3.1362340" lon="37.3048670">
    <ele>2631.1</ele>
    <time>2026-06-20T14:02:14Z</time>
   </trkpt>
   <trkpt lat="-3.1362320" lon="37.3048690">
    <ele>2631.2</ele>
    <time>2026-06-20T14:02:15Z</time>
   </trkpt>
   <trkpt lat="-3.1362290" lon="37.3048710">
    <ele>2631.3</ele>
    <time>2026-06-20T14:02:16Z</time>
   </trkpt>
   <trkpt lat="-3.1362310" lon="37.3048800">
    <ele>2631.4</ele>
    <time>2026-06-20T14:02:17Z</time>
   </trkpt>
   <trkpt lat="-3.1362350" lon="37.3048830">
    <ele>2631.5</ele>
    <time>2026-06-20T14:02:18Z</time>
   </trkpt>
   <trkpt lat="-3.1362350" lon="37.3048860">
    <ele>2631.6</ele>
    <time>2026-06-20T14:02:19Z</time>
   </trkpt>
   <trkpt lat="-3.1362350" lon="37.3048900">
    <ele>2631.6</ele>
    <time>2026-06-20T14:02:20Z</time>
   </trkpt>
   <trkpt lat="-3.1362360" lon="37.3048930">
    <ele>2631.7</ele>
    <time>2026-06-20T14:02:21Z</time>
   </trkpt>
   <trkpt lat="-3.1362390" lon="37.3048960">
    <ele>2631.8</ele>
    <time>2026-06-20T14:02:22Z</time>
   </trkpt>
   <trkpt lat="-3.1362410" lon="37.3048990">
    <ele>2631.9</ele>
    <time>2026-06-20T14:02:23Z</time>
   </trkpt>
   <trkpt lat="-3.1362390" lon="37.3049100">
    <ele>2632.1</ele>
    <time>2026-06-20T14:02:24Z</time>
   </trkpt>
   <trkpt lat="-3.1362420" lon="37.3049200">
    <ele>2632.2</ele>
    <time>2026-06-20T14:02:25Z</time>
   </trkpt>
   <trkpt lat="-3.1362410" lon="37.3049270">
    <ele>2632.4</ele>
    <time>2026-06-20T14:02:26Z</time>
   </trkpt>
   <trkpt lat="-3.1362400" lon="37.3049330">
    <ele>2632.5</ele>
    <time>2026-06-20T14:02:27Z</time>
   </trkpt>
   <trkpt lat="-3.1362380" lon="37.3049380">
    <ele>2632.6</ele>
    <time>2026-06-20T14:02:28Z</time>
   </trkpt>
   <trkpt lat="-3.1362350" lon="37.3049410">
    <ele>2632.7</ele>
    <time>2026-06-20T14:02:29Z</time>
   </trkpt>
   <trkpt lat="-3.1362340" lon="37.3049420">
    <ele>2632.7</ele>
    <time>2026-06-20T14:02:30Z</time>
   </trkpt>
   <trkpt lat="-3.1362330" lon="37.3049470">
    <ele>2632.8</ele>
    <time>2026-06-20T14:02:31Z</time>
   </trkpt>
   <trkpt lat="-3.1362290" lon="37.3049490">
    <ele>2632.9</ele>
    <time>2026-06-20T14:02:32Z</time>
   </trkpt>
   <trkpt lat="-3.1362370" lon="37.3049480">
    <ele>2633.0</ele>
    <time>2026-06-20T14:02:33Z</time>
   </trkpt>
   <trkpt lat="-3.1362380" lon="37.3049550">
    <ele>2633.1</ele>
    <time>2026-06-20T14:02:34Z</time>
   </trkpt>
   <trkpt lat="-3.1362440" lon="37.3049570">
    <ele>2633.3</ele>
    <time>2026-06-20T14:02:35Z</time>
   </trkpt>
   <trkpt lat="-3.1362470" lon="37.3049560">
    <ele>2633.3</ele>
    <time>2026-06-20T14:02:36Z</time>
   </trkpt>
   <trkpt lat="-3.1362520" lon="37.3049560">
    <ele>2633.4</ele>
    <time>2026-06-20T14:02:37Z</time>
   </trkpt>
   <trkpt lat="-3.1362520" lon="37.3049580">
    <ele>2633.4</ele>
    <time>2026-06-20T14:02:38Z</time>
   </trkpt>
   <trkpt lat="-3.1362610" lon="37.3049600">
    <ele>2633.6</ele>
    <time>2026-06-20T14:02:39Z</time>
   </trkpt>
   <trkpt lat="-3.1362610" lon="37.3049640">
    <ele>2633.7</ele>
    <time>2026-06-20T14:02:40Z</time>
   </trkpt>
   <trkpt lat="-3.1362710" lon="37.3049730">
    <ele>2633.9</ele>
    <time>2026-06-20T14:02:41Z</time>
   </trkpt>
   <trkpt lat="-3.1362710" lon="37.3049690">
    <ele>2634.0</ele>
    <time>2026-06-20T14:02:42Z</time>
   </trkpt>
   <trkpt lat="-3.1362740" lon="37.3049630">
    <ele>2634.1</ele>
    <time>2026-06-20T14:02:43Z</time>
   </trkpt>
   <trkpt lat="-3.1362840" lon="37.3049610">
    <ele>2634.3</ele>
    <time>2026-06-20T14:02:44Z</time>
   </trkpt>
   <trkpt lat="-3.1362890" lon="37.3049650">
    <ele>2634.4</ele>
    <time>2026-06-20T14:02:45Z</time>
   </trkpt>
   <trkpt lat="-3.1362960" lon="37.3049720">
    <ele>2634.6</ele>
    <time>2026-06-20T14:02:46Z</time>
   </trkpt>
   <trkpt lat="-3.1362960" lon="37.3049730">
    <ele>2634.6</ele>
    <time>2026-06-20T14:02:47Z</time>
   </trkpt>
   <trkpt lat="-3.1362980" lon="37.3049810">
    <ele>2634.8</ele>
    <time>2026-06-20T14:02:48Z</time>
   </trkpt>
   <trkpt lat="-3.1362930" lon="37.3049850">
    <ele>2634.9</ele>
    <time>2026-06-20T14:02:49Z</time>
   </trkpt>
   <trkpt lat="-3.1362870" lon="37.3049850">
    <ele>2635.0</ele>
    <time>2026-06-20T14:02:50Z</time>
   </trkpt>
   <trkpt lat="-3.1362850" lon="37.3049840">
    <ele>2635.0</ele>
    <time>2026-06-20T14:02:51Z</time>
   </trkpt>
   <trkpt lat="-3.1362810" lon="37.3049820">
    <ele>2635.1</ele>
    <time>2026-06-20T14:02:52Z</time>
   </trkpt>
   <trkpt lat="-3.1362770" lon="37.3049900">
    <ele>2635.3</ele>
    <time>2026-06-20T14:02:53Z</time>
   </trkpt>
   <trkpt lat="-3.1362750" lon="37.3049910">
    <ele>2635.3</ele>
    <time>2026-06-20T14:02:54Z</time>
   </trkpt>
   <trkpt lat="-3.1362750" lon="37.3049970">
    <ele>2635.4</ele>
    <time>2026-06-20T14:02:55Z</time>
   </trkpt>
   <trkpt lat="-3.1362740" lon="37.3049980">
    <ele>2635.4</ele>
    <time>2026-06-20T14:02:56Z</time>
   </trkpt>
   <trkpt lat="-3.1362630" lon="37.3050050">
    <ele>2635.6</ele>
    <time>2026-06-20T14:02:57Z</time>
   </trkpt>
   <trkpt lat="-3.1362620" lon="37.3050030">
    <ele>2635.7</ele>
    <time>2026-06-20T14:02:58Z</time>
   </trkpt>
   <trkpt lat="-3.1362600" lon="37.3050050">
    <ele>2635.7</ele>
    <time>2026-06-20T14:02:59Z</time>
   </trkpt>
   <trkpt lat="-3.1362590" lon="37.3050090">
    <ele>2635.8</ele>
    <time>2026-06-20T14:03:00Z</time>
   </trkpt>
   <trkpt lat="-3.1362590" lon="37.3050120">
    <ele>2635.8</ele>
    <time>2026-06-20T14:03:01Z</time>
   </trkpt>
   <trkpt lat="-3.1362480" lon="37.3050040">
    <ele>2636.1</ele>
    <time>2026-06-20T14:03:02Z</time>
   </trkpt>
   <trkpt lat="-3.1362450" lon="37.3050050">
    <ele>2636.1</ele>
    <time>2026-06-20T14:03:03Z</time>
   </trkpt>
   <trkpt lat="-3.1362520" lon="37.3050180">
    <ele>2636.3</ele>
    <time>2026-06-20T14:03:04Z</time>
   </trkpt>
   <trkpt lat="-3.1362450" lon="37.3050280">
    <ele>2636.5</ele>
    <time>2026-06-20T14:03:05Z</time>
   </trkpt>
   <trkpt lat="-3.1362440" lon="37.3050340">
    <ele>2636.6</ele>
    <time>2026-06-20T14:03:06Z</time>
   </trkpt>
   <trkpt lat="-3.1362490" lon="37.3050390">
    <ele>2636.7</ele>
    <time>2026-06-20T14:03:07Z</time>
   </trkpt>
   <trkpt lat="-3.1362500" lon="37.3050490">
    <ele>2636.9</ele>
    <time>2026-06-20T14:03:08Z</time>
   </trkpt>
   <trkpt lat="-3.1362470" lon="37.3050560">
    <ele>2637.0</ele>
    <time>2026-06-20T14:03:09Z</time>
   </trkpt>
   <trkpt lat="-3.1362510" lon="37.3050580">
    <ele>2637.1</ele>
    <time>2026-06-20T14:03:10Z</time>
   </trkpt>
   <trkpt lat="-3.1362530" lon="37.3050660">
    <ele>2637.2</ele>
    <time>2026-06-20T14:03:11Z</time>
   </trkpt>
   <trkpt lat="-3.1362560" lon="37.3050720">
    <ele>2637.3</ele>
    <time>2026-06-20T14:03:12Z</time>
   </trkpt>
   <trkpt lat="-3.1362570" lon="37.3050780">
    <ele>2637.4</ele>
    <time>2026-06-20T14:03:13Z</time>
   </trkpt>
   <trkpt lat="-3.1362560" lon="37.3050850">
    <ele>2637.4</ele>
    <time>2026-06-20T14:03:14Z</time>
   </trkpt>
   <trkpt lat="-3.1362550" lon="37.3050910">
    <ele>2637.5</ele>
    <time>2026-06-20T14:03:15Z</time>
   </trkpt>
   <trkpt lat="-3.1362560" lon="37.3050980">
    <ele>2637.6</ele>
    <time>2026-06-20T14:03:16Z</time>
   </trkpt>
   <trkpt lat="-3.1362580" lon="37.3051020">
    <ele>2637.7</ele>
    <time>2026-06-20T14:03:18Z</time>
   </trkpt>
   <trkpt lat="-3.1362610" lon="37.3051090">
    <ele>2637.8</ele>
    <time>2026-06-20T14:03:19Z</time>
   </trkpt>
   <trkpt lat="-3.1362740" lon="37.3051140">
    <ele>2638.0</ele>
    <time>2026-06-20T14:03:20Z</time>
   </trkpt>
   <trkpt lat="-3.1362740" lon="37.3051140">
    <ele>2638.0</ele>
    <time>2026-06-20T14:03:21Z</time>
   </trkpt>
   <trkpt lat="-3.1362760" lon="37.3051220">
    <ele>2638.1</ele>
    <time>2026-06-20T14:03:22Z</time>
   </trkpt>
   <trkpt lat="-3.1362800" lon="37.3051280">
    <ele>2638.2</ele>
    <time>2026-06-20T14:03:23Z</time>
   </trkpt>
   <trkpt lat="-3.1362790" lon="37.3051330">
    <ele>2638.3</ele>
    <time>2026-06-20T14:03:24Z</time>
   </trkpt>
   <trkpt lat="-3.1362760" lon="37.3051340">
    <ele>2638.3</ele>
    <time>2026-06-20T14:03:25Z</time>
   </trkpt>
   <trkpt lat="-3.1362730" lon="37.3051400">
    <ele>2638.4</ele>
    <time>2026-06-20T14:03:26Z</time>
   </trkpt>
   <trkpt lat="-3.1362710" lon="37.3051500">
    <ele>2638.6</ele>
    <time>2026-06-20T14:03:27Z</time>
   </trkpt>
   <trkpt lat="-3.1362680" lon="37.3051560">
    <ele>2638.6</ele>
    <time>2026-06-20T14:03:28Z</time>
   </trkpt>
   <trkpt lat="-3.1362660" lon="37.3051630">
    <ele>2638.7</ele>
    <time>2026-06-20T14:03:29Z</time>
   </trkpt>
   <trkpt lat="-3.1362620" lon="37.3051680">
    <ele>2638.8</ele>
    <time>2026-06-20T14:03:30Z</time>
   </trkpt>
   <trkpt lat="-3.1362520" lon="37.3051730">
    <ele>2639.0</ele>
    <time>2026-06-20T14:03:31Z</time>
   </trkpt>
   <trkpt lat="-3.1362540" lon="37.3051890">
    <ele>2639.2</ele>
    <time>2026-06-20T14:03:32Z</time>
   </trkpt>
   <trkpt lat="-3.1362540" lon="37.3051970">
    <ele>2639.3</ele>
    <time>2026-06-20T14:03:33Z</time>
   </trkpt>
   <trkpt lat="-3.1362530" lon="37.3051990">
    <ele>2639.4</ele>
    <time>2026-06-20T14:03:34Z</time>
   </trkpt>
   <trkpt lat="-3.1362600" lon="37.3052040">
    <ele>2639.5</ele>
    <time>2026-06-20T14:03:35Z</time>
   </trkpt>
   <trkpt lat="-3.1362580" lon="37.3052100">
    <ele>2639.6</ele>
    <time>2026-06-20T14:03:36Z</time>
   </trkpt>
   <trkpt lat="-3.1362660" lon="37.3052130">
    <ele>2639.7</ele>
    <time>2026-06-20T14:03:37Z</time>
   </trkpt>
   <trkpt lat="-3.1362710" lon="37.3052140">
    <ele>2639.8</ele>
    <time>2026-06-20T14:03:38Z</time>
   </trkpt>
   <trkpt lat="-3.1362720" lon="37.3052220">
    <ele>2639.9</ele>
    <time>2026-06-20T14:03:39Z</time>
   </trkpt>
   <trkpt lat="-3.1362740" lon="37.3052270">
    <ele>2639.9</ele>
    <time>2026-06-20T14:03:40Z</time>
   </trkpt>
   <trkpt lat="-3.1362720" lon="37.3052290">
    <ele>2640.0</ele>
    <time>2026-06-20T14:03:41Z</time>
   </trkpt>
   <trkpt lat="-3.1362730" lon="37.3052420">
    <ele>2640.2</ele>
    <time>2026-06-20T14:03:42Z</time>
   </trkpt>
   <trkpt lat="-3.1362720" lon="37.3052460">
    <ele>2640.2</ele>
    <time>2026-06-20T14:03:43Z</time>
   </trkpt>
   <trkpt lat="-3.1362770" lon="37.3052540">
    <ele>2640.3</ele>
    <time>2026-06-20T14:03:44Z</time>
   </trkpt>
   <trkpt lat="-3.1362780" lon="37.3052540">
    <ele>2640.4</ele>
    <time>2026-06-20T14:03:45Z</time>
   </trkpt>
   <trkpt lat="-3.1362820" lon="37.3052570">
    <ele>2640.4</ele>
    <time>2026-06-20T14:03:46Z</time>
   </trkpt>
   <trkpt lat="-3.1362930" lon="37.3052590">
    <ele>2640.6</ele>
    <time>2026-06-20T14:03:47Z</time>
   </trkpt>
   <trkpt lat="-3.1362990" lon="37.3052600">
    <ele>2640.7</ele>
    <time>2026-06-20T14:03:48Z</time>
   </trkpt>
   <trkpt lat="-3.1363040" lon="37.3052590">
    <ele>2640.7</ele>
    <time>2026-06-20T14:03:49Z</time>
   </trkpt>
   <trkpt lat="-3.1363090" lon="37.3052590">
    <ele>2640.8</ele>
    <time>2026-06-20T14:03:50Z</time>
   </trkpt>
   <trkpt lat="-3.1363120" lon="37.3052570">
    <ele>2640.9</ele>
    <time>2026-06-20T14:03:51Z</time>
   </trkpt>
   <trkpt lat="-3.1363280" lon="37.3052710">
    <ele>2641.2</ele>
    <time>2026-06-20T14:03:52Z</time>
   </trkpt>
   <trkpt lat="-3.1363370" lon="37.3052720">
    <ele>2641.3</ele>
    <time>2026-06-20T14:03:53Z</time>
   </trkpt>
   <trkpt lat="-3.1363430" lon="37.3052780">
    <ele>2641.4</ele>
    <time>2026-06-20T14:03:54Z</time>
   </trkpt>
   <trkpt lat="-3.1363490" lon="37.3052790">
    <ele>2641.5</ele>
    <time>2026-06-20T14:03:55Z</time>
   </trkpt>
   <trkpt lat="-3.1363540" lon="37.3052830">
    <ele>2641.6</ele>
    <time>2026-06-20T14:03:56Z</time>
   </trkpt>
   <trkpt lat="-3.1363590" lon="37.3052860">
    <ele>2641.7</ele>
    <time>2026-06-20T14:03:57Z</time>
   </trkpt>
   <trkpt lat="-3.1363620" lon="37.3052920">
    <ele>2641.8</ele>
    <time>2026-06-20T14:03:58Z</time>
   </trkpt>
   <trkpt lat="-3.1363580" lon="37.3052980">
    <ele>2641.9</ele>
    <time>2026-06-20T14:03:59Z</time>
   </trkpt>
   <trkpt lat="-3.1363560" lon="37.3053050">
    <ele>2642.0</ele>
    <time>2026-06-20T14:04:00Z</time>
   </trkpt>
   <trkpt lat="-3.1363630" lon="37.3053110">
    <ele>2642.1</ele>
    <time>2026-06-20T14:04:01Z</time>
   </trkpt>
   <trkpt lat="-3.1363640" lon="37.3053130">
    <ele>2642.1</ele>
    <time>2026-06-20T14:04:02Z</time>
   </trkpt>
   <trkpt lat="-3.1363660" lon="37.3053110">
    <ele>2642.2</ele>
    <time>2026-06-20T14:04:03Z</time>
   </trkpt>
   <trkpt lat="-3.1363660" lon="37.3053150">
    <ele>2642.2</ele>
    <time>2026-06-20T14:04:04Z</time>
   </trkpt>
   <trkpt lat="-3.1363640" lon="37.3053200">
    <ele>2642.3</ele>
    <time>2026-06-20T14:04:05Z</time>
   </trkpt>
   <trkpt lat="-3.1363640" lon="37.3053270">
    <ele>2642.4</ele>
    <time>2026-06-20T14:04:06Z</time>
   </trkpt>
   <trkpt lat="-3.1363620" lon="37.3053320">
    <ele>2642.5</ele>
    <time>2026-06-20T14:04:07Z</time>
   </trkpt>
   <trkpt lat="-3.1363570" lon="37.3053360">
    <ele>2642.6</ele>
    <time>2026-06-20T14:04:08Z</time>
   </trkpt>
   <trkpt lat="-3.1363560" lon="37.3053420">
    <ele>2642.7</ele>
    <time>2026-06-20T14:04:09Z</time>
   </trkpt>
   <trkpt lat="-3.1363540" lon="37.3053450">
    <ele>2642.8</ele>
    <time>2026-06-20T14:04:10Z</time>
   </trkpt>
   <trkpt lat="-3.1363540" lon="37.3053450">
    <ele>2642.8</ele>
    <time>2026-06-20T14:04:11Z</time>
   </trkpt>
   <trkpt lat="-3.1363570" lon="37.3053530">
    <ele>2642.9</ele>
    <time>2026-06-20T14:04:12Z</time>
   </trkpt>
   <trkpt lat="-3.1363600" lon="37.3053580">
    <ele>2643.0</ele>
    <time>2026-06-20T14:04:13Z</time>
   </trkpt>
   <trkpt lat="-3.1363630" lon="37.3053650">
    <ele>2643.1</ele>
    <time>2026-06-20T14:04:14Z</time>
   </trkpt>
   <trkpt lat="-3.1363620" lon="37.3053600">
    <ele>2643.2</ele>
    <time>2026-06-20T14:04:15Z</time>
   </trkpt>
   <trkpt lat="-3.1363620" lon="37.3053580">
    <ele>2643.2</ele>
    <time>2026-06-20T14:04:16Z</time>
   </trkpt>
   <trkpt lat="-3.1363610" lon="37.3053630">
    <ele>2643.3</ele>
    <time>2026-06-20T14:04:17Z</time>
   </trkpt>
   <trkpt lat="-3.1363610" lon="37.3053670">
    <ele>2643.4</ele>
    <time>2026-06-20T14:04:18Z</time>
   </trkpt>
   <trkpt lat="-3.1363610" lon="37.3053650">
    <ele>2643.4</ele>
    <time>2026-06-20T14:04:19Z</time>
   </trkpt>
   <trkpt lat="-3.1363570" lon="37.3053630">
    <ele>2643.5</ele>
    <time>2026-06-20T14:04:20Z</time>
   </trkpt>
   <trkpt lat="-3.1363570" lon="37.3053670">
    <ele>2643.5</ele>
    <time>2026-06-20T14:04:21Z</time>
   </trkpt>
   <trkpt lat="-3.1363570" lon="37.3053700">
    <ele>2643.6</ele>
    <time>2026-06-20T14:04:22Z</time>
   </trkpt>
   <trkpt lat="-3.1363700" lon="37.3053860">
    <ele>2643.9</ele>
    <time>2026-06-20T14:04:23Z</time>
   </trkpt>
   <trkpt lat="-3.1363740" lon="37.3053940">
    <ele>2644.1</ele>
    <time>2026-06-20T14:04:24Z</time>
   </trkpt>
   <trkpt lat="-3.1363820" lon="37.3053980">
    <ele>2644.2</ele>
    <time>2026-06-20T14:04:25Z</time>
   </trkpt>
   <trkpt lat="-3.1363790" lon="37.3053990">
    <ele>2644.3</ele>
    <time>2026-06-20T14:04:26Z</time>
   </trkpt>
   <trkpt lat="-3.1363770" lon="37.3054040">
    <ele>2644.4</ele>
    <time>2026-06-20T14:04:27Z</time>
   </trkpt>
   <trkpt lat="-3.1363790" lon="37.3054120">
    <ele>2644.5</ele>
    <time>2026-06-20T14:04:28Z</time>
   </trkpt>
   <trkpt lat="-3.1363820" lon="37.3054160">
    <ele>2644.6</ele>
    <time>2026-06-20T14:04:29Z</time>
   </trkpt>
   <trkpt lat="-3.1363900" lon="37.3054170">
    <ele>2644.8</ele>
    <time>2026-06-20T14:04:30Z</time>
   </trkpt>
   <trkpt lat="-3.1363960" lon="37.3054170">
    <ele>2644.9</ele>
    <time>2026-06-20T14:04:31Z</time>
   </trkpt>
   <trkpt lat="-3.1364020" lon="37.3054170">
    <ele>2645.0</ele>
    <time>2026-06-20T14:04:32Z</time>
   </trkpt>
   <trkpt lat="-3.1364130" lon="37.3054210">
    <ele>2645.2</ele>
    <time>2026-06-20T14:04:33Z</time>
   </trkpt>
   <trkpt lat="-3.1364140" lon="37.3054270">
    <ele>2645.3</ele>
    <time>2026-06-20T14:04:34Z</time>
   </trkpt>
   <trkpt lat="-3.1364100" lon="37.3054310">
    <ele>2645.4</ele>
    <time>2026-06-20T14:04:35Z</time>
   </trkpt>
   <trkpt lat="-3.1364140" lon="37.3054350">
    <ele>2645.5</ele>
    <time>2026-06-20T14:04:36Z</time>
   </trkpt>
   <trkpt lat="-3.1364130" lon="37.3054350">
    <ele>2645.5</ele>
    <time>2026-06-20T14:04:37Z</time>
   </trkpt>
   <trkpt lat="-3.1364190" lon="37.3054350">
    <ele>2645.6</ele>
    <time>2026-06-20T14:04:38Z</time>
   </trkpt>
   <trkpt lat="-3.1364260" lon="37.3054360">
    <ele>2645.8</ele>
    <time>2026-06-20T14:04:39Z</time>
   </trkpt>
   <trkpt lat="-3.1364300" lon="37.3054370">
    <ele>2645.8</ele>
    <time>2026-06-20T14:04:40Z</time>
   </trkpt>
   <trkpt lat="-3.1364370" lon="37.3054290">
    <ele>2646.0</ele>
    <time>2026-06-20T14:04:41Z</time>
   </trkpt>
   <trkpt lat="-3.1364460" lon="37.3054200">
    <ele>2646.3</ele>
    <time>2026-06-20T14:04:42Z</time>
   </trkpt>
   <trkpt lat="-3.1364510" lon="37.3054190">
    <ele>2646.4</ele>
    <time>2026-06-20T14:04:43Z</time>
   </trkpt>
   <trkpt lat="-3.1364550" lon="37.3054210">
    <ele>2646.5</ele>
    <time>2026-06-20T14:04:44Z</time>
   </trkpt>
   <trkpt lat="-3.1364540" lon="37.3054250">
    <ele>2646.5</ele>
    <time>2026-06-20T14:04:45Z</time>
   </trkpt>
   <trkpt lat="-3.1364580" lon="37.3054330">
    <ele>2646.7</ele>
    <time>2026-06-20T14:04:46Z</time>
   </trkpt>
   <trkpt lat="-3.1364540" lon="37.3054360">
    <ele>2646.8</ele>
    <time>2026-06-20T14:04:47Z</time>
   </trkpt>
   <trkpt lat="-3.1364530" lon="37.3054390">
    <ele>2646.9</ele>
    <time>2026-06-20T14:04:48Z</time>
   </trkpt>
   <trkpt lat="-3.1364540" lon="37.3054380">
    <ele>2646.9</ele>
    <time>2026-06-20T14:04:49Z</time>
   </trkpt>
   <trkpt lat="-3.1364570" lon="37.3054430">
    <ele>2647.0</ele>
    <time>2026-06-20T14:04:50Z</time>
   </trkpt>
   <trkpt lat="-3.1364590" lon="37.3054420">
    <ele>2647.1</ele>
    <time>2026-06-20T14:04:51Z</time>
   </trkpt>
   <trkpt lat="-3.1364640" lon="37.3054460">
    <ele>2647.2</ele>
    <time>2026-06-20T14:04:52Z</time>
   </trkpt>
   <trkpt lat="-3.1364650" lon="37.3054490">
    <ele>2647.2</ele>
    <time>2026-06-20T14:04:53Z</time>
   </trkpt>
   <trkpt lat="-3.1364660" lon="37.3054590">
    <ele>2647.4</ele>
    <time>2026-06-20T14:04:54Z</time>
   </trkpt>
   <trkpt lat="-3.1364640" lon="37.3054620">
    <ele>2647.5</ele>
    <time>2026-06-20T14:04:55Z</time>
   </trkpt>
   <trkpt lat="-3.1364690" lon="37.3054710">
    <ele>2647.7</ele>
    <time>2026-06-20T14:04:56Z</time>
   </trkpt>
   <trkpt lat="-3.1364770" lon="37.3054700">
    <ele>2647.9</ele>
    <time>2026-06-20T14:04:57Z</time>
   </trkpt>
   <trkpt lat="-3.1364760" lon="37.3054740">
    <ele>2648.0</ele>
    <time>2026-06-20T14:04:58Z</time>
   </trkpt>
   <trkpt lat="-3.1364710" lon="37.3054770">
    <ele>2648.1</ele>
    <time>2026-06-20T14:04:59Z</time>
   </trkpt>
   <trkpt lat="-3.1364690" lon="37.3054800">
    <ele>2648.2</ele>
    <time>2026-06-20T14:05:00Z</time>
   </trkpt>
   <trkpt lat="-3.1364720" lon="37.3054800">
    <ele>2648.2</ele>
    <time>2026-06-20T14:05:01Z</time>
   </trkpt>
   <trkpt lat="-3.1364730" lon="37.3054850">
    <ele>2648.3</ele>
    <time>2026-06-20T14:05:02Z</time>
   </trkpt>
   <trkpt lat="-3.1364760" lon="37.3054880">
    <ele>2648.4</ele>
    <time>2026-06-20T14:05:03Z</time>
   </trkpt>
   <trkpt lat="-3.1364820" lon="37.3054910">
    <ele>2648.6</ele>
    <time>2026-06-20T14:05:04Z</time>
   </trkpt>
   <trkpt lat="-3.1364850" lon="37.3054890">
    <ele>2648.6</ele>
    <time>2026-06-20T14:05:05Z</time>
   </trkpt>
   <trkpt lat="-3.1364850" lon="37.3054880">
    <ele>2648.7</ele>
    <time>2026-06-20T14:05:06Z</time>
   </trkpt>
   <trkpt lat="-3.1364940" lon="37.3054900">
    <ele>2648.8</ele>
    <time>2026-06-20T14:05:07Z</time>
   </trkpt>
   <trkpt lat="-3.1365040" lon="37.3054890">
    <ele>2649.0</ele>
    <time>2026-06-20T14:05:08Z</time>
   </trkpt>
   <trkpt lat="-3.1365140" lon="37.3054900">
    <ele>2649.3</ele>
    <time>2026-06-20T14:05:09Z</time>
   </trkpt>
   <trkpt lat="-3.1365190" lon="37.3054890">
    <ele>2649.4</ele>
    <time>2026-06-20T14:05:10Z</time>
   </trkpt>
   <trkpt lat="-3.1365240" lon="37.3054870">
    <ele>2649.5</ele>
    <time>2026-06-20T14:05:11Z</time>
   </trkpt>
   <trkpt lat="-3.1365230" lon="37.3054870">
    <ele>2649.5</ele>
    <time>2026-06-20T14:05:12Z</time>
   </trkpt>
   <trkpt lat="-3.1365210" lon="37.3054880">
    <ele>2649.5</ele>
    <time>2026-06-20T14:05:13Z</time>
   </trkpt>
   <trkpt lat="-3.1365210" lon="37.3054900">
    <ele>2649.6</ele>
    <time>2026-06-20T14:05:14Z</time>
   </trkpt>
   <trkpt lat="-3.1365180" lon="37.3054880">
    <ele>2649.6</ele>
    <time>2026-06-20T14:05:15Z</time>
   </trkpt>
   <trkpt lat="-3.1365160" lon="37.3054890">
    <ele>2649.7</ele>
    <time>2026-06-20T14:05:16Z</time>
   </trkpt>
   <trkpt lat="-3.1365160" lon="37.3054890">
    <ele>2649.7</ele>
    <time>2026-06-20T14:05:17Z</time>
   </trkpt>
   <trkpt lat="-3.1365160" lon="37.3054890">
    <ele>2649.7</ele>
    <time>2026-06-20T14:05:18Z</time>
   </trkpt>
   <trkpt lat="-3.1365060" lon="37.3054830">
    <ele>2649.9</ele>
    <time>2026-06-20T14:05:19Z</time>
   </trkpt>
   <trkpt lat="-3.1365040" lon="37.3054800">
    <ele>2650.0</ele>
    <time>2026-06-20T14:05:20Z</time>
   </trkpt>
   <trkpt lat="-3.1365040" lon="37.3054790">
    <ele>2650.0</ele>
    <time>2026-06-20T14:05:21Z</time>
   </trkpt>
   <trkpt lat="-3.1365010" lon="37.3054800">
    <ele>2650.1</ele>
    <time>2026-06-20T14:05:22Z</time>
   </trkpt>
   <trkpt lat="-3.1364990" lon="37.3054790">
    <ele>2650.1</ele>
    <time>2026-06-20T14:05:24Z</time>
   </trkpt>
   <trkpt lat="-3.1364970" lon="37.3054790">
    <ele>2650.2</ele>
    <time>2026-06-20T14:05:25Z</time>
   </trkpt>
   <trkpt lat="-3.1364950" lon="37.3054770">
    <ele>2650.2</ele>
    <time>2026-06-20T14:05:26Z</time>
   </trkpt>
   <trkpt lat="-3.1364950" lon="37.3054770">
    <ele>2650.2</ele>
    <time>2026-06-20T14:05:27Z</time>
   </trkpt>
   <trkpt lat="-3.1364910" lon="37.3054760">
    <ele>2650.3</ele>
    <time>2026-06-20T14:05:28Z</time>
   </trkpt>
   <trkpt lat="-3.1364920" lon="37.3054730">
    <ele>2650.4</ele>
    <time>2026-06-20T14:05:29Z</time>
   </trkpt>
   <trkpt lat="-3.1364900" lon="37.3054700">
    <ele>2650.4</ele>
    <time>2026-06-20T14:05:30Z</time>
   </trkpt>
   <trkpt lat="-3.1364900" lon="37.3054690">
    <ele>2650.5</ele>
    <time>2026-06-20T14:05:31Z</time>
   </trkpt>
   <trkpt lat="-3.1364900" lon="37.3054690">
    <ele>2650.5</ele>
    <time>2026-06-20T14:05:32Z</time>
   </trkpt>
   <trkpt lat="-3.1364900" lon="37.3054690">
    <ele>2650.5</ele>
    <time>2026-06-20T14:05:33Z</time>
   </trkpt>
   <trkpt lat="-3.1364860" lon="37.3054700">
    <ele>2650.5</ele>
    <time>2026-06-20T14:05:34Z</time>
   </trkpt>
   <trkpt lat="-3.1364870" lon="37.3054700">
    <ele>2650.6</ele>
    <time>2026-06-20T14:05:35Z</time>
   </trkpt>
   <trkpt lat="-3.1364800" lon="37.3054680">
    <ele>2650.7</ele>
    <time>2026-06-20T14:05:36Z</time>
   </trkpt>
   <trkpt lat="-3.1364760" lon="37.3054690">
    <ele>2650.8</ele>
    <time>2026-06-20T14:05:37Z</time>
   </trkpt>
   <trkpt lat="-3.1364750" lon="37.3054690">
    <ele>2650.8</ele>
    <time>2026-06-20T14:05:38Z</time>
   </trkpt>
   <trkpt lat="-3.1364750" lon="37.3054640">
    <ele>2650.9</ele>
    <time>2026-06-20T14:05:39Z</time>
   </trkpt>
   <trkpt lat="-3.1364750" lon="37.3054640">
    <ele>2650.9</ele>
    <time>2026-06-20T14:05:40Z</time>
   </trkpt>
   <trkpt lat="-3.1364750" lon="37.3054640">
    <ele>2650.9</ele>
    <time>2026-06-20T14:05:41Z</time>
   </trkpt>
   <trkpt lat="-3.1364750" lon="37.3054640">
    <ele>2650.9</ele>
    <time>2026-06-20T14:05:42Z</time>
   </trkpt>
   <trkpt lat="-3.1364770" lon="37.3054700">
    <ele>2651.0</ele>
    <time>2026-06-20T14:05:43Z</time>
   </trkpt>
   <trkpt lat="-3.1364760" lon="37.3054690">
    <ele>2651.1</ele>
    <time>2026-06-20T14:05:44Z</time>
   </trkpt>
   <trkpt lat="-3.1364840" lon="37.3054730">
    <ele>2651.2</ele>
    <time>2026-06-20T14:05:45Z</time>
   </trkpt>
   <trkpt lat="-3.1364830" lon="37.3054730">
    <ele>2651.2</ele>
    <time>2026-06-20T14:05:46Z</time>
   </trkpt>
   <trkpt lat="-3.1364870" lon="37.3054710">
    <ele>2651.3</ele>
    <time>2026-06-20T14:05:47Z</time>
   </trkpt>
   <trkpt lat="-3.1364870" lon="37.3054710">
    <ele>2651.3</ele>
    <time>2026-06-20T14:05:48Z</time>
   </trkpt>
   <trkpt lat="-3.1364870" lon="37.3054710">
    <ele>2651.3</ele>
    <time>2026-06-20T14:05:49Z</time>
   </trkpt>
   <trkpt lat="-3.1364870" lon="37.3054710">
    <ele>2651.3</ele>
    <time>2026-06-20T14:05:50Z</time>
   </trkpt>
   <trkpt lat="-3.1364870" lon="37.3054710">
    <ele>2651.3</ele>
    <time>2026-06-20T14:05:51Z</time>
   </trkpt>
   <trkpt lat="-3.1364870" lon="37.3054710">
    <ele>2651.3</ele>
    <time>2026-06-20T14:05:52Z</time>
   </trkpt>
   <trkpt lat="-3.1364870" lon="37.3054710">
    <ele>2651.3</ele>
    <time>2026-06-20T14:05:53Z</time>
   </trkpt>
   <trkpt lat="-3.1364870" lon="37.3054710">
    <ele>2651.3</ele>
    <time>2026-06-20T14:05:54Z</time>
   </trkpt>
   <trkpt lat="-3.1365010" lon="37.3054810">
    <ele>2651.7</ele>
    <time>2026-06-20T14:05:55Z</time>
   </trkpt>
   <trkpt lat="-3.1365030" lon="37.3054820">
    <ele>2651.7</ele>
    <time>2026-06-20T14:05:56Z</time>
   </trkpt>
   <trkpt lat="-3.1365070" lon="37.3054850">
    <ele>2651.8</ele>
    <time>2026-06-20T14:05:57Z</time>
   </trkpt>
   <trkpt lat="-3.1365110" lon="37.3054860">
    <ele>2651.9</ele>
    <time>2026-06-20T14:05:58Z</time>
   </trkpt>
   <trkpt lat="-3.1365100" lon="37.3054840">
    <ele>2651.9</ele>
    <time>2026-06-20T14:05:59Z</time>
   </trkpt>
   <trkpt lat="-3.1365110" lon="37.3054810">
    <ele>2652.0</ele>
    <time>2026-06-20T14:06:00Z</time>
   </trkpt>
   <trkpt lat="-3.1365150" lon="37.3054840">
    <ele>2652.1</ele>
    <time>2026-06-20T14:06:01Z</time>
   </trkpt>
   <trkpt lat="-3.1365140" lon="37.3054940">
    <ele>2652.3</ele>
    <time>2026-06-20T14:06:02Z</time>
   </trkpt>
   <trkpt lat="-3.1365080" lon="37.3054890">
    <ele>2652.4</ele>
    <time>2026-06-20T14:06:03Z</time>
   </trkpt>
   <trkpt lat="-3.1365060" lon="37.3054920">
    <ele>2652.5</ele>
    <time>2026-06-20T14:06:04Z</time>
   </trkpt>
   <trkpt lat="-3.1365120" lon="37.3054870">
    <ele>2652.7</ele>
    <time>2026-06-20T14:06:05Z</time>
   </trkpt>
   <trkpt lat="-3.1365100" lon="37.3054880">
    <ele>2652.7</ele>
    <time>2026-06-20T14:06:06Z</time>
   </trkpt>
   <trkpt lat="-3.1365180" lon="37.3054860">
    <ele>2652.9</ele>
    <time>2026-06-20T14:06:07Z</time>
   </trkpt>
   <trkpt lat="-3.1365240" lon="37.3054850">
    <ele>2653.0</ele>
    <time>2026-06-20T14:06:08Z</time>
   </trkpt>
   <trkpt lat="-3.1365290" lon="37.3054820">
    <ele>2653.1</ele>
    <time>2026-06-20T14:06:09Z</time>
   </trkpt>
   <trkpt lat="-3.1365330" lon="37.3054840">
    <ele>2653.2</ele>
    <time>2026-06-20T14:06:10Z</time>
   </trkpt>
   <trkpt lat="-3.1365370" lon="37.3054880">
    <ele>2653.3</ele>
    <time>2026-06-20T14:06:11Z</time>
   </trkpt>
   <trkpt lat="-3.1365350" lon="37.3054880">
    <ele>2653.3</ele>
    <time>2026-06-20T14:06:12Z</time>
   </trkpt>
   <trkpt lat="-3.1365390" lon="37.3054910">
    <ele>2653.4</ele>
    <time>2026-06-20T14:06:13Z</time>
   </trkpt>
   <trkpt lat="-3.1365460" lon="37.3054900">
    <ele>2653.5</ele>
    <time>2026-06-20T14:06:14Z</time>
   </trkpt>
   <trkpt lat="-3.1365500" lon="37.3054960">
    <ele>2653.6</ele>
    <time>2026-06-20T14:06:15Z</time>
   </trkpt>
   <trkpt lat="-3.1365490" lon="37.3054960">
    <ele>2653.7</ele>
    <time>2026-06-20T14:06:16Z</time>
   </trkpt>
   <trkpt lat="-3.1365530" lon="37.3054970">
    <ele>2653.7</ele>
    <time>2026-06-20T14:06:17Z</time>
   </trkpt>
   <trkpt lat="-3.1365610" lon="37.3054930">
    <ele>2653.9</ele>
    <time>2026-06-20T14:06:18Z</time>
   </trkpt>
   <trkpt lat="-3.1365660" lon="37.3054940">
    <ele>2654.0</ele>
    <time>2026-06-20T14:06:19Z</time>
   </trkpt>
   <trkpt lat="-3.1365690" lon="37.3054940">
    <ele>2654.0</ele>
    <time>2026-06-20T14:06:20Z</time>
   </trkpt>
   <trkpt lat="-3.1365700" lon="37.3054970">
    <ele>2654.1</ele>
    <time>2026-06-20T14:06:21Z</time>
   </trkpt>
   <trkpt lat="-3.1365710" lon="37.3054960">
    <ele>2654.1</ele>
    <time>2026-06-20T14:06:22Z</time>
   </trkpt>
   <trkpt lat="-3.1365740" lon="37.3054920">
    <ele>2654.2</ele>
    <time>2026-06-20T14:06:23Z</time>
   </trkpt>
   <trkpt lat="-3.1365820" lon="37.3054950">
    <ele>2654.3</ele>
    <time>2026-06-20T14:06:24Z</time>
   </trkpt>
   <trkpt lat="-3.1365910" lon="37.3054960">
    <ele>2654.5</ele>
    <time>2026-06-20T14:06:25Z</time>
   </trkpt>
   <trkpt lat="-3.1365980" lon="37.3054950">
    <ele>2654.6</ele>
    <time>2026-06-20T14:06:26Z</time>
   </trkpt>
   <trkpt lat="-3.1366080" lon="37.3054910">
    <ele>2654.8</ele>
    <time>2026-06-20T14:06:27Z</time>
   </trkpt>
   <trkpt lat="-3.1366230" lon="37.3054940">
    <ele>2655.0</ele>
    <time>2026-06-20T14:06:28Z</time>
   </trkpt>
   <trkpt lat="-3.1366270" lon="37.3054990">
    <ele>2655.1</ele>
    <time>2026-06-20T14:06:29Z</time>
   </trkpt>
   <trkpt lat="-3.1366330" lon="37.3055020">
    <ele>2655.3</ele>
    <time>2026-06-20T14:06:30Z</time>
   </trkpt>
   <trkpt lat="-3.1366360" lon="37.3055060">
    <ele>2655.3</ele>
    <time>2026-06-20T14:06:31Z</time>
   </trkpt>
   <trkpt lat="-3.1366400" lon="37.3055120">
    <ele>2655.5</ele>
    <time>2026-06-20T14:06:32Z</time>
   </trkpt>
   <trkpt lat="-3.1366430" lon="37.3055150">
    <ele>2655.5</ele>
    <time>2026-06-20T14:06:33Z</time>
   </trkpt>
   <trkpt lat="-3.1366450" lon="37.3055200">
    <ele>2655.6</ele>
    <time>2026-06-20T14:06:34Z</time>
   </trkpt>
   <trkpt lat="-3.1366570" lon="37.3055230">
    <ele>2655.8</ele>
    <time>2026-06-20T14:06:35Z</time>
   </trkpt>
   <trkpt lat="-3.1366590" lon="37.3055390">
    <ele>2656.0</ele>
    <time>2026-06-20T14:06:36Z</time>
   </trkpt>
   <trkpt lat="-3.1366630" lon="37.3055420">
    <ele>2656.1</ele>
    <time>2026-06-20T14:06:37Z</time>
   </trkpt>
   <trkpt lat="-3.1366660" lon="37.3055530">
    <ele>2656.2</ele>
    <time>2026-06-20T14:06:38Z</time>
   </trkpt>
   <trkpt lat="-3.1366760" lon="37.3055570">
    <ele>2656.4</ele>
    <time>2026-06-20T14:06:39Z</time>
   </trkpt>
   <trkpt lat="-3.1366810" lon="37.3055610">
    <ele>2656.5</ele>
    <time>2026-06-20T14:06:40Z</time>
   </trkpt>
   <trkpt lat="-3.1366850" lon="37.3055680">
    <ele>2656.6</ele>
    <time>2026-06-20T14:06:41Z</time>
   </trkpt>
   <trkpt lat="-3.1366870" lon="37.3055660">
    <ele>2656.6</ele>
    <time>2026-06-20T14:06:42Z</time>
   </trkpt>
   <trkpt lat="-3.1366870" lon="37.3055770">
    <ele>2656.8</ele>
    <time>2026-06-20T14:06:43Z</time>
   </trkpt>
   <trkpt lat="-3.1366900" lon="37.3055810">
    <ele>2656.8</ele>
    <time>2026-06-20T14:06:44Z</time>
   </trkpt>
   <trkpt lat="-3.1366980" lon="37.3055880">
    <ele>2656.9</ele>
    <time>2026-06-20T14:06:45Z</time>
   </trkpt>
   <trkpt lat="-3.1367020" lon="37.3055910">
    <ele>2657.0</ele>
    <time>2026-06-20T14:06:46Z</time>
   </trkpt>
   <trkpt lat="-3.1367050" lon="37.3056020">
    <ele>2657.1</ele>
    <time>2026-06-20T14:06:47Z</time>
   </trkpt>
   <trkpt lat="-3.1367080" lon="37.3056050">
    <ele>2657.2</ele>
    <time>2026-06-20T14:06:48Z</time>
   </trkpt>
   <trkpt lat="-3.1367160" lon="37.3056040">
    <ele>2657.3</ele>
    <time>2026-06-20T14:06:49Z</time>
   </trkpt>
   <trkpt lat="-3.1367200" lon="37.3056040">
    <ele>2657.3</ele>
    <time>2026-06-20T14:06:50Z</time>
   </trkpt>
   <trkpt lat="-3.1367250" lon="37.3056070">
    <ele>2657.4</ele>
    <time>2026-06-20T14:06:51Z</time>
   </trkpt>
   <trkpt lat="-3.1367290" lon="37.3056110">
    <ele>2657.5</ele>
    <time>2026-06-20T14:06:52Z</time>
   </trkpt>
   <trkpt lat="-3.1367300" lon="37.3056180">
    <ele>2657.5</ele>
    <time>2026-06-20T14:06:53Z</time>
   </trkpt>
   <trkpt lat="-3.1367330" lon="37.3056210">
    <ele>2657.6</ele>
    <time>2026-06-20T14:06:54Z</time>
   </trkpt>
   <trkpt lat="-3.1367380" lon="37.3056260">
    <ele>2657.6</ele>
    <time>2026-06-20T14:06:55Z</time>
   </trkpt>
   <trkpt lat="-3.1367450" lon="37.3056300">
    <ele>2657.7</ele>
    <time>2026-06-20T14:06:56Z</time>
   </trkpt>
   <trkpt lat="-3.1367500" lon="37.3056320">
    <ele>2657.7</ele>
    <time>2026-06-20T14:06:57Z</time>
   </trkpt>
   <trkpt lat="-3.1367590" lon="37.3056340">
    <ele>2657.8</ele>
    <time>2026-06-20T14:06:58Z</time>
   </trkpt>
   <trkpt lat="-3.1367680" lon="37.3056410">
    <ele>2657.9</ele>
    <time>2026-06-20T14:06:59Z</time>
   </trkpt>
   <trkpt lat="-3.1367720" lon="37.3056420">
    <ele>2658.0</ele>
    <time>2026-06-20T14:07:00Z</time>
   </trkpt>
   <trkpt lat="-3.1367780" lon="37.3056440">
    <ele>2658.0</ele>
    <time>2026-06-20T14:07:01Z</time>
   </trkpt>
   <trkpt lat="-3.1367850" lon="37.3056490">
    <ele>2658.1</ele>
    <time>2026-06-20T14:07:02Z</time>
   </trkpt>
   <trkpt lat="-3.1367920" lon="37.3056560">
    <ele>2658.2</ele>
    <time>2026-06-20T14:07:03Z</time>
   </trkpt>
   <trkpt lat="-3.1367950" lon="37.3056620">
    <ele>2658.2</ele>
    <time>2026-06-20T14:07:04Z</time>
   </trkpt>
   <trkpt lat="-3.1368000" lon="37.3056630">
    <ele>2658.2</ele>
    <time>2026-06-20T14:07:05Z</time>
   </trkpt>
   <trkpt lat="-3.1368070" lon="37.3056720">
    <ele>2658.3</ele>
    <time>2026-06-20T14:07:06Z</time>
   </trkpt>
   <trkpt lat="-3.1368140" lon="37.3056760">
    <ele>2658.4</ele>
    <time>2026-06-20T14:07:07Z</time>
   </trkpt>
   <trkpt lat="-3.1368220" lon="37.3056820">
    <ele>2658.4</ele>
    <time>2026-06-20T14:07:08Z</time>
   </trkpt>
   <trkpt lat="-3.1368170" lon="37.3056870">
    <ele>2658.5</ele>
    <time>2026-06-20T14:07:09Z</time>
   </trkpt>
   <trkpt lat="-3.1368220" lon="37.3056920">
    <ele>2658.5</ele>
    <time>2026-06-20T14:07:10Z</time>
   </trkpt>
   <trkpt lat="-3.1368280" lon="37.3056940">
    <ele>2658.6</ele>
    <time>2026-06-20T14:07:11Z</time>
   </trkpt>
   <trkpt lat="-3.1368350" lon="37.3056930">
    <ele>2658.6</ele>
    <time>2026-06-20T14:07:12Z</time>
   </trkpt>
   <trkpt lat="-3.1368400" lon="37.3057020">
    <ele>2658.7</ele>
    <time>2026-06-20T14:07:13Z</time>
   </trkpt>
   <trkpt lat="-3.1368440" lon="37.3057040">
    <ele>2658.7</ele>
    <time>2026-06-20T14:07:14Z</time>
   </trkpt>
   <trkpt lat="-3.1368490" lon="37.3057090">
    <ele>2658.7</ele>
    <time>2026-06-20T14:07:15Z</time>
   </trkpt>
   <trkpt lat="-3.1368530" lon="37.3057140">
    <ele>2658.8</ele>
    <time>2026-06-20T14:07:16Z</time>
   </trkpt>
   <trkpt lat="-3.1368620" lon="37.3057210">
    <ele>2658.8</ele>
    <time>2026-06-20T14:07:17Z</time>
   </trkpt>
   <trkpt lat="-3.1368660" lon="37.3057260">
    <ele>2658.8</ele>
    <time>2026-06-20T14:07:18Z</time>
   </trkpt>
   <trkpt lat="-3.1368700" lon="37.3057290">
    <ele>2658.9</ele>
    <time>2026-06-20T14:07:19Z</time>
   </trkpt>
   <trkpt lat="-3.1368710" lon="37.3057340">
    <ele>2658.9</ele>
    <time>2026-06-20T14:07:20Z</time>
   </trkpt>
   <trkpt lat="-3.1368700" lon="37.3057400">
    <ele>2658.9</ele>
    <time>2026-06-20T14:07:21Z</time>
   </trkpt>
   <trkpt lat="-3.1368760" lon="37.3057470">
    <ele>2659.0</ele>
    <time>2026-06-20T14:07:22Z</time>
   </trkpt>
   <trkpt lat="-3.1368780" lon="37.3057500">
    <ele>2659.0</ele>
    <time>2026-06-20T14:07:23Z</time>
   </trkpt>
   <trkpt lat="-3.1368790" lon="37.3057480">
    <ele>2659.0</ele>
    <time>2026-06-20T14:07:24Z</time>
   </trkpt>
   <trkpt lat="-3.1368900" lon="37.3057500">
    <ele>2659.0</ele>
    <time>2026-06-20T14:07:25Z</time>
   </trkpt>
   <trkpt lat="-3.1368970" lon="37.3057550">
    <ele>2659.1</ele>
    <time>2026-06-20T14:07:26Z</time>
   </trkpt>
   <trkpt lat="-3.1369060" lon="37.3057580">
    <ele>2659.1</ele>
    <time>2026-06-20T14:07:27Z</time>
   </trkpt>
   <trkpt lat="-3.1369160" lon="37.3057660">
    <ele>2659.1</ele>
    <time>2026-06-20T14:07:28Z</time>
   </trkpt>
   <trkpt lat="-3.1369270" lon="37.3057730">
    <ele>2659.2</ele>
    <time>2026-06-20T14:07:30Z</time>
   </trkpt>
   <trkpt lat="-3.1369410" lon="37.3057720">
    <ele>2659.2</ele>
    <time>2026-06-20T14:07:31Z</time>
   </trkpt>
   <trkpt lat="-3.1369550" lon="37.3057800">
    <ele>2659.3</ele>
    <time>2026-06-20T14:07:32Z</time>
   </trkpt>
   <trkpt lat="-3.1369590" lon="37.3057830">
    <ele>2659.3</ele>
    <time>2026-06-20T14:07:33Z</time>
   </trkpt>
   <trkpt lat="-3.1369660" lon="37.3057840">
    <ele>2659.3</ele>
    <time>2026-06-20T14:07:34Z</time>
   </trkpt>
   <trkpt lat="-3.1369800" lon="37.3057940">
    <ele>2659.3</ele>
    <time>2026-06-20T14:07:35Z</time>
   </trkpt>
   <trkpt lat="-3.1370000" lon="37.3058000">
    <ele>2659.4</ele>
    <time>2026-06-20T14:07:36Z</time>
   </trkpt>
   <trkpt lat="-3.1370090" lon="37.3057990">
    <ele>2659.4</ele>
    <time>2026-06-20T14:07:37Z</time>
   </trkpt>
   <trkpt lat="-3.1370160" lon="37.3058040">
    <ele>2659.4</ele>
    <time>2026-06-20T14:07:38Z</time>
   </trkpt>
   <trkpt lat="-3.1370200" lon="37.3058010">
    <ele>2659.4</ele>
    <time>2026-06-20T14:07:39Z</time>
   </trkpt>
   <trkpt lat="-3.1370270" lon="37.3058070">
    <ele>2659.4</ele>
    <time>2026-06-20T14:07:40Z</time>
   </trkpt>
   <trkpt lat="-3.1370270" lon="37.3058090">
    <ele>2659.5</ele>
    <time>2026-06-20T14:07:41Z</time>
   </trkpt>
   <trkpt lat="-3.1370300" lon="37.3058080">
    <ele>2659.5</ele>
    <time>2026-06-20T14:07:42Z</time>
   </trkpt>
   <trkpt lat="-3.1370320" lon="37.3058100">
    <ele>2659.5</ele>
    <time>2026-06-20T14:07:43Z</time>
   </trkpt>
   <trkpt lat="-3.1370360" lon="37.3058130">
    <ele>2659.5</ele>
    <time>2026-06-20T14:07:44Z</time>
   </trkpt>
   <trkpt lat="-3.1370330" lon="37.3058150">
    <ele>2659.5</ele>
    <time>2026-06-20T14:07:45Z</time>
   </trkpt>
   <trkpt lat="-3.1370330" lon="37.3058120">
    <ele>2659.5</ele>
    <time>2026-06-20T14:07:46Z</time>
   </trkpt>
   <trkpt lat="-3.1370320" lon="37.3058120">
    <ele>2659.5</ele>
    <time>2026-06-20T14:07:47Z</time>
   </trkpt>
   <trkpt lat="-3.1370380" lon="37.3058120">
    <ele>2659.5</ele>
    <time>2026-06-20T14:07:48Z</time>
   </trkpt>
   <trkpt lat="-3.1370440" lon="37.3058090">
    <ele>2659.5</ele>
    <time>2026-06-20T14:07:49Z</time>
   </trkpt>
   <trkpt lat="-3.1370440" lon="37.3058090">
    <ele>2659.5</ele>
    <time>2026-06-20T14:07:50Z</time>
   </trkpt>
   <trkpt lat="-3.1370490" lon="37.3058080">
    <ele>2659.5</ele>
    <time>2026-06-20T14:07:51Z</time>
   </trkpt>
   <trkpt lat="-3.1370520" lon="37.3058070">
    <ele>2659.5</ele>
    <time>2026-06-20T14:07:52Z</time>
   </trkpt>
   <trkpt lat="-3.1370530" lon="37.3058090">
    <ele>2659.6</ele>
    <time>2026-06-20T14:07:53Z</time>
   </trkpt>
   <trkpt lat="-3.1370520" lon="37.3058100">
    <ele>2659.6</ele>
    <time>2026-06-20T14:07:54Z</time>
   </trkpt>
   <trkpt lat="-3.1370530" lon="37.3058160">
    <ele>2659.6</ele>
    <time>2026-06-20T14:07:55Z</time>
   </trkpt>
   <trkpt lat="-3.1370490" lon="37.3058240">
    <ele>2659.6</ele>
    <time>2026-06-20T14:07:56Z</time>
   </trkpt>
   <trkpt lat="-3.1370460" lon="37.3058260">
    <ele>2659.6</ele>
    <time>2026-06-20T14:07:57Z</time>
   </trkpt>
   <trkpt lat="-3.1370440" lon="37.3058300">
    <ele>2659.6</ele>
    <time>2026-06-20T14:07:58Z</time>
   </trkpt>
   <trkpt lat="-3.1370430" lon="37.3058340">
    <ele>2659.6</ele>
    <time>2026-06-20T14:07:59Z</time>
   </trkpt>
   <trkpt lat="-3.1370380" lon="37.3058470">
    <ele>2659.7</ele>
    <time>2026-06-20T14:08:00Z</time>
   </trkpt>
   <trkpt lat="-3.1370390" lon="37.3058560">
    <ele>2659.7</ele>
    <time>2026-06-20T14:08:01Z</time>
   </trkpt>
   <trkpt lat="-3.1370380" lon="37.3058560">
    <ele>2659.7</ele>
    <time>2026-06-20T14:08:02Z</time>
   </trkpt>
   <trkpt lat="-3.1370420" lon="37.3058550">
    <ele>2659.7</ele>
    <time>2026-06-20T14:08:03Z</time>
   </trkpt>
   <trkpt lat="-3.1370370" lon="37.3058640">
    <ele>2659.8</ele>
    <time>2026-06-20T14:08:04Z</time>
   </trkpt>
   <trkpt lat="-3.1370360" lon="37.3058670">
    <ele>2659.8</ele>
    <time>2026-06-20T14:08:05Z</time>
   </trkpt>
   <trkpt lat="-3.1370330" lon="37.3058730">
    <ele>2659.8</ele>
    <time>2026-06-20T14:08:06Z</time>
   </trkpt>
   <trkpt lat="-3.1370370" lon="37.3058780">
    <ele>2659.8</ele>
    <time>2026-06-20T14:08:07Z</time>
   </trkpt>
   <trkpt lat="-3.1370390" lon="37.3058840">
    <ele>2659.9</ele>
    <time>2026-06-20T14:08:08Z</time>
   </trkpt>
   <trkpt lat="-3.1370430" lon="37.3059030">
    <ele>2659.9</ele>
    <time>2026-06-20T14:08:09Z</time>
   </trkpt>
   <trkpt lat="-3.1370450" lon="37.3059040">
    <ele>2660.0</ele>
    <time>2026-06-20T14:08:10Z</time>
   </trkpt>
   <trkpt lat="-3.1370490" lon="37.3059020">
    <ele>2660.0</ele>
    <time>2026-06-20T14:08:11Z</time>
   </trkpt>
   <trkpt lat="-3.1370470" lon="37.3059080">
    <ele>2660.0</ele>
    <time>2026-06-20T14:08:12Z</time>
   </trkpt>
   <trkpt lat="-3.1370460" lon="37.3059090">
    <ele>2660.0</ele>
    <time>2026-06-20T14:08:13Z</time>
   </trkpt>
   <trkpt lat="-3.1370450" lon="37.3059150">
    <ele>2660.0</ele>
    <time>2026-06-20T14:08:14Z</time>
   </trkpt>
   <trkpt lat="-3.1370420" lon="37.3059240">
    <ele>2660.1</ele>
    <time>2026-06-20T14:08:15Z</time>
   </trkpt>
   <trkpt lat="-3.1370360" lon="37.3059360">
    <ele>2660.1</ele>
    <time>2026-06-20T14:08:16Z</time>
   </trkpt>
   <trkpt lat="-3.1370350" lon="37.3059420">
    <ele>2660.2</ele>
    <time>2026-06-20T14:08:17Z</time>
   </trkpt>
   <trkpt lat="-3.1370290" lon="37.3059460">
    <ele>2660.2</ele>
    <time>2026-06-20T14:08:18Z</time>
   </trkpt>
   <trkpt lat="-3.1370270" lon="37.3059570">
    <ele>2660.3</ele>
    <time>2026-06-20T14:08:19Z</time>
   </trkpt>
   <trkpt lat="-3.1370290" lon="37.3059570">
    <ele>2660.3</ele>
    <time>2026-06-20T14:08:20Z</time>
   </trkpt>
   <trkpt lat="-3.1370300" lon="37.3059660">
    <ele>2660.3</ele>
    <time>2026-06-20T14:08:21Z</time>
   </trkpt>
   <trkpt lat="-3.1370370" lon="37.3059820">
    <ele>2660.4</ele>
    <time>2026-06-20T14:08:22Z</time>
   </trkpt>
   <trkpt lat="-3.1370410" lon="37.3059890">
    <ele>2660.5</ele>
    <time>2026-06-20T14:08:23Z</time>
   </trkpt>
   <trkpt lat="-3.1370450" lon="37.3059940">
    <ele>2660.5</ele>
    <time>2026-06-20T14:08:24Z</time>
   </trkpt>
   <trkpt lat="-3.1370490" lon="37.3059950">
    <ele>2660.6</ele>
    <time>2026-06-20T14:08:25Z</time>
   </trkpt>
   <trkpt lat="-3.1370510" lon="37.3060060">
    <ele>2660.6</ele>
    <time>2026-06-20T14:08:26Z</time>
   </trkpt>
   <trkpt lat="-3.1370450" lon="37.3060150">
    <ele>2660.7</ele>
    <time>2026-06-20T14:08:27Z</time>
   </trkpt>
   <trkpt lat="-3.1370460" lon="37.3060160">
    <ele>2660.7</ele>
    <time>2026-06-20T14:08:28Z</time>
   </trkpt>
   <trkpt lat="-3.1370400" lon="37.3060180">
    <ele>2660.7</ele>
    <time>2026-06-20T14:08:29Z</time>
   </trkpt>
   <trkpt lat="-3.1370350" lon="37.3060200">
    <ele>2660.8</ele>
    <time>2026-06-20T14:08:30Z</time>
   </trkpt>
   <trkpt lat="-3.1370290" lon="37.3060300">
    <ele>2660.8</ele>
    <time>2026-06-20T14:08:31Z</time>
   </trkpt>
   <trkpt lat="-3.1370150" lon="37.3060340">
    <ele>2660.9</ele>
    <time>2026-06-20T14:08:32Z</time>
   </trkpt>
   <trkpt lat="-3.1369990" lon="37.3060390">
    <ele>2661.0</ele>
    <time>2026-06-20T14:08:33Z</time>
   </trkpt>
   <trkpt lat="-3.1369920" lon="37.3060470">
    <ele>2661.1</ele>
    <time>2026-06-20T14:08:34Z</time>
   </trkpt>
   <trkpt lat="-3.1369800" lon="37.3060560">
    <ele>2661.2</ele>
    <time>2026-06-20T14:08:35Z</time>
   </trkpt>
   <trkpt lat="-3.1369700" lon="37.3060640">
    <ele>2661.2</ele>
    <time>2026-06-20T14:08:36Z</time>
   </trkpt>
   <trkpt lat="-3.1369620" lon="37.3060680">
    <ele>2661.3</ele>
    <time>2026-06-20T14:08:37Z</time>
   </trkpt>
   <trkpt lat="-3.1369540" lon="37.3060700">
    <ele>2661.3</ele>
    <time>2026-06-20T14:08:38Z</time>
   </trkpt>
   <trkpt lat="-3.1369460" lon="37.3060800">
    <ele>2661.4</ele>
    <time>2026-06-20T14:08:39Z</time>
   </trkpt>
   <trkpt lat="-3.1369420" lon="37.3060860">
    <ele>2661.4</ele>
    <time>2026-06-20T14:08:40Z</time>
   </trkpt>
   <trkpt lat="-3.1369360" lon="37.3060950">
    <ele>2661.4</ele>
    <time>2026-06-20T14:08:41Z</time>
   </trkpt>
   <trkpt lat="-3.1369400" lon="37.3061040">
    <ele>2661.4</ele>
    <time>2026-06-20T14:08:42Z</time>
   </trkpt>
   <trkpt lat="-3.1369430" lon="37.3061120">
    <ele>2661.5</ele>
    <time>2026-06-20T14:08:43Z</time>
   </trkpt>
   <trkpt lat="-3.1369320" lon="37.3061240">
    <ele>2661.5</ele>
    <time>2026-06-20T14:08:44Z</time>
   </trkpt>
   <trkpt lat="-3.1369220" lon="37.3061330">
    <ele>2661.5</ele>
    <time>2026-06-20T14:08:45Z</time>
   </trkpt>
   <trkpt lat="-3.1369210" lon="37.3061430">
    <ele>2661.6</ele>
    <time>2026-06-20T14:08:46Z</time>
   </trkpt>
   <trkpt lat="-3.1369190" lon="37.3061500">
    <ele>2661.6</ele>
    <time>2026-06-20T14:08:47Z</time>
   </trkpt>
   <trkpt lat="-3.1369080" lon="37.3061530">
    <ele>2661.6</ele>
    <time>2026-06-20T14:08:48Z</time>
   </trkpt>
   <trkpt lat="-3.1369010" lon="37.3061600">
    <ele>2661.6</ele>
    <time>2026-06-20T14:08:49Z</time>
   </trkpt>
   <trkpt lat="-3.1368940" lon="37.3061640">
    <ele>2661.6</ele>
    <time>2026-06-20T14:08:50Z</time>
   </trkpt>
   <trkpt lat="-3.1368820" lon="37.3061640">
    <ele>2661.6</ele>
    <time>2026-06-20T14:08:51Z</time>
   </trkpt>
   <trkpt lat="-3.1368710" lon="37.3061600">
    <ele>2661.6</ele>
    <time>2026-06-20T14:08:52Z</time>
   </trkpt>
   <trkpt lat="-3.1368640" lon="37.3061640">
    <ele>2661.6</ele>
    <time>2026-06-20T14:08:53Z</time>
   </trkpt>
   <trkpt lat="-3.1368600" lon="37.3061640">
    <ele>2661.6</ele>
    <time>2026-06-20T14:08:54Z</time>
   </trkpt>
   <trkpt lat="-3.1368500" lon="37.3061750">
    <ele>2661.6</ele>
    <time>2026-06-20T14:08:55Z</time>
   </trkpt>
   <trkpt lat="-3.1368510" lon="37.3061820">
    <ele>2661.6</ele>
    <time>2026-06-20T14:08:56Z</time>
   </trkpt>
   <trkpt lat="-3.1368410" lon="37.3061860">
    <ele>2661.6</ele>
    <time>2026-06-20T14:08:57Z</time>
   </trkpt>
   <trkpt lat="-3.1368350" lon="37.3061940">
    <ele>2661.6</ele>
    <time>2026-06-20T14:08:58Z</time>
   </trkpt>
   <trkpt lat="-3.1368290" lon="37.3061980">
    <ele>2661.6</ele>
    <time>2026-06-20T14:08:59Z</time>
   </trkpt>
   <trkpt lat="-3.1368190" lon="37.3062130">
    <ele>2661.6</ele>
    <time>2026-06-20T14:09:00Z</time>
   </trkpt>
   <trkpt lat="-3.1368130" lon="37.3062190">
    <ele>2661.7</ele>
    <time>2026-06-20T14:09:01Z</time>
   </trkpt>
   <trkpt lat="-3.1368050" lon="37.3062190">
    <ele>2661.7</ele>
    <time>2026-06-20T14:09:02Z</time>
   </trkpt>
   <trkpt lat="-3.1368040" lon="37.3062080">
    <ele>2661.7</ele>
    <time>2026-06-20T14:09:03Z</time>
   </trkpt>
   <trkpt lat="-3.1367990" lon="37.3062110">
    <ele>2661.7</ele>
    <time>2026-06-20T14:09:04Z</time>
   </trkpt>
   <trkpt lat="-3.1367900" lon="37.3062140">
    <ele>2661.7</ele>
    <time>2026-06-20T14:09:05Z</time>
   </trkpt>
   <trkpt lat="-3.1367910" lon="37.3062210">
    <ele>2661.7</ele>
    <time>2026-06-20T14:09:06Z</time>
   </trkpt>
   <trkpt lat="-3.1367920" lon="37.3062290">
    <ele>2661.7</ele>
    <time>2026-06-20T14:09:07Z</time>
   </trkpt>
   <trkpt lat="-3.1367880" lon="37.3062310">
    <ele>2661.7</ele>
    <time>2026-06-20T14:09:08Z</time>
   </trkpt>
   <trkpt lat="-3.1367840" lon="37.3062370">
    <ele>2661.7</ele>
    <time>2026-06-20T14:09:09Z</time>
   </trkpt>
   <trkpt lat="-3.1367780" lon="37.3062440">
    <ele>2661.7</ele>
    <time>2026-06-20T14:09:10Z</time>
   </trkpt>
   <trkpt lat="-3.1367760" lon="37.3062570">
    <ele>2661.7</ele>
    <time>2026-06-20T14:09:11Z</time>
   </trkpt>
   <trkpt lat="-3.1367710" lon="37.3062680">
    <ele>2661.7</ele>
    <time>2026-06-20T14:09:12Z</time>
   </trkpt>
   <trkpt lat="-3.1367670" lon="37.3062760">
    <ele>2661.8</ele>
    <time>2026-06-20T14:09:13Z</time>
   </trkpt>
   <trkpt lat="-3.1367570" lon="37.3062870">
    <ele>2661.8</ele>
    <time>2026-06-20T14:09:14Z</time>
   </trkpt>
   <trkpt lat="-3.1367510" lon="37.3062970">
    <ele>2661.8</ele>
    <time>2026-06-20T14:09:15Z</time>
   </trkpt>
   <trkpt lat="-3.1367450" lon="37.3063040">
    <ele>2661.8</ele>
    <time>2026-06-20T14:09:16Z</time>
   </trkpt>
   <trkpt lat="-3.1367360" lon="37.3063200">
    <ele>2661.9</ele>
    <time>2026-06-20T14:09:17Z</time>
   </trkpt>
   <trkpt lat="-3.1367330" lon="37.3063300">
    <ele>2661.9</ele>
    <time>2026-06-20T14:09:18Z</time>
   </trkpt>
   <trkpt lat="-3.1367310" lon="37.3063400">
    <ele>2661.9</ele>
    <time>2026-06-20T14:09:19Z</time>
   </trkpt>
   <trkpt lat="-3.1367250" lon="37.3063480">
    <ele>2662.0</ele>
    <time>2026-06-20T14:09:20Z</time>
   </trkpt>
   <trkpt lat="-3.1367250" lon="37.3063510">
    <ele>2662.0</ele>
    <time>2026-06-20T14:09:21Z</time>
   </trkpt>
   <trkpt lat="-3.1367250" lon="37.3063550">
    <ele>2662.0</ele>
    <time>2026-06-20T14:09:22Z</time>
   </trkpt>
   <trkpt lat="-3.1367190" lon="37.3063630">
    <ele>2662.0</ele>
    <time>2026-06-20T14:09:23Z</time>
   </trkpt>
   <trkpt lat="-3.1367140" lon="37.3063720">
    <ele>2662.1</ele>
    <time>2026-06-20T14:09:24Z</time>
   </trkpt>
   <trkpt lat="-3.1367080" lon="37.3063830">
    <ele>2662.1</ele>
    <time>2026-06-20T14:09:25Z</time>
   </trkpt>
   <trkpt lat="-3.1367090" lon="37.3063900">
    <ele>2662.1</ele>
    <time>2026-06-20T14:09:26Z</time>
   </trkpt>
   <trkpt lat="-3.1367030" lon="37.3063950">
    <ele>2662.2</ele>
    <time>2026-06-20T14:09:27Z</time>
   </trkpt>
   <trkpt lat="-3.1366980" lon="37.3064000">
    <ele>2662.2</ele>
    <time>2026-06-20T14:09:28Z</time>
   </trkpt>
   <trkpt lat="-3.1366920" lon="37.3064050">
    <ele>2662.2</ele>
    <time>2026-06-20T14:09:29Z</time>
   </trkpt>
   <trkpt lat="-3.1366850" lon="37.3064200">
    <ele>2662.3</ele>
    <time>2026-06-20T14:09:30Z</time>
   </trkpt>
   <trkpt lat="-3.1366760" lon="37.3064310">
    <ele>2662.4</ele>
    <time>2026-06-20T14:09:31Z</time>
   </trkpt>
   <trkpt lat="-3.1366720" lon="37.3064360">
    <ele>2662.4</ele>
    <time>2026-06-20T14:09:32Z</time>
   </trkpt>
   <trkpt lat="-3.1366720" lon="37.3064420">
    <ele>2662.4</ele>
    <time>2026-06-20T14:09:33Z</time>
   </trkpt>
   <trkpt lat="-3.1366660" lon="37.3064430">
    <ele>2662.4</ele>
    <time>2026-06-20T14:09:35Z</time>
   </trkpt>
   <trkpt lat="-3.1366700" lon="37.3064440">
    <ele>2662.5</ele>
    <time>2026-06-20T14:09:36Z</time>
   </trkpt>
   <trkpt lat="-3.1366700" lon="37.3064510">
    <ele>2662.5</ele>
    <time>2026-06-20T14:09:37Z</time>
   </trkpt>
   <trkpt lat="-3.1366690" lon="37.3064610">
    <ele>2662.5</ele>
    <time>2026-06-20T14:09:38Z</time>
   </trkpt>
   <trkpt lat="-3.1366670" lon="37.3064680">
    <ele>2662.6</ele>
    <time>2026-06-20T14:09:39Z</time>
   </trkpt>
   <trkpt lat="-3.1366720" lon="37.3064690">
    <ele>2662.6</ele>
    <time>2026-06-20T14:09:40Z</time>
   </trkpt>
   <trkpt lat="-3.1366700" lon="37.3064780">
    <ele>2662.7</ele>
    <time>2026-06-20T14:09:41Z</time>
   </trkpt>
   <trkpt lat="-3.1366700" lon="37.3064860">
    <ele>2662.7</ele>
    <time>2026-06-20T14:09:42Z</time>
   </trkpt>
   <trkpt lat="-3.1366670" lon="37.3064980">
    <ele>2662.8</ele>
    <time>2026-06-20T14:09:43Z</time>
   </trkpt>
   <trkpt lat="-3.1366660" lon="37.3065070">
    <ele>2662.8</ele>
    <time>2026-06-20T14:09:44Z</time>
   </trkpt>
   <trkpt lat="-3.1366680" lon="37.3065120">
    <ele>2662.8</ele>
    <time>2026-06-20T14:09:45Z</time>
   </trkpt>
   <trkpt lat="-3.1366670" lon="37.3065180">
    <ele>2662.9</ele>
    <time>2026-06-20T14:09:46Z</time>
   </trkpt>
   <trkpt lat="-3.1366650" lon="37.3065280">
    <ele>2662.9</ele>
    <time>2026-06-20T14:09:47Z</time>
   </trkpt>
   <trkpt lat="-3.1366650" lon="37.3065350">
    <ele>2663.0</ele>
    <time>2026-06-20T14:09:48Z</time>
   </trkpt>
   <trkpt lat="-3.1366640" lon="37.3065510">
    <ele>2663.1</ele>
    <time>2026-06-20T14:09:49Z</time>
   </trkpt>
   <trkpt lat="-3.1366620" lon="37.3065570">
    <ele>2663.1</ele>
    <time>2026-06-20T14:09:50Z</time>
   </trkpt>
   <trkpt lat="-3.1366630" lon="37.3065590">
    <ele>2663.1</ele>
    <time>2026-06-20T14:09:51Z</time>
   </trkpt>
   <trkpt lat="-3.1366630" lon="37.3065670">
    <ele>2663.2</ele>
    <time>2026-06-20T14:09:52Z</time>
   </trkpt>
   <trkpt lat="-3.1366620" lon="37.3065730">
    <ele>2663.2</ele>
    <time>2026-06-20T14:09:53Z</time>
   </trkpt>
   <trkpt lat="-3.1366650" lon="37.3065810">
    <ele>2663.3</ele>
    <time>2026-06-20T14:09:54Z</time>
   </trkpt>
   <trkpt lat="-3.1366670" lon="37.3065850">
    <ele>2663.3</ele>
    <time>2026-06-20T14:09:55Z</time>
   </trkpt>
   <trkpt lat="-3.1366720" lon="37.3065850">
    <ele>2663.3</ele>
    <time>2026-06-20T14:09:56Z</time>
   </trkpt>
   <trkpt lat="-3.1366740" lon="37.3065870">
    <ele>2663.3</ele>
    <time>2026-06-20T14:09:57Z</time>
   </trkpt>
   <trkpt lat="-3.1366740" lon="37.3065920">
    <ele>2663.4</ele>
    <time>2026-06-20T14:09:58Z</time>
   </trkpt>
   <trkpt lat="-3.1366760" lon="37.3066030">
    <ele>2663.4</ele>
    <time>2026-06-20T14:09:59Z</time>
   </trkpt>
   <trkpt lat="-3.1366750" lon="37.3066150">
    <ele>2663.5</ele>
    <time>2026-06-20T14:10:00Z</time>
   </trkpt>
   <trkpt lat="-3.1366720" lon="37.3066230">
    <ele>2663.6</ele>
    <time>2026-06-20T14:10:01Z</time>
   </trkpt>
   <trkpt lat="-3.1366670" lon="37.3066340">
    <ele>2663.7</ele>
    <time>2026-06-20T14:10:02Z</time>
   </trkpt>
   <trkpt lat="-3.1366660" lon="37.3066380">
    <ele>2663.7</ele>
    <time>2026-06-20T14:10:03Z</time>
   </trkpt>
   <trkpt lat="-3.1366570" lon="37.3066500">
    <ele>2663.8</ele>
    <time>2026-06-20T14:10:04Z</time>
   </trkpt>
   <trkpt lat="-3.1366600" lon="37.3066630">
    <ele>2663.9</ele>
    <time>2026-06-20T14:10:05Z</time>
   </trkpt>
   <trkpt lat="-3.1366650" lon="37.3066690">
    <ele>2663.9</ele>
    <time>2026-06-20T14:10:06Z</time>
   </trkpt>
   <trkpt lat="-3.1366690" lon="37.3066780">
    <ele>2664.0</ele>
    <time>2026-06-20T14:10:07Z</time>
   </trkpt>
   <trkpt lat="-3.1366730" lon="37.3066840">
    <ele>2664.1</ele>
    <time>2026-06-20T14:10:08Z</time>
   </trkpt>
   <trkpt lat="-3.1366750" lon="37.3066840">
    <ele>2664.1</ele>
    <time>2026-06-20T14:10:09Z</time>
   </trkpt>
   <trkpt lat="-3.1366850" lon="37.3066880">
    <ele>2664.1</ele>
    <time>2026-06-20T14:10:10Z</time>
   </trkpt>
   <trkpt lat="-3.1366870" lon="37.3066900">
    <ele>2664.2</ele>
    <time>2026-06-20T14:10:11Z</time>
   </trkpt>
   <trkpt lat="-3.1366940" lon="37.3066920">
    <ele>2664.2</ele>
    <time>2026-06-20T14:10:12Z</time>
   </trkpt>
   <trkpt lat="-3.1366990" lon="37.3066970">
    <ele>2664.3</ele>
    <time>2026-06-20T14:10:13Z</time>
   </trkpt>
   <trkpt lat="-3.1366990" lon="37.3066970">
    <ele>2664.3</ele>
    <time>2026-06-20T14:10:14Z</time>
   </trkpt>
   <trkpt lat="-3.1367020" lon="37.3067000">
    <ele>2664.3</ele>
    <time>2026-06-20T14:10:15Z</time>
   </trkpt>
   <trkpt lat="-3.1367020" lon="37.3066990">
    <ele>2664.3</ele>
    <time>2026-06-20T14:10:16Z</time>
   </trkpt>
   <trkpt lat="-3.1367020" lon="37.3066990">
    <ele>2664.3</ele>
    <time>2026-06-20T14:10:17Z</time>
   </trkpt>
   <trkpt lat="-3.1367020" lon="37.3066990">
    <ele>2664.3</ele>
    <time>2026-06-20T14:10:18Z</time>
   </trkpt>
   <trkpt lat="-3.1367020" lon="37.3066990">
    <ele>2664.3</ele>
    <time>2026-06-20T14:10:19Z</time>
   </trkpt>
   <trkpt lat="-3.1367020" lon="37.3066990">
    <ele>2664.3</ele>
    <time>2026-06-20T14:10:20Z</time>
   </trkpt>
   <trkpt lat="-3.1367020" lon="37.3066990">
    <ele>2664.3</ele>
    <time>2026-06-20T14:10:21Z</time>
   </trkpt>
   <trkpt lat="-3.1367020" lon="37.3066990">
    <ele>2664.3</ele>
    <time>2026-06-20T14:10:22Z</time>
   </trkpt>
   <trkpt lat="-3.1367020" lon="37.3066990">
    <ele>2664.3</ele>
    <time>2026-06-20T14:10:23Z</time>
   </trkpt>
   <trkpt lat="-3.1367150" lon="37.3067080">
    <ele>2664.4</ele>
    <time>2026-06-20T14:10:24Z</time>
   </trkpt>
   <trkpt lat="-3.1367230" lon="37.3067170">
    <ele>2664.5</ele>
    <time>2026-06-20T14:10:25Z</time>
   </trkpt>
   <trkpt lat="-3.1367220" lon="37.3067170">
    <ele>2664.5</ele>
    <time>2026-06-20T14:10:26Z</time>
   </trkpt>
   <trkpt lat="-3.1367220" lon="37.3067270">
    <ele>2664.6</ele>
    <time>2026-06-20T14:10:27Z</time>
   </trkpt>
   <trkpt lat="-3.1367230" lon="37.3067320">
    <ele>2664.6</ele>
    <time>2026-06-20T14:10:28Z</time>
   </trkpt>
   <trkpt lat="-3.1367200" lon="37.3067340">
    <ele>2664.6</ele>
    <time>2026-06-20T14:10:29Z</time>
   </trkpt>
   <trkpt lat="-3.1367160" lon="37.3067350">
    <ele>2664.7</ele>
    <time>2026-06-20T14:10:30Z</time>
   </trkpt>
   <trkpt lat="-3.1367100" lon="37.3067360">
    <ele>2664.7</ele>
    <time>2026-06-20T14:10:31Z</time>
   </trkpt>
   <trkpt lat="-3.1367050" lon="37.3067380">
    <ele>2664.8</ele>
    <time>2026-06-20T14:10:32Z</time>
   </trkpt>
   <trkpt lat="-3.1367020" lon="37.3067370">
    <ele>2664.8</ele>
    <time>2026-06-20T14:10:33Z</time>
   </trkpt>
   <trkpt lat="-3.1366900" lon="37.3067420">
    <ele>2664.9</ele>
    <time>2026-06-20T14:10:34Z</time>
   </trkpt>
   <trkpt lat="-3.1366820" lon="37.3067450">
    <ele>2664.9</ele>
    <time>2026-06-20T14:10:35Z</time>
   </trkpt>
   <trkpt lat="-3.1366810" lon="37.3067460">
    <ele>2664.9</ele>
    <time>2026-06-20T14:10:36Z</time>
   </trkpt>
   <trkpt lat="-3.1366740" lon="37.3067490">
    <ele>2665.0</ele>
    <time>2026-06-20T14:10:37Z</time>
   </trkpt>
   <trkpt lat="-3.1366730" lon="37.3067510">
    <ele>2665.0</ele>
    <time>2026-06-20T14:10:38Z</time>
   </trkpt>
   <trkpt lat="-3.1366640" lon="37.3067580">
    <ele>2665.1</ele>
    <time>2026-06-20T14:10:39Z</time>
   </trkpt>
   <trkpt lat="-3.1366580" lon="37.3067610">
    <ele>2665.1</ele>
    <time>2026-06-20T14:10:40Z</time>
   </trkpt>
   <trkpt lat="-3.1366560" lon="37.3067620">
    <ele>2665.1</ele>
    <time>2026-06-20T14:10:41Z</time>
   </trkpt>
   <trkpt lat="-3.1366560" lon="37.3067600">
    <ele>2665.1</ele>
    <time>2026-06-20T14:10:42Z</time>
   </trkpt>
   <trkpt lat="-3.1366500" lon="37.3067660">
    <ele>2665.2</ele>
    <time>2026-06-20T14:10:43Z</time>
   </trkpt>
   <trkpt lat="-3.1366480" lon="37.3067680">
    <ele>2665.2</ele>
    <time>2026-06-20T14:10:44Z</time>
   </trkpt>
   <trkpt lat="-3.1366410" lon="37.3067690">
    <ele>2665.3</ele>
    <time>2026-06-20T14:10:45Z</time>
   </trkpt>
   <trkpt lat="-3.1366380" lon="37.3067700">
    <ele>2665.3</ele>
    <time>2026-06-20T14:10:46Z</time>
   </trkpt>
   <trkpt lat="-3.1366350" lon="37.3067690">
    <ele>2665.3</ele>
    <time>2026-06-20T14:10:47Z</time>
   </trkpt>
   <trkpt lat="-3.1366340" lon="37.3067690">
    <ele>2665.3</ele>
    <time>2026-06-20T14:10:48Z</time>
   </trkpt>
   <trkpt lat="-3.1366340" lon="37.3067670">
    <ele>2665.3</ele>
    <time>2026-06-20T14:10:49Z</time>
   </trkpt>
   <trkpt lat="-3.1366280" lon="37.3067690">
    <ele>2665.4</ele>
    <time>2026-06-20T14:10:50Z</time>
   </trkpt>
   <trkpt lat="-3.1366220" lon="37.3067720">
    <ele>2665.4</ele>
    <time>2026-06-20T14:10:51Z</time>
   </trkpt>
   <trkpt lat="-3.1366070" lon="37.3067750">
    <ele>2665.5</ele>
    <time>2026-06-20T14:10:52Z</time>
   </trkpt>
   <trkpt lat="-3.1366080" lon="37.3067760">
    <ele>2665.5</ele>
    <time>2026-06-20T14:10:53Z</time>
   </trkpt>
   <trkpt lat="-3.1366120" lon="37.3067770">
    <ele>2665.5</ele>
    <time>2026-06-20T14:10:54Z</time>
   </trkpt>
   <trkpt lat="-3.1366150" lon="37.3067750">
    <ele>2665.6</ele>
    <time>2026-06-20T14:10:55Z</time>
   </trkpt>
   <trkpt lat="-3.1366060" lon="37.3067820">
    <ele>2665.6</ele>
    <time>2026-06-20T14:10:56Z</time>
   </trkpt>
   <trkpt lat="-3.1366080" lon="37.3067790">
    <ele>2665.6</ele>
    <time>2026-06-20T14:10:57Z</time>
   </trkpt>
   <trkpt lat="-3.1366040" lon="37.3067850">
    <ele>2665.7</ele>
    <time>2026-06-20T14:10:58Z</time>
   </trkpt>
   <trkpt lat="-3.1365950" lon="37.3067940">
    <ele>2665.7</ele>
    <time>2026-06-20T14:10:59Z</time>
   </trkpt>
   <trkpt lat="-3.1365830" lon="37.3068010">
    <ele>2665.8</ele>
    <time>2026-06-20T14:11:00Z</time>
   </trkpt>
   <trkpt lat="-3.1365740" lon="37.3068100">
    <ele>2665.9</ele>
    <time>2026-06-20T14:11:01Z</time>
   </trkpt>
   <trkpt lat="-3.1365710" lon="37.3068170">
    <ele>2665.9</ele>
    <time>2026-06-20T14:11:02Z</time>
   </trkpt>
   <trkpt lat="-3.1365650" lon="37.3068230">
    <ele>2666.0</ele>
    <time>2026-06-20T14:11:03Z</time>
   </trkpt>
   <trkpt lat="-3.1365530" lon="37.3068310">
    <ele>2666.0</ele>
    <time>2026-06-20T14:11:04Z</time>
   </trkpt>
   <trkpt lat="-3.1365360" lon="37.3068330">
    <ele>2666.1</ele>
    <time>2026-06-20T14:11:05Z</time>
   </trkpt>
   <trkpt lat="-3.1365350" lon="37.3068350">
    <ele>2666.1</ele>
    <time>2026-06-20T14:11:06Z</time>
   </trkpt>
   <trkpt lat="-3.1365320" lon="37.3068290">
    <ele>2666.2</ele>
    <time>2026-06-20T14:11:07Z</time>
   </trkpt>
   <trkpt lat="-3.1365250" lon="37.3068320">
    <ele>2666.2</ele>
    <time>2026-06-20T14:11:08Z</time>
   </trkpt>
   <trkpt lat="-3.1365200" lon="37.3068400">
    <ele>2666.2</ele>
    <time>2026-06-20T14:11:09Z</time>
   </trkpt>
   <trkpt lat="-3.1365180" lon="37.3068460">
    <ele>2666.3</ele>
    <time>2026-06-20T14:11:10Z</time>
   </trkpt>
   <trkpt lat="-3.1365130" lon="37.3068540">
    <ele>2666.3</ele>
    <time>2026-06-20T14:11:11Z</time>
   </trkpt>
   <trkpt lat="-3.1365100" lon="37.3068580">
    <ele>2666.3</ele>
    <time>2026-06-20T14:11:12Z</time>
   </trkpt>
   <trkpt lat="-3.1365090" lon="37.3068590">
    <ele>2666.3</ele>
    <time>2026-06-20T14:11:13Z</time>
   </trkpt>
   <trkpt lat="-3.1365050" lon="37.3068640">
    <ele>2666.4</ele>
    <time>2026-06-20T14:11:14Z</time>
   </trkpt>
   <trkpt lat="-3.1365000" lon="37.3068650">
    <ele>2666.4</ele>
    <time>2026-06-20T14:11:15Z</time>
   </trkpt>
   <trkpt lat="-3.1364960" lon="37.3068640">
    <ele>2666.4</ele>
    <time>2026-06-20T14:11:16Z</time>
   </trkpt>
   <trkpt lat="-3.1364880" lon="37.3068660">
    <ele>2666.4</ele>
    <time>2026-06-20T14:11:17Z</time>
   </trkpt>
   <trkpt lat="-3.1364870" lon="37.3068630">
    <ele>2666.4</ele>
    <time>2026-06-20T14:11:18Z</time>
   </trkpt>
   <trkpt lat="-3.1364820" lon="37.3068630">
    <ele>2666.5</ele>
    <time>2026-06-20T14:11:19Z</time>
   </trkpt>
   <trkpt lat="-3.1364810" lon="37.3068560">
    <ele>2666.5</ele>
    <time>2026-06-20T14:11:20Z</time>
   </trkpt>
   <trkpt lat="-3.1364770" lon="37.3068610">
    <ele>2666.5</ele>
    <time>2026-06-20T14:11:21Z</time>
   </trkpt>
   <trkpt lat="-3.1364760" lon="37.3068640">
    <ele>2666.5</ele>
    <time>2026-06-20T14:11:22Z</time>
   </trkpt>
   <trkpt lat="-3.1364720" lon="37.3068580">
    <ele>2666.6</ele>
    <time>2026-06-20T14:11:23Z</time>
   </trkpt>
   <trkpt lat="-3.1364700" lon="37.3068510">
    <ele>2666.6</ele>
    <time>2026-06-20T14:11:24Z</time>
   </trkpt>
   <trkpt lat="-3.1364670" lon="37.3068490">
    <ele>2666.6</ele>
    <time>2026-06-20T14:11:25Z</time>
   </trkpt>
   <trkpt lat="-3.1364670" lon="37.3068360">
    <ele>2666.6</ele>
    <time>2026-06-20T14:11:26Z</time>
   </trkpt>
   <trkpt lat="-3.1364670" lon="37.3068280">
    <ele>2666.7</ele>
    <time>2026-06-20T14:11:27Z</time>
   </trkpt>
   <trkpt lat="-3.1364670" lon="37.3068200">
    <ele>2666.7</ele>
    <time>2026-06-20T14:11:28Z</time>
   </trkpt>
   <trkpt lat="-3.1364640" lon="37.3068080">
    <ele>2666.7</ele>
    <time>2026-06-20T14:11:29Z</time>
   </trkpt>
   <trkpt lat="-3.1364580" lon="37.3068070">
    <ele>2666.8</ele>
    <time>2026-06-20T14:11:30Z</time>
   </trkpt>
   <trkpt lat="-3.1364540" lon="37.3068050">
    <ele>2666.8</ele>
    <time>2026-06-20T14:11:31Z</time>
   </trkpt>
   <trkpt lat="-3.1364540" lon="37.3068010">
    <ele>2666.8</ele>
    <time>2026-06-20T14:11:32Z</time>
   </trkpt>
   <trkpt lat="-3.1364520" lon="37.3067970">
    <ele>2666.8</ele>
    <time>2026-06-20T14:11:33Z</time>
   </trkpt>
   <trkpt lat="-3.1364470" lon="37.3067980">
    <ele>2666.8</ele>
    <time>2026-06-20T14:11:34Z</time>
   </trkpt>
   <trkpt lat="-3.1364430" lon="37.3067990">
    <ele>2666.8</ele>
    <time>2026-06-20T14:11:35Z</time>
   </trkpt>
   <trkpt lat="-3.1364380" lon="37.3068050">
    <ele>2666.8</ele>
    <time>2026-06-20T14:11:36Z</time>
   </trkpt>
   <trkpt lat="-3.1364360" lon="37.3068060">
    <ele>2666.8</ele>
    <time>2026-06-20T14:11:37Z</time>
   </trkpt>
   <trkpt lat="-3.1364300" lon="37.3068080">
    <ele>2666.9</ele>
    <time>2026-06-20T14:11:38Z</time>
   </trkpt>
   <trkpt lat="-3.1364290" lon="37.3068160">
    <ele>2666.9</ele>
    <time>2026-06-20T14:11:39Z</time>
   </trkpt>
   <trkpt lat="-3.1364230" lon="37.3068260">
    <ele>2666.9</ele>
    <time>2026-06-20T14:11:40Z</time>
   </trkpt>
   <trkpt lat="-3.1364130" lon="37.3068370">
    <ele>2667.0</ele>
    <time>2026-06-20T14:11:41Z</time>
   </trkpt>
   <trkpt lat="-3.1364160" lon="37.3068400">
    <ele>2667.0</ele>
    <time>2026-06-20T14:11:42Z</time>
   </trkpt>
   <trkpt lat="-3.1364120" lon="37.3068430">
    <ele>2667.0</ele>
    <time>2026-06-20T14:11:43Z</time>
   </trkpt>
   <trkpt lat="-3.1364060" lon="37.3068510">
    <ele>2667.0</ele>
    <time>2026-06-20T14:11:44Z</time>
   </trkpt>
   <trkpt lat="-3.1364020" lon="37.3068600">
    <ele>2667.0</ele>
    <time>2026-06-20T14:11:45Z</time>
   </trkpt>
   <trkpt lat="-3.1364000" lon="37.3068650">
    <ele>2667.1</ele>
    <time>2026-06-20T14:11:46Z</time>
   </trkpt>
   <trkpt lat="-3.1364030" lon="37.3068720">
    <ele>2667.1</ele>
    <time>2026-06-20T14:11:47Z</time>
   </trkpt>
   <trkpt lat="-3.1364040" lon="37.3068740">
    <ele>2667.1</ele>
    <time>2026-06-20T14:11:48Z</time>
   </trkpt>
   <trkpt lat="-3.1364080" lon="37.3068770">
    <ele>2667.1</ele>
    <time>2026-06-20T14:11:49Z</time>
   </trkpt>
   <trkpt lat="-3.1364080" lon="37.3068820">
    <ele>2667.1</ele>
    <time>2026-06-20T14:11:51Z</time>
   </trkpt>
   <trkpt lat="-3.1364030" lon="37.3068800">
    <ele>2667.1</ele>
    <time>2026-06-20T14:11:52Z</time>
   </trkpt>
   <trkpt lat="-3.1363970" lon="37.3068870">
    <ele>2667.2</ele>
    <time>2026-06-20T14:11:54Z</time>
   </trkpt>
   <trkpt lat="-3.1363930" lon="37.3068840">
    <ele>2667.2</ele>
    <time>2026-06-20T14:11:55Z</time>
   </trkpt>
   <trkpt lat="-3.1363880" lon="37.3068900">
    <ele>2667.2</ele>
    <time>2026-06-20T14:11:56Z</time>
   </trkpt>
   <trkpt lat="-3.1363800" lon="37.3068910">
    <ele>2667.2</ele>
    <time>2026-06-20T14:11:57Z</time>
   </trkpt>
   <trkpt lat="-3.1363710" lon="37.3068900">
    <ele>2667.2</ele>
    <time>2026-06-20T14:11:58Z</time>
   </trkpt>
   <trkpt lat="-3.1363730" lon="37.3068860">
    <ele>2667.3</ele>
    <time>2026-06-20T14:11:59Z</time>
   </trkpt>
   <trkpt lat="-3.1363730" lon="37.3068850">
    <ele>2667.3</ele>
    <time>2026-06-20T14:12:00Z</time>
   </trkpt>
   <trkpt lat="-3.1363700" lon="37.3068870">
    <ele>2667.3</ele>
    <time>2026-06-20T14:12:01Z</time>
   </trkpt>
   <trkpt lat="-3.1363750" lon="37.3068840">
    <ele>2667.3</ele>
    <time>2026-06-20T14:12:02Z</time>
   </trkpt>
   <trkpt lat="-3.1363590" lon="37.3068890">
    <ele>2667.3</ele>
    <time>2026-06-20T14:12:03Z</time>
   </trkpt>
   <trkpt lat="-3.1363540" lon="37.3068930">
    <ele>2667.4</ele>
    <time>2026-06-20T14:12:04Z</time>
   </trkpt>
   <trkpt lat="-3.1363530" lon="37.3068920">
    <ele>2667.4</ele>
    <time>2026-06-20T14:12:05Z</time>
   </trkpt>
   <trkpt lat="-3.1363490" lon="37.3068930">
    <ele>2667.4</ele>
    <time>2026-06-20T14:12:06Z</time>
   </trkpt>
   <trkpt lat="-3.1363470" lon="37.3068990">
    <ele>2667.4</ele>
    <time>2026-06-20T14:12:07Z</time>
   </trkpt>
   <trkpt lat="-3.1363480" lon="37.3069100">
    <ele>2667.4</ele>
    <time>2026-06-20T14:12:08Z</time>
   </trkpt>
   <trkpt lat="-3.1363570" lon="37.3069100">
    <ele>2667.5</ele>
    <time>2026-06-20T14:12:09Z</time>
   </trkpt>
   <trkpt lat="-3.1363580" lon="37.3069100">
    <ele>2667.5</ele>
    <time>2026-06-20T14:12:10Z</time>
   </trkpt>
   <trkpt lat="-3.1363500" lon="37.3069170">
    <ele>2667.5</ele>
    <time>2026-06-20T14:12:11Z</time>
   </trkpt>
   <trkpt lat="-3.1363410" lon="37.3069270">
    <ele>2667.6</ele>
    <time>2026-06-20T14:12:12Z</time>
   </trkpt>
   <trkpt lat="-3.1363420" lon="37.3069320">
    <ele>2667.6</ele>
    <time>2026-06-20T14:12:13Z</time>
   </trkpt>
   <trkpt lat="-3.1363420" lon="37.3069370">
    <ele>2667.6</ele>
    <time>2026-06-20T14:12:14Z</time>
   </trkpt>
   <trkpt lat="-3.1363400" lon="37.3069400">
    <ele>2667.6</ele>
    <time>2026-06-20T14:12:15Z</time>
   </trkpt>
   <trkpt lat="-3.1363390" lon="37.3069430">
    <ele>2667.7</ele>
    <time>2026-06-20T14:12:16Z</time>
   </trkpt>
   <trkpt lat="-3.1363390" lon="37.3069490">
    <ele>2667.7</ele>
    <time>2026-06-20T14:12:17Z</time>
   </trkpt>
   <trkpt lat="-3.1363400" lon="37.3069550">
    <ele>2667.7</ele>
    <time>2026-06-20T14:12:18Z</time>
   </trkpt>
   <trkpt lat="-3.1363340" lon="37.3069620">
    <ele>2667.8</ele>
    <time>2026-06-20T14:12:19Z</time>
   </trkpt>
   <trkpt lat="-3.1363340" lon="37.3069690">
    <ele>2667.8</ele>
    <time>2026-06-20T14:12:20Z</time>
   </trkpt>
   <trkpt lat="-3.1363440" lon="37.3069750">
    <ele>2667.8</ele>
    <time>2026-06-20T14:12:21Z</time>
   </trkpt>
   <trkpt lat="-3.1363460" lon="37.3069820">
    <ele>2667.9</ele>
    <time>2026-06-20T14:12:22Z</time>
   </trkpt>
   <trkpt lat="-3.1363440" lon="37.3069870">
    <ele>2667.9</ele>
    <time>2026-06-20T14:12:23Z</time>
   </trkpt>
   <trkpt lat="-3.1363380" lon="37.3069960">
    <ele>2668.0</ele>
    <time>2026-06-20T14:12:24Z</time>
   </trkpt>
   <trkpt lat="-3.1363340" lon="37.3069970">
    <ele>2668.0</ele>
    <time>2026-06-20T14:12:25Z</time>
   </trkpt>
   <trkpt lat="-3.1363270" lon="37.3070000">
    <ele>2668.0</ele>
    <time>2026-06-20T14:12:26Z</time>
   </trkpt>
   <trkpt lat="-3.1363220" lon="37.3070000">
    <ele>2668.0</ele>
    <time>2026-06-20T14:12:27Z</time>
   </trkpt>
   <trkpt lat="-3.1363160" lon="37.3070030">
    <ele>2668.1</ele>
    <time>2026-06-20T14:12:28Z</time>
   </trkpt>
   <trkpt lat="-3.1363090" lon="37.3070100">
    <ele>2668.1</ele>
    <time>2026-06-20T14:12:29Z</time>
   </trkpt>
   <trkpt lat="-3.1362990" lon="37.3070160">
    <ele>2668.2</ele>
    <time>2026-06-20T14:12:30Z</time>
   </trkpt>
   <trkpt lat="-3.1362940" lon="37.3070160">
    <ele>2668.2</ele>
    <time>2026-06-20T14:12:31Z</time>
   </trkpt>
   <trkpt lat="-3.1362870" lon="37.3070230">
    <ele>2668.3</ele>
    <time>2026-06-20T14:12:32Z</time>
   </trkpt>
   <trkpt lat="-3.1362780" lon="37.3070350">
    <ele>2668.3</ele>
    <time>2026-06-20T14:12:33Z</time>
   </trkpt>
   <trkpt lat="-3.1362670" lon="37.3070430">
    <ele>2668.4</ele>
    <time>2026-06-20T14:12:34Z</time>
   </trkpt>
   <trkpt lat="-3.1362690" lon="37.3070450">
    <ele>2668.4</ele>
    <time>2026-06-20T14:12:35Z</time>
   </trkpt>
   <trkpt lat="-3.1362690" lon="37.3070450">
    <ele>2668.4</ele>
    <time>2026-06-20T14:12:36Z</time>
   </trkpt>
   <trkpt lat="-3.1362660" lon="37.3070410">
    <ele>2668.4</ele>
    <time>2026-06-20T14:12:37Z</time>
   </trkpt>
   <trkpt lat="-3.1362660" lon="37.3070440">
    <ele>2668.5</ele>
    <time>2026-06-20T14:12:38Z</time>
   </trkpt>
   <trkpt lat="-3.1362650" lon="37.3070450">
    <ele>2668.5</ele>
    <time>2026-06-20T14:12:39Z</time>
   </trkpt>
   <trkpt lat="-3.1362640" lon="37.3070490">
    <ele>2668.5</ele>
    <time>2026-06-20T14:12:40Z</time>
   </trkpt>
   <trkpt lat="-3.1362620" lon="37.3070510">
    <ele>2668.5</ele>
    <time>2026-06-20T14:12:41Z</time>
   </trkpt>
   <trkpt lat="-3.1362610" lon="37.3070520">
    <ele>2668.5</ele>
    <time>2026-06-20T14:12:42Z</time>
   </trkpt>
   <trkpt lat="-3.1362570" lon="37.3070540">
    <ele>2668.5</ele>
    <time>2026-06-20T14:12:43Z</time>
   </trkpt>
   <trkpt lat="-3.1362510" lon="37.3070560">
    <ele>2668.5</ele>
    <time>2026-06-20T14:12:44Z</time>
   </trkpt>
   <trkpt lat="-3.1362430" lon="37.3070570">
    <ele>2668.5</ele>
    <time>2026-06-20T14:12:45Z</time>
   </trkpt>
   <trkpt lat="-3.1362330" lon="37.3070570">
    <ele>2668.6</ele>
    <time>2026-06-20T14:12:46Z</time>
   </trkpt>
   <trkpt lat="-3.1362200" lon="37.3070540">
    <ele>2668.6</ele>
    <time>2026-06-20T14:12:47Z</time>
   </trkpt>
   <trkpt lat="-3.1362070" lon="37.3070530">
    <ele>2668.7</ele>
    <time>2026-06-20T14:12:48Z</time>
   </trkpt>
   <trkpt lat="-3.1361990" lon="37.3070530">
    <ele>2668.7</ele>
    <time>2026-06-20T14:12:49Z</time>
   </trkpt>
   <trkpt lat="-3.1361900" lon="37.3070450">
    <ele>2668.7</ele>
    <time>2026-06-20T14:12:50Z</time>
   </trkpt>
   <trkpt lat="-3.1361830" lon="37.3070400">
    <ele>2668.7</ele>
    <time>2026-06-20T14:12:51Z</time>
   </trkpt>
   <trkpt lat="-3.1361750" lon="37.3070420">
    <ele>2668.7</ele>
    <time>2026-06-20T14:12:52Z</time>
   </trkpt>
   <trkpt lat="-3.1361690" lon="37.3070390">
    <ele>2668.7</ele>
    <time>2026-06-20T14:12:53Z</time>
   </trkpt>
   <trkpt lat="-3.1361620" lon="37.3070330">
    <ele>2668.7</ele>
    <time>2026-06-20T14:12:54Z</time>
   </trkpt>
   <trkpt lat="-3.1361460" lon="37.3070360">
    <ele>2668.7</ele>
    <time>2026-06-20T14:12:55Z</time>
   </trkpt>
   <trkpt lat="-3.1361370" lon="37.3070380">
    <ele>2668.7</ele>
    <time>2026-06-20T14:12:56Z</time>
   </trkpt>
   <trkpt lat="-3.1361330" lon="37.3070380">
    <ele>2668.7</ele>
    <time>2026-06-20T14:12:57Z</time>
   </trkpt>
   <trkpt lat="-3.1361360" lon="37.3070380">
    <ele>2668.7</ele>
    <time>2026-06-20T14:12:58Z</time>
   </trkpt>
   <trkpt lat="-3.1361350" lon="37.3070360">
    <ele>2668.7</ele>
    <time>2026-06-20T14:12:59Z</time>
   </trkpt>
   <trkpt lat="-3.1361300" lon="37.3070340">
    <ele>2668.7</ele>
    <time>2026-06-20T14:13:00Z</time>
   </trkpt>
   <trkpt lat="-3.1361300" lon="37.3070340">
    <ele>2668.7</ele>
    <time>2026-06-20T14:13:01Z</time>
   </trkpt>
   <trkpt lat="-3.1361270" lon="37.3070320">
    <ele>2668.7</ele>
    <time>2026-06-20T14:13:02Z</time>
   </trkpt>
   <trkpt lat="-3.1361200" lon="37.3070350">
    <ele>2668.6</ele>
    <time>2026-06-20T14:13:03Z</time>
   </trkpt>
   <trkpt lat="-3.1361200" lon="37.3070390">
    <ele>2668.6</ele>
    <time>2026-06-20T14:13:04Z</time>
   </trkpt>
   <trkpt lat="-3.1361120" lon="37.3070490">
    <ele>2668.6</ele>
    <time>2026-06-20T14:13:05Z</time>
   </trkpt>
   <trkpt lat="-3.1361070" lon="37.3070520">
    <ele>2668.6</ele>
    <time>2026-06-20T14:13:06Z</time>
   </trkpt>
   <trkpt lat="-3.1361030" lon="37.3070510">
    <ele>2668.6</ele>
    <time>2026-06-20T14:13:07Z</time>
   </trkpt>
   <trkpt lat="-3.1360950" lon="37.3070530">
    <ele>2668.6</ele>
    <time>2026-06-20T14:13:08Z</time>
   </trkpt>
   <trkpt lat="-3.1360880" lon="37.3070570">
    <ele>2668.6</ele>
    <time>2026-06-20T14:13:09Z</time>
   </trkpt>
   <trkpt lat="-3.1360840" lon="37.3070610">
    <ele>2668.6</ele>
    <time>2026-06-20T14:13:10Z</time>
   </trkpt>
   <trkpt lat="-3.1360800" lon="37.3070620">
    <ele>2668.5</ele>
    <time>2026-06-20T14:13:11Z</time>
   </trkpt>
   <trkpt lat="-3.1360830" lon="37.3070680">
    <ele>2668.5</ele>
    <time>2026-06-20T14:13:12Z</time>
   </trkpt>
   <trkpt lat="-3.1360860" lon="37.3070700">
    <ele>2668.5</ele>
    <time>2026-06-20T14:13:13Z</time>
   </trkpt>
   <trkpt lat="-3.1360880" lon="37.3070710">
    <ele>2668.5</ele>
    <time>2026-06-20T14:13:14Z</time>
   </trkpt>
   <trkpt lat="-3.1360890" lon="37.3070740">
    <ele>2668.5</ele>
    <time>2026-06-20T14:13:15Z</time>
   </trkpt>
   <trkpt lat="-3.1360830" lon="37.3070760">
    <ele>2668.5</ele>
    <time>2026-06-20T14:13:16Z</time>
   </trkpt>
   <trkpt lat="-3.1360810" lon="37.3070830">
    <ele>2668.5</ele>
    <time>2026-06-20T14:13:17Z</time>
   </trkpt>
   <trkpt lat="-3.1360810" lon="37.3070880">
    <ele>2668.5</ele>
    <time>2026-06-20T14:13:18Z</time>
   </trkpt>
   <trkpt lat="-3.1360720" lon="37.3070900">
    <ele>2668.4</ele>
    <time>2026-06-20T14:13:19Z</time>
   </trkpt>
   <trkpt lat="-3.1360590" lon="37.3070960">
    <ele>2668.4</ele>
    <time>2026-06-20T14:13:20Z</time>
   </trkpt>
   <trkpt lat="-3.1360490" lon="37.3071000">
    <ele>2668.4</ele>
    <time>2026-06-20T14:13:21Z</time>
   </trkpt>
   <trkpt lat="-3.1360390" lon="37.3071100">
    <ele>2668.4</ele>
    <time>2026-06-20T14:13:22Z</time>
   </trkpt>
   <trkpt lat="-3.1360330" lon="37.3071160">
    <ele>2668.3</ele>
    <time>2026-06-20T14:13:23Z</time>
   </trkpt>
   <trkpt lat="-3.1360270" lon="37.3071180">
    <ele>2668.3</ele>
    <time>2026-06-20T14:13:24Z</time>
   </trkpt>
   <trkpt lat="-3.1360230" lon="37.3071160">
    <ele>2668.3</ele>
    <time>2026-06-20T14:13:25Z</time>
   </trkpt>
   <trkpt lat="-3.1360160" lon="37.3071170">
    <ele>2668.3</ele>
    <time>2026-06-20T14:13:26Z</time>
   </trkpt>
   <trkpt lat="-3.1360090" lon="37.3071200">
    <ele>2668.3</ele>
    <time>2026-06-20T14:13:27Z</time>
   </trkpt>
   <trkpt lat="-3.1360020" lon="37.3071220">
    <ele>2668.3</ele>
    <time>2026-06-20T14:13:28Z</time>
   </trkpt>
   <trkpt lat="-3.1359910" lon="37.3071260">
    <ele>2668.2</ele>
    <time>2026-06-20T14:13:29Z</time>
   </trkpt>
   <trkpt lat="-3.1359830" lon="37.3071260">
    <ele>2668.2</ele>
    <time>2026-06-20T14:13:30Z</time>
   </trkpt>
   <trkpt lat="-3.1359710" lon="37.3071300">
    <ele>2668.2</ele>
    <time>2026-06-20T14:13:31Z</time>
   </trkpt>
   <trkpt lat="-3.1359570" lon="37.3071340">
    <ele>2668.2</ele>
    <time>2026-06-20T14:13:32Z</time>
   </trkpt>
   <trkpt lat="-3.1359390" lon="37.3071380">
    <ele>2668.2</ele>
    <time>2026-06-20T14:13:33Z</time>
   </trkpt>
   <trkpt lat="-3.1359290" lon="37.3071430">
    <ele>2668.2</ele>
    <time>2026-06-20T14:13:34Z</time>
   </trkpt>
   <trkpt lat="-3.1359190" lon="37.3071470">
    <ele>2668.2</ele>
    <time>2026-06-20T14:13:35Z</time>
   </trkpt>
   <trkpt lat="-3.1359130" lon="37.3071510">
    <ele>2668.2</ele>
    <time>2026-06-20T14:13:36Z</time>
   </trkpt>
   <trkpt lat="-3.1358970" lon="37.3071630">
    <ele>2668.2</ele>
    <time>2026-06-20T14:13:37Z</time>
   </trkpt>
   <trkpt lat="-3.1358940" lon="37.3071610">
    <ele>2668.2</ele>
    <time>2026-06-20T14:13:38Z</time>
   </trkpt>
   <trkpt lat="-3.1358870" lon="37.3071630">
    <ele>2668.2</ele>
    <time>2026-06-20T14:13:39Z</time>
   </trkpt>
   <trkpt lat="-3.1358860" lon="37.3071690">
    <ele>2668.2</ele>
    <time>2026-06-20T14:13:40Z</time>
   </trkpt>
   <trkpt lat="-3.1358850" lon="37.3071660">
    <ele>2668.2</ele>
    <time>2026-06-20T14:13:41Z</time>
   </trkpt>
   <trkpt lat="-3.1358800" lon="37.3071760">
    <ele>2668.2</ele>
    <time>2026-06-20T14:13:42Z</time>
   </trkpt>
   <trkpt lat="-3.1358720" lon="37.3071790">
    <ele>2668.2</ele>
    <time>2026-06-20T14:13:43Z</time>
   </trkpt>
   <trkpt lat="-3.1358660" lon="37.3071820">
    <ele>2668.2</ele>
    <time>2026-06-20T14:13:44Z</time>
   </trkpt>
   <trkpt lat="-3.1358580" lon="37.3071920">
    <ele>2668.3</ele>
    <time>2026-06-20T14:13:45Z</time>
   </trkpt>
   <trkpt lat="-3.1358540" lon="37.3071950">
    <ele>2668.3</ele>
    <time>2026-06-20T14:13:46Z</time>
   </trkpt>
   <trkpt lat="-3.1358570" lon="37.3071960">
    <ele>2668.3</ele>
    <time>2026-06-20T14:13:48Z</time>
   </trkpt>
   <trkpt lat="-3.1358580" lon="37.3071990">
    <ele>2668.3</ele>
    <time>2026-06-20T14:13:49Z</time>
   </trkpt>
   <trkpt lat="-3.1358480" lon="37.3072180">
    <ele>2668.4</ele>
    <time>2026-06-20T14:13:51Z</time>
   </trkpt>
   <trkpt lat="-3.1358440" lon="37.3072280">
    <ele>2668.5</ele>
    <time>2026-06-20T14:13:52Z</time>
   </trkpt>
   <trkpt lat="-3.1358350" lon="37.3072370">
    <ele>2668.5</ele>
    <time>2026-06-20T14:13:54Z</time>
   </trkpt>
   <trkpt lat="-3.1358270" lon="37.3072440">
    <ele>2668.6</ele>
    <time>2026-06-20T14:13:55Z</time>
   </trkpt>
   <trkpt lat="-3.1358300" lon="37.3072460">
    <ele>2668.6</ele>
    <time>2026-06-20T14:13:57Z</time>
   </trkpt>
   <trkpt lat="-3.1358320" lon="37.3072460">
    <ele>2668.6</ele>
    <time>2026-06-20T14:13:58Z</time>
   </trkpt>
   <trkpt lat="-3.1358280" lon="37.3072470">
    <ele>2668.6</ele>
    <time>2026-06-20T14:13:59Z</time>
   </trkpt>
   <trkpt lat="-3.1358240" lon="37.3072490">
    <ele>2668.7</ele>
    <time>2026-06-20T14:14:00Z</time>
   </trkpt>
   <trkpt lat="-3.1358160" lon="37.3072500">
    <ele>2668.7</ele>
    <time>2026-06-20T14:14:01Z</time>
   </trkpt>
   <trkpt lat="-3.1358100" lon="37.3072430">
    <ele>2668.8</ele>
    <time>2026-06-20T14:14:02Z</time>
   </trkpt>
   <trkpt lat="-3.1357990" lon="37.3072450">
    <ele>2668.9</ele>
    <time>2026-06-20T14:14:03Z</time>
   </trkpt>
   <trkpt lat="-3.1357930" lon="37.3072420">
    <ele>2668.9</ele>
    <time>2026-06-20T14:14:04Z</time>
   </trkpt>
   <trkpt lat="-3.1357850" lon="37.3072370">
    <ele>2669.0</ele>
    <time>2026-06-20T14:14:05Z</time>
   </trkpt>
   <trkpt lat="-3.1357850" lon="37.3072380">
    <ele>2669.0</ele>
    <time>2026-06-20T14:14:06Z</time>
   </trkpt>
   <trkpt lat="-3.1357780" lon="37.3072410">
    <ele>2669.1</ele>
    <time>2026-06-20T14:14:07Z</time>
   </trkpt>
   <trkpt lat="-3.1357770" lon="37.3072440">
    <ele>2669.1</ele>
    <time>2026-06-20T14:14:08Z</time>
   </trkpt>
   <trkpt lat="-3.1357690" lon="37.3072480">
    <ele>2669.2</ele>
    <time>2026-06-20T14:14:09Z</time>
   </trkpt>
   <trkpt lat="-3.1357630" lon="37.3072500">
    <ele>2669.2</ele>
    <time>2026-06-20T14:14:10Z</time>
   </trkpt>
   <trkpt lat="-3.1357610" lon="37.3072470">
    <ele>2669.3</ele>
    <time>2026-06-20T14:14:11Z</time>
   </trkpt>
   <trkpt lat="-3.1357550" lon="37.3072480">
    <ele>2669.3</ele>
    <time>2026-06-20T14:14:12Z</time>
   </trkpt>
   <trkpt lat="-3.1357550" lon="37.3072470">
    <ele>2669.3</ele>
    <time>2026-06-20T14:14:13Z</time>
   </trkpt>
   <trkpt lat="-3.1357430" lon="37.3072510">
    <ele>2669.4</ele>
    <time>2026-06-20T14:14:14Z</time>
   </trkpt>
   <trkpt lat="-3.1357380" lon="37.3072520">
    <ele>2669.5</ele>
    <time>2026-06-20T14:14:15Z</time>
   </trkpt>
   <trkpt lat="-3.1357360" lon="37.3072470">
    <ele>2669.5</ele>
    <time>2026-06-20T14:14:16Z</time>
   </trkpt>
   <trkpt lat="-3.1357310" lon="37.3072450">
    <ele>2669.6</ele>
    <time>2026-06-20T14:14:17Z</time>
   </trkpt>
   <trkpt lat="-3.1357360" lon="37.3072440">
    <ele>2669.6</ele>
    <time>2026-06-20T14:14:18Z</time>
   </trkpt>
   <trkpt lat="-3.1357290" lon="37.3072720">
    <ele>2669.9</ele>
    <time>2026-06-20T14:14:19Z</time>
   </trkpt>
   <trkpt lat="-3.1357280" lon="37.3072780">
    <ele>2669.9</ele>
    <time>2026-06-20T14:14:20Z</time>
   </trkpt>
   <trkpt lat="-3.1357240" lon="37.3072830">
    <ele>2670.0</ele>
    <time>2026-06-20T14:14:21Z</time>
   </trkpt>
   <trkpt lat="-3.1357200" lon="37.3072870">
    <ele>2670.0</ele>
    <time>2026-06-20T14:14:22Z</time>
   </trkpt>
   <trkpt lat="-3.1357190" lon="37.3072950">
    <ele>2670.1</ele>
    <time>2026-06-20T14:14:23Z</time>
   </trkpt>
   <trkpt lat="-3.1357060" lon="37.3073000">
    <ele>2670.2</ele>
    <time>2026-06-20T14:14:24Z</time>
   </trkpt>
   <trkpt lat="-3.1357050" lon="37.3073100">
    <ele>2670.3</ele>
    <time>2026-06-20T14:14:25Z</time>
   </trkpt>
   <trkpt lat="-3.1357130" lon="37.3073150">
    <ele>2670.3</ele>
    <time>2026-06-20T14:14:26Z</time>
   </trkpt>
   <trkpt lat="-3.1357100" lon="37.3073190">
    <ele>2670.4</ele>
    <time>2026-06-20T14:14:27Z</time>
   </trkpt>
   <trkpt lat="-3.1357060" lon="37.3073230">
    <ele>2670.4</ele>
    <time>2026-06-20T14:14:28Z</time>
   </trkpt>
   <trkpt lat="-3.1357000" lon="37.3073310">
    <ele>2670.5</ele>
    <time>2026-06-20T14:14:29Z</time>
   </trkpt>
   <trkpt lat="-3.1357020" lon="37.3073260">
    <ele>2670.5</ele>
    <time>2026-06-20T14:14:30Z</time>
   </trkpt>
   <trkpt lat="-3.1356960" lon="37.3073410">
    <ele>2670.6</ele>
    <time>2026-06-20T14:14:31Z</time>
   </trkpt>
   <trkpt lat="-3.1356990" lon="37.3073400">
    <ele>2670.6</ele>
    <time>2026-06-20T14:14:32Z</time>
   </trkpt>
   <trkpt lat="-3.1356940" lon="37.3073430">
    <ele>2670.7</ele>
    <time>2026-06-20T14:14:33Z</time>
   </trkpt>
   <trkpt lat="-3.1356890" lon="37.3073420">
    <ele>2670.7</ele>
    <time>2026-06-20T14:14:34Z</time>
   </trkpt>
   <trkpt lat="-3.1356840" lon="37.3073440">
    <ele>2670.8</ele>
    <time>2026-06-20T14:14:35Z</time>
   </trkpt>
   <trkpt lat="-3.1356800" lon="37.3073410">
    <ele>2670.8</ele>
    <time>2026-06-20T14:14:36Z</time>
   </trkpt>
   <trkpt lat="-3.1356770" lon="37.3073400">
    <ele>2670.8</ele>
    <time>2026-06-20T14:14:37Z</time>
   </trkpt>
   <trkpt lat="-3.1356690" lon="37.3073400">
    <ele>2670.9</ele>
    <time>2026-06-20T14:14:38Z</time>
   </trkpt>
   <trkpt lat="-3.1356650" lon="37.3073360">
    <ele>2670.9</ele>
    <time>2026-06-20T14:14:39Z</time>
   </trkpt>
   <trkpt lat="-3.1356620" lon="37.3073330">
    <ele>2670.9</ele>
    <time>2026-06-20T14:14:40Z</time>
   </trkpt>
   <trkpt lat="-3.1356560" lon="37.3073330">
    <ele>2671.0</ele>
    <time>2026-06-20T14:14:41Z</time>
   </trkpt>
   <trkpt lat="-3.1356520" lon="37.3073380">
    <ele>2671.0</ele>
    <time>2026-06-20T14:14:42Z</time>
   </trkpt>
   <trkpt lat="-3.1356450" lon="37.3073420">
    <ele>2671.1</ele>
    <time>2026-06-20T14:14:43Z</time>
   </trkpt>
   <trkpt lat="-3.1356390" lon="37.3073440">
    <ele>2671.1</ele>
    <time>2026-06-20T14:14:44Z</time>
   </trkpt>
   <trkpt lat="-3.1356310" lon="37.3073460">
    <ele>2671.2</ele>
    <time>2026-06-20T14:14:45Z</time>
   </trkpt>
   <trkpt lat="-3.1356250" lon="37.3073460">
    <ele>2671.2</ele>
    <time>2026-06-20T14:14:46Z</time>
   </trkpt>
   <trkpt lat="-3.1356180" lon="37.3073490">
    <ele>2671.3</ele>
    <time>2026-06-20T14:14:47Z</time>
   </trkpt>
   <trkpt lat="-3.1356200" lon="37.3073430">
    <ele>2671.3</ele>
    <time>2026-06-20T14:14:48Z</time>
   </trkpt>
   <trkpt lat="-3.1356140" lon="37.3073420">
    <ele>2671.3</ele>
    <time>2026-06-20T14:14:49Z</time>
   </trkpt>
   <trkpt lat="-3.1356080" lon="37.3073440">
    <ele>2671.4</ele>
    <time>2026-06-20T14:14:50Z</time>
   </trkpt>
   <trkpt lat="-3.1356020" lon="37.3073470">
    <ele>2671.4</ele>
    <time>2026-06-20T14:14:51Z</time>
   </trkpt>
   <trkpt lat="-3.1356030" lon="37.3073380">
    <ele>2671.5</ele>
    <time>2026-06-20T14:14:52Z</time>
   </trkpt>
   <trkpt lat="-3.1356120" lon="37.3073400">
    <ele>2671.5</ele>
    <time>2026-06-20T14:14:53Z</time>
   </trkpt>
   <trkpt lat="-3.1356070" lon="37.3073420">
    <ele>2671.6</ele>
    <time>2026-06-20T14:14:54Z</time>
   </trkpt>
   <trkpt lat="-3.1355980" lon="37.3073440">
    <ele>2671.6</ele>
    <time>2026-06-20T14:14:55Z</time>
   </trkpt>
   <trkpt lat="-3.1355940" lon="37.3073430">
    <ele>2671.7</ele>
    <time>2026-06-20T14:14:56Z</time>
   </trkpt>
   <trkpt lat="-3.1355780" lon="37.3073430">
    <ele>2671.8</ele>
    <time>2026-06-20T14:14:57Z</time>
   </trkpt>
   <trkpt lat="-3.1355650" lon="37.3073430">
    <ele>2671.9</ele>
    <time>2026-06-20T14:14:58Z</time>
   </trkpt>
   <trkpt lat="-3.1355530" lon="37.3073390">
    <ele>2671.9</ele>
    <time>2026-06-20T14:14:59Z</time>
   </trkpt>
   <trkpt lat="-3.1355430" lon="37.3073430">
    <ele>2672.0</ele>
    <time>2026-06-20T14:15:00Z</time>
   </trkpt>
   <trkpt lat="-3.1355340" lon="37.3073480">
    <ele>2672.1</ele>
    <time>2026-06-20T14:15:01Z</time>
   </trkpt>
   <trkpt lat="-3.1355270" lon="37.3073560">
    <ele>2672.1</ele>
    <time>2026-06-20T14:15:02Z</time>
   </trkpt>
   <trkpt lat="-3.1355350" lon="37.3073620">
    <ele>2672.2</ele>
    <time>2026-06-20T14:15:03Z</time>
   </trkpt>
   <trkpt lat="-3.1355400" lon="37.3073670">
    <ele>2672.2</ele>
    <time>2026-06-20T14:15:04Z</time>
   </trkpt>
   <trkpt lat="-3.1355360" lon="37.3073760">
    <ele>2672.3</ele>
    <time>2026-06-20T14:15:05Z</time>
   </trkpt>
   <trkpt lat="-3.1355380" lon="37.3073800">
    <ele>2672.3</ele>
    <time>2026-06-20T14:15:06Z</time>
   </trkpt>
   <trkpt lat="-3.1355360" lon="37.3073850">
    <ele>2672.3</ele>
    <time>2026-06-20T14:15:07Z</time>
   </trkpt>
   <trkpt lat="-3.1355350" lon="37.3073970">
    <ele>2672.4</ele>
    <time>2026-06-20T14:15:08Z</time>
   </trkpt>
   <trkpt lat="-3.1355230" lon="37.3074010">
    <ele>2672.5</ele>
    <time>2026-06-20T14:15:09Z</time>
   </trkpt>
   <trkpt lat="-3.1355170" lon="37.3074020">
    <ele>2672.5</ele>
    <time>2026-06-20T14:15:10Z</time>
   </trkpt>
   <trkpt lat="-3.1355120" lon="37.3074050">
    <ele>2672.5</ele>
    <time>2026-06-20T14:15:11Z</time>
   </trkpt>
   <trkpt lat="-3.1355060" lon="37.3074060">
    <ele>2672.6</ele>
    <time>2026-06-20T14:15:12Z</time>
   </trkpt>
   <trkpt lat="-3.1354960" lon="37.3074110">
    <ele>2672.6</ele>
    <time>2026-06-20T14:15:13Z</time>
   </trkpt>
   <trkpt lat="-3.1354890" lon="37.3074120">
    <ele>2672.7</ele>
    <time>2026-06-20T14:15:14Z</time>
   </trkpt>
   <trkpt lat="-3.1354860" lon="37.3074110">
    <ele>2672.7</ele>
    <time>2026-06-20T14:15:15Z</time>
   </trkpt>
   <trkpt lat="-3.1354810" lon="37.3074130">
    <ele>2672.7</ele>
    <time>2026-06-20T14:15:16Z</time>
   </trkpt>
   <trkpt lat="-3.1354860" lon="37.3074130">
    <ele>2672.7</ele>
    <time>2026-06-20T14:15:17Z</time>
   </trkpt>
   <trkpt lat="-3.1354830" lon="37.3074070">
    <ele>2672.8</ele>
    <time>2026-06-20T14:15:18Z</time>
   </trkpt>
   <trkpt lat="-3.1354780" lon="37.3074020">
    <ele>2672.8</ele>
    <time>2026-06-20T14:15:19Z</time>
   </trkpt>
   <trkpt lat="-3.1354740" lon="37.3073990">
    <ele>2672.8</ele>
    <time>2026-06-20T14:15:20Z</time>
   </trkpt>
   <trkpt lat="-3.1354690" lon="37.3073960">
    <ele>2672.9</ele>
    <time>2026-06-20T14:15:21Z</time>
   </trkpt>
   <trkpt lat="-3.1354650" lon="37.3073920">
    <ele>2672.9</ele>
    <time>2026-06-20T14:15:22Z</time>
   </trkpt>
   <trkpt lat="-3.1354620" lon="37.3073860">
    <ele>2672.9</ele>
    <time>2026-06-20T14:15:23Z</time>
   </trkpt>
   <trkpt lat="-3.1354620" lon="37.3073800">
    <ele>2673.0</ele>
    <time>2026-06-20T14:15:24Z</time>
   </trkpt>
   <trkpt lat="-3.1354630" lon="37.3073760">
    <ele>2673.0</ele>
    <time>2026-06-20T14:15:25Z</time>
   </trkpt>
   <trkpt lat="-3.1354630" lon="37.3073730">
    <ele>2673.0</ele>
    <time>2026-06-20T14:15:26Z</time>
   </trkpt>
   <trkpt lat="-3.1354620" lon="37.3073660">
    <ele>2673.1</ele>
    <time>2026-06-20T14:15:27Z</time>
   </trkpt>
   <trkpt lat="-3.1354620" lon="37.3073650">
    <ele>2673.1</ele>
    <time>2026-06-20T14:15:28Z</time>
   </trkpt>
   <trkpt lat="-3.1354590" lon="37.3073580">
    <ele>2673.1</ele>
    <time>2026-06-20T14:15:29Z</time>
   </trkpt>
   <trkpt lat="-3.1354520" lon="37.3073570">
    <ele>2673.2</ele>
    <time>2026-06-20T14:15:30Z</time>
   </trkpt>
   <trkpt lat="-3.1354510" lon="37.3073520">
    <ele>2673.2</ele>
    <time>2026-06-20T14:15:31Z</time>
   </trkpt>
   <trkpt lat="-3.1354460" lon="37.3073450">
    <ele>2673.3</ele>
    <time>2026-06-20T14:15:32Z</time>
   </trkpt>
   <trkpt lat="-3.1354420" lon="37.3073410">
    <ele>2673.3</ele>
    <time>2026-06-20T14:15:33Z</time>
   </trkpt>
   <trkpt lat="-3.1354400" lon="37.3073360">
    <ele>2673.4</ele>
    <time>2026-06-20T14:15:34Z</time>
   </trkpt>
   <trkpt lat="-3.1354390" lon="37.3073280">
    <ele>2673.5</ele>
    <time>2026-06-20T14:15:35Z</time>
   </trkpt>
   <trkpt lat="-3.1354370" lon="37.3073260">
    <ele>2673.5</ele>
    <time>2026-06-20T14:15:36Z</time>
   </trkpt>
   <trkpt lat="-3.1354340" lon="37.3073240">
    <ele>2673.5</ele>
    <time>2026-06-20T14:15:37Z</time>
   </trkpt>
   <trkpt lat="-3.1354380" lon="37.3073160">
    <ele>2673.6</ele>
    <time>2026-06-20T14:15:38Z</time>
   </trkpt>
   <trkpt lat="-3.1354380" lon="37.3073120">
    <ele>2673.6</ele>
    <time>2026-06-20T14:15:39Z</time>
   </trkpt>
   <trkpt lat="-3.1354290" lon="37.3073130">
    <ele>2673.7</ele>
    <time>2026-06-20T14:15:40Z</time>
   </trkpt>
   <trkpt lat="-3.1354240" lon="37.3073070">
    <ele>2673.8</ele>
    <time>2026-06-20T14:15:41Z</time>
   </trkpt>
   <trkpt lat="-3.1354250" lon="37.3072990">
    <ele>2673.9</ele>
    <time>2026-06-20T14:15:42Z</time>
   </trkpt>
   <trkpt lat="-3.1354190" lon="37.3072980">
    <ele>2674.0</ele>
    <time>2026-06-20T14:15:43Z</time>
   </trkpt>
   <trkpt lat="-3.1354160" lon="37.3072970">
    <ele>2674.0</ele>
    <time>2026-06-20T14:15:44Z</time>
   </trkpt>
   <trkpt lat="-3.1354100" lon="37.3072960">
    <ele>2674.1</ele>
    <time>2026-06-20T14:15:45Z</time>
   </trkpt>
   <trkpt lat="-3.1354050" lon="37.3072940">
    <ele>2674.2</ele>
    <time>2026-06-20T14:15:46Z</time>
   </trkpt>
   <trkpt lat="-3.1354020" lon="37.3072920">
    <ele>2674.2</ele>
    <time>2026-06-20T14:15:47Z</time>
   </trkpt>
   <trkpt lat="-3.1353970" lon="37.3072910">
    <ele>2674.3</ele>
    <time>2026-06-20T14:15:48Z</time>
   </trkpt>
   <trkpt lat="-3.1353930" lon="37.3072940">
    <ele>2674.3</ele>
    <time>2026-06-20T14:15:49Z</time>
   </trkpt>
   <trkpt lat="-3.1353870" lon="37.3072980">
    <ele>2674.4</ele>
    <time>2026-06-20T14:15:50Z</time>
   </trkpt>
   <trkpt lat="-3.1353840" lon="37.3072960">
    <ele>2674.5</ele>
    <time>2026-06-20T14:15:51Z</time>
   </trkpt>
   <trkpt lat="-3.1353800" lon="37.3072930">
    <ele>2674.6</ele>
    <time>2026-06-20T14:15:53Z</time>
   </trkpt>
   <trkpt lat="-3.1353590" lon="37.3073060">
    <ele>2674.9</ele>
    <time>2026-06-20T14:15:54Z</time>
   </trkpt>
   <trkpt lat="-3.1353530" lon="37.3073160">
    <ele>2675.1</ele>
    <time>2026-06-20T14:15:55Z</time>
   </trkpt>
   <trkpt lat="-3.1353380" lon="37.3073320">
    <ele>2675.4</ele>
    <time>2026-06-20T14:15:57Z</time>
   </trkpt>
   <trkpt lat="-3.1353400" lon="37.3073360">
    <ele>2675.5</ele>
    <time>2026-06-20T14:15:58Z</time>
   </trkpt>
   <trkpt lat="-3.1353410" lon="37.3073400">
    <ele>2675.5</ele>
    <time>2026-06-20T14:15:59Z</time>
   </trkpt>
   <trkpt lat="-3.1353410" lon="37.3073500">
    <ele>2675.7</ele>
    <time>2026-06-20T14:16:00Z</time>
   </trkpt>
   <trkpt lat="-3.1353400" lon="37.3073570">
    <ele>2675.8</ele>
    <time>2026-06-20T14:16:01Z</time>
   </trkpt>
   <trkpt lat="-3.1353370" lon="37.3073620">
    <ele>2675.9</ele>
    <time>2026-06-20T14:16:02Z</time>
   </trkpt>
   <trkpt lat="-3.1353360" lon="37.3073640">
    <ele>2675.9</ele>
    <time>2026-06-20T14:16:03Z</time>
   </trkpt>
   <trkpt lat="-3.1353380" lon="37.3073710">
    <ele>2676.0</ele>
    <time>2026-06-20T14:16:04Z</time>
   </trkpt>
   <trkpt lat="-3.1353380" lon="37.3073830">
    <ele>2676.2</ele>
    <time>2026-06-20T14:16:05Z</time>
   </trkpt>
   <trkpt lat="-3.1353380" lon="37.3073920">
    <ele>2676.3</ele>
    <time>2026-06-20T14:16:06Z</time>
   </trkpt>
   <trkpt lat="-3.1353350" lon="37.3074060">
    <ele>2676.5</ele>
    <time>2026-06-20T14:16:07Z</time>
   </trkpt>
   <trkpt lat="-3.1353290" lon="37.3074120">
    <ele>2676.6</ele>
    <time>2026-06-20T14:16:08Z</time>
   </trkpt>
   <trkpt lat="-3.1353260" lon="37.3074080">
    <ele>2676.7</ele>
    <time>2026-06-20T14:16:09Z</time>
   </trkpt>
   <trkpt lat="-3.1353210" lon="37.3074090">
    <ele>2676.7</ele>
    <time>2026-06-20T14:16:10Z</time>
   </trkpt>
   <trkpt lat="-3.1353100" lon="37.3074090">
    <ele>2676.9</ele>
    <time>2026-06-20T14:16:11Z</time>
   </trkpt>
   <trkpt lat="-3.1353080" lon="37.3074070">
    <ele>2676.9</ele>
    <time>2026-06-20T14:16:12Z</time>
   </trkpt>
   <trkpt lat="-3.1353070" lon="37.3074000">
    <ele>2677.0</ele>
    <time>2026-06-20T14:16:13Z</time>
   </trkpt>
   <trkpt lat="-3.1353020" lon="37.3073970">
    <ele>2677.0</ele>
    <time>2026-06-20T14:16:14Z</time>
   </trkpt>
   <trkpt lat="-3.1352960" lon="37.3073950">
    <ele>2677.1</ele>
    <time>2026-06-20T14:16:15Z</time>
   </trkpt>
   <trkpt lat="-3.1352930" lon="37.3073940">
    <ele>2677.1</ele>
    <time>2026-06-20T14:16:16Z</time>
   </trkpt>
   <trkpt lat="-3.1352940" lon="37.3073930">
    <ele>2677.2</ele>
    <time>2026-06-20T14:16:17Z</time>
   </trkpt>
   <trkpt lat="-3.1352850" lon="37.3073950">
    <ele>2677.3</ele>
    <time>2026-06-20T14:16:18Z</time>
   </trkpt>
   <trkpt lat="-3.1352790" lon="37.3073960">
    <ele>2677.3</ele>
    <time>2026-06-20T14:16:19Z</time>
   </trkpt>
   <trkpt lat="-3.1352750" lon="37.3073920">
    <ele>2677.4</ele>
    <time>2026-06-20T14:16:20Z</time>
   </trkpt>
   <trkpt lat="-3.1352800" lon="37.3073890">
    <ele>2677.4</ele>
    <time>2026-06-20T14:16:21Z</time>
   </trkpt>
   <trkpt lat="-3.1352710" lon="37.3073920">
    <ele>2677.5</ele>
    <time>2026-06-20T14:16:22Z</time>
   </trkpt>
   <trkpt lat="-3.1352640" lon="37.3073920">
    <ele>2677.6</ele>
    <time>2026-06-20T14:16:23Z</time>
   </trkpt>
   <trkpt lat="-3.1352570" lon="37.3073900">
    <ele>2677.6</ele>
    <time>2026-06-20T14:16:24Z</time>
   </trkpt>
   <trkpt lat="-3.1352510" lon="37.3073900">
    <ele>2677.7</ele>
    <time>2026-06-20T14:16:25Z</time>
   </trkpt>
   <trkpt lat="-3.1352450" lon="37.3073950">
    <ele>2677.8</ele>
    <time>2026-06-20T14:16:26Z</time>
   </trkpt>
   <trkpt lat="-3.1352400" lon="37.3074000">
    <ele>2677.8</ele>
    <time>2026-06-20T14:16:27Z</time>
   </trkpt>
   <trkpt lat="-3.1352360" lon="37.3074000">
    <ele>2677.9</ele>
    <time>2026-06-20T14:16:28Z</time>
   </trkpt>
   <trkpt lat="-3.1352360" lon="37.3074010">
    <ele>2677.9</ele>
    <time>2026-06-20T14:16:29Z</time>
   </trkpt>
   <trkpt lat="-3.1352400" lon="37.3074000">
    <ele>2677.9</ele>
    <time>2026-06-20T14:16:30Z</time>
   </trkpt>
   <trkpt lat="-3.1352450" lon="37.3074020">
    <ele>2678.0</ele>
    <time>2026-06-20T14:16:31Z</time>
   </trkpt>
   <trkpt lat="-3.1352470" lon="37.3074070">
    <ele>2678.0</ele>
    <time>2026-06-20T14:16:32Z</time>
   </trkpt>
   <trkpt lat="-3.1352500" lon="37.3074140">
    <ele>2678.0</ele>
    <time>2026-06-20T14:16:33Z</time>
   </trkpt>
   <trkpt lat="-3.1352520" lon="37.3074180">
    <ele>2678.1</ele>
    <time>2026-06-20T14:16:34Z</time>
   </trkpt>
   <trkpt lat="-3.1352570" lon="37.3074200">
    <ele>2678.1</ele>
    <time>2026-06-20T14:16:35Z</time>
   </trkpt>
   <trkpt lat="-3.1352590" lon="37.3074290">
    <ele>2678.2</ele>
    <time>2026-06-20T14:16:36Z</time>
   </trkpt>
   <trkpt lat="-3.1352520" lon="37.3074440">
    <ele>2678.3</ele>
    <time>2026-06-20T14:16:37Z</time>
   </trkpt>
   <trkpt lat="-3.1352580" lon="37.3074460">
    <ele>2678.3</ele>
    <time>2026-06-20T14:16:38Z</time>
   </trkpt>
   <trkpt lat="-3.1352620" lon="37.3074470">
    <ele>2678.4</ele>
    <time>2026-06-20T14:16:39Z</time>
   </trkpt>
   <trkpt lat="-3.1352630" lon="37.3074580">
    <ele>2678.4</ele>
    <time>2026-06-20T14:16:40Z</time>
   </trkpt>
   <trkpt lat="-3.1352670" lon="37.3074690">
    <ele>2678.5</ele>
    <time>2026-06-20T14:16:41Z</time>
   </trkpt>
   <trkpt lat="-3.1352680" lon="37.3074820">
    <ele>2678.6</ele>
    <time>2026-06-20T14:16:42Z</time>
   </trkpt>
   <trkpt lat="-3.1352640" lon="37.3074900">
    <ele>2678.6</ele>
    <time>2026-06-20T14:16:43Z</time>
   </trkpt>
   <trkpt lat="-3.1352670" lon="37.3074900">
    <ele>2678.6</ele>
    <time>2026-06-20T14:16:44Z</time>
   </trkpt>
   <trkpt lat="-3.1352690" lon="37.3074960">
    <ele>2678.7</ele>
    <time>2026-06-20T14:16:45Z</time>
   </trkpt>
   <trkpt lat="-3.1352710" lon="37.3074960">
    <ele>2678.7</ele>
    <time>2026-06-20T14:16:46Z</time>
   </trkpt>
   <trkpt lat="-3.1352690" lon="37.3075010">
    <ele>2678.7</ele>
    <time>2026-06-20T14:16:47Z</time>
   </trkpt>
   <trkpt lat="-3.1352680" lon="37.3075100">
    <ele>2678.8</ele>
    <time>2026-06-20T14:16:48Z</time>
   </trkpt>
   <trkpt lat="-3.1352680" lon="37.3075160">
    <ele>2678.8</ele>
    <time>2026-06-20T14:16:49Z</time>
   </trkpt>
   <trkpt lat="-3.1352650" lon="37.3075190">
    <ele>2678.8</ele>
    <time>2026-06-20T14:16:50Z</time>
   </trkpt>
   <trkpt lat="-3.1352610" lon="37.3075210">
    <ele>2678.8</ele>
    <time>2026-06-20T14:16:51Z</time>
   </trkpt>
   <trkpt lat="-3.1352580" lon="37.3075180">
    <ele>2678.9</ele>
    <time>2026-06-20T14:16:52Z</time>
   </trkpt>
   <trkpt lat="-3.1352550" lon="37.3075230">
    <ele>2678.9</ele>
    <time>2026-06-20T14:16:53Z</time>
   </trkpt>
   <trkpt lat="-3.1352500" lon="37.3075200">
    <ele>2678.9</ele>
    <time>2026-06-20T14:16:54Z</time>
   </trkpt>
   <trkpt lat="-3.1352420" lon="37.3075230">
    <ele>2679.0</ele>
    <time>2026-06-20T14:16:55Z</time>
   </trkpt>
   <trkpt lat="-3.1352310" lon="37.3075300">
    <ele>2679.0</ele>
    <time>2026-06-20T14:16:56Z</time>
   </trkpt>
   <trkpt lat="-3.1352220" lon="37.3075390">
    <ele>2679.1</ele>
    <time>2026-06-20T14:16:57Z</time>
   </trkpt>
   <trkpt lat="-3.1352190" lon="37.3075440">
    <ele>2679.1</ele>
    <time>2026-06-20T14:16:58Z</time>
   </trkpt>
   <trkpt lat="-3.1352020" lon="37.3075560">
    <ele>2679.2</ele>
    <time>2026-06-20T14:16:59Z</time>
   </trkpt>
   <trkpt lat="-3.1351940" lon="37.3075610">
    <ele>2679.3</ele>
    <time>2026-06-20T14:17:00Z</time>
   </trkpt>
   <trkpt lat="-3.1351860" lon="37.3075620">
    <ele>2679.3</ele>
    <time>2026-06-20T14:17:01Z</time>
   </trkpt>
   <trkpt lat="-3.1351790" lon="37.3075600">
    <ele>2679.3</ele>
    <time>2026-06-20T14:17:02Z</time>
   </trkpt>
   <trkpt lat="-3.1351690" lon="37.3075610">
    <ele>2679.4</ele>
    <time>2026-06-20T14:17:03Z</time>
   </trkpt>
   <trkpt lat="-3.1351640" lon="37.3075580">
    <ele>2679.4</ele>
    <time>2026-06-20T14:17:04Z</time>
   </trkpt>
   <trkpt lat="-3.1351520" lon="37.3075570">
    <ele>2679.5</ele>
    <time>2026-06-20T14:17:05Z</time>
   </trkpt>
   <trkpt lat="-3.1351470" lon="37.3075600">
    <ele>2679.5</ele>
    <time>2026-06-20T14:17:06Z</time>
   </trkpt>
   <trkpt lat="-3.1351460" lon="37.3075590">
    <ele>2679.5</ele>
    <time>2026-06-20T14:17:07Z</time>
   </trkpt>
   <trkpt lat="-3.1351460" lon="37.3075600">
    <ele>2679.5</ele>
    <time>2026-06-20T14:17:08Z</time>
   </trkpt>
   <trkpt lat="-3.1351540" lon="37.3075600">
    <ele>2679.6</ele>
    <time>2026-06-20T14:17:09Z</time>
   </trkpt>
   <trkpt lat="-3.1351460" lon="37.3075650">
    <ele>2679.6</ele>
    <time>2026-06-20T14:17:10Z</time>
   </trkpt>
   <trkpt lat="-3.1351410" lon="37.3075680">
    <ele>2679.6</ele>
    <time>2026-06-20T14:17:11Z</time>
   </trkpt>
   <trkpt lat="-3.1351410" lon="37.3075670">
    <ele>2679.6</ele>
    <time>2026-06-20T14:17:12Z</time>
   </trkpt>
   <trkpt lat="-3.1351440" lon="37.3075670">
    <ele>2679.6</ele>
    <time>2026-06-20T14:17:13Z</time>
   </trkpt>
   <trkpt lat="-3.1351400" lon="37.3075710">
    <ele>2679.7</ele>
    <time>2026-06-20T14:17:14Z</time>
   </trkpt>
   <trkpt lat="-3.1351430" lon="37.3075760">
    <ele>2679.7</ele>
    <time>2026-06-20T14:17:15Z</time>
   </trkpt>
   <trkpt lat="-3.1351400" lon="37.3075900">
    <ele>2679.8</ele>
    <time>2026-06-20T14:17:16Z</time>
   </trkpt>
   <trkpt lat="-3.1351420" lon="37.3075930">
    <ele>2679.8</ele>
    <time>2026-06-20T14:17:17Z</time>
   </trkpt>
   <trkpt lat="-3.1351400" lon="37.3075970">
    <ele>2679.8</ele>
    <time>2026-06-20T14:17:18Z</time>
   </trkpt>
   <trkpt lat="-3.1351350" lon="37.3076040">
    <ele>2679.9</ele>
    <time>2026-06-20T14:17:19Z</time>
   </trkpt>
   <trkpt lat="-3.1351250" lon="37.3076090">
    <ele>2679.9</ele>
    <time>2026-06-20T14:17:20Z</time>
   </trkpt>
   <trkpt lat="-3.1351180" lon="37.3076100">
    <ele>2679.9</ele>
    <time>2026-06-20T14:17:21Z</time>
   </trkpt>
   <trkpt lat="-3.1351070" lon="37.3076180">
    <ele>2680.0</ele>
    <time>2026-06-20T14:17:22Z</time>
   </trkpt>
   <trkpt lat="-3.1350980" lon="37.3076260">
    <ele>2680.1</ele>
    <time>2026-06-20T14:17:23Z</time>
   </trkpt>
   <trkpt lat="-3.1350890" lon="37.3076330">
    <ele>2680.1</ele>
    <time>2026-06-20T14:17:24Z</time>
   </trkpt>
   <trkpt lat="-3.1350780" lon="37.3076420">
    <ele>2680.2</ele>
    <time>2026-06-20T14:17:25Z</time>
   </trkpt>
   <trkpt lat="-3.1350630" lon="37.3076490">
    <ele>2680.3</ele>
    <time>2026-06-20T14:17:26Z</time>
   </trkpt>
   <trkpt lat="-3.1350570" lon="37.3076580">
    <ele>2680.4</ele>
    <time>2026-06-20T14:17:27Z</time>
   </trkpt>
   <trkpt lat="-3.1350490" lon="37.3076660">
    <ele>2680.4</ele>
    <time>2026-06-20T14:17:28Z</time>
   </trkpt>
   <trkpt lat="-3.1350340" lon="37.3076720">
    <ele>2680.5</ele>
    <time>2026-06-20T14:17:29Z</time>
   </trkpt>
   <trkpt lat="-3.1350250" lon="37.3076760">
    <ele>2680.6</ele>
    <time>2026-06-20T14:17:30Z</time>
   </trkpt>
   <trkpt lat="-3.1350170" lon="37.3076810">
    <ele>2680.6</ele>
    <time>2026-06-20T14:17:31Z</time>
   </trkpt>
   <trkpt lat="-3.1350070" lon="37.3076830">
    <ele>2680.7</ele>
    <time>2026-06-20T14:17:32Z</time>
   </trkpt>
   <trkpt lat="-3.1349950" lon="37.3076880">
    <ele>2680.7</ele>
    <time>2026-06-20T14:17:33Z</time>
   </trkpt>
   <trkpt lat="-3.1349900" lon="37.3076890">
    <ele>2680.8</ele>
    <time>2026-06-20T14:17:34Z</time>
   </trkpt>
   <trkpt lat="-3.1349810" lon="37.3076920">
    <ele>2680.8</ele>
    <time>2026-06-20T14:17:35Z</time>
   </trkpt>
   <trkpt lat="-3.1349730" lon="37.3076950">
    <ele>2680.9</ele>
    <time>2026-06-20T14:17:36Z</time>
   </trkpt>
   <trkpt lat="-3.1349640" lon="37.3077010">
    <ele>2680.9</ele>
    <time>2026-06-20T14:17:37Z</time>
   </trkpt>
   <trkpt lat="-3.1349670" lon="37.3077010">
    <ele>2680.9</ele>
    <time>2026-06-20T14:17:38Z</time>
   </trkpt>
   <trkpt lat="-3.1349580" lon="37.3076940">
    <ele>2681.0</ele>
    <time>2026-06-20T14:17:39Z</time>
   </trkpt>
   <trkpt lat="-3.1349600" lon="37.3076990">
    <ele>2681.0</ele>
    <time>2026-06-20T14:17:40Z</time>
   </trkpt>
   <trkpt lat="-3.1349550" lon="37.3077020">
    <ele>2681.0</ele>
    <time>2026-06-20T14:17:41Z</time>
   </trkpt>
   <trkpt lat="-3.1349410" lon="37.3077030">
    <ele>2681.1</ele>
    <time>2026-06-20T14:17:42Z</time>
   </trkpt>
   <trkpt lat="-3.1349320" lon="37.3077050">
    <ele>2681.1</ele>
    <time>2026-06-20T14:17:43Z</time>
   </trkpt>
   <trkpt lat="-3.1349340" lon="37.3077020">
    <ele>2681.2</ele>
    <time>2026-06-20T14:17:44Z</time>
   </trkpt>
   <trkpt lat="-3.1349300" lon="37.3076970">
    <ele>2681.2</ele>
    <time>2026-06-20T14:17:45Z</time>
   </trkpt>
   <trkpt lat="-3.1349270" lon="37.3076950">
    <ele>2681.2</ele>
    <time>2026-06-20T14:17:46Z</time>
   </trkpt>
   <trkpt lat="-3.1349250" lon="37.3076920">
    <ele>2681.2</ele>
    <time>2026-06-20T14:17:47Z</time>
   </trkpt>
   <trkpt lat="-3.1349170" lon="37.3076920">
    <ele>2681.2</ele>
    <time>2026-06-20T14:17:48Z</time>
   </trkpt>
   <trkpt lat="-3.1349110" lon="37.3076940">
    <ele>2681.3</ele>
    <time>2026-06-20T14:17:49Z</time>
   </trkpt>
   <trkpt lat="-3.1349040" lon="37.3076900">
    <ele>2681.3</ele>
    <time>2026-06-20T14:17:50Z</time>
   </trkpt>
   <trkpt lat="-3.1348980" lon="37.3076840">
    <ele>2681.3</ele>
    <time>2026-06-20T14:17:51Z</time>
   </trkpt>
   <trkpt lat="-3.1348970" lon="37.3076770">
    <ele>2681.4</ele>
    <time>2026-06-20T14:17:52Z</time>
   </trkpt>
   <trkpt lat="-3.1348920" lon="37.3076640">
    <ele>2681.4</ele>
    <time>2026-06-20T14:17:53Z</time>
   </trkpt>
   <trkpt lat="-3.1348840" lon="37.3076630">
    <ele>2681.4</ele>
    <time>2026-06-20T14:17:54Z</time>
   </trkpt>
   <trkpt lat="-3.1348790" lon="37.3076580">
    <ele>2681.4</ele>
    <time>2026-06-20T14:17:55Z</time>
   </trkpt>
   <trkpt lat="-3.1348740" lon="37.3076610">
    <ele>2681.4</ele>
    <time>2026-06-20T14:17:56Z</time>
   </trkpt>
   <trkpt lat="-3.1348670" lon="37.3076640">
    <ele>2681.4</ele>
    <time>2026-06-20T14:17:57Z</time>
   </trkpt>
   <trkpt lat="-3.1348610" lon="37.3076590">
    <ele>2681.5</ele>
    <time>2026-06-20T14:17:58Z</time>
   </trkpt>
   <trkpt lat="-3.1348590" lon="37.3076570">
    <ele>2681.5</ele>
    <time>2026-06-20T14:17:59Z</time>
   </trkpt>
   <trkpt lat="-3.1348520" lon="37.3076570">
    <ele>2681.5</ele>
    <time>2026-06-20T14:18:00Z</time>
   </trkpt>
   <trkpt lat="-3.1348430" lon="37.3076560">
    <ele>2681.5</ele>
    <time>2026-06-20T14:18:01Z</time>
   </trkpt>
   <trkpt lat="-3.1348420" lon="37.3076600">
    <ele>2681.5</ele>
    <time>2026-06-20T14:18:02Z</time>
   </trkpt>
   <trkpt lat="-3.1348360" lon="37.3076640">
    <ele>2681.5</ele>
    <time>2026-06-20T14:18:03Z</time>
   </trkpt>
   <trkpt lat="-3.1348190" lon="37.3076800">
    <ele>2681.5</ele>
    <time>2026-06-20T14:18:04Z</time>
   </trkpt>
   <trkpt lat="-3.1348150" lon="37.3076940">
    <ele>2681.5</ele>
    <time>2026-06-20T14:18:05Z</time>
   </trkpt>
   <trkpt lat="-3.1348070" lon="37.3077040">
    <ele>2681.5</ele>
    <time>2026-06-20T14:18:06Z</time>
   </trkpt>
   <trkpt lat="-3.1348020" lon="37.3077150">
    <ele>2681.5</ele>
    <time>2026-06-20T14:18:07Z</time>
   </trkpt>
   <trkpt lat="-3.1347990" lon="37.3077200">
    <ele>2681.5</ele>
    <time>2026-06-20T14:18:08Z</time>
   </trkpt>
   <trkpt lat="-3.1347920" lon="37.3077200">
    <ele>2681.5</ele>
    <time>2026-06-20T14:18:09Z</time>
   </trkpt>
   <trkpt lat="-3.1347850" lon="37.3077230">
    <ele>2681.5</ele>
    <time>2026-06-20T14:18:10Z</time>
   </trkpt>
   <trkpt lat="-3.1347820" lon="37.3077270">
    <ele>2681.5</ele>
    <time>2026-06-20T14:18:11Z</time>
   </trkpt>
   <trkpt lat="-3.1347830" lon="37.3077230">
    <ele>2681.5</ele>
    <time>2026-06-20T14:18:12Z</time>
   </trkpt>
   <trkpt lat="-3.1347740" lon="37.3077260">
    <ele>2681.4</ele>
    <time>2026-06-20T14:18:13Z</time>
   </trkpt>
   <trkpt lat="-3.1347730" lon="37.3077230">
    <ele>2681.4</ele>
    <time>2026-06-20T14:18:14Z</time>
   </trkpt>
   <trkpt lat="-3.1347740" lon="37.3077190">
    <ele>2681.4</ele>
    <time>2026-06-20T14:18:15Z</time>
   </trkpt>
   <trkpt lat="-3.1347780" lon="37.3077100">
    <ele>2681.4</ele>
    <time>2026-06-20T14:18:16Z</time>
   </trkpt>
   <trkpt lat="-3.1347710" lon="37.3077110">
    <ele>2681.4</ele>
    <time>2026-06-20T14:18:17Z</time>
   </trkpt>
   <trkpt lat="-3.1347680" lon="37.3077120">
    <ele>2681.4</ele>
    <time>2026-06-20T14:18:18Z</time>
   </trkpt>
   <trkpt lat="-3.1347600" lon="37.3077090">
    <ele>2681.4</ele>
    <time>2026-06-20T14:18:19Z</time>
   </trkpt>
   <trkpt lat="-3.1347570" lon="37.3077080">
    <ele>2681.4</ele>
    <time>2026-06-20T14:18:20Z</time>
   </trkpt>
   <trkpt lat="-3.1347500" lon="37.3077020">
    <ele>2681.3</ele>
    <time>2026-06-20T14:18:21Z</time>
   </trkpt>
   <trkpt lat="-3.1347480" lon="37.3076960">
    <ele>2681.3</ele>
    <time>2026-06-20T14:18:22Z</time>
   </trkpt>
   <trkpt lat="-3.1347480" lon="37.3076920">
    <ele>2681.3</ele>
    <time>2026-06-20T14:18:23Z</time>
   </trkpt>
   <trkpt lat="-3.1347420" lon="37.3076930">
    <ele>2681.3</ele>
    <time>2026-06-20T14:18:24Z</time>
   </trkpt>
   <trkpt lat="-3.1347440" lon="37.3076860">
    <ele>2681.3</ele>
    <time>2026-06-20T14:18:25Z</time>
   </trkpt>
   <trkpt lat="-3.1347310" lon="37.3076940">
    <ele>2681.3</ele>
    <time>2026-06-20T14:18:26Z</time>
   </trkpt>
   <trkpt lat="-3.1347340" lon="37.3077050">
    <ele>2681.2</ele>
    <time>2026-06-20T14:18:27Z</time>
   </trkpt>
   <trkpt lat="-3.1347290" lon="37.3077080">
    <ele>2681.2</ele>
    <time>2026-06-20T14:18:28Z</time>
   </trkpt>
   <trkpt lat="-3.1347190" lon="37.3077100">
    <ele>2681.2</ele>
    <time>2026-06-20T14:18:29Z</time>
   </trkpt>
   <trkpt lat="-3.1347150" lon="37.3077060">
    <ele>2681.2</ele>
    <time>2026-06-20T14:18:30Z</time>
   </trkpt>
   <trkpt lat="-3.1347110" lon="37.3077050">
    <ele>2681.2</ele>
    <time>2026-06-20T14:18:31Z</time>
   </trkpt>
   <trkpt lat="-3.1347080" lon="37.3077080">
    <ele>2681.2</ele>
    <time>2026-06-20T14:18:32Z</time>
   </trkpt>
   <trkpt lat="-3.1347040" lon="37.3077050">
    <ele>2681.2</ele>
    <time>2026-06-20T14:18:33Z</time>
   </trkpt>
   <trkpt lat="-3.1346980" lon="37.3077060">
    <ele>2681.1</ele>
    <time>2026-06-20T14:18:34Z</time>
   </trkpt>
   <trkpt lat="-3.1346940" lon="37.3077100">
    <ele>2681.1</ele>
    <time>2026-06-20T14:18:35Z</time>
   </trkpt>
   <trkpt lat="-3.1346860" lon="37.3077120">
    <ele>2681.1</ele>
    <time>2026-06-20T14:18:36Z</time>
   </trkpt>
   <trkpt lat="-3.1346830" lon="37.3077140">
    <ele>2681.1</ele>
    <time>2026-06-20T14:18:37Z</time>
   </trkpt>
   <trkpt lat="-3.1346780" lon="37.3077160">
    <ele>2681.1</ele>
    <time>2026-06-20T14:18:38Z</time>
   </trkpt>
   <trkpt lat="-3.1346700" lon="37.3077210">
    <ele>2681.1</ele>
    <time>2026-06-20T14:18:39Z</time>
   </trkpt>
   <trkpt lat="-3.1346630" lon="37.3077220">
    <ele>2681.0</ele>
    <time>2026-06-20T14:18:40Z</time>
   </trkpt>
   <trkpt lat="-3.1346510" lon="37.3077240">
    <ele>2681.0</ele>
    <time>2026-06-20T14:18:41Z</time>
   </trkpt>
   <trkpt lat="-3.1346490" lon="37.3077230">
    <ele>2681.0</ele>
    <time>2026-06-20T14:18:42Z</time>
   </trkpt>
   <trkpt lat="-3.1346390" lon="37.3077250">
    <ele>2681.0</ele>
    <time>2026-06-20T14:18:43Z</time>
   </trkpt>
   <trkpt lat="-3.1346320" lon="37.3077220">
    <ele>2681.0</ele>
    <time>2026-06-20T14:18:44Z</time>
   </trkpt>
   <trkpt lat="-3.1346280" lon="37.3077280">
    <ele>2681.0</ele>
    <time>2026-06-20T14:18:45Z</time>
   </trkpt>
   <trkpt lat="-3.1346230" lon="37.3077280">
    <ele>2680.9</ele>
    <time>2026-06-20T14:18:46Z</time>
   </trkpt>
   <trkpt lat="-3.1346190" lon="37.3077280">
    <ele>2680.9</ele>
    <time>2026-06-20T14:18:47Z</time>
   </trkpt>
   <trkpt lat="-3.1346180" lon="37.3077270">
    <ele>2680.9</ele>
    <time>2026-06-20T14:18:48Z</time>
   </trkpt>
   <trkpt lat="-3.1346150" lon="37.3077270">
    <ele>2680.9</ele>
    <time>2026-06-20T14:18:49Z</time>
   </trkpt>
   <trkpt lat="-3.1346120" lon="37.3077250">
    <ele>2680.9</ele>
    <time>2026-06-20T14:18:50Z</time>
   </trkpt>
   <trkpt lat="-3.1346050" lon="37.3077300">
    <ele>2680.9</ele>
    <time>2026-06-20T14:18:51Z</time>
   </trkpt>
   <trkpt lat="-3.1345920" lon="37.3077320">
    <ele>2680.9</ele>
    <time>2026-06-20T14:18:52Z</time>
   </trkpt>
   <trkpt lat="-3.1345860" lon="37.3077280">
    <ele>2680.9</ele>
    <time>2026-06-20T14:18:53Z</time>
   </trkpt>
   <trkpt lat="-3.1345690" lon="37.3077290">
    <ele>2680.8</ele>
    <time>2026-06-20T14:18:54Z</time>
   </trkpt>
   <trkpt lat="-3.1345570" lon="37.3077320">
    <ele>2680.8</ele>
    <time>2026-06-20T14:18:55Z</time>
   </trkpt>
   <trkpt lat="-3.1345530" lon="37.3077280">
    <ele>2680.8</ele>
    <time>2026-06-20T14:18:56Z</time>
   </trkpt>
   <trkpt lat="-3.1345450" lon="37.3077310">
    <ele>2680.8</ele>
    <time>2026-06-20T14:18:57Z</time>
   </trkpt>
   <trkpt lat="-3.1345360" lon="37.3077300">
    <ele>2680.7</ele>
    <time>2026-06-20T14:18:58Z</time>
   </trkpt>
   <trkpt lat="-3.1345270" lon="37.3077300">
    <ele>2680.7</ele>
    <time>2026-06-20T14:18:59Z</time>
   </trkpt>
   <trkpt lat="-3.1345190" lon="37.3077280">
    <ele>2680.7</ele>
    <time>2026-06-20T14:19:00Z</time>
   </trkpt>
   <trkpt lat="-3.1345110" lon="37.3077250">
    <ele>2680.7</ele>
    <time>2026-06-20T14:19:01Z</time>
   </trkpt>
   <trkpt lat="-3.1345180" lon="37.3077140">
    <ele>2680.7</ele>
    <time>2026-06-20T14:19:02Z</time>
   </trkpt>
   <trkpt lat="-3.1345130" lon="37.3077130">
    <ele>2680.7</ele>
    <time>2026-06-20T14:19:03Z</time>
   </trkpt>
   <trkpt lat="-3.1345080" lon="37.3077080">
    <ele>2680.7</ele>
    <time>2026-06-20T14:19:04Z</time>
   </trkpt>
   <trkpt lat="-3.1344960" lon="37.3077040">
    <ele>2680.7</ele>
    <time>2026-06-20T14:19:05Z</time>
   </trkpt>
   <trkpt lat="-3.1344900" lon="37.3077020">
    <ele>2680.7</ele>
    <time>2026-06-20T14:19:06Z</time>
   </trkpt>
   <trkpt lat="-3.1344870" lon="37.3076980">
    <ele>2680.6</ele>
    <time>2026-06-20T14:19:07Z</time>
   </trkpt>
   <trkpt lat="-3.1344750" lon="37.3077010">
    <ele>2680.6</ele>
    <time>2026-06-20T14:19:08Z</time>
   </trkpt>
   <trkpt lat="-3.1344660" lon="37.3076980">
    <ele>2680.6</ele>
    <time>2026-06-20T14:19:09Z</time>
   </trkpt>
   <trkpt lat="-3.1344550" lon="37.3076990">
    <ele>2680.7</ele>
    <time>2026-06-20T14:19:10Z</time>
   </trkpt>
   <trkpt lat="-3.1344540" lon="37.3076910">
    <ele>2680.7</ele>
    <time>2026-06-20T14:19:11Z</time>
   </trkpt>
   <trkpt lat="-3.1344470" lon="37.3076900">
    <ele>2680.7</ele>
    <time>2026-06-20T14:19:12Z</time>
   </trkpt>
   <trkpt lat="-3.1344410" lon="37.3076910">
    <ele>2680.7</ele>
    <time>2026-06-20T14:19:13Z</time>
   </trkpt>
   <trkpt lat="-3.1344370" lon="37.3076960">
    <ele>2680.7</ele>
    <time>2026-06-20T14:19:14Z</time>
   </trkpt>
   <trkpt lat="-3.1344380" lon="37.3077000">
    <ele>2680.7</ele>
    <time>2026-06-20T14:19:15Z</time>
   </trkpt>
   <trkpt lat="-3.1344360" lon="37.3077020">
    <ele>2680.7</ele>
    <time>2026-06-20T14:19:16Z</time>
   </trkpt>
   <trkpt lat="-3.1344330" lon="37.3077130">
    <ele>2680.7</ele>
    <time>2026-06-20T14:19:17Z</time>
   </trkpt>
   <trkpt lat="-3.1344300" lon="37.3077230">
    <ele>2680.7</ele>
    <time>2026-06-20T14:19:18Z</time>
   </trkpt>
   <trkpt lat="-3.1344300" lon="37.3077260">
    <ele>2680.7</ele>
    <time>2026-06-20T14:19:19Z</time>
   </trkpt>
   <trkpt lat="-3.1344300" lon="37.3077310">
    <ele>2680.7</ele>
    <time>2026-06-20T14:19:20Z</time>
   </trkpt>
   <trkpt lat="-3.1344220" lon="37.3077370">
    <ele>2680.8</ele>
    <time>2026-06-20T14:19:21Z</time>
   </trkpt>
   <trkpt lat="-3.1344160" lon="37.3077400">
    <ele>2680.8</ele>
    <time>2026-06-20T14:19:22Z</time>
   </trkpt>
   <trkpt lat="-3.1344090" lon="37.3077390">
    <ele>2680.8</ele>
    <time>2026-06-20T14:19:23Z</time>
   </trkpt>
   <trkpt lat="-3.1343980" lon="37.3077420">
    <ele>2680.8</ele>
    <time>2026-06-20T14:19:24Z</time>
   </trkpt>
   <trkpt lat="-3.1343880" lon="37.3077410">
    <ele>2680.9</ele>
    <time>2026-06-20T14:19:25Z</time>
   </trkpt>
   <trkpt lat="-3.1343900" lon="37.3077300">
    <ele>2680.9</ele>
    <time>2026-06-20T14:19:26Z</time>
   </trkpt>
   <trkpt lat="-3.1343830" lon="37.3077250">
    <ele>2680.9</ele>
    <time>2026-06-20T14:19:27Z</time>
   </trkpt>
   <trkpt lat="-3.1343740" lon="37.3077200">
    <ele>2681.0</ele>
    <time>2026-06-20T14:19:28Z</time>
   </trkpt>
   <trkpt lat="-3.1343670" lon="37.3077190">
    <ele>2681.0</ele>
    <time>2026-06-20T14:19:29Z</time>
   </trkpt>
   <trkpt lat="-3.1343560" lon="37.3077230">
    <ele>2681.1</ele>
    <time>2026-06-20T14:19:30Z</time>
   </trkpt>
   <trkpt lat="-3.1343310" lon="37.3077250">
    <ele>2681.2</ele>
    <time>2026-06-20T14:19:31Z</time>
   </trkpt>
   <trkpt lat="-3.1343170" lon="37.3077290">
    <ele>2681.3</ele>
    <time>2026-06-20T14:19:32Z</time>
   </trkpt>
   <trkpt lat="-3.1343160" lon="37.3077290">
    <ele>2681.3</ele>
    <time>2026-06-20T14:19:33Z</time>
   </trkpt>
   <trkpt lat="-3.1343180" lon="37.3077310">
    <ele>2681.3</ele>
    <time>2026-06-20T14:19:34Z</time>
   </trkpt>
   <trkpt lat="-3.1343180" lon="37.3077330">
    <ele>2681.3</ele>
    <time>2026-06-20T14:19:35Z</time>
   </trkpt>
   <trkpt lat="-3.1343200" lon="37.3077350">
    <ele>2681.3</ele>
    <time>2026-06-20T14:19:36Z</time>
   </trkpt>
   <trkpt lat="-3.1343200" lon="37.3077320">
    <ele>2681.3</ele>
    <time>2026-06-20T14:19:37Z</time>
   </trkpt>
   <trkpt lat="-3.1343180" lon="37.3077330">
    <ele>2681.3</ele>
    <time>2026-06-20T14:19:38Z</time>
   </trkpt>
   <trkpt lat="-3.1343160" lon="37.3077400">
    <ele>2681.4</ele>
    <time>2026-06-20T14:19:39Z</time>
   </trkpt>
   <trkpt lat="-3.1343160" lon="37.3077430">
    <ele>2681.4</ele>
    <time>2026-06-20T14:19:40Z</time>
   </trkpt>
   <trkpt lat="-3.1343180" lon="37.3077460">
    <ele>2681.4</ele>
    <time>2026-06-20T14:19:41Z</time>
   </trkpt>
   <trkpt lat="-3.1343180" lon="37.3077480">
    <ele>2681.5</ele>
    <time>2026-06-20T14:19:42Z</time>
   </trkpt>
   <trkpt lat="-3.1343160" lon="37.3077520">
    <ele>2681.5</ele>
    <time>2026-06-20T14:19:43Z</time>
   </trkpt>
   <trkpt lat="-3.1343170" lon="37.3077540">
    <ele>2681.5</ele>
    <time>2026-06-20T14:19:44Z</time>
   </trkpt>
   <trkpt lat="-3.1343180" lon="37.3077590">
    <ele>2681.5</ele>
    <time>2026-06-20T14:19:45Z</time>
   </trkpt>
   <trkpt lat="-3.1343200" lon="37.3077650">
    <ele>2681.6</ele>
    <time>2026-06-20T14:19:46Z</time>
   </trkpt>
   <trkpt lat="-3.1343130" lon="37.3077710">
    <ele>2681.6</ele>
    <time>2026-06-20T14:19:47Z</time>
   </trkpt>
   <trkpt lat="-3.1343130" lon="37.3077730">
    <ele>2681.6</ele>
    <time>2026-06-20T14:19:48Z</time>
   </trkpt>
   <trkpt lat="-3.1343140" lon="37.3077720">
    <ele>2681.7</ele>
    <time>2026-06-20T14:19:49Z</time>
   </trkpt>
   <trkpt lat="-3.1343080" lon="37.3077770">
    <ele>2681.7</ele>
    <time>2026-06-20T14:19:50Z</time>
   </trkpt>
   <trkpt lat="-3.1343100" lon="37.3077810">
    <ele>2681.7</ele>
    <time>2026-06-20T14:19:51Z</time>
   </trkpt>
   <trkpt lat="-3.1343090" lon="37.3077810">
    <ele>2681.7</ele>
    <time>2026-06-20T14:19:52Z</time>
   </trkpt>
   <trkpt lat="-3.1343070" lon="37.3077820">
    <ele>2681.8</ele>
    <time>2026-06-20T14:19:53Z</time>
   </trkpt>
   <trkpt lat="-3.1343050" lon="37.3077850">
    <ele>2681.8</ele>
    <time>2026-06-20T14:19:54Z</time>
   </trkpt>
   <trkpt lat="-3.1343110" lon="37.3077840">
    <ele>2681.8</ele>
    <time>2026-06-20T14:19:55Z</time>
   </trkpt>
   <trkpt lat="-3.1343080" lon="37.3077860">
    <ele>2681.9</ele>
    <time>2026-06-20T14:19:56Z</time>
   </trkpt>
   <trkpt lat="-3.1343050" lon="37.3077870">
    <ele>2681.9</ele>
    <time>2026-06-20T14:19:57Z</time>
   </trkpt>
   <trkpt lat="-3.1343130" lon="37.3077830">
    <ele>2682.0</ele>
    <time>2026-06-20T14:19:58Z</time>
   </trkpt>
   <trkpt lat="-3.1343130" lon="37.3077870">
    <ele>2682.0</ele>
    <time>2026-06-20T14:19:59Z</time>
   </trkpt>
   <trkpt lat="-3.1343170" lon="37.3077910">
    <ele>2682.0</ele>
    <time>2026-06-20T14:20:00Z</time>
   </trkpt>
   <trkpt lat="-3.1343290" lon="37.3077930">
    <ele>2682.1</ele>
    <time>2026-06-20T14:20:01Z</time>
   </trkpt>
   <trkpt lat="-3.1343390" lon="37.3077950">
    <ele>2682.2</ele>
    <time>2026-06-20T14:20:02Z</time>
   </trkpt>
   <trkpt lat="-3.1343390" lon="37.3077960">
    <ele>2682.2</ele>
    <time>2026-06-20T14:20:03Z</time>
   </trkpt>
   <trkpt lat="-3.1343400" lon="37.3078020">
    <ele>2682.3</ele>
    <time>2026-06-20T14:20:04Z</time>
   </trkpt>
   <trkpt lat="-3.1343370" lon="37.3078060">
    <ele>2682.3</ele>
    <time>2026-06-20T14:20:05Z</time>
   </trkpt>
   <trkpt lat="-3.1343320" lon="37.3078070">
    <ele>2682.4</ele>
    <time>2026-06-20T14:20:06Z</time>
   </trkpt>
   <trkpt lat="-3.1343300" lon="37.3078090">
    <ele>2682.4</ele>
    <time>2026-06-20T14:20:07Z</time>
   </trkpt>
   <trkpt lat="-3.1343280" lon="37.3078120">
    <ele>2682.4</ele>
    <time>2026-06-20T14:20:08Z</time>
   </trkpt>
   <trkpt lat="-3.1343170" lon="37.3078130">
    <ele>2682.5</ele>
    <time>2026-06-20T14:20:09Z</time>
   </trkpt>
   <trkpt lat="-3.1343110" lon="37.3078140">
    <ele>2682.6</ele>
    <time>2026-06-20T14:20:10Z</time>
   </trkpt>
   <trkpt lat="-3.1343040" lon="37.3078160">
    <ele>2682.6</ele>
    <time>2026-06-20T14:20:11Z</time>
   </trkpt>
   <trkpt lat="-3.1342940" lon="37.3078170">
    <ele>2682.7</ele>
    <time>2026-06-20T14:20:12Z</time>
   </trkpt>
   <trkpt lat="-3.1342880" lon="37.3078160">
    <ele>2682.8</ele>
    <time>2026-06-20T14:20:13Z</time>
   </trkpt>
   <trkpt lat="-3.1342880" lon="37.3078160">
    <ele>2682.8</ele>
    <time>2026-06-20T14:20:14Z</time>
   </trkpt>
   <trkpt lat="-3.1342830" lon="37.3078140">
    <ele>2682.8</ele>
    <time>2026-06-20T14:20:15Z</time>
   </trkpt>
   <trkpt lat="-3.1342830" lon="37.3078100">
    <ele>2682.9</ele>
    <time>2026-06-20T14:20:16Z</time>
   </trkpt>
   <trkpt lat="-3.1342820" lon="37.3078150">
    <ele>2682.9</ele>
    <time>2026-06-20T14:20:17Z</time>
   </trkpt>
   <trkpt lat="-3.1342750" lon="37.3078140">
    <ele>2683.0</ele>
    <time>2026-06-20T14:20:18Z</time>
   </trkpt>
   <trkpt lat="-3.1342730" lon="37.3078140">
    <ele>2683.0</ele>
    <time>2026-06-20T14:20:19Z</time>
   </trkpt>
   <trkpt lat="-3.1342740" lon="37.3078170">
    <ele>2683.0</ele>
    <time>2026-06-20T14:20:20Z</time>
   </trkpt>
   <trkpt lat="-3.1342680" lon="37.3078160">
    <ele>2683.1</ele>
    <time>2026-06-20T14:20:21Z</time>
   </trkpt>
   <trkpt lat="-3.1342620" lon="37.3078180">
    <ele>2683.2</ele>
    <time>2026-06-20T14:20:22Z</time>
   </trkpt>
   <trkpt lat="-3.1342640" lon="37.3078210">
    <ele>2683.2</ele>
    <time>2026-06-20T14:20:23Z</time>
   </trkpt>
   <trkpt lat="-3.1342660" lon="37.3078300">
    <ele>2683.3</ele>
    <time>2026-06-20T14:20:24Z</time>
   </trkpt>
   <trkpt lat="-3.1342680" lon="37.3078350">
    <ele>2683.3</ele>
    <time>2026-06-20T14:20:25Z</time>
   </trkpt>
   <trkpt lat="-3.1342680" lon="37.3078370">
    <ele>2683.3</ele>
    <time>2026-06-20T14:20:26Z</time>
   </trkpt>
   <trkpt lat="-3.1342670" lon="37.3078440">
    <ele>2683.4</ele>
    <time>2026-06-20T14:20:27Z</time>
   </trkpt>
   <trkpt lat="-3.1342640" lon="37.3078450">
    <ele>2683.4</ele>
    <time>2026-06-20T14:20:28Z</time>
   </trkpt>
   <trkpt lat="-3.1342640" lon="37.3078480">
    <ele>2683.5</ele>
    <time>2026-06-20T14:20:29Z</time>
   </trkpt>
   <trkpt lat="-3.1342670" lon="37.3078520">
    <ele>2683.5</ele>
    <time>2026-06-20T14:20:30Z</time>
   </trkpt>
   <trkpt lat="-3.1342720" lon="37.3078540">
    <ele>2683.6</ele>
    <time>2026-06-20T14:20:31Z</time>
   </trkpt>
   <trkpt lat="-3.1342740" lon="37.3078610">
    <ele>2683.6</ele>
    <time>2026-06-20T14:20:32Z</time>
   </trkpt>
   <trkpt lat="-3.1342770" lon="37.3078640">
    <ele>2683.7</ele>
    <time>2026-06-20T14:20:33Z</time>
   </trkpt>
   <trkpt lat="-3.1342780" lon="37.3078680">
    <ele>2683.7</ele>
    <time>2026-06-20T14:20:34Z</time>
   </trkpt>
   <trkpt lat="-3.1342690" lon="37.3078690">
    <ele>2683.8</ele>
    <time>2026-06-20T14:20:35Z</time>
   </trkpt>
   <trkpt lat="-3.1342660" lon="37.3078670">
    <ele>2683.8</ele>
    <time>2026-06-20T14:20:36Z</time>
   </trkpt>
   <trkpt lat="-3.1342640" lon="37.3078650">
    <ele>2683.9</ele>
    <time>2026-06-20T14:20:37Z</time>
   </trkpt>
   <trkpt lat="-3.1342620" lon="37.3078600">
    <ele>2683.9</ele>
    <time>2026-06-20T14:20:38Z</time>
   </trkpt>
   <trkpt lat="-3.1342590" lon="37.3078570">
    <ele>2683.9</ele>
    <time>2026-06-20T14:20:39Z</time>
   </trkpt>
   <trkpt lat="-3.1342540" lon="37.3078540">
    <ele>2684.0</ele>
    <time>2026-06-20T14:20:40Z</time>
   </trkpt>
   <trkpt lat="-3.1342500" lon="37.3078470">
    <ele>2684.1</ele>
    <time>2026-06-20T14:20:41Z</time>
   </trkpt>
   <trkpt lat="-3.1342460" lon="37.3078380">
    <ele>2684.2</ele>
    <time>2026-06-20T14:20:42Z</time>
   </trkpt>
   <trkpt lat="-3.1342460" lon="37.3078300">
    <ele>2684.2</ele>
    <time>2026-06-20T14:20:43Z</time>
   </trkpt>
   <trkpt lat="-3.1342460" lon="37.3078210">
    <ele>2684.3</ele>
    <time>2026-06-20T14:20:44Z</time>
   </trkpt>
   <trkpt lat="-3.1342440" lon="37.3078130">
    <ele>2684.4</ele>
    <time>2026-06-20T14:20:45Z</time>
   </trkpt>
   <trkpt lat="-3.1342360" lon="37.3078140">
    <ele>2684.5</ele>
    <time>2026-06-20T14:20:46Z</time>
   </trkpt>
   <trkpt lat="-3.1342300" lon="37.3078160">
    <ele>2684.5</ele>
    <time>2026-06-20T14:20:47Z</time>
   </trkpt>
   <trkpt lat="-3.1342230" lon="37.3078220">
    <ele>2684.6</ele>
    <time>2026-06-20T14:20:48Z</time>
   </trkpt>
   <trkpt lat="-3.1342190" lon="37.3078280">
    <ele>2684.7</ele>
    <time>2026-06-20T14:20:49Z</time>
   </trkpt>
   <trkpt lat="-3.1342150" lon="37.3078320">
    <ele>2684.7</ele>
    <time>2026-06-20T14:20:50Z</time>
   </trkpt>
   <trkpt lat="-3.1342050" lon="37.3078360">
    <ele>2684.8</ele>
    <time>2026-06-20T14:20:51Z</time>
   </trkpt>
   <trkpt lat="-3.1341980" lon="37.3078420">
    <ele>2684.9</ele>
    <time>2026-06-20T14:20:52Z</time>
   </trkpt>
   <trkpt lat="-3.1341950" lon="37.3078410">
    <ele>2685.0</ele>
    <time>2026-06-20T14:20:53Z</time>
   </trkpt>
   <trkpt lat="-3.1341870" lon="37.3078450">
    <ele>2685.0</ele>
    <time>2026-06-20T14:20:54Z</time>
   </trkpt>
   <trkpt lat="-3.1341840" lon="37.3078470">
    <ele>2685.1</ele>
    <time>2026-06-20T14:20:55Z</time>
   </trkpt>
   <trkpt lat="-3.1341770" lon="37.3078530">
    <ele>2685.2</ele>
    <time>2026-06-20T14:20:56Z</time>
   </trkpt>
   <trkpt lat="-3.1341740" lon="37.3078560">
    <ele>2685.2</ele>
    <time>2026-06-20T14:20:57Z</time>
   </trkpt>
   <trkpt lat="-3.1341720" lon="37.3078620">
    <ele>2685.3</ele>
    <time>2026-06-20T14:20:58Z</time>
   </trkpt>
   <trkpt lat="-3.1341680" lon="37.3078590">
    <ele>2685.3</ele>
    <time>2026-06-20T14:20:59Z</time>
   </trkpt>
   <trkpt lat="-3.1341610" lon="37.3078570">
    <ele>2685.4</ele>
    <time>2026-06-20T14:21:00Z</time>
   </trkpt>
   <trkpt lat="-3.1341540" lon="37.3078610">
    <ele>2685.5</ele>
    <time>2026-06-20T14:21:01Z</time>
   </trkpt>
   <trkpt lat="-3.1341490" lon="37.3078630">
    <ele>2685.5</ele>
    <time>2026-06-20T14:21:02Z</time>
   </trkpt>
   <trkpt lat="-3.1341490" lon="37.3078640">
    <ele>2685.5</ele>
    <time>2026-06-20T14:21:03Z</time>
   </trkpt>
   <trkpt lat="-3.1341490" lon="37.3078640">
    <ele>2685.5</ele>
    <time>2026-06-20T14:21:04Z</time>
   </trkpt>
   <trkpt lat="-3.1341490" lon="37.3078600">
    <ele>2685.5</ele>
    <time>2026-06-20T14:21:05Z</time>
   </trkpt>
   <trkpt lat="-3.1341510" lon="37.3078630">
    <ele>2685.6</ele>
    <time>2026-06-20T14:21:06Z</time>
   </trkpt>
   <trkpt lat="-3.1341560" lon="37.3078710">
    <ele>2685.7</ele>
    <time>2026-06-20T14:21:07Z</time>
   </trkpt>
   <trkpt lat="-3.1341580" lon="37.3078610">
    <ele>2685.8</ele>
    <time>2026-06-20T14:21:08Z</time>
   </trkpt>
   <trkpt lat="-3.1341590" lon="37.3078610">
    <ele>2685.8</ele>
    <time>2026-06-20T14:21:09Z</time>
   </trkpt>
   <trkpt lat="-3.1341520" lon="37.3078620">
    <ele>2685.9</ele>
    <time>2026-06-20T14:21:10Z</time>
   </trkpt>
   <trkpt lat="-3.1341520" lon="37.3078670">
    <ele>2685.9</ele>
    <time>2026-06-20T14:21:11Z</time>
   </trkpt>
   <trkpt lat="-3.1341510" lon="37.3078660">
    <ele>2685.9</ele>
    <time>2026-06-20T14:21:12Z</time>
   </trkpt>
   <trkpt lat="-3.1341540" lon="37.3078670">
    <ele>2685.9</ele>
    <time>2026-06-20T14:21:13Z</time>
   </trkpt>
   <trkpt lat="-3.1341530" lon="37.3078780">
    <ele>2686.1</ele>
    <time>2026-06-20T14:21:14Z</time>
   </trkpt>
   <trkpt lat="-3.1341540" lon="37.3078890">
    <ele>2686.2</ele>
    <time>2026-06-20T14:21:15Z</time>
   </trkpt>
   <trkpt lat="-3.1341570" lon="37.3079030">
    <ele>2686.3</ele>
    <time>2026-06-20T14:21:16Z</time>
   </trkpt>
   <trkpt lat="-3.1341650" lon="37.3079070">
    <ele>2686.4</ele>
    <time>2026-06-20T14:21:17Z</time>
   </trkpt>
   <trkpt lat="-3.1341660" lon="37.3079100">
    <ele>2686.4</ele>
    <time>2026-06-20T14:21:18Z</time>
   </trkpt>
   <trkpt lat="-3.1341700" lon="37.3079180">
    <ele>2686.5</ele>
    <time>2026-06-20T14:21:19Z</time>
   </trkpt>
   <trkpt lat="-3.1341740" lon="37.3079230">
    <ele>2686.6</ele>
    <time>2026-06-20T14:21:20Z</time>
   </trkpt>
   <trkpt lat="-3.1341720" lon="37.3079280">
    <ele>2686.6</ele>
    <time>2026-06-20T14:21:21Z</time>
   </trkpt>
   <trkpt lat="-3.1341730" lon="37.3079290">
    <ele>2686.6</ele>
    <time>2026-06-20T14:21:22Z</time>
   </trkpt>
   <trkpt lat="-3.1341760" lon="37.3079280">
    <ele>2686.7</ele>
    <time>2026-06-20T14:21:23Z</time>
   </trkpt>
   <trkpt lat="-3.1341800" lon="37.3079310">
    <ele>2686.7</ele>
    <time>2026-06-20T14:21:24Z</time>
   </trkpt>
   <trkpt lat="-3.1341790" lon="37.3079320">
    <ele>2686.7</ele>
    <time>2026-06-20T14:21:25Z</time>
   </trkpt>
   <trkpt lat="-3.1341690" lon="37.3079310">
    <ele>2686.8</ele>
    <time>2026-06-20T14:21:26Z</time>
   </trkpt>
   <trkpt lat="-3.1341640" lon="37.3079260">
    <ele>2686.9</ele>
    <time>2026-06-20T14:21:27Z</time>
   </trkpt>
   <trkpt lat="-3.1341580" lon="37.3079260">
    <ele>2687.0</ele>
    <time>2026-06-20T14:21:28Z</time>
   </trkpt>
   <trkpt lat="-3.1341530" lon="37.3079210">
    <ele>2687.0</ele>
    <time>2026-06-20T14:21:29Z</time>
   </trkpt>
   <trkpt lat="-3.1341440" lon="37.3079130">
    <ele>2687.2</ele>
    <time>2026-06-20T14:21:30Z</time>
   </trkpt>
   <trkpt lat="-3.1341350" lon="37.3079100">
    <ele>2687.3</ele>
    <time>2026-06-20T14:21:31Z</time>
   </trkpt>
   <trkpt lat="-3.1341260" lon="37.3079070">
    <ele>2687.4</ele>
    <time>2026-06-20T14:21:32Z</time>
   </trkpt>
   <trkpt lat="-3.1341220" lon="37.3079080">
    <ele>2687.4</ele>
    <time>2026-06-20T14:21:33Z</time>
   </trkpt>
   <trkpt lat="-3.1341220" lon="37.3079080">
    <ele>2687.4</ele>
    <time>2026-06-20T14:21:34Z</time>
   </trkpt>
   <trkpt lat="-3.1341210" lon="37.3079090">
    <ele>2687.4</ele>
    <time>2026-06-20T14:21:35Z</time>
   </trkpt>
   <trkpt lat="-3.1341130" lon="37.3079070">
    <ele>2687.5</ele>
    <time>2026-06-20T14:21:36Z</time>
   </trkpt>
   <trkpt lat="-3.1341090" lon="37.3079020">
    <ele>2687.6</ele>
    <time>2026-06-20T14:21:37Z</time>
   </trkpt>
   <trkpt lat="-3.1341030" lon="37.3079060">
    <ele>2687.6</ele>
    <time>2026-06-20T14:21:38Z</time>
   </trkpt>
   <trkpt lat="-3.1340980" lon="37.3079080">
    <ele>2687.7</ele>
    <time>2026-06-20T14:21:39Z</time>
   </trkpt>
   <trkpt lat="-3.1340940" lon="37.3079120">
    <ele>2687.8</ele>
    <time>2026-06-20T14:21:40Z</time>
   </trkpt>
   <trkpt lat="-3.1340860" lon="37.3079170">
    <ele>2687.9</ele>
    <time>2026-06-20T14:21:41Z</time>
   </trkpt>
   <trkpt lat="-3.1340770" lon="37.3079170">
    <ele>2687.9</ele>
    <time>2026-06-20T14:21:42Z</time>
   </trkpt>
   <trkpt lat="-3.1340710" lon="37.3079180">
    <ele>2688.0</ele>
    <time>2026-06-20T14:21:43Z</time>
   </trkpt>
   <trkpt lat="-3.1340660" lon="37.3079290">
    <ele>2688.1</ele>
    <time>2026-06-20T14:21:44Z</time>
   </trkpt>
   <trkpt lat="-3.1340640" lon="37.3079330">
    <ele>2688.2</ele>
    <time>2026-06-20T14:21:45Z</time>
   </trkpt>
   <trkpt lat="-3.1340660" lon="37.3079380">
    <ele>2688.2</ele>
    <time>2026-06-20T14:21:46Z</time>
   </trkpt>
   <trkpt lat="-3.1340680" lon="37.3079410">
    <ele>2688.3</ele>
    <time>2026-06-20T14:21:47Z</time>
   </trkpt>
   <trkpt lat="-3.1340710" lon="37.3079480">
    <ele>2688.4</ele>
    <time>2026-06-20T14:21:48Z</time>
   </trkpt>
   <trkpt lat="-3.1340750" lon="37.3079500">
    <ele>2688.4</ele>
    <time>2026-06-20T14:21:49Z</time>
   </trkpt>
   <trkpt lat="-3.1340810" lon="37.3079550">
    <ele>2688.5</ele>
    <time>2026-06-20T14:21:50Z</time>
   </trkpt>
   <trkpt lat="-3.1340930" lon="37.3079640">
    <ele>2688.6</ele>
    <time>2026-06-20T14:21:51Z</time>
   </trkpt>
   <trkpt lat="-3.1340920" lon="37.3079690">
    <ele>2688.7</ele>
    <time>2026-06-20T14:21:52Z</time>
   </trkpt>
   <trkpt lat="-3.1340870" lon="37.3079710">
    <ele>2688.8</ele>
    <time>2026-06-20T14:21:53Z</time>
   </trkpt>
   <trkpt lat="-3.1340810" lon="37.3079760">
    <ele>2688.9</ele>
    <time>2026-06-20T14:21:54Z</time>
   </trkpt>
   <trkpt lat="-3.1340770" lon="37.3079820">
    <ele>2688.9</ele>
    <time>2026-06-20T14:21:55Z</time>
   </trkpt>
   <trkpt lat="-3.1340720" lon="37.3079840">
    <ele>2689.0</ele>
    <time>2026-06-20T14:21:56Z</time>
   </trkpt>
   <trkpt lat="-3.1340730" lon="37.3079870">
    <ele>2689.0</ele>
    <time>2026-06-20T14:21:57Z</time>
   </trkpt>
   <trkpt lat="-3.1340720" lon="37.3079910">
    <ele>2689.1</ele>
    <time>2026-06-20T14:21:58Z</time>
   </trkpt>
   <trkpt lat="-3.1340650" lon="37.3080020">
    <ele>2689.2</ele>
    <time>2026-06-20T14:21:59Z</time>
   </trkpt>
   <trkpt lat="-3.1340570" lon="37.3080040">
    <ele>2689.3</ele>
    <time>2026-06-20T14:22:00Z</time>
   </trkpt>
   <trkpt lat="-3.1340530" lon="37.3080080">
    <ele>2689.4</ele>
    <time>2026-06-20T14:22:01Z</time>
   </trkpt>
   <trkpt lat="-3.1340460" lon="37.3080180">
    <ele>2689.5</ele>
    <time>2026-06-20T14:22:02Z</time>
   </trkpt>
   <trkpt lat="-3.1340430" lon="37.3080200">
    <ele>2689.6</ele>
    <time>2026-06-20T14:22:03Z</time>
   </trkpt>
   <trkpt lat="-3.1340420" lon="37.3080200">
    <ele>2689.6</ele>
    <time>2026-06-20T14:22:04Z</time>
   </trkpt>
   <trkpt lat="-3.1340290" lon="37.3080230">
    <ele>2689.8</ele>
    <time>2026-06-20T14:22:05Z</time>
   </trkpt>
   <trkpt lat="-3.1340230" lon="37.3080250">
    <ele>2689.9</ele>
    <time>2026-06-20T14:22:06Z</time>
   </trkpt>
   <trkpt lat="-3.1340200" lon="37.3080230">
    <ele>2689.9</ele>
    <time>2026-06-20T14:22:07Z</time>
   </trkpt>
   <trkpt lat="-3.1340160" lon="37.3080200">
    <ele>2690.0</ele>
    <time>2026-06-20T14:22:08Z</time>
   </trkpt>
   <trkpt lat="-3.1340130" lon="37.3080190">
    <ele>2690.0</ele>
    <time>2026-06-20T14:22:09Z</time>
   </trkpt>
   <trkpt lat="-3.1340070" lon="37.3080220">
    <ele>2690.1</ele>
    <time>2026-06-20T14:22:10Z</time>
   </trkpt>
   <trkpt lat="-3.1340050" lon="37.3080180">
    <ele>2690.2</ele>
    <time>2026-06-20T14:22:11Z</time>
   </trkpt>
   <trkpt lat="-3.1339990" lon="37.3080180">
    <ele>2690.3</ele>
    <time>2026-06-20T14:22:12Z</time>
   </trkpt>
   <trkpt lat="-3.1339950" lon="37.3080150">
    <ele>2690.3</ele>
    <time>2026-06-20T14:22:13Z</time>
   </trkpt>
   <trkpt lat="-3.1339870" lon="37.3080140">
    <ele>2690.5</ele>
    <time>2026-06-20T14:22:14Z</time>
   </trkpt>
   <trkpt lat="-3.1339770" lon="37.3080150">
    <ele>2690.6</ele>
    <time>2026-06-20T14:22:15Z</time>
   </trkpt>
   <trkpt lat="-3.1339680" lon="37.3080150">
    <ele>2690.7</ele>
    <time>2026-06-20T14:22:16Z</time>
   </trkpt>
   <trkpt lat="-3.1339650" lon="37.3080130">
    <ele>2690.8</ele>
    <time>2026-06-20T14:22:17Z</time>
   </trkpt>
   <trkpt lat="-3.1339590" lon="37.3080160">
    <ele>2690.9</ele>
    <time>2026-06-20T14:22:18Z</time>
   </trkpt>
   <trkpt lat="-3.1339550" lon="37.3080180">
    <ele>2691.0</ele>
    <time>2026-06-20T14:22:19Z</time>
   </trkpt>
   <trkpt lat="-3.1339550" lon="37.3080160">
    <ele>2691.0</ele>
    <time>2026-06-20T14:22:20Z</time>
   </trkpt>
   <trkpt lat="-3.1339470" lon="37.3080180">
    <ele>2691.1</ele>
    <time>2026-06-20T14:22:21Z</time>
   </trkpt>
   <trkpt lat="-3.1339380" lon="37.3080200">
    <ele>2691.3</ele>
    <time>2026-06-20T14:22:22Z</time>
   </trkpt>
   <trkpt lat="-3.1339290" lon="37.3080230">
    <ele>2691.4</ele>
    <time>2026-06-20T14:22:23Z</time>
   </trkpt>
   <trkpt lat="-3.1339250" lon="37.3080260">
    <ele>2691.5</ele>
    <time>2026-06-20T14:22:24Z</time>
   </trkpt>
   <trkpt lat="-3.1339260" lon="37.3080290">
    <ele>2691.6</ele>
    <time>2026-06-20T14:22:25Z</time>
   </trkpt>
   <trkpt lat="-3.1339220" lon="37.3080290">
    <ele>2691.6</ele>
    <time>2026-06-20T14:22:26Z</time>
   </trkpt>
   <trkpt lat="-3.1339160" lon="37.3080300">
    <ele>2691.7</ele>
    <time>2026-06-20T14:22:27Z</time>
   </trkpt>
   <trkpt lat="-3.1339090" lon="37.3080300">
    <ele>2691.9</ele>
    <time>2026-06-20T14:22:28Z</time>
   </trkpt>
   <trkpt lat="-3.1339080" lon="37.3080290">
    <ele>2691.9</ele>
    <time>2026-06-20T14:22:29Z</time>
   </trkpt>
   <trkpt lat="-3.1339040" lon="37.3080310">
    <ele>2692.0</ele>
    <time>2026-06-20T14:22:30Z</time>
   </trkpt>
   <trkpt lat="-3.1339040" lon="37.3080330">
    <ele>2692.0</ele>
    <time>2026-06-20T14:22:31Z</time>
   </trkpt>
   <trkpt lat="-3.1338950" lon="37.3080340">
    <ele>2692.2</ele>
    <time>2026-06-20T14:22:32Z</time>
   </trkpt>
   <trkpt lat="-3.1338890" lon="37.3080320">
    <ele>2692.3</ele>
    <time>2026-06-20T14:22:33Z</time>
   </trkpt>
   <trkpt lat="-3.1338850" lon="37.3080320">
    <ele>2692.3</ele>
    <time>2026-06-20T14:22:34Z</time>
   </trkpt>
   <trkpt lat="-3.1338830" lon="37.3080310">
    <ele>2692.4</ele>
    <time>2026-06-20T14:22:35Z</time>
   </trkpt>
   <trkpt lat="-3.1338840" lon="37.3080290">
    <ele>2692.4</ele>
    <time>2026-06-20T14:22:36Z</time>
   </trkpt>
   <trkpt lat="-3.1338830" lon="37.3080300">
    <ele>2692.4</ele>
    <time>2026-06-20T14:22:37Z</time>
   </trkpt>
   <trkpt lat="-3.1338770" lon="37.3080340">
    <ele>2692.6</ele>
    <time>2026-06-20T14:22:38Z</time>
   </trkpt>
   <trkpt lat="-3.1338760" lon="37.3080390">
    <ele>2692.7</ele>
    <time>2026-06-20T14:22:39Z</time>
   </trkpt>
   <trkpt lat="-3.1338800" lon="37.3080460">
    <ele>2692.8</ele>
    <time>2026-06-20T14:22:40Z</time>
   </trkpt>
   <trkpt lat="-3.1338800" lon="37.3080460">
    <ele>2692.8</ele>
    <time>2026-06-20T14:22:41Z</time>
   </trkpt>
   <trkpt lat="-3.1338770" lon="37.3080520">
    <ele>2692.9</ele>
    <time>2026-06-20T14:22:42Z</time>
   </trkpt>
   <trkpt lat="-3.1338770" lon="37.3080540">
    <ele>2693.0</ele>
    <time>2026-06-20T14:22:43Z</time>
   </trkpt>
   <trkpt lat="-3.1338770" lon="37.3080540">
    <ele>2693.0</ele>
    <time>2026-06-20T14:22:44Z</time>
   </trkpt>
   <trkpt lat="-3.1338810" lon="37.3080490">
    <ele>2693.1</ele>
    <time>2026-06-20T14:22:45Z</time>
   </trkpt>
   <trkpt lat="-3.1338790" lon="37.3080490">
    <ele>2693.1</ele>
    <time>2026-06-20T14:22:46Z</time>
   </trkpt>
   <trkpt lat="-3.1338770" lon="37.3080510">
    <ele>2693.2</ele>
    <time>2026-06-20T14:22:47Z</time>
   </trkpt>
   <trkpt lat="-3.1338750" lon="37.3080510">
    <ele>2693.2</ele>
    <time>2026-06-20T14:22:48Z</time>
   </trkpt>
   <trkpt lat="-3.1338760" lon="37.3080490">
    <ele>2693.3</ele>
    <time>2026-06-20T14:22:49Z</time>
   </trkpt>
   <trkpt lat="-3.1338770" lon="37.3080510">
    <ele>2693.3</ele>
    <time>2026-06-20T14:22:50Z</time>
   </trkpt>
   <trkpt lat="-3.1338790" lon="37.3080540">
    <ele>2693.4</ele>
    <time>2026-06-20T14:22:51Z</time>
   </trkpt>
   <trkpt lat="-3.1338790" lon="37.3080540">
    <ele>2693.4</ele>
    <time>2026-06-20T14:22:52Z</time>
   </trkpt>
   <trkpt lat="-3.1338830" lon="37.3080560">
    <ele>2693.5</ele>
    <time>2026-06-20T14:22:53Z</time>
   </trkpt>
   <trkpt lat="-3.1338840" lon="37.3080570">
    <ele>2693.5</ele>
    <time>2026-06-20T14:22:54Z</time>
   </trkpt>
   <trkpt lat="-3.1338840" lon="37.3080580">
    <ele>2693.5</ele>
    <time>2026-06-20T14:22:55Z</time>
   </trkpt>
   <trkpt lat="-3.1338850" lon="37.3080600">
    <ele>2693.6</ele>
    <time>2026-06-20T14:22:56Z</time>
   </trkpt>
   <trkpt lat="-3.1338800" lon="37.3080600">
    <ele>2693.7</ele>
    <time>2026-06-20T14:22:57Z</time>
   </trkpt>
   <trkpt lat="-3.1338850" lon="37.3080640">
    <ele>2693.8</ele>
    <time>2026-06-20T14:22:58Z</time>
   </trkpt>
   <trkpt lat="-3.1338870" lon="37.3080610">
    <ele>2693.9</ele>
    <time>2026-06-20T14:22:59Z</time>
   </trkpt>
   <trkpt lat="-3.1338880" lon="37.3080620">
    <ele>2693.9</ele>
    <time>2026-06-20T14:23:00Z</time>
   </trkpt>
   <trkpt lat="-3.1338830" lon="37.3080600">
    <ele>2694.0</ele>
    <time>2026-06-20T14:23:01Z</time>
   </trkpt>
   <trkpt lat="-3.1338800" lon="37.3080630">
    <ele>2694.1</ele>
    <time>2026-06-20T14:23:02Z</time>
   </trkpt>
   <trkpt lat="-3.1338840" lon="37.3080580">
    <ele>2694.2</ele>
    <time>2026-06-20T14:23:03Z</time>
   </trkpt>
   <trkpt lat="-3.1338860" lon="37.3080530">
    <ele>2694.3</ele>
    <time>2026-06-20T14:23:04Z</time>
   </trkpt>
   <trkpt lat="-3.1338800" lon="37.3080530">
    <ele>2694.4</ele>
    <time>2026-06-20T14:23:05Z</time>
   </trkpt>
   <trkpt lat="-3.1338760" lon="37.3080520">
    <ele>2694.5</ele>
    <time>2026-06-20T14:23:06Z</time>
   </trkpt>
   <trkpt lat="-3.1338760" lon="37.3080520">
    <ele>2694.5</ele>
    <time>2026-06-20T14:23:07Z</time>
   </trkpt>
   <trkpt lat="-3.1338760" lon="37.3080530">
    <ele>2694.6</ele>
    <time>2026-06-20T14:23:08Z</time>
   </trkpt>
   <trkpt lat="-3.1338740" lon="37.3080480">
    <ele>2694.7</ele>
    <time>2026-06-20T14:23:09Z</time>
   </trkpt>
   <trkpt lat="-3.1338700" lon="37.3080560">
    <ele>2694.9</ele>
    <time>2026-06-20T14:23:10Z</time>
   </trkpt>
   <trkpt lat="-3.1338670" lon="37.3080580">
    <ele>2694.9</ele>
    <time>2026-06-20T14:23:11Z</time>
   </trkpt>
   <trkpt lat="-3.1338700" lon="37.3080490">
    <ele>2695.2</ele>
    <time>2026-06-20T14:23:12Z</time>
   </trkpt>
   <trkpt lat="-3.1338740" lon="37.3080440">
    <ele>2695.3</ele>
    <time>2026-06-20T14:23:13Z</time>
   </trkpt>
   <trkpt lat="-3.1338720" lon="37.3080520">
    <ele>2695.5</ele>
    <time>2026-06-20T14:23:14Z</time>
   </trkpt>
   <trkpt lat="-3.1338710" lon="37.3080580">
    <ele>2695.6</ele>
    <time>2026-06-20T14:23:15Z</time>
   </trkpt>
   <trkpt lat="-3.1338720" lon="37.3080560">
    <ele>2695.7</ele>
    <time>2026-06-20T14:23:16Z</time>
   </trkpt>
   <trkpt lat="-3.1338730" lon="37.3080610">
    <ele>2695.8</ele>
    <time>2026-06-20T14:23:17Z</time>
   </trkpt>
   <trkpt lat="-3.1338750" lon="37.3080640">
    <ele>2695.9</ele>
    <time>2026-06-20T14:23:18Z</time>
   </trkpt>
   <trkpt lat="-3.1338760" lon="37.3080640">
    <ele>2695.9</ele>
    <time>2026-06-20T14:23:19Z</time>
   </trkpt>
   <trkpt lat="-3.1338770" lon="37.3080730">
    <ele>2696.1</ele>
    <time>2026-06-20T14:23:20Z</time>
   </trkpt>
   <trkpt lat="-3.1338760" lon="37.3080730">
    <ele>2696.1</ele>
    <time>2026-06-20T14:23:21Z</time>
   </trkpt>
   <trkpt lat="-3.1338770" lon="37.3080730">
    <ele>2696.1</ele>
    <time>2026-06-20T14:23:22Z</time>
   </trkpt>
   <trkpt lat="-3.1338770" lon="37.3080680">
    <ele>2696.3</ele>
    <time>2026-06-20T14:23:23Z</time>
   </trkpt>
   <trkpt lat="-3.1338760" lon="37.3080670">
    <ele>2696.3</ele>
    <time>2026-06-20T14:23:24Z</time>
   </trkpt>
   <trkpt lat="-3.1338750" lon="37.3080660">
    <ele>2696.3</ele>
    <time>2026-06-20T14:23:25Z</time>
   </trkpt>
   <trkpt lat="-3.1338750" lon="37.3080660">
    <ele>2696.3</ele>
    <time>2026-06-20T14:23:26Z</time>
   </trkpt>
   <trkpt lat="-3.1338750" lon="37.3080660">
    <ele>2696.3</ele>
    <time>2026-06-20T14:23:27Z</time>
   </trkpt>
   <trkpt lat="-3.1338760" lon="37.3080590">
    <ele>2696.5</ele>
    <time>2026-06-20T14:23:28Z</time>
   </trkpt>
   <trkpt lat="-3.1338770" lon="37.3080560">
    <ele>2696.6</ele>
    <time>2026-06-20T14:23:29Z</time>
   </trkpt>
   <trkpt lat="-3.1338780" lon="37.3080540">
    <ele>2696.6</ele>
    <time>2026-06-20T14:23:30Z</time>
   </trkpt>
   <trkpt lat="-3.1338790" lon="37.3080520">
    <ele>2696.7</ele>
    <time>2026-06-20T14:23:31Z</time>
   </trkpt>
   <trkpt lat="-3.1338820" lon="37.3080470">
    <ele>2696.8</ele>
    <time>2026-06-20T14:23:32Z</time>
   </trkpt>
   <trkpt lat="-3.1338780" lon="37.3080500">
    <ele>2697.0</ele>
    <time>2026-06-20T14:23:33Z</time>
   </trkpt>
   <trkpt lat="-3.1338760" lon="37.3080530">
    <ele>2697.1</ele>
    <time>2026-06-20T14:23:34Z</time>
   </trkpt>
   <trkpt lat="-3.1338750" lon="37.3080530">
    <ele>2697.1</ele>
    <time>2026-06-20T14:23:35Z</time>
   </trkpt>
   <trkpt lat="-3.1338750" lon="37.3080550">
    <ele>2697.1</ele>
    <time>2026-06-20T14:23:36Z</time>
   </trkpt>
   <trkpt lat="-3.1338760" lon="37.3080560">
    <ele>2697.2</ele>
    <time>2026-06-20T14:23:37Z</time>
   </trkpt>
   <trkpt lat="-3.1338780" lon="37.3080560">
    <ele>2697.2</ele>
    <time>2026-06-20T14:23:38Z</time>
   </trkpt>
   <trkpt lat="-3.1338780" lon="37.3080560">
    <ele>2697.2</ele>
    <time>2026-06-20T14:23:39Z</time>
   </trkpt>
   <trkpt lat="-3.1338800" lon="37.3080540">
    <ele>2697.3</ele>
    <time>2026-06-20T14:23:40Z</time>
   </trkpt>
   <trkpt lat="-3.1338800" lon="37.3080550">
    <ele>2697.3</ele>
    <time>2026-06-20T14:23:41Z</time>
   </trkpt>
   <trkpt lat="-3.1338810" lon="37.3080530">
    <ele>2697.4</ele>
    <time>2026-06-20T14:23:42Z</time>
   </trkpt>
   <trkpt lat="-3.1338810" lon="37.3080530">
    <ele>2697.4</ele>
    <time>2026-06-20T14:23:43Z</time>
   </trkpt>
   <trkpt lat="-3.1338810" lon="37.3080530">
    <ele>2697.4</ele>
    <time>2026-06-20T14:23:44Z</time>
   </trkpt>
   <trkpt lat="-3.1338810" lon="37.3080530">
    <ele>2697.4</ele>
    <time>2026-06-20T14:23:45Z</time>
   </trkpt>
   <trkpt lat="-3.1338810" lon="37.3080530">
    <ele>2697.4</ele>
    <time>2026-06-20T14:23:46Z</time>
   </trkpt>
   <trkpt lat="-3.1338770" lon="37.3080630">
    <ele>2697.6</ele>
    <time>2026-06-20T14:23:47Z</time>
   </trkpt>
   <trkpt lat="-3.1338760" lon="37.3080660">
    <ele>2697.7</ele>
    <time>2026-06-20T14:23:48Z</time>
   </trkpt>
   <trkpt lat="-3.1338760" lon="37.3080670">
    <ele>2697.7</ele>
    <time>2026-06-20T14:23:49Z</time>
   </trkpt>
   <trkpt lat="-3.1338760" lon="37.3080670">
    <ele>2697.7</ele>
    <time>2026-06-20T14:23:50Z</time>
   </trkpt>
   <trkpt lat="-3.1338760" lon="37.3080680">
    <ele>2697.7</ele>
    <time>2026-06-20T14:23:51Z</time>
   </trkpt>
   <trkpt lat="-3.1338770" lon="37.3080670">
    <ele>2697.8</ele>
    <time>2026-06-20T14:23:52Z</time>
   </trkpt>
   <trkpt lat="-3.1338770" lon="37.3080670">
    <ele>2697.8</ele>
    <time>2026-06-20T14:23:53Z</time>
   </trkpt>
   <trkpt lat="-3.1338750" lon="37.3080660">
    <ele>2697.8</ele>
    <time>2026-06-20T14:23:54Z</time>
   </trkpt>
   <trkpt lat="-3.1338720" lon="37.3080680">
    <ele>2697.9</ele>
    <time>2026-06-20T14:23:55Z</time>
   </trkpt>
   <trkpt lat="-3.1338760" lon="37.3080650">
    <ele>2698.1</ele>
    <time>2026-06-20T14:23:56Z</time>
   </trkpt>
   <trkpt lat="-3.1338760" lon="37.3080660">
    <ele>2698.1</ele>
    <time>2026-06-20T14:23:57Z</time>
   </trkpt>
   <trkpt lat="-3.1338750" lon="37.3080730">
    <ele>2698.3</ele>
    <time>2026-06-20T14:23:58Z</time>
   </trkpt>
   <trkpt lat="-3.1338720" lon="37.3080710">
    <ele>2698.4</ele>
    <time>2026-06-20T14:23:59Z</time>
   </trkpt>
   <trkpt lat="-3.1338700" lon="37.3080690">
    <ele>2698.4</ele>
    <time>2026-06-20T14:24:00Z</time>
   </trkpt>
   <trkpt lat="-3.1338700" lon="37.3080740">
    <ele>2698.6</ele>
    <time>2026-06-20T14:24:01Z</time>
   </trkpt>
   <trkpt lat="-3.1338660" lon="37.3080710">
    <ele>2698.7</ele>
    <time>2026-06-20T14:24:02Z</time>
   </trkpt>
   <trkpt lat="-3.1338640" lon="37.3080700">
    <ele>2698.8</ele>
    <time>2026-06-20T14:24:03Z</time>
   </trkpt>
   <trkpt lat="-3.1338640" lon="37.3080710">
    <ele>2698.8</ele>
    <time>2026-06-20T14:24:04Z</time>
   </trkpt>
   <trkpt lat="-3.1338650" lon="37.3080700">
    <ele>2698.8</ele>
    <time>2026-06-20T14:24:05Z</time>
   </trkpt>
   <trkpt lat="-3.1338640" lon="37.3080690">
    <ele>2698.9</ele>
    <time>2026-06-20T14:24:06Z</time>
   </trkpt>
   <trkpt lat="-3.1338660" lon="37.3080710">
    <ele>2698.9</ele>
    <time>2026-06-20T14:24:07Z</time>
   </trkpt>
   <trkpt lat="-3.1338670" lon="37.3080680">
    <ele>2699.0</ele>
    <time>2026-06-20T14:24:08Z</time>
   </trkpt>
   <trkpt lat="-3.1338660" lon="37.3080660">
    <ele>2699.1</ele>
    <time>2026-06-20T14:24:09Z</time>
   </trkpt>
   <trkpt lat="-3.1338640" lon="37.3080660">
    <ele>2699.1</ele>
    <time>2026-06-20T14:24:10Z</time>
   </trkpt>
   <trkpt lat="-3.1338640" lon="37.3080660">
    <ele>2699.1</ele>
    <time>2026-06-20T14:24:11Z</time>
   </trkpt>
   <trkpt lat="-3.1338640" lon="37.3080660">
    <ele>2699.1</ele>
    <time>2026-06-20T14:24:12Z</time>
   </trkpt>
   <trkpt lat="-3.1338600" lon="37.3080640">
    <ele>2699.2</ele>
    <time>2026-06-20T14:24:13Z</time>
   </trkpt>
   <trkpt lat="-3.1338600" lon="37.3080630">
    <ele>2699.3</ele>
    <time>2026-06-20T14:24:14Z</time>
   </trkpt>
   <trkpt lat="-3.1338570" lon="37.3080630">
    <ele>2699.3</ele>
    <time>2026-06-20T14:24:15Z</time>
   </trkpt>
   <trkpt lat="-3.1338570" lon="37.3080650">
    <ele>2699.4</ele>
    <time>2026-06-20T14:24:16Z</time>
   </trkpt>
   <trkpt lat="-3.1338560" lon="37.3080650">
    <ele>2699.4</ele>
    <time>2026-06-20T14:24:17Z</time>
   </trkpt>
   <trkpt lat="-3.1338540" lon="37.3080650">
    <ele>2699.5</ele>
    <time>2026-06-20T14:24:18Z</time>
   </trkpt>
   <trkpt lat="-3.1338510" lon="37.3080670">
    <ele>2699.6</ele>
    <time>2026-06-20T14:24:19Z</time>
   </trkpt>
   <trkpt lat="-3.1338520" lon="37.3080690">
    <ele>2699.6</ele>
    <time>2026-06-20T14:24:20Z</time>
   </trkpt>
   <trkpt lat="-3.1338490" lon="37.3080650">
    <ele>2699.7</ele>
    <time>2026-06-20T14:24:21Z</time>
   </trkpt>
   <trkpt lat="-3.1338440" lon="37.3080700">
    <ele>2699.9</ele>
    <time>2026-06-20T14:24:22Z</time>
   </trkpt>
   <trkpt lat="-3.1338310" lon="37.3080760">
    <ele>2700.3</ele>
    <time>2026-06-20T14:24:23Z</time>
   </trkpt>
   <trkpt lat="-3.1338340" lon="37.3080730">
    <ele>2700.4</ele>
    <time>2026-06-20T14:24:24Z</time>
   </trkpt>
   <trkpt lat="-3.1338360" lon="37.3080730">
    <ele>2700.5</ele>
    <time>2026-06-20T14:24:25Z</time>
   </trkpt>
   <trkpt lat="-3.1338370" lon="37.3080700">
    <ele>2700.5</ele>
    <time>2026-06-20T14:24:26Z</time>
   </trkpt>
   <trkpt lat="-3.1338340" lon="37.3080690">
    <ele>2700.6</ele>
    <time>2026-06-20T14:24:27Z</time>
   </trkpt>
   <trkpt lat="-3.1338380" lon="37.3080710">
    <ele>2700.7</ele>
    <time>2026-06-20T14:24:28Z</time>
   </trkpt>
   <trkpt lat="-3.1338310" lon="37.3080690">
    <ele>2700.9</ele>
    <time>2026-06-20T14:24:29Z</time>
   </trkpt>
   <trkpt lat="-3.1338340" lon="37.3080760">
    <ele>2701.1</ele>
    <time>2026-06-20T14:24:30Z</time>
   </trkpt>
   <trkpt lat="-3.1338390" lon="37.3080730">
    <ele>2701.3</ele>
    <time>2026-06-20T14:24:31Z</time>
   </trkpt>
   <trkpt lat="-3.1338370" lon="37.3080730">
    <ele>2701.3</ele>
    <time>2026-06-20T14:24:32Z</time>
   </trkpt>
   <trkpt lat="-3.1338350" lon="37.3080740">
    <ele>2701.4</ele>
    <time>2026-06-20T14:24:33Z</time>
   </trkpt>
   <trkpt lat="-3.1338350" lon="37.3080710">
    <ele>2701.4</ele>
    <time>2026-06-20T14:24:34Z</time>
   </trkpt>
   <trkpt lat="-3.1338360" lon="37.3080700">
    <ele>2701.5</ele>
    <time>2026-06-20T14:24:35Z</time>
   </trkpt>
   <trkpt lat="-3.1338370" lon="37.3080730">
    <ele>2701.6</ele>
    <time>2026-06-20T14:24:36Z</time>
   </trkpt>
   <trkpt lat="-3.1338330" lon="37.3080750">
    <ele>2701.7</ele>
    <time>2026-06-20T14:24:37Z</time>
   </trkpt>
   <trkpt lat="-3.1338320" lon="37.3080750">
    <ele>2701.7</ele>
    <time>2026-06-20T14:24:38Z</time>
   </trkpt>
   <trkpt lat="-3.1338300" lon="37.3080770">
    <ele>2701.7</ele>
    <time>2026-06-20T14:24:39Z</time>
   </trkpt>
   <trkpt lat="-3.1338260" lon="37.3080810">
    <ele>2701.9</ele>
    <time>2026-06-20T14:24:40Z</time>
   </trkpt>
   <trkpt lat="-3.1338240" lon="37.3080790">
    <ele>2701.9</ele>
    <time>2026-06-20T14:24:41Z</time>
   </trkpt>
   <trkpt lat="-3.1338210" lon="37.3080790">
    <ele>2702.0</ele>
    <time>2026-06-20T14:24:42Z</time>
   </trkpt>
   <trkpt lat="-3.1338180" lon="37.3080800">
    <ele>2702.1</ele>
    <time>2026-06-20T14:24:43Z</time>
   </trkpt>
   <trkpt lat="-3.1338120" lon="37.3080810">
    <ele>2702.2</ele>
    <time>2026-06-20T14:24:44Z</time>
   </trkpt>
   <trkpt lat="-3.1338140" lon="37.3080820">
    <ele>2702.2</ele>
    <time>2026-06-20T14:24:45Z</time>
   </trkpt>
   <trkpt lat="-3.1338110" lon="37.3080800">
    <ele>2702.3</ele>
    <time>2026-06-20T14:24:46Z</time>
   </trkpt>
   <trkpt lat="-3.1338110" lon="37.3080810">
    <ele>2702.3</ele>
    <time>2026-06-20T14:24:47Z</time>
   </trkpt>
   <trkpt lat="-3.1338090" lon="37.3080810">
    <ele>2702.4</ele>
    <time>2026-06-20T14:24:48Z</time>
   </trkpt>
   <trkpt lat="-3.1338090" lon="37.3080810">
    <ele>2702.4</ele>
    <time>2026-06-20T14:24:49Z</time>
   </trkpt>
   <trkpt lat="-3.1338080" lon="37.3080790">
    <ele>2702.4</ele>
    <time>2026-06-20T14:24:50Z</time>
   </trkpt>
   <trkpt lat="-3.1338030" lon="37.3080810">
    <ele>2702.6</ele>
    <time>2026-06-20T14:24:51Z</time>
   </trkpt>
   <trkpt lat="-3.1338010" lon="37.3080850">
    <ele>2702.7</ele>
    <time>2026-06-20T14:24:52Z</time>
   </trkpt>
   <trkpt lat="-3.1337980" lon="37.3080860">
    <ele>2702.7</ele>
    <time>2026-06-20T14:24:53Z</time>
   </trkpt>
   <trkpt lat="-3.1337950" lon="37.3080860">
    <ele>2702.8</ele>
    <time>2026-06-20T14:24:54Z</time>
   </trkpt>
   <trkpt lat="-3.1337980" lon="37.3080860">
    <ele>2702.9</ele>
    <time>2026-06-20T14:24:55Z</time>
   </trkpt>
   <trkpt lat="-3.1337960" lon="37.3080850">
    <ele>2702.9</ele>
    <time>2026-06-20T14:24:56Z</time>
   </trkpt>
   <trkpt lat="-3.1337960" lon="37.3080830">
    <ele>2703.0</ele>
    <time>2026-06-20T14:24:57Z</time>
   </trkpt>
   <trkpt lat="-3.1337970" lon="37.3080820">
    <ele>2703.0</ele>
    <time>2026-06-20T14:24:58Z</time>
   </trkpt>
   <trkpt lat="-3.1337940" lon="37.3080800">
    <ele>2703.1</ele>
    <time>2026-06-20T14:24:59Z</time>
   </trkpt>
   <trkpt lat="-3.1337940" lon="37.3080770">
    <ele>2703.1</ele>
    <time>2026-06-20T14:25:00Z</time>
   </trkpt>
   <trkpt lat="-3.1337960" lon="37.3080750">
    <ele>2703.2</ele>
    <time>2026-06-20T14:25:01Z</time>
   </trkpt>
   <trkpt lat="-3.1337880" lon="37.3080750">
    <ele>2703.3</ele>
    <time>2026-06-20T14:25:02Z</time>
   </trkpt>
   <trkpt lat="-3.1337870" lon="37.3080750">
    <ele>2703.3</ele>
    <time>2026-06-20T14:25:03Z</time>
   </trkpt>
   <trkpt lat="-3.1337850" lon="37.3080740">
    <ele>2703.4</ele>
    <time>2026-06-20T14:25:04Z</time>
   </trkpt>
   <trkpt lat="-3.1337840" lon="37.3080760">
    <ele>2703.4</ele>
    <time>2026-06-20T14:25:05Z</time>
   </trkpt>
   <trkpt lat="-3.1337800" lon="37.3080780">
    <ele>2703.5</ele>
    <time>2026-06-20T14:25:06Z</time>
   </trkpt>
   <trkpt lat="-3.1337770" lon="37.3080830">
    <ele>2703.6</ele>
    <time>2026-06-20T14:25:07Z</time>
   </trkpt>
   <trkpt lat="-3.1337760" lon="37.3080840">
    <ele>2703.6</ele>
    <time>2026-06-20T14:25:08Z</time>
   </trkpt>
   <trkpt lat="-3.1337710" lon="37.3080860">
    <ele>2703.7</ele>
    <time>2026-06-20T14:25:09Z</time>
   </trkpt>
   <trkpt lat="-3.1337670" lon="37.3080880">
    <ele>2703.8</ele>
    <time>2026-06-20T14:25:10Z</time>
   </trkpt>
   <trkpt lat="-3.1337630" lon="37.3080880">
    <ele>2703.8</ele>
    <time>2026-06-20T14:25:11Z</time>
   </trkpt>
   <trkpt lat="-3.1337660" lon="37.3080880">
    <ele>2703.9</ele>
    <time>2026-06-20T14:25:12Z</time>
   </trkpt>
   <trkpt lat="-3.1337630" lon="37.3080890">
    <ele>2703.9</ele>
    <time>2026-06-20T14:25:13Z</time>
   </trkpt>
   <trkpt lat="-3.1337580" lon="37.3080900">
    <ele>2704.0</ele>
    <time>2026-06-20T14:25:14Z</time>
   </trkpt>
   <trkpt lat="-3.1337610" lon="37.3080830">
    <ele>2704.1</ele>
    <time>2026-06-20T14:25:15Z</time>
   </trkpt>
   <trkpt lat="-3.1337560" lon="37.3080900">
    <ele>2704.3</ele>
    <time>2026-06-20T14:25:16Z</time>
   </trkpt>
   <trkpt lat="-3.1337530" lon="37.3080880">
    <ele>2704.3</ele>
    <time>2026-06-20T14:25:17Z</time>
   </trkpt>
   <trkpt lat="-3.1337520" lon="37.3080910">
    <ele>2704.4</ele>
    <time>2026-06-20T14:25:18Z</time>
   </trkpt>
   <trkpt lat="-3.1337520" lon="37.3080990">
    <ele>2704.5</ele>
    <time>2026-06-20T14:25:19Z</time>
   </trkpt>
   <trkpt lat="-3.1337500" lon="37.3081050">
    <ele>2704.6</ele>
    <time>2026-06-20T14:25:20Z</time>
   </trkpt>
   <trkpt lat="-3.1337470" lon="37.3081040">
    <ele>2704.6</ele>
    <time>2026-06-20T14:25:21Z</time>
   </trkpt>
   <trkpt lat="-3.1337440" lon="37.3081040">
    <ele>2704.6</ele>
    <time>2026-06-20T14:25:22Z</time>
   </trkpt>
   <trkpt lat="-3.1337330" lon="37.3081070">
    <ele>2704.8</ele>
    <time>2026-06-20T14:25:23Z</time>
   </trkpt>
   <trkpt lat="-3.1337340" lon="37.3081100">
    <ele>2704.8</ele>
    <time>2026-06-20T14:25:24Z</time>
   </trkpt>
   <trkpt lat="-3.1337290" lon="37.3081110">
    <ele>2704.9</ele>
    <time>2026-06-20T14:25:25Z</time>
   </trkpt>
   <trkpt lat="-3.1337310" lon="37.3081090">
    <ele>2704.9</ele>
    <time>2026-06-20T14:25:26Z</time>
   </trkpt>
   <trkpt lat="-3.1337260" lon="37.3081080">
    <ele>2705.0</ele>
    <time>2026-06-20T14:25:27Z</time>
   </trkpt>
   <trkpt lat="-3.1337240" lon="37.3081090">
    <ele>2705.0</ele>
    <time>2026-06-20T14:25:28Z</time>
   </trkpt>
   <trkpt lat="-3.1337240" lon="37.3081070">
    <ele>2705.0</ele>
    <time>2026-06-20T14:25:29Z</time>
   </trkpt>
   <trkpt lat="-3.1337210" lon="37.3081080">
    <ele>2705.0</ele>
    <time>2026-06-20T14:25:30Z</time>
   </trkpt>
   <trkpt lat="-3.1337160" lon="37.3081060">
    <ele>2705.1</ele>
    <time>2026-06-20T14:25:31Z</time>
   </trkpt>
   <trkpt lat="-3.1337140" lon="37.3081060">
    <ele>2705.1</ele>
    <time>2026-06-20T14:25:32Z</time>
   </trkpt>
   <trkpt lat="-3.1337140" lon="37.3081070">
    <ele>2705.1</ele>
    <time>2026-06-20T14:25:33Z</time>
   </trkpt>
   <trkpt lat="-3.1337150" lon="37.3081060">
    <ele>2705.2</ele>
    <time>2026-06-20T14:25:34Z</time>
   </trkpt>
   <trkpt lat="-3.1337150" lon="37.3081050">
    <ele>2705.2</ele>
    <time>2026-06-20T14:25:35Z</time>
   </trkpt>
   <trkpt lat="-3.1337090" lon="37.3081080">
    <ele>2705.2</ele>
    <time>2026-06-20T14:25:36Z</time>
   </trkpt>
   <trkpt lat="-3.1337040" lon="37.3081110">
    <ele>2705.3</ele>
    <time>2026-06-20T14:25:37Z</time>
   </trkpt>
   <trkpt lat="-3.1337030" lon="37.3081110">
    <ele>2705.3</ele>
    <time>2026-06-20T14:25:38Z</time>
   </trkpt>
   <trkpt lat="-3.1337000" lon="37.3081100">
    <ele>2705.3</ele>
    <time>2026-06-20T14:25:39Z</time>
   </trkpt>
   <trkpt lat="-3.1337010" lon="37.3081120">
    <ele>2705.3</ele>
    <time>2026-06-20T14:25:40Z</time>
   </trkpt>
   <trkpt lat="-3.1336970" lon="37.3081110">
    <ele>2705.4</ele>
    <time>2026-06-20T14:25:41Z</time>
   </trkpt>
   <trkpt lat="-3.1336970" lon="37.3081100">
    <ele>2705.4</ele>
    <time>2026-06-20T14:25:42Z</time>
   </trkpt>
   <trkpt lat="-3.1336950" lon="37.3081110">
    <ele>2705.4</ele>
    <time>2026-06-20T14:25:43Z</time>
   </trkpt>
   <trkpt lat="-3.1336940" lon="37.3081140">
    <ele>2705.4</ele>
    <time>2026-06-20T14:25:44Z</time>
   </trkpt>
   <trkpt lat="-3.1336950" lon="37.3081150">
    <ele>2705.4</ele>
    <time>2026-06-20T14:25:45Z</time>
   </trkpt>
   <trkpt lat="-3.1336930" lon="37.3081150">
    <ele>2705.5</ele>
    <time>2026-06-20T14:25:46Z</time>
   </trkpt>
   <trkpt lat="-3.1336960" lon="37.3081130">
    <ele>2705.5</ele>
    <time>2026-06-20T14:25:47Z</time>
   </trkpt>
   <trkpt lat="-3.1336970" lon="37.3081090">
    <ele>2705.5</ele>
    <time>2026-06-20T14:25:48Z</time>
   </trkpt>
   <trkpt lat="-3.1336960" lon="37.3081080">
    <ele>2705.5</ele>
    <time>2026-06-20T14:25:49Z</time>
   </trkpt>
   <trkpt lat="-3.1336990" lon="37.3081130">
    <ele>2705.6</ele>
    <time>2026-06-20T14:25:50Z</time>
   </trkpt>
   <trkpt lat="-3.1337010" lon="37.3081140">
    <ele>2705.6</ele>
    <time>2026-06-20T14:25:51Z</time>
   </trkpt>
   <trkpt lat="-3.1336930" lon="37.3081110">
    <ele>2705.7</ele>
    <time>2026-06-20T14:25:52Z</time>
   </trkpt>
   <trkpt lat="-3.1336910" lon="37.3081100">
    <ele>2705.7</ele>
    <time>2026-06-20T14:25:53Z</time>
   </trkpt>
   <trkpt lat="-3.1336880" lon="37.3081110">
    <ele>2705.7</ele>
    <time>2026-06-20T14:25:54Z</time>
   </trkpt>
   <trkpt lat="-3.1336850" lon="37.3081090">
    <ele>2705.8</ele>
    <time>2026-06-20T14:25:55Z</time>
   </trkpt>
   <trkpt lat="-3.1336830" lon="37.3081100">
    <ele>2705.8</ele>
    <time>2026-06-20T14:25:56Z</time>
   </trkpt>
   <trkpt lat="-3.1336870" lon="37.3081060">
    <ele>2705.8</ele>
    <time>2026-06-20T14:25:57Z</time>
   </trkpt>
   <trkpt lat="-3.1336870" lon="37.3081080">
    <ele>2705.8</ele>
    <time>2026-06-20T14:25:58Z</time>
   </trkpt>
   <trkpt lat="-3.1336860" lon="37.3081070">
    <ele>2705.9</ele>
    <time>2026-06-20T14:25:59Z</time>
   </trkpt>
   <trkpt lat="-3.1336840" lon="37.3081060">
    <ele>2705.9</ele>
    <time>2026-06-20T14:26:00Z</time>
   </trkpt>
   <trkpt lat="-3.1336820" lon="37.3081030">
    <ele>2705.9</ele>
    <time>2026-06-20T14:26:01Z</time>
   </trkpt>
   <trkpt lat="-3.1336830" lon="37.3081050">
    <ele>2705.9</ele>
    <time>2026-06-20T14:26:02Z</time>
   </trkpt>
   <trkpt lat="-3.1336830" lon="37.3081100">
    <ele>2706.0</ele>
    <time>2026-06-20T14:26:03Z</time>
   </trkpt>
   <trkpt lat="-3.1336790" lon="37.3081060">
    <ele>2706.0</ele>
    <time>2026-06-20T14:26:04Z</time>
   </trkpt>
   <trkpt lat="-3.1336790" lon="37.3081100">
    <ele>2706.0</ele>
    <time>2026-06-20T14:26:05Z</time>
   </trkpt>
   <trkpt lat="-3.1336790" lon="37.3081120">
    <ele>2706.1</ele>
    <time>2026-06-20T14:26:06Z</time>
   </trkpt>
   <trkpt lat="-3.1336770" lon="37.3081130">
    <ele>2706.1</ele>
    <time>2026-06-20T14:26:07Z</time>
   </trkpt>
   <trkpt lat="-3.1336730" lon="37.3081170">
    <ele>2706.1</ele>
    <time>2026-06-20T14:26:08Z</time>
   </trkpt>
   <trkpt lat="-3.1336660" lon="37.3081170">
    <ele>2706.2</ele>
    <time>2026-06-20T14:26:09Z</time>
   </trkpt>
   <trkpt lat="-3.1336610" lon="37.3081200">
    <ele>2706.2</ele>
    <time>2026-06-20T14:26:10Z</time>
   </trkpt>
   <trkpt lat="-3.1336610" lon="37.3081220">
    <ele>2706.2</ele>
    <time>2026-06-20T14:26:11Z</time>
   </trkpt>
   <trkpt lat="-3.1336610" lon="37.3081240">
    <ele>2706.3</ele>
    <time>2026-06-20T14:26:12Z</time>
   </trkpt>
   <trkpt lat="-3.1336570" lon="37.3081180">
    <ele>2706.3</ele>
    <time>2026-06-20T14:26:13Z</time>
   </trkpt>
   <trkpt lat="-3.1336560" lon="37.3081190">
    <ele>2706.3</ele>
    <time>2026-06-20T14:26:14Z</time>
   </trkpt>
   <trkpt lat="-3.1336520" lon="37.3081190">
    <ele>2706.4</ele>
    <time>2026-06-20T14:26:15Z</time>
   </trkpt>
   <trkpt lat="-3.1336450" lon="37.3081220">
    <ele>2706.4</ele>
    <time>2026-06-20T14:26:16Z</time>
   </trkpt>
   <trkpt lat="-3.1336450" lon="37.3081250">
    <ele>2706.5</ele>
    <time>2026-06-20T14:26:17Z</time>
   </trkpt>
   <trkpt lat="-3.1336430" lon="37.3081290">
    <ele>2706.5</ele>
    <time>2026-06-20T14:26:18Z</time>
   </trkpt>
   <trkpt lat="-3.1336460" lon="37.3081290">
    <ele>2706.5</ele>
    <time>2026-06-20T14:26:19Z</time>
   </trkpt>
   <trkpt lat="-3.1336480" lon="37.3081350">
    <ele>2706.6</ele>
    <time>2026-06-20T14:26:20Z</time>
   </trkpt>
   <trkpt lat="-3.1336440" lon="37.3081380">
    <ele>2706.6</ele>
    <time>2026-06-20T14:26:21Z</time>
   </trkpt>
   <trkpt lat="-3.1336410" lon="37.3081400">
    <ele>2706.7</ele>
    <time>2026-06-20T14:26:22Z</time>
   </trkpt>
   <trkpt lat="-3.1336360" lon="37.3081440">
    <ele>2706.7</ele>
    <time>2026-06-20T14:26:23Z</time>
   </trkpt>
   <trkpt lat="-3.1336290" lon="37.3081490">
    <ele>2706.8</ele>
    <time>2026-06-20T14:26:24Z</time>
   </trkpt>
   <trkpt lat="-3.1336250" lon="37.3081470">
    <ele>2706.9</ele>
    <time>2026-06-20T14:26:25Z</time>
   </trkpt>
   <trkpt lat="-3.1336180" lon="37.3081500">
    <ele>2706.9</ele>
    <time>2026-06-20T14:26:26Z</time>
   </trkpt>
   <trkpt lat="-3.1336160" lon="37.3081510">
    <ele>2707.0</ele>
    <time>2026-06-20T14:26:27Z</time>
   </trkpt>
   <trkpt lat="-3.1336160" lon="37.3081550">
    <ele>2707.0</ele>
    <time>2026-06-20T14:26:28Z</time>
   </trkpt>
   <trkpt lat="-3.1336130" lon="37.3081570">
    <ele>2707.0</ele>
    <time>2026-06-20T14:26:29Z</time>
   </trkpt>
   <trkpt lat="-3.1336080" lon="37.3081540">
    <ele>2707.1</ele>
    <time>2026-06-20T14:26:30Z</time>
   </trkpt>
   <trkpt lat="-3.1336040" lon="37.3081570">
    <ele>2707.1</ele>
    <time>2026-06-20T14:26:31Z</time>
   </trkpt>
   <trkpt lat="-3.1336030" lon="37.3081580">
    <ele>2707.2</ele>
    <time>2026-06-20T14:26:32Z</time>
   </trkpt>
   <trkpt lat="-3.1336030" lon="37.3081590">
    <ele>2707.2</ele>
    <time>2026-06-20T14:26:33Z</time>
   </trkpt>
   <trkpt lat="-3.1336000" lon="37.3081620">
    <ele>2707.2</ele>
    <time>2026-06-20T14:26:34Z</time>
   </trkpt>
   <trkpt lat="-3.1336010" lon="37.3081670">
    <ele>2707.3</ele>
    <time>2026-06-20T14:26:35Z</time>
   </trkpt>
   <trkpt lat="-3.1335950" lon="37.3081700">
    <ele>2707.4</ele>
    <time>2026-06-20T14:26:36Z</time>
   </trkpt>
   <trkpt lat="-3.1335900" lon="37.3081820">
    <ele>2707.5</ele>
    <time>2026-06-20T14:26:37Z</time>
   </trkpt>
   <trkpt lat="-3.1335820" lon="37.3081810">
    <ele>2707.6</ele>
    <time>2026-06-20T14:26:38Z</time>
   </trkpt>
   <trkpt lat="-3.1335820" lon="37.3081820">
    <ele>2707.7</ele>
    <time>2026-06-20T14:26:39Z</time>
   </trkpt>
   <trkpt lat="-3.1335810" lon="37.3081800">
    <ele>2707.7</ele>
    <time>2026-06-20T14:26:40Z</time>
   </trkpt>
   <trkpt lat="-3.1335780" lon="37.3081870">
    <ele>2707.8</ele>
    <time>2026-06-20T14:26:41Z</time>
   </trkpt>
   <trkpt lat="-3.1335700" lon="37.3081860">
    <ele>2707.9</ele>
    <time>2026-06-20T14:26:42Z</time>
   </trkpt>
   <trkpt lat="-3.1335670" lon="37.3081880">
    <ele>2707.9</ele>
    <time>2026-06-20T14:26:43Z</time>
   </trkpt>
   <trkpt lat="-3.1335610" lon="37.3081910">
    <ele>2708.0</ele>
    <time>2026-06-20T14:26:44Z</time>
   </trkpt>
   <trkpt lat="-3.1335600" lon="37.3081940">
    <ele>2708.1</ele>
    <time>2026-06-20T14:26:45Z</time>
   </trkpt>
   <trkpt lat="-3.1335560" lon="37.3081960">
    <ele>2708.1</ele>
    <time>2026-06-20T14:26:46Z</time>
   </trkpt>
   <trkpt lat="-3.1335570" lon="37.3082030">
    <ele>2708.2</ele>
    <time>2026-06-20T14:26:47Z</time>
   </trkpt>
   <trkpt lat="-3.1335610" lon="37.3082040">
    <ele>2708.3</ele>
    <time>2026-06-20T14:26:48Z</time>
   </trkpt>
   <trkpt lat="-3.1335550" lon="37.3082050">
    <ele>2708.4</ele>
    <time>2026-06-20T14:26:49Z</time>
   </trkpt>
   <trkpt lat="-3.1335500" lon="37.3082050">
    <ele>2708.5</ele>
    <time>2026-06-20T14:26:50Z</time>
   </trkpt>
   <trkpt lat="-3.1335460" lon="37.3082060">
    <ele>2708.6</ele>
    <time>2026-06-20T14:26:51Z</time>
   </trkpt>
   <trkpt lat="-3.1335470" lon="37.3082040">
    <ele>2708.6</ele>
    <time>2026-06-20T14:26:52Z</time>
   </trkpt>
   <trkpt lat="-3.1335520" lon="37.3082030">
    <ele>2708.7</ele>
    <time>2026-06-20T14:26:53Z</time>
   </trkpt>
   <trkpt lat="-3.1335540" lon="37.3082050">
    <ele>2708.7</ele>
    <time>2026-06-20T14:26:54Z</time>
   </trkpt>
   <trkpt lat="-3.1335500" lon="37.3082110">
    <ele>2708.8</ele>
    <time>2026-06-20T14:26:55Z</time>
   </trkpt>
   <trkpt lat="-3.1335510" lon="37.3082140">
    <ele>2708.9</ele>
    <time>2026-06-20T14:26:56Z</time>
   </trkpt>
   <trkpt lat="-3.1335510" lon="37.3082240">
    <ele>2709.0</ele>
    <time>2026-06-20T14:26:57Z</time>
   </trkpt>
   <trkpt lat="-3.1335420" lon="37.3082370">
    <ele>2709.3</ele>
    <time>2026-06-20T14:26:58Z</time>
   </trkpt>
   <trkpt lat="-3.1335360" lon="37.3082380">
    <ele>2709.4</ele>
    <time>2026-06-20T14:26:59Z</time>
   </trkpt>
   <trkpt lat="-3.1335340" lon="37.3082370">
    <ele>2709.5</ele>
    <time>2026-06-20T14:27:00Z</time>
   </trkpt>
   <trkpt lat="-3.1335280" lon="37.3082420">
    <ele>2709.6</ele>
    <time>2026-06-20T14:27:01Z</time>
   </trkpt>
   <trkpt lat="-3.1335280" lon="37.3082480">
    <ele>2709.7</ele>
    <time>2026-06-20T14:27:02Z</time>
   </trkpt>
   <trkpt lat="-3.1335210" lon="37.3082510">
    <ele>2709.9</ele>
    <time>2026-06-20T14:27:03Z</time>
   </trkpt>
   <trkpt lat="-3.1335180" lon="37.3082500">
    <ele>2709.9</ele>
    <time>2026-06-20T14:27:04Z</time>
   </trkpt>
   <trkpt lat="-3.1335140" lon="37.3082530">
    <ele>2710.0</ele>
    <time>2026-06-20T14:27:05Z</time>
   </trkpt>
   <trkpt lat="-3.1335130" lon="37.3082550">
    <ele>2710.1</ele>
    <time>2026-06-20T14:27:06Z</time>
   </trkpt>
   <trkpt lat="-3.1335070" lon="37.3082570">
    <ele>2710.2</ele>
    <time>2026-06-20T14:27:07Z</time>
   </trkpt>
   <trkpt lat="-3.1335020" lon="37.3082650">
    <ele>2710.3</ele>
    <time>2026-06-20T14:27:08Z</time>
   </trkpt>
   <trkpt lat="-3.1334980" lon="37.3082680">
    <ele>2710.4</ele>
    <time>2026-06-20T14:27:09Z</time>
   </trkpt>
   <trkpt lat="-3.1334900" lon="37.3082720">
    <ele>2710.6</ele>
    <time>2026-06-20T14:27:10Z</time>
   </trkpt>
   <trkpt lat="-3.1334840" lon="37.3082780">
    <ele>2710.8</ele>
    <time>2026-06-20T14:27:11Z</time>
   </trkpt>
   <trkpt lat="-3.1334830" lon="37.3082820">
    <ele>2710.9</ele>
    <time>2026-06-20T14:27:12Z</time>
   </trkpt>
   <trkpt lat="-3.1334810" lon="37.3082850">
    <ele>2711.0</ele>
    <time>2026-06-20T14:27:13Z</time>
   </trkpt>
   <trkpt lat="-3.1334750" lon="37.3082930">
    <ele>2711.2</ele>
    <time>2026-06-20T14:27:14Z</time>
   </trkpt>
   <trkpt lat="-3.1334760" lon="37.3082920">
    <ele>2711.2</ele>
    <time>2026-06-20T14:27:15Z</time>
   </trkpt>
   <trkpt lat="-3.1334690" lon="37.3083010">
    <ele>2711.4</ele>
    <time>2026-06-20T14:27:16Z</time>
   </trkpt>
   <trkpt lat="-3.1334650" lon="37.3083050">
    <ele>2711.6</ele>
    <time>2026-06-20T14:27:17Z</time>
   </trkpt>
   <trkpt lat="-3.1334610" lon="37.3083130">
    <ele>2711.7</ele>
    <time>2026-06-20T14:27:18Z</time>
   </trkpt>
   <trkpt lat="-3.1334580" lon="37.3083150">
    <ele>2711.8</ele>
    <time>2026-06-20T14:27:19Z</time>
   </trkpt>
   <trkpt lat="-3.1334540" lon="37.3083170">
    <ele>2711.9</ele>
    <time>2026-06-20T14:27:20Z</time>
   </trkpt>
   <trkpt lat="-3.1334470" lon="37.3083240">
    <ele>2712.1</ele>
    <time>2026-06-20T14:27:21Z</time>
   </trkpt>
   <trkpt lat="-3.1334410" lon="37.3083290">
    <ele>2712.3</ele>
    <time>2026-06-20T14:27:22Z</time>
   </trkpt>
   <trkpt lat="-3.1334420" lon="37.3083290">
    <ele>2712.3</ele>
    <time>2026-06-20T14:27:23Z</time>
   </trkpt>
   <trkpt lat="-3.1334370" lon="37.3083330">
    <ele>2712.5</ele>
    <time>2026-06-20T14:27:24Z</time>
   </trkpt>
   <trkpt lat="-3.1334280" lon="37.3083420">
    <ele>2712.8</ele>
    <time>2026-06-20T14:27:25Z</time>
   </trkpt>
   <trkpt lat="-3.1334240" lon="37.3083440">
    <ele>2712.9</ele>
    <time>2026-06-20T14:27:26Z</time>
   </trkpt>
   <trkpt lat="-3.1334240" lon="37.3083510">
    <ele>2713.0</ele>
    <time>2026-06-20T14:27:27Z</time>
   </trkpt>
   <trkpt lat="-3.1334150" lon="37.3083610">
    <ele>2713.3</ele>
    <time>2026-06-20T14:27:28Z</time>
   </trkpt>
   <trkpt lat="-3.1334090" lon="37.3083710">
    <ele>2713.6</ele>
    <time>2026-06-20T14:27:29Z</time>
   </trkpt>
   <trkpt lat="-3.1334060" lon="37.3083750">
    <ele>2713.7</ele>
    <time>2026-06-20T14:27:30Z</time>
   </trkpt>
   <trkpt lat="-3.1334030" lon="37.3083780">
    <ele>2713.8</ele>
    <time>2026-06-20T14:27:31Z</time>
   </trkpt>
   <trkpt lat="-3.1334020" lon="37.3083830">
    <ele>2713.9</ele>
    <time>2026-06-20T14:27:32Z</time>
   </trkpt>
   <trkpt lat="-3.1334000" lon="37.3083870">
    <ele>2714.0</ele>
    <time>2026-06-20T14:27:33Z</time>
   </trkpt>
   <trkpt lat="-3.1334020" lon="37.3083890">
    <ele>2714.1</ele>
    <time>2026-06-20T14:27:34Z</time>
   </trkpt>
   <trkpt lat="-3.1334040" lon="37.3083860">
    <ele>2714.2</ele>
    <time>2026-06-20T14:27:35Z</time>
   </trkpt>
   <trkpt lat="-3.1334050" lon="37.3083860">
    <ele>2714.2</ele>
    <time>2026-06-20T14:27:36Z</time>
   </trkpt>
   <trkpt lat="-3.1334080" lon="37.3083810">
    <ele>2714.3</ele>
    <time>2026-06-20T14:27:37Z</time>
   </trkpt>
   <trkpt lat="-3.1334100" lon="37.3083830">
    <ele>2714.4</ele>
    <time>2026-06-20T14:27:38Z</time>
   </trkpt>
   <trkpt lat="-3.1334110" lon="37.3083840">
    <ele>2714.4</ele>
    <time>2026-06-20T14:27:39Z</time>
   </trkpt>
   <trkpt lat="-3.1334110" lon="37.3083860">
    <ele>2714.5</ele>
    <time>2026-06-20T14:27:40Z</time>
   </trkpt>
   <trkpt lat="-3.1334100" lon="37.3083870">
    <ele>2714.5</ele>
    <time>2026-06-20T14:27:41Z</time>
   </trkpt>
   <trkpt lat="-3.1334120" lon="37.3083870">
    <ele>2714.5</ele>
    <time>2026-06-20T14:27:42Z</time>
   </trkpt>
   <trkpt lat="-3.1334110" lon="37.3083870">
    <ele>2714.6</ele>
    <time>2026-06-20T14:27:43Z</time>
   </trkpt>
   <trkpt lat="-3.1334110" lon="37.3083860">
    <ele>2714.6</ele>
    <time>2026-06-20T14:27:44Z</time>
   </trkpt>
   <trkpt lat="-3.1334100" lon="37.3083880">
    <ele>2714.6</ele>
    <time>2026-06-20T14:27:45Z</time>
   </trkpt>
   <trkpt lat="-3.1334100" lon="37.3083870">
    <ele>2714.7</ele>
    <time>2026-06-20T14:27:46Z</time>
   </trkpt>
   <trkpt lat="-3.1334100" lon="37.3083860">
    <ele>2714.7</ele>
    <time>2026-06-20T14:27:47Z</time>
   </trkpt>
   <trkpt lat="-3.1334090" lon="37.3083850">
    <ele>2714.7</ele>
    <time>2026-06-20T14:27:48Z</time>
   </trkpt>
   <trkpt lat="-3.1334100" lon="37.3083850">
    <ele>2714.7</ele>
    <time>2026-06-20T14:27:49Z</time>
   </trkpt>
   <trkpt lat="-3.1334100" lon="37.3083830">
    <ele>2714.8</ele>
    <time>2026-06-20T14:27:50Z</time>
   </trkpt>
   <trkpt lat="-3.1334100" lon="37.3083830">
    <ele>2714.8</ele>
    <time>2026-06-20T14:27:51Z</time>
   </trkpt>
   <trkpt lat="-3.1334110" lon="37.3083820">
    <ele>2714.8</ele>
    <time>2026-06-20T14:27:52Z</time>
   </trkpt>
   <trkpt lat="-3.1334100" lon="37.3083830">
    <ele>2714.8</ele>
    <time>2026-06-20T14:27:53Z</time>
   </trkpt>
   <trkpt lat="-3.1334100" lon="37.3083860">
    <ele>2714.9</ele>
    <time>2026-06-20T14:27:54Z</time>
   </trkpt>
   <trkpt lat="-3.1334100" lon="37.3083870">
    <ele>2714.9</ele>
    <time>2026-06-20T14:27:55Z</time>
   </trkpt>
   <trkpt lat="-3.1334080" lon="37.3083880">
    <ele>2715.0</ele>
    <time>2026-06-20T14:27:56Z</time>
   </trkpt>
   <trkpt lat="-3.1334100" lon="37.3083860">
    <ele>2715.1</ele>
    <time>2026-06-20T14:27:57Z</time>
   </trkpt>
   <trkpt lat="-3.1334120" lon="37.3083840">
    <ele>2715.1</ele>
    <time>2026-06-20T14:27:58Z</time>
   </trkpt>
   <trkpt lat="-3.1334110" lon="37.3083850">
    <ele>2715.1</ele>
    <time>2026-06-20T14:27:59Z</time>
   </trkpt>
   <trkpt lat="-3.1334140" lon="37.3083860">
    <ele>2715.2</ele>
    <time>2026-06-20T14:28:00Z</time>
   </trkpt>
   <trkpt lat="-3.1334160" lon="37.3083870">
    <ele>2715.3</ele>
    <time>2026-06-20T14:28:01Z</time>
   </trkpt>
   <trkpt lat="-3.1334170" lon="37.3083850">
    <ele>2715.3</ele>
    <time>2026-06-20T14:28:02Z</time>
   </trkpt>
   <trkpt lat="-3.1334140" lon="37.3083860">
    <ele>2715.4</ele>
    <time>2026-06-20T14:28:03Z</time>
   </trkpt>
   <trkpt lat="-3.1334150" lon="37.3083870">
    <ele>2715.4</ele>
    <time>2026-06-20T14:28:04Z</time>
   </trkpt>
   <trkpt lat="-3.1334190" lon="37.3083840">
    <ele>2715.5</ele>
    <time>2026-06-20T14:28:05Z</time>
   </trkpt>
   <trkpt lat="-3.1334180" lon="37.3083850">
    <ele>2715.6</ele>
    <time>2026-06-20T14:28:06Z</time>
   </trkpt>
   <trkpt lat="-3.1334140" lon="37.3083900">
    <ele>2715.7</ele>
    <time>2026-06-20T14:28:07Z</time>
   </trkpt>
   <trkpt lat="-3.1334180" lon="37.3083950">
    <ele>2715.9</ele>
    <time>2026-06-20T14:28:08Z</time>
   </trkpt>
   <trkpt lat="-3.1334230" lon="37.3083920">
    <ele>2716.0</ele>
    <time>2026-06-20T14:28:09Z</time>
   </trkpt>
   <trkpt lat="-3.1334230" lon="37.3083910">
    <ele>2716.0</ele>
    <time>2026-06-20T14:28:10Z</time>
   </trkpt>
   <trkpt lat="-3.1334270" lon="37.3083900">
    <ele>2716.1</ele>
    <time>2026-06-20T14:28:11Z</time>
   </trkpt>
   <trkpt lat="-3.1334270" lon="37.3083890">
    <ele>2716.1</ele>
    <time>2026-06-20T14:28:12Z</time>
   </trkpt>
   <trkpt lat="-3.1334270" lon="37.3083890">
    <ele>2716.1</ele>
    <time>2026-06-20T14:28:13Z</time>
   </trkpt>
   <trkpt lat="-3.1334260" lon="37.3083880">
    <ele>2716.2</ele>
    <time>2026-06-20T14:28:14Z</time>
   </trkpt>
   <trkpt lat="-3.1334270" lon="37.3083880">
    <ele>2716.2</ele>
    <time>2026-06-20T14:28:15Z</time>
   </trkpt>
   <trkpt lat="-3.1334260" lon="37.3083910">
    <ele>2716.3</ele>
    <time>2026-06-20T14:28:16Z</time>
   </trkpt>
   <trkpt lat="-3.1334260" lon="37.3083910">
    <ele>2716.3</ele>
    <time>2026-06-20T14:28:17Z</time>
   </trkpt>
   <trkpt lat="-3.1334260" lon="37.3083910">
    <ele>2716.3</ele>
    <time>2026-06-20T14:28:18Z</time>
   </trkpt>
   <trkpt lat="-3.1334270" lon="37.3083920">
    <ele>2716.3</ele>
    <time>2026-06-20T14:28:19Z</time>
   </trkpt>
   <trkpt lat="-3.1334280" lon="37.3083920">
    <ele>2716.3</ele>
    <time>2026-06-20T14:28:20Z</time>
   </trkpt>
   <trkpt lat="-3.1334320" lon="37.3083940">
    <ele>2716.4</ele>
    <time>2026-06-20T14:28:21Z</time>
   </trkpt>
   <trkpt lat="-3.1334250" lon="37.3083980">
    <ele>2716.6</ele>
    <time>2026-06-20T14:28:22Z</time>
   </trkpt>
   <trkpt lat="-3.1334250" lon="37.3083980">
    <ele>2716.6</ele>
    <time>2026-06-20T14:28:23Z</time>
   </trkpt>
   <trkpt lat="-3.1334230" lon="37.3083960">
    <ele>2716.7</ele>
    <time>2026-06-20T14:28:24Z</time>
   </trkpt>
   <trkpt lat="-3.1334200" lon="37.3083960">
    <ele>2716.7</ele>
    <time>2026-06-20T14:28:25Z</time>
   </trkpt>
   <trkpt lat="-3.1334180" lon="37.3083990">
    <ele>2716.8</ele>
    <time>2026-06-20T14:28:26Z</time>
   </trkpt>
   <trkpt lat="-3.1334180" lon="37.3083990">
    <ele>2716.8</ele>
    <time>2026-06-20T14:28:27Z</time>
   </trkpt>
   <trkpt lat="-3.1334160" lon="37.3083990">
    <ele>2716.9</ele>
    <time>2026-06-20T14:28:28Z</time>
   </trkpt>
   <trkpt lat="-3.1334140" lon="37.3084000">
    <ele>2716.9</ele>
    <time>2026-06-20T14:28:29Z</time>
   </trkpt>
   <trkpt lat="-3.1334140" lon="37.3083980">
    <ele>2717.0</ele>
    <time>2026-06-20T14:28:30Z</time>
   </trkpt>
   <trkpt lat="-3.1334130" lon="37.3083970">
    <ele>2717.0</ele>
    <time>2026-06-20T14:28:31Z</time>
   </trkpt>
   <trkpt lat="-3.1334110" lon="37.3083980">
    <ele>2717.0</ele>
    <time>2026-06-20T14:28:32Z</time>
   </trkpt>
   <trkpt lat="-3.1334100" lon="37.3083960">
    <ele>2717.1</ele>
    <time>2026-06-20T14:28:33Z</time>
   </trkpt>
   <trkpt lat="-3.1334080" lon="37.3083980">
    <ele>2717.1</ele>
    <time>2026-06-20T14:28:34Z</time>
   </trkpt>
   <trkpt lat="-3.1334060" lon="37.3084010">
    <ele>2717.2</ele>
    <time>2026-06-20T14:28:35Z</time>
   </trkpt>
   <trkpt lat="-3.1334030" lon="37.3084010">
    <ele>2717.3</ele>
    <time>2026-06-20T14:28:36Z</time>
   </trkpt>
   <trkpt lat="-3.1333990" lon="37.3084020">
    <ele>2717.4</ele>
    <time>2026-06-20T14:28:37Z</time>
   </trkpt>
   <trkpt lat="-3.1333980" lon="37.3084000">
    <ele>2717.4</ele>
    <time>2026-06-20T14:28:38Z</time>
   </trkpt>
   <trkpt lat="-3.1333950" lon="37.3084040">
    <ele>2717.6</ele>
    <time>2026-06-20T14:28:39Z</time>
   </trkpt>
   <trkpt lat="-3.1333940" lon="37.3084050">
    <ele>2717.6</ele>
    <time>2026-06-20T14:28:40Z</time>
   </trkpt>
   <trkpt lat="-3.1333920" lon="37.3084090">
    <ele>2717.7</ele>
    <time>2026-06-20T14:28:41Z</time>
   </trkpt>
   <trkpt lat="-3.1333920" lon="37.3084090">
    <ele>2717.7</ele>
    <time>2026-06-20T14:28:42Z</time>
   </trkpt>
   <trkpt lat="-3.1333940" lon="37.3084140">
    <ele>2717.8</ele>
    <time>2026-06-20T14:28:43Z</time>
   </trkpt>
   <trkpt lat="-3.1334030" lon="37.3084100">
    <ele>2718.0</ele>
    <time>2026-06-20T14:28:44Z</time>
   </trkpt>
   <trkpt lat="-3.1334030" lon="37.3084150">
    <ele>2718.1</ele>
    <time>2026-06-20T14:28:45Z</time>
   </trkpt>
   <trkpt lat="-3.1334030" lon="37.3084150">
    <ele>2718.1</ele>
    <time>2026-06-20T14:28:46Z</time>
   </trkpt>
   <trkpt lat="-3.1334080" lon="37.3084130">
    <ele>2718.3</ele>
    <time>2026-06-20T14:28:47Z</time>
   </trkpt>
   <trkpt lat="-3.1334060" lon="37.3084140">
    <ele>2718.3</ele>
    <time>2026-06-20T14:28:48Z</time>
   </trkpt>
   <trkpt lat="-3.1334120" lon="37.3084080">
    <ele>2718.5</ele>
    <time>2026-06-20T14:28:49Z</time>
   </trkpt>
   <trkpt lat="-3.1334140" lon="37.3084050">
    <ele>2718.6</ele>
    <time>2026-06-20T14:28:50Z</time>
   </trkpt>
   <trkpt lat="-3.1334150" lon="37.3084030">
    <ele>2718.6</ele>
    <time>2026-06-20T14:28:51Z</time>
   </trkpt>
   <trkpt lat="-3.1334150" lon="37.3084010">
    <ele>2718.7</ele>
    <time>2026-06-20T14:28:52Z</time>
   </trkpt>
   <trkpt lat="-3.1334180" lon="37.3083990">
    <ele>2718.8</ele>
    <time>2026-06-20T14:28:53Z</time>
   </trkpt>
   <trkpt lat="-3.1334190" lon="37.3084010">
    <ele>2718.8</ele>
    <time>2026-06-20T14:28:54Z</time>
   </trkpt>
   <trkpt lat="-3.1334190" lon="37.3083990">
    <ele>2718.9</ele>
    <time>2026-06-20T14:28:55Z</time>
   </trkpt>
   <trkpt lat="-3.1334190" lon="37.3084010">
    <ele>2718.9</ele>
    <time>2026-06-20T14:28:56Z</time>
   </trkpt>
   <trkpt lat="-3.1334170" lon="37.3083990">
    <ele>2719.0</ele>
    <time>2026-06-20T14:28:57Z</time>
   </trkpt>
   <trkpt lat="-3.1334150" lon="37.3084000">
    <ele>2719.0</ele>
    <time>2026-06-20T14:28:58Z</time>
   </trkpt>
   <trkpt lat="-3.1334150" lon="37.3084030">
    <ele>2719.1</ele>
    <time>2026-06-20T14:28:59Z</time>
   </trkpt>
   <trkpt lat="-3.1334180" lon="37.3084090">
    <ele>2719.2</ele>
    <time>2026-06-20T14:29:00Z</time>
   </trkpt>
   <trkpt lat="-3.1334210" lon="37.3084050">
    <ele>2719.3</ele>
    <time>2026-06-20T14:29:01Z</time>
   </trkpt>
   <trkpt lat="-3.1334190" lon="37.3084040">
    <ele>2719.4</ele>
    <time>2026-06-20T14:29:02Z</time>
   </trkpt>
   <trkpt lat="-3.1334160" lon="37.3084040">
    <ele>2719.5</ele>
    <time>2026-06-20T14:29:03Z</time>
   </trkpt>
   <trkpt lat="-3.1334160" lon="37.3084030">
    <ele>2719.5</ele>
    <time>2026-06-20T14:29:04Z</time>
   </trkpt>
   <trkpt lat="-3.1334200" lon="37.3084020">
    <ele>2719.6</ele>
    <time>2026-06-20T14:29:05Z</time>
   </trkpt>
   <trkpt lat="-3.1334220" lon="37.3084020">
    <ele>2719.6</ele>
    <time>2026-06-20T14:29:06Z</time>
   </trkpt>
   <trkpt lat="-3.1334240" lon="37.3084030">
    <ele>2719.7</ele>
    <time>2026-06-20T14:29:07Z</time>
   </trkpt>
   <trkpt lat="-3.1334240" lon="37.3084030">
    <ele>2719.7</ele>
    <time>2026-06-20T14:29:08Z</time>
   </trkpt>
   <trkpt lat="-3.1334240" lon="37.3084030">
    <ele>2719.7</ele>
    <time>2026-06-20T14:29:09Z</time>
   </trkpt>
   <trkpt lat="-3.1334240" lon="37.3084030">
    <ele>2719.7</ele>
    <time>2026-06-20T14:29:10Z</time>
   </trkpt>
   <trkpt lat="-3.1334240" lon="37.3084030">
    <ele>2719.7</ele>
    <time>2026-06-20T14:29:11Z</time>
   </trkpt>
   <trkpt lat="-3.1334290" lon="37.3084020">
    <ele>2719.8</ele>
    <time>2026-06-20T14:29:12Z</time>
   </trkpt>
   <trkpt lat="-3.1334300" lon="37.3084020">
    <ele>2719.8</ele>
    <time>2026-06-20T14:29:13Z</time>
   </trkpt>
   <trkpt lat="-3.1334280" lon="37.3084020">
    <ele>2719.8</ele>
    <time>2026-06-20T14:29:14Z</time>
   </trkpt>
   <trkpt lat="-3.1334290" lon="37.3084000">
    <ele>2719.9</ele>
    <time>2026-06-20T14:29:15Z</time>
   </trkpt>
   <trkpt lat="-3.1334300" lon="37.3083990">
    <ele>2719.9</ele>
    <time>2026-06-20T14:29:16Z</time>
   </trkpt>
   <trkpt lat="-3.1334320" lon="37.3083970">
    <ele>2720.0</ele>
    <time>2026-06-20T14:29:17Z</time>
   </trkpt>
   <trkpt lat="-3.1334280" lon="37.3083980">
    <ele>2720.1</ele>
    <time>2026-06-20T14:29:18Z</time>
   </trkpt>
   <trkpt lat="-3.1334280" lon="37.3083980">
    <ele>2720.1</ele>
    <time>2026-06-20T14:29:19Z</time>
   </trkpt>
   <trkpt lat="-3.1334290" lon="37.3083950">
    <ele>2720.1</ele>
    <time>2026-06-20T14:29:20Z</time>
   </trkpt>
   <trkpt lat="-3.1334300" lon="37.3083940">
    <ele>2720.2</ele>
    <time>2026-06-20T14:29:21Z</time>
   </trkpt>
   <trkpt lat="-3.1334300" lon="37.3083920">
    <ele>2720.2</ele>
    <time>2026-06-20T14:29:22Z</time>
   </trkpt>
   <trkpt lat="-3.1334330" lon="37.3083890">
    <ele>2720.3</ele>
    <time>2026-06-20T14:29:23Z</time>
   </trkpt>
   <trkpt lat="-3.1334330" lon="37.3083890">
    <ele>2720.3</ele>
    <time>2026-06-20T14:29:24Z</time>
   </trkpt>
   <trkpt lat="-3.1334330" lon="37.3083890">
    <ele>2720.3</ele>
    <time>2026-06-20T14:29:25Z</time>
   </trkpt>
   <trkpt lat="-3.1334330" lon="37.3083890">
    <ele>2720.3</ele>
    <time>2026-06-20T14:29:26Z</time>
   </trkpt>
   <trkpt lat="-3.1334330" lon="37.3083890">
    <ele>2720.3</ele>
    <time>2026-06-20T14:29:27Z</time>
   </trkpt>
   <trkpt lat="-3.1334340" lon="37.3083860">
    <ele>2720.4</ele>
    <time>2026-06-20T14:29:28Z</time>
   </trkpt>
   <trkpt lat="-3.1334340" lon="37.3083860">
    <ele>2720.4</ele>
    <time>2026-06-20T14:29:29Z</time>
   </trkpt>
   <trkpt lat="-3.1334340" lon="37.3083860">
    <ele>2720.4</ele>
    <time>2026-06-20T14:29:30Z</time>
   </trkpt>
   <trkpt lat="-3.1334340" lon="37.3083860">
    <ele>2720.4</ele>
    <time>2026-06-20T14:29:31Z</time>
   </trkpt>
   <trkpt lat="-3.1334340" lon="37.3083860">
    <ele>2720.4</ele>
    <time>2026-06-20T14:29:32Z</time>
   </trkpt>
   <trkpt lat="-3.1334330" lon="37.3083830">
    <ele>2720.4</ele>
    <time>2026-06-20T14:29:33Z</time>
   </trkpt>
   <trkpt lat="-3.1334330" lon="37.3083830">
    <ele>2720.4</ele>
    <time>2026-06-20T14:29:34Z</time>
   </trkpt>
   <trkpt lat="-3.1334330" lon="37.3083820">
    <ele>2720.5</ele>
    <time>2026-06-20T14:29:35Z</time>
   </trkpt>
   <trkpt lat="-3.1334330" lon="37.3083820">
    <ele>2720.5</ele>
    <time>2026-06-20T14:29:36Z</time>
   </trkpt>
   <trkpt lat="-3.1334320" lon="37.3083820">
    <ele>2720.5</ele>
    <time>2026-06-20T14:29:37Z</time>
   </trkpt>
   <trkpt lat="-3.1334330" lon="37.3083810">
    <ele>2720.5</ele>
    <time>2026-06-20T14:29:38Z</time>
   </trkpt>
   <trkpt lat="-3.1334320" lon="37.3083810">
    <ele>2720.5</ele>
    <time>2026-06-20T14:29:39Z</time>
   </trkpt>
   <trkpt lat="-3.1334320" lon="37.3083810">
    <ele>2720.5</ele>
    <time>2026-06-20T14:29:40Z</time>
   </trkpt>
   <trkpt lat="-3.1334360" lon="37.3083800">
    <ele>2720.6</ele>
    <time>2026-06-20T14:29:41Z</time>
   </trkpt>
   <trkpt lat="-3.1334370" lon="37.3083800">
    <ele>2720.6</ele>
    <time>2026-06-20T14:29:42Z</time>
   </trkpt>
   <trkpt lat="-3.1334350" lon="37.3083810">
    <ele>2720.7</ele>
    <time>2026-06-20T14:29:43Z</time>
   </trkpt>
   <trkpt lat="-3.1334350" lon="37.3083810">
    <ele>2720.7</ele>
    <time>2026-06-20T14:29:44Z</time>
   </trkpt>
   <trkpt lat="-3.1334350" lon="37.3083810">
    <ele>2720.7</ele>
    <time>2026-06-20T14:29:45Z</time>
   </trkpt>
   <trkpt lat="-3.1334350" lon="37.3083810">
    <ele>2720.7</ele>
    <time>2026-06-20T14:29:46Z</time>
   </trkpt>
   <trkpt lat="-3.1334340" lon="37.3083810">
    <ele>2720.7</ele>
    <time>2026-06-20T14:29:47Z</time>
   </trkpt>
   <trkpt lat="-3.1334340" lon="37.3083810">
    <ele>2720.7</ele>
    <time>2026-06-20T14:29:48Z</time>
   </trkpt>
   <trkpt lat="-3.1334340" lon="37.3083800">
    <ele>2720.7</ele>
    <time>2026-06-20T14:29:49Z</time>
   </trkpt>
   <trkpt lat="-3.1334340" lon="37.3083800">
    <ele>2720.7</ele>
    <time>2026-06-20T14:29:50Z</time>
   </trkpt>
   <trkpt lat="-3.1334340" lon="37.3083800">
    <ele>2720.7</ele>
    <time>2026-06-20T14:29:51Z</time>
   </trkpt>
   <trkpt lat="-3.1334340" lon="37.3083800">
    <ele>2720.7</ele>
    <time>2026-06-20T14:29:52Z</time>
   </trkpt>
   <trkpt lat="-3.1334330" lon="37.3083810">
    <ele>2720.7</ele>
    <time>2026-06-20T14:29:53Z</time>
   </trkpt>
   <trkpt lat="-3.1334330" lon="37.3083810">
    <ele>2720.7</ele>
    <time>2026-06-20T14:29:54Z</time>
   </trkpt>
   <trkpt lat="-3.1334340" lon="37.3083800">
    <ele>2720.8</ele>
    <time>2026-06-20T14:29:55Z</time>
   </trkpt>
   <trkpt lat="-3.1334340" lon="37.3083800">
    <ele>2720.8</ele>
    <time>2026-06-20T14:29:56Z</time>
   </trkpt>
   <trkpt lat="-3.1334330" lon="37.3083780">
    <ele>2720.8</ele>
    <time>2026-06-20T14:29:57Z</time>
   </trkpt>
   <trkpt lat="-3.1334330" lon="37.3083800">
    <ele>2720.9</ele>
    <time>2026-06-20T14:29:58Z</time>
   </trkpt>
   <trkpt lat="-3.1334330" lon="37.3083780">
    <ele>2720.9</ele>
    <time>2026-06-20T14:29:59Z</time>
   </trkpt>
   <trkpt lat="-3.1334320" lon="37.3083780">
    <ele>2720.9</ele>
    <time>2026-06-20T14:30:00Z</time>
   </trkpt>
   <trkpt lat="-3.1334310" lon="37.3083780">
    <ele>2720.9</ele>
    <time>2026-06-20T14:30:01Z</time>
   </trkpt>
   <trkpt lat="-3.1334310" lon="37.3083780">
    <ele>2720.9</ele>
    <time>2026-06-20T14:30:02Z</time>
   </trkpt>
   <trkpt lat="-3.1334310" lon="37.3083780">
    <ele>2720.9</ele>
    <time>2026-06-20T14:30:03Z</time>
   </trkpt>
   <trkpt lat="-3.1334310" lon="37.3083780">
    <ele>2720.9</ele>
    <time>2026-06-20T14:30:04Z</time>
   </trkpt>
   <trkpt lat="-3.1334310" lon="37.3083800">
    <ele>2721.0</ele>
    <time>2026-06-20T14:30:05Z</time>
   </trkpt>
   <trkpt lat="-3.1334300" lon="37.3083800">
    <ele>2721.0</ele>
    <time>2026-06-20T14:30:06Z</time>
   </trkpt>
   <trkpt lat="-3.1334290" lon="37.3083790">
    <ele>2721.0</ele>
    <time>2026-06-20T14:30:07Z</time>
   </trkpt>
   <trkpt lat="-3.1334290" lon="37.3083800">
    <ele>2721.1</ele>
    <time>2026-06-20T14:30:08Z</time>
   </trkpt>
   <trkpt lat="-3.1334300" lon="37.3083800">
    <ele>2721.1</ele>
    <time>2026-06-20T14:30:09Z</time>
   </trkpt>
   <trkpt lat="-3.1334300" lon="37.3083800">
    <ele>2721.1</ele>
    <time>2026-06-20T14:30:10Z</time>
   </trkpt>
   <trkpt lat="-3.1334290" lon="37.3083830">
    <ele>2721.1</ele>
    <time>2026-06-20T14:30:11Z</time>
   </trkpt>
   <trkpt lat="-3.1334290" lon="37.3083820">
    <ele>2721.2</ele>
    <time>2026-06-20T14:30:12Z</time>
   </trkpt>
   <trkpt lat="-3.1334290" lon="37.3083820">
    <ele>2721.2</ele>
    <time>2026-06-20T14:30:13Z</time>
   </trkpt>
   <trkpt lat="-3.1334270" lon="37.3083850">
    <ele>2721.2</ele>
    <time>2026-06-20T14:30:14Z</time>
   </trkpt>
   <trkpt lat="-3.1334260" lon="37.3083860">
    <ele>2721.3</ele>
    <time>2026-06-20T14:30:15Z</time>
   </trkpt>
   <trkpt lat="-3.1334260" lon="37.3083870">
    <ele>2721.3</ele>
    <time>2026-06-20T14:30:16Z</time>
   </trkpt>
   <trkpt lat="-3.1334240" lon="37.3083880">
    <ele>2721.3</ele>
    <time>2026-06-20T14:30:17Z</time>
   </trkpt>
   <trkpt lat="-3.1334220" lon="37.3083880">
    <ele>2721.4</ele>
    <time>2026-06-20T14:30:18Z</time>
   </trkpt>
   <trkpt lat="-3.1334220" lon="37.3083880">
    <ele>2721.4</ele>
    <time>2026-06-20T14:30:19Z</time>
   </trkpt>
   <trkpt lat="-3.1334220" lon="37.3083890">
    <ele>2721.4</ele>
    <time>2026-06-20T14:30:20Z</time>
   </trkpt>
   <trkpt lat="-3.1334240" lon="37.3083880">
    <ele>2721.4</ele>
    <time>2026-06-20T14:30:21Z</time>
   </trkpt>
   <trkpt lat="-3.1334240" lon="37.3083880">
    <ele>2721.4</ele>
    <time>2026-06-20T14:30:22Z</time>
   </trkpt>
   <trkpt lat="-3.1334230" lon="37.3083880">
    <ele>2721.5</ele>
    <time>2026-06-20T14:30:23Z</time>
   </trkpt>
   <trkpt lat="-3.1334230" lon="37.3083880">
    <ele>2721.5</ele>
    <time>2026-06-20T14:30:24Z</time>
   </trkpt>
   <trkpt lat="-3.1334230" lon="37.3083880">
    <ele>2721.5</ele>
    <time>2026-06-20T14:30:25Z</time>
   </trkpt>
   <trkpt lat="-3.1334270" lon="37.3083890">
    <ele>2721.5</ele>
    <time>2026-06-20T14:30:26Z</time>
   </trkpt>
   <trkpt lat="-3.1334270" lon="37.3083890">
    <ele>2721.5</ele>
    <time>2026-06-20T14:30:27Z</time>
   </trkpt>
   <trkpt lat="-3.1334280" lon="37.3083880">
    <ele>2721.6</ele>
    <time>2026-06-20T14:30:28Z</time>
   </trkpt>
   <trkpt lat="-3.1334280" lon="37.3083910">
    <ele>2721.6</ele>
    <time>2026-06-20T14:30:29Z</time>
   </trkpt>
   <trkpt lat="-3.1334280" lon="37.3083900">
    <ele>2721.6</ele>
    <time>2026-06-20T14:30:30Z</time>
   </trkpt>
   <trkpt lat="-3.1334270" lon="37.3083930">
    <ele>2721.7</ele>
    <time>2026-06-20T14:30:31Z</time>
   </trkpt>
   <trkpt lat="-3.1334270" lon="37.3083920">
    <ele>2721.7</ele>
    <time>2026-06-20T14:30:32Z</time>
   </trkpt>
   <trkpt lat="-3.1334280" lon="37.3083920">
    <ele>2721.8</ele>
    <time>2026-06-20T14:30:33Z</time>
   </trkpt>
   <trkpt lat="-3.1334280" lon="37.3083920">
    <ele>2721.8</ele>
    <time>2026-06-20T14:30:34Z</time>
   </trkpt>
   <trkpt lat="-3.1334290" lon="37.3083930">
    <ele>2721.8</ele>
    <time>2026-06-20T14:30:35Z</time>
   </trkpt>
   <trkpt lat="-3.1334280" lon="37.3083930">
    <ele>2721.8</ele>
    <time>2026-06-20T14:30:36Z</time>
   </trkpt>
   <trkpt lat="-3.1334280" lon="37.3083930">
    <ele>2721.8</ele>
    <time>2026-06-20T14:30:37Z</time>
   </trkpt>
   <trkpt lat="-3.1334280" lon="37.3083930">
    <ele>2721.8</ele>
    <time>2026-06-20T14:30:38Z</time>
   </trkpt>
   <trkpt lat="-3.1334270" lon="37.3083930">
    <ele>2721.8</ele>
    <time>2026-06-20T14:30:39Z</time>
   </trkpt>
   <trkpt lat="-3.1334260" lon="37.3083940">
    <ele>2721.8</ele>
    <time>2026-06-20T14:30:40Z</time>
   </trkpt>
   <trkpt lat="-3.1334280" lon="37.3083950">
    <ele>2721.9</ele>
    <time>2026-06-20T14:30:41Z</time>
   </trkpt>
   <trkpt lat="-3.1334310" lon="37.3083960">
    <ele>2721.9</ele>
    <time>2026-06-20T14:30:42Z</time>
   </trkpt>
   <trkpt lat="-3.1334290" lon="37.3083940">
    <ele>2722.0</ele>
    <time>2026-06-20T14:30:43Z</time>
   </trkpt>
   <trkpt lat="-3.1334300" lon="37.3083980">
    <ele>2722.1</ele>
    <time>2026-06-20T14:30:44Z</time>
   </trkpt>
   <trkpt lat="-3.1334300" lon="37.3083960">
    <ele>2722.1</ele>
    <time>2026-06-20T14:30:45Z</time>
   </trkpt>
   <trkpt lat="-3.1334300" lon="37.3083970">
    <ele>2722.1</ele>
    <time>2026-06-20T14:30:46Z</time>
   </trkpt>
   <trkpt lat="-3.1334280" lon="37.3084010">
    <ele>2722.2</ele>
    <time>2026-06-20T14:30:47Z</time>
   </trkpt>
   <trkpt lat="-3.1334310" lon="37.3084020">
    <ele>2722.3</ele>
    <time>2026-06-20T14:30:48Z</time>
   </trkpt>
   <trkpt lat="-3.1334300" lon="37.3084030">
    <ele>2722.3</ele>
    <time>2026-06-20T14:30:49Z</time>
   </trkpt>
   <trkpt lat="-3.1334290" lon="37.3084030">
    <ele>2722.3</ele>
    <time>2026-06-20T14:30:50Z</time>
   </trkpt>
   <trkpt lat="-3.1334300" lon="37.3084080">
    <ele>2722.4</ele>
    <time>2026-06-20T14:30:51Z</time>
   </trkpt>
   <trkpt lat="-3.1334280" lon="37.3084080">
    <ele>2722.4</ele>
    <time>2026-06-20T14:30:52Z</time>
   </trkpt>
   <trkpt lat="-3.1334270" lon="37.3084110">
    <ele>2722.5</ele>
    <time>2026-06-20T14:30:53Z</time>
   </trkpt>
   <trkpt lat="-3.1334210" lon="37.3084140">
    <ele>2722.6</ele>
    <time>2026-06-20T14:30:54Z</time>
   </trkpt>
   <trkpt lat="-3.1334170" lon="37.3084130">
    <ele>2722.7</ele>
    <time>2026-06-20T14:30:55Z</time>
   </trkpt>
   <trkpt lat="-3.1334170" lon="37.3084130">
    <ele>2722.7</ele>
    <time>2026-06-20T14:30:56Z</time>
   </trkpt>
   <trkpt lat="-3.1334170" lon="37.3084130">
    <ele>2722.7</ele>
    <time>2026-06-20T14:30:57Z</time>
   </trkpt>
   <trkpt lat="-3.1334150" lon="37.3084150">
    <ele>2722.8</ele>
    <time>2026-06-20T14:30:58Z</time>
   </trkpt>
   <trkpt lat="-3.1334190" lon="37.3084120">
    <ele>2722.8</ele>
    <time>2026-06-20T14:30:59Z</time>
   </trkpt>
   <trkpt lat="-3.1334190" lon="37.3084120">
    <ele>2722.8</ele>
    <time>2026-06-20T14:31:00Z</time>
   </trkpt>
   <trkpt lat="-3.1334190" lon="37.3084120">
    <ele>2722.8</ele>
    <time>2026-06-20T14:31:01Z</time>
   </trkpt>
   <trkpt lat="-3.1334190" lon="37.3084120">
    <ele>2722.8</ele>
    <time>2026-06-20T14:31:02Z</time>
   </trkpt>
   <trkpt lat="-3.1334190" lon="37.3084120">
    <ele>2722.8</ele>
    <time>2026-06-20T14:31:03Z</time>
   </trkpt>
   <trkpt lat="-3.1334190" lon="37.3084120">
    <ele>2722.8</ele>
    <time>2026-06-20T14:31:04Z</time>
   </trkpt>
   <trkpt lat="-3.1334190" lon="37.3084120">
    <ele>2722.8</ele>
    <time>2026-06-20T14:31:05Z</time>
   </trkpt>
   <trkpt lat="-3.1334150" lon="37.3084130">
    <ele>2722.9</ele>
    <time>2026-06-20T14:31:06Z</time>
   </trkpt>
   <trkpt lat="-3.1334150" lon="37.3084130">
    <ele>2722.9</ele>
    <time>2026-06-20T14:31:07Z</time>
   </trkpt>
   <trkpt lat="-3.1334150" lon="37.3084130">
    <ele>2722.9</ele>
    <time>2026-06-20T14:31:08Z</time>
   </trkpt>
   <trkpt lat="-3.1334150" lon="37.3084130">
    <ele>2722.9</ele>
    <time>2026-06-20T14:31:09Z</time>
   </trkpt>
   <trkpt lat="-3.1334150" lon="37.3084130">
    <ele>2722.9</ele>
    <time>2026-06-20T14:31:10Z</time>
   </trkpt>
   <trkpt lat="-3.1334150" lon="37.3084150">
    <ele>2723.0</ele>
    <time>2026-06-20T14:31:11Z</time>
   </trkpt>
   <trkpt lat="-3.1334150" lon="37.3084150">
    <ele>2723.0</ele>
    <time>2026-06-20T14:31:12Z</time>
   </trkpt>
   <trkpt lat="-3.1334150" lon="37.3084150">
    <ele>2723.0</ele>
    <time>2026-06-20T14:31:13Z</time>
   </trkpt>
   <trkpt lat="-3.1334100" lon="37.3084170">
    <ele>2723.1</ele>
    <time>2026-06-20T14:31:14Z</time>
   </trkpt>
   <trkpt lat="-3.1334090" lon="37.3084250">
    <ele>2723.2</ele>
    <time>2026-06-20T14:31:15Z</time>
   </trkpt>
   <trkpt lat="-3.1334010" lon="37.3084340">
    <ele>2723.4</ele>
    <time>2026-06-20T14:31:16Z</time>
   </trkpt>
   <trkpt lat="-3.1334000" lon="37.3084400">
    <ele>2723.5</ele>
    <time>2026-06-20T14:31:17Z</time>
   </trkpt>
   <trkpt lat="-3.1334020" lon="37.3084430">
    <ele>2723.5</ele>
    <time>2026-06-20T14:31:18Z</time>
   </trkpt>
   <trkpt lat="-3.1333970" lon="37.3084470">
    <ele>2723.6</ele>
    <time>2026-06-20T14:31:19Z</time>
   </trkpt>
   <trkpt lat="-3.1334000" lon="37.3084510">
    <ele>2723.7</ele>
    <time>2026-06-20T14:31:20Z</time>
   </trkpt>
   <trkpt lat="-3.1333970" lon="37.3084550">
    <ele>2723.8</ele>
    <time>2026-06-20T14:31:21Z</time>
   </trkpt>
   <trkpt lat="-3.1333900" lon="37.3084560">
    <ele>2723.9</ele>
    <time>2026-06-20T14:31:22Z</time>
   </trkpt>
   <trkpt lat="-3.1333820" lon="37.3084600">
    <ele>2724.0</ele>
    <time>2026-06-20T14:31:23Z</time>
   </trkpt>
   <trkpt lat="-3.1333760" lon="37.3084670">
    <ele>2724.2</ele>
    <time>2026-06-20T14:31:24Z</time>
   </trkpt>
   <trkpt lat="-3.1333730" lon="37.3084690">
    <ele>2724.2</ele>
    <time>2026-06-20T14:31:25Z</time>
   </trkpt>
   <trkpt lat="-3.1333730" lon="37.3084720">
    <ele>2724.3</ele>
    <time>2026-06-20T14:31:26Z</time>
   </trkpt>
   <trkpt lat="-3.1333630" lon="37.3084760">
    <ele>2724.4</ele>
    <time>2026-06-20T14:31:27Z</time>
   </trkpt>
   <trkpt lat="-3.1333600" lon="37.3084800">
    <ele>2724.5</ele>
    <time>2026-06-20T14:31:28Z</time>
   </trkpt>
   <trkpt lat="-3.1333560" lon="37.3084790">
    <ele>2724.5</ele>
    <time>2026-06-20T14:31:29Z</time>
   </trkpt>
   <trkpt lat="-3.1333590" lon="37.3084820">
    <ele>2724.6</ele>
    <time>2026-06-20T14:31:30Z</time>
   </trkpt>
   <trkpt lat="-3.1333590" lon="37.3084850">
    <ele>2724.6</ele>
    <time>2026-06-20T14:31:31Z</time>
   </trkpt>
   <trkpt lat="-3.1333540" lon="37.3084860">
    <ele>2724.7</ele>
    <time>2026-06-20T14:31:32Z</time>
   </trkpt>
   <trkpt lat="-3.1333570" lon="37.3084870">
    <ele>2724.7</ele>
    <time>2026-06-20T14:31:33Z</time>
   </trkpt>
   <trkpt lat="-3.1333560" lon="37.3084890">
    <ele>2724.7</ele>
    <time>2026-06-20T14:31:34Z</time>
   </trkpt>
   <trkpt lat="-3.1333480" lon="37.3084840">
    <ele>2724.9</ele>
    <time>2026-06-20T14:31:35Z</time>
   </trkpt>
   <trkpt lat="-3.1333440" lon="37.3084880">
    <ele>2724.9</ele>
    <time>2026-06-20T14:31:36Z</time>
   </trkpt>
   <trkpt lat="-3.1333450" lon="37.3084890">
    <ele>2725.0</ele>
    <time>2026-06-20T14:31:37Z</time>
   </trkpt>
   <trkpt lat="-3.1333470" lon="37.3084880">
    <ele>2725.0</ele>
    <time>2026-06-20T14:31:38Z</time>
   </trkpt>
   <trkpt lat="-3.1333430" lon="37.3084920">
    <ele>2725.1</ele>
    <time>2026-06-20T14:31:39Z</time>
   </trkpt>
   <trkpt lat="-3.1333370" lon="37.3084990">
    <ele>2725.2</ele>
    <time>2026-06-20T14:31:40Z</time>
   </trkpt>
   <trkpt lat="-3.1333390" lon="37.3084960">
    <ele>2725.2</ele>
    <time>2026-06-20T14:31:41Z</time>
   </trkpt>
   <trkpt lat="-3.1333280" lon="37.3084970">
    <ele>2725.3</ele>
    <time>2026-06-20T14:31:42Z</time>
   </trkpt>
   <trkpt lat="-3.1333210" lon="37.3085000">
    <ele>2725.4</ele>
    <time>2026-06-20T14:31:43Z</time>
   </trkpt>
   <trkpt lat="-3.1333150" lon="37.3085000">
    <ele>2725.5</ele>
    <time>2026-06-20T14:31:44Z</time>
   </trkpt>
   <trkpt lat="-3.1333100" lon="37.3085030">
    <ele>2725.6</ele>
    <time>2026-06-20T14:31:45Z</time>
   </trkpt>
   <trkpt lat="-3.1333060" lon="37.3085030">
    <ele>2725.6</ele>
    <time>2026-06-20T14:31:46Z</time>
   </trkpt>
   <trkpt lat="-3.1332870" lon="37.3085250">
    <ele>2725.9</ele>
    <time>2026-06-20T14:31:47Z</time>
   </trkpt>
   <trkpt lat="-3.1332900" lon="37.3085220">
    <ele>2726.0</ele>
    <time>2026-06-20T14:31:48Z</time>
   </trkpt>
   <trkpt lat="-3.1332910" lon="37.3085210">
    <ele>2726.0</ele>
    <time>2026-06-20T14:31:49Z</time>
   </trkpt>
   <trkpt lat="-3.1332890" lon="37.3085210">
    <ele>2726.0</ele>
    <time>2026-06-20T14:31:50Z</time>
   </trkpt>
   <trkpt lat="-3.1332810" lon="37.3085320">
    <ele>2726.2</ele>
    <time>2026-06-20T14:31:51Z</time>
   </trkpt>
   <trkpt lat="-3.1332780" lon="37.3085320">
    <ele>2726.2</ele>
    <time>2026-06-20T14:31:52Z</time>
   </trkpt>
   <trkpt lat="-3.1332660" lon="37.3085410">
    <ele>2726.4</ele>
    <time>2026-06-20T14:31:53Z</time>
   </trkpt>
   <trkpt lat="-3.1332620" lon="37.3085400">
    <ele>2726.4</ele>
    <time>2026-06-20T14:31:54Z</time>
   </trkpt>
   <trkpt lat="-3.1332640" lon="37.3085380">
    <ele>2726.4</ele>
    <time>2026-06-20T14:31:55Z</time>
   </trkpt>
   <trkpt lat="-3.1332620" lon="37.3085450">
    <ele>2726.5</ele>
    <time>2026-06-20T14:31:56Z</time>
   </trkpt>
   <trkpt lat="-3.1332580" lon="37.3085460">
    <ele>2726.6</ele>
    <time>2026-06-20T14:31:57Z</time>
   </trkpt>
   <trkpt lat="-3.1332570" lon="37.3085470">
    <ele>2726.6</ele>
    <time>2026-06-20T14:31:58Z</time>
   </trkpt>
   <trkpt lat="-3.1332600" lon="37.3085480">
    <ele>2726.6</ele>
    <time>2026-06-20T14:31:59Z</time>
   </trkpt>
   <trkpt lat="-3.1332570" lon="37.3085510">
    <ele>2726.6</ele>
    <time>2026-06-20T14:32:00Z</time>
   </trkpt>
   <trkpt lat="-3.1332560" lon="37.3085550">
    <ele>2726.7</ele>
    <time>2026-06-20T14:32:01Z</time>
   </trkpt>
   <trkpt lat="-3.1332580" lon="37.3085570">
    <ele>2726.7</ele>
    <time>2026-06-20T14:32:02Z</time>
   </trkpt>
   <trkpt lat="-3.1332500" lon="37.3085620">
    <ele>2726.8</ele>
    <time>2026-06-20T14:32:03Z</time>
   </trkpt>
   <trkpt lat="-3.1332450" lon="37.3085620">
    <ele>2726.9</ele>
    <time>2026-06-20T14:32:04Z</time>
   </trkpt>
   <trkpt lat="-3.1332410" lon="37.3085670">
    <ele>2726.9</ele>
    <time>2026-06-20T14:32:05Z</time>
   </trkpt>
   <trkpt lat="-3.1332360" lon="37.3085690">
    <ele>2727.0</ele>
    <time>2026-06-20T14:32:06Z</time>
   </trkpt>
   <trkpt lat="-3.1332340" lon="37.3085740">
    <ele>2727.0</ele>
    <time>2026-06-20T14:32:07Z</time>
   </trkpt>
   <trkpt lat="-3.1332300" lon="37.3085750">
    <ele>2727.1</ele>
    <time>2026-06-20T14:32:08Z</time>
   </trkpt>
   <trkpt lat="-3.1332250" lon="37.3085770">
    <ele>2727.1</ele>
    <time>2026-06-20T14:32:09Z</time>
   </trkpt>
   <trkpt lat="-3.1332240" lon="37.3085800">
    <ele>2727.1</ele>
    <time>2026-06-20T14:32:10Z</time>
   </trkpt>
   <trkpt lat="-3.1332220" lon="37.3085830">
    <ele>2727.2</ele>
    <time>2026-06-20T14:32:11Z</time>
   </trkpt>
   <trkpt lat="-3.1332130" lon="37.3085880">
    <ele>2727.3</ele>
    <time>2026-06-20T14:32:12Z</time>
   </trkpt>
   <trkpt lat="-3.1332100" lon="37.3085880">
    <ele>2727.3</ele>
    <time>2026-06-20T14:32:13Z</time>
   </trkpt>
   <trkpt lat="-3.1332090" lon="37.3085910">
    <ele>2727.3</ele>
    <time>2026-06-20T14:32:14Z</time>
   </trkpt>
   <trkpt lat="-3.1332040" lon="37.3085950">
    <ele>2727.4</ele>
    <time>2026-06-20T14:32:15Z</time>
   </trkpt>
   <trkpt lat="-3.1332010" lon="37.3086040">
    <ele>2727.5</ele>
    <time>2026-06-20T14:32:16Z</time>
   </trkpt>
   <trkpt lat="-3.1332030" lon="37.3086110">
    <ele>2727.5</ele>
    <time>2026-06-20T14:32:17Z</time>
   </trkpt>
   <trkpt lat="-3.1331990" lon="37.3086180">
    <ele>2727.6</ele>
    <time>2026-06-20T14:32:18Z</time>
   </trkpt>
   <trkpt lat="-3.1331970" lon="37.3086190">
    <ele>2727.6</ele>
    <time>2026-06-20T14:32:19Z</time>
   </trkpt>
   <trkpt lat="-3.1331930" lon="37.3086210">
    <ele>2727.7</ele>
    <time>2026-06-20T14:32:20Z</time>
   </trkpt>
   <trkpt lat="-3.1331960" lon="37.3086280">
    <ele>2727.7</ele>
    <time>2026-06-20T14:32:21Z</time>
   </trkpt>
   <trkpt lat="-3.1331950" lon="37.3086350">
    <ele>2727.8</ele>
    <time>2026-06-20T14:32:22Z</time>
   </trkpt>
   <trkpt lat="-3.1331900" lon="37.3086410">
    <ele>2727.9</ele>
    <time>2026-06-20T14:32:23Z</time>
   </trkpt>
   <trkpt lat="-3.1331880" lon="37.3086480">
    <ele>2728.0</ele>
    <time>2026-06-20T14:32:24Z</time>
   </trkpt>
   <trkpt lat="-3.1331880" lon="37.3086560">
    <ele>2728.0</ele>
    <time>2026-06-20T14:32:25Z</time>
   </trkpt>
   <trkpt lat="-3.1331850" lon="37.3086600">
    <ele>2728.1</ele>
    <time>2026-06-20T14:32:26Z</time>
   </trkpt>
   <trkpt lat="-3.1331810" lon="37.3086650">
    <ele>2728.1</ele>
    <time>2026-06-20T14:32:27Z</time>
   </trkpt>
   <trkpt lat="-3.1331750" lon="37.3086670">
    <ele>2728.2</ele>
    <time>2026-06-20T14:32:28Z</time>
   </trkpt>
   <trkpt lat="-3.1331740" lon="37.3086710">
    <ele>2728.2</ele>
    <time>2026-06-20T14:32:29Z</time>
   </trkpt>
   <trkpt lat="-3.1331740" lon="37.3086730">
    <ele>2728.2</ele>
    <time>2026-06-20T14:32:30Z</time>
   </trkpt>
   <trkpt lat="-3.1331780" lon="37.3086780">
    <ele>2728.3</ele>
    <time>2026-06-20T14:32:31Z</time>
   </trkpt>
   <trkpt lat="-3.1331770" lon="37.3086840">
    <ele>2728.4</ele>
    <time>2026-06-20T14:32:32Z</time>
   </trkpt>
   <trkpt lat="-3.1331760" lon="37.3086890">
    <ele>2728.4</ele>
    <time>2026-06-20T14:32:33Z</time>
   </trkpt>
   <trkpt lat="-3.1331770" lon="37.3086890">
    <ele>2728.4</ele>
    <time>2026-06-20T14:32:34Z</time>
   </trkpt>
   <trkpt lat="-3.1331770" lon="37.3086940">
    <ele>2728.5</ele>
    <time>2026-06-20T14:32:35Z</time>
   </trkpt>
   <trkpt lat="-3.1331730" lon="37.3086990">
    <ele>2728.5</ele>
    <time>2026-06-20T14:32:36Z</time>
   </trkpt>
   <trkpt lat="-3.1331720" lon="37.3087040">
    <ele>2728.6</ele>
    <time>2026-06-20T14:32:37Z</time>
   </trkpt>
   <trkpt lat="-3.1331670" lon="37.3087060">
    <ele>2728.6</ele>
    <time>2026-06-20T14:32:38Z</time>
   </trkpt>
   <trkpt lat="-3.1331640" lon="37.3087070">
    <ele>2728.7</ele>
    <time>2026-06-20T14:32:39Z</time>
   </trkpt>
   <trkpt lat="-3.1331610" lon="37.3087080">
    <ele>2728.7</ele>
    <time>2026-06-20T14:32:40Z</time>
   </trkpt>
   <trkpt lat="-3.1331500" lon="37.3087130">
    <ele>2728.8</ele>
    <time>2026-06-20T14:32:41Z</time>
   </trkpt>
   <trkpt lat="-3.1331520" lon="37.3087190">
    <ele>2728.9</ele>
    <time>2026-06-20T14:32:42Z</time>
   </trkpt>
   <trkpt lat="-3.1331370" lon="37.3087100">
    <ele>2729.0</ele>
    <time>2026-06-20T14:32:43Z</time>
   </trkpt>
   <trkpt lat="-3.1331390" lon="37.3087100">
    <ele>2729.1</ele>
    <time>2026-06-20T14:32:44Z</time>
   </trkpt>
   <trkpt lat="-3.1331240" lon="37.3086830">
    <ele>2729.4</ele>
    <time>2026-06-20T14:32:45Z</time>
   </trkpt>
   <trkpt lat="-3.1331250" lon="37.3086840">
    <ele>2729.4</ele>
    <time>2026-06-20T14:32:46Z</time>
   </trkpt>
   <trkpt lat="-3.1331320" lon="37.3086850">
    <ele>2729.5</ele>
    <time>2026-06-20T14:32:47Z</time>
   </trkpt>
   <trkpt lat="-3.1331240" lon="37.3086810">
    <ele>2729.5</ele>
    <time>2026-06-20T14:32:48Z</time>
   </trkpt>
   <trkpt lat="-3.1331200" lon="37.3086810">
    <ele>2729.6</ele>
    <time>2026-06-20T14:32:49Z</time>
   </trkpt>
   <trkpt lat="-3.1331090" lon="37.3086830">
    <ele>2729.7</ele>
    <time>2026-06-20T14:32:50Z</time>
   </trkpt>
   <trkpt lat="-3.1330980" lon="37.3086810">
    <ele>2729.8</ele>
    <time>2026-06-20T14:32:51Z</time>
   </trkpt>
   <trkpt lat="-3.1330910" lon="37.3086910">
    <ele>2730.0</ele>
    <time>2026-06-20T14:32:52Z</time>
   </trkpt>
   <trkpt lat="-3.1330800" lon="37.3086940">
    <ele>2730.1</ele>
    <time>2026-06-20T14:32:53Z</time>
   </trkpt>
   <trkpt lat="-3.1330730" lon="37.3086970">
    <ele>2730.2</ele>
    <time>2026-06-20T14:32:54Z</time>
   </trkpt>
   <trkpt lat="-3.1330670" lon="37.3087040">
    <ele>2730.3</ele>
    <time>2026-06-20T14:32:55Z</time>
   </trkpt>
   <trkpt lat="-3.1330730" lon="37.3087060">
    <ele>2730.3</ele>
    <time>2026-06-20T14:32:56Z</time>
   </trkpt>
   <trkpt lat="-3.1330680" lon="37.3087140">
    <ele>2730.5</ele>
    <time>2026-06-20T14:32:57Z</time>
   </trkpt>
   <trkpt lat="-3.1330650" lon="37.3087170">
    <ele>2730.5</ele>
    <time>2026-06-20T14:32:58Z</time>
   </trkpt>
   <trkpt lat="-3.1330640" lon="37.3087170">
    <ele>2730.5</ele>
    <time>2026-06-20T14:32:59Z</time>
   </trkpt>
   <trkpt lat="-3.1330630" lon="37.3087160">
    <ele>2730.5</ele>
    <time>2026-06-20T14:33:00Z</time>
   </trkpt>
   <trkpt lat="-3.1330580" lon="37.3087180">
    <ele>2730.6</ele>
    <time>2026-06-20T14:33:01Z</time>
   </trkpt>
   <trkpt lat="-3.1330530" lon="37.3087230">
    <ele>2730.7</ele>
    <time>2026-06-20T14:33:02Z</time>
   </trkpt>
   <trkpt lat="-3.1330520" lon="37.3087280">
    <ele>2730.8</ele>
    <time>2026-06-20T14:33:03Z</time>
   </trkpt>
   <trkpt lat="-3.1330480" lon="37.3087340">
    <ele>2730.8</ele>
    <time>2026-06-20T14:33:04Z</time>
   </trkpt>
   <trkpt lat="-3.1330460" lon="37.3087340">
    <ele>2730.9</ele>
    <time>2026-06-20T14:33:05Z</time>
   </trkpt>
   <trkpt lat="-3.1330450" lon="37.3087420">
    <ele>2731.0</ele>
    <time>2026-06-20T14:33:06Z</time>
   </trkpt>
   <trkpt lat="-3.1330450" lon="37.3087430">
    <ele>2731.0</ele>
    <time>2026-06-20T14:33:07Z</time>
   </trkpt>
   <trkpt lat="-3.1330430" lon="37.3087470">
    <ele>2731.0</ele>
    <time>2026-06-20T14:33:08Z</time>
   </trkpt>
   <trkpt lat="-3.1330440" lon="37.3087510">
    <ele>2731.1</ele>
    <time>2026-06-20T14:33:09Z</time>
   </trkpt>
   <trkpt lat="-3.1330430" lon="37.3087470">
    <ele>2731.1</ele>
    <time>2026-06-20T14:33:10Z</time>
   </trkpt>
   <trkpt lat="-3.1330440" lon="37.3087510">
    <ele>2731.2</ele>
    <time>2026-06-20T14:33:11Z</time>
   </trkpt>
   <trkpt lat="-3.1330460" lon="37.3087590">
    <ele>2731.3</ele>
    <time>2026-06-20T14:33:12Z</time>
   </trkpt>
   <trkpt lat="-3.1330480" lon="37.3087630">
    <ele>2731.3</ele>
    <time>2026-06-20T14:33:13Z</time>
   </trkpt>
   <trkpt lat="-3.1330450" lon="37.3087660">
    <ele>2731.4</ele>
    <time>2026-06-20T14:33:14Z</time>
   </trkpt>
   <trkpt lat="-3.1330410" lon="37.3087670">
    <ele>2731.4</ele>
    <time>2026-06-20T14:33:15Z</time>
   </trkpt>
   <trkpt lat="-3.1330330" lon="37.3087660">
    <ele>2731.6</ele>
    <time>2026-06-20T14:33:16Z</time>
   </trkpt>
   <trkpt lat="-3.1330280" lon="37.3087710">
    <ele>2731.6</ele>
    <time>2026-06-20T14:33:17Z</time>
   </trkpt>
   <trkpt lat="-3.1330280" lon="37.3087770">
    <ele>2731.7</ele>
    <time>2026-06-20T14:33:18Z</time>
   </trkpt>
   <trkpt lat="-3.1330250" lon="37.3087790">
    <ele>2731.8</ele>
    <time>2026-06-20T14:33:19Z</time>
   </trkpt>
   <trkpt lat="-3.1330240" lon="37.3087810">
    <ele>2731.8</ele>
    <time>2026-06-20T14:33:20Z</time>
   </trkpt>
   <trkpt lat="-3.1330180" lon="37.3087820">
    <ele>2731.9</ele>
    <time>2026-06-20T14:33:21Z</time>
   </trkpt>
   <trkpt lat="-3.1330170" lon="37.3087870">
    <ele>2731.9</ele>
    <time>2026-06-20T14:33:22Z</time>
   </trkpt>
   <trkpt lat="-3.1330150" lon="37.3087890">
    <ele>2732.0</ele>
    <time>2026-06-20T14:33:23Z</time>
   </trkpt>
   <trkpt lat="-3.1330120" lon="37.3087860">
    <ele>2732.0</ele>
    <time>2026-06-20T14:33:24Z</time>
   </trkpt>
   <trkpt lat="-3.1330050" lon="37.3087830">
    <ele>2732.1</ele>
    <time>2026-06-20T14:33:25Z</time>
   </trkpt>
   <trkpt lat="-3.1329980" lon="37.3087800">
    <ele>2732.2</ele>
    <time>2026-06-20T14:33:26Z</time>
   </trkpt>
   <trkpt lat="-3.1329950" lon="37.3087830">
    <ele>2732.3</ele>
    <time>2026-06-20T14:33:27Z</time>
   </trkpt>
   <trkpt lat="-3.1329920" lon="37.3087860">
    <ele>2732.4</ele>
    <time>2026-06-20T14:33:28Z</time>
   </trkpt>
   <trkpt lat="-3.1329850" lon="37.3087880">
    <ele>2732.5</ele>
    <time>2026-06-20T14:33:29Z</time>
   </trkpt>
   <trkpt lat="-3.1329830" lon="37.3087900">
    <ele>2732.5</ele>
    <time>2026-06-20T14:33:30Z</time>
   </trkpt>
   <trkpt lat="-3.1329740" lon="37.3087940">
    <ele>2732.6</ele>
    <time>2026-06-20T14:33:31Z</time>
   </trkpt>
   <trkpt lat="-3.1329590" lon="37.3087870">
    <ele>2732.8</ele>
    <time>2026-06-20T14:33:32Z</time>
   </trkpt>
   <trkpt lat="-3.1329490" lon="37.3087830">
    <ele>2733.0</ele>
    <time>2026-06-20T14:33:33Z</time>
   </trkpt>
   <trkpt lat="-3.1329420" lon="37.3087820">
    <ele>2733.1</ele>
    <time>2026-06-20T14:33:34Z</time>
   </trkpt>
   <trkpt lat="-3.1329400" lon="37.3087820">
    <ele>2733.1</ele>
    <time>2026-06-20T14:33:35Z</time>
   </trkpt>
   <trkpt lat="-3.1329360" lon="37.3087750">
    <ele>2733.2</ele>
    <time>2026-06-20T14:33:36Z</time>
   </trkpt>
   <trkpt lat="-3.1329280" lon="37.3087740">
    <ele>2733.3</ele>
    <time>2026-06-20T14:33:37Z</time>
   </trkpt>
   <trkpt lat="-3.1329260" lon="37.3087680">
    <ele>2733.4</ele>
    <time>2026-06-20T14:33:38Z</time>
   </trkpt>
   <trkpt lat="-3.1329220" lon="37.3087640">
    <ele>2733.5</ele>
    <time>2026-06-20T14:33:39Z</time>
   </trkpt>
   <trkpt lat="-3.1329180" lon="37.3087630">
    <ele>2733.6</ele>
    <time>2026-06-20T14:33:40Z</time>
   </trkpt>
   <trkpt lat="-3.1329110" lon="37.3087500">
    <ele>2733.8</ele>
    <time>2026-06-20T14:33:41Z</time>
   </trkpt>
   <trkpt lat="-3.1329110" lon="37.3087530">
    <ele>2733.8</ele>
    <time>2026-06-20T14:33:42Z</time>
   </trkpt>
   <trkpt lat="-3.1329110" lon="37.3087550">
    <ele>2733.8</ele>
    <time>2026-06-20T14:33:43Z</time>
   </trkpt>
   <trkpt lat="-3.1329060" lon="37.3087600">
    <ele>2733.9</ele>
    <time>2026-06-20T14:33:44Z</time>
   </trkpt>
   <trkpt lat="-3.1328980" lon="37.3087570">
    <ele>2734.0</ele>
    <time>2026-06-20T14:33:45Z</time>
   </trkpt>
   <trkpt lat="-3.1328940" lon="37.3087550">
    <ele>2734.1</ele>
    <time>2026-06-20T14:33:46Z</time>
   </trkpt>
   <trkpt lat="-3.1328810" lon="37.3087530">
    <ele>2734.3</ele>
    <time>2026-06-20T14:33:47Z</time>
   </trkpt>
   <trkpt lat="-3.1328720" lon="37.3087620">
    <ele>2734.4</ele>
    <time>2026-06-20T14:33:48Z</time>
   </trkpt>
   <trkpt lat="-3.1328650" lon="37.3087740">
    <ele>2734.6</ele>
    <time>2026-06-20T14:33:49Z</time>
   </trkpt>
   <trkpt lat="-3.1328570" lon="37.3087750">
    <ele>2734.7</ele>
    <time>2026-06-20T14:33:50Z</time>
   </trkpt>
   <trkpt lat="-3.1328480" lon="37.3087820">
    <ele>2734.9</ele>
    <time>2026-06-20T14:33:51Z</time>
   </trkpt>
   <trkpt lat="-3.1328470" lon="37.3087890">
    <ele>2735.0</ele>
    <time>2026-06-20T14:33:52Z</time>
   </trkpt>
   <trkpt lat="-3.1328500" lon="37.3087910">
    <ele>2735.0</ele>
    <time>2026-06-20T14:33:53Z</time>
   </trkpt>
   <trkpt lat="-3.1328490" lon="37.3087960">
    <ele>2735.1</ele>
    <time>2026-06-20T14:33:54Z</time>
   </trkpt>
   <trkpt lat="-3.1328490" lon="37.3088010">
    <ele>2735.1</ele>
    <time>2026-06-20T14:33:55Z</time>
   </trkpt>
   <trkpt lat="-3.1328570" lon="37.3088030">
    <ele>2735.2</ele>
    <time>2026-06-20T14:33:56Z</time>
   </trkpt>
   <trkpt lat="-3.1328570" lon="37.3088060">
    <ele>2735.3</ele>
    <time>2026-06-20T14:33:57Z</time>
   </trkpt>
   <trkpt lat="-3.1328570" lon="37.3088110">
    <ele>2735.3</ele>
    <time>2026-06-20T14:33:58Z</time>
   </trkpt>
   <trkpt lat="-3.1328480" lon="37.3088110">
    <ele>2735.4</ele>
    <time>2026-06-20T14:33:59Z</time>
   </trkpt>
   <trkpt lat="-3.1328360" lon="37.3088270">
    <ele>2735.7</ele>
    <time>2026-06-20T14:34:00Z</time>
   </trkpt>
   <trkpt lat="-3.1328210" lon="37.3088300">
    <ele>2735.8</ele>
    <time>2026-06-20T14:34:01Z</time>
   </trkpt>
   <trkpt lat="-3.1328100" lon="37.3088310">
    <ele>2736.0</ele>
    <time>2026-06-20T14:34:02Z</time>
   </trkpt>
   <trkpt lat="-3.1328100" lon="37.3088230">
    <ele>2736.0</ele>
    <time>2026-06-20T14:34:03Z</time>
   </trkpt>
   <trkpt lat="-3.1328020" lon="37.3088210">
    <ele>2736.1</ele>
    <time>2026-06-20T14:34:04Z</time>
   </trkpt>
   <trkpt lat="-3.1327960" lon="37.3088190">
    <ele>2736.2</ele>
    <time>2026-06-20T14:34:05Z</time>
   </trkpt>
   <trkpt lat="-3.1327850" lon="37.3088190">
    <ele>2736.3</ele>
    <time>2026-06-20T14:34:06Z</time>
   </trkpt>
   <trkpt lat="-3.1327910" lon="37.3088200">
    <ele>2736.4</ele>
    <time>2026-06-20T14:34:07Z</time>
   </trkpt>
   <trkpt lat="-3.1327800" lon="37.3088190">
    <ele>2736.5</ele>
    <time>2026-06-20T14:34:08Z</time>
   </trkpt>
   <trkpt lat="-3.1327710" lon="37.3088370">
    <ele>2736.7</ele>
    <time>2026-06-20T14:34:09Z</time>
   </trkpt>
   <trkpt lat="-3.1327660" lon="37.3088410">
    <ele>2736.8</ele>
    <time>2026-06-20T14:34:10Z</time>
   </trkpt>
   <trkpt lat="-3.1327560" lon="37.3088490">
    <ele>2736.9</ele>
    <time>2026-06-20T14:34:11Z</time>
   </trkpt>
   <trkpt lat="-3.1327440" lon="37.3088590">
    <ele>2737.0</ele>
    <time>2026-06-20T14:34:12Z</time>
   </trkpt>
   <trkpt lat="-3.1327350" lon="37.3088680">
    <ele>2737.2</ele>
    <time>2026-06-20T14:34:13Z</time>
   </trkpt>
   <trkpt lat="-3.1327330" lon="37.3088710">
    <ele>2737.2</ele>
    <time>2026-06-20T14:34:14Z</time>
   </trkpt>
   <trkpt lat="-3.1327340" lon="37.3088720">
    <ele>2737.2</ele>
    <time>2026-06-20T14:34:15Z</time>
   </trkpt>
   <trkpt lat="-3.1327320" lon="37.3088720">
    <ele>2737.2</ele>
    <time>2026-06-20T14:34:16Z</time>
   </trkpt>
   <trkpt lat="-3.1327330" lon="37.3088680">
    <ele>2737.3</ele>
    <time>2026-06-20T14:34:17Z</time>
   </trkpt>
   <trkpt lat="-3.1327360" lon="37.3088610">
    <ele>2737.3</ele>
    <time>2026-06-20T14:34:18Z</time>
   </trkpt>
   <trkpt lat="-3.1327230" lon="37.3088700">
    <ele>2737.5</ele>
    <time>2026-06-20T14:34:19Z</time>
   </trkpt>
   <trkpt lat="-3.1327170" lon="37.3088700">
    <ele>2737.6</ele>
    <time>2026-06-20T14:34:20Z</time>
   </trkpt>
   <trkpt lat="-3.1327010" lon="37.3088690">
    <ele>2737.8</ele>
    <time>2026-06-20T14:34:21Z</time>
   </trkpt>
   <trkpt lat="-3.1327040" lon="37.3088610">
    <ele>2737.9</ele>
    <time>2026-06-20T14:34:22Z</time>
   </trkpt>
   <trkpt lat="-3.1326960" lon="37.3088660">
    <ele>2738.0</ele>
    <time>2026-06-20T14:34:23Z</time>
   </trkpt>
   <trkpt lat="-3.1326870" lon="37.3088670">
    <ele>2738.1</ele>
    <time>2026-06-20T14:34:24Z</time>
   </trkpt>
   <trkpt lat="-3.1326830" lon="37.3088660">
    <ele>2738.1</ele>
    <time>2026-06-20T14:34:25Z</time>
   </trkpt>
   <trkpt lat="-3.1326750" lon="37.3088710">
    <ele>2738.2</ele>
    <time>2026-06-20T14:34:26Z</time>
   </trkpt>
   <trkpt lat="-3.1326730" lon="37.3088740">
    <ele>2738.2</ele>
    <time>2026-06-20T14:34:27Z</time>
   </trkpt>
   <trkpt lat="-3.1326740" lon="37.3088710">
    <ele>2738.3</ele>
    <time>2026-06-20T14:34:28Z</time>
   </trkpt>
   <trkpt lat="-3.1326710" lon="37.3088770">
    <ele>2738.4</ele>
    <time>2026-06-20T14:34:29Z</time>
   </trkpt>
   <trkpt lat="-3.1326610" lon="37.3088880">
    <ele>2738.5</ele>
    <time>2026-06-20T14:34:30Z</time>
   </trkpt>
   <trkpt lat="-3.1326600" lon="37.3088960">
    <ele>2738.6</ele>
    <time>2026-06-20T14:34:31Z</time>
   </trkpt>
   <trkpt lat="-3.1326650" lon="37.3089080">
    <ele>2738.8</ele>
    <time>2026-06-20T14:34:32Z</time>
   </trkpt>
   <trkpt lat="-3.1326570" lon="37.3089200">
    <ele>2738.9</ele>
    <time>2026-06-20T14:34:33Z</time>
   </trkpt>
   <trkpt lat="-3.1326550" lon="37.3089210">
    <ele>2739.0</ele>
    <time>2026-06-20T14:34:34Z</time>
   </trkpt>
   <trkpt lat="-3.1326510" lon="37.3089250">
    <ele>2739.0</ele>
    <time>2026-06-20T14:34:35Z</time>
   </trkpt>
   <trkpt lat="-3.1326600" lon="37.3089220">
    <ele>2739.1</ele>
    <time>2026-06-20T14:34:36Z</time>
   </trkpt>
   <trkpt lat="-3.1326550" lon="37.3089270">
    <ele>2739.2</ele>
    <time>2026-06-20T14:34:37Z</time>
   </trkpt>
   <trkpt lat="-3.1326660" lon="37.3089390">
    <ele>2739.4</ele>
    <time>2026-06-20T14:34:38Z</time>
   </trkpt>
   <trkpt lat="-3.1326530" lon="37.3089320">
    <ele>2739.6</ele>
    <time>2026-06-20T14:34:39Z</time>
   </trkpt>
   <trkpt lat="-3.1326440" lon="37.3089300">
    <ele>2739.7</ele>
    <time>2026-06-20T14:34:40Z</time>
   </trkpt>
   <trkpt lat="-3.1326440" lon="37.3089290">
    <ele>2739.7</ele>
    <time>2026-06-20T14:34:41Z</time>
   </trkpt>
   <trkpt lat="-3.1326420" lon="37.3089250">
    <ele>2739.8</ele>
    <time>2026-06-20T14:34:42Z</time>
   </trkpt>
   <trkpt lat="-3.1326380" lon="37.3089320">
    <ele>2739.9</ele>
    <time>2026-06-20T14:34:43Z</time>
   </trkpt>
   <trkpt lat="-3.1326290" lon="37.3089350">
    <ele>2739.9</ele>
    <time>2026-06-20T14:34:44Z</time>
   </trkpt>
   <trkpt lat="-3.1326150" lon="37.3089310">
    <ele>2740.1</ele>
    <time>2026-06-20T14:34:45Z</time>
   </trkpt>
   <trkpt lat="-3.1326210" lon="37.3089320">
    <ele>2740.2</ele>
    <time>2026-06-20T14:34:46Z</time>
   </trkpt>
   <trkpt lat="-3.1326120" lon="37.3089420">
    <ele>2740.3</ele>
    <time>2026-06-20T14:34:47Z</time>
   </trkpt>
   <trkpt lat="-3.1326160" lon="37.3089500">
    <ele>2740.4</ele>
    <time>2026-06-20T14:34:48Z</time>
   </trkpt>
   <trkpt lat="-3.1325990" lon="37.3089590">
    <ele>2740.6</ele>
    <time>2026-06-20T14:34:49Z</time>
   </trkpt>
   <trkpt lat="-3.1326000" lon="37.3089610">
    <ele>2740.6</ele>
    <time>2026-06-20T14:34:50Z</time>
   </trkpt>
   <trkpt lat="-3.1325990" lon="37.3089670">
    <ele>2740.6</ele>
    <time>2026-06-20T14:34:51Z</time>
   </trkpt>
   <trkpt lat="-3.1326000" lon="37.3089700">
    <ele>2740.7</ele>
    <time>2026-06-20T14:34:52Z</time>
   </trkpt>
   <trkpt lat="-3.1325920" lon="37.3089900">
    <ele>2740.8</ele>
    <time>2026-06-20T14:34:53Z</time>
   </trkpt>
   <trkpt lat="-3.1325910" lon="37.3089880">
    <ele>2740.9</ele>
    <time>2026-06-20T14:34:54Z</time>
   </trkpt>
   <trkpt lat="-3.1325890" lon="37.3089940">
    <ele>2740.9</ele>
    <time>2026-06-20T14:34:55Z</time>
   </trkpt>
   <trkpt lat="-3.1325820" lon="37.3090000">
    <ele>2741.0</ele>
    <time>2026-06-20T14:34:56Z</time>
   </trkpt>
   <trkpt lat="-3.1325750" lon="37.3090150">
    <ele>2741.1</ele>
    <time>2026-06-20T14:34:57Z</time>
   </trkpt>
   <trkpt lat="-3.1325680" lon="37.3090220">
    <ele>2741.2</ele>
    <time>2026-06-20T14:34:58Z</time>
   </trkpt>
   <trkpt lat="-3.1325610" lon="37.3090270">
    <ele>2741.3</ele>
    <time>2026-06-20T14:34:59Z</time>
   </trkpt>
   <trkpt lat="-3.1325500" lon="37.3090350">
    <ele>2741.4</ele>
    <time>2026-06-20T14:35:00Z</time>
   </trkpt>
   <trkpt lat="-3.1325390" lon="37.3090410">
    <ele>2741.4</ele>
    <time>2026-06-20T14:35:01Z</time>
   </trkpt>
   <trkpt lat="-3.1325250" lon="37.3090480">
    <ele>2741.6</ele>
    <time>2026-06-20T14:35:02Z</time>
   </trkpt>
   <trkpt lat="-3.1325130" lon="37.3090580">
    <ele>2741.7</ele>
    <time>2026-06-20T14:35:03Z</time>
   </trkpt>
   <trkpt lat="-3.1325040" lon="37.3090720">
    <ele>2741.8</ele>
    <time>2026-06-20T14:35:04Z</time>
   </trkpt>
   <trkpt lat="-3.1324940" lon="37.3090810">
    <ele>2741.9</ele>
    <time>2026-06-20T14:35:05Z</time>
   </trkpt>
   <trkpt lat="-3.1324840" lon="37.3090810">
    <ele>2741.9</ele>
    <time>2026-06-20T14:35:06Z</time>
   </trkpt>
   <trkpt lat="-3.1324780" lon="37.3090800">
    <ele>2742.0</ele>
    <time>2026-06-20T14:35:07Z</time>
   </trkpt>
   <trkpt lat="-3.1324750" lon="37.3090790">
    <ele>2742.0</ele>
    <time>2026-06-20T14:35:08Z</time>
   </trkpt>
   <trkpt lat="-3.1324680" lon="37.3090920">
    <ele>2742.1</ele>
    <time>2026-06-20T14:35:09Z</time>
   </trkpt>
   <trkpt lat="-3.1324660" lon="37.3091000">
    <ele>2742.1</ele>
    <time>2026-06-20T14:35:10Z</time>
   </trkpt>
   <trkpt lat="-3.1324610" lon="37.3091060">
    <ele>2742.2</ele>
    <time>2026-06-20T14:35:11Z</time>
   </trkpt>
   <trkpt lat="-3.1324530" lon="37.3091210">
    <ele>2742.2</ele>
    <time>2026-06-20T14:35:12Z</time>
   </trkpt>
   <trkpt lat="-3.1324510" lon="37.3091260">
    <ele>2742.3</ele>
    <time>2026-06-20T14:35:13Z</time>
   </trkpt>
   <trkpt lat="-3.1324480" lon="37.3091210">
    <ele>2742.3</ele>
    <time>2026-06-20T14:35:14Z</time>
   </trkpt>
   <trkpt lat="-3.1324600" lon="37.3091190">
    <ele>2742.3</ele>
    <time>2026-06-20T14:35:15Z</time>
   </trkpt>
   <trkpt lat="-3.1324640" lon="37.3091230">
    <ele>2742.4</ele>
    <time>2026-06-20T14:35:16Z</time>
   </trkpt>
   <trkpt lat="-3.1324570" lon="37.3091230">
    <ele>2742.4</ele>
    <time>2026-06-20T14:35:17Z</time>
   </trkpt>
   <trkpt lat="-3.1324480" lon="37.3091260">
    <ele>2742.5</ele>
    <time>2026-06-20T14:35:18Z</time>
   </trkpt>
   <trkpt lat="-3.1324500" lon="37.3091270">
    <ele>2742.5</ele>
    <time>2026-06-20T14:35:19Z</time>
   </trkpt>
   <trkpt lat="-3.1324520" lon="37.3091390">
    <ele>2742.5</ele>
    <time>2026-06-20T14:35:20Z</time>
   </trkpt>
   <trkpt lat="-3.1324470" lon="37.3091440">
    <ele>2742.5</ele>
    <time>2026-06-20T14:35:21Z</time>
   </trkpt>
   <trkpt lat="-3.1324450" lon="37.3091530">
    <ele>2742.6</ele>
    <time>2026-06-20T14:35:22Z</time>
   </trkpt>
   <trkpt lat="-3.1324450" lon="37.3091540">
    <ele>2742.6</ele>
    <time>2026-06-20T14:35:23Z</time>
   </trkpt>
   <trkpt lat="-3.1324330" lon="37.3091550">
    <ele>2742.6</ele>
    <time>2026-06-20T14:35:24Z</time>
   </trkpt>
   <trkpt lat="-3.1324270" lon="37.3091560">
    <ele>2742.6</ele>
    <time>2026-06-20T14:35:25Z</time>
   </trkpt>
   <trkpt lat="-3.1324150" lon="37.3091680">
    <ele>2742.7</ele>
    <time>2026-06-20T14:35:26Z</time>
   </trkpt>
   <trkpt lat="-3.1324080" lon="37.3091840">
    <ele>2742.8</ele>
    <time>2026-06-20T14:35:27Z</time>
   </trkpt>
   <trkpt lat="-3.1324010" lon="37.3091950">
    <ele>2742.8</ele>
    <time>2026-06-20T14:35:28Z</time>
   </trkpt>
   <trkpt lat="-3.1323990" lon="37.3091950">
    <ele>2742.8</ele>
    <time>2026-06-20T14:35:29Z</time>
   </trkpt>
   <trkpt lat="-3.1323990" lon="37.3092000">
    <ele>2742.8</ele>
    <time>2026-06-20T14:35:30Z</time>
   </trkpt>
   <trkpt lat="-3.1324120" lon="37.3091770">
    <ele>2742.9</ele>
    <time>2026-06-20T14:35:31Z</time>
   </trkpt>
   <trkpt lat="-3.1324390" lon="37.3092160">
    <ele>2742.9</ele>
    <time>2026-06-20T14:35:32Z</time>
   </trkpt>
   <trkpt lat="-3.1324310" lon="37.3092210">
    <ele>2742.9</ele>
    <time>2026-06-20T14:35:33Z</time>
   </trkpt>
   <trkpt lat="-3.1324230" lon="37.3092260">
    <ele>2742.9</ele>
    <time>2026-06-20T14:35:34Z</time>
   </trkpt>
   <trkpt lat="-3.1324150" lon="37.3092300">
    <ele>2742.9</ele>
    <time>2026-06-20T14:35:35Z</time>
   </trkpt>
   <trkpt lat="-3.1324070" lon="37.3092350">
    <ele>2742.9</ele>
    <time>2026-06-20T14:35:36Z</time>
   </trkpt>
   <trkpt lat="-3.1323990" lon="37.3092400">
    <ele>2742.9</ele>
    <time>2026-06-20T14:35:37Z</time>
   </trkpt>
   <trkpt lat="-3.1323760" lon="37.3092460">
    <ele>2742.8</ele>
    <time>2026-06-20T14:35:38Z</time>
   </trkpt>
   <trkpt lat="-3.1323590" lon="37.3092490">
    <ele>2742.8</ele>
    <time>2026-06-20T14:35:39Z</time>
   </trkpt>
   <trkpt lat="-3.1323500" lon="37.3092460">
    <ele>2742.8</ele>
    <time>2026-06-20T14:35:40Z</time>
   </trkpt>
   <trkpt lat="-3.1323390" lon="37.3092460">
    <ele>2742.7</ele>
    <time>2026-06-20T14:35:41Z</time>
   </trkpt>
   <trkpt lat="-3.1323490" lon="37.3092370">
    <ele>2742.7</ele>
    <time>2026-06-20T14:35:42Z</time>
   </trkpt>
   <trkpt lat="-3.1323510" lon="37.3092280">
    <ele>2742.6</ele>
    <time>2026-06-20T14:35:43Z</time>
   </trkpt>
   <trkpt lat="-3.1323500" lon="37.3092240">
    <ele>2742.6</ele>
    <time>2026-06-20T14:35:44Z</time>
   </trkpt>
   <trkpt lat="-3.1323580" lon="37.3092130">
    <ele>2742.6</ele>
    <time>2026-06-20T14:35:45Z</time>
   </trkpt>
   <trkpt lat="-3.1323460" lon="37.3092300">
    <ele>2742.5</ele>
    <time>2026-06-20T14:35:46Z</time>
   </trkpt>
   <trkpt lat="-3.1323310" lon="37.3092270">
    <ele>2742.4</ele>
    <time>2026-06-20T14:35:47Z</time>
   </trkpt>
   <trkpt lat="-3.1323210" lon="37.3092230">
    <ele>2742.4</ele>
    <time>2026-06-20T14:35:48Z</time>
   </trkpt>
   <trkpt lat="-3.1323060" lon="37.3091990">
    <ele>2742.2</ele>
    <time>2026-06-20T14:35:49Z</time>
   </trkpt>
   <trkpt lat="-3.1323000" lon="37.3092100">
    <ele>2742.2</ele>
    <time>2026-06-20T14:35:50Z</time>
   </trkpt>
   <trkpt lat="-3.1322870" lon="37.3092160">
    <ele>2742.1</ele>
    <time>2026-06-20T14:35:51Z</time>
   </trkpt>
   <trkpt lat="-3.1322560" lon="37.3092290">
    <ele>2742.0</ele>
    <time>2026-06-20T14:35:52Z</time>
   </trkpt>
   <trkpt lat="-3.1322440" lon="37.3092340">
    <ele>2741.9</ele>
    <time>2026-06-20T14:35:53Z</time>
   </trkpt>
   <trkpt lat="-3.1322170" lon="37.3092430">
    <ele>2741.9</ele>
    <time>2026-06-20T14:35:54Z</time>
   </trkpt>
   <trkpt lat="-3.1322050" lon="37.3092360">
    <ele>2741.8</ele>
    <time>2026-06-20T14:35:55Z</time>
   </trkpt>
   <trkpt lat="-3.1321940" lon="37.3092510">
    <ele>2741.8</ele>
    <time>2026-06-20T14:35:56Z</time>
   </trkpt>
   <trkpt lat="-3.1321940" lon="37.3092610">
    <ele>2741.7</ele>
    <time>2026-06-20T14:35:57Z</time>
   </trkpt>
   <trkpt lat="-3.1321890" lon="37.3092610">
    <ele>2741.7</ele>
    <time>2026-06-20T14:35:58Z</time>
   </trkpt>
   <trkpt lat="-3.1321990" lon="37.3092550">
    <ele>2741.7</ele>
    <time>2026-06-20T14:35:59Z</time>
   </trkpt>
   <trkpt lat="-3.1321960" lon="37.3092600">
    <ele>2741.7</ele>
    <time>2026-06-20T14:36:00Z</time>
   </trkpt>
   <trkpt lat="-3.1321950" lon="37.3092730">
    <ele>2741.7</ele>
    <time>2026-06-20T14:36:01Z</time>
   </trkpt>
   <trkpt lat="-3.1322070" lon="37.3093020">
    <ele>2741.6</ele>
    <time>2026-06-20T14:36:02Z</time>
   </trkpt>
   <trkpt lat="-3.1322230" lon="37.3093480">
    <ele>2741.6</ele>
    <time>2026-06-20T14:36:03Z</time>
   </trkpt>
   <trkpt lat="-3.1322170" lon="37.3093600">
    <ele>2741.6</ele>
    <time>2026-06-20T14:36:04Z</time>
   </trkpt>
   <trkpt lat="-3.1322120" lon="37.3093680">
    <ele>2741.6</ele>
    <time>2026-06-20T14:36:05Z</time>
   </trkpt>
   <trkpt lat="-3.1322140" lon="37.3093720">
    <ele>2741.6</ele>
    <time>2026-06-20T14:36:06Z</time>
   </trkpt>
   <trkpt lat="-3.1322100" lon="37.3093950">
    <ele>2741.6</ele>
    <time>2026-06-20T14:36:07Z</time>
   </trkpt>
   <trkpt lat="-3.1322100" lon="37.3093950">
    <ele>2741.6</ele>
    <time>2026-06-20T14:36:08Z</time>
   </trkpt>
   <trkpt lat="-3.1322110" lon="37.3093860">
    <ele>2741.6</ele>
    <time>2026-06-20T14:36:09Z</time>
   </trkpt>
   <trkpt lat="-3.1322020" lon="37.3093820">
    <ele>2741.6</ele>
    <time>2026-06-20T14:36:10Z</time>
   </trkpt>
   <trkpt lat="-3.1322150" lon="37.3093620">
    <ele>2741.6</ele>
    <time>2026-06-20T14:36:11Z</time>
   </trkpt>
   <trkpt lat="-3.1322220" lon="37.3093490">
    <ele>2741.6</ele>
    <time>2026-06-20T14:36:12Z</time>
   </trkpt>
   <trkpt lat="-3.1322240" lon="37.3093470">
    <ele>2741.6</ele>
    <time>2026-06-20T14:36:13Z</time>
   </trkpt>
   <trkpt lat="-3.1322140" lon="37.3093440">
    <ele>2741.6</ele>
    <time>2026-06-20T14:36:14Z</time>
   </trkpt>
   <trkpt lat="-3.1322150" lon="37.3093380">
    <ele>2741.6</ele>
    <time>2026-06-20T14:36:15Z</time>
   </trkpt>
   <trkpt lat="-3.1322200" lon="37.3093440">
    <ele>2741.7</ele>
    <time>2026-06-20T14:36:16Z</time>
   </trkpt>
   <trkpt lat="-3.1322190" lon="37.3093390">
    <ele>2741.7</ele>
    <time>2026-06-20T14:36:17Z</time>
   </trkpt>
   <trkpt lat="-3.1322170" lon="37.3093410">
    <ele>2741.7</ele>
    <time>2026-06-20T14:36:18Z</time>
   </trkpt>
   <trkpt lat="-3.1322130" lon="37.3093530">
    <ele>2741.7</ele>
    <time>2026-06-20T14:36:19Z</time>
   </trkpt>
   <trkpt lat="-3.1322070" lon="37.3093550">
    <ele>2741.7</ele>
    <time>2026-06-20T14:36:20Z</time>
   </trkpt>
   <trkpt lat="-3.1322020" lon="37.3093570">
    <ele>2741.7</ele>
    <time>2026-06-20T14:36:21Z</time>
   </trkpt>
   <trkpt lat="-3.1322050" lon="37.3093590">
    <ele>2741.8</ele>
    <time>2026-06-20T14:36:22Z</time>
   </trkpt>
   <trkpt lat="-3.1321870" lon="37.3093580">
    <ele>2741.8</ele>
    <time>2026-06-20T14:36:23Z</time>
   </trkpt>
   <trkpt lat="-3.1321800" lon="37.3093550">
    <ele>2741.8</ele>
    <time>2026-06-20T14:36:24Z</time>
   </trkpt>
   <trkpt lat="-3.1321730" lon="37.3093560">
    <ele>2741.9</ele>
    <time>2026-06-20T14:36:25Z</time>
   </trkpt>
   <trkpt lat="-3.1321680" lon="37.3093490">
    <ele>2741.9</ele>
    <time>2026-06-20T14:36:26Z</time>
   </trkpt>
   <trkpt lat="-3.1321650" lon="37.3093510">
    <ele>2741.9</ele>
    <time>2026-06-20T14:36:27Z</time>
   </trkpt>
   <trkpt lat="-3.1321620" lon="37.3093500">
    <ele>2741.9</ele>
    <time>2026-06-20T14:36:28Z</time>
   </trkpt>
   <trkpt lat="-3.1321560" lon="37.3093450">
    <ele>2741.9</ele>
    <time>2026-06-20T14:36:29Z</time>
   </trkpt>
   <trkpt lat="-3.1321430" lon="37.3093540">
    <ele>2742.0</ele>
    <time>2026-06-20T14:36:30Z</time>
   </trkpt>
   <trkpt lat="-3.1321300" lon="37.3093650">
    <ele>2742.1</ele>
    <time>2026-06-20T14:36:31Z</time>
   </trkpt>
   <trkpt lat="-3.1321230" lon="37.3093660">
    <ele>2742.2</ele>
    <time>2026-06-20T14:36:32Z</time>
   </trkpt>
   <trkpt lat="-3.1321130" lon="37.3093680">
    <ele>2742.2</ele>
    <time>2026-06-20T14:36:33Z</time>
   </trkpt>
   <trkpt lat="-3.1320990" lon="37.3093650">
    <ele>2742.3</ele>
    <time>2026-06-20T14:36:34Z</time>
   </trkpt>
   <trkpt lat="-3.1320870" lon="37.3093720">
    <ele>2742.4</ele>
    <time>2026-06-20T14:36:35Z</time>
   </trkpt>
   <trkpt lat="-3.1320800" lon="37.3093780">
    <ele>2742.5</ele>
    <time>2026-06-20T14:36:36Z</time>
   </trkpt>
   <trkpt lat="-3.1320760" lon="37.3093860">
    <ele>2742.5</ele>
    <time>2026-06-20T14:36:37Z</time>
   </trkpt>
   <trkpt lat="-3.1320740" lon="37.3093910">
    <ele>2742.6</ele>
    <time>2026-06-20T14:36:38Z</time>
   </trkpt>
   <trkpt lat="-3.1320630" lon="37.3093910">
    <ele>2742.7</ele>
    <time>2026-06-20T14:36:39Z</time>
   </trkpt>
   <trkpt lat="-3.1320500" lon="37.3094010">
    <ele>2742.8</ele>
    <time>2026-06-20T14:36:40Z</time>
   </trkpt>
   <trkpt lat="-3.1320410" lon="37.3094150">
    <ele>2743.0</ele>
    <time>2026-06-20T14:36:41Z</time>
   </trkpt>
   <trkpt lat="-3.1320290" lon="37.3094100">
    <ele>2743.1</ele>
    <time>2026-06-20T14:36:42Z</time>
   </trkpt>
   <trkpt lat="-3.1320280" lon="37.3094160">
    <ele>2743.2</ele>
    <time>2026-06-20T14:36:43Z</time>
   </trkpt>
   <trkpt lat="-3.1320320" lon="37.3094250">
    <ele>2743.3</ele>
    <time>2026-06-20T14:36:44Z</time>
   </trkpt>
   <trkpt lat="-3.1320320" lon="37.3094290">
    <ele>2743.3</ele>
    <time>2026-06-20T14:36:45Z</time>
   </trkpt>
   <trkpt lat="-3.1320270" lon="37.3094390">
    <ele>2743.4</ele>
    <time>2026-06-20T14:36:46Z</time>
   </trkpt>
   <trkpt lat="-3.1320240" lon="37.3094480">
    <ele>2743.5</ele>
    <time>2026-06-20T14:36:47Z</time>
   </trkpt>
   <trkpt lat="-3.1320110" lon="37.3094620">
    <ele>2743.8</ele>
    <time>2026-06-20T14:36:48Z</time>
   </trkpt>
   <trkpt lat="-3.1320100" lon="37.3094580">
    <ele>2743.8</ele>
    <time>2026-06-20T14:36:49Z</time>
   </trkpt>
   <trkpt lat="-3.1320090" lon="37.3094570">
    <ele>2743.8</ele>
    <time>2026-06-20T14:36:50Z</time>
   </trkpt>
   <trkpt lat="-3.1320020" lon="37.3094600">
    <ele>2743.9</ele>
    <time>2026-06-20T14:36:51Z</time>
   </trkpt>
   <trkpt lat="-3.1319970" lon="37.3094640">
    <ele>2744.0</ele>
    <time>2026-06-20T14:36:52Z</time>
   </trkpt>
   <trkpt lat="-3.1319940" lon="37.3094720">
    <ele>2744.1</ele>
    <time>2026-06-20T14:36:53Z</time>
   </trkpt>
   <trkpt lat="-3.1319880" lon="37.3094740">
    <ele>2744.2</ele>
    <time>2026-06-20T14:36:54Z</time>
   </trkpt>
   <trkpt lat="-3.1319800" lon="37.3094730">
    <ele>2744.3</ele>
    <time>2026-06-20T14:36:55Z</time>
   </trkpt>
   <trkpt lat="-3.1319760" lon="37.3094760">
    <ele>2744.4</ele>
    <time>2026-06-20T14:36:56Z</time>
   </trkpt>
   <trkpt lat="-3.1319690" lon="37.3094800">
    <ele>2744.5</ele>
    <time>2026-06-20T14:36:57Z</time>
   </trkpt>
   <trkpt lat="-3.1319660" lon="37.3094750">
    <ele>2744.6</ele>
    <time>2026-06-20T14:36:58Z</time>
   </trkpt>
   <trkpt lat="-3.1319680" lon="37.3094750">
    <ele>2744.6</ele>
    <time>2026-06-20T14:36:59Z</time>
   </trkpt>
   <trkpt lat="-3.1319650" lon="37.3094790">
    <ele>2744.7</ele>
    <time>2026-06-20T14:37:00Z</time>
   </trkpt>
   <trkpt lat="-3.1319630" lon="37.3094820">
    <ele>2744.7</ele>
    <time>2026-06-20T14:37:01Z</time>
   </trkpt>
   <trkpt lat="-3.1319720" lon="37.3094860">
    <ele>2744.9</ele>
    <time>2026-06-20T14:37:02Z</time>
   </trkpt>
   <trkpt lat="-3.1319610" lon="37.3094880">
    <ele>2745.1</ele>
    <time>2026-06-20T14:37:03Z</time>
   </trkpt>
   <trkpt lat="-3.1319490" lon="37.3094870">
    <ele>2745.2</ele>
    <time>2026-06-20T14:37:04Z</time>
   </trkpt>
   <trkpt lat="-3.1319410" lon="37.3094620">
    <ele>2745.6</ele>
    <time>2026-06-20T14:37:05Z</time>
   </trkpt>
   <trkpt lat="-3.1319410" lon="37.3094670">
    <ele>2745.7</ele>
    <time>2026-06-20T14:37:06Z</time>
   </trkpt>
   <trkpt lat="-3.1319340" lon="37.3094690">
    <ele>2745.9</ele>
    <time>2026-06-20T14:37:07Z</time>
   </trkpt>
   <trkpt lat="-3.1319270" lon="37.3094660">
    <ele>2746.0</ele>
    <time>2026-06-20T14:37:08Z</time>
   </trkpt>
   <trkpt lat="-3.1319150" lon="37.3094650">
    <ele>2746.2</ele>
    <time>2026-06-20T14:37:09Z</time>
   </trkpt>
   <trkpt lat="-3.1319100" lon="37.3094540">
    <ele>2746.4</ele>
    <time>2026-06-20T14:37:10Z</time>
   </trkpt>
   <trkpt lat="-3.1319060" lon="37.3094500">
    <ele>2746.5</ele>
    <time>2026-06-20T14:37:11Z</time>
   </trkpt>
   <trkpt lat="-3.1319050" lon="37.3094450">
    <ele>2746.6</ele>
    <time>2026-06-20T14:37:12Z</time>
   </trkpt>
   <trkpt lat="-3.1319030" lon="37.3094520">
    <ele>2746.7</ele>
    <time>2026-06-20T14:37:13Z</time>
   </trkpt>
   <trkpt lat="-3.1319040" lon="37.3094590">
    <ele>2746.8</ele>
    <time>2026-06-20T14:37:14Z</time>
   </trkpt>
   <trkpt lat="-3.1319080" lon="37.3094630">
    <ele>2746.9</ele>
    <time>2026-06-20T14:37:15Z</time>
   </trkpt>
   <trkpt lat="-3.1319060" lon="37.3094610">
    <ele>2747.0</ele>
    <time>2026-06-20T14:37:16Z</time>
   </trkpt>
   <trkpt lat="-3.1319050" lon="37.3094610">
    <ele>2747.0</ele>
    <time>2026-06-20T14:37:17Z</time>
   </trkpt>
   <trkpt lat="-3.1319020" lon="37.3094620">
    <ele>2747.1</ele>
    <time>2026-06-20T14:37:18Z</time>
   </trkpt>
   <trkpt lat="-3.1318960" lon="37.3094460">
    <ele>2747.4</ele>
    <time>2026-06-20T14:37:19Z</time>
   </trkpt>
   <trkpt lat="-3.1318990" lon="37.3094480">
    <ele>2747.5</ele>
    <time>2026-06-20T14:37:20Z</time>
   </trkpt>
   <trkpt lat="-3.1319030" lon="37.3094590">
    <ele>2747.7</ele>
    <time>2026-06-20T14:37:21Z</time>
   </trkpt>
   <trkpt lat="-3.1318980" lon="37.3094710">
    <ele>2747.9</ele>
    <time>2026-06-20T14:37:22Z</time>
   </trkpt>
   <trkpt lat="-3.1318910" lon="37.3094760">
    <ele>2748.1</ele>
    <time>2026-06-20T14:37:23Z</time>
   </trkpt>
   <trkpt lat="-3.1318840" lon="37.3094830">
    <ele>2748.3</ele>
    <time>2026-06-20T14:37:24Z</time>
   </trkpt>
   <trkpt lat="-3.1318790" lon="37.3094820">
    <ele>2748.4</ele>
    <time>2026-06-20T14:37:25Z</time>
   </trkpt>
   <trkpt lat="-3.1318850" lon="37.3094920">
    <ele>2748.6</ele>
    <time>2026-06-20T14:37:26Z</time>
   </trkpt>
   <trkpt lat="-3.1318770" lon="37.3094890">
    <ele>2748.8</ele>
    <time>2026-06-20T14:37:27Z</time>
   </trkpt>
   <trkpt lat="-3.1318700" lon="37.3094860">
    <ele>2748.9</ele>
    <time>2026-06-20T14:37:28Z</time>
   </trkpt>
   <trkpt lat="-3.1318670" lon="37.3094820">
    <ele>2749.0</ele>
    <time>2026-06-20T14:37:29Z</time>
   </trkpt>
   <trkpt lat="-3.1318690" lon="37.3094850">
    <ele>2749.1</ele>
    <time>2026-06-20T14:37:30Z</time>
   </trkpt>
   <trkpt lat="-3.1318610" lon="37.3094850">
    <ele>2749.2</ele>
    <time>2026-06-20T14:37:31Z</time>
   </trkpt>
   <trkpt lat="-3.1318530" lon="37.3094840">
    <ele>2749.4</ele>
    <time>2026-06-20T14:37:32Z</time>
   </trkpt>
   <trkpt lat="-3.1318600" lon="37.3094820">
    <ele>2749.5</ele>
    <time>2026-06-20T14:37:33Z</time>
   </trkpt>
   <trkpt lat="-3.1318480" lon="37.3094760">
    <ele>2749.8</ele>
    <time>2026-06-20T14:37:34Z</time>
   </trkpt>
   <trkpt lat="-3.1318420" lon="37.3094630">
    <ele>2750.0</ele>
    <time>2026-06-20T14:37:35Z</time>
   </trkpt>
   <trkpt lat="-3.1318400" lon="37.3094610">
    <ele>2750.1</ele>
    <time>2026-06-20T14:37:36Z</time>
   </trkpt>
   <trkpt lat="-3.1318410" lon="37.3094580">
    <ele>2750.1</ele>
    <time>2026-06-20T14:37:37Z</time>
   </trkpt>
   <trkpt lat="-3.1318280" lon="37.3094600">
    <ele>2750.3</ele>
    <time>2026-06-20T14:37:38Z</time>
   </trkpt>
   <trkpt lat="-3.1318300" lon="37.3094620">
    <ele>2750.4</ele>
    <time>2026-06-20T14:37:39Z</time>
   </trkpt>
   <trkpt lat="-3.1318270" lon="37.3094680">
    <ele>2750.5</ele>
    <time>2026-06-20T14:37:40Z</time>
   </trkpt>
   <trkpt lat="-3.1318220" lon="37.3094630">
    <ele>2750.6</ele>
    <time>2026-06-20T14:37:41Z</time>
   </trkpt>
   <trkpt lat="-3.1318200" lon="37.3094610">
    <ele>2750.6</ele>
    <time>2026-06-20T14:37:42Z</time>
   </trkpt>
   <trkpt lat="-3.1318280" lon="37.3094610">
    <ele>2750.8</ele>
    <time>2026-06-20T14:37:43Z</time>
   </trkpt>
   <trkpt lat="-3.1318250" lon="37.3094640">
    <ele>2750.8</ele>
    <time>2026-06-20T14:37:44Z</time>
   </trkpt>
   <trkpt lat="-3.1318230" lon="37.3094600">
    <ele>2750.9</ele>
    <time>2026-06-20T14:37:45Z</time>
   </trkpt>
   <trkpt lat="-3.1318200" lon="37.3094570">
    <ele>2751.0</ele>
    <time>2026-06-20T14:37:46Z</time>
   </trkpt>
   <trkpt lat="-3.1318160" lon="37.3094620">
    <ele>2751.0</ele>
    <time>2026-06-20T14:37:47Z</time>
   </trkpt>
   <trkpt lat="-3.1318280" lon="37.3094660">
    <ele>2751.2</ele>
    <time>2026-06-20T14:37:48Z</time>
   </trkpt>
   <trkpt lat="-3.1318280" lon="37.3094690">
    <ele>2751.2</ele>
    <time>2026-06-20T14:37:49Z</time>
   </trkpt>
   <trkpt lat="-3.1318250" lon="37.3094700">
    <ele>2751.3</ele>
    <time>2026-06-20T14:37:50Z</time>
   </trkpt>
   <trkpt lat="-3.1318250" lon="37.3094770">
    <ele>2751.4</ele>
    <time>2026-06-20T14:37:51Z</time>
   </trkpt>
   <trkpt lat="-3.1318200" lon="37.3094780">
    <ele>2751.4</ele>
    <time>2026-06-20T14:37:52Z</time>
   </trkpt>
   <trkpt lat="-3.1318140" lon="37.3094820">
    <ele>2751.5</ele>
    <time>2026-06-20T14:37:53Z</time>
   </trkpt>
   <trkpt lat="-3.1318180" lon="37.3094830">
    <ele>2751.6</ele>
    <time>2026-06-20T14:37:54Z</time>
   </trkpt>
   <trkpt lat="-3.1318200" lon="37.3094850">
    <ele>2751.6</ele>
    <time>2026-06-20T14:37:55Z</time>
   </trkpt>
   <trkpt lat="-3.1318170" lon="37.3094800">
    <ele>2751.7</ele>
    <time>2026-06-20T14:37:56Z</time>
   </trkpt>
   <trkpt lat="-3.1318180" lon="37.3094800">
    <ele>2751.7</ele>
    <time>2026-06-20T14:37:57Z</time>
   </trkpt>
   <trkpt lat="-3.1318210" lon="37.3094740">
    <ele>2751.8</ele>
    <time>2026-06-20T14:37:58Z</time>
   </trkpt>
   <trkpt lat="-3.1318230" lon="37.3094780">
    <ele>2751.8</ele>
    <time>2026-06-20T14:37:59Z</time>
   </trkpt>
   <trkpt lat="-3.1318200" lon="37.3094760">
    <ele>2751.9</ele>
    <time>2026-06-20T14:38:00Z</time>
   </trkpt>
   <trkpt lat="-3.1318200" lon="37.3094670">
    <ele>2751.9</ele>
    <time>2026-06-20T14:38:01Z</time>
   </trkpt>
   <trkpt lat="-3.1318250" lon="37.3094670">
    <ele>2752.0</ele>
    <time>2026-06-20T14:38:02Z</time>
   </trkpt>
   <trkpt lat="-3.1318240" lon="37.3094680">
    <ele>2752.0</ele>
    <time>2026-06-20T14:38:03Z</time>
   </trkpt>
   <trkpt lat="-3.1318210" lon="37.3094700">
    <ele>2752.0</ele>
    <time>2026-06-20T14:38:04Z</time>
   </trkpt>
   <trkpt lat="-3.1318230" lon="37.3094650">
    <ele>2752.1</ele>
    <time>2026-06-20T14:38:05Z</time>
   </trkpt>
   <trkpt lat="-3.1318210" lon="37.3094610">
    <ele>2752.1</ele>
    <time>2026-06-20T14:38:06Z</time>
   </trkpt>
   <trkpt lat="-3.1318190" lon="37.3094530">
    <ele>2752.2</ele>
    <time>2026-06-20T14:38:07Z</time>
   </trkpt>
   <trkpt lat="-3.1318180" lon="37.3094450">
    <ele>2752.3</ele>
    <time>2026-06-20T14:38:08Z</time>
   </trkpt>
   <trkpt lat="-3.1318180" lon="37.3094400">
    <ele>2752.3</ele>
    <time>2026-06-20T14:38:09Z</time>
   </trkpt>
   <trkpt lat="-3.1318170" lon="37.3094370">
    <ele>2752.3</ele>
    <time>2026-06-20T14:38:10Z</time>
   </trkpt>
   <trkpt lat="-3.1318210" lon="37.3094350">
    <ele>2752.4</ele>
    <time>2026-06-20T14:38:11Z</time>
   </trkpt>
   <trkpt lat="-3.1318300" lon="37.3094310">
    <ele>2752.5</ele>
    <time>2026-06-20T14:38:12Z</time>
   </trkpt>
   <trkpt lat="-3.1318310" lon="37.3094280">
    <ele>2752.5</ele>
    <time>2026-06-20T14:38:13Z</time>
   </trkpt>
   <trkpt lat="-3.1318310" lon="37.3094280">
    <ele>2752.5</ele>
    <time>2026-06-20T14:38:14Z</time>
   </trkpt>
   <trkpt lat="-3.1318290" lon="37.3094270">
    <ele>2752.5</ele>
    <time>2026-06-20T14:38:15Z</time>
   </trkpt>
   <trkpt lat="-3.1318320" lon="37.3094310">
    <ele>2752.5</ele>
    <time>2026-06-20T14:38:16Z</time>
   </trkpt>
   <trkpt lat="-3.1318330" lon="37.3094390">
    <ele>2752.6</ele>
    <time>2026-06-20T14:38:17Z</time>
   </trkpt>
   <trkpt lat="-3.1318300" lon="37.3094400">
    <ele>2752.6</ele>
    <time>2026-06-20T14:38:18Z</time>
   </trkpt>
   <trkpt lat="-3.1318330" lon="37.3094430">
    <ele>2752.6</ele>
    <time>2026-06-20T14:38:19Z</time>
   </trkpt>
   <trkpt lat="-3.1318320" lon="37.3094480">
    <ele>2752.7</ele>
    <time>2026-06-20T14:38:20Z</time>
   </trkpt>
   <trkpt lat="-3.1318300" lon="37.3094550">
    <ele>2752.7</ele>
    <time>2026-06-20T14:38:21Z</time>
   </trkpt>
   <trkpt lat="-3.1318250" lon="37.3094480">
    <ele>2752.8</ele>
    <time>2026-06-20T14:38:22Z</time>
   </trkpt>
   <trkpt lat="-3.1318230" lon="37.3094460">
    <ele>2752.8</ele>
    <time>2026-06-20T14:38:23Z</time>
   </trkpt>
   <trkpt lat="-3.1318200" lon="37.3094430">
    <ele>2752.8</ele>
    <time>2026-06-20T14:38:24Z</time>
   </trkpt>
   <trkpt lat="-3.1318160" lon="37.3094420">
    <ele>2752.9</ele>
    <time>2026-06-20T14:38:25Z</time>
   </trkpt>
   <trkpt lat="-3.1318060" lon="37.3094420">
    <ele>2752.9</ele>
    <time>2026-06-20T14:38:26Z</time>
   </trkpt>
   <trkpt lat="-3.1318000" lon="37.3094380">
    <ele>2753.0</ele>
    <time>2026-06-20T14:38:27Z</time>
   </trkpt>
   <trkpt lat="-3.1318000" lon="37.3094350">
    <ele>2753.0</ele>
    <time>2026-06-20T14:38:28Z</time>
   </trkpt>
   <trkpt lat="-3.1317910" lon="37.3094350">
    <ele>2753.1</ele>
    <time>2026-06-20T14:38:29Z</time>
   </trkpt>
   <trkpt lat="-3.1317850" lon="37.3094310">
    <ele>2753.1</ele>
    <time>2026-06-20T14:38:30Z</time>
   </trkpt>
   <trkpt lat="-3.1317830" lon="37.3094290">
    <ele>2753.1</ele>
    <time>2026-06-20T14:38:31Z</time>
   </trkpt>
   <trkpt lat="-3.1317760" lon="37.3094310">
    <ele>2753.2</ele>
    <time>2026-06-20T14:38:32Z</time>
   </trkpt>
   <trkpt lat="-3.1317710" lon="37.3094340">
    <ele>2753.2</ele>
    <time>2026-06-20T14:38:33Z</time>
   </trkpt>
   <trkpt lat="-3.1317620" lon="37.3094350">
    <ele>2753.3</ele>
    <time>2026-06-20T14:38:34Z</time>
   </trkpt>
   <trkpt lat="-3.1317530" lon="37.3094340">
    <ele>2753.3</ele>
    <time>2026-06-20T14:38:35Z</time>
   </trkpt>
   <trkpt lat="-3.1317490" lon="37.3094310">
    <ele>2753.4</ele>
    <time>2026-06-20T14:38:36Z</time>
   </trkpt>
   <trkpt lat="-3.1317470" lon="37.3094340">
    <ele>2753.4</ele>
    <time>2026-06-20T14:38:37Z</time>
   </trkpt>
   <trkpt lat="-3.1317490" lon="37.3094290">
    <ele>2753.4</ele>
    <time>2026-06-20T14:38:38Z</time>
   </trkpt>
   <trkpt lat="-3.1317400" lon="37.3094360">
    <ele>2753.5</ele>
    <time>2026-06-20T14:38:39Z</time>
   </trkpt>
   <trkpt lat="-3.1317320" lon="37.3094420">
    <ele>2753.6</ele>
    <time>2026-06-20T14:38:40Z</time>
   </trkpt>
   <trkpt lat="-3.1317260" lon="37.3094440">
    <ele>2753.6</ele>
    <time>2026-06-20T14:38:41Z</time>
   </trkpt>
   <trkpt lat="-3.1317200" lon="37.3094440">
    <ele>2753.7</ele>
    <time>2026-06-20T14:38:42Z</time>
   </trkpt>
   <trkpt lat="-3.1317220" lon="37.3094450">
    <ele>2753.7</ele>
    <time>2026-06-20T14:38:43Z</time>
   </trkpt>
   <trkpt lat="-3.1317200" lon="37.3094560">
    <ele>2753.8</ele>
    <time>2026-06-20T14:38:44Z</time>
   </trkpt>
   <trkpt lat="-3.1317120" lon="37.3094690">
    <ele>2753.9</ele>
    <time>2026-06-20T14:38:45Z</time>
   </trkpt>
   <trkpt lat="-3.1317080" lon="37.3094730">
    <ele>2753.9</ele>
    <time>2026-06-20T14:38:46Z</time>
   </trkpt>
   <trkpt lat="-3.1317030" lon="37.3094750">
    <ele>2753.9</ele>
    <time>2026-06-20T14:38:47Z</time>
   </trkpt>
   <trkpt lat="-3.1316980" lon="37.3094830">
    <ele>2754.0</ele>
    <time>2026-06-20T14:38:48Z</time>
   </trkpt>
   <trkpt lat="-3.1317020" lon="37.3094880">
    <ele>2754.0</ele>
    <time>2026-06-20T14:38:49Z</time>
   </trkpt>
   <trkpt lat="-3.1317070" lon="37.3094920">
    <ele>2754.1</ele>
    <time>2026-06-20T14:38:50Z</time>
   </trkpt>
   <trkpt lat="-3.1317060" lon="37.3094950">
    <ele>2754.1</ele>
    <time>2026-06-20T14:38:51Z</time>
   </trkpt>
   <trkpt lat="-3.1317040" lon="37.3095010">
    <ele>2754.2</ele>
    <time>2026-06-20T14:38:52Z</time>
   </trkpt>
   <trkpt lat="-3.1317040" lon="37.3095050">
    <ele>2754.2</ele>
    <time>2026-06-20T14:38:53Z</time>
   </trkpt>
   <trkpt lat="-3.1316980" lon="37.3095130">
    <ele>2754.3</ele>
    <time>2026-06-20T14:38:54Z</time>
   </trkpt>
   <trkpt lat="-3.1316960" lon="37.3095210">
    <ele>2754.3</ele>
    <time>2026-06-20T14:38:55Z</time>
   </trkpt>
   <trkpt lat="-3.1316910" lon="37.3095250">
    <ele>2754.4</ele>
    <time>2026-06-20T14:38:56Z</time>
   </trkpt>
   <trkpt lat="-3.1316810" lon="37.3095200">
    <ele>2754.5</ele>
    <time>2026-06-20T14:38:57Z</time>
   </trkpt>
   <trkpt lat="-3.1316780" lon="37.3095230">
    <ele>2754.5</ele>
    <time>2026-06-20T14:38:58Z</time>
   </trkpt>
   <trkpt lat="-3.1316620" lon="37.3095230">
    <ele>2754.6</ele>
    <time>2026-06-20T14:38:59Z</time>
   </trkpt>
   <trkpt lat="-3.1316550" lon="37.3095280">
    <ele>2754.7</ele>
    <time>2026-06-20T14:39:00Z</time>
   </trkpt>
   <trkpt lat="-3.1316510" lon="37.3095300">
    <ele>2754.8</ele>
    <time>2026-06-20T14:39:01Z</time>
   </trkpt>
   <trkpt lat="-3.1316450" lon="37.3095320">
    <ele>2754.8</ele>
    <time>2026-06-20T14:39:02Z</time>
   </trkpt>
   <trkpt lat="-3.1316400" lon="37.3095330">
    <ele>2754.9</ele>
    <time>2026-06-20T14:39:03Z</time>
   </trkpt>
   <trkpt lat="-3.1316380" lon="37.3095320">
    <ele>2754.9</ele>
    <time>2026-06-20T14:39:04Z</time>
   </trkpt>
   <trkpt lat="-3.1316350" lon="37.3095340">
    <ele>2754.9</ele>
    <time>2026-06-20T14:39:05Z</time>
   </trkpt>
   <trkpt lat="-3.1316320" lon="37.3095360">
    <ele>2755.0</ele>
    <time>2026-06-20T14:39:06Z</time>
   </trkpt>
   <trkpt lat="-3.1316320" lon="37.3095400">
    <ele>2755.0</ele>
    <time>2026-06-20T14:39:07Z</time>
   </trkpt>
   <trkpt lat="-3.1316360" lon="37.3095410">
    <ele>2755.0</ele>
    <time>2026-06-20T14:39:08Z</time>
   </trkpt>
   <trkpt lat="-3.1316250" lon="37.3095430">
    <ele>2755.1</ele>
    <time>2026-06-20T14:39:09Z</time>
   </trkpt>
   <trkpt lat="-3.1316160" lon="37.3095480">
    <ele>2755.2</ele>
    <time>2026-06-20T14:39:10Z</time>
   </trkpt>
   <trkpt lat="-3.1316190" lon="37.3095530">
    <ele>2755.3</ele>
    <time>2026-06-20T14:39:11Z</time>
   </trkpt>
   <trkpt lat="-3.1316180" lon="37.3095510">
    <ele>2755.3</ele>
    <time>2026-06-20T14:39:12Z</time>
   </trkpt>
   <trkpt lat="-3.1316140" lon="37.3095520">
    <ele>2755.4</ele>
    <time>2026-06-20T14:39:13Z</time>
   </trkpt>
   <trkpt lat="-3.1316070" lon="37.3095530">
    <ele>2755.5</ele>
    <time>2026-06-20T14:39:14Z</time>
   </trkpt>
   <trkpt lat="-3.1316060" lon="37.3095500">
    <ele>2755.5</ele>
    <time>2026-06-20T14:39:15Z</time>
   </trkpt>
   <trkpt lat="-3.1316060" lon="37.3095490">
    <ele>2755.5</ele>
    <time>2026-06-20T14:39:16Z</time>
   </trkpt>
   <trkpt lat="-3.1316020" lon="37.3095500">
    <ele>2755.6</ele>
    <time>2026-06-20T14:39:17Z</time>
   </trkpt>
   <trkpt lat="-3.1315990" lon="37.3095500">
    <ele>2755.6</ele>
    <time>2026-06-20T14:39:18Z</time>
   </trkpt>
   <trkpt lat="-3.1315990" lon="37.3095490">
    <ele>2755.6</ele>
    <time>2026-06-20T14:39:19Z</time>
   </trkpt>
   <trkpt lat="-3.1315930" lon="37.3095490">
    <ele>2755.7</ele>
    <time>2026-06-20T14:39:20Z</time>
   </trkpt>
   <trkpt lat="-3.1315930" lon="37.3095490">
    <ele>2755.7</ele>
    <time>2026-06-20T14:39:21Z</time>
   </trkpt>
   <trkpt lat="-3.1315930" lon="37.3095490">
    <ele>2755.7</ele>
    <time>2026-06-20T14:39:22Z</time>
   </trkpt>
   <trkpt lat="-3.1315930" lon="37.3095490">
    <ele>2755.7</ele>
    <time>2026-06-20T14:39:23Z</time>
   </trkpt>
   <trkpt lat="-3.1315930" lon="37.3095490">
    <ele>2755.7</ele>
    <time>2026-06-20T14:39:24Z</time>
   </trkpt>
   <trkpt lat="-3.1315870" lon="37.3095470">
    <ele>2755.7</ele>
    <time>2026-06-20T14:39:25Z</time>
   </trkpt>
   <trkpt lat="-3.1315850" lon="37.3095470">
    <ele>2755.8</ele>
    <time>2026-06-20T14:39:26Z</time>
   </trkpt>
   <trkpt lat="-3.1315870" lon="37.3095450">
    <ele>2755.8</ele>
    <time>2026-06-20T14:39:27Z</time>
   </trkpt>
   <trkpt lat="-3.1315900" lon="37.3095430">
    <ele>2755.8</ele>
    <time>2026-06-20T14:39:28Z</time>
   </trkpt>
   <trkpt lat="-3.1315900" lon="37.3095430">
    <ele>2755.8</ele>
    <time>2026-06-20T14:39:29Z</time>
   </trkpt>
   <trkpt lat="-3.1315900" lon="37.3095430">
    <ele>2755.8</ele>
    <time>2026-06-20T14:39:30Z</time>
   </trkpt>
   <trkpt lat="-3.1315900" lon="37.3095520">
    <ele>2756.0</ele>
    <time>2026-06-20T14:39:31Z</time>
   </trkpt>
   <trkpt lat="-3.1315890" lon="37.3095530">
    <ele>2756.0</ele>
    <time>2026-06-20T14:39:32Z</time>
   </trkpt>
   <trkpt lat="-3.1315890" lon="37.3095530">
    <ele>2756.0</ele>
    <time>2026-06-20T14:39:33Z</time>
   </trkpt>
   <trkpt lat="-3.1315890" lon="37.3095530">
    <ele>2756.0</ele>
    <time>2026-06-20T14:39:34Z</time>
   </trkpt>
   <trkpt lat="-3.1315890" lon="37.3095530">
    <ele>2756.0</ele>
    <time>2026-06-20T14:39:35Z</time>
   </trkpt>
   <trkpt lat="-3.1315890" lon="37.3095530">
    <ele>2756.0</ele>
    <time>2026-06-20T14:39:36Z</time>
   </trkpt>
   <trkpt lat="-3.1315890" lon="37.3095530">
    <ele>2756.0</ele>
    <time>2026-06-20T14:39:37Z</time>
   </trkpt>
   <trkpt lat="-3.1315890" lon="37.3095530">
    <ele>2756.0</ele>
    <time>2026-06-20T14:39:38Z</time>
   </trkpt>
   <trkpt lat="-3.1315890" lon="37.3095530">
    <ele>2756.0</ele>
    <time>2026-06-20T14:39:39Z</time>
   </trkpt>
   <trkpt lat="-3.1315890" lon="37.3095530">
    <ele>2756.0</ele>
    <time>2026-06-20T14:39:40Z</time>
   </trkpt>
   <trkpt lat="-3.1315890" lon="37.3095530">
    <ele>2756.0</ele>
    <time>2026-06-20T14:39:41Z</time>
   </trkpt>
   <trkpt lat="-3.1315890" lon="37.3095530">
    <ele>2756.0</ele>
    <time>2026-06-20T14:39:42Z</time>
   </trkpt>
   <trkpt lat="-3.1315890" lon="37.3095530">
    <ele>2756.0</ele>
    <time>2026-06-20T14:39:43Z</time>
   </trkpt>
   <trkpt lat="-3.1316020" lon="37.3095690">
    <ele>2756.2</ele>
    <time>2026-06-20T14:39:44Z</time>
   </trkpt>
   <trkpt lat="-3.1316020" lon="37.3095690">
    <ele>2756.2</ele>
    <time>2026-06-20T14:39:45Z</time>
   </trkpt>
   <trkpt lat="-3.1316020" lon="37.3095690">
    <ele>2756.2</ele>
    <time>2026-06-20T14:39:46Z</time>
   </trkpt>
   <trkpt lat="-3.1316020" lon="37.3095690">
    <ele>2756.2</ele>
    <time>2026-06-20T14:39:47Z</time>
   </trkpt>
   <trkpt lat="-3.1316020" lon="37.3095690">
    <ele>2756.2</ele>
    <time>2026-06-20T14:39:48Z</time>
   </trkpt>
   <trkpt lat="-3.1316020" lon="37.3095690">
    <ele>2756.2</ele>
    <time>2026-06-20T14:39:49Z</time>
   </trkpt>
   <trkpt lat="-3.1316020" lon="37.3095690">
    <ele>2756.2</ele>
    <time>2026-06-20T14:39:50Z</time>
   </trkpt>
   <trkpt lat="-3.1316020" lon="37.3095690">
    <ele>2756.2</ele>
    <time>2026-06-20T14:39:51Z</time>
   </trkpt>
   <trkpt lat="-3.1316020" lon="37.3095690">
    <ele>2756.2</ele>
    <time>2026-06-20T14:39:52Z</time>
   </trkpt>
   <trkpt lat="-3.1316020" lon="37.3095690">
    <ele>2756.2</ele>
    <time>2026-06-20T14:39:53Z</time>
   </trkpt>
   <trkpt lat="-3.1316060" lon="37.3095760">
    <ele>2756.3</ele>
    <time>2026-06-20T14:39:54Z</time>
   </trkpt>
   <trkpt lat="-3.1316060" lon="37.3095760">
    <ele>2756.3</ele>
    <time>2026-06-20T14:39:55Z</time>
   </trkpt>
   <trkpt lat="-3.1316060" lon="37.3095760">
    <ele>2756.3</ele>
    <time>2026-06-20T14:39:56Z</time>
   </trkpt>
   <trkpt lat="-3.1316060" lon="37.3095760">
    <ele>2756.3</ele>
    <time>2026-06-20T14:39:57Z</time>
   </trkpt>
   <trkpt lat="-3.1316090" lon="37.3095760">
    <ele>2756.4</ele>
    <time>2026-06-20T14:39:58Z</time>
   </trkpt>
   <trkpt lat="-3.1316100" lon="37.3095760">
    <ele>2756.4</ele>
    <time>2026-06-20T14:39:59Z</time>
   </trkpt>
   <trkpt lat="-3.1316100" lon="37.3095760">
    <ele>2756.4</ele>
    <time>2026-06-20T14:40:00Z</time>
   </trkpt>
   <trkpt lat="-3.1316100" lon="37.3095760">
    <ele>2756.4</ele>
    <time>2026-06-20T14:40:01Z</time>
   </trkpt>
   <trkpt lat="-3.1316050" lon="37.3095810">
    <ele>2756.5</ele>
    <time>2026-06-20T14:40:02Z</time>
   </trkpt>
   <trkpt lat="-3.1316010" lon="37.3095830">
    <ele>2756.5</ele>
    <time>2026-06-20T14:40:03Z</time>
   </trkpt>
   <trkpt lat="-3.1315940" lon="37.3095840">
    <ele>2756.6</ele>
    <time>2026-06-20T14:40:04Z</time>
   </trkpt>
   <trkpt lat="-3.1315920" lon="37.3095820">
    <ele>2756.7</ele>
    <time>2026-06-20T14:40:05Z</time>
   </trkpt>
   <trkpt lat="-3.1315890" lon="37.3095800">
    <ele>2756.7</ele>
    <time>2026-06-20T14:40:06Z</time>
   </trkpt>
   <trkpt lat="-3.1315800" lon="37.3095830">
    <ele>2756.8</ele>
    <time>2026-06-20T14:40:07Z</time>
   </trkpt>
   <trkpt lat="-3.1315740" lon="37.3095890">
    <ele>2757.0</ele>
    <time>2026-06-20T14:40:08Z</time>
   </trkpt>
   <trkpt lat="-3.1315700" lon="37.3095900">
    <ele>2757.0</ele>
    <time>2026-06-20T14:40:09Z</time>
   </trkpt>
   <trkpt lat="-3.1315670" lon="37.3095930">
    <ele>2757.1</ele>
    <time>2026-06-20T14:40:10Z</time>
   </trkpt>
   <trkpt lat="-3.1315660" lon="37.3095910">
    <ele>2757.1</ele>
    <time>2026-06-20T14:40:11Z</time>
   </trkpt>
   <trkpt lat="-3.1315650" lon="37.3095960">
    <ele>2757.2</ele>
    <time>2026-06-20T14:40:12Z</time>
   </trkpt>
   <trkpt lat="-3.1315620" lon="37.3095970">
    <ele>2757.3</ele>
    <time>2026-06-20T14:40:13Z</time>
   </trkpt>
   <trkpt lat="-3.1315610" lon="37.3096010">
    <ele>2757.4</ele>
    <time>2026-06-20T14:40:14Z</time>
   </trkpt>
   <trkpt lat="-3.1315580" lon="37.3096060">
    <ele>2757.5</ele>
    <time>2026-06-20T14:40:15Z</time>
   </trkpt>
   <trkpt lat="-3.1315560" lon="37.3096080">
    <ele>2757.5</ele>
    <time>2026-06-20T14:40:16Z</time>
   </trkpt>
   <trkpt lat="-3.1315530" lon="37.3096200">
    <ele>2757.8</ele>
    <time>2026-06-20T14:40:17Z</time>
   </trkpt>
   <trkpt lat="-3.1315490" lon="37.3096280">
    <ele>2757.9</ele>
    <time>2026-06-20T14:40:18Z</time>
   </trkpt>
   <trkpt lat="-3.1315470" lon="37.3096350">
    <ele>2758.1</ele>
    <time>2026-06-20T14:40:19Z</time>
   </trkpt>
   <trkpt lat="-3.1315490" lon="37.3096380">
    <ele>2758.1</ele>
    <time>2026-06-20T14:40:20Z</time>
   </trkpt>
   <trkpt lat="-3.1315460" lon="37.3096430">
    <ele>2758.3</ele>
    <time>2026-06-20T14:40:21Z</time>
   </trkpt>
   <trkpt lat="-3.1315450" lon="37.3096530">
    <ele>2758.4</ele>
    <time>2026-06-20T14:40:22Z</time>
   </trkpt>
   <trkpt lat="-3.1315450" lon="37.3096600">
    <ele>2758.6</ele>
    <time>2026-06-20T14:40:23Z</time>
   </trkpt>
   <trkpt lat="-3.1315430" lon="37.3096680">
    <ele>2758.7</ele>
    <time>2026-06-20T14:40:24Z</time>
   </trkpt>
   <trkpt lat="-3.1315420" lon="37.3096710">
    <ele>2758.8</ele>
    <time>2026-06-20T14:40:25Z</time>
   </trkpt>
   <trkpt lat="-3.1315380" lon="37.3096740">
    <ele>2758.9</ele>
    <time>2026-06-20T14:40:26Z</time>
   </trkpt>
   <trkpt lat="-3.1315350" lon="37.3096740">
    <ele>2758.9</ele>
    <time>2026-06-20T14:40:27Z</time>
   </trkpt>
   <trkpt lat="-3.1315240" lon="37.3096740">
    <ele>2759.1</ele>
    <time>2026-06-20T14:40:28Z</time>
   </trkpt>
   <trkpt lat="-3.1315130" lon="37.3096780">
    <ele>2759.3</ele>
    <time>2026-06-20T14:40:29Z</time>
   </trkpt>
   <trkpt lat="-3.1315050" lon="37.3096790">
    <ele>2759.4</ele>
    <time>2026-06-20T14:40:30Z</time>
   </trkpt>
   <trkpt lat="-3.1315030" lon="37.3096790">
    <ele>2759.5</ele>
    <time>2026-06-20T14:40:31Z</time>
   </trkpt>
   <trkpt lat="-3.1314920" lon="37.3096810">
    <ele>2759.6</ele>
    <time>2026-06-20T14:40:32Z</time>
   </trkpt>
   <trkpt lat="-3.1314830" lon="37.3096800">
    <ele>2759.8</ele>
    <time>2026-06-20T14:40:33Z</time>
   </trkpt>
   <trkpt lat="-3.1314800" lon="37.3096800">
    <ele>2759.9</ele>
    <time>2026-06-20T14:40:34Z</time>
   </trkpt>
   <trkpt lat="-3.1314720" lon="37.3096840">
    <ele>2760.0</ele>
    <time>2026-06-20T14:40:35Z</time>
   </trkpt>
   <trkpt lat="-3.1314650" lon="37.3096870">
    <ele>2760.1</ele>
    <time>2026-06-20T14:40:36Z</time>
   </trkpt>
   <trkpt lat="-3.1314570" lon="37.3096860">
    <ele>2760.3</ele>
    <time>2026-06-20T14:40:37Z</time>
   </trkpt>
   <trkpt lat="-3.1314500" lon="37.3096890">
    <ele>2760.4</ele>
    <time>2026-06-20T14:40:38Z</time>
   </trkpt>
   <trkpt lat="-3.1314530" lon="37.3096910">
    <ele>2760.4</ele>
    <time>2026-06-20T14:40:39Z</time>
   </trkpt>
   <trkpt lat="-3.1314530" lon="37.3096920">
    <ele>2760.4</ele>
    <time>2026-06-20T14:40:40Z</time>
   </trkpt>
   <trkpt lat="-3.1314490" lon="37.3096970">
    <ele>2760.5</ele>
    <time>2026-06-20T14:40:41Z</time>
   </trkpt>
   <trkpt lat="-3.1314470" lon="37.3097000">
    <ele>2760.6</ele>
    <time>2026-06-20T14:40:42Z</time>
   </trkpt>
   <trkpt lat="-3.1314390" lon="37.3097000">
    <ele>2760.7</ele>
    <time>2026-06-20T14:40:43Z</time>
   </trkpt>
   <trkpt lat="-3.1314380" lon="37.3097010">
    <ele>2760.7</ele>
    <time>2026-06-20T14:40:44Z</time>
   </trkpt>
   <trkpt lat="-3.1314410" lon="37.3097020">
    <ele>2760.8</ele>
    <time>2026-06-20T14:40:45Z</time>
   </trkpt>
   <trkpt lat="-3.1314320" lon="37.3097070">
    <ele>2760.9</ele>
    <time>2026-06-20T14:40:46Z</time>
   </trkpt>
   <trkpt lat="-3.1314230" lon="37.3097110">
    <ele>2761.1</ele>
    <time>2026-06-20T14:40:47Z</time>
   </trkpt>
   <trkpt lat="-3.1314150" lon="37.3097110">
    <ele>2761.2</ele>
    <time>2026-06-20T14:40:48Z</time>
   </trkpt>
   <trkpt lat="-3.1314150" lon="37.3097090">
    <ele>2761.2</ele>
    <time>2026-06-20T14:40:49Z</time>
   </trkpt>
   <trkpt lat="-3.1314150" lon="37.3097000">
    <ele>2761.3</ele>
    <time>2026-06-20T14:40:50Z</time>
   </trkpt>
   <trkpt lat="-3.1314020" lon="37.3096950">
    <ele>2761.5</ele>
    <time>2026-06-20T14:40:51Z</time>
   </trkpt>
   <trkpt lat="-3.1313940" lon="37.3096970">
    <ele>2761.6</ele>
    <time>2026-06-20T14:40:52Z</time>
   </trkpt>
   <trkpt lat="-3.1313910" lon="37.3096980">
    <ele>2761.7</ele>
    <time>2026-06-20T14:40:53Z</time>
   </trkpt>
   <trkpt lat="-3.1313840" lon="37.3096990">
    <ele>2761.8</ele>
    <time>2026-06-20T14:40:54Z</time>
   </trkpt>
   <trkpt lat="-3.1313840" lon="37.3097010">
    <ele>2761.8</ele>
    <time>2026-06-20T14:40:55Z</time>
   </trkpt>
   <trkpt lat="-3.1313800" lon="37.3097040">
    <ele>2761.9</ele>
    <time>2026-06-20T14:40:56Z</time>
   </trkpt>
   <trkpt lat="-3.1313710" lon="37.3097060">
    <ele>2762.0</ele>
    <time>2026-06-20T14:40:57Z</time>
   </trkpt>
   <trkpt lat="-3.1313660" lon="37.3097080">
    <ele>2762.1</ele>
    <time>2026-06-20T14:40:58Z</time>
   </trkpt>
   <trkpt lat="-3.1313670" lon="37.3097070">
    <ele>2762.1</ele>
    <time>2026-06-20T14:40:59Z</time>
   </trkpt>
   <trkpt lat="-3.1313640" lon="37.3097120">
    <ele>2762.2</ele>
    <time>2026-06-20T14:41:00Z</time>
   </trkpt>
   <trkpt lat="-3.1313680" lon="37.3097190">
    <ele>2762.3</ele>
    <time>2026-06-20T14:41:01Z</time>
   </trkpt>
   <trkpt lat="-3.1313620" lon="37.3097280">
    <ele>2762.4</ele>
    <time>2026-06-20T14:41:02Z</time>
   </trkpt>
   <trkpt lat="-3.1313590" lon="37.3097330">
    <ele>2762.5</ele>
    <time>2026-06-20T14:41:03Z</time>
   </trkpt>
   <trkpt lat="-3.1313560" lon="37.3097430">
    <ele>2762.6</ele>
    <time>2026-06-20T14:41:04Z</time>
   </trkpt>
   <trkpt lat="-3.1313600" lon="37.3097490">
    <ele>2762.7</ele>
    <time>2026-06-20T14:41:05Z</time>
   </trkpt>
   <trkpt lat="-3.1313570" lon="37.3097470">
    <ele>2762.8</ele>
    <time>2026-06-20T14:41:06Z</time>
   </trkpt>
   <trkpt lat="-3.1313520" lon="37.3097470">
    <ele>2762.8</ele>
    <time>2026-06-20T14:41:07Z</time>
   </trkpt>
   <trkpt lat="-3.1313480" lon="37.3097450">
    <ele>2762.9</ele>
    <time>2026-06-20T14:41:08Z</time>
   </trkpt>
   <trkpt lat="-3.1313430" lon="37.3097470">
    <ele>2762.9</ele>
    <time>2026-06-20T14:41:09Z</time>
   </trkpt>
   <trkpt lat="-3.1313400" lon="37.3097480">
    <ele>2763.0</ele>
    <time>2026-06-20T14:41:10Z</time>
   </trkpt>
   <trkpt lat="-3.1313360" lon="37.3097510">
    <ele>2763.0</ele>
    <time>2026-06-20T14:41:11Z</time>
   </trkpt>
   <trkpt lat="-3.1313300" lon="37.3097530">
    <ele>2763.1</ele>
    <time>2026-06-20T14:41:12Z</time>
   </trkpt>
   <trkpt lat="-3.1313310" lon="37.3097630">
    <ele>2763.2</ele>
    <time>2026-06-20T14:41:13Z</time>
   </trkpt>
   <trkpt lat="-3.1313170" lon="37.3097580">
    <ele>2763.4</ele>
    <time>2026-06-20T14:41:14Z</time>
   </trkpt>
   <trkpt lat="-3.1313130" lon="37.3097540">
    <ele>2763.5</ele>
    <time>2026-06-20T14:41:15Z</time>
   </trkpt>
   <trkpt lat="-3.1313150" lon="37.3097600">
    <ele>2763.5</ele>
    <time>2026-06-20T14:41:16Z</time>
   </trkpt>
   <trkpt lat="-3.1313140" lon="37.3097630">
    <ele>2763.6</ele>
    <time>2026-06-20T14:41:17Z</time>
   </trkpt>
   <trkpt lat="-3.1313100" lon="37.3097670">
    <ele>2763.6</ele>
    <time>2026-06-20T14:41:18Z</time>
   </trkpt>
   <trkpt lat="-3.1313020" lon="37.3097670">
    <ele>2763.7</ele>
    <time>2026-06-20T14:41:19Z</time>
   </trkpt>
   <trkpt lat="-3.1312870" lon="37.3097730">
    <ele>2763.9</ele>
    <time>2026-06-20T14:41:20Z</time>
   </trkpt>
   <trkpt lat="-3.1312750" lon="37.3097820">
    <ele>2764.1</ele>
    <time>2026-06-20T14:41:21Z</time>
   </trkpt>
   <trkpt lat="-3.1312800" lon="37.3097780">
    <ele>2764.2</ele>
    <time>2026-06-20T14:41:22Z</time>
   </trkpt>
   <trkpt lat="-3.1312820" lon="37.3097740">
    <ele>2764.2</ele>
    <time>2026-06-20T14:41:23Z</time>
   </trkpt>
   <trkpt lat="-3.1312760" lon="37.3097730">
    <ele>2764.3</ele>
    <time>2026-06-20T14:41:24Z</time>
   </trkpt>
   <trkpt lat="-3.1312680" lon="37.3097670">
    <ele>2764.4</ele>
    <time>2026-06-20T14:41:25Z</time>
   </trkpt>
   <trkpt lat="-3.1312650" lon="37.3097660">
    <ele>2764.4</ele>
    <time>2026-06-20T14:41:26Z</time>
   </trkpt>
   <trkpt lat="-3.1312530" lon="37.3097600">
    <ele>2764.6</ele>
    <time>2026-06-20T14:41:27Z</time>
   </trkpt>
   <trkpt lat="-3.1312470" lon="37.3097560">
    <ele>2764.7</ele>
    <time>2026-06-20T14:41:28Z</time>
   </trkpt>
   <trkpt lat="-3.1312440" lon="37.3097490">
    <ele>2764.8</ele>
    <time>2026-06-20T14:41:29Z</time>
   </trkpt>
   <trkpt lat="-3.1312380" lon="37.3097450">
    <ele>2764.8</ele>
    <time>2026-06-20T14:41:30Z</time>
   </trkpt>
   <trkpt lat="-3.1312310" lon="37.3097370">
    <ele>2765.0</ele>
    <time>2026-06-20T14:41:31Z</time>
   </trkpt>
   <trkpt lat="-3.1312260" lon="37.3097270">
    <ele>2765.1</ele>
    <time>2026-06-20T14:41:32Z</time>
   </trkpt>
   <trkpt lat="-3.1312160" lon="37.3097320">
    <ele>2765.2</ele>
    <time>2026-06-20T14:41:33Z</time>
   </trkpt>
   <trkpt lat="-3.1312100" lon="37.3097320">
    <ele>2765.3</ele>
    <time>2026-06-20T14:41:34Z</time>
   </trkpt>
   <trkpt lat="-3.1311950" lon="37.3097270">
    <ele>2765.5</ele>
    <time>2026-06-20T14:41:35Z</time>
   </trkpt>
   <trkpt lat="-3.1311910" lon="37.3097240">
    <ele>2765.5</ele>
    <time>2026-06-20T14:41:36Z</time>
   </trkpt>
   <trkpt lat="-3.1311930" lon="37.3097250">
    <ele>2765.6</ele>
    <time>2026-06-20T14:41:37Z</time>
   </trkpt>
   <trkpt lat="-3.1311990" lon="37.3097230">
    <ele>2765.6</ele>
    <time>2026-06-20T14:41:38Z</time>
   </trkpt>
   <trkpt lat="-3.1311760" lon="37.3097430">
    <ele>2766.0</ele>
    <time>2026-06-20T14:41:39Z</time>
   </trkpt>
   <trkpt lat="-3.1311640" lon="37.3097560">
    <ele>2766.2</ele>
    <time>2026-06-20T14:41:40Z</time>
   </trkpt>
   <trkpt lat="-3.1311420" lon="37.3097740">
    <ele>2766.6</ele>
    <time>2026-06-20T14:41:41Z</time>
   </trkpt>
   <trkpt lat="-3.1311290" lon="37.3097800">
    <ele>2766.8</ele>
    <time>2026-06-20T14:41:42Z</time>
   </trkpt>
   <trkpt lat="-3.1311110" lon="37.3097910">
    <ele>2767.0</ele>
    <time>2026-06-20T14:41:43Z</time>
   </trkpt>
   <trkpt lat="-3.1311040" lon="37.3098000">
    <ele>2767.2</ele>
    <time>2026-06-20T14:41:44Z</time>
   </trkpt>
   <trkpt lat="-3.1311050" lon="37.3098000">
    <ele>2767.2</ele>
    <time>2026-06-20T14:41:45Z</time>
   </trkpt>
   <trkpt lat="-3.1311060" lon="37.3097850">
    <ele>2767.4</ele>
    <time>2026-06-20T14:41:46Z</time>
   </trkpt>
   <trkpt lat="-3.1311050" lon="37.3097780">
    <ele>2767.5</ele>
    <time>2026-06-20T14:41:47Z</time>
   </trkpt>
   <trkpt lat="-3.1310980" lon="37.3097740">
    <ele>2767.6</ele>
    <time>2026-06-20T14:41:48Z</time>
   </trkpt>
   <trkpt lat="-3.1310920" lon="37.3097800">
    <ele>2767.8</ele>
    <time>2026-06-20T14:41:49Z</time>
   </trkpt>
   <trkpt lat="-3.1310880" lon="37.3097790">
    <ele>2767.8</ele>
    <time>2026-06-20T14:41:50Z</time>
   </trkpt>
   <trkpt lat="-3.1310840" lon="37.3097780">
    <ele>2767.9</ele>
    <time>2026-06-20T14:41:51Z</time>
   </trkpt>
   <trkpt lat="-3.1310780" lon="37.3097780">
    <ele>2768.0</ele>
    <time>2026-06-20T14:41:52Z</time>
   </trkpt>
   <trkpt lat="-3.1310680" lon="37.3097780">
    <ele>2768.1</ele>
    <time>2026-06-20T14:41:53Z</time>
   </trkpt>
   <trkpt lat="-3.1310500" lon="37.3097780">
    <ele>2768.4</ele>
    <time>2026-06-20T14:41:54Z</time>
   </trkpt>
   <trkpt lat="-3.1310440" lon="37.3097770">
    <ele>2768.5</ele>
    <time>2026-06-20T14:41:55Z</time>
   </trkpt>
   <trkpt lat="-3.1310350" lon="37.3097790">
    <ele>2768.7</ele>
    <time>2026-06-20T14:41:56Z</time>
   </trkpt>
   <trkpt lat="-3.1310310" lon="37.3097900">
    <ele>2768.9</ele>
    <time>2026-06-20T14:41:57Z</time>
   </trkpt>
   <trkpt lat="-3.1310250" lon="37.3097920">
    <ele>2769.0</ele>
    <time>2026-06-20T14:41:58Z</time>
   </trkpt>
   <trkpt lat="-3.1310170" lon="37.3097970">
    <ele>2769.1</ele>
    <time>2026-06-20T14:41:59Z</time>
   </trkpt>
   <trkpt lat="-3.1310120" lon="37.3097960">
    <ele>2769.2</ele>
    <time>2026-06-20T14:42:00Z</time>
   </trkpt>
   <trkpt lat="-3.1310070" lon="37.3097950">
    <ele>2769.3</ele>
    <time>2026-06-20T14:42:01Z</time>
   </trkpt>
   <trkpt lat="-3.1309990" lon="37.3097960">
    <ele>2769.4</ele>
    <time>2026-06-20T14:42:02Z</time>
   </trkpt>
   <trkpt lat="-3.1309900" lon="37.3097940">
    <ele>2769.6</ele>
    <time>2026-06-20T14:42:03Z</time>
   </trkpt>
   <trkpt lat="-3.1309800" lon="37.3097940">
    <ele>2769.8</ele>
    <time>2026-06-20T14:42:04Z</time>
   </trkpt>
   <trkpt lat="-3.1309750" lon="37.3097960">
    <ele>2769.9</ele>
    <time>2026-06-20T14:42:05Z</time>
   </trkpt>
   <trkpt lat="-3.1309730" lon="37.3097980">
    <ele>2769.9</ele>
    <time>2026-06-20T14:42:06Z</time>
   </trkpt>
   <trkpt lat="-3.1309620" lon="37.3097970">
    <ele>2770.1</ele>
    <time>2026-06-20T14:42:07Z</time>
   </trkpt>
   <trkpt lat="-3.1309610" lon="37.3097970">
    <ele>2770.1</ele>
    <time>2026-06-20T14:42:08Z</time>
   </trkpt>
   <trkpt lat="-3.1309620" lon="37.3098050">
    <ele>2770.3</ele>
    <time>2026-06-20T14:42:09Z</time>
   </trkpt>
   <trkpt lat="-3.1309610" lon="37.3098070">
    <ele>2770.3</ele>
    <time>2026-06-20T14:42:10Z</time>
   </trkpt>
   <trkpt lat="-3.1309550" lon="37.3098050">
    <ele>2770.4</ele>
    <time>2026-06-20T14:42:11Z</time>
   </trkpt>
   <trkpt lat="-3.1309590" lon="37.3098080">
    <ele>2770.5</ele>
    <time>2026-06-20T14:42:12Z</time>
   </trkpt>
   <trkpt lat="-3.1309600" lon="37.3098060">
    <ele>2770.5</ele>
    <time>2026-06-20T14:42:13Z</time>
   </trkpt>
   <trkpt lat="-3.1309570" lon="37.3098150">
    <ele>2770.7</ele>
    <time>2026-06-20T14:42:14Z</time>
   </trkpt>
   <trkpt lat="-3.1309610" lon="37.3098140">
    <ele>2770.8</ele>
    <time>2026-06-20T14:42:15Z</time>
   </trkpt>
   <trkpt lat="-3.1309600" lon="37.3098110">
    <ele>2770.8</ele>
    <time>2026-06-20T14:42:16Z</time>
   </trkpt>
   <trkpt lat="-3.1309560" lon="37.3098080">
    <ele>2770.9</ele>
    <time>2026-06-20T14:42:17Z</time>
   </trkpt>
   <trkpt lat="-3.1309550" lon="37.3098070">
    <ele>2771.0</ele>
    <time>2026-06-20T14:42:18Z</time>
   </trkpt>
   <trkpt lat="-3.1309480" lon="37.3098120">
    <ele>2771.1</ele>
    <time>2026-06-20T14:42:19Z</time>
   </trkpt>
   <trkpt lat="-3.1309440" lon="37.3098160">
    <ele>2771.2</ele>
    <time>2026-06-20T14:42:20Z</time>
   </trkpt>
   <trkpt lat="-3.1309400" lon="37.3098190">
    <ele>2771.3</ele>
    <time>2026-06-20T14:42:21Z</time>
   </trkpt>
   <trkpt lat="-3.1309410" lon="37.3098200">
    <ele>2771.3</ele>
    <time>2026-06-20T14:42:22Z</time>
   </trkpt>
   <trkpt lat="-3.1309350" lon="37.3098210">
    <ele>2771.4</ele>
    <time>2026-06-20T14:42:23Z</time>
   </trkpt>
   <trkpt lat="-3.1309270" lon="37.3098170">
    <ele>2771.6</ele>
    <time>2026-06-20T14:42:24Z</time>
   </trkpt>
   <trkpt lat="-3.1309250" lon="37.3098240">
    <ele>2771.7</ele>
    <time>2026-06-20T14:42:25Z</time>
   </trkpt>
   <trkpt lat="-3.1309300" lon="37.3098280">
    <ele>2771.9</ele>
    <time>2026-06-20T14:42:26Z</time>
   </trkpt>
   <trkpt lat="-3.1309350" lon="37.3098340">
    <ele>2772.0</ele>
    <time>2026-06-20T14:42:27Z</time>
   </trkpt>
   <trkpt lat="-3.1309410" lon="37.3098410">
    <ele>2772.2</ele>
    <time>2026-06-20T14:42:28Z</time>
   </trkpt>
   <trkpt lat="-3.1309450" lon="37.3098500">
    <ele>2772.4</ele>
    <time>2026-06-20T14:42:29Z</time>
   </trkpt>
   <trkpt lat="-3.1309410" lon="37.3098540">
    <ele>2772.5</ele>
    <time>2026-06-20T14:42:30Z</time>
   </trkpt>
   <trkpt lat="-3.1309470" lon="37.3098560">
    <ele>2772.6</ele>
    <time>2026-06-20T14:42:31Z</time>
   </trkpt>
   <trkpt lat="-3.1309480" lon="37.3098590">
    <ele>2772.7</ele>
    <time>2026-06-20T14:42:32Z</time>
   </trkpt>
   <trkpt lat="-3.1309460" lon="37.3098630">
    <ele>2772.8</ele>
    <time>2026-06-20T14:42:33Z</time>
   </trkpt>
   <trkpt lat="-3.1309550" lon="37.3098680">
    <ele>2773.0</ele>
    <time>2026-06-20T14:42:34Z</time>
   </trkpt>
   <trkpt lat="-3.1309650" lon="37.3098780">
    <ele>2773.2</ele>
    <time>2026-06-20T14:42:35Z</time>
   </trkpt>
   <trkpt lat="-3.1309600" lon="37.3098810">
    <ele>2773.4</ele>
    <time>2026-06-20T14:42:36Z</time>
   </trkpt>
   <trkpt lat="-3.1309550" lon="37.3098890">
    <ele>2773.5</ele>
    <time>2026-06-20T14:42:37Z</time>
   </trkpt>
   <trkpt lat="-3.1309730" lon="37.3098980">
    <ele>2774.0</ele>
    <time>2026-06-20T14:42:38Z</time>
   </trkpt>
   <trkpt lat="-3.1309690" lon="37.3098890">
    <ele>2774.2</ele>
    <time>2026-06-20T14:42:39Z</time>
   </trkpt>
   <trkpt lat="-3.1309750" lon="37.3098890">
    <ele>2774.3</ele>
    <time>2026-06-20T14:42:40Z</time>
   </trkpt>
   <trkpt lat="-3.1309670" lon="37.3098900">
    <ele>2774.5</ele>
    <time>2026-06-20T14:42:41Z</time>
   </trkpt>
   <trkpt lat="-3.1309670" lon="37.3098680">
    <ele>2774.9</ele>
    <time>2026-06-20T14:42:42Z</time>
   </trkpt>
   <trkpt lat="-3.1309610" lon="37.3098720">
    <ele>2775.1</ele>
    <time>2026-06-20T14:42:43Z</time>
   </trkpt>
   <trkpt lat="-3.1309560" lon="37.3098700">
    <ele>2775.2</ele>
    <time>2026-06-20T14:42:44Z</time>
   </trkpt>
   <trkpt lat="-3.1309560" lon="37.3098730">
    <ele>2775.3</ele>
    <time>2026-06-20T14:42:45Z</time>
   </trkpt>
   <trkpt lat="-3.1309480" lon="37.3098740">
    <ele>2775.4</ele>
    <time>2026-06-20T14:42:46Z</time>
   </trkpt>
   <trkpt lat="-3.1309400" lon="37.3098800">
    <ele>2775.7</ele>
    <time>2026-06-20T14:42:47Z</time>
   </trkpt>
   <trkpt lat="-3.1309370" lon="37.3098860">
    <ele>2775.8</ele>
    <time>2026-06-20T14:42:48Z</time>
   </trkpt>
   <trkpt lat="-3.1309310" lon="37.3098840">
    <ele>2775.9</ele>
    <time>2026-06-20T14:42:49Z</time>
   </trkpt>
   <trkpt lat="-3.1309220" lon="37.3098910">
    <ele>2776.2</ele>
    <time>2026-06-20T14:42:50Z</time>
   </trkpt>
   <trkpt lat="-3.1309030" lon="37.3098980">
    <ele>2776.7</ele>
    <time>2026-06-20T14:42:51Z</time>
   </trkpt>
   <trkpt lat="-3.1308960" lon="37.3098960">
    <ele>2776.8</ele>
    <time>2026-06-20T14:42:52Z</time>
   </trkpt>
   <trkpt lat="-3.1308890" lon="37.3098910">
    <ele>2777.0</ele>
    <time>2026-06-20T14:42:53Z</time>
   </trkpt>
   <trkpt lat="-3.1308880" lon="37.3099010">
    <ele>2777.2</ele>
    <time>2026-06-20T14:42:54Z</time>
   </trkpt>
   <trkpt lat="-3.1308880" lon="37.3099010">
    <ele>2777.2</ele>
    <time>2026-06-20T14:42:55Z</time>
   </trkpt>
   <trkpt lat="-3.1308840" lon="37.3098910">
    <ele>2777.5</ele>
    <time>2026-06-20T14:42:56Z</time>
   </trkpt>
   <trkpt lat="-3.1308890" lon="37.3098960">
    <ele>2777.6</ele>
    <time>2026-06-20T14:42:57Z</time>
   </trkpt>
   <trkpt lat="-3.1308880" lon="37.3098870">
    <ele>2777.8</ele>
    <time>2026-06-20T14:42:58Z</time>
   </trkpt>
   <trkpt lat="-3.1308910" lon="37.3098880">
    <ele>2777.9</ele>
    <time>2026-06-20T14:42:59Z</time>
   </trkpt>
   <trkpt lat="-3.1308900" lon="37.3098870">
    <ele>2777.9</ele>
    <time>2026-06-20T14:43:00Z</time>
   </trkpt>
   <trkpt lat="-3.1308860" lon="37.3098890">
    <ele>2778.0</ele>
    <time>2026-06-20T14:43:01Z</time>
   </trkpt>
   <trkpt lat="-3.1308810" lon="37.3098910">
    <ele>2778.2</ele>
    <time>2026-06-20T14:43:02Z</time>
   </trkpt>
   <trkpt lat="-3.1308720" lon="37.3098890">
    <ele>2778.4</ele>
    <time>2026-06-20T14:43:03Z</time>
   </trkpt>
   <trkpt lat="-3.1308690" lon="37.3098880">
    <ele>2778.4</ele>
    <time>2026-06-20T14:43:04Z</time>
   </trkpt>
   <trkpt lat="-3.1308610" lon="37.3098870">
    <ele>2778.6</ele>
    <time>2026-06-20T14:43:05Z</time>
   </trkpt>
   <trkpt lat="-3.1308540" lon="37.3098860">
    <ele>2778.8</ele>
    <time>2026-06-20T14:43:06Z</time>
   </trkpt>
   <trkpt lat="-3.1308570" lon="37.3098900">
    <ele>2778.9</ele>
    <time>2026-06-20T14:43:07Z</time>
   </trkpt>
   <trkpt lat="-3.1308540" lon="37.3098920">
    <ele>2779.0</ele>
    <time>2026-06-20T14:43:08Z</time>
   </trkpt>
   <trkpt lat="-3.1308520" lon="37.3098890">
    <ele>2779.0</ele>
    <time>2026-06-20T14:43:09Z</time>
   </trkpt>
   <trkpt lat="-3.1308450" lon="37.3098940">
    <ele>2779.2</ele>
    <time>2026-06-20T14:43:10Z</time>
   </trkpt>
   <trkpt lat="-3.1308360" lon="37.3098930">
    <ele>2779.4</ele>
    <time>2026-06-20T14:43:11Z</time>
   </trkpt>
   <trkpt lat="-3.1308350" lon="37.3098960">
    <ele>2779.5</ele>
    <time>2026-06-20T14:43:12Z</time>
   </trkpt>
   <trkpt lat="-3.1308330" lon="37.3099060">
    <ele>2779.7</ele>
    <time>2026-06-20T14:43:13Z</time>
   </trkpt>
   <trkpt lat="-3.1308310" lon="37.3099100">
    <ele>2779.8</ele>
    <time>2026-06-20T14:43:14Z</time>
   </trkpt>
   <trkpt lat="-3.1308290" lon="37.3099140">
    <ele>2779.9</ele>
    <time>2026-06-20T14:43:15Z</time>
   </trkpt>
   <trkpt lat="-3.1308230" lon="37.3099190">
    <ele>2780.1</ele>
    <time>2026-06-20T14:43:16Z</time>
   </trkpt>
   <trkpt lat="-3.1308210" lon="37.3099170">
    <ele>2780.1</ele>
    <time>2026-06-20T14:43:17Z</time>
   </trkpt>
   <trkpt lat="-3.1308200" lon="37.3099180">
    <ele>2780.2</ele>
    <time>2026-06-20T14:43:18Z</time>
   </trkpt>
   <trkpt lat="-3.1308130" lon="37.3099200">
    <ele>2780.3</ele>
    <time>2026-06-20T14:43:19Z</time>
   </trkpt>
   <trkpt lat="-3.1308110" lon="37.3099230">
    <ele>2780.4</ele>
    <time>2026-06-20T14:43:20Z</time>
   </trkpt>
   <trkpt lat="-3.1308080" lon="37.3099240">
    <ele>2780.5</ele>
    <time>2026-06-20T14:43:21Z</time>
   </trkpt>
   <trkpt lat="-3.1308010" lon="37.3099370">
    <ele>2780.8</ele>
    <time>2026-06-20T14:43:22Z</time>
   </trkpt>
   <trkpt lat="-3.1307960" lon="37.3099470">
    <ele>2781.0</ele>
    <time>2026-06-20T14:43:23Z</time>
   </trkpt>
   <trkpt lat="-3.1307890" lon="37.3099610">
    <ele>2781.4</ele>
    <time>2026-06-20T14:43:24Z</time>
   </trkpt>
   <trkpt lat="-3.1307850" lon="37.3099620">
    <ele>2781.4</ele>
    <time>2026-06-20T14:43:25Z</time>
   </trkpt>
   <trkpt lat="-3.1307850" lon="37.3099680">
    <ele>2781.6</ele>
    <time>2026-06-20T14:43:26Z</time>
   </trkpt>
   <trkpt lat="-3.1307800" lon="37.3099670">
    <ele>2781.7</ele>
    <time>2026-06-20T14:43:27Z</time>
   </trkpt>
   <trkpt lat="-3.1307740" lon="37.3099770">
    <ele>2781.9</ele>
    <time>2026-06-20T14:43:28Z</time>
   </trkpt>
   <trkpt lat="-3.1307720" lon="37.3099760">
    <ele>2781.9</ele>
    <time>2026-06-20T14:43:29Z</time>
   </trkpt>
   <trkpt lat="-3.1307710" lon="37.3099840">
    <ele>2782.1</ele>
    <time>2026-06-20T14:43:30Z</time>
   </trkpt>
   <trkpt lat="-3.1307680" lon="37.3099870">
    <ele>2782.2</ele>
    <time>2026-06-20T14:43:31Z</time>
   </trkpt>
   <trkpt lat="-3.1307670" lon="37.3099890">
    <ele>2782.2</ele>
    <time>2026-06-20T14:43:32Z</time>
   </trkpt>
   <trkpt lat="-3.1307590" lon="37.3099890">
    <ele>2782.4</ele>
    <time>2026-06-20T14:43:33Z</time>
   </trkpt>
   <trkpt lat="-3.1307570" lon="37.3099920">
    <ele>2782.5</ele>
    <time>2026-06-20T14:43:34Z</time>
   </trkpt>
   <trkpt lat="-3.1307570" lon="37.3099930">
    <ele>2782.5</ele>
    <time>2026-06-20T14:43:35Z</time>
   </trkpt>
   <trkpt lat="-3.1307550" lon="37.3099920">
    <ele>2782.5</ele>
    <time>2026-06-20T14:43:36Z</time>
   </trkpt>
   <trkpt lat="-3.1307490" lon="37.3099970">
    <ele>2782.7</ele>
    <time>2026-06-20T14:43:37Z</time>
   </trkpt>
   <trkpt lat="-3.1307490" lon="37.3100010">
    <ele>2782.8</ele>
    <time>2026-06-20T14:43:38Z</time>
   </trkpt>
   <trkpt lat="-3.1307460" lon="37.3100070">
    <ele>2782.9</ele>
    <time>2026-06-20T14:43:39Z</time>
   </trkpt>
   <trkpt lat="-3.1307470" lon="37.3100040">
    <ele>2783.0</ele>
    <time>2026-06-20T14:43:40Z</time>
   </trkpt>
   <trkpt lat="-3.1307460" lon="37.3100070">
    <ele>2783.0</ele>
    <time>2026-06-20T14:43:41Z</time>
   </trkpt>
   <trkpt lat="-3.1307450" lon="37.3100100">
    <ele>2783.1</ele>
    <time>2026-06-20T14:43:42Z</time>
   </trkpt>
   <trkpt lat="-3.1307450" lon="37.3100150">
    <ele>2783.2</ele>
    <time>2026-06-20T14:43:43Z</time>
   </trkpt>
   <trkpt lat="-3.1307510" lon="37.3100170">
    <ele>2783.3</ele>
    <time>2026-06-20T14:43:44Z</time>
   </trkpt>
   <trkpt lat="-3.1307520" lon="37.3100150">
    <ele>2783.3</ele>
    <time>2026-06-20T14:43:45Z</time>
   </trkpt>
   <trkpt lat="-3.1307600" lon="37.3100100">
    <ele>2783.5</ele>
    <time>2026-06-20T14:43:46Z</time>
   </trkpt>
   <trkpt lat="-3.1307550" lon="37.3100070">
    <ele>2783.6</ele>
    <time>2026-06-20T14:43:47Z</time>
   </trkpt>
   <trkpt lat="-3.1307510" lon="37.3100080">
    <ele>2783.7</ele>
    <time>2026-06-20T14:43:48Z</time>
   </trkpt>
   <trkpt lat="-3.1307440" lon="37.3100120">
    <ele>2783.8</ele>
    <time>2026-06-20T14:43:49Z</time>
   </trkpt>
   <trkpt lat="-3.1307380" lon="37.3100100">
    <ele>2784.0</ele>
    <time>2026-06-20T14:43:50Z</time>
   </trkpt>
   <trkpt lat="-3.1307360" lon="37.3100140">
    <ele>2784.0</ele>
    <time>2026-06-20T14:43:51Z</time>
   </trkpt>
   <trkpt lat="-3.1307250" lon="37.3100180">
    <ele>2784.3</ele>
    <time>2026-06-20T14:43:53Z</time>
   </trkpt>
   <trkpt lat="-3.1307180" lon="37.3100200">
    <ele>2784.4</ele>
    <time>2026-06-20T14:43:54Z</time>
   </trkpt>
   <trkpt lat="-3.1307130" lon="37.3100240">
    <ele>2784.5</ele>
    <time>2026-06-20T14:43:55Z</time>
   </trkpt>
   <trkpt lat="-3.1307100" lon="37.3100290">
    <ele>2784.6</ele>
    <time>2026-06-20T14:43:56Z</time>
   </trkpt>
   <trkpt lat="-3.1307060" lon="37.3100360">
    <ele>2784.8</ele>
    <time>2026-06-20T14:43:57Z</time>
   </trkpt>
   <trkpt lat="-3.1307080" lon="37.3100350">
    <ele>2784.8</ele>
    <time>2026-06-20T14:43:58Z</time>
   </trkpt>
   <trkpt lat="-3.1307110" lon="37.3100440">
    <ele>2785.0</ele>
    <time>2026-06-20T14:43:59Z</time>
   </trkpt>
   <trkpt lat="-3.1307090" lon="37.3100550">
    <ele>2785.2</ele>
    <time>2026-06-20T14:44:00Z</time>
   </trkpt>
   <trkpt lat="-3.1307070" lon="37.3100650">
    <ele>2785.4</ele>
    <time>2026-06-20T14:44:01Z</time>
   </trkpt>
   <trkpt lat="-3.1307060" lon="37.3100650">
    <ele>2785.4</ele>
    <time>2026-06-20T14:44:02Z</time>
   </trkpt>
   <trkpt lat="-3.1307040" lon="37.3100690">
    <ele>2785.5</ele>
    <time>2026-06-20T14:44:03Z</time>
   </trkpt>
   <trkpt lat="-3.1307020" lon="37.3100720">
    <ele>2785.6</ele>
    <time>2026-06-20T14:44:04Z</time>
   </trkpt>
   <trkpt lat="-3.1306990" lon="37.3100720">
    <ele>2785.6</ele>
    <time>2026-06-20T14:44:05Z</time>
   </trkpt>
   <trkpt lat="-3.1306900" lon="37.3100790">
    <ele>2785.8</ele>
    <time>2026-06-20T14:44:06Z</time>
   </trkpt>
   <trkpt lat="-3.1306890" lon="37.3100800">
    <ele>2785.9</ele>
    <time>2026-06-20T14:44:07Z</time>
   </trkpt>
   <trkpt lat="-3.1306950" lon="37.3100830">
    <ele>2786.0</ele>
    <time>2026-06-20T14:44:08Z</time>
   </trkpt>
   <trkpt lat="-3.1306980" lon="37.3100790">
    <ele>2786.1</ele>
    <time>2026-06-20T14:44:09Z</time>
   </trkpt>
   <trkpt lat="-3.1306990" lon="37.3100780">
    <ele>2786.1</ele>
    <time>2026-06-20T14:44:10Z</time>
   </trkpt>
   <trkpt lat="-3.1306920" lon="37.3100900">
    <ele>2786.4</ele>
    <time>2026-06-20T14:44:11Z</time>
   </trkpt>
   <trkpt lat="-3.1306860" lon="37.3101000">
    <ele>2786.6</ele>
    <time>2026-06-20T14:44:12Z</time>
   </trkpt>
   <trkpt lat="-3.1306880" lon="37.3101020">
    <ele>2786.6</ele>
    <time>2026-06-20T14:44:13Z</time>
   </trkpt>
   <trkpt lat="-3.1306860" lon="37.3101100">
    <ele>2786.8</ele>
    <time>2026-06-20T14:44:14Z</time>
   </trkpt>
   <trkpt lat="-3.1306850" lon="37.3101230">
    <ele>2787.0</ele>
    <time>2026-06-20T14:44:15Z</time>
   </trkpt>
   <trkpt lat="-3.1306850" lon="37.3101360">
    <ele>2787.2</ele>
    <time>2026-06-20T14:44:16Z</time>
   </trkpt>
   <trkpt lat="-3.1306840" lon="37.3101410">
    <ele>2787.3</ele>
    <time>2026-06-20T14:44:17Z</time>
   </trkpt>
   <trkpt lat="-3.1306840" lon="37.3101490">
    <ele>2787.5</ele>
    <time>2026-06-20T14:44:18Z</time>
   </trkpt>
   <trkpt lat="-3.1306790" lon="37.3101590">
    <ele>2787.7</ele>
    <time>2026-06-20T14:44:19Z</time>
   </trkpt>
   <trkpt lat="-3.1306710" lon="37.3101590">
    <ele>2787.8</ele>
    <time>2026-06-20T14:44:20Z</time>
   </trkpt>
   <trkpt lat="-3.1306670" lon="37.3101580">
    <ele>2787.9</ele>
    <time>2026-06-20T14:44:21Z</time>
   </trkpt>
   <trkpt lat="-3.1306620" lon="37.3101610">
    <ele>2788.0</ele>
    <time>2026-06-20T14:44:22Z</time>
   </trkpt>
   <trkpt lat="-3.1306550" lon="37.3101700">
    <ele>2788.2</ele>
    <time>2026-06-20T14:44:23Z</time>
   </trkpt>
   <trkpt lat="-3.1306530" lon="37.3101770">
    <ele>2788.3</ele>
    <time>2026-06-20T14:44:24Z</time>
   </trkpt>
   <trkpt lat="-3.1306520" lon="37.3101810">
    <ele>2788.4</ele>
    <time>2026-06-20T14:44:25Z</time>
   </trkpt>
   <trkpt lat="-3.1306490" lon="37.3101830">
    <ele>2788.4</ele>
    <time>2026-06-20T14:44:26Z</time>
   </trkpt>
   <trkpt lat="-3.1306380" lon="37.3101900">
    <ele>2788.6</ele>
    <time>2026-06-20T14:44:27Z</time>
   </trkpt>
   <trkpt lat="-3.1306350" lon="37.3101960">
    <ele>2788.7</ele>
    <time>2026-06-20T14:44:28Z</time>
   </trkpt>
   <trkpt lat="-3.1306290" lon="37.3102050">
    <ele>2788.9</ele>
    <time>2026-06-20T14:44:29Z</time>
   </trkpt>
   <trkpt lat="-3.1306170" lon="37.3102100">
    <ele>2789.1</ele>
    <time>2026-06-20T14:44:30Z</time>
   </trkpt>
   <trkpt lat="-3.1306230" lon="37.3102230">
    <ele>2789.4</ele>
    <time>2026-06-20T14:44:31Z</time>
   </trkpt>
   <trkpt lat="-3.1306250" lon="37.3102260">
    <ele>2789.4</ele>
    <time>2026-06-20T14:44:32Z</time>
   </trkpt>
   <trkpt lat="-3.1306190" lon="37.3102240">
    <ele>2789.5</ele>
    <time>2026-06-20T14:44:33Z</time>
   </trkpt>
   <trkpt lat="-3.1306120" lon="37.3102310">
    <ele>2789.7</ele>
    <time>2026-06-20T14:44:34Z</time>
   </trkpt>
   <trkpt lat="-3.1306070" lon="37.3102320">
    <ele>2789.7</ele>
    <time>2026-06-20T14:44:35Z</time>
   </trkpt>
   <trkpt lat="-3.1306070" lon="37.3102320">
    <ele>2789.7</ele>
    <time>2026-06-20T14:44:36Z</time>
   </trkpt>
   <trkpt lat="-3.1306070" lon="37.3102320">
    <ele>2789.7</ele>
    <time>2026-06-20T14:44:37Z</time>
   </trkpt>
   <trkpt lat="-3.1306070" lon="37.3102320">
    <ele>2789.7</ele>
    <time>2026-06-20T14:44:38Z</time>
   </trkpt>
   <trkpt lat="-3.1305980" lon="37.3102340">
    <ele>2789.9</ele>
    <time>2026-06-20T14:44:39Z</time>
   </trkpt>
   <trkpt lat="-3.1305940" lon="37.3102420">
    <ele>2790.0</ele>
    <time>2026-06-20T14:44:40Z</time>
   </trkpt>
   <trkpt lat="-3.1305940" lon="37.3102460">
    <ele>2790.0</ele>
    <time>2026-06-20T14:44:41Z</time>
   </trkpt>
   <trkpt lat="-3.1306010" lon="37.3102470">
    <ele>2790.1</ele>
    <time>2026-06-20T14:44:42Z</time>
   </trkpt>
   <trkpt lat="-3.1306060" lon="37.3102440">
    <ele>2790.2</ele>
    <time>2026-06-20T14:44:43Z</time>
   </trkpt>
   <trkpt lat="-3.1306060" lon="37.3102440">
    <ele>2790.2</ele>
    <time>2026-06-20T14:44:44Z</time>
   </trkpt>
   <trkpt lat="-3.1306120" lon="37.3102540">
    <ele>2790.4</ele>
    <time>2026-06-20T14:44:45Z</time>
   </trkpt>
   <trkpt lat="-3.1306090" lon="37.3102560">
    <ele>2790.4</ele>
    <time>2026-06-20T14:44:46Z</time>
   </trkpt>
   <trkpt lat="-3.1306050" lon="37.3102580">
    <ele>2790.5</ele>
    <time>2026-06-20T14:44:47Z</time>
   </trkpt>
   <trkpt lat="-3.1306020" lon="37.3102650">
    <ele>2790.6</ele>
    <time>2026-06-20T14:44:48Z</time>
   </trkpt>
   <trkpt lat="-3.1306000" lon="37.3102600">
    <ele>2790.7</ele>
    <time>2026-06-20T14:44:49Z</time>
   </trkpt>
   <trkpt lat="-3.1305980" lon="37.3102540">
    <ele>2790.8</ele>
    <time>2026-06-20T14:44:50Z</time>
   </trkpt>
   <trkpt lat="-3.1305880" lon="37.3102590">
    <ele>2790.9</ele>
    <time>2026-06-20T14:44:51Z</time>
   </trkpt>
   <trkpt lat="-3.1305860" lon="37.3102620">
    <ele>2790.9</ele>
    <time>2026-06-20T14:44:52Z</time>
   </trkpt>
   <trkpt lat="-3.1305860" lon="37.3102610">
    <ele>2791.0</ele>
    <time>2026-06-20T14:44:53Z</time>
   </trkpt>
   <trkpt lat="-3.1305820" lon="37.3102620">
    <ele>2791.0</ele>
    <time>2026-06-20T14:44:54Z</time>
   </trkpt>
   <trkpt lat="-3.1305800" lon="37.3102630">
    <ele>2791.0</ele>
    <time>2026-06-20T14:44:55Z</time>
   </trkpt>
   <trkpt lat="-3.1305740" lon="37.3102580">
    <ele>2791.1</ele>
    <time>2026-06-20T14:44:56Z</time>
   </trkpt>
   <trkpt lat="-3.1305700" lon="37.3102600">
    <ele>2791.2</ele>
    <time>2026-06-20T14:44:57Z</time>
   </trkpt>
   <trkpt lat="-3.1305640" lon="37.3102550">
    <ele>2791.3</ele>
    <time>2026-06-20T14:44:58Z</time>
   </trkpt>
   <trkpt lat="-3.1305530" lon="37.3102460">
    <ele>2791.4</ele>
    <time>2026-06-20T14:44:59Z</time>
   </trkpt>
   <trkpt lat="-3.1305400" lon="37.3102420">
    <ele>2791.6</ele>
    <time>2026-06-20T14:45:00Z</time>
   </trkpt>
   <trkpt lat="-3.1305350" lon="37.3102380">
    <ele>2791.6</ele>
    <time>2026-06-20T14:45:01Z</time>
   </trkpt>
   <trkpt lat="-3.1305240" lon="37.3102420">
    <ele>2791.8</ele>
    <time>2026-06-20T14:45:02Z</time>
   </trkpt>
   <trkpt lat="-3.1305190" lon="37.3102380">
    <ele>2791.8</ele>
    <time>2026-06-20T14:45:03Z</time>
   </trkpt>
   <trkpt lat="-3.1305130" lon="37.3102440">
    <ele>2791.9</ele>
    <time>2026-06-20T14:45:04Z</time>
   </trkpt>
   <trkpt lat="-3.1305100" lon="37.3102350">
    <ele>2792.0</ele>
    <time>2026-06-20T14:45:05Z</time>
   </trkpt>
   <trkpt lat="-3.1304890" lon="37.3102160">
    <ele>2792.3</ele>
    <time>2026-06-20T14:45:06Z</time>
   </trkpt>
   <trkpt lat="-3.1304830" lon="37.3102160">
    <ele>2792.3</ele>
    <time>2026-06-20T14:45:07Z</time>
   </trkpt>
   <trkpt lat="-3.1304770" lon="37.3102180">
    <ele>2792.4</ele>
    <time>2026-06-20T14:45:08Z</time>
   </trkpt>
   <trkpt lat="-3.1304790" lon="37.3102360">
    <ele>2792.5</ele>
    <time>2026-06-20T14:45:09Z</time>
   </trkpt>
   <trkpt lat="-3.1304760" lon="37.3102320">
    <ele>2792.6</ele>
    <time>2026-06-20T14:45:10Z</time>
   </trkpt>
   <trkpt lat="-3.1304660" lon="37.3102190">
    <ele>2792.7</ele>
    <time>2026-06-20T14:45:11Z</time>
   </trkpt>
   <trkpt lat="-3.1304500" lon="37.3102020">
    <ele>2792.9</ele>
    <time>2026-06-20T14:45:12Z</time>
   </trkpt>
   <trkpt lat="-3.1304490" lon="37.3101990">
    <ele>2792.9</ele>
    <time>2026-06-20T14:45:13Z</time>
   </trkpt>
   <trkpt lat="-3.1304460" lon="37.3102050">
    <ele>2792.9</ele>
    <time>2026-06-20T14:45:15Z</time>
   </trkpt>
   <trkpt lat="-3.1304450" lon="37.3102070">
    <ele>2793.0</ele>
    <time>2026-06-20T14:45:16Z</time>
   </trkpt>
   <trkpt lat="-3.1304460" lon="37.3102090">
    <ele>2793.0</ele>
    <time>2026-06-20T14:45:17Z</time>
   </trkpt>
   <trkpt lat="-3.1304430" lon="37.3102170">
    <ele>2793.0</ele>
    <time>2026-06-20T14:45:18Z</time>
   </trkpt>
   <trkpt lat="-3.1304420" lon="37.3102300">
    <ele>2793.1</ele>
    <time>2026-06-20T14:45:19Z</time>
   </trkpt>
   <trkpt lat="-3.1304480" lon="37.3102350">
    <ele>2793.2</ele>
    <time>2026-06-20T14:45:20Z</time>
   </trkpt>
   <trkpt lat="-3.1304440" lon="37.3102370">
    <ele>2793.2</ele>
    <time>2026-06-20T14:45:21Z</time>
   </trkpt>
   <trkpt lat="-3.1304320" lon="37.3102500">
    <ele>2793.3</ele>
    <time>2026-06-20T14:45:22Z</time>
   </trkpt>
   <trkpt lat="-3.1304310" lon="37.3102490">
    <ele>2793.3</ele>
    <time>2026-06-20T14:45:23Z</time>
   </trkpt>
   <trkpt lat="-3.1304250" lon="37.3102530">
    <ele>2793.4</ele>
    <time>2026-06-20T14:45:24Z</time>
   </trkpt>
   <trkpt lat="-3.1304230" lon="37.3102590">
    <ele>2793.4</ele>
    <time>2026-06-20T14:45:25Z</time>
   </trkpt>
   <trkpt lat="-3.1304180" lon="37.3102630">
    <ele>2793.5</ele>
    <time>2026-06-20T14:45:26Z</time>
   </trkpt>
   <trkpt lat="-3.1304110" lon="37.3102660">
    <ele>2793.5</ele>
    <time>2026-06-20T14:45:27Z</time>
   </trkpt>
   <trkpt lat="-3.1303980" lon="37.3102590">
    <ele>2793.7</ele>
    <time>2026-06-20T14:45:28Z</time>
   </trkpt>
   <trkpt lat="-3.1303920" lon="37.3102610">
    <ele>2793.7</ele>
    <time>2026-06-20T14:45:29Z</time>
   </trkpt>
   <trkpt lat="-3.1303820" lon="37.3102700">
    <ele>2793.8</ele>
    <time>2026-06-20T14:45:30Z</time>
   </trkpt>
   <trkpt lat="-3.1303910" lon="37.3102560">
    <ele>2793.9</ele>
    <time>2026-06-20T14:45:31Z</time>
   </trkpt>
   <trkpt lat="-3.1303810" lon="37.3102580">
    <ele>2794.0</ele>
    <time>2026-06-20T14:45:32Z</time>
   </trkpt>
   <trkpt lat="-3.1303750" lon="37.3102620">
    <ele>2794.0</ele>
    <time>2026-06-20T14:45:33Z</time>
   </trkpt>
   <trkpt lat="-3.1303660" lon="37.3102680">
    <ele>2794.1</ele>
    <time>2026-06-20T14:45:34Z</time>
   </trkpt>
   <trkpt lat="-3.1303610" lon="37.3102770">
    <ele>2794.2</ele>
    <time>2026-06-20T14:45:35Z</time>
   </trkpt>
   <trkpt lat="-3.1303580" lon="37.3102840">
    <ele>2794.3</ele>
    <time>2026-06-20T14:45:36Z</time>
   </trkpt>
   <trkpt lat="-3.1303430" lon="37.3102780">
    <ele>2794.4</ele>
    <time>2026-06-20T14:45:37Z</time>
   </trkpt>
   <trkpt lat="-3.1303370" lon="37.3102800">
    <ele>2794.5</ele>
    <time>2026-06-20T14:45:38Z</time>
   </trkpt>
   <trkpt lat="-3.1303360" lon="37.3102880">
    <ele>2794.5</ele>
    <time>2026-06-20T14:45:39Z</time>
   </trkpt>
   <trkpt lat="-3.1303360" lon="37.3102770">
    <ele>2794.6</ele>
    <time>2026-06-20T14:45:40Z</time>
   </trkpt>
   <trkpt lat="-3.1303350" lon="37.3102730">
    <ele>2794.6</ele>
    <time>2026-06-20T14:45:41Z</time>
   </trkpt>
   <trkpt lat="-3.1303310" lon="37.3102780">
    <ele>2794.7</ele>
    <time>2026-06-20T14:45:42Z</time>
   </trkpt>
   <trkpt lat="-3.1303190" lon="37.3102780">
    <ele>2794.8</ele>
    <time>2026-06-20T14:45:43Z</time>
   </trkpt>
   <trkpt lat="-3.1303120" lon="37.3102850">
    <ele>2794.9</ele>
    <time>2026-06-20T14:45:44Z</time>
   </trkpt>
   <trkpt lat="-3.1303130" lon="37.3102820">
    <ele>2794.9</ele>
    <time>2026-06-20T14:45:45Z</time>
   </trkpt>
   <trkpt lat="-3.1303160" lon="37.3102790">
    <ele>2795.0</ele>
    <time>2026-06-20T14:45:46Z</time>
   </trkpt>
   <trkpt lat="-3.1303090" lon="37.3102800">
    <ele>2795.1</ele>
    <time>2026-06-20T14:45:47Z</time>
   </trkpt>
   <trkpt lat="-3.1302990" lon="37.3102860">
    <ele>2795.2</ele>
    <time>2026-06-20T14:45:48Z</time>
   </trkpt>
   <trkpt lat="-3.1303000" lon="37.3102960">
    <ele>2795.3</ele>
    <time>2026-06-20T14:45:49Z</time>
   </trkpt>
   <trkpt lat="-3.1303010" lon="37.3103050">
    <ele>2795.4</ele>
    <time>2026-06-20T14:45:50Z</time>
   </trkpt>
   <trkpt lat="-3.1302950" lon="37.3103070">
    <ele>2795.4</ele>
    <time>2026-06-20T14:45:51Z</time>
   </trkpt>
   <trkpt lat="-3.1302870" lon="37.3103130">
    <ele>2795.5</ele>
    <time>2026-06-20T14:45:52Z</time>
   </trkpt>
   <trkpt lat="-3.1302760" lon="37.3103240">
    <ele>2795.7</ele>
    <time>2026-06-20T14:45:53Z</time>
   </trkpt>
   <trkpt lat="-3.1302700" lon="37.3103330">
    <ele>2795.8</ele>
    <time>2026-06-20T14:45:54Z</time>
   </trkpt>
   <trkpt lat="-3.1302610" lon="37.3103350">
    <ele>2795.9</ele>
    <time>2026-06-20T14:45:55Z</time>
   </trkpt>
   <trkpt lat="-3.1302510" lon="37.3103480">
    <ele>2796.1</ele>
    <time>2026-06-20T14:45:56Z</time>
   </trkpt>
   <trkpt lat="-3.1302470" lon="37.3103450">
    <ele>2796.2</ele>
    <time>2026-06-20T14:45:57Z</time>
   </trkpt>
   <trkpt lat="-3.1302460" lon="37.3103460">
    <ele>2796.2</ele>
    <time>2026-06-20T14:45:58Z</time>
   </trkpt>
   <trkpt lat="-3.1302470" lon="37.3103520">
    <ele>2796.3</ele>
    <time>2026-06-20T14:45:59Z</time>
   </trkpt>
   <trkpt lat="-3.1302500" lon="37.3103570">
    <ele>2796.3</ele>
    <time>2026-06-20T14:46:00Z</time>
   </trkpt>
   <trkpt lat="-3.1302480" lon="37.3103590">
    <ele>2796.4</ele>
    <time>2026-06-20T14:46:01Z</time>
   </trkpt>
   <trkpt lat="-3.1302350" lon="37.3103600">
    <ele>2796.5</ele>
    <time>2026-06-20T14:46:02Z</time>
   </trkpt>
   <trkpt lat="-3.1302250" lon="37.3103640">
    <ele>2796.7</ele>
    <time>2026-06-20T14:46:03Z</time>
   </trkpt>
   <trkpt lat="-3.1302150" lon="37.3103590">
    <ele>2796.8</ele>
    <time>2026-06-20T14:46:04Z</time>
   </trkpt>
   <trkpt lat="-3.1302150" lon="37.3103580">
    <ele>2796.8</ele>
    <time>2026-06-20T14:46:05Z</time>
   </trkpt>
   <trkpt lat="-3.1302160" lon="37.3103610">
    <ele>2796.9</ele>
    <time>2026-06-20T14:46:06Z</time>
   </trkpt>
   <trkpt lat="-3.1302200" lon="37.3103700">
    <ele>2797.0</ele>
    <time>2026-06-20T14:46:07Z</time>
   </trkpt>
   <trkpt lat="-3.1302240" lon="37.3103780">
    <ele>2797.1</ele>
    <time>2026-06-20T14:46:08Z</time>
   </trkpt>
   <trkpt lat="-3.1302200" lon="37.3103840">
    <ele>2797.3</ele>
    <time>2026-06-20T14:46:09Z</time>
   </trkpt>
   <trkpt lat="-3.1302210" lon="37.3103840">
    <ele>2797.3</ele>
    <time>2026-06-20T14:46:10Z</time>
   </trkpt>
   <trkpt lat="-3.1302170" lon="37.3103840">
    <ele>2797.3</ele>
    <time>2026-06-20T14:46:11Z</time>
   </trkpt>
   <trkpt lat="-3.1302190" lon="37.3103910">
    <ele>2797.4</ele>
    <time>2026-06-20T14:46:12Z</time>
   </trkpt>
   <trkpt lat="-3.1302150" lon="37.3103910">
    <ele>2797.5</ele>
    <time>2026-06-20T14:46:13Z</time>
   </trkpt>
   <trkpt lat="-3.1302140" lon="37.3103900">
    <ele>2797.5</ele>
    <time>2026-06-20T14:46:14Z</time>
   </trkpt>
   <trkpt lat="-3.1302170" lon="37.3103890">
    <ele>2797.5</ele>
    <time>2026-06-20T14:46:15Z</time>
   </trkpt>
   <trkpt lat="-3.1302260" lon="37.3103890">
    <ele>2797.7</ele>
    <time>2026-06-20T14:46:16Z</time>
   </trkpt>
   <trkpt lat="-3.1302300" lon="37.3103910">
    <ele>2797.7</ele>
    <time>2026-06-20T14:46:17Z</time>
   </trkpt>
   <trkpt lat="-3.1302340" lon="37.3103930">
    <ele>2797.8</ele>
    <time>2026-06-20T14:46:18Z</time>
   </trkpt>
   <trkpt lat="-3.1302350" lon="37.3104000">
    <ele>2797.9</ele>
    <time>2026-06-20T14:46:19Z</time>
   </trkpt>
   <trkpt lat="-3.1302410" lon="37.3103990">
    <ele>2798.0</ele>
    <time>2026-06-20T14:46:20Z</time>
   </trkpt>
   <trkpt lat="-3.1302390" lon="37.3103960">
    <ele>2798.0</ele>
    <time>2026-06-20T14:46:21Z</time>
   </trkpt>
   <trkpt lat="-3.1302320" lon="37.3104010">
    <ele>2798.2</ele>
    <time>2026-06-20T14:46:22Z</time>
   </trkpt>
   <trkpt lat="-3.1302400" lon="37.3104000">
    <ele>2798.3</ele>
    <time>2026-06-20T14:46:23Z</time>
   </trkpt>
   <trkpt lat="-3.1302300" lon="37.3104000">
    <ele>2798.4</ele>
    <time>2026-06-20T14:46:24Z</time>
   </trkpt>
   <trkpt lat="-3.1302280" lon="37.3104080">
    <ele>2798.5</ele>
    <time>2026-06-20T14:46:25Z</time>
   </trkpt>
   <trkpt lat="-3.1302300" lon="37.3104060">
    <ele>2798.6</ele>
    <time>2026-06-20T14:46:26Z</time>
   </trkpt>
   <trkpt lat="-3.1302330" lon="37.3104150">
    <ele>2798.7</ele>
    <time>2026-06-20T14:46:27Z</time>
   </trkpt>
   <trkpt lat="-3.1302310" lon="37.3104180">
    <ele>2798.8</ele>
    <time>2026-06-20T14:46:28Z</time>
   </trkpt>
   <trkpt lat="-3.1302360" lon="37.3104240">
    <ele>2798.9</ele>
    <time>2026-06-20T14:46:29Z</time>
   </trkpt>
   <trkpt lat="-3.1302380" lon="37.3104280">
    <ele>2799.0</ele>
    <time>2026-06-20T14:46:30Z</time>
   </trkpt>
   <trkpt lat="-3.1302350" lon="37.3104360">
    <ele>2799.1</ele>
    <time>2026-06-20T14:46:31Z</time>
   </trkpt>
   <trkpt lat="-3.1302300" lon="37.3104430">
    <ele>2799.2</ele>
    <time>2026-06-20T14:46:32Z</time>
   </trkpt>
   <trkpt lat="-3.1302210" lon="37.3104510">
    <ele>2799.4</ele>
    <time>2026-06-20T14:46:33Z</time>
   </trkpt>
   <trkpt lat="-3.1302150" lon="37.3104520">
    <ele>2799.5</ele>
    <time>2026-06-20T14:46:34Z</time>
   </trkpt>
   <trkpt lat="-3.1302110" lon="37.3104510">
    <ele>2799.6</ele>
    <time>2026-06-20T14:46:35Z</time>
   </trkpt>
   <trkpt lat="-3.1302050" lon="37.3104520">
    <ele>2799.7</ele>
    <time>2026-06-20T14:46:36Z</time>
   </trkpt>
   <trkpt lat="-3.1302060" lon="37.3104550">
    <ele>2799.7</ele>
    <time>2026-06-20T14:46:37Z</time>
   </trkpt>
   <trkpt lat="-3.1301990" lon="37.3104580">
    <ele>2799.8</ele>
    <time>2026-06-20T14:46:38Z</time>
   </trkpt>
   <trkpt lat="-3.1301940" lon="37.3104590">
    <ele>2799.9</ele>
    <time>2026-06-20T14:46:39Z</time>
   </trkpt>
   <trkpt lat="-3.1301880" lon="37.3104590">
    <ele>2800.0</ele>
    <time>2026-06-20T14:46:40Z</time>
   </trkpt>
   <trkpt lat="-3.1301790" lon="37.3104560">
    <ele>2800.1</ele>
    <time>2026-06-20T14:46:41Z</time>
   </trkpt>
   <trkpt lat="-3.1301680" lon="37.3104650">
    <ele>2800.4</ele>
    <time>2026-06-20T14:46:42Z</time>
   </trkpt>
   <trkpt lat="-3.1301630" lon="37.3104700">
    <ele>2800.5</ele>
    <time>2026-06-20T14:46:43Z</time>
   </trkpt>
   <trkpt lat="-3.1301550" lon="37.3104780">
    <ele>2800.7</ele>
    <time>2026-06-20T14:46:44Z</time>
   </trkpt>
   <trkpt lat="-3.1301480" lon="37.3104850">
    <ele>2800.8</ele>
    <time>2026-06-20T14:46:45Z</time>
   </trkpt>
   <trkpt lat="-3.1301410" lon="37.3104870">
    <ele>2800.9</ele>
    <time>2026-06-20T14:46:46Z</time>
   </trkpt>
   <trkpt lat="-3.1301360" lon="37.3104910">
    <ele>2801.0</ele>
    <time>2026-06-20T14:46:47Z</time>
   </trkpt>
   <trkpt lat="-3.1301290" lon="37.3104950">
    <ele>2801.2</ele>
    <time>2026-06-20T14:46:48Z</time>
   </trkpt>
   <trkpt lat="-3.1301240" lon="37.3104970">
    <ele>2801.2</ele>
    <time>2026-06-20T14:46:49Z</time>
   </trkpt>
   <trkpt lat="-3.1301170" lon="37.3105030">
    <ele>2801.4</ele>
    <time>2026-06-20T14:46:50Z</time>
   </trkpt>
   <trkpt lat="-3.1301080" lon="37.3105120">
    <ele>2801.6</ele>
    <time>2026-06-20T14:46:51Z</time>
   </trkpt>
   <trkpt lat="-3.1301010" lon="37.3105100">
    <ele>2801.7</ele>
    <time>2026-06-20T14:46:52Z</time>
   </trkpt>
   <trkpt lat="-3.1300990" lon="37.3105080">
    <ele>2801.7</ele>
    <time>2026-06-20T14:46:53Z</time>
   </trkpt>
   <trkpt lat="-3.1300900" lon="37.3105130">
    <ele>2801.9</ele>
    <time>2026-06-20T14:46:54Z</time>
   </trkpt>
   <trkpt lat="-3.1300900" lon="37.3105030">
    <ele>2802.1</ele>
    <time>2026-06-20T14:46:55Z</time>
   </trkpt>
   <trkpt lat="-3.1300890" lon="37.3104990">
    <ele>2802.1</ele>
    <time>2026-06-20T14:46:56Z</time>
   </trkpt>
   <trkpt lat="-3.1300910" lon="37.3104980">
    <ele>2802.2</ele>
    <time>2026-06-20T14:46:57Z</time>
   </trkpt>
   <trkpt lat="-3.1300910" lon="37.3104980">
    <ele>2802.2</ele>
    <time>2026-06-20T14:46:58Z</time>
   </trkpt>
   <trkpt lat="-3.1300910" lon="37.3104980">
    <ele>2802.2</ele>
    <time>2026-06-20T14:46:59Z</time>
   </trkpt>
   <trkpt lat="-3.1300910" lon="37.3104980">
    <ele>2802.2</ele>
    <time>2026-06-20T14:47:00Z</time>
   </trkpt>
   <trkpt lat="-3.1300910" lon="37.3104980">
    <ele>2802.2</ele>
    <time>2026-06-20T14:47:01Z</time>
   </trkpt>
   <trkpt lat="-3.1300970" lon="37.3104980">
    <ele>2802.3</ele>
    <time>2026-06-20T14:47:02Z</time>
   </trkpt>
   <trkpt lat="-3.1301000" lon="37.3104980">
    <ele>2802.3</ele>
    <time>2026-06-20T14:47:03Z</time>
   </trkpt>
   <trkpt lat="-3.1301030" lon="37.3105000">
    <ele>2802.4</ele>
    <time>2026-06-20T14:47:04Z</time>
   </trkpt>
   <trkpt lat="-3.1301050" lon="37.3105020">
    <ele>2802.4</ele>
    <time>2026-06-20T14:47:05Z</time>
   </trkpt>
   <trkpt lat="-3.1301050" lon="37.3105020">
    <ele>2802.4</ele>
    <time>2026-06-20T14:47:06Z</time>
   </trkpt>
   <trkpt lat="-3.1301160" lon="37.3104970">
    <ele>2802.6</ele>
    <time>2026-06-20T14:47:07Z</time>
   </trkpt>
   <trkpt lat="-3.1301180" lon="37.3104890">
    <ele>2802.8</ele>
    <time>2026-06-20T14:47:08Z</time>
   </trkpt>
   <trkpt lat="-3.1301170" lon="37.3104910">
    <ele>2802.8</ele>
    <time>2026-06-20T14:47:09Z</time>
   </trkpt>
   <trkpt lat="-3.1301170" lon="37.3104910">
    <ele>2802.8</ele>
    <time>2026-06-20T14:47:10Z</time>
   </trkpt>
   <trkpt lat="-3.1301190" lon="37.3104900">
    <ele>2802.8</ele>
    <time>2026-06-20T14:47:11Z</time>
   </trkpt>
   <trkpt lat="-3.1301210" lon="37.3104910">
    <ele>2802.9</ele>
    <time>2026-06-20T14:47:12Z</time>
   </trkpt>
   <trkpt lat="-3.1301190" lon="37.3104980">
    <ele>2803.0</ele>
    <time>2026-06-20T14:47:13Z</time>
   </trkpt>
   <trkpt lat="-3.1301200" lon="37.3105000">
    <ele>2803.0</ele>
    <time>2026-06-20T14:47:14Z</time>
   </trkpt>
   <trkpt lat="-3.1301200" lon="37.3105020">
    <ele>2803.1</ele>
    <time>2026-06-20T14:47:15Z</time>
   </trkpt>
   <trkpt lat="-3.1301210" lon="37.3105030">
    <ele>2803.1</ele>
    <time>2026-06-20T14:47:16Z</time>
   </trkpt>
   <trkpt lat="-3.1301210" lon="37.3105020">
    <ele>2803.1</ele>
    <time>2026-06-20T14:47:17Z</time>
   </trkpt>
   <trkpt lat="-3.1301210" lon="37.3104990">
    <ele>2803.2</ele>
    <time>2026-06-20T14:47:18Z</time>
   </trkpt>
   <trkpt lat="-3.1301220" lon="37.3104990">
    <ele>2803.2</ele>
    <time>2026-06-20T14:47:19Z</time>
   </trkpt>
   <trkpt lat="-3.1301220" lon="37.3105000">
    <ele>2803.2</ele>
    <time>2026-06-20T14:47:21Z</time>
   </trkpt>
   <trkpt lat="-3.1301220" lon="37.3105040">
    <ele>2803.3</ele>
    <time>2026-06-20T14:47:22Z</time>
   </trkpt>
   <trkpt lat="-3.1301210" lon="37.3105020">
    <ele>2803.3</ele>
    <time>2026-06-20T14:47:23Z</time>
   </trkpt>
   <trkpt lat="-3.1301210" lon="37.3104940">
    <ele>2803.4</ele>
    <time>2026-06-20T14:47:24Z</time>
   </trkpt>
   <trkpt lat="-3.1301210" lon="37.3104940">
    <ele>2803.4</ele>
    <time>2026-06-20T14:47:25Z</time>
   </trkpt>
   <trkpt lat="-3.1301210" lon="37.3104940">
    <ele>2803.4</ele>
    <time>2026-06-20T14:47:26Z</time>
   </trkpt>
   <trkpt lat="-3.1301210" lon="37.3104940">
    <ele>2803.4</ele>
    <time>2026-06-20T14:47:27Z</time>
   </trkpt>
   <trkpt lat="-3.1301210" lon="37.3104940">
    <ele>2803.4</ele>
    <time>2026-06-20T14:47:28Z</time>
   </trkpt>
   <trkpt lat="-3.1301210" lon="37.3104940">
    <ele>2803.4</ele>
    <time>2026-06-20T14:47:29Z</time>
   </trkpt>
   <trkpt lat="-3.1301360" lon="37.3104900">
    <ele>2803.7</ele>
    <time>2026-06-20T14:47:30Z</time>
   </trkpt>
   <trkpt lat="-3.1301320" lon="37.3104850">
    <ele>2803.8</ele>
    <time>2026-06-20T14:47:31Z</time>
   </trkpt>
   <trkpt lat="-3.1301320" lon="37.3104850">
    <ele>2803.8</ele>
    <time>2026-06-20T14:47:32Z</time>
   </trkpt>
   <trkpt lat="-3.1301390" lon="37.3104840">
    <ele>2804.0</ele>
    <time>2026-06-20T14:47:33Z</time>
   </trkpt>
   <trkpt lat="-3.1301390" lon="37.3104840">
    <ele>2804.0</ele>
    <time>2026-06-20T14:47:34Z</time>
   </trkpt>
   <trkpt lat="-3.1301290" lon="37.3104960">
    <ele>2804.3</ele>
    <time>2026-06-20T14:47:35Z</time>
   </trkpt>
   <trkpt lat="-3.1301290" lon="37.3104950">
    <ele>2804.3</ele>
    <time>2026-06-20T14:47:36Z</time>
   </trkpt>
   <trkpt lat="-3.1301290" lon="37.3104950">
    <ele>2804.3</ele>
    <time>2026-06-20T14:47:37Z</time>
   </trkpt>
   <trkpt lat="-3.1301290" lon="37.3104950">
    <ele>2804.3</ele>
    <time>2026-06-20T14:47:38Z</time>
   </trkpt>
   <trkpt lat="-3.1301290" lon="37.3104950">
    <ele>2804.3</ele>
    <time>2026-06-20T14:47:39Z</time>
   </trkpt>
   <trkpt lat="-3.1301290" lon="37.3104950">
    <ele>2804.3</ele>
    <time>2026-06-20T14:47:40Z</time>
   </trkpt>
   <trkpt lat="-3.1301550" lon="37.3104960">
    <ele>2804.8</ele>
    <time>2026-06-20T14:47:41Z</time>
   </trkpt>
   <trkpt lat="-3.1301590" lon="37.3104990">
    <ele>2804.9</ele>
    <time>2026-06-20T14:47:42Z</time>
   </trkpt>
   <trkpt lat="-3.1301680" lon="37.3104990">
    <ele>2805.0</ele>
    <time>2026-06-20T14:47:43Z</time>
   </trkpt>
   <trkpt lat="-3.1301680" lon="37.3104990">
    <ele>2805.0</ele>
    <time>2026-06-20T14:47:44Z</time>
   </trkpt>
   <trkpt lat="-3.1301680" lon="37.3104990">
    <ele>2805.0</ele>
    <time>2026-06-20T14:47:45Z</time>
   </trkpt>
   <trkpt lat="-3.1301770" lon="37.3105180">
    <ele>2805.4</ele>
    <time>2026-06-20T14:47:46Z</time>
   </trkpt>
   <trkpt lat="-3.1301770" lon="37.3105190">
    <ele>2805.4</ele>
    <time>2026-06-20T14:47:47Z</time>
   </trkpt>
   <trkpt lat="-3.1301770" lon="37.3105190">
    <ele>2805.4</ele>
    <time>2026-06-20T14:47:48Z</time>
   </trkpt>
   <trkpt lat="-3.1301770" lon="37.3105190">
    <ele>2805.4</ele>
    <time>2026-06-20T14:47:49Z</time>
   </trkpt>
   <trkpt lat="-3.1301770" lon="37.3105190">
    <ele>2805.4</ele>
    <time>2026-06-20T14:47:50Z</time>
   </trkpt>
   <trkpt lat="-3.1301810" lon="37.3105440">
    <ele>2805.9</ele>
    <time>2026-06-20T14:47:51Z</time>
   </trkpt>
   <trkpt lat="-3.1301750" lon="37.3105580">
    <ele>2806.2</ele>
    <time>2026-06-20T14:47:52Z</time>
   </trkpt>
   <trkpt lat="-3.1301710" lon="37.3105660">
    <ele>2806.4</ele>
    <time>2026-06-20T14:47:53Z</time>
   </trkpt>
   <trkpt lat="-3.1301710" lon="37.3105670">
    <ele>2806.4</ele>
    <time>2026-06-20T14:47:54Z</time>
   </trkpt>
   <trkpt lat="-3.1301670" lon="37.3105690">
    <ele>2806.5</ele>
    <time>2026-06-20T14:47:55Z</time>
   </trkpt>
   <trkpt lat="-3.1301680" lon="37.3105690">
    <ele>2806.5</ele>
    <time>2026-06-20T14:47:56Z</time>
   </trkpt>
   <trkpt lat="-3.1301680" lon="37.3105690">
    <ele>2806.5</ele>
    <time>2026-06-20T14:47:57Z</time>
   </trkpt>
   <trkpt lat="-3.1301630" lon="37.3105650">
    <ele>2806.6</ele>
    <time>2026-06-20T14:47:58Z</time>
   </trkpt>
   <trkpt lat="-3.1301630" lon="37.3105700">
    <ele>2806.7</ele>
    <time>2026-06-20T14:47:59Z</time>
   </trkpt>
   <trkpt lat="-3.1301650" lon="37.3105740">
    <ele>2806.8</ele>
    <time>2026-06-20T14:48:00Z</time>
   </trkpt>
   <trkpt lat="-3.1301570" lon="37.3105840">
    <ele>2807.0</ele>
    <time>2026-06-20T14:48:01Z</time>
   </trkpt>
   <trkpt lat="-3.1301530" lon="37.3105880">
    <ele>2807.1</ele>
    <time>2026-06-20T14:48:02Z</time>
   </trkpt>
   <trkpt lat="-3.1301530" lon="37.3105880">
    <ele>2807.1</ele>
    <time>2026-06-20T14:48:03Z</time>
   </trkpt>
   <trkpt lat="-3.1301530" lon="37.3105880">
    <ele>2807.1</ele>
    <time>2026-06-20T14:48:04Z</time>
   </trkpt>
   <trkpt lat="-3.1301530" lon="37.3105880">
    <ele>2807.1</ele>
    <time>2026-06-20T14:48:05Z</time>
   </trkpt>
   <trkpt lat="-3.1301530" lon="37.3105880">
    <ele>2807.1</ele>
    <time>2026-06-20T14:48:06Z</time>
   </trkpt>
   <trkpt lat="-3.1301530" lon="37.3105880">
    <ele>2807.1</ele>
    <time>2026-06-20T14:48:07Z</time>
   </trkpt>
   <trkpt lat="-3.1301400" lon="37.3106000">
    <ele>2807.5</ele>
    <time>2026-06-20T14:48:08Z</time>
   </trkpt>
   <trkpt lat="-3.1301410" lon="37.3105990">
    <ele>2807.5</ele>
    <time>2026-06-20T14:48:09Z</time>
   </trkpt>
   <trkpt lat="-3.1301410" lon="37.3105990">
    <ele>2807.5</ele>
    <time>2026-06-20T14:48:10Z</time>
   </trkpt>
   <trkpt lat="-3.1301410" lon="37.3105990">
    <ele>2807.5</ele>
    <time>2026-06-20T14:48:11Z</time>
   </trkpt>
   <trkpt lat="-3.1301410" lon="37.3105990">
    <ele>2807.5</ele>
    <time>2026-06-20T14:48:12Z</time>
   </trkpt>
   <trkpt lat="-3.1301410" lon="37.3105990">
    <ele>2807.5</ele>
    <time>2026-06-20T14:48:13Z</time>
   </trkpt>
   <trkpt lat="-3.1301430" lon="37.3106010">
    <ele>2807.6</ele>
    <time>2026-06-20T14:48:14Z</time>
   </trkpt>
   <trkpt lat="-3.1301420" lon="37.3106010">
    <ele>2807.6</ele>
    <time>2026-06-20T14:48:15Z</time>
   </trkpt>
   <trkpt lat="-3.1301420" lon="37.3106010">
    <ele>2807.6</ele>
    <time>2026-06-20T14:48:16Z</time>
   </trkpt>
   <trkpt lat="-3.1301420" lon="37.3106030">
    <ele>2807.6</ele>
    <time>2026-06-20T14:48:17Z</time>
   </trkpt>
   <trkpt lat="-3.1301420" lon="37.3106040">
    <ele>2807.6</ele>
    <time>2026-06-20T14:48:18Z</time>
   </trkpt>
   <trkpt lat="-3.1301420" lon="37.3106040">
    <ele>2807.6</ele>
    <time>2026-06-20T14:48:19Z</time>
   </trkpt>
   <trkpt lat="-3.1301420" lon="37.3106040">
    <ele>2807.6</ele>
    <time>2026-06-20T14:48:20Z</time>
   </trkpt>
   <trkpt lat="-3.1301420" lon="37.3106040">
    <ele>2807.6</ele>
    <time>2026-06-20T14:48:21Z</time>
   </trkpt>
   <trkpt lat="-3.1301390" lon="37.3106040">
    <ele>2807.7</ele>
    <time>2026-06-20T14:48:22Z</time>
   </trkpt>
   <trkpt lat="-3.1301390" lon="37.3106040">
    <ele>2807.7</ele>
    <time>2026-06-20T14:48:23Z</time>
   </trkpt>
   <trkpt lat="-3.1301390" lon="37.3106040">
    <ele>2807.7</ele>
    <time>2026-06-20T14:48:24Z</time>
   </trkpt>
   <trkpt lat="-3.1301390" lon="37.3106040">
    <ele>2807.7</ele>
    <time>2026-06-20T14:48:25Z</time>
   </trkpt>
   <trkpt lat="-3.1301390" lon="37.3106040">
    <ele>2807.7</ele>
    <time>2026-06-20T14:48:26Z</time>
   </trkpt>
   <trkpt lat="-3.1301390" lon="37.3106040">
    <ele>2807.7</ele>
    <time>2026-06-20T14:48:27Z</time>
   </trkpt>
   <trkpt lat="-3.1301150" lon="37.3106180">
    <ele>2808.2</ele>
    <time>2026-06-20T14:48:28Z</time>
   </trkpt>
   <trkpt lat="-3.1301130" lon="37.3106190">
    <ele>2808.3</ele>
    <time>2026-06-20T14:48:29Z</time>
   </trkpt>
   <trkpt lat="-3.1301100" lon="37.3106200">
    <ele>2808.4</ele>
    <time>2026-06-20T14:48:30Z</time>
   </trkpt>
   <trkpt lat="-3.1301080" lon="37.3106200">
    <ele>2808.4</ele>
    <time>2026-06-20T14:48:31Z</time>
   </trkpt>
   <trkpt lat="-3.1301060" lon="37.3106210">
    <ele>2808.4</ele>
    <time>2026-06-20T14:48:32Z</time>
   </trkpt>
   <trkpt lat="-3.1301030" lon="37.3106220">
    <ele>2808.5</ele>
    <time>2026-06-20T14:48:33Z</time>
   </trkpt>
   <trkpt lat="-3.1301010" lon="37.3106230">
    <ele>2808.5</ele>
    <time>2026-06-20T14:48:34Z</time>
   </trkpt>
   <trkpt lat="-3.1300990" lon="37.3106230">
    <ele>2808.6</ele>
    <time>2026-06-20T14:48:35Z</time>
   </trkpt>
   <trkpt lat="-3.1300970" lon="37.3106240">
    <ele>2808.6</ele>
    <time>2026-06-20T14:48:36Z</time>
   </trkpt>
   <trkpt lat="-3.1300940" lon="37.3106250">
    <ele>2808.7</ele>
    <time>2026-06-20T14:48:37Z</time>
   </trkpt>
   <trkpt lat="-3.1300920" lon="37.3106260">
    <ele>2808.7</ele>
    <time>2026-06-20T14:48:38Z</time>
   </trkpt>
   <trkpt lat="-3.1300900" lon="37.3106260">
    <ele>2808.8</ele>
    <time>2026-06-20T14:48:39Z</time>
   </trkpt>
   <trkpt lat="-3.1300870" lon="37.3106270">
    <ele>2808.8</ele>
    <time>2026-06-20T14:48:40Z</time>
   </trkpt>
   <trkpt lat="-3.1300850" lon="37.3106280">
    <ele>2808.9</ele>
    <time>2026-06-20T14:48:41Z</time>
   </trkpt>
   <trkpt lat="-3.1300830" lon="37.3106290">
    <ele>2808.9</ele>
    <time>2026-06-20T14:48:42Z</time>
   </trkpt>
   <trkpt lat="-3.1300800" lon="37.3106290">
    <ele>2809.0</ele>
    <time>2026-06-20T14:48:43Z</time>
   </trkpt>
   <trkpt lat="-3.1300780" lon="37.3106300">
    <ele>2809.0</ele>
    <time>2026-06-20T14:48:44Z</time>
   </trkpt>
   <trkpt lat="-3.1300750" lon="37.3106300">
    <ele>2809.1</ele>
    <time>2026-06-20T14:48:45Z</time>
   </trkpt>
   <trkpt lat="-3.1300750" lon="37.3106290">
    <ele>2809.1</ele>
    <time>2026-06-20T14:48:46Z</time>
   </trkpt>
   <trkpt lat="-3.1300750" lon="37.3106290">
    <ele>2809.1</ele>
    <time>2026-06-20T14:48:47Z</time>
   </trkpt>
   <trkpt lat="-3.1300750" lon="37.3106290">
    <ele>2809.1</ele>
    <time>2026-06-20T14:48:48Z</time>
   </trkpt>
   <trkpt lat="-3.1300750" lon="37.3106290">
    <ele>2809.1</ele>
    <time>2026-06-20T14:48:49Z</time>
   </trkpt>
   <trkpt lat="-3.1300750" lon="37.3106290">
    <ele>2809.1</ele>
    <time>2026-06-20T14:48:50Z</time>
   </trkpt>
   <trkpt lat="-3.1300710" lon="37.3106620">
    <ele>2809.8</ele>
    <time>2026-06-20T14:48:51Z</time>
   </trkpt>
   <trkpt lat="-3.1300710" lon="37.3106620">
    <ele>2809.8</ele>
    <time>2026-06-20T14:48:52Z</time>
   </trkpt>
   <trkpt lat="-3.1300610" lon="37.3106910">
    <ele>2810.5</ele>
    <time>2026-06-20T14:48:53Z</time>
   </trkpt>
   <trkpt lat="-3.1300610" lon="37.3106910">
    <ele>2810.5</ele>
    <time>2026-06-20T14:48:54Z</time>
   </trkpt>
   <trkpt lat="-3.1300610" lon="37.3106910">
    <ele>2810.5</ele>
    <time>2026-06-20T14:48:55Z</time>
   </trkpt>
   <trkpt lat="-3.1300610" lon="37.3106910">
    <ele>2810.5</ele>
    <time>2026-06-20T14:48:56Z</time>
   </trkpt>
   <trkpt lat="-3.1300610" lon="37.3106910">
    <ele>2810.5</ele>
    <time>2026-06-20T14:48:57Z</time>
   </trkpt>
   <trkpt lat="-3.1300610" lon="37.3106910">
    <ele>2810.5</ele>
    <time>2026-06-20T14:48:58Z</time>
   </trkpt>
   <trkpt lat="-3.1300610" lon="37.3106910">
    <ele>2810.5</ele>
    <time>2026-06-20T14:48:59Z</time>
   </trkpt>
   <trkpt lat="-3.1300610" lon="37.3106910">
    <ele>2810.5</ele>
    <time>2026-06-20T14:49:00Z</time>
   </trkpt>
   <trkpt lat="-3.1300450" lon="37.3107040">
    <ele>2810.9</ele>
    <time>2026-06-20T14:49:01Z</time>
   </trkpt>
   <trkpt lat="-3.1300450" lon="37.3107040">
    <ele>2810.9</ele>
    <time>2026-06-20T14:49:02Z</time>
   </trkpt>
   <trkpt lat="-3.1300450" lon="37.3107040">
    <ele>2810.9</ele>
    <time>2026-06-20T14:49:03Z</time>
   </trkpt>
   <trkpt lat="-3.1300450" lon="37.3107040">
    <ele>2810.9</ele>
    <time>2026-06-20T14:49:04Z</time>
   </trkpt>
   <trkpt lat="-3.1300340" lon="37.3107140">
    <ele>2811.3</ele>
    <time>2026-06-20T14:49:05Z</time>
   </trkpt>
   <trkpt lat="-3.1300310" lon="37.3107160">
    <ele>2811.3</ele>
    <time>2026-06-20T14:49:06Z</time>
   </trkpt>
   <trkpt lat="-3.1300290" lon="37.3107160">
    <ele>2811.4</ele>
    <time>2026-06-20T14:49:07Z</time>
   </trkpt>
   <trkpt lat="-3.1300310" lon="37.3107170">
    <ele>2811.4</ele>
    <time>2026-06-20T14:49:08Z</time>
   </trkpt>
   <trkpt lat="-3.1300290" lon="37.3107260">
    <ele>2811.6</ele>
    <time>2026-06-20T14:49:09Z</time>
   </trkpt>
   <trkpt lat="-3.1300290" lon="37.3107260">
    <ele>2811.6</ele>
    <time>2026-06-20T14:49:10Z</time>
   </trkpt>
   <trkpt lat="-3.1300290" lon="37.3107260">
    <ele>2811.6</ele>
    <time>2026-06-20T14:49:11Z</time>
   </trkpt>
   <trkpt lat="-3.1300270" lon="37.3107440">
    <ele>2812.0</ele>
    <time>2026-06-20T14:49:12Z</time>
   </trkpt>
   <trkpt lat="-3.1300300" lon="37.3107500">
    <ele>2812.2</ele>
    <time>2026-06-20T14:49:13Z</time>
   </trkpt>
   <trkpt lat="-3.1300290" lon="37.3107490">
    <ele>2812.2</ele>
    <time>2026-06-20T14:49:14Z</time>
   </trkpt>
   <trkpt lat="-3.1300320" lon="37.3107290">
    <ele>2812.7</ele>
    <time>2026-06-20T14:49:15Z</time>
   </trkpt>
   <trkpt lat="-3.1300310" lon="37.3107440">
    <ele>2813.0</ele>
    <time>2026-06-20T14:49:16Z</time>
   </trkpt>
   <trkpt lat="-3.1300310" lon="37.3107440">
    <ele>2813.0</ele>
    <time>2026-06-20T14:49:17Z</time>
   </trkpt>
   <trkpt lat="-3.1300310" lon="37.3107440">
    <ele>2813.0</ele>
    <time>2026-06-20T14:49:18Z</time>
   </trkpt>
   <trkpt lat="-3.1300310" lon="37.3107440">
    <ele>2813.0</ele>
    <time>2026-06-20T14:49:19Z</time>
   </trkpt>
   <trkpt lat="-3.1300310" lon="37.3107440">
    <ele>2813.0</ele>
    <time>2026-06-20T14:49:20Z</time>
   </trkpt>
   <trkpt lat="-3.1300310" lon="37.3107440">
    <ele>2813.0</ele>
    <time>2026-06-20T14:49:21Z</time>
   </trkpt>
   <trkpt lat="-3.1300270" lon="37.3107450">
    <ele>2813.1</ele>
    <time>2026-06-20T14:49:22Z</time>
   </trkpt>
   <trkpt lat="-3.1300280" lon="37.3107400">
    <ele>2813.3</ele>
    <time>2026-06-20T14:49:23Z</time>
   </trkpt>
   <trkpt lat="-3.1300250" lon="37.3107380">
    <ele>2813.4</ele>
    <time>2026-06-20T14:49:24Z</time>
   </trkpt>
   <trkpt lat="-3.1300290" lon="37.3107180">
    <ele>2813.9</ele>
    <time>2026-06-20T14:49:25Z</time>
   </trkpt>
   <trkpt lat="-3.1300190" lon="37.3107210">
    <ele>2814.1</ele>
    <time>2026-06-20T14:49:27Z</time>
   </trkpt>
   <trkpt lat="-3.1300240" lon="37.3107180">
    <ele>2814.2</ele>
    <time>2026-06-20T14:49:28Z</time>
   </trkpt>
   <trkpt lat="-3.1300220" lon="37.3107210">
    <ele>2814.3</ele>
    <time>2026-06-20T14:49:29Z</time>
   </trkpt>
   <trkpt lat="-3.1300190" lon="37.3107240">
    <ele>2814.4</ele>
    <time>2026-06-20T14:49:30Z</time>
   </trkpt>
   <trkpt lat="-3.1300140" lon="37.3107190">
    <ele>2814.6</ele>
    <time>2026-06-20T14:49:31Z</time>
   </trkpt>
   <trkpt lat="-3.1300190" lon="37.3107010">
    <ele>2815.1</ele>
    <time>2026-06-20T14:49:32Z</time>
   </trkpt>
   <trkpt lat="-3.1300190" lon="37.3106930">
    <ele>2815.3</ele>
    <time>2026-06-20T14:49:33Z</time>
   </trkpt>
   <trkpt lat="-3.1300230" lon="37.3106840">
    <ele>2815.5</ele>
    <time>2026-06-20T14:49:34Z</time>
   </trkpt>
   <trkpt lat="-3.1300240" lon="37.3106810">
    <ele>2815.6</ele>
    <time>2026-06-20T14:49:35Z</time>
   </trkpt>
   <trkpt lat="-3.1300230" lon="37.3106700">
    <ele>2815.8</ele>
    <time>2026-06-20T14:49:36Z</time>
   </trkpt>
   <trkpt lat="-3.1300230" lon="37.3106610">
    <ele>2816.1</ele>
    <time>2026-06-20T14:49:37Z</time>
   </trkpt>
   <trkpt lat="-3.1300290" lon="37.3106550">
    <ele>2816.3</ele>
    <time>2026-06-20T14:49:38Z</time>
   </trkpt>
   <trkpt lat="-3.1300290" lon="37.3106550">
    <ele>2816.3</ele>
    <time>2026-06-20T14:49:39Z</time>
   </trkpt>
   <trkpt lat="-3.1300290" lon="37.3106550">
    <ele>2816.3</ele>
    <time>2026-06-20T14:49:40Z</time>
   </trkpt>
   <trkpt lat="-3.1300320" lon="37.3106520">
    <ele>2816.4</ele>
    <time>2026-06-20T14:49:41Z</time>
   </trkpt>
   <trkpt lat="-3.1300320" lon="37.3106520">
    <ele>2816.4</ele>
    <time>2026-06-20T14:49:42Z</time>
   </trkpt>
   <trkpt lat="-3.1300320" lon="37.3106520">
    <ele>2816.4</ele>
    <time>2026-06-20T14:49:43Z</time>
   </trkpt>
   <trkpt lat="-3.1300320" lon="37.3106520">
    <ele>2816.4</ele>
    <time>2026-06-20T14:49:44Z</time>
   </trkpt>
   <trkpt lat="-3.1300320" lon="37.3106520">
    <ele>2816.4</ele>
    <time>2026-06-20T14:49:45Z</time>
   </trkpt>
   <trkpt lat="-3.1300320" lon="37.3106520">
    <ele>2816.4</ele>
    <time>2026-06-20T14:49:46Z</time>
   </trkpt>
   <trkpt lat="-3.1300540" lon="37.3106450">
    <ele>2816.9</ele>
    <time>2026-06-20T14:49:47Z</time>
   </trkpt>
   <trkpt lat="-3.1300510" lon="37.3106470">
    <ele>2817.0</ele>
    <time>2026-06-20T14:49:48Z</time>
   </trkpt>
   <trkpt lat="-3.1300480" lon="37.3106440">
    <ele>2817.1</ele>
    <time>2026-06-20T14:49:49Z</time>
   </trkpt>
   <trkpt lat="-3.1300480" lon="37.3106440">
    <ele>2817.1</ele>
    <time>2026-06-20T14:49:50Z</time>
   </trkpt>
   <trkpt lat="-3.1300480" lon="37.3106440">
    <ele>2817.1</ele>
    <time>2026-06-20T14:49:51Z</time>
   </trkpt>
   <trkpt lat="-3.1300580" lon="37.3106220">
    <ele>2817.7</ele>
    <time>2026-06-20T14:49:52Z</time>
   </trkpt>
   <trkpt lat="-3.1300640" lon="37.3106200">
    <ele>2817.8</ele>
    <time>2026-06-20T14:49:53Z</time>
   </trkpt>
   <trkpt lat="-3.1300630" lon="37.3106160">
    <ele>2817.9</ele>
    <time>2026-06-20T14:49:54Z</time>
   </trkpt>
   <trkpt lat="-3.1300630" lon="37.3106160">
    <ele>2817.9</ele>
    <time>2026-06-20T14:49:55Z</time>
   </trkpt>
   <trkpt lat="-3.1300660" lon="37.3106150">
    <ele>2818.0</ele>
    <time>2026-06-20T14:49:56Z</time>
   </trkpt>
   <trkpt lat="-3.1300680" lon="37.3106130">
    <ele>2818.1</ele>
    <time>2026-06-20T14:49:57Z</time>
   </trkpt>
   <trkpt lat="-3.1300620" lon="37.3106090">
    <ele>2818.2</ele>
    <time>2026-06-20T14:49:58Z</time>
   </trkpt>
   <trkpt lat="-3.1300640" lon="37.3106050">
    <ele>2818.3</ele>
    <time>2026-06-20T14:49:59Z</time>
   </trkpt>
   <trkpt lat="-3.1300600" lon="37.3106030">
    <ele>2818.4</ele>
    <time>2026-06-20T14:50:00Z</time>
   </trkpt>
   <trkpt lat="-3.1300590" lon="37.3105990">
    <ele>2818.5</ele>
    <time>2026-06-20T14:50:01Z</time>
   </trkpt>
   <trkpt lat="-3.1300590" lon="37.3105890">
    <ele>2818.8</ele>
    <time>2026-06-20T14:50:02Z</time>
   </trkpt>
   <trkpt lat="-3.1300670" lon="37.3105880">
    <ele>2819.0</ele>
    <time>2026-06-20T14:50:03Z</time>
   </trkpt>
   <trkpt lat="-3.1300680" lon="37.3105890">
    <ele>2819.0</ele>
    <time>2026-06-20T14:50:04Z</time>
   </trkpt>
   <trkpt lat="-3.1300590" lon="37.3105900">
    <ele>2819.2</ele>
    <time>2026-06-20T14:50:05Z</time>
   </trkpt>
   <trkpt lat="-3.1300510" lon="37.3105890">
    <ele>2819.4</ele>
    <time>2026-06-20T14:50:06Z</time>
   </trkpt>
   <trkpt lat="-3.1300550" lon="37.3105860">
    <ele>2819.5</ele>
    <time>2026-06-20T14:50:07Z</time>
   </trkpt>
   <trkpt lat="-3.1300330" lon="37.3105900">
    <ele>2820.0</ele>
    <time>2026-06-20T14:50:08Z</time>
   </trkpt>
   <trkpt lat="-3.1300150" lon="37.3105850">
    <ele>2820.5</ele>
    <time>2026-06-20T14:50:09Z</time>
   </trkpt>
   <trkpt lat="-3.1300150" lon="37.3105830">
    <ele>2820.5</ele>
    <time>2026-06-20T14:50:10Z</time>
   </trkpt>
   <trkpt lat="-3.1300160" lon="37.3105840">
    <ele>2820.5</ele>
    <time>2026-06-20T14:50:11Z</time>
   </trkpt>
   <trkpt lat="-3.1300160" lon="37.3105830">
    <ele>2820.6</ele>
    <time>2026-06-20T14:50:12Z</time>
   </trkpt>
   <trkpt lat="-3.1300260" lon="37.3105780">
    <ele>2820.8</ele>
    <time>2026-06-20T14:50:13Z</time>
   </trkpt>
   <trkpt lat="-3.1300360" lon="37.3105770">
    <ele>2821.0</ele>
    <time>2026-06-20T14:50:14Z</time>
   </trkpt>
   <trkpt lat="-3.1300340" lon="37.3105770">
    <ele>2821.1</ele>
    <time>2026-06-20T14:50:15Z</time>
   </trkpt>
   <trkpt lat="-3.1300460" lon="37.3105670">
    <ele>2821.5</ele>
    <time>2026-06-20T14:50:16Z</time>
   </trkpt>
   <trkpt lat="-3.1300540" lon="37.3105680">
    <ele>2821.6</ele>
    <time>2026-06-20T14:50:17Z</time>
   </trkpt>
   <trkpt lat="-3.1300520" lon="37.3105650">
    <ele>2821.7</ele>
    <time>2026-06-20T14:50:18Z</time>
   </trkpt>
   <trkpt lat="-3.1300450" lon="37.3105590">
    <ele>2821.9</ele>
    <time>2026-06-20T14:50:19Z</time>
   </trkpt>
   <trkpt lat="-3.1300370" lon="37.3105600">
    <ele>2822.1</ele>
    <time>2026-06-20T14:50:20Z</time>
   </trkpt>
   <trkpt lat="-3.1300340" lon="37.3105620">
    <ele>2822.2</ele>
    <time>2026-06-20T14:50:21Z</time>
   </trkpt>
   <trkpt lat="-3.1300520" lon="37.3105590">
    <ele>2822.6</ele>
    <time>2026-06-20T14:50:22Z</time>
   </trkpt>
   <trkpt lat="-3.1300490" lon="37.3105660">
    <ele>2822.8</ele>
    <time>2026-06-20T14:50:23Z</time>
   </trkpt>
   <trkpt lat="-3.1300410" lon="37.3105720">
    <ele>2823.0</ele>
    <time>2026-06-20T14:50:24Z</time>
   </trkpt>
   <trkpt lat="-3.1300390" lon="37.3105790">
    <ele>2823.2</ele>
    <time>2026-06-20T14:50:25Z</time>
   </trkpt>
   <trkpt lat="-3.1300450" lon="37.3105780">
    <ele>2823.3</ele>
    <time>2026-06-20T14:50:26Z</time>
   </trkpt>
   <trkpt lat="-3.1300440" lon="37.3105820">
    <ele>2823.4</ele>
    <time>2026-06-20T14:50:27Z</time>
   </trkpt>
   <trkpt lat="-3.1300470" lon="37.3105830">
    <ele>2823.5</ele>
    <time>2026-06-20T14:50:28Z</time>
   </trkpt>
   <trkpt lat="-3.1300230" lon="37.3105890">
    <ele>2824.1</ele>
    <time>2026-06-20T14:50:29Z</time>
   </trkpt>
   <trkpt lat="-3.1300210" lon="37.3105860">
    <ele>2824.1</ele>
    <time>2026-06-20T14:50:30Z</time>
   </trkpt>
   <trkpt lat="-3.1300190" lon="37.3105840">
    <ele>2824.2</ele>
    <time>2026-06-20T14:50:31Z</time>
   </trkpt>
   <trkpt lat="-3.1300170" lon="37.3105860">
    <ele>2824.3</ele>
    <time>2026-06-20T14:50:32Z</time>
   </trkpt>
   <trkpt lat="-3.1300110" lon="37.3105840">
    <ele>2824.4</ele>
    <time>2026-06-20T14:50:33Z</time>
   </trkpt>
   <trkpt lat="-3.1300140" lon="37.3105900">
    <ele>2824.6</ele>
    <time>2026-06-20T14:50:34Z</time>
   </trkpt>
   <trkpt lat="-3.1300200" lon="37.3105950">
    <ele>2824.7</ele>
    <time>2026-06-20T14:50:35Z</time>
   </trkpt>
   <trkpt lat="-3.1300150" lon="37.3105960">
    <ele>2824.9</ele>
    <time>2026-06-20T14:50:36Z</time>
   </trkpt>
   <trkpt lat="-3.1300150" lon="37.3106070">
    <ele>2825.1</ele>
    <time>2026-06-20T14:50:37Z</time>
   </trkpt>
   <trkpt lat="-3.1300110" lon="37.3106210">
    <ele>2825.4</ele>
    <time>2026-06-20T14:50:38Z</time>
   </trkpt>
   <trkpt lat="-3.1300040" lon="37.3106210">
    <ele>2825.6</ele>
    <time>2026-06-20T14:50:39Z</time>
   </trkpt>
   <trkpt lat="-3.1300020" lon="37.3106190">
    <ele>2825.7</ele>
    <time>2026-06-20T14:50:40Z</time>
   </trkpt>
   <trkpt lat="-3.1299980" lon="37.3106190">
    <ele>2825.8</ele>
    <time>2026-06-20T14:50:41Z</time>
   </trkpt>
   <trkpt lat="-3.1299890" lon="37.3106190">
    <ele>2826.0</ele>
    <time>2026-06-20T14:50:42Z</time>
   </trkpt>
   <trkpt lat="-3.1299920" lon="37.3106210">
    <ele>2826.0</ele>
    <time>2026-06-20T14:50:43Z</time>
   </trkpt>
   <trkpt lat="-3.1299860" lon="37.3106200">
    <ele>2826.2</ele>
    <time>2026-06-20T14:50:44Z</time>
   </trkpt>
   <trkpt lat="-3.1299850" lon="37.3106260">
    <ele>2826.3</ele>
    <time>2026-06-20T14:50:45Z</time>
   </trkpt>
   <trkpt lat="-3.1299820" lon="37.3106290">
    <ele>2826.4</ele>
    <time>2026-06-20T14:50:46Z</time>
   </trkpt>
   <trkpt lat="-3.1299770" lon="37.3106230">
    <ele>2826.6</ele>
    <time>2026-06-20T14:50:47Z</time>
   </trkpt>
   <trkpt lat="-3.1299680" lon="37.3106140">
    <ele>2826.8</ele>
    <time>2026-06-20T14:50:48Z</time>
   </trkpt>
   <trkpt lat="-3.1299700" lon="37.3106080">
    <ele>2827.0</ele>
    <time>2026-06-20T14:50:49Z</time>
   </trkpt>
   <trkpt lat="-3.1299680" lon="37.3106050">
    <ele>2827.1</ele>
    <time>2026-06-20T14:50:50Z</time>
   </trkpt>
   <trkpt lat="-3.1299620" lon="37.3106010">
    <ele>2827.2</ele>
    <time>2026-06-20T14:50:51Z</time>
   </trkpt>
   <trkpt lat="-3.1299530" lon="37.3105940">
    <ele>2827.5</ele>
    <time>2026-06-20T14:50:52Z</time>
   </trkpt>
   <trkpt lat="-3.1299520" lon="37.3105830">
    <ele>2827.7</ele>
    <time>2026-06-20T14:50:53Z</time>
   </trkpt>
   <trkpt lat="-3.1299540" lon="37.3105780">
    <ele>2827.8</ele>
    <time>2026-06-20T14:50:54Z</time>
   </trkpt>
   <trkpt lat="-3.1299520" lon="37.3105730">
    <ele>2827.9</ele>
    <time>2026-06-20T14:50:55Z</time>
   </trkpt>
   <trkpt lat="-3.1299480" lon="37.3105750">
    <ele>2828.0</ele>
    <time>2026-06-20T14:50:56Z</time>
   </trkpt>
   <trkpt lat="-3.1299430" lon="37.3105740">
    <ele>2828.1</ele>
    <time>2026-06-20T14:50:57Z</time>
   </trkpt>
   <trkpt lat="-3.1299400" lon="37.3105790">
    <ele>2828.3</ele>
    <time>2026-06-20T14:50:58Z</time>
   </trkpt>
   <trkpt lat="-3.1299410" lon="37.3105850">
    <ele>2828.4</ele>
    <time>2026-06-20T14:50:59Z</time>
   </trkpt>
   <trkpt lat="-3.1299390" lon="37.3105910">
    <ele>2828.5</ele>
    <time>2026-06-20T14:51:00Z</time>
   </trkpt>
   <trkpt lat="-3.1299320" lon="37.3105910">
    <ele>2828.7</ele>
    <time>2026-06-20T14:51:01Z</time>
   </trkpt>
   <trkpt lat="-3.1299280" lon="37.3105930">
    <ele>2828.8</ele>
    <time>2026-06-20T14:51:02Z</time>
   </trkpt>
   <trkpt lat="-3.1299290" lon="37.3105950">
    <ele>2828.8</ele>
    <time>2026-06-20T14:51:03Z</time>
   </trkpt>
   <trkpt lat="-3.1299310" lon="37.3105950">
    <ele>2828.9</ele>
    <time>2026-06-20T14:51:04Z</time>
   </trkpt>
   <trkpt lat="-3.1299410" lon="37.3105990">
    <ele>2829.1</ele>
    <time>2026-06-20T14:51:05Z</time>
   </trkpt>
   <trkpt lat="-3.1299380" lon="37.3105990">
    <ele>2829.1</ele>
    <time>2026-06-20T14:51:06Z</time>
   </trkpt>
   <trkpt lat="-3.1299280" lon="37.3106030">
    <ele>2829.4</ele>
    <time>2026-06-20T14:51:07Z</time>
   </trkpt>
   <trkpt lat="-3.1299090" lon="37.3106070">
    <ele>2829.8</ele>
    <time>2026-06-20T14:51:08Z</time>
   </trkpt>
   <trkpt lat="-3.1299130" lon="37.3106090">
    <ele>2829.9</ele>
    <time>2026-06-20T14:51:09Z</time>
   </trkpt>
   <trkpt lat="-3.1299170" lon="37.3106270">
    <ele>2830.2</ele>
    <time>2026-06-20T14:51:10Z</time>
   </trkpt>
   <trkpt lat="-3.1299110" lon="37.3106380">
    <ele>2830.5</ele>
    <time>2026-06-20T14:51:11Z</time>
   </trkpt>
   <trkpt lat="-3.1299110" lon="37.3106420">
    <ele>2830.6</ele>
    <time>2026-06-20T14:51:12Z</time>
   </trkpt>
   <trkpt lat="-3.1299070" lon="37.3106440">
    <ele>2830.7</ele>
    <time>2026-06-20T14:51:13Z</time>
   </trkpt>
   <trkpt lat="-3.1299100" lon="37.3106400">
    <ele>2830.8</ele>
    <time>2026-06-20T14:51:14Z</time>
   </trkpt>
   <trkpt lat="-3.1299120" lon="37.3106390">
    <ele>2830.8</ele>
    <time>2026-06-20T14:51:15Z</time>
   </trkpt>
   <trkpt lat="-3.1299170" lon="37.3106420">
    <ele>2830.9</ele>
    <time>2026-06-20T14:51:16Z</time>
   </trkpt>
   <trkpt lat="-3.1299160" lon="37.3106340">
    <ele>2831.1</ele>
    <time>2026-06-20T14:51:17Z</time>
   </trkpt>
   <trkpt lat="-3.1298980" lon="37.3106370">
    <ele>2831.5</ele>
    <time>2026-06-20T14:51:18Z</time>
   </trkpt>
   <trkpt lat="-3.1298950" lon="37.3106280">
    <ele>2831.6</ele>
    <time>2026-06-20T14:51:19Z</time>
   </trkpt>
   <trkpt lat="-3.1298900" lon="37.3106260">
    <ele>2831.8</ele>
    <time>2026-06-20T14:51:20Z</time>
   </trkpt>
   <trkpt lat="-3.1298840" lon="37.3106280">
    <ele>2831.9</ele>
    <time>2026-06-20T14:51:21Z</time>
   </trkpt>
   <trkpt lat="-3.1298780" lon="37.3106300">
    <ele>2832.0</ele>
    <time>2026-06-20T14:51:22Z</time>
   </trkpt>
   <trkpt lat="-3.1298700" lon="37.3106330">
    <ele>2832.2</ele>
    <time>2026-06-20T14:51:23Z</time>
   </trkpt>
   <trkpt lat="-3.1298620" lon="37.3106550">
    <ele>2832.7</ele>
    <time>2026-06-20T14:51:24Z</time>
   </trkpt>
   <trkpt lat="-3.1298510" lon="37.3106570">
    <ele>2832.9</ele>
    <time>2026-06-20T14:51:25Z</time>
   </trkpt>
   <trkpt lat="-3.1298480" lon="37.3106620">
    <ele>2833.0</ele>
    <time>2026-06-20T14:51:26Z</time>
   </trkpt>
   <trkpt lat="-3.1298370" lon="37.3106730">
    <ele>2833.3</ele>
    <time>2026-06-20T14:51:27Z</time>
   </trkpt>
   <trkpt lat="-3.1298360" lon="37.3106870">
    <ele>2833.6</ele>
    <time>2026-06-20T14:51:28Z</time>
   </trkpt>
   <trkpt lat="-3.1298370" lon="37.3107000">
    <ele>2833.9</ele>
    <time>2026-06-20T14:51:29Z</time>
   </trkpt>
   <trkpt lat="-3.1298360" lon="37.3107070">
    <ele>2834.0</ele>
    <time>2026-06-20T14:51:30Z</time>
   </trkpt>
   <trkpt lat="-3.1298300" lon="37.3107060">
    <ele>2834.1</ele>
    <time>2026-06-20T14:51:32Z</time>
   </trkpt>
   <trkpt lat="-3.1298300" lon="37.3106890">
    <ele>2834.5</ele>
    <time>2026-06-20T14:51:33Z</time>
   </trkpt>
   <trkpt lat="-3.1298270" lon="37.3106840">
    <ele>2834.6</ele>
    <time>2026-06-20T14:51:34Z</time>
   </trkpt>
   <trkpt lat="-3.1298260" lon="37.3106840">
    <ele>2834.6</ele>
    <time>2026-06-20T14:51:35Z</time>
   </trkpt>
   <trkpt lat="-3.1298180" lon="37.3106880">
    <ele>2834.8</ele>
    <time>2026-06-20T14:51:36Z</time>
   </trkpt>
   <trkpt lat="-3.1298140" lon="37.3106850">
    <ele>2834.9</ele>
    <time>2026-06-20T14:51:37Z</time>
   </trkpt>
   <trkpt lat="-3.1298100" lon="37.3106860">
    <ele>2835.0</ele>
    <time>2026-06-20T14:51:38Z</time>
   </trkpt>
   <trkpt lat="-3.1298120" lon="37.3106880">
    <ele>2835.0</ele>
    <time>2026-06-20T14:51:39Z</time>
   </trkpt>
   <trkpt lat="-3.1298220" lon="37.3106820">
    <ele>2835.3</ele>
    <time>2026-06-20T14:51:40Z</time>
   </trkpt>
   <trkpt lat="-3.1298310" lon="37.3106830">
    <ele>2835.4</ele>
    <time>2026-06-20T14:51:41Z</time>
   </trkpt>
   <trkpt lat="-3.1298330" lon="37.3106890">
    <ele>2835.5</ele>
    <time>2026-06-20T14:51:42Z</time>
   </trkpt>
   <trkpt lat="-3.1298390" lon="37.3106830">
    <ele>2835.7</ele>
    <time>2026-06-20T14:51:43Z</time>
   </trkpt>
   <trkpt lat="-3.1298330" lon="37.3106840">
    <ele>2835.8</ele>
    <time>2026-06-20T14:51:44Z</time>
   </trkpt>
   <trkpt lat="-3.1298370" lon="37.3106980">
    <ele>2836.1</ele>
    <time>2026-06-20T14:51:45Z</time>
   </trkpt>
   <trkpt lat="-3.1298380" lon="37.3106960">
    <ele>2836.1</ele>
    <time>2026-06-20T14:51:46Z</time>
   </trkpt>
   <trkpt lat="-3.1298390" lon="37.3106940">
    <ele>2836.2</ele>
    <time>2026-06-20T14:51:47Z</time>
   </trkpt>
   <trkpt lat="-3.1298450" lon="37.3106950">
    <ele>2836.3</ele>
    <time>2026-06-20T14:51:48Z</time>
   </trkpt>
   <trkpt lat="-3.1298390" lon="37.3107000">
    <ele>2836.4</ele>
    <time>2026-06-20T14:51:49Z</time>
   </trkpt>
   <trkpt lat="-3.1298380" lon="37.3107110">
    <ele>2836.6</ele>
    <time>2026-06-20T14:51:50Z</time>
   </trkpt>
   <trkpt lat="-3.1298320" lon="37.3107100">
    <ele>2836.7</ele>
    <time>2026-06-20T14:51:51Z</time>
   </trkpt>
   <trkpt lat="-3.1298270" lon="37.3107060">
    <ele>2836.9</ele>
    <time>2026-06-20T14:51:52Z</time>
   </trkpt>
   <trkpt lat="-3.1298240" lon="37.3107030">
    <ele>2836.9</ele>
    <time>2026-06-20T14:51:53Z</time>
   </trkpt>
   <trkpt lat="-3.1298210" lon="37.3106970">
    <ele>2837.0</ele>
    <time>2026-06-20T14:51:54Z</time>
   </trkpt>
   <trkpt lat="-3.1298280" lon="37.3106960">
    <ele>2837.2</ele>
    <time>2026-06-20T14:51:55Z</time>
   </trkpt>
   <trkpt lat="-3.1298360" lon="37.3107040">
    <ele>2837.4</ele>
    <time>2026-06-20T14:51:56Z</time>
   </trkpt>
   <trkpt lat="-3.1298320" lon="37.3107110">
    <ele>2837.5</ele>
    <time>2026-06-20T14:51:57Z</time>
   </trkpt>
   <trkpt lat="-3.1298230" lon="37.3107170">
    <ele>2837.7</ele>
    <time>2026-06-20T14:51:58Z</time>
   </trkpt>
   <trkpt lat="-3.1298180" lon="37.3107160">
    <ele>2837.8</ele>
    <time>2026-06-20T14:51:59Z</time>
   </trkpt>
   <trkpt lat="-3.1298140" lon="37.3107120">
    <ele>2837.9</ele>
    <time>2026-06-20T14:52:00Z</time>
   </trkpt>
   <trkpt lat="-3.1298100" lon="37.3107130">
    <ele>2837.9</ele>
    <time>2026-06-20T14:52:01Z</time>
   </trkpt>
   <trkpt lat="-3.1298020" lon="37.3107160">
    <ele>2838.1</ele>
    <time>2026-06-20T14:52:02Z</time>
   </trkpt>
   <trkpt lat="-3.1297870" lon="37.3107160">
    <ele>2838.3</ele>
    <time>2026-06-20T14:52:03Z</time>
   </trkpt>
   <trkpt lat="-3.1297750" lon="37.3107150">
    <ele>2838.5</ele>
    <time>2026-06-20T14:52:04Z</time>
   </trkpt>
   <trkpt lat="-3.1297650" lon="37.3107050">
    <ele>2838.7</ele>
    <time>2026-06-20T14:52:05Z</time>
   </trkpt>
   <trkpt lat="-3.1297550" lon="37.3107060">
    <ele>2838.9</ele>
    <time>2026-06-20T14:52:06Z</time>
   </trkpt>
   <trkpt lat="-3.1297510" lon="37.3107070">
    <ele>2839.0</ele>
    <time>2026-06-20T14:52:07Z</time>
   </trkpt>
   <trkpt lat="-3.1297520" lon="37.3107090">
    <ele>2839.0</ele>
    <time>2026-06-20T14:52:08Z</time>
   </trkpt>
   <trkpt lat="-3.1297490" lon="37.3106930">
    <ele>2839.3</ele>
    <time>2026-06-20T14:52:09Z</time>
   </trkpt>
   <trkpt lat="-3.1297430" lon="37.3106940">
    <ele>2839.4</ele>
    <time>2026-06-20T14:52:10Z</time>
   </trkpt>
   <trkpt lat="-3.1297350" lon="37.3107050">
    <ele>2839.6</ele>
    <time>2026-06-20T14:52:11Z</time>
   </trkpt>
   <trkpt lat="-3.1297320" lon="37.3107090">
    <ele>2839.6</ele>
    <time>2026-06-20T14:52:12Z</time>
   </trkpt>
   <trkpt lat="-3.1297380" lon="37.3107050">
    <ele>2839.7</ele>
    <time>2026-06-20T14:52:13Z</time>
   </trkpt>
   <trkpt lat="-3.1297460" lon="37.3107080">
    <ele>2839.9</ele>
    <time>2026-06-20T14:52:14Z</time>
   </trkpt>
   <trkpt lat="-3.1297290" lon="37.3107090">
    <ele>2840.1</ele>
    <time>2026-06-20T14:52:15Z</time>
   </trkpt>
   <trkpt lat="-3.1297270" lon="37.3107090">
    <ele>2840.1</ele>
    <time>2026-06-20T14:52:16Z</time>
   </trkpt>
   <trkpt lat="-3.1297310" lon="37.3107060">
    <ele>2840.2</ele>
    <time>2026-06-20T14:52:17Z</time>
   </trkpt>
   <trkpt lat="-3.1297310" lon="37.3107020">
    <ele>2840.2</ele>
    <time>2026-06-20T14:52:18Z</time>
   </trkpt>
   <trkpt lat="-3.1297240" lon="37.3107020">
    <ele>2840.3</ele>
    <time>2026-06-20T14:52:19Z</time>
   </trkpt>
   <trkpt lat="-3.1297320" lon="37.3106930">
    <ele>2840.5</ele>
    <time>2026-06-20T14:52:20Z</time>
   </trkpt>
   <trkpt lat="-3.1297300" lon="37.3106970">
    <ele>2840.6</ele>
    <time>2026-06-20T14:52:21Z</time>
   </trkpt>
   <trkpt lat="-3.1297330" lon="37.3106930">
    <ele>2840.6</ele>
    <time>2026-06-20T14:52:22Z</time>
   </trkpt>
   <trkpt lat="-3.1297300" lon="37.3106920">
    <ele>2840.7</ele>
    <time>2026-06-20T14:52:23Z</time>
   </trkpt>
   <trkpt lat="-3.1297320" lon="37.3106990">
    <ele>2840.8</ele>
    <time>2026-06-20T14:52:24Z</time>
   </trkpt>
   <trkpt lat="-3.1297290" lon="37.3107040">
    <ele>2840.8</ele>
    <time>2026-06-20T14:52:25Z</time>
   </trkpt>
   <trkpt lat="-3.1297260" lon="37.3107130">
    <ele>2841.0</ele>
    <time>2026-06-20T14:52:26Z</time>
   </trkpt>
   <trkpt lat="-3.1297320" lon="37.3107210">
    <ele>2841.1</ele>
    <time>2026-06-20T14:52:27Z</time>
   </trkpt>
   <trkpt lat="-3.1297390" lon="37.3107250">
    <ele>2841.2</ele>
    <time>2026-06-20T14:52:28Z</time>
   </trkpt>
   <trkpt lat="-3.1297200" lon="37.3107130">
    <ele>2841.4</ele>
    <time>2026-06-20T14:52:29Z</time>
   </trkpt>
   <trkpt lat="-3.1297110" lon="37.3107140">
    <ele>2841.5</ele>
    <time>2026-06-20T14:52:30Z</time>
   </trkpt>
   <trkpt lat="-3.1297090" lon="37.3107110">
    <ele>2841.6</ele>
    <time>2026-06-20T14:52:31Z</time>
   </trkpt>
   <trkpt lat="-3.1297040" lon="37.3107080">
    <ele>2841.6</ele>
    <time>2026-06-20T14:52:32Z</time>
   </trkpt>
   <trkpt lat="-3.1297040" lon="37.3107020">
    <ele>2841.7</ele>
    <time>2026-06-20T14:52:33Z</time>
   </trkpt>
   <trkpt lat="-3.1296990" lon="37.3106990">
    <ele>2841.8</ele>
    <time>2026-06-20T14:52:34Z</time>
   </trkpt>
   <trkpt lat="-3.1296970" lon="37.3106960">
    <ele>2841.8</ele>
    <time>2026-06-20T14:52:35Z</time>
   </trkpt>
   <trkpt lat="-3.1297000" lon="37.3106990">
    <ele>2841.9</ele>
    <time>2026-06-20T14:52:36Z</time>
   </trkpt>
   <trkpt lat="-3.1297030" lon="37.3107080">
    <ele>2842.0</ele>
    <time>2026-06-20T14:52:37Z</time>
   </trkpt>
   <trkpt lat="-3.1297020" lon="37.3107070">
    <ele>2842.0</ele>
    <time>2026-06-20T14:52:38Z</time>
   </trkpt>
   <trkpt lat="-3.1296960" lon="37.3107100">
    <ele>2842.1</ele>
    <time>2026-06-20T14:52:39Z</time>
   </trkpt>
   <trkpt lat="-3.1296930" lon="37.3107150">
    <ele>2842.1</ele>
    <time>2026-06-20T14:52:40Z</time>
   </trkpt>
   <trkpt lat="-3.1296950" lon="37.3107150">
    <ele>2842.1</ele>
    <time>2026-06-20T14:52:41Z</time>
   </trkpt>
   <trkpt lat="-3.1296960" lon="37.3107200">
    <ele>2842.2</ele>
    <time>2026-06-20T14:52:42Z</time>
   </trkpt>
   <trkpt lat="-3.1296960" lon="37.3107220">
    <ele>2842.2</ele>
    <time>2026-06-20T14:52:43Z</time>
   </trkpt>
   <trkpt lat="-3.1296900" lon="37.3107170">
    <ele>2842.3</ele>
    <time>2026-06-20T14:52:44Z</time>
   </trkpt>
   <trkpt lat="-3.1296830" lon="37.3107150">
    <ele>2842.4</ele>
    <time>2026-06-20T14:52:45Z</time>
   </trkpt>
   <trkpt lat="-3.1296720" lon="37.3107150">
    <ele>2842.5</ele>
    <time>2026-06-20T14:52:46Z</time>
   </trkpt>
   <trkpt lat="-3.1296730" lon="37.3107150">
    <ele>2842.5</ele>
    <time>2026-06-20T14:52:47Z</time>
   </trkpt>
   <trkpt lat="-3.1296760" lon="37.3107170">
    <ele>2842.5</ele>
    <time>2026-06-20T14:52:48Z</time>
   </trkpt>
   <trkpt lat="-3.1296760" lon="37.3107170">
    <ele>2842.5</ele>
    <time>2026-06-20T14:52:49Z</time>
   </trkpt>
   <trkpt lat="-3.1296700" lon="37.3107090">
    <ele>2842.7</ele>
    <time>2026-06-20T14:52:50Z</time>
   </trkpt>
   <trkpt lat="-3.1296700" lon="37.3107130">
    <ele>2842.7</ele>
    <time>2026-06-20T14:52:51Z</time>
   </trkpt>
   <trkpt lat="-3.1296660" lon="37.3107140">
    <ele>2842.7</ele>
    <time>2026-06-20T14:52:52Z</time>
   </trkpt>
   <trkpt lat="-3.1296630" lon="37.3107100">
    <ele>2842.8</ele>
    <time>2026-06-20T14:52:53Z</time>
   </trkpt>
   <trkpt lat="-3.1296640" lon="37.3107150">
    <ele>2842.8</ele>
    <time>2026-06-20T14:52:54Z</time>
   </trkpt>
   <trkpt lat="-3.1296640" lon="37.3107180">
    <ele>2842.9</ele>
    <time>2026-06-20T14:52:55Z</time>
   </trkpt>
   <trkpt lat="-3.1296610" lon="37.3107190">
    <ele>2842.9</ele>
    <time>2026-06-20T14:52:56Z</time>
   </trkpt>
   <trkpt lat="-3.1296630" lon="37.3107180">
    <ele>2842.9</ele>
    <time>2026-06-20T14:52:57Z</time>
   </trkpt>
   <trkpt lat="-3.1296640" lon="37.3107140">
    <ele>2843.0</ele>
    <time>2026-06-20T14:52:58Z</time>
   </trkpt>
   <trkpt lat="-3.1296640" lon="37.3107160">
    <ele>2843.0</ele>
    <time>2026-06-20T14:52:59Z</time>
   </trkpt>
   <trkpt lat="-3.1296650" lon="37.3107130">
    <ele>2843.0</ele>
    <time>2026-06-20T14:53:00Z</time>
   </trkpt>
   <trkpt lat="-3.1296630" lon="37.3107130">
    <ele>2843.1</ele>
    <time>2026-06-20T14:53:01Z</time>
   </trkpt>
   <trkpt lat="-3.1296620" lon="37.3107170">
    <ele>2843.1</ele>
    <time>2026-06-20T14:53:02Z</time>
   </trkpt>
   <trkpt lat="-3.1296650" lon="37.3107210">
    <ele>2843.2</ele>
    <time>2026-06-20T14:53:03Z</time>
   </trkpt>
   <trkpt lat="-3.1296660" lon="37.3107200">
    <ele>2843.2</ele>
    <time>2026-06-20T14:53:04Z</time>
   </trkpt>
   <trkpt lat="-3.1296620" lon="37.3107170">
    <ele>2843.2</ele>
    <time>2026-06-20T14:53:05Z</time>
   </trkpt>
   <trkpt lat="-3.1296610" lon="37.3107180">
    <ele>2843.2</ele>
    <time>2026-06-20T14:53:06Z</time>
   </trkpt>
   <trkpt lat="-3.1296600" lon="37.3107210">
    <ele>2843.3</ele>
    <time>2026-06-20T14:53:07Z</time>
   </trkpt>
   <trkpt lat="-3.1296560" lon="37.3107250">
    <ele>2843.3</ele>
    <time>2026-06-20T14:53:08Z</time>
   </trkpt>
   <trkpt lat="-3.1296580" lon="37.3107290">
    <ele>2843.4</ele>
    <time>2026-06-20T14:53:09Z</time>
   </trkpt>
   <trkpt lat="-3.1296520" lon="37.3107300">
    <ele>2843.4</ele>
    <time>2026-06-20T14:53:10Z</time>
   </trkpt>
   <trkpt lat="-3.1296530" lon="37.3107350">
    <ele>2843.5</ele>
    <time>2026-06-20T14:53:11Z</time>
   </trkpt>
   <trkpt lat="-3.1296490" lon="37.3107410">
    <ele>2843.6</ele>
    <time>2026-06-20T14:53:12Z</time>
   </trkpt>
   <trkpt lat="-3.1296500" lon="37.3107490">
    <ele>2843.7</ele>
    <time>2026-06-20T14:53:13Z</time>
   </trkpt>
   <trkpt lat="-3.1296540" lon="37.3107570">
    <ele>2843.8</ele>
    <time>2026-06-20T14:53:14Z</time>
   </trkpt>
   <trkpt lat="-3.1296490" lon="37.3107590">
    <ele>2843.8</ele>
    <time>2026-06-20T14:53:15Z</time>
   </trkpt>
   <trkpt lat="-3.1296440" lon="37.3107570">
    <ele>2843.9</ele>
    <time>2026-06-20T14:53:16Z</time>
   </trkpt>
   <trkpt lat="-3.1296380" lon="37.3107630">
    <ele>2844.0</ele>
    <time>2026-06-20T14:53:17Z</time>
   </trkpt>
   <trkpt lat="-3.1296370" lon="37.3107710">
    <ele>2844.0</ele>
    <time>2026-06-20T14:53:18Z</time>
   </trkpt>
   <trkpt lat="-3.1296310" lon="37.3107720">
    <ele>2844.1</ele>
    <time>2026-06-20T14:53:19Z</time>
   </trkpt>
   <trkpt lat="-3.1296250" lon="37.3107770">
    <ele>2844.2</ele>
    <time>2026-06-20T14:53:20Z</time>
   </trkpt>
   <trkpt lat="-3.1296230" lon="37.3107800">
    <ele>2844.2</ele>
    <time>2026-06-20T14:53:21Z</time>
   </trkpt>
   <trkpt lat="-3.1296230" lon="37.3107780">
    <ele>2844.2</ele>
    <time>2026-06-20T14:53:22Z</time>
   </trkpt>
   <trkpt lat="-3.1296170" lon="37.3107780">
    <ele>2844.3</ele>
    <time>2026-06-20T14:53:23Z</time>
   </trkpt>
   <trkpt lat="-3.1296100" lon="37.3107800">
    <ele>2844.4</ele>
    <time>2026-06-20T14:53:24Z</time>
   </trkpt>
   <trkpt lat="-3.1296050" lon="37.3107770">
    <ele>2844.4</ele>
    <time>2026-06-20T14:53:25Z</time>
   </trkpt>
   <trkpt lat="-3.1296050" lon="37.3107790">
    <ele>2844.4</ele>
    <time>2026-06-20T14:53:26Z</time>
   </trkpt>
   <trkpt lat="-3.1296000" lon="37.3107810">
    <ele>2844.5</ele>
    <time>2026-06-20T14:53:27Z</time>
   </trkpt>
   <trkpt lat="-3.1295970" lon="37.3107790">
    <ele>2844.5</ele>
    <time>2026-06-20T14:53:28Z</time>
   </trkpt>
   <trkpt lat="-3.1295930" lon="37.3107770">
    <ele>2844.6</ele>
    <time>2026-06-20T14:53:29Z</time>
   </trkpt>
   <trkpt lat="-3.1295880" lon="37.3107740">
    <ele>2844.6</ele>
    <time>2026-06-20T14:53:30Z</time>
   </trkpt>
   <trkpt lat="-3.1295870" lon="37.3107740">
    <ele>2844.7</ele>
    <time>2026-06-20T14:53:31Z</time>
   </trkpt>
   <trkpt lat="-3.1295820" lon="37.3107740">
    <ele>2844.7</ele>
    <time>2026-06-20T14:53:32Z</time>
   </trkpt>
   <trkpt lat="-3.1295790" lon="37.3107720">
    <ele>2844.7</ele>
    <time>2026-06-20T14:53:33Z</time>
   </trkpt>
   <trkpt lat="-3.1295770" lon="37.3107800">
    <ele>2844.8</ele>
    <time>2026-06-20T14:53:34Z</time>
   </trkpt>
   <trkpt lat="-3.1295780" lon="37.3107780">
    <ele>2844.8</ele>
    <time>2026-06-20T14:53:35Z</time>
   </trkpt>
   <trkpt lat="-3.1295720" lon="37.3107740">
    <ele>2844.9</ele>
    <time>2026-06-20T14:53:37Z</time>
   </trkpt>
   <trkpt lat="-3.1295720" lon="37.3107790">
    <ele>2845.0</ele>
    <time>2026-06-20T14:53:38Z</time>
   </trkpt>
   <trkpt lat="-3.1295700" lon="37.3107850">
    <ele>2845.0</ele>
    <time>2026-06-20T14:53:39Z</time>
   </trkpt>
   <trkpt lat="-3.1295660" lon="37.3107890">
    <ele>2845.1</ele>
    <time>2026-06-20T14:53:40Z</time>
   </trkpt>
   <trkpt lat="-3.1295640" lon="37.3107960">
    <ele>2845.1</ele>
    <time>2026-06-20T14:53:41Z</time>
   </trkpt>
   <trkpt lat="-3.1295640" lon="37.3108000">
    <ele>2845.2</ele>
    <time>2026-06-20T14:53:42Z</time>
   </trkpt>
   <trkpt lat="-3.1295640" lon="37.3108030">
    <ele>2845.2</ele>
    <time>2026-06-20T14:53:43Z</time>
   </trkpt>
   <trkpt lat="-3.1295620" lon="37.3108060">
    <ele>2845.2</ele>
    <time>2026-06-20T14:53:44Z</time>
   </trkpt>
   <trkpt lat="-3.1295640" lon="37.3108120">
    <ele>2845.3</ele>
    <time>2026-06-20T14:53:45Z</time>
   </trkpt>
   <trkpt lat="-3.1295660" lon="37.3108080">
    <ele>2845.3</ele>
    <time>2026-06-20T14:53:46Z</time>
   </trkpt>
   <trkpt lat="-3.1295630" lon="37.3108080">
    <ele>2845.4</ele>
    <time>2026-06-20T14:53:47Z</time>
   </trkpt>
   <trkpt lat="-3.1295590" lon="37.3108090">
    <ele>2845.4</ele>
    <time>2026-06-20T14:53:48Z</time>
   </trkpt>
   <trkpt lat="-3.1295510" lon="37.3108130">
    <ele>2845.5</ele>
    <time>2026-06-20T14:53:49Z</time>
   </trkpt>
   <trkpt lat="-3.1295460" lon="37.3108100">
    <ele>2845.5</ele>
    <time>2026-06-20T14:53:50Z</time>
   </trkpt>
   <trkpt lat="-3.1295450" lon="37.3108160">
    <ele>2845.6</ele>
    <time>2026-06-20T14:53:51Z</time>
   </trkpt>
   <trkpt lat="-3.1295410" lon="37.3108180">
    <ele>2845.6</ele>
    <time>2026-06-20T14:53:52Z</time>
   </trkpt>
   <trkpt lat="-3.1295370" lon="37.3108220">
    <ele>2845.7</ele>
    <time>2026-06-20T14:53:53Z</time>
   </trkpt>
   <trkpt lat="-3.1295310" lon="37.3108230">
    <ele>2845.7</ele>
    <time>2026-06-20T14:53:54Z</time>
   </trkpt>
   <trkpt lat="-3.1295270" lon="37.3108240">
    <ele>2845.7</ele>
    <time>2026-06-20T14:53:55Z</time>
   </trkpt>
   <trkpt lat="-3.1295210" lon="37.3108220">
    <ele>2845.8</ele>
    <time>2026-06-20T14:53:56Z</time>
   </trkpt>
   <trkpt lat="-3.1295210" lon="37.3108200">
    <ele>2845.8</ele>
    <time>2026-06-20T14:53:57Z</time>
   </trkpt>
   <trkpt lat="-3.1295170" lon="37.3108230">
    <ele>2845.8</ele>
    <time>2026-06-20T14:53:58Z</time>
   </trkpt>
   <trkpt lat="-3.1295210" lon="37.3108220">
    <ele>2845.9</ele>
    <time>2026-06-20T14:53:59Z</time>
   </trkpt>
   <trkpt lat="-3.1295210" lon="37.3108230">
    <ele>2845.9</ele>
    <time>2026-06-20T14:54:00Z</time>
   </trkpt>
   <trkpt lat="-3.1295180" lon="37.3108240">
    <ele>2845.9</ele>
    <time>2026-06-20T14:54:01Z</time>
   </trkpt>
   <trkpt lat="-3.1295130" lon="37.3108210">
    <ele>2846.0</ele>
    <time>2026-06-20T14:54:02Z</time>
   </trkpt>
   <trkpt lat="-3.1295130" lon="37.3108260">
    <ele>2846.0</ele>
    <time>2026-06-20T14:54:03Z</time>
   </trkpt>
   <trkpt lat="-3.1295100" lon="37.3108260">
    <ele>2846.0</ele>
    <time>2026-06-20T14:54:04Z</time>
   </trkpt>
   <trkpt lat="-3.1295080" lon="37.3108240">
    <ele>2846.0</ele>
    <time>2026-06-20T14:54:05Z</time>
   </trkpt>
   <trkpt lat="-3.1295040" lon="37.3108290">
    <ele>2846.1</ele>
    <time>2026-06-20T14:54:06Z</time>
   </trkpt>
   <trkpt lat="-3.1294980" lon="37.3108270">
    <ele>2846.1</ele>
    <time>2026-06-20T14:54:07Z</time>
   </trkpt>
   <trkpt lat="-3.1294880" lon="37.3108330">
    <ele>2846.2</ele>
    <time>2026-06-20T14:54:08Z</time>
   </trkpt>
   <trkpt lat="-3.1294850" lon="37.3108380">
    <ele>2846.3</ele>
    <time>2026-06-20T14:54:09Z</time>
   </trkpt>
   <trkpt lat="-3.1294850" lon="37.3108420">
    <ele>2846.3</ele>
    <time>2026-06-20T14:54:10Z</time>
   </trkpt>
   <trkpt lat="-3.1294850" lon="37.3108440">
    <ele>2846.3</ele>
    <time>2026-06-20T14:54:11Z</time>
   </trkpt>
   <trkpt lat="-3.1294800" lon="37.3108430">
    <ele>2846.4</ele>
    <time>2026-06-20T14:54:12Z</time>
   </trkpt>
   <trkpt lat="-3.1294760" lon="37.3108400">
    <ele>2846.4</ele>
    <time>2026-06-20T14:54:13Z</time>
   </trkpt>
   <trkpt lat="-3.1294740" lon="37.3108370">
    <ele>2846.4</ele>
    <time>2026-06-20T14:54:14Z</time>
   </trkpt>
   <trkpt lat="-3.1294690" lon="37.3108340">
    <ele>2846.5</ele>
    <time>2026-06-20T14:54:15Z</time>
   </trkpt>
   <trkpt lat="-3.1294700" lon="37.3108370">
    <ele>2846.5</ele>
    <time>2026-06-20T14:54:16Z</time>
   </trkpt>
   <trkpt lat="-3.1294580" lon="37.3108360">
    <ele>2846.6</ele>
    <time>2026-06-20T14:54:17Z</time>
   </trkpt>
   <trkpt lat="-3.1294560" lon="37.3108420">
    <ele>2846.6</ele>
    <time>2026-06-20T14:54:18Z</time>
   </trkpt>
   <trkpt lat="-3.1294520" lon="37.3108360">
    <ele>2846.7</ele>
    <time>2026-06-20T14:54:19Z</time>
   </trkpt>
   <trkpt lat="-3.1294500" lon="37.3108300">
    <ele>2846.7</ele>
    <time>2026-06-20T14:54:20Z</time>
   </trkpt>
   <trkpt lat="-3.1294480" lon="37.3108270">
    <ele>2846.7</ele>
    <time>2026-06-20T14:54:21Z</time>
   </trkpt>
   <trkpt lat="-3.1294320" lon="37.3108250">
    <ele>2846.8</ele>
    <time>2026-06-20T14:54:22Z</time>
   </trkpt>
   <trkpt lat="-3.1294370" lon="37.3108250">
    <ele>2846.9</ele>
    <time>2026-06-20T14:54:23Z</time>
   </trkpt>
   <trkpt lat="-3.1294300" lon="37.3108240">
    <ele>2846.9</ele>
    <time>2026-06-20T14:54:24Z</time>
   </trkpt>
   <trkpt lat="-3.1294270" lon="37.3108260">
    <ele>2847.0</ele>
    <time>2026-06-20T14:54:25Z</time>
   </trkpt>
   <trkpt lat="-3.1294220" lon="37.3108270">
    <ele>2847.0</ele>
    <time>2026-06-20T14:54:26Z</time>
   </trkpt>
   <trkpt lat="-3.1294170" lon="37.3108280">
    <ele>2847.0</ele>
    <time>2026-06-20T14:54:27Z</time>
   </trkpt>
   <trkpt lat="-3.1294070" lon="37.3108230">
    <ele>2847.1</ele>
    <time>2026-06-20T14:54:28Z</time>
   </trkpt>
   <trkpt lat="-3.1294040" lon="37.3108250">
    <ele>2847.1</ele>
    <time>2026-06-20T14:54:29Z</time>
   </trkpt>
   <trkpt lat="-3.1294050" lon="37.3108260">
    <ele>2847.1</ele>
    <time>2026-06-20T14:54:30Z</time>
   </trkpt>
   <trkpt lat="-3.1294050" lon="37.3108260">
    <ele>2847.1</ele>
    <time>2026-06-20T14:54:31Z</time>
   </trkpt>
   <trkpt lat="-3.1294130" lon="37.3108330">
    <ele>2847.2</ele>
    <time>2026-06-20T14:54:32Z</time>
   </trkpt>
   <trkpt lat="-3.1294130" lon="37.3108330">
    <ele>2847.2</ele>
    <time>2026-06-20T14:54:33Z</time>
   </trkpt>
   <trkpt lat="-3.1294130" lon="37.3108330">
    <ele>2847.2</ele>
    <time>2026-06-20T14:54:34Z</time>
   </trkpt>
   <trkpt lat="-3.1294130" lon="37.3108330">
    <ele>2847.2</ele>
    <time>2026-06-20T14:54:35Z</time>
   </trkpt>
   <trkpt lat="-3.1294130" lon="37.3108330">
    <ele>2847.2</ele>
    <time>2026-06-20T14:54:36Z</time>
   </trkpt>
   <trkpt lat="-3.1294130" lon="37.3108330">
    <ele>2847.2</ele>
    <time>2026-06-20T14:54:37Z</time>
   </trkpt>
   <trkpt lat="-3.1294150" lon="37.3108360">
    <ele>2847.2</ele>
    <time>2026-06-20T14:54:38Z</time>
   </trkpt>
   <trkpt lat="-3.1294140" lon="37.3108330">
    <ele>2847.3</ele>
    <time>2026-06-20T14:54:39Z</time>
   </trkpt>
   <trkpt lat="-3.1294150" lon="37.3108330">
    <ele>2847.3</ele>
    <time>2026-06-20T14:54:40Z</time>
   </trkpt>
   <trkpt lat="-3.1294150" lon="37.3108330">
    <ele>2847.3</ele>
    <time>2026-06-20T14:54:41Z</time>
   </trkpt>
   <trkpt lat="-3.1294110" lon="37.3108340">
    <ele>2847.3</ele>
    <time>2026-06-20T14:54:42Z</time>
   </trkpt>
   <trkpt lat="-3.1294090" lon="37.3108320">
    <ele>2847.3</ele>
    <time>2026-06-20T14:54:43Z</time>
   </trkpt>
   <trkpt lat="-3.1294080" lon="37.3108300">
    <ele>2847.3</ele>
    <time>2026-06-20T14:54:44Z</time>
   </trkpt>
   <trkpt lat="-3.1294040" lon="37.3108300">
    <ele>2847.4</ele>
    <time>2026-06-20T14:54:45Z</time>
   </trkpt>
   <trkpt lat="-3.1294020" lon="37.3108320">
    <ele>2847.4</ele>
    <time>2026-06-20T14:54:46Z</time>
   </trkpt>
   <trkpt lat="-3.1293900" lon="37.3108330">
    <ele>2847.5</ele>
    <time>2026-06-20T14:54:47Z</time>
   </trkpt>
   <trkpt lat="-3.1293880" lon="37.3108300">
    <ele>2847.5</ele>
    <time>2026-06-20T14:54:48Z</time>
   </trkpt>
   <trkpt lat="-3.1293890" lon="37.3108340">
    <ele>2847.5</ele>
    <time>2026-06-20T14:54:49Z</time>
   </trkpt>
   <trkpt lat="-3.1293820" lon="37.3108390">
    <ele>2847.6</ele>
    <time>2026-06-20T14:54:50Z</time>
   </trkpt>
   <trkpt lat="-3.1293810" lon="37.3108460">
    <ele>2847.6</ele>
    <time>2026-06-20T14:54:51Z</time>
   </trkpt>
   <trkpt lat="-3.1293740" lon="37.3108440">
    <ele>2847.7</ele>
    <time>2026-06-20T14:54:52Z</time>
   </trkpt>
   <trkpt lat="-3.1293680" lon="37.3108400">
    <ele>2847.7</ele>
    <time>2026-06-20T14:54:53Z</time>
   </trkpt>
   <trkpt lat="-3.1293610" lon="37.3108350">
    <ele>2847.8</ele>
    <time>2026-06-20T14:54:54Z</time>
   </trkpt>
   <trkpt lat="-3.1293540" lon="37.3108370">
    <ele>2847.9</ele>
    <time>2026-06-20T14:54:55Z</time>
   </trkpt>
   <trkpt lat="-3.1293540" lon="37.3108380">
    <ele>2847.9</ele>
    <time>2026-06-20T14:54:56Z</time>
   </trkpt>
   <trkpt lat="-3.1293510" lon="37.3108390">
    <ele>2847.9</ele>
    <time>2026-06-20T14:54:57Z</time>
   </trkpt>
   <trkpt lat="-3.1293450" lon="37.3108300">
    <ele>2848.0</ele>
    <time>2026-06-20T14:54:58Z</time>
   </trkpt>
   <trkpt lat="-3.1293340" lon="37.3108230">
    <ele>2848.1</ele>
    <time>2026-06-20T14:54:59Z</time>
   </trkpt>
   <trkpt lat="-3.1293260" lon="37.3108220">
    <ele>2848.1</ele>
    <time>2026-06-20T14:55:00Z</time>
   </trkpt>
   <trkpt lat="-3.1293190" lon="37.3108170">
    <ele>2848.2</ele>
    <time>2026-06-20T14:55:01Z</time>
   </trkpt>
   <trkpt lat="-3.1293170" lon="37.3108180">
    <ele>2848.2</ele>
    <time>2026-06-20T14:55:02Z</time>
   </trkpt>
   <trkpt lat="-3.1293150" lon="37.3108160">
    <ele>2848.2</ele>
    <time>2026-06-20T14:55:03Z</time>
   </trkpt>
   <trkpt lat="-3.1293050" lon="37.3108170">
    <ele>2848.3</ele>
    <time>2026-06-20T14:55:04Z</time>
   </trkpt>
   <trkpt lat="-3.1293090" lon="37.3108190">
    <ele>2848.3</ele>
    <time>2026-06-20T14:55:05Z</time>
   </trkpt>
   <trkpt lat="-3.1293040" lon="37.3108180">
    <ele>2848.4</ele>
    <time>2026-06-20T14:55:06Z</time>
   </trkpt>
   <trkpt lat="-3.1292990" lon="37.3108170">
    <ele>2848.4</ele>
    <time>2026-06-20T14:55:07Z</time>
   </trkpt>
   <trkpt lat="-3.1292940" lon="37.3108110">
    <ele>2848.5</ele>
    <time>2026-06-20T14:55:08Z</time>
   </trkpt>
   <trkpt lat="-3.1292930" lon="37.3108130">
    <ele>2848.5</ele>
    <time>2026-06-20T14:55:09Z</time>
   </trkpt>
   <trkpt lat="-3.1292860" lon="37.3108120">
    <ele>2848.6</ele>
    <time>2026-06-20T14:55:10Z</time>
   </trkpt>
   <trkpt lat="-3.1292840" lon="37.3108130">
    <ele>2848.6</ele>
    <time>2026-06-20T14:55:11Z</time>
   </trkpt>
   <trkpt lat="-3.1292760" lon="37.3108060">
    <ele>2848.7</ele>
    <time>2026-06-20T14:55:12Z</time>
   </trkpt>
   <trkpt lat="-3.1292760" lon="37.3108070">
    <ele>2848.7</ele>
    <time>2026-06-20T14:55:13Z</time>
   </trkpt>
   <trkpt lat="-3.1292710" lon="37.3107940">
    <ele>2848.8</ele>
    <time>2026-06-20T14:55:14Z</time>
   </trkpt>
   <trkpt lat="-3.1292760" lon="37.3107930">
    <ele>2848.9</ele>
    <time>2026-06-20T14:55:15Z</time>
   </trkpt>
   <trkpt lat="-3.1292800" lon="37.3107920">
    <ele>2848.9</ele>
    <time>2026-06-20T14:55:16Z</time>
   </trkpt>
   <trkpt lat="-3.1292760" lon="37.3107950">
    <ele>2849.0</ele>
    <time>2026-06-20T14:55:17Z</time>
   </trkpt>
   <trkpt lat="-3.1292760" lon="37.3107950">
    <ele>2849.0</ele>
    <time>2026-06-20T14:55:18Z</time>
   </trkpt>
   <trkpt lat="-3.1292690" lon="37.3107930">
    <ele>2849.0</ele>
    <time>2026-06-20T14:55:19Z</time>
   </trkpt>
   <trkpt lat="-3.1292720" lon="37.3107980">
    <ele>2849.1</ele>
    <time>2026-06-20T14:55:20Z</time>
   </trkpt>
   <trkpt lat="-3.1292730" lon="37.3107980">
    <ele>2849.1</ele>
    <time>2026-06-20T14:55:21Z</time>
   </trkpt>
   <trkpt lat="-3.1292710" lon="37.3107930">
    <ele>2849.1</ele>
    <time>2026-06-20T14:55:22Z</time>
   </trkpt>
   <trkpt lat="-3.1292750" lon="37.3108020">
    <ele>2849.2</ele>
    <time>2026-06-20T14:55:23Z</time>
   </trkpt>
   <trkpt lat="-3.1292760" lon="37.3108110">
    <ele>2849.3</ele>
    <time>2026-06-20T14:55:24Z</time>
   </trkpt>
   <trkpt lat="-3.1292850" lon="37.3108110">
    <ele>2849.4</ele>
    <time>2026-06-20T14:55:25Z</time>
   </trkpt>
   <trkpt lat="-3.1292870" lon="37.3108120">
    <ele>2849.5</ele>
    <time>2026-06-20T14:55:26Z</time>
   </trkpt>
   <trkpt lat="-3.1292820" lon="37.3108190">
    <ele>2849.6</ele>
    <time>2026-06-20T14:55:27Z</time>
   </trkpt>
   <trkpt lat="-3.1292760" lon="37.3108230">
    <ele>2849.6</ele>
    <time>2026-06-20T14:55:28Z</time>
   </trkpt>
   <trkpt lat="-3.1292760" lon="37.3108290">
    <ele>2849.7</ele>
    <time>2026-06-20T14:55:29Z</time>
   </trkpt>
   <trkpt lat="-3.1292710" lon="37.3108340">
    <ele>2849.8</ele>
    <time>2026-06-20T14:55:30Z</time>
   </trkpt>
   <trkpt lat="-3.1292700" lon="37.3108400">
    <ele>2849.8</ele>
    <time>2026-06-20T14:55:31Z</time>
   </trkpt>
   <trkpt lat="-3.1292660" lon="37.3108450">
    <ele>2849.9</ele>
    <time>2026-06-20T14:55:32Z</time>
   </trkpt>
   <trkpt lat="-3.1292660" lon="37.3108450">
    <ele>2849.9</ele>
    <time>2026-06-20T14:55:33Z</time>
   </trkpt>
   <trkpt lat="-3.1292660" lon="37.3108450">
    <ele>2849.9</ele>
    <time>2026-06-20T14:55:34Z</time>
   </trkpt>
   <trkpt lat="-3.1292660" lon="37.3108450">
    <ele>2849.9</ele>
    <time>2026-06-20T14:55:35Z</time>
   </trkpt>
   <trkpt lat="-3.1292660" lon="37.3108450">
    <ele>2849.9</ele>
    <time>2026-06-20T14:55:36Z</time>
   </trkpt>
   <trkpt lat="-3.1292660" lon="37.3108450">
    <ele>2849.9</ele>
    <time>2026-06-20T14:55:37Z</time>
   </trkpt>
   <trkpt lat="-3.1292630" lon="37.3108410">
    <ele>2850.0</ele>
    <time>2026-06-20T14:55:38Z</time>
   </trkpt>
   <trkpt lat="-3.1292600" lon="37.3108390">
    <ele>2850.0</ele>
    <time>2026-06-20T14:55:39Z</time>
   </trkpt>
   <trkpt lat="-3.1292590" lon="37.3108420">
    <ele>2850.0</ele>
    <time>2026-06-20T14:55:40Z</time>
   </trkpt>
   <trkpt lat="-3.1292510" lon="37.3108420">
    <ele>2850.1</ele>
    <time>2026-06-20T14:55:41Z</time>
   </trkpt>
   <trkpt lat="-3.1292490" lon="37.3108450">
    <ele>2850.2</ele>
    <time>2026-06-20T14:55:43Z</time>
   </trkpt>
   <trkpt lat="-3.1292480" lon="37.3108510">
    <ele>2850.2</ele>
    <time>2026-06-20T14:55:44Z</time>
   </trkpt>
   <trkpt lat="-3.1292470" lon="37.3108510">
    <ele>2850.3</ele>
    <time>2026-06-20T14:55:45Z</time>
   </trkpt>
   <trkpt lat="-3.1292450" lon="37.3108530">
    <ele>2850.3</ele>
    <time>2026-06-20T14:55:46Z</time>
   </trkpt>
   <trkpt lat="-3.1292390" lon="37.3108510">
    <ele>2850.4</ele>
    <time>2026-06-20T14:55:47Z</time>
   </trkpt>
   <trkpt lat="-3.1292430" lon="37.3108550">
    <ele>2850.4</ele>
    <time>2026-06-20T14:55:48Z</time>
   </trkpt>
   <trkpt lat="-3.1292370" lon="37.3108580">
    <ele>2850.5</ele>
    <time>2026-06-20T14:55:49Z</time>
   </trkpt>
   <trkpt lat="-3.1292340" lon="37.3108610">
    <ele>2850.6</ele>
    <time>2026-06-20T14:55:50Z</time>
   </trkpt>
   <trkpt lat="-3.1292240" lon="37.3108650">
    <ele>2850.7</ele>
    <time>2026-06-20T14:55:51Z</time>
   </trkpt>
   <trkpt lat="-3.1292160" lon="37.3108620">
    <ele>2850.8</ele>
    <time>2026-06-20T14:55:52Z</time>
   </trkpt>
   <trkpt lat="-3.1292170" lon="37.3108600">
    <ele>2850.8</ele>
    <time>2026-06-20T14:55:53Z</time>
   </trkpt>
   <trkpt lat="-3.1292160" lon="37.3108580">
    <ele>2850.9</ele>
    <time>2026-06-20T14:55:54Z</time>
   </trkpt>
   <trkpt lat="-3.1292140" lon="37.3108600">
    <ele>2850.9</ele>
    <time>2026-06-20T14:55:55Z</time>
   </trkpt>
   <trkpt lat="-3.1292150" lon="37.3108600">
    <ele>2850.9</ele>
    <time>2026-06-20T14:55:56Z</time>
   </trkpt>
   <trkpt lat="-3.1292170" lon="37.3108590">
    <ele>2850.9</ele>
    <time>2026-06-20T14:55:57Z</time>
   </trkpt>
   <trkpt lat="-3.1292130" lon="37.3108610">
    <ele>2851.0</ele>
    <time>2026-06-20T14:55:58Z</time>
   </trkpt>
   <trkpt lat="-3.1292120" lon="37.3108630">
    <ele>2851.0</ele>
    <time>2026-06-20T14:55:59Z</time>
   </trkpt>
   <trkpt lat="-3.1292070" lon="37.3108620">
    <ele>2851.1</ele>
    <time>2026-06-20T14:56:00Z</time>
   </trkpt>
   <trkpt lat="-3.1292070" lon="37.3108630">
    <ele>2851.1</ele>
    <time>2026-06-20T14:56:01Z</time>
   </trkpt>
   <trkpt lat="-3.1292070" lon="37.3108600">
    <ele>2851.1</ele>
    <time>2026-06-20T14:56:02Z</time>
   </trkpt>
   <trkpt lat="-3.1292050" lon="37.3108530">
    <ele>2851.2</ele>
    <time>2026-06-20T14:56:03Z</time>
   </trkpt>
   <trkpt lat="-3.1292070" lon="37.3108490">
    <ele>2851.3</ele>
    <time>2026-06-20T14:56:04Z</time>
   </trkpt>
   <trkpt lat="-3.1292080" lon="37.3108530">
    <ele>2851.3</ele>
    <time>2026-06-20T14:56:05Z</time>
   </trkpt>
   <trkpt lat="-3.1291940" lon="37.3108550">
    <ele>2851.5</ele>
    <time>2026-06-20T14:56:06Z</time>
   </trkpt>
   <trkpt lat="-3.1291950" lon="37.3108550">
    <ele>2851.5</ele>
    <time>2026-06-20T14:56:07Z</time>
   </trkpt>
   <trkpt lat="-3.1291940" lon="37.3108580">
    <ele>2851.6</ele>
    <time>2026-06-20T14:56:08Z</time>
   </trkpt>
   <trkpt lat="-3.1291910" lon="37.3108630">
    <ele>2851.6</ele>
    <time>2026-06-20T14:56:09Z</time>
   </trkpt>
   <trkpt lat="-3.1291940" lon="37.3108590">
    <ele>2851.7</ele>
    <time>2026-06-20T14:56:10Z</time>
   </trkpt>
   <trkpt lat="-3.1291920" lon="37.3108550">
    <ele>2851.7</ele>
    <time>2026-06-20T14:56:11Z</time>
   </trkpt>
   <trkpt lat="-3.1291850" lon="37.3108590">
    <ele>2851.8</ele>
    <time>2026-06-20T14:56:12Z</time>
   </trkpt>
   <trkpt lat="-3.1291740" lon="37.3108620">
    <ele>2852.0</ele>
    <time>2026-06-20T14:56:13Z</time>
   </trkpt>
   <trkpt lat="-3.1291670" lon="37.3108600">
    <ele>2852.1</ele>
    <time>2026-06-20T14:56:14Z</time>
   </trkpt>
   <trkpt lat="-3.1291650" lon="37.3108830">
    <ele>2852.4</ele>
    <time>2026-06-20T14:56:15Z</time>
   </trkpt>
   <trkpt lat="-3.1291560" lon="37.3109020">
    <ele>2852.6</ele>
    <time>2026-06-20T14:56:16Z</time>
   </trkpt>
   <trkpt lat="-3.1291550" lon="37.3109050">
    <ele>2852.7</ele>
    <time>2026-06-20T14:56:17Z</time>
   </trkpt>
   <trkpt lat="-3.1291490" lon="37.3109070">
    <ele>2852.7</ele>
    <time>2026-06-20T14:56:18Z</time>
   </trkpt>
   <trkpt lat="-3.1291420" lon="37.3109140">
    <ele>2852.9</ele>
    <time>2026-06-20T14:56:19Z</time>
   </trkpt>
   <trkpt lat="-3.1291370" lon="37.3109180">
    <ele>2852.9</ele>
    <time>2026-06-20T14:56:20Z</time>
   </trkpt>
   <trkpt lat="-3.1291340" lon="37.3109190">
    <ele>2853.0</ele>
    <time>2026-06-20T14:56:21Z</time>
   </trkpt>
   <trkpt lat="-3.1291220" lon="37.3109360">
    <ele>2853.2</ele>
    <time>2026-06-20T14:56:22Z</time>
   </trkpt>
   <trkpt lat="-3.1291150" lon="37.3109420">
    <ele>2853.3</ele>
    <time>2026-06-20T14:56:23Z</time>
   </trkpt>
   <trkpt lat="-3.1291060" lon="37.3109470">
    <ele>2853.5</ele>
    <time>2026-06-20T14:56:24Z</time>
   </trkpt>
   <trkpt lat="-3.1291000" lon="37.3109510">
    <ele>2853.6</ele>
    <time>2026-06-20T14:56:25Z</time>
   </trkpt>
   <trkpt lat="-3.1290940" lon="37.3109510">
    <ele>2853.6</ele>
    <time>2026-06-20T14:56:26Z</time>
   </trkpt>
   <trkpt lat="-3.1290890" lon="37.3109570">
    <ele>2853.7</ele>
    <time>2026-06-20T14:56:27Z</time>
   </trkpt>
   <trkpt lat="-3.1290840" lon="37.3109630">
    <ele>2853.8</ele>
    <time>2026-06-20T14:56:28Z</time>
   </trkpt>
   <trkpt lat="-3.1290740" lon="37.3109700">
    <ele>2853.9</ele>
    <time>2026-06-20T14:56:29Z</time>
   </trkpt>
   <trkpt lat="-3.1290600" lon="37.3109810">
    <ele>2854.1</ele>
    <time>2026-06-20T14:56:30Z</time>
   </trkpt>
   <trkpt lat="-3.1290560" lon="37.3109790">
    <ele>2854.2</ele>
    <time>2026-06-20T14:56:31Z</time>
   </trkpt>
   <trkpt lat="-3.1290520" lon="37.3109720">
    <ele>2854.3</ele>
    <time>2026-06-20T14:56:32Z</time>
   </trkpt>
   <trkpt lat="-3.1290430" lon="37.3109700">
    <ele>2854.4</ele>
    <time>2026-06-20T14:56:33Z</time>
   </trkpt>
   <trkpt lat="-3.1290350" lon="37.3109670">
    <ele>2854.5</ele>
    <time>2026-06-20T14:56:34Z</time>
   </trkpt>
   <trkpt lat="-3.1290280" lon="37.3109640">
    <ele>2854.6</ele>
    <time>2026-06-20T14:56:35Z</time>
   </trkpt>
   <trkpt lat="-3.1290220" lon="37.3109640">
    <ele>2854.6</ele>
    <time>2026-06-20T14:56:36Z</time>
   </trkpt>
   <trkpt lat="-3.1290150" lon="37.3109680">
    <ele>2854.7</ele>
    <time>2026-06-20T14:56:37Z</time>
   </trkpt>
   <trkpt lat="-3.1290100" lon="37.3109710">
    <ele>2854.8</ele>
    <time>2026-06-20T14:56:38Z</time>
   </trkpt>
   <trkpt lat="-3.1290030" lon="37.3109710">
    <ele>2854.9</ele>
    <time>2026-06-20T14:56:39Z</time>
   </trkpt>
   <trkpt lat="-3.1289960" lon="37.3109680">
    <ele>2854.9</ele>
    <time>2026-06-20T14:56:40Z</time>
   </trkpt>
   <trkpt lat="-3.1289860" lon="37.3109640">
    <ele>2855.1</ele>
    <time>2026-06-20T14:56:41Z</time>
   </trkpt>
   <trkpt lat="-3.1289850" lon="37.3109760">
    <ele>2855.2</ele>
    <time>2026-06-20T14:56:42Z</time>
   </trkpt>
   <trkpt lat="-3.1289860" lon="37.3109880">
    <ele>2855.3</ele>
    <time>2026-06-20T14:56:43Z</time>
   </trkpt>
   <trkpt lat="-3.1289790" lon="37.3109930">
    <ele>2855.4</ele>
    <time>2026-06-20T14:56:44Z</time>
   </trkpt>
   <trkpt lat="-3.1289690" lon="37.3109920">
    <ele>2855.5</ele>
    <time>2026-06-20T14:56:45Z</time>
   </trkpt>
   <trkpt lat="-3.1289660" lon="37.3109860">
    <ele>2855.6</ele>
    <time>2026-06-20T14:56:46Z</time>
   </trkpt>
   <trkpt lat="-3.1289570" lon="37.3109910">
    <ele>2855.7</ele>
    <time>2026-06-20T14:56:47Z</time>
   </trkpt>
   <trkpt lat="-3.1289520" lon="37.3109930">
    <ele>2855.8</ele>
    <time>2026-06-20T14:56:48Z</time>
   </trkpt>
   <trkpt lat="-3.1289500" lon="37.3109980">
    <ele>2855.8</ele>
    <time>2026-06-20T14:56:49Z</time>
   </trkpt>
   <trkpt lat="-3.1289470" lon="37.3110050">
    <ele>2855.9</ele>
    <time>2026-06-20T14:56:50Z</time>
   </trkpt>
   <trkpt lat="-3.1289390" lon="37.3110070">
    <ele>2856.0</ele>
    <time>2026-06-20T14:56:51Z</time>
   </trkpt>
   <trkpt lat="-3.1289320" lon="37.3110060">
    <ele>2856.1</ele>
    <time>2026-06-20T14:56:52Z</time>
   </trkpt>
   <trkpt lat="-3.1289330" lon="37.3110200">
    <ele>2856.2</ele>
    <time>2026-06-20T14:56:53Z</time>
   </trkpt>
   <trkpt lat="-3.1289250" lon="37.3110190">
    <ele>2856.3</ele>
    <time>2026-06-20T14:56:54Z</time>
   </trkpt>
   <trkpt lat="-3.1289230" lon="37.3110210">
    <ele>2856.4</ele>
    <time>2026-06-20T14:56:55Z</time>
   </trkpt>
   <trkpt lat="-3.1289180" lon="37.3110250">
    <ele>2856.4</ele>
    <time>2026-06-20T14:56:56Z</time>
   </trkpt>
   <trkpt lat="-3.1289100" lon="37.3110250">
    <ele>2856.5</ele>
    <time>2026-06-20T14:56:57Z</time>
   </trkpt>
   <trkpt lat="-3.1289150" lon="37.3110340">
    <ele>2856.6</ele>
    <time>2026-06-20T14:56:58Z</time>
   </trkpt>
   <trkpt lat="-3.1289110" lon="37.3110430">
    <ele>2856.7</ele>
    <time>2026-06-20T14:56:59Z</time>
   </trkpt>
   <trkpt lat="-3.1289090" lon="37.3110480">
    <ele>2856.8</ele>
    <time>2026-06-20T14:57:00Z</time>
   </trkpt>
   <trkpt lat="-3.1289110" lon="37.3110510">
    <ele>2856.9</ele>
    <time>2026-06-20T14:57:01Z</time>
   </trkpt>
   <trkpt lat="-3.1289030" lon="37.3110530">
    <ele>2856.9</ele>
    <time>2026-06-20T14:57:02Z</time>
   </trkpt>
   <trkpt lat="-3.1289020" lon="37.3110550">
    <ele>2857.0</ele>
    <time>2026-06-20T14:57:03Z</time>
   </trkpt>
   <trkpt lat="-3.1288990" lon="37.3110550">
    <ele>2857.0</ele>
    <time>2026-06-20T14:57:04Z</time>
   </trkpt>
   <trkpt lat="-3.1288930" lon="37.3110550">
    <ele>2857.1</ele>
    <time>2026-06-20T14:57:05Z</time>
   </trkpt>
   <trkpt lat="-3.1288850" lon="37.3110570">
    <ele>2857.2</ele>
    <time>2026-06-20T14:57:06Z</time>
   </trkpt>
   <trkpt lat="-3.1288820" lon="37.3110610">
    <ele>2857.2</ele>
    <time>2026-06-20T14:57:07Z</time>
   </trkpt>
   <trkpt lat="-3.1288770" lon="37.3110630">
    <ele>2857.3</ele>
    <time>2026-06-20T14:57:08Z</time>
   </trkpt>
   <trkpt lat="-3.1288720" lon="37.3110630">
    <ele>2857.3</ele>
    <time>2026-06-20T14:57:09Z</time>
   </trkpt>
   <trkpt lat="-3.1288690" lon="37.3110690">
    <ele>2857.4</ele>
    <time>2026-06-20T14:57:10Z</time>
   </trkpt>
   <trkpt lat="-3.1288630" lon="37.3110740">
    <ele>2857.5</ele>
    <time>2026-06-20T14:57:11Z</time>
   </trkpt>
   <trkpt lat="-3.1288560" lon="37.3110790">
    <ele>2857.6</ele>
    <time>2026-06-20T14:57:12Z</time>
   </trkpt>
   <trkpt lat="-3.1288560" lon="37.3110830">
    <ele>2857.7</ele>
    <time>2026-06-20T14:57:13Z</time>
   </trkpt>
   <trkpt lat="-3.1288510" lon="37.3110850">
    <ele>2857.7</ele>
    <time>2026-06-20T14:57:14Z</time>
   </trkpt>
   <trkpt lat="-3.1288500" lon="37.3110870">
    <ele>2857.7</ele>
    <time>2026-06-20T14:57:15Z</time>
   </trkpt>
   <trkpt lat="-3.1288160" lon="37.3111010">
    <ele>2858.2</ele>
    <time>2026-06-20T14:57:16Z</time>
   </trkpt>
   <trkpt lat="-3.1288220" lon="37.3110970">
    <ele>2858.2</ele>
    <time>2026-06-20T14:57:17Z</time>
   </trkpt>
   <trkpt lat="-3.1288240" lon="37.3110970">
    <ele>2858.3</ele>
    <time>2026-06-20T14:57:18Z</time>
   </trkpt>
   <trkpt lat="-3.1288190" lon="37.3110930">
    <ele>2858.3</ele>
    <time>2026-06-20T14:57:19Z</time>
   </trkpt>
   <trkpt lat="-3.1288170" lon="37.3110980">
    <ele>2858.4</ele>
    <time>2026-06-20T14:57:20Z</time>
   </trkpt>
   <trkpt lat="-3.1288180" lon="37.3111030">
    <ele>2858.5</ele>
    <time>2026-06-20T14:57:21Z</time>
   </trkpt>
   <trkpt lat="-3.1288150" lon="37.3111020">
    <ele>2858.5</ele>
    <time>2026-06-20T14:57:22Z</time>
   </trkpt>
   <trkpt lat="-3.1288160" lon="37.3111020">
    <ele>2858.5</ele>
    <time>2026-06-20T14:57:23Z</time>
   </trkpt>
   <trkpt lat="-3.1288120" lon="37.3111020">
    <ele>2858.6</ele>
    <time>2026-06-20T14:57:24Z</time>
   </trkpt>
   <trkpt lat="-3.1288070" lon="37.3111020">
    <ele>2858.6</ele>
    <time>2026-06-20T14:57:25Z</time>
   </trkpt>
   <trkpt lat="-3.1288060" lon="37.3111010">
    <ele>2858.6</ele>
    <time>2026-06-20T14:57:26Z</time>
   </trkpt>
   <trkpt lat="-3.1288030" lon="37.3111000">
    <ele>2858.7</ele>
    <time>2026-06-20T14:57:27Z</time>
   </trkpt>
   <trkpt lat="-3.1288040" lon="37.3110980">
    <ele>2858.7</ele>
    <time>2026-06-20T14:57:28Z</time>
   </trkpt>
   <trkpt lat="-3.1288010" lon="37.3110930">
    <ele>2858.7</ele>
    <time>2026-06-20T14:57:29Z</time>
   </trkpt>
   <trkpt lat="-3.1287980" lon="37.3110890">
    <ele>2858.8</ele>
    <time>2026-06-20T14:57:30Z</time>
   </trkpt>
   <trkpt lat="-3.1287900" lon="37.3110870">
    <ele>2858.9</ele>
    <time>2026-06-20T14:57:31Z</time>
   </trkpt>
   <trkpt lat="-3.1287790" lon="37.3110890">
    <ele>2859.0</ele>
    <time>2026-06-20T14:57:32Z</time>
   </trkpt>
   <trkpt lat="-3.1287610" lon="37.3110930">
    <ele>2859.2</ele>
    <time>2026-06-20T14:57:33Z</time>
   </trkpt>
   <trkpt lat="-3.1287560" lon="37.3110890">
    <ele>2859.3</ele>
    <time>2026-06-20T14:57:34Z</time>
   </trkpt>
   <trkpt lat="-3.1287520" lon="37.3110820">
    <ele>2859.4</ele>
    <time>2026-06-20T14:57:35Z</time>
   </trkpt>
   <trkpt lat="-3.1287460" lon="37.3110810">
    <ele>2859.4</ele>
    <time>2026-06-20T14:57:36Z</time>
   </trkpt>
   <trkpt lat="-3.1287380" lon="37.3110810">
    <ele>2859.5</ele>
    <time>2026-06-20T14:57:37Z</time>
   </trkpt>
   <trkpt lat="-3.1287340" lon="37.3110760">
    <ele>2859.6</ele>
    <time>2026-06-20T14:57:38Z</time>
   </trkpt>
   <trkpt lat="-3.1287240" lon="37.3110730">
    <ele>2859.7</ele>
    <time>2026-06-20T14:57:39Z</time>
   </trkpt>
   <trkpt lat="-3.1287220" lon="37.3110740">
    <ele>2859.7</ele>
    <time>2026-06-20T14:57:40Z</time>
   </trkpt>
   <trkpt lat="-3.1287210" lon="37.3110730">
    <ele>2859.7</ele>
    <time>2026-06-20T14:57:41Z</time>
   </trkpt>
   <trkpt lat="-3.1287190" lon="37.3110710">
    <ele>2859.8</ele>
    <time>2026-06-20T14:57:42Z</time>
   </trkpt>
   <trkpt lat="-3.1287090" lon="37.3110670">
    <ele>2859.9</ele>
    <time>2026-06-20T14:57:43Z</time>
   </trkpt>
   <trkpt lat="-3.1287000" lon="37.3110660">
    <ele>2860.0</ele>
    <time>2026-06-20T14:57:44Z</time>
   </trkpt>
   <trkpt lat="-3.1287030" lon="37.3110630">
    <ele>2860.0</ele>
    <time>2026-06-20T14:57:45Z</time>
   </trkpt>
   <trkpt lat="-3.1286940" lon="37.3110540">
    <ele>2860.1</ele>
    <time>2026-06-20T14:57:46Z</time>
   </trkpt>
   <trkpt lat="-3.1286920" lon="37.3110560">
    <ele>2860.2</ele>
    <time>2026-06-20T14:57:47Z</time>
   </trkpt>
   <trkpt lat="-3.1286840" lon="37.3110500">
    <ele>2860.3</ele>
    <time>2026-06-20T14:57:49Z</time>
   </trkpt>
   <trkpt lat="-3.1286800" lon="37.3110470">
    <ele>2860.3</ele>
    <time>2026-06-20T14:57:50Z</time>
   </trkpt>
   <trkpt lat="-3.1286790" lon="37.3110480">
    <ele>2860.3</ele>
    <time>2026-06-20T14:57:51Z</time>
   </trkpt>
   <trkpt lat="-3.1286730" lon="37.3110520">
    <ele>2860.4</ele>
    <time>2026-06-20T14:57:52Z</time>
   </trkpt>
   <trkpt lat="-3.1286640" lon="37.3110520">
    <ele>2860.5</ele>
    <time>2026-06-20T14:57:53Z</time>
   </trkpt>
   <trkpt lat="-3.1286610" lon="37.3110480">
    <ele>2860.6</ele>
    <time>2026-06-20T14:57:54Z</time>
   </trkpt>
   <trkpt lat="-3.1286530" lon="37.3110470">
    <ele>2860.6</ele>
    <time>2026-06-20T14:57:55Z</time>
   </trkpt>
   <trkpt lat="-3.1286430" lon="37.3110510">
    <ele>2860.7</ele>
    <time>2026-06-20T14:57:56Z</time>
   </trkpt>
   <trkpt lat="-3.1286330" lon="37.3110480">
    <ele>2860.8</ele>
    <time>2026-06-20T14:57:57Z</time>
   </trkpt>
   <trkpt lat="-3.1286250" lon="37.3110430">
    <ele>2860.9</ele>
    <time>2026-06-20T14:57:58Z</time>
   </trkpt>
   <trkpt lat="-3.1286200" lon="37.3110360">
    <ele>2861.0</ele>
    <time>2026-06-20T14:57:59Z</time>
   </trkpt>
   <trkpt lat="-3.1286190" lon="37.3110250">
    <ele>2861.1</ele>
    <time>2026-06-20T14:58:00Z</time>
   </trkpt>
   <trkpt lat="-3.1286170" lon="37.3110210">
    <ele>2861.2</ele>
    <time>2026-06-20T14:58:01Z</time>
   </trkpt>
   <trkpt lat="-3.1286180" lon="37.3110110">
    <ele>2861.3</ele>
    <time>2026-06-20T14:58:02Z</time>
   </trkpt>
   <trkpt lat="-3.1286220" lon="37.3110040">
    <ele>2861.4</ele>
    <time>2026-06-20T14:58:03Z</time>
   </trkpt>
   <trkpt lat="-3.1286210" lon="37.3110050">
    <ele>2861.4</ele>
    <time>2026-06-20T14:58:04Z</time>
   </trkpt>
   <trkpt lat="-3.1286140" lon="37.3109960">
    <ele>2861.5</ele>
    <time>2026-06-20T14:58:05Z</time>
   </trkpt>
   <trkpt lat="-3.1285930" lon="37.3110020">
    <ele>2861.8</ele>
    <time>2026-06-20T14:58:06Z</time>
   </trkpt>
   <trkpt lat="-3.1285850" lon="37.3109960">
    <ele>2861.9</ele>
    <time>2026-06-20T14:58:07Z</time>
   </trkpt>
   <trkpt lat="-3.1285680" lon="37.3110030">
    <ele>2862.1</ele>
    <time>2026-06-20T14:58:08Z</time>
   </trkpt>
   <trkpt lat="-3.1285650" lon="37.3110000">
    <ele>2862.1</ele>
    <time>2026-06-20T14:58:09Z</time>
   </trkpt>
   <trkpt lat="-3.1285590" lon="37.3110000">
    <ele>2862.2</ele>
    <time>2026-06-20T14:58:10Z</time>
   </trkpt>
   <trkpt lat="-3.1285550" lon="37.3110090">
    <ele>2862.3</ele>
    <time>2026-06-20T14:58:11Z</time>
   </trkpt>
   <trkpt lat="-3.1285520" lon="37.3110130">
    <ele>2862.3</ele>
    <time>2026-06-20T14:58:12Z</time>
   </trkpt>
   <trkpt lat="-3.1285390" lon="37.3110000">
    <ele>2862.6</ele>
    <time>2026-06-20T14:58:13Z</time>
   </trkpt>
   <trkpt lat="-3.1285360" lon="37.3109830">
    <ele>2862.8</ele>
    <time>2026-06-20T14:58:14Z</time>
   </trkpt>
   <trkpt lat="-3.1285420" lon="37.3109780">
    <ele>2862.9</ele>
    <time>2026-06-20T14:58:15Z</time>
   </trkpt>
   <trkpt lat="-3.1285320" lon="37.3109740">
    <ele>2863.0</ele>
    <time>2026-06-20T14:58:16Z</time>
   </trkpt>
   <trkpt lat="-3.1285300" lon="37.3109680">
    <ele>2863.1</ele>
    <time>2026-06-20T14:58:17Z</time>
   </trkpt>
   <trkpt lat="-3.1285290" lon="37.3109790">
    <ele>2863.2</ele>
    <time>2026-06-20T14:58:18Z</time>
   </trkpt>
   <trkpt lat="-3.1285220" lon="37.3109820">
    <ele>2863.3</ele>
    <time>2026-06-20T14:58:19Z</time>
   </trkpt>
   <trkpt lat="-3.1285030" lon="37.3109800">
    <ele>2863.5</ele>
    <time>2026-06-20T14:58:20Z</time>
   </trkpt>
   <trkpt lat="-3.1284890" lon="37.3109740">
    <ele>2863.7</ele>
    <time>2026-06-20T14:58:21Z</time>
   </trkpt>
   <trkpt lat="-3.1284830" lon="37.3109730">
    <ele>2863.8</ele>
    <time>2026-06-20T14:58:22Z</time>
   </trkpt>
   <trkpt lat="-3.1284660" lon="37.3109810">
    <ele>2864.0</ele>
    <time>2026-06-20T14:58:23Z</time>
   </trkpt>
   <trkpt lat="-3.1284560" lon="37.3109770">
    <ele>2864.1</ele>
    <time>2026-06-20T14:58:24Z</time>
   </trkpt>
   <trkpt lat="-3.1284540" lon="37.3109750">
    <ele>2864.2</ele>
    <time>2026-06-20T14:58:25Z</time>
   </trkpt>
   <trkpt lat="-3.1284420" lon="37.3109680">
    <ele>2864.3</ele>
    <time>2026-06-20T14:58:26Z</time>
   </trkpt>
   <trkpt lat="-3.1284360" lon="37.3109670">
    <ele>2864.4</ele>
    <time>2026-06-20T14:58:27Z</time>
   </trkpt>
   <trkpt lat="-3.1284280" lon="37.3109680">
    <ele>2864.5</ele>
    <time>2026-06-20T14:58:28Z</time>
   </trkpt>
   <trkpt lat="-3.1284310" lon="37.3109640">
    <ele>2864.6</ele>
    <time>2026-06-20T14:58:29Z</time>
   </trkpt>
   <trkpt lat="-3.1284320" lon="37.3109790">
    <ele>2864.8</ele>
    <time>2026-06-20T14:58:30Z</time>
   </trkpt>
   <trkpt lat="-3.1284290" lon="37.3109870">
    <ele>2864.9</ele>
    <time>2026-06-20T14:58:31Z</time>
   </trkpt>
   <trkpt lat="-3.1284180" lon="37.3109840">
    <ele>2865.0</ele>
    <time>2026-06-20T14:58:32Z</time>
   </trkpt>
   <trkpt lat="-3.1284150" lon="37.3109860">
    <ele>2865.0</ele>
    <time>2026-06-20T14:58:33Z</time>
   </trkpt>
   <trkpt lat="-3.1284060" lon="37.3109860">
    <ele>2865.1</ele>
    <time>2026-06-20T14:58:34Z</time>
   </trkpt>
   <trkpt lat="-3.1284090" lon="37.3109940">
    <ele>2865.2</ele>
    <time>2026-06-20T14:58:35Z</time>
   </trkpt>
   <trkpt lat="-3.1284020" lon="37.3109930">
    <ele>2865.3</ele>
    <time>2026-06-20T14:58:36Z</time>
   </trkpt>
   <trkpt lat="-3.1283960" lon="37.3109930">
    <ele>2865.4</ele>
    <time>2026-06-20T14:58:37Z</time>
   </trkpt>
   <trkpt lat="-3.1283850" lon="37.3109830">
    <ele>2865.6</ele>
    <time>2026-06-20T14:58:38Z</time>
   </trkpt>
   <trkpt lat="-3.1283700" lon="37.3109720">
    <ele>2865.8</ele>
    <time>2026-06-20T14:58:39Z</time>
   </trkpt>
   <trkpt lat="-3.1283600" lon="37.3109620">
    <ele>2866.0</ele>
    <time>2026-06-20T14:58:40Z</time>
   </trkpt>
   <trkpt lat="-3.1283510" lon="37.3109710">
    <ele>2866.1</ele>
    <time>2026-06-20T14:58:41Z</time>
   </trkpt>
   <trkpt lat="-3.1283430" lon="37.3109720">
    <ele>2866.2</ele>
    <time>2026-06-20T14:58:42Z</time>
   </trkpt>
   <trkpt lat="-3.1283230" lon="37.3109740">
    <ele>2866.4</ele>
    <time>2026-06-20T14:58:43Z</time>
   </trkpt>
   <trkpt lat="-3.1283160" lon="37.3109750">
    <ele>2866.5</ele>
    <time>2026-06-20T14:58:44Z</time>
   </trkpt>
   <trkpt lat="-3.1283060" lon="37.3109750">
    <ele>2866.6</ele>
    <time>2026-06-20T14:58:45Z</time>
   </trkpt>
   <trkpt lat="-3.1282970" lon="37.3109770">
    <ele>2866.8</ele>
    <time>2026-06-20T14:58:46Z</time>
   </trkpt>
   <trkpt lat="-3.1282840" lon="37.3109650">
    <ele>2867.0</ele>
    <time>2026-06-20T14:58:47Z</time>
   </trkpt>
   <trkpt lat="-3.1282710" lon="37.3109660">
    <ele>2867.1</ele>
    <time>2026-06-20T14:58:48Z</time>
   </trkpt>
   <trkpt lat="-3.1282690" lon="37.3109660">
    <ele>2867.1</ele>
    <time>2026-06-20T14:58:49Z</time>
   </trkpt>
   <trkpt lat="-3.1282710" lon="37.3109630">
    <ele>2867.2</ele>
    <time>2026-06-20T14:58:50Z</time>
   </trkpt>
   <trkpt lat="-3.1282680" lon="37.3109590">
    <ele>2867.2</ele>
    <time>2026-06-20T14:58:51Z</time>
   </trkpt>
   <trkpt lat="-3.1282630" lon="37.3109630">
    <ele>2867.3</ele>
    <time>2026-06-20T14:58:52Z</time>
   </trkpt>
   <trkpt lat="-3.1282540" lon="37.3109580">
    <ele>2867.4</ele>
    <time>2026-06-20T14:58:53Z</time>
   </trkpt>
   <trkpt lat="-3.1282580" lon="37.3109610">
    <ele>2867.5</ele>
    <time>2026-06-20T14:58:54Z</time>
   </trkpt>
   <trkpt lat="-3.1282550" lon="37.3109690">
    <ele>2867.6</ele>
    <time>2026-06-20T14:58:55Z</time>
   </trkpt>
   <trkpt lat="-3.1282600" lon="37.3109840">
    <ele>2867.8</ele>
    <time>2026-06-20T14:58:56Z</time>
   </trkpt>
   <trkpt lat="-3.1282630" lon="37.3109810">
    <ele>2867.8</ele>
    <time>2026-06-20T14:58:57Z</time>
   </trkpt>
   <trkpt lat="-3.1282570" lon="37.3109790">
    <ele>2867.9</ele>
    <time>2026-06-20T14:58:58Z</time>
   </trkpt>
   <trkpt lat="-3.1282470" lon="37.3109860">
    <ele>2868.1</ele>
    <time>2026-06-20T14:58:59Z</time>
   </trkpt>
   <trkpt lat="-3.1282440" lon="37.3109720">
    <ele>2868.2</ele>
    <time>2026-06-20T14:59:00Z</time>
   </trkpt>
   <trkpt lat="-3.1282460" lon="37.3109770">
    <ele>2868.3</ele>
    <time>2026-06-20T14:59:01Z</time>
   </trkpt>
   <trkpt lat="-3.1282460" lon="37.3109820">
    <ele>2868.4</ele>
    <time>2026-06-20T14:59:02Z</time>
   </trkpt>
   <trkpt lat="-3.1282410" lon="37.3109810">
    <ele>2868.4</ele>
    <time>2026-06-20T14:59:03Z</time>
   </trkpt>
   <trkpt lat="-3.1282400" lon="37.3109860">
    <ele>2868.5</ele>
    <time>2026-06-20T14:59:04Z</time>
   </trkpt>
   <trkpt lat="-3.1282400" lon="37.3109870">
    <ele>2868.5</ele>
    <time>2026-06-20T14:59:05Z</time>
   </trkpt>
   <trkpt lat="-3.1282300" lon="37.3109900">
    <ele>2868.6</ele>
    <time>2026-06-20T14:59:06Z</time>
   </trkpt>
   <trkpt lat="-3.1282250" lon="37.3109950">
    <ele>2868.7</ele>
    <time>2026-06-20T14:59:07Z</time>
   </trkpt>
   <trkpt lat="-3.1282220" lon="37.3110030">
    <ele>2868.8</ele>
    <time>2026-06-20T14:59:08Z</time>
   </trkpt>
   <trkpt lat="-3.1282140" lon="37.3110060">
    <ele>2868.9</ele>
    <time>2026-06-20T14:59:09Z</time>
   </trkpt>
   <trkpt lat="-3.1282110" lon="37.3110130">
    <ele>2869.0</ele>
    <time>2026-06-20T14:59:10Z</time>
   </trkpt>
   <trkpt lat="-3.1282140" lon="37.3110290">
    <ele>2869.2</ele>
    <time>2026-06-20T14:59:11Z</time>
   </trkpt>
   <trkpt lat="-3.1282060" lon="37.3110410">
    <ele>2869.3</ele>
    <time>2026-06-20T14:59:12Z</time>
   </trkpt>
   <trkpt lat="-3.1282020" lon="37.3110480">
    <ele>2869.4</ele>
    <time>2026-06-20T14:59:13Z</time>
   </trkpt>
   <trkpt lat="-3.1282040" lon="37.3110520">
    <ele>2869.5</ele>
    <time>2026-06-20T14:59:14Z</time>
   </trkpt>
   <trkpt lat="-3.1282020" lon="37.3110540">
    <ele>2869.5</ele>
    <time>2026-06-20T14:59:15Z</time>
   </trkpt>
   <trkpt lat="-3.1281970" lon="37.3110580">
    <ele>2869.6</ele>
    <time>2026-06-20T14:59:16Z</time>
   </trkpt>
   <trkpt lat="-3.1281930" lon="37.3110610">
    <ele>2869.7</ele>
    <time>2026-06-20T14:59:17Z</time>
   </trkpt>
   <trkpt lat="-3.1281930" lon="37.3110700">
    <ele>2869.8</ele>
    <time>2026-06-20T14:59:18Z</time>
   </trkpt>
   <trkpt lat="-3.1281920" lon="37.3110740">
    <ele>2869.8</ele>
    <time>2026-06-20T14:59:19Z</time>
   </trkpt>
   <trkpt lat="-3.1281900" lon="37.3110780">
    <ele>2869.9</ele>
    <time>2026-06-20T14:59:20Z</time>
   </trkpt>
   <trkpt lat="-3.1281890" lon="37.3110860">
    <ele>2870.0</ele>
    <time>2026-06-20T14:59:21Z</time>
   </trkpt>
   <trkpt lat="-3.1281890" lon="37.3110860">
    <ele>2870.0</ele>
    <time>2026-06-20T14:59:22Z</time>
   </trkpt>
   <trkpt lat="-3.1281890" lon="37.3110860">
    <ele>2870.0</ele>
    <time>2026-06-20T14:59:23Z</time>
   </trkpt>
   <trkpt lat="-3.1281890" lon="37.3110860">
    <ele>2870.0</ele>
    <time>2026-06-20T14:59:24Z</time>
   </trkpt>
   <trkpt lat="-3.1281890" lon="37.3110860">
    <ele>2870.0</ele>
    <time>2026-06-20T14:59:25Z</time>
   </trkpt>
   <trkpt lat="-3.1281890" lon="37.3110860">
    <ele>2870.0</ele>
    <time>2026-06-20T14:59:26Z</time>
   </trkpt>
   <trkpt lat="-3.1281870" lon="37.3110960">
    <ele>2870.1</ele>
    <time>2026-06-20T14:59:27Z</time>
   </trkpt>
   <trkpt lat="-3.1281870" lon="37.3110960">
    <ele>2870.1</ele>
    <time>2026-06-20T14:59:28Z</time>
   </trkpt>
   <trkpt lat="-3.1281870" lon="37.3110960">
    <ele>2870.1</ele>
    <time>2026-06-20T14:59:29Z</time>
   </trkpt>
   <trkpt lat="-3.1281870" lon="37.3110960">
    <ele>2870.1</ele>
    <time>2026-06-20T14:59:30Z</time>
   </trkpt>
   <trkpt lat="-3.1281870" lon="37.3110960">
    <ele>2870.1</ele>
    <time>2026-06-20T14:59:31Z</time>
   </trkpt>
   <trkpt lat="-3.1281870" lon="37.3110960">
    <ele>2870.1</ele>
    <time>2026-06-20T14:59:32Z</time>
   </trkpt>
   <trkpt lat="-3.1281870" lon="37.3110960">
    <ele>2870.1</ele>
    <time>2026-06-20T14:59:33Z</time>
   </trkpt>
   <trkpt lat="-3.1281870" lon="37.3110960">
    <ele>2870.1</ele>
    <time>2026-06-20T14:59:34Z</time>
   </trkpt>
   <trkpt lat="-3.1281870" lon="37.3110960">
    <ele>2870.1</ele>
    <time>2026-06-20T14:59:35Z</time>
   </trkpt>
   <trkpt lat="-3.1281870" lon="37.3110960">
    <ele>2870.1</ele>
    <time>2026-06-20T14:59:36Z</time>
   </trkpt>
   <trkpt lat="-3.1281870" lon="37.3110960">
    <ele>2870.1</ele>
    <time>2026-06-20T14:59:37Z</time>
   </trkpt>
   <trkpt lat="-3.1281870" lon="37.3110960">
    <ele>2870.1</ele>
    <time>2026-06-20T14:59:38Z</time>
   </trkpt>
   <trkpt lat="-3.1281870" lon="37.3110960">
    <ele>2870.1</ele>
    <time>2026-06-20T14:59:39Z</time>
   </trkpt>
   <trkpt lat="-3.1281870" lon="37.3110960">
    <ele>2870.1</ele>
    <time>2026-06-20T14:59:40Z</time>
   </trkpt>
   <trkpt lat="-3.1281870" lon="37.3110960">
    <ele>2870.1</ele>
    <time>2026-06-20T14:59:41Z</time>
   </trkpt>
   <trkpt lat="-3.1281870" lon="37.3110960">
    <ele>2870.1</ele>
    <time>2026-06-20T14:59:42Z</time>
   </trkpt>
   <trkpt lat="-3.1281830" lon="37.3111030">
    <ele>2870.2</ele>
    <time>2026-06-20T14:59:43Z</time>
   </trkpt>
   <trkpt lat="-3.1281840" lon="37.3111080">
    <ele>2870.2</ele>
    <time>2026-06-20T14:59:44Z</time>
   </trkpt>
   <trkpt lat="-3.1281810" lon="37.3111080">
    <ele>2870.2</ele>
    <time>2026-06-20T14:59:45Z</time>
   </trkpt>
   <trkpt lat="-3.1281740" lon="37.3111100">
    <ele>2870.3</ele>
    <time>2026-06-20T14:59:46Z</time>
   </trkpt>
   <trkpt lat="-3.1281710" lon="37.3111160">
    <ele>2870.4</ele>
    <time>2026-06-20T14:59:47Z</time>
   </trkpt>
   <trkpt lat="-3.1281720" lon="37.3111260">
    <ele>2870.5</ele>
    <time>2026-06-20T14:59:48Z</time>
   </trkpt>
   <trkpt lat="-3.1281650" lon="37.3111270">
    <ele>2870.6</ele>
    <time>2026-06-20T14:59:49Z</time>
   </trkpt>
   <trkpt lat="-3.1281580" lon="37.3111340">
    <ele>2870.7</ele>
    <time>2026-06-20T14:59:50Z</time>
   </trkpt>
   <trkpt lat="-3.1281500" lon="37.3111440">
    <ele>2870.8</ele>
    <time>2026-06-20T14:59:51Z</time>
   </trkpt>
   <trkpt lat="-3.1281460" lon="37.3111490">
    <ele>2870.9</ele>
    <time>2026-06-20T14:59:52Z</time>
   </trkpt>
   <trkpt lat="-3.1281370" lon="37.3111500">
    <ele>2871.0</ele>
    <time>2026-06-20T14:59:53Z</time>
   </trkpt>
   <trkpt lat="-3.1281300" lon="37.3111560">
    <ele>2871.0</ele>
    <time>2026-06-20T14:59:55Z</time>
   </trkpt>
   <trkpt lat="-3.1281310" lon="37.3111620">
    <ele>2871.1</ele>
    <time>2026-06-20T14:59:56Z</time>
   </trkpt>
   <trkpt lat="-3.1281320" lon="37.3111610">
    <ele>2871.1</ele>
    <time>2026-06-20T14:59:57Z</time>
   </trkpt>
   <trkpt lat="-3.1281320" lon="37.3111680">
    <ele>2871.2</ele>
    <time>2026-06-20T14:59:58Z</time>
   </trkpt>
   <trkpt lat="-3.1281310" lon="37.3111760">
    <ele>2871.3</ele>
    <time>2026-06-20T14:59:59Z</time>
   </trkpt>
   <trkpt lat="-3.1281300" lon="37.3111810">
    <ele>2871.3</ele>
    <time>2026-06-20T15:00:00Z</time>
   </trkpt>
   <trkpt lat="-3.1281320" lon="37.3111870">
    <ele>2871.4</ele>
    <time>2026-06-20T15:00:01Z</time>
   </trkpt>
   <trkpt lat="-3.1281330" lon="37.3111980">
    <ele>2871.5</ele>
    <time>2026-06-20T15:00:02Z</time>
   </trkpt>
   <trkpt lat="-3.1281360" lon="37.3112050">
    <ele>2871.5</ele>
    <time>2026-06-20T15:00:03Z</time>
   </trkpt>
   <trkpt lat="-3.1281280" lon="37.3111940">
    <ele>2871.7</ele>
    <time>2026-06-20T15:00:04Z</time>
   </trkpt>
   <trkpt lat="-3.1281270" lon="37.3111910">
    <ele>2871.7</ele>
    <time>2026-06-20T15:00:05Z</time>
   </trkpt>
   <trkpt lat="-3.1281270" lon="37.3111910">
    <ele>2871.7</ele>
    <time>2026-06-20T15:00:06Z</time>
   </trkpt>
   <trkpt lat="-3.1281270" lon="37.3111910">
    <ele>2871.7</ele>
    <time>2026-06-20T15:00:07Z</time>
   </trkpt>
   <trkpt lat="-3.1281250" lon="37.3111950">
    <ele>2871.8</ele>
    <time>2026-06-20T15:00:08Z</time>
   </trkpt>
   <trkpt lat="-3.1281280" lon="37.3112050">
    <ele>2871.9</ele>
    <time>2026-06-20T15:00:09Z</time>
   </trkpt>
   <trkpt lat="-3.1281280" lon="37.3112090">
    <ele>2871.9</ele>
    <time>2026-06-20T15:00:10Z</time>
   </trkpt>
   <trkpt lat="-3.1281290" lon="37.3112100">
    <ele>2871.9</ele>
    <time>2026-06-20T15:00:11Z</time>
   </trkpt>
   <trkpt lat="-3.1281290" lon="37.3112100">
    <ele>2871.9</ele>
    <time>2026-06-20T15:00:12Z</time>
   </trkpt>
   <trkpt lat="-3.1281280" lon="37.3112090">
    <ele>2871.9</ele>
    <time>2026-06-20T15:00:13Z</time>
   </trkpt>
   <trkpt lat="-3.1281280" lon="37.3112090">
    <ele>2871.9</ele>
    <time>2026-06-20T15:00:14Z</time>
   </trkpt>
   <trkpt lat="-3.1281280" lon="37.3112090">
    <ele>2871.9</ele>
    <time>2026-06-20T15:00:15Z</time>
   </trkpt>
   <trkpt lat="-3.1281210" lon="37.3112230">
    <ele>2872.1</ele>
    <time>2026-06-20T15:00:16Z</time>
   </trkpt>
   <trkpt lat="-3.1281170" lon="37.3112250">
    <ele>2872.1</ele>
    <time>2026-06-20T15:00:17Z</time>
   </trkpt>
   <trkpt lat="-3.1281010" lon="37.3112110">
    <ele>2872.3</ele>
    <time>2026-06-20T15:00:18Z</time>
   </trkpt>
   <trkpt lat="-3.1280920" lon="37.3112070">
    <ele>2872.4</ele>
    <time>2026-06-20T15:00:19Z</time>
   </trkpt>
   <trkpt lat="-3.1280910" lon="37.3112060">
    <ele>2872.4</ele>
    <time>2026-06-20T15:00:20Z</time>
   </trkpt>
   <trkpt lat="-3.1280890" lon="37.3112090">
    <ele>2872.4</ele>
    <time>2026-06-20T15:00:21Z</time>
   </trkpt>
   <trkpt lat="-3.1280890" lon="37.3112020">
    <ele>2872.5</ele>
    <time>2026-06-20T15:00:22Z</time>
   </trkpt>
   <trkpt lat="-3.1280920" lon="37.3112060">
    <ele>2872.6</ele>
    <time>2026-06-20T15:00:23Z</time>
   </trkpt>
   <trkpt lat="-3.1280850" lon="37.3111980">
    <ele>2872.7</ele>
    <time>2026-06-20T15:00:24Z</time>
   </trkpt>
   <trkpt lat="-3.1280920" lon="37.3112150">
    <ele>2872.9</ele>
    <time>2026-06-20T15:00:25Z</time>
   </trkpt>
   <trkpt lat="-3.1280920" lon="37.3112170">
    <ele>2872.9</ele>
    <time>2026-06-20T15:00:26Z</time>
   </trkpt>
   <trkpt lat="-3.1280910" lon="37.3112150">
    <ele>2872.9</ele>
    <time>2026-06-20T15:00:27Z</time>
   </trkpt>
   <trkpt lat="-3.1280900" lon="37.3112110">
    <ele>2872.9</ele>
    <time>2026-06-20T15:00:28Z</time>
   </trkpt>
   <trkpt lat="-3.1280910" lon="37.3112110">
    <ele>2872.9</ele>
    <time>2026-06-20T15:00:29Z</time>
   </trkpt>
   <trkpt lat="-3.1280830" lon="37.3112010">
    <ele>2873.1</ele>
    <time>2026-06-20T15:00:30Z</time>
   </trkpt>
   <trkpt lat="-3.1280780" lon="37.3112030">
    <ele>2873.1</ele>
    <time>2026-06-20T15:00:31Z</time>
   </trkpt>
   <trkpt lat="-3.1280800" lon="37.3112030">
    <ele>2873.2</ele>
    <time>2026-06-20T15:00:32Z</time>
   </trkpt>
   <trkpt lat="-3.1280720" lon="37.3111980">
    <ele>2873.2</ele>
    <time>2026-06-20T15:00:33Z</time>
   </trkpt>
   <trkpt lat="-3.1280710" lon="37.3111910">
    <ele>2873.3</ele>
    <time>2026-06-20T15:00:34Z</time>
   </trkpt>
   <trkpt lat="-3.1280700" lon="37.3111860">
    <ele>2873.4</ele>
    <time>2026-06-20T15:00:35Z</time>
   </trkpt>
   <trkpt lat="-3.1280630" lon="37.3111880">
    <ele>2873.4</ele>
    <time>2026-06-20T15:00:36Z</time>
   </trkpt>
   <trkpt lat="-3.1280570" lon="37.3111930">
    <ele>2873.5</ele>
    <time>2026-06-20T15:00:37Z</time>
   </trkpt>
   <trkpt lat="-3.1280510" lon="37.3111940">
    <ele>2873.6</ele>
    <time>2026-06-20T15:00:38Z</time>
   </trkpt>
   <trkpt lat="-3.1280480" lon="37.3111930">
    <ele>2873.6</ele>
    <time>2026-06-20T15:00:39Z</time>
   </trkpt>
   <trkpt lat="-3.1280430" lon="37.3111880">
    <ele>2873.7</ele>
    <time>2026-06-20T15:00:40Z</time>
   </trkpt>
   <trkpt lat="-3.1280430" lon="37.3111880">
    <ele>2873.7</ele>
    <time>2026-06-20T15:00:41Z</time>
   </trkpt>
   <trkpt lat="-3.1280480" lon="37.3111900">
    <ele>2873.7</ele>
    <time>2026-06-20T15:00:42Z</time>
   </trkpt>
   <trkpt lat="-3.1280460" lon="37.3111810">
    <ele>2873.8</ele>
    <time>2026-06-20T15:00:43Z</time>
   </trkpt>
   <trkpt lat="-3.1280420" lon="37.3111810">
    <ele>2873.9</ele>
    <time>2026-06-20T15:00:44Z</time>
   </trkpt>
   <trkpt lat="-3.1280340" lon="37.3111860">
    <ele>2874.0</ele>
    <time>2026-06-20T15:00:45Z</time>
   </trkpt>
   <trkpt lat="-3.1280270" lon="37.3111870">
    <ele>2874.0</ele>
    <time>2026-06-20T15:00:46Z</time>
   </trkpt>
   <trkpt lat="-3.1280170" lon="37.3111900">
    <ele>2874.2</ele>
    <time>2026-06-20T15:00:47Z</time>
   </trkpt>
   <trkpt lat="-3.1280110" lon="37.3111990">
    <ele>2874.3</ele>
    <time>2026-06-20T15:00:48Z</time>
   </trkpt>
   <trkpt lat="-3.1280080" lon="37.3112060">
    <ele>2874.3</ele>
    <time>2026-06-20T15:00:49Z</time>
   </trkpt>
   <trkpt lat="-3.1280040" lon="37.3112050">
    <ele>2874.4</ele>
    <time>2026-06-20T15:00:50Z</time>
   </trkpt>
   <trkpt lat="-3.1279980" lon="37.3112060">
    <ele>2874.4</ele>
    <time>2026-06-20T15:00:51Z</time>
   </trkpt>
   <trkpt lat="-3.1279960" lon="37.3112030">
    <ele>2874.5</ele>
    <time>2026-06-20T15:00:52Z</time>
   </trkpt>
   <trkpt lat="-3.1279870" lon="37.3112010">
    <ele>2874.6</ele>
    <time>2026-06-20T15:00:53Z</time>
   </trkpt>
   <trkpt lat="-3.1279780" lon="37.3112060">
    <ele>2874.7</ele>
    <time>2026-06-20T15:00:54Z</time>
   </trkpt>
   <trkpt lat="-3.1279770" lon="37.3112050">
    <ele>2874.7</ele>
    <time>2026-06-20T15:00:55Z</time>
   </trkpt>
   <trkpt lat="-3.1279750" lon="37.3112000">
    <ele>2874.7</ele>
    <time>2026-06-20T15:00:56Z</time>
   </trkpt>
   <trkpt lat="-3.1279750" lon="37.3112000">
    <ele>2874.7</ele>
    <time>2026-06-20T15:00:57Z</time>
   </trkpt>
   <trkpt lat="-3.1279750" lon="37.3112000">
    <ele>2874.7</ele>
    <time>2026-06-20T15:00:58Z</time>
   </trkpt>
   <trkpt lat="-3.1279740" lon="37.3112060">
    <ele>2874.8</ele>
    <time>2026-06-20T15:00:59Z</time>
   </trkpt>
   <trkpt lat="-3.1279710" lon="37.3112110">
    <ele>2874.8</ele>
    <time>2026-06-20T15:01:00Z</time>
   </trkpt>
   <trkpt lat="-3.1279680" lon="37.3112080">
    <ele>2874.9</ele>
    <time>2026-06-20T15:01:01Z</time>
   </trkpt>
   <trkpt lat="-3.1279640" lon="37.3112070">
    <ele>2874.9</ele>
    <time>2026-06-20T15:01:02Z</time>
   </trkpt>
   <trkpt lat="-3.1279610" lon="37.3112130">
    <ele>2875.0</ele>
    <time>2026-06-20T15:01:03Z</time>
   </trkpt>
   <trkpt lat="-3.1279560" lon="37.3112060">
    <ele>2875.1</ele>
    <time>2026-06-20T15:01:04Z</time>
   </trkpt>
   <trkpt lat="-3.1279520" lon="37.3112090">
    <ele>2875.1</ele>
    <time>2026-06-20T15:01:05Z</time>
   </trkpt>
   <trkpt lat="-3.1279450" lon="37.3112010">
    <ele>2875.2</ele>
    <time>2026-06-20T15:01:06Z</time>
   </trkpt>
   <trkpt lat="-3.1279440" lon="37.3111970">
    <ele>2875.3</ele>
    <time>2026-06-20T15:01:07Z</time>
   </trkpt>
   <trkpt lat="-3.1279420" lon="37.3112010">
    <ele>2875.3</ele>
    <time>2026-06-20T15:01:08Z</time>
   </trkpt>
   <trkpt lat="-3.1279380" lon="37.3111930">
    <ele>2875.4</ele>
    <time>2026-06-20T15:01:09Z</time>
   </trkpt>
   <trkpt lat="-3.1279300" lon="37.3111890">
    <ele>2875.5</ele>
    <time>2026-06-20T15:01:10Z</time>
   </trkpt>
   <trkpt lat="-3.1279290" lon="37.3111850">
    <ele>2875.5</ele>
    <time>2026-06-20T15:01:11Z</time>
   </trkpt>
   <trkpt lat="-3.1279250" lon="37.3111850">
    <ele>2875.5</ele>
    <time>2026-06-20T15:01:12Z</time>
   </trkpt>
   <trkpt lat="-3.1279190" lon="37.3111920">
    <ele>2875.6</ele>
    <time>2026-06-20T15:01:13Z</time>
   </trkpt>
   <trkpt lat="-3.1279150" lon="37.3111910">
    <ele>2875.7</ele>
    <time>2026-06-20T15:01:14Z</time>
   </trkpt>
   <trkpt lat="-3.1279110" lon="37.3111900">
    <ele>2875.7</ele>
    <time>2026-06-20T15:01:15Z</time>
   </trkpt>
   <trkpt lat="-3.1279110" lon="37.3111890">
    <ele>2875.7</ele>
    <time>2026-06-20T15:01:16Z</time>
   </trkpt>
   <trkpt lat="-3.1279120" lon="37.3111930">
    <ele>2875.7</ele>
    <time>2026-06-20T15:01:17Z</time>
   </trkpt>
   <trkpt lat="-3.1279120" lon="37.3111920">
    <ele>2875.7</ele>
    <time>2026-06-20T15:01:18Z</time>
   </trkpt>
   <trkpt lat="-3.1279120" lon="37.3111890">
    <ele>2875.8</ele>
    <time>2026-06-20T15:01:19Z</time>
   </trkpt>
   <trkpt lat="-3.1279110" lon="37.3111910">
    <ele>2875.8</ele>
    <time>2026-06-20T15:01:20Z</time>
   </trkpt>
   <trkpt lat="-3.1279200" lon="37.3111900">
    <ele>2875.9</ele>
    <time>2026-06-20T15:01:21Z</time>
   </trkpt>
   <trkpt lat="-3.1279120" lon="37.3111860">
    <ele>2875.9</ele>
    <time>2026-06-20T15:01:22Z</time>
   </trkpt>
   <trkpt lat="-3.1279010" lon="37.3111760">
    <ele>2876.1</ele>
    <time>2026-06-20T15:01:23Z</time>
   </trkpt>
   <trkpt lat="-3.1278940" lon="37.3111700">
    <ele>2876.1</ele>
    <time>2026-06-20T15:01:24Z</time>
   </trkpt>
   <trkpt lat="-3.1278940" lon="37.3111680">
    <ele>2876.2</ele>
    <time>2026-06-20T15:01:25Z</time>
   </trkpt>
   <trkpt lat="-3.1278950" lon="37.3111690">
    <ele>2876.2</ele>
    <time>2026-06-20T15:01:26Z</time>
   </trkpt>
   <trkpt lat="-3.1278900" lon="37.3111710">
    <ele>2876.2</ele>
    <time>2026-06-20T15:01:27Z</time>
   </trkpt>
   <trkpt lat="-3.1278910" lon="37.3111740">
    <ele>2876.2</ele>
    <time>2026-06-20T15:01:28Z</time>
   </trkpt>
   <trkpt lat="-3.1278910" lon="37.3111740">
    <ele>2876.2</ele>
    <time>2026-06-20T15:01:29Z</time>
   </trkpt>
   <trkpt lat="-3.1278970" lon="37.3111840">
    <ele>2876.3</ele>
    <time>2026-06-20T15:01:30Z</time>
   </trkpt>
   <trkpt lat="-3.1278940" lon="37.3111880">
    <ele>2876.3</ele>
    <time>2026-06-20T15:01:31Z</time>
   </trkpt>
   <trkpt lat="-3.1278920" lon="37.3111890">
    <ele>2876.4</ele>
    <time>2026-06-20T15:01:32Z</time>
   </trkpt>
   <trkpt lat="-3.1278930" lon="37.3111910">
    <ele>2876.4</ele>
    <time>2026-06-20T15:01:33Z</time>
   </trkpt>
   <trkpt lat="-3.1278910" lon="37.3111950">
    <ele>2876.4</ele>
    <time>2026-06-20T15:01:34Z</time>
   </trkpt>
   <trkpt lat="-3.1278920" lon="37.3111950">
    <ele>2876.4</ele>
    <time>2026-06-20T15:01:35Z</time>
   </trkpt>
   <trkpt lat="-3.1278860" lon="37.3111970">
    <ele>2876.5</ele>
    <time>2026-06-20T15:01:36Z</time>
   </trkpt>
   <trkpt lat="-3.1278900" lon="37.3112040">
    <ele>2876.5</ele>
    <time>2026-06-20T15:01:37Z</time>
   </trkpt>
   <trkpt lat="-3.1278850" lon="37.3112080">
    <ele>2876.6</ele>
    <time>2026-06-20T15:01:38Z</time>
   </trkpt>
   <trkpt lat="-3.1278790" lon="37.3112090">
    <ele>2876.6</ele>
    <time>2026-06-20T15:01:39Z</time>
   </trkpt>
   <trkpt lat="-3.1278710" lon="37.3112110">
    <ele>2876.7</ele>
    <time>2026-06-20T15:01:40Z</time>
   </trkpt>
   <trkpt lat="-3.1278700" lon="37.3112190">
    <ele>2876.7</ele>
    <time>2026-06-20T15:01:41Z</time>
   </trkpt>
   <trkpt lat="-3.1278640" lon="37.3112090">
    <ele>2876.8</ele>
    <time>2026-06-20T15:01:42Z</time>
   </trkpt>
   <trkpt lat="-3.1278610" lon="37.3112030">
    <ele>2876.8</ele>
    <time>2026-06-20T15:01:43Z</time>
   </trkpt>
   <trkpt lat="-3.1278520" lon="37.3112100">
    <ele>2876.9</ele>
    <time>2026-06-20T15:01:44Z</time>
   </trkpt>
   <trkpt lat="-3.1278510" lon="37.3112140">
    <ele>2876.9</ele>
    <time>2026-06-20T15:01:45Z</time>
   </trkpt>
   <trkpt lat="-3.1278520" lon="37.3112110">
    <ele>2876.9</ele>
    <time>2026-06-20T15:01:46Z</time>
   </trkpt>
   <trkpt lat="-3.1278490" lon="37.3112050">
    <ele>2877.0</ele>
    <time>2026-06-20T15:01:47Z</time>
   </trkpt>
   <trkpt lat="-3.1278420" lon="37.3112070">
    <ele>2877.0</ele>
    <time>2026-06-20T15:01:48Z</time>
   </trkpt>
   <trkpt lat="-3.1278400" lon="37.3112140">
    <ele>2877.0</ele>
    <time>2026-06-20T15:01:49Z</time>
   </trkpt>
   <trkpt lat="-3.1278420" lon="37.3112130">
    <ele>2877.0</ele>
    <time>2026-06-20T15:01:50Z</time>
   </trkpt>
   <trkpt lat="-3.1278390" lon="37.3112150">
    <ele>2877.1</ele>
    <time>2026-06-20T15:01:51Z</time>
   </trkpt>
   <trkpt lat="-3.1278410" lon="37.3112160">
    <ele>2877.1</ele>
    <time>2026-06-20T15:01:52Z</time>
   </trkpt>
   <trkpt lat="-3.1278410" lon="37.3112160">
    <ele>2877.1</ele>
    <time>2026-06-20T15:01:53Z</time>
   </trkpt>
   <trkpt lat="-3.1278460" lon="37.3112210">
    <ele>2877.1</ele>
    <time>2026-06-20T15:01:54Z</time>
   </trkpt>
   <trkpt lat="-3.1278380" lon="37.3112250">
    <ele>2877.2</ele>
    <time>2026-06-20T15:01:55Z</time>
   </trkpt>
   <trkpt lat="-3.1278330" lon="37.3112280">
    <ele>2877.2</ele>
    <time>2026-06-20T15:01:56Z</time>
   </trkpt>
   <trkpt lat="-3.1278260" lon="37.3112310">
    <ele>2877.2</ele>
    <time>2026-06-20T15:01:57Z</time>
   </trkpt>
   <trkpt lat="-3.1278180" lon="37.3112270">
    <ele>2877.3</ele>
    <time>2026-06-20T15:01:58Z</time>
   </trkpt>
   <trkpt lat="-3.1278150" lon="37.3112230">
    <ele>2877.3</ele>
    <time>2026-06-20T15:01:59Z</time>
   </trkpt>
   <trkpt lat="-3.1278100" lon="37.3112190">
    <ele>2877.3</ele>
    <time>2026-06-20T15:02:01Z</time>
   </trkpt>
   <trkpt lat="-3.1278080" lon="37.3112190">
    <ele>2877.3</ele>
    <time>2026-06-20T15:02:02Z</time>
   </trkpt>
   <trkpt lat="-3.1278010" lon="37.3112140">
    <ele>2877.3</ele>
    <time>2026-06-20T15:02:03Z</time>
   </trkpt>
   <trkpt lat="-3.1277960" lon="37.3112140">
    <ele>2877.4</ele>
    <time>2026-06-20T15:02:04Z</time>
   </trkpt>
   <trkpt lat="-3.1277960" lon="37.3112070">
    <ele>2877.4</ele>
    <time>2026-06-20T15:02:05Z</time>
   </trkpt>
   <trkpt lat="-3.1277940" lon="37.3112050">
    <ele>2877.4</ele>
    <time>2026-06-20T15:02:06Z</time>
   </trkpt>
   <trkpt lat="-3.1277900" lon="37.3112100">
    <ele>2877.4</ele>
    <time>2026-06-20T15:02:07Z</time>
   </trkpt>
   <trkpt lat="-3.1277820" lon="37.3112190">
    <ele>2877.5</ele>
    <time>2026-06-20T15:02:08Z</time>
   </trkpt>
   <trkpt lat="-3.1277890" lon="37.3112210">
    <ele>2877.5</ele>
    <time>2026-06-20T15:02:09Z</time>
   </trkpt>
   <trkpt lat="-3.1277880" lon="37.3112240">
    <ele>2877.5</ele>
    <time>2026-06-20T15:02:10Z</time>
   </trkpt>
   <trkpt lat="-3.1277910" lon="37.3112280">
    <ele>2877.5</ele>
    <time>2026-06-20T15:02:11Z</time>
   </trkpt>
   <trkpt lat="-3.1277870" lon="37.3112270">
    <ele>2877.5</ele>
    <time>2026-06-20T15:02:12Z</time>
   </trkpt>
   <trkpt lat="-3.1277880" lon="37.3112210">
    <ele>2877.6</ele>
    <time>2026-06-20T15:02:13Z</time>
   </trkpt>
   <trkpt lat="-3.1277800" lon="37.3112320">
    <ele>2877.6</ele>
    <time>2026-06-20T15:02:14Z</time>
   </trkpt>
   <trkpt lat="-3.1277810" lon="37.3112350">
    <ele>2877.6</ele>
    <time>2026-06-20T15:02:15Z</time>
   </trkpt>
   <trkpt lat="-3.1277850" lon="37.3112420">
    <ele>2877.7</ele>
    <time>2026-06-20T15:02:16Z</time>
   </trkpt>
   <trkpt lat="-3.1277850" lon="37.3112460">
    <ele>2877.7</ele>
    <time>2026-06-20T15:02:17Z</time>
   </trkpt>
   <trkpt lat="-3.1277870" lon="37.3112510">
    <ele>2877.7</ele>
    <time>2026-06-20T15:02:18Z</time>
   </trkpt>
   <trkpt lat="-3.1277840" lon="37.3112590">
    <ele>2877.7</ele>
    <time>2026-06-20T15:02:19Z</time>
   </trkpt>
   <trkpt lat="-3.1277850" lon="37.3112690">
    <ele>2877.7</ele>
    <time>2026-06-20T15:02:20Z</time>
   </trkpt>
   <trkpt lat="-3.1277850" lon="37.3112720">
    <ele>2877.8</ele>
    <time>2026-06-20T15:02:21Z</time>
   </trkpt>
   <trkpt lat="-3.1277850" lon="37.3112780">
    <ele>2877.8</ele>
    <time>2026-06-20T15:02:22Z</time>
   </trkpt>
   <trkpt lat="-3.1277840" lon="37.3112770">
    <ele>2877.8</ele>
    <time>2026-06-20T15:02:23Z</time>
   </trkpt>
   <trkpt lat="-3.1277840" lon="37.3112830">
    <ele>2877.8</ele>
    <time>2026-06-20T15:02:24Z</time>
   </trkpt>
   <trkpt lat="-3.1277790" lon="37.3112840">
    <ele>2877.8</ele>
    <time>2026-06-20T15:02:25Z</time>
   </trkpt>
   <trkpt lat="-3.1277770" lon="37.3112840">
    <ele>2877.8</ele>
    <time>2026-06-20T15:02:26Z</time>
   </trkpt>
   <trkpt lat="-3.1277720" lon="37.3112820">
    <ele>2877.8</ele>
    <time>2026-06-20T15:02:27Z</time>
   </trkpt>
   <trkpt lat="-3.1277670" lon="37.3112780">
    <ele>2877.9</ele>
    <time>2026-06-20T15:02:28Z</time>
   </trkpt>
   <trkpt lat="-3.1277610" lon="37.3112730">
    <ele>2877.9</ele>
    <time>2026-06-20T15:02:29Z</time>
   </trkpt>
   <trkpt lat="-3.1277540" lon="37.3112660">
    <ele>2877.9</ele>
    <time>2026-06-20T15:02:30Z</time>
   </trkpt>
   <trkpt lat="-3.1277490" lon="37.3112580">
    <ele>2878.0</ele>
    <time>2026-06-20T15:02:31Z</time>
   </trkpt>
   <trkpt lat="-3.1277490" lon="37.3112570">
    <ele>2878.0</ele>
    <time>2026-06-20T15:02:32Z</time>
   </trkpt>
   <trkpt lat="-3.1277410" lon="37.3112550">
    <ele>2878.0</ele>
    <time>2026-06-20T15:02:33Z</time>
   </trkpt>
   <trkpt lat="-3.1277410" lon="37.3112550">
    <ele>2878.0</ele>
    <time>2026-06-20T15:02:34Z</time>
   </trkpt>
   <trkpt lat="-3.1277370" lon="37.3112590">
    <ele>2878.0</ele>
    <time>2026-06-20T15:02:35Z</time>
   </trkpt>
   <trkpt lat="-3.1277370" lon="37.3112590">
    <ele>2878.0</ele>
    <time>2026-06-20T15:02:36Z</time>
   </trkpt>
   <trkpt lat="-3.1277370" lon="37.3112590">
    <ele>2878.0</ele>
    <time>2026-06-20T15:02:37Z</time>
   </trkpt>
   <trkpt lat="-3.1277380" lon="37.3112600">
    <ele>2878.0</ele>
    <time>2026-06-20T15:02:38Z</time>
   </trkpt>
   <trkpt lat="-3.1277380" lon="37.3112600">
    <ele>2878.0</ele>
    <time>2026-06-20T15:02:39Z</time>
   </trkpt>
   <trkpt lat="-3.1277310" lon="37.3112580">
    <ele>2878.1</ele>
    <time>2026-06-20T15:02:40Z</time>
   </trkpt>
   <trkpt lat="-3.1277300" lon="37.3112570">
    <ele>2878.1</ele>
    <time>2026-06-20T15:02:41Z</time>
   </trkpt>
   <trkpt lat="-3.1277340" lon="37.3112540">
    <ele>2878.1</ele>
    <time>2026-06-20T15:02:42Z</time>
   </trkpt>
   <trkpt lat="-3.1277300" lon="37.3112540">
    <ele>2878.1</ele>
    <time>2026-06-20T15:02:43Z</time>
   </trkpt>
   <trkpt lat="-3.1277280" lon="37.3112520">
    <ele>2878.1</ele>
    <time>2026-06-20T15:02:44Z</time>
   </trkpt>
   <trkpt lat="-3.1277270" lon="37.3112510">
    <ele>2878.1</ele>
    <time>2026-06-20T15:02:45Z</time>
   </trkpt>
   <trkpt lat="-3.1277280" lon="37.3112500">
    <ele>2878.1</ele>
    <time>2026-06-20T15:02:46Z</time>
   </trkpt>
   <trkpt lat="-3.1277280" lon="37.3112500">
    <ele>2878.1</ele>
    <time>2026-06-20T15:02:47Z</time>
   </trkpt>
   <trkpt lat="-3.1277230" lon="37.3112510">
    <ele>2878.1</ele>
    <time>2026-06-20T15:02:48Z</time>
   </trkpt>
   <trkpt lat="-3.1277250" lon="37.3112520">
    <ele>2878.1</ele>
    <time>2026-06-20T15:02:49Z</time>
   </trkpt>
   <trkpt lat="-3.1277240" lon="37.3112500">
    <ele>2878.2</ele>
    <time>2026-06-20T15:02:50Z</time>
   </trkpt>
   <trkpt lat="-3.1277210" lon="37.3112530">
    <ele>2878.2</ele>
    <time>2026-06-20T15:02:51Z</time>
   </trkpt>
   <trkpt lat="-3.1277210" lon="37.3112530">
    <ele>2878.2</ele>
    <time>2026-06-20T15:02:52Z</time>
   </trkpt>
   <trkpt lat="-3.1277160" lon="37.3112540">
    <ele>2878.2</ele>
    <time>2026-06-20T15:02:53Z</time>
   </trkpt>
   <trkpt lat="-3.1277170" lon="37.3112560">
    <ele>2878.2</ele>
    <time>2026-06-20T15:02:54Z</time>
   </trkpt>
   <trkpt lat="-3.1277110" lon="37.3112510">
    <ele>2878.2</ele>
    <time>2026-06-20T15:02:55Z</time>
   </trkpt>
   <trkpt lat="-3.1277090" lon="37.3112520">
    <ele>2878.2</ele>
    <time>2026-06-20T15:02:56Z</time>
   </trkpt>
   <trkpt lat="-3.1277050" lon="37.3112480">
    <ele>2878.3</ele>
    <time>2026-06-20T15:02:57Z</time>
   </trkpt>
   <trkpt lat="-3.1277030" lon="37.3112410">
    <ele>2878.3</ele>
    <time>2026-06-20T15:02:58Z</time>
   </trkpt>
   <trkpt lat="-3.1277040" lon="37.3112430">
    <ele>2878.3</ele>
    <time>2026-06-20T15:02:59Z</time>
   </trkpt>
   <trkpt lat="-3.1277040" lon="37.3112440">
    <ele>2878.3</ele>
    <time>2026-06-20T15:03:00Z</time>
   </trkpt>
   <trkpt lat="-3.1277040" lon="37.3112370">
    <ele>2878.3</ele>
    <time>2026-06-20T15:03:01Z</time>
   </trkpt>
   <trkpt lat="-3.1277090" lon="37.3112350">
    <ele>2878.4</ele>
    <time>2026-06-20T15:03:02Z</time>
   </trkpt>
   <trkpt lat="-3.1277110" lon="37.3112340">
    <ele>2878.4</ele>
    <time>2026-06-20T15:03:03Z</time>
   </trkpt>
   <trkpt lat="-3.1277120" lon="37.3112390">
    <ele>2878.4</ele>
    <time>2026-06-20T15:03:04Z</time>
   </trkpt>
   <trkpt lat="-3.1277150" lon="37.3112450">
    <ele>2878.4</ele>
    <time>2026-06-20T15:03:05Z</time>
   </trkpt>
   <trkpt lat="-3.1277190" lon="37.3112520">
    <ele>2878.5</ele>
    <time>2026-06-20T15:03:06Z</time>
   </trkpt>
   <trkpt lat="-3.1277180" lon="37.3112580">
    <ele>2878.5</ele>
    <time>2026-06-20T15:03:07Z</time>
   </trkpt>
   <trkpt lat="-3.1277200" lon="37.3112580">
    <ele>2878.5</ele>
    <time>2026-06-20T15:03:08Z</time>
   </trkpt>
   <trkpt lat="-3.1277260" lon="37.3112530">
    <ele>2878.5</ele>
    <time>2026-06-20T15:03:09Z</time>
   </trkpt>
   <trkpt lat="-3.1277290" lon="37.3112620">
    <ele>2878.6</ele>
    <time>2026-06-20T15:03:10Z</time>
   </trkpt>
   <trkpt lat="-3.1277290" lon="37.3112620">
    <ele>2878.6</ele>
    <time>2026-06-20T15:03:11Z</time>
   </trkpt>
   <trkpt lat="-3.1277290" lon="37.3112550">
    <ele>2878.6</ele>
    <time>2026-06-20T15:03:12Z</time>
   </trkpt>
   <trkpt lat="-3.1277290" lon="37.3112550">
    <ele>2878.6</ele>
    <time>2026-06-20T15:03:13Z</time>
   </trkpt>
   <trkpt lat="-3.1277290" lon="37.3112550">
    <ele>2878.6</ele>
    <time>2026-06-20T15:03:14Z</time>
   </trkpt>
   <trkpt lat="-3.1277290" lon="37.3112550">
    <ele>2878.6</ele>
    <time>2026-06-20T15:03:15Z</time>
   </trkpt>
   <trkpt lat="-3.1277290" lon="37.3112550">
    <ele>2878.6</ele>
    <time>2026-06-20T15:03:16Z</time>
   </trkpt>
   <trkpt lat="-3.1277290" lon="37.3112550">
    <ele>2878.6</ele>
    <time>2026-06-20T15:03:17Z</time>
   </trkpt>
   <trkpt lat="-3.1277290" lon="37.3112550">
    <ele>2878.6</ele>
    <time>2026-06-20T15:03:18Z</time>
   </trkpt>
   <trkpt lat="-3.1277290" lon="37.3112550">
    <ele>2878.6</ele>
    <time>2026-06-20T15:03:19Z</time>
   </trkpt>
   <trkpt lat="-3.1277290" lon="37.3112550">
    <ele>2878.6</ele>
    <time>2026-06-20T15:03:20Z</time>
   </trkpt>
   <trkpt lat="-3.1277290" lon="37.3112550">
    <ele>2878.6</ele>
    <time>2026-06-20T15:03:21Z</time>
   </trkpt>
   <trkpt lat="-3.1277290" lon="37.3112550">
    <ele>2878.6</ele>
    <time>2026-06-20T15:03:22Z</time>
   </trkpt>
   <trkpt lat="-3.1277290" lon="37.3112550">
    <ele>2878.6</ele>
    <time>2026-06-20T15:03:23Z</time>
   </trkpt>
   <trkpt lat="-3.1277290" lon="37.3112550">
    <ele>2878.6</ele>
    <time>2026-06-20T15:03:24Z</time>
   </trkpt>
   <trkpt lat="-3.1277290" lon="37.3112550">
    <ele>2878.6</ele>
    <time>2026-06-20T15:03:25Z</time>
   </trkpt>
   <trkpt lat="-3.1277290" lon="37.3112550">
    <ele>2878.6</ele>
    <time>2026-06-20T15:03:26Z</time>
   </trkpt>
   <trkpt lat="-3.1277290" lon="37.3112550">
    <ele>2878.6</ele>
    <time>2026-06-20T15:03:27Z</time>
   </trkpt>
   <trkpt lat="-3.1277120" lon="37.3112250">
    <ele>2878.8</ele>
    <time>2026-06-20T15:03:28Z</time>
   </trkpt>
   <trkpt lat="-3.1277120" lon="37.3112240">
    <ele>2878.8</ele>
    <time>2026-06-20T15:03:29Z</time>
   </trkpt>
   <trkpt lat="-3.1277120" lon="37.3112240">
    <ele>2878.8</ele>
    <time>2026-06-20T15:03:30Z</time>
   </trkpt>
   <trkpt lat="-3.1277190" lon="37.3112250">
    <ele>2878.8</ele>
    <time>2026-06-20T15:03:31Z</time>
   </trkpt>
   <trkpt lat="-3.1277180" lon="37.3112270">
    <ele>2878.8</ele>
    <time>2026-06-20T15:03:32Z</time>
   </trkpt>
   <trkpt lat="-3.1277180" lon="37.3112270">
    <ele>2878.8</ele>
    <time>2026-06-20T15:03:33Z</time>
   </trkpt>
   <trkpt lat="-3.1277180" lon="37.3112270">
    <ele>2878.8</ele>
    <time>2026-06-20T15:03:34Z</time>
   </trkpt>
   <trkpt lat="-3.1277260" lon="37.3112320">
    <ele>2878.9</ele>
    <time>2026-06-20T15:03:35Z</time>
   </trkpt>
   <trkpt lat="-3.1277260" lon="37.3112320">
    <ele>2878.9</ele>
    <time>2026-06-20T15:03:36Z</time>
   </trkpt>
   <trkpt lat="-3.1277260" lon="37.3112320">
    <ele>2878.9</ele>
    <time>2026-06-20T15:03:37Z</time>
   </trkpt>
   <trkpt lat="-3.1277260" lon="37.3112320">
    <ele>2878.9</ele>
    <time>2026-06-20T15:03:38Z</time>
   </trkpt>
   <trkpt lat="-3.1277230" lon="37.3112200">
    <ele>2878.9</ele>
    <time>2026-06-20T15:03:39Z</time>
   </trkpt>
   <trkpt lat="-3.1277230" lon="37.3112200">
    <ele>2878.9</ele>
    <time>2026-06-20T15:03:40Z</time>
   </trkpt>
   <trkpt lat="-3.1277200" lon="37.3112290">
    <ele>2879.0</ele>
    <time>2026-06-20T15:03:41Z</time>
   </trkpt>
   <trkpt lat="-3.1277200" lon="37.3112290">
    <ele>2879.0</ele>
    <time>2026-06-20T15:03:42Z</time>
   </trkpt>
   <trkpt lat="-3.1277200" lon="37.3112290">
    <ele>2879.0</ele>
    <time>2026-06-20T15:03:43Z</time>
   </trkpt>
   <trkpt lat="-3.1277200" lon="37.3112290">
    <ele>2879.0</ele>
    <time>2026-06-20T15:03:44Z</time>
   </trkpt>
   <trkpt lat="-3.1277200" lon="37.3112290">
    <ele>2879.0</ele>
    <time>2026-06-20T15:03:45Z</time>
   </trkpt>
   <trkpt lat="-3.1277160" lon="37.3112420">
    <ele>2879.0</ele>
    <time>2026-06-20T15:03:46Z</time>
   </trkpt>
   <trkpt lat="-3.1277130" lon="37.3112420">
    <ele>2879.1</ele>
    <time>2026-06-20T15:03:47Z</time>
   </trkpt>
   <trkpt lat="-3.1277160" lon="37.3112480">
    <ele>2879.1</ele>
    <time>2026-06-20T15:03:48Z</time>
   </trkpt>
   <trkpt lat="-3.1277130" lon="37.3112440">
    <ele>2879.1</ele>
    <time>2026-06-20T15:03:49Z</time>
   </trkpt>
   <trkpt lat="-3.1277140" lon="37.3112460">
    <ele>2879.1</ele>
    <time>2026-06-20T15:03:50Z</time>
   </trkpt>
  </trkseg>
 </trk>
</gpx>
